<?xml version="1.0" encoding="UTF-8" standalone="no" ?>
<gpx xmlns="http://www.topografix.com/GPX/1/1" xmlns:xsi="http://www.w3.org/2001/XMLSchema-instance" xsi:schemaLocation="http://www.topografix.com/GPX/1/1 http://www.topografix.com/GPX/1/1/gpx.xsd" version="1.1" creator="VisuGPX - https://www.visugpx.com">
  <metadata>
    <name>Véléclipse J2</name>
  </metadata>
  <trk>
    <name><![CDATA[Véléclipse J2_1]]></name>
    <trkseg>
      <trkpt lat="43.37513" lon="-1.76501">
        <ele>5.8</ele>
        <time>2026-08-05T08:01:52Z</time>
      </trkpt>
      <trkpt lat="43.37512" lon="-1.76506">
        <ele>5.8</ele>
        <time>2026-08-05T08:01:53Z</time>
      </trkpt>
      <trkpt lat="43.37511" lon="-1.76512">
        <ele>5.8</ele>
        <time>2026-08-05T08:01:54Z</time>
      </trkpt>
      <trkpt lat="43.3751" lon="-1.76517">
        <ele>5.8</ele>
        <time>2026-08-05T08:01:55Z</time>
      </trkpt>
      <trkpt lat="43.37509" lon="-1.76523">
        <ele>5.8</ele>
        <time>2026-08-05T08:01:56Z</time>
      </trkpt>
      <trkpt lat="43.37507" lon="-1.76528">
        <ele>5.8</ele>
        <time>2026-08-05T08:01:57Z</time>
      </trkpt>
      <trkpt lat="43.37506" lon="-1.76534">
        <ele>6</ele>
        <time>2026-08-05T08:01:58Z</time>
      </trkpt>
      <trkpt lat="43.37505" lon="-1.76539">
        <ele>6</ele>
        <time>2026-08-05T08:01:59Z</time>
      </trkpt>
      <trkpt lat="43.37504" lon="-1.76544">
        <ele>6</ele>
        <time>2026-08-05T08:02:00Z</time>
      </trkpt>
      <trkpt lat="43.37503" lon="-1.7655">
        <ele>6</ele>
        <time>2026-08-05T08:02:01Z</time>
      </trkpt>
      <trkpt lat="43.37501" lon="-1.76555">
        <ele>5.6</ele>
        <time>2026-08-05T08:02:02Z</time>
      </trkpt>
      <trkpt lat="43.375" lon="-1.76561">
        <ele>5.6</ele>
        <time>2026-08-05T08:02:03Z</time>
      </trkpt>
      <trkpt lat="43.37498" lon="-1.76567">
        <ele>5.6</ele>
        <time>2026-08-05T08:02:04Z</time>
      </trkpt>
      <trkpt lat="43.37497" lon="-1.76573">
        <ele>5.8</ele>
        <time>2026-08-05T08:02:05Z</time>
      </trkpt>
      <trkpt lat="43.37496" lon="-1.76579">
        <ele>6</ele>
        <time>2026-08-05T08:02:06Z</time>
      </trkpt>
      <trkpt lat="43.37495" lon="-1.76584">
        <ele>6</ele>
        <time>2026-08-05T08:02:07Z</time>
      </trkpt>
      <trkpt lat="43.37494" lon="-1.7659">
        <ele>6</ele>
        <time>2026-08-05T08:02:08Z</time>
      </trkpt>
      <trkpt lat="43.37492" lon="-1.76595">
        <ele>6</ele>
        <time>2026-08-05T08:02:09Z</time>
      </trkpt>
      <trkpt lat="43.37491" lon="-1.76601">
        <ele>6</ele>
        <time>2026-08-05T08:02:10Z</time>
      </trkpt>
      <trkpt lat="43.3749" lon="-1.76606">
        <ele>6</ele>
        <time>2026-08-05T08:02:11Z</time>
      </trkpt>
      <trkpt lat="43.37489" lon="-1.76611">
        <ele>6</ele>
        <time>2026-08-05T08:02:12Z</time>
      </trkpt>
      <trkpt lat="43.37487" lon="-1.76617">
        <ele>6</ele>
        <time>2026-08-05T08:02:13Z</time>
      </trkpt>
      <trkpt lat="43.37486" lon="-1.76622">
        <ele>6</ele>
        <time>2026-08-05T08:02:14Z</time>
      </trkpt>
      <trkpt lat="43.37485" lon="-1.76627">
        <ele>6</ele>
        <time>2026-08-05T08:02:15Z</time>
      </trkpt>
      <trkpt lat="43.37484" lon="-1.76632">
        <ele>6</ele>
        <time>2026-08-05T08:02:16Z</time>
      </trkpt>
      <trkpt lat="43.37483" lon="-1.76637">
        <ele>6</ele>
        <time>2026-08-05T08:02:17Z</time>
      </trkpt>
      <trkpt lat="43.37482" lon="-1.76643">
        <ele>6</ele>
        <time>2026-08-05T08:02:18Z</time>
      </trkpt>
      <trkpt lat="43.37481" lon="-1.76648">
        <ele>6</ele>
        <time>2026-08-05T08:02:19Z</time>
      </trkpt>
      <trkpt lat="43.3748" lon="-1.76653">
        <ele>5.8</ele>
        <time>2026-08-05T08:02:20Z</time>
      </trkpt>
      <trkpt lat="43.37479" lon="-1.76659">
        <ele>5.8</ele>
        <time>2026-08-05T08:02:21Z</time>
      </trkpt>
      <trkpt lat="43.37478" lon="-1.76664">
        <ele>5.8</ele>
        <time>2026-08-05T08:02:22Z</time>
      </trkpt>
      <trkpt lat="43.37477" lon="-1.76669">
        <ele>6</ele>
        <time>2026-08-05T08:02:23Z</time>
      </trkpt>
      <trkpt lat="43.37475" lon="-1.76675">
        <ele>6</ele>
        <time>2026-08-05T08:02:24Z</time>
      </trkpt>
      <trkpt lat="43.37474" lon="-1.76681">
        <ele>6</ele>
        <time>2026-08-05T08:02:25Z</time>
      </trkpt>
      <trkpt lat="43.37473" lon="-1.76687">
        <ele>6</ele>
        <time>2026-08-05T08:02:26Z</time>
      </trkpt>
      <trkpt lat="43.37472" lon="-1.76692">
        <ele>6</ele>
        <time>2026-08-05T08:02:27Z</time>
      </trkpt>
      <trkpt lat="43.3747" lon="-1.76698">
        <ele>6</ele>
        <time>2026-08-05T08:02:28Z</time>
      </trkpt>
      <trkpt lat="43.37469" lon="-1.76705">
        <ele>5.8</ele>
        <time>2026-08-05T08:02:29Z</time>
      </trkpt>
      <trkpt lat="43.37468" lon="-1.76711">
        <ele>5.6</ele>
        <time>2026-08-05T08:02:30Z</time>
      </trkpt>
      <trkpt lat="43.37466" lon="-1.76716">
        <ele>5.6</ele>
        <time>2026-08-05T08:02:31Z</time>
      </trkpt>
      <trkpt lat="43.37465" lon="-1.76722">
        <ele>5.6</ele>
        <time>2026-08-05T08:02:32Z</time>
      </trkpt>
      <trkpt lat="43.37463" lon="-1.76728">
        <ele>5.6</ele>
        <time>2026-08-05T08:02:33Z</time>
      </trkpt>
      <trkpt lat="43.37462" lon="-1.76734">
        <ele>5.6</ele>
        <time>2026-08-05T08:02:34Z</time>
      </trkpt>
      <trkpt lat="43.37461" lon="-1.7674">
        <ele>5.8</ele>
        <time>2026-08-05T08:02:35Z</time>
      </trkpt>
      <trkpt lat="43.3746" lon="-1.76746">
        <ele>5.8</ele>
        <time>2026-08-05T08:02:36Z</time>
      </trkpt>
      <trkpt lat="43.37458" lon="-1.76752">
        <ele>5.8</ele>
        <time>2026-08-05T08:02:37Z</time>
      </trkpt>
      <trkpt lat="43.37457" lon="-1.76758">
        <ele>5.8</ele>
        <time>2026-08-05T08:02:38Z</time>
      </trkpt>
      <trkpt lat="43.37455" lon="-1.76764">
        <ele>5.8</ele>
        <time>2026-08-05T08:02:39Z</time>
      </trkpt>
      <trkpt lat="43.37454" lon="-1.7677">
        <ele>5.4</ele>
        <time>2026-08-05T08:02:40Z</time>
      </trkpt>
      <trkpt lat="43.37453" lon="-1.76775">
        <ele>5.4</ele>
        <time>2026-08-05T08:02:41Z</time>
      </trkpt>
      <trkpt lat="43.37452" lon="-1.76781">
        <ele>5.4</ele>
        <time>2026-08-05T08:02:42Z</time>
      </trkpt>
      <trkpt lat="43.37451" lon="-1.76787">
        <ele>5.6</ele>
        <time>2026-08-05T08:02:43Z</time>
      </trkpt>
      <trkpt lat="43.37449" lon="-1.76793">
        <ele>5.8</ele>
        <time>2026-08-05T08:02:44Z</time>
      </trkpt>
      <trkpt lat="43.37448" lon="-1.76799">
        <ele>5.8</ele>
        <time>2026-08-05T08:02:45Z</time>
      </trkpt>
      <trkpt lat="43.37447" lon="-1.76805">
        <ele>5.8</ele>
        <time>2026-08-05T08:02:46Z</time>
      </trkpt>
      <trkpt lat="43.37446" lon="-1.76811">
        <ele>5.8</ele>
        <time>2026-08-05T08:02:47Z</time>
      </trkpt>
      <trkpt lat="43.37444" lon="-1.76816">
        <ele>5.8</ele>
        <time>2026-08-05T08:02:48Z</time>
      </trkpt>
      <trkpt lat="43.37443" lon="-1.76822">
        <ele>5.8</ele>
        <time>2026-08-05T08:02:49Z</time>
      </trkpt>
      <trkpt lat="43.37442" lon="-1.76827">
        <ele>5.8</ele>
        <time>2026-08-05T08:02:50Z</time>
      </trkpt>
      <trkpt lat="43.37441" lon="-1.76833">
        <ele>6.4</ele>
        <time>2026-08-05T08:02:51Z</time>
      </trkpt>
      <trkpt lat="43.3744" lon="-1.76838">
        <ele>6.4</ele>
        <time>2026-08-05T08:02:52Z</time>
      </trkpt>
      <trkpt lat="43.37439" lon="-1.76844">
        <ele>6.4</ele>
        <time>2026-08-05T08:02:53Z</time>
      </trkpt>
      <trkpt lat="43.37437" lon="-1.7685">
        <ele>5.8</ele>
        <time>2026-08-05T08:02:54Z</time>
      </trkpt>
      <trkpt lat="43.37436" lon="-1.76855">
        <ele>5.6</ele>
        <time>2026-08-05T08:02:55Z</time>
      </trkpt>
      <trkpt lat="43.37435" lon="-1.76861">
        <ele>5.6</ele>
        <time>2026-08-05T08:02:56Z</time>
      </trkpt>
      <trkpt lat="43.37434" lon="-1.76866">
        <ele>5.6</ele>
        <time>2026-08-05T08:02:57Z</time>
      </trkpt>
      <trkpt lat="43.37433" lon="-1.76871">
        <ele>6.4</ele>
        <time>2026-08-05T08:02:58Z</time>
      </trkpt>
      <trkpt lat="43.37431" lon="-1.76875">
        <ele>6.4</ele>
        <time>2026-08-05T08:02:59Z</time>
      </trkpt>
      <trkpt lat="43.3743" lon="-1.76879">
        <ele>6.4</ele>
        <time>2026-08-05T08:03:00Z</time>
      </trkpt>
      <trkpt lat="43.37429" lon="-1.76883">
        <ele>6.4</ele>
        <time>2026-08-05T08:03:01Z</time>
      </trkpt>
      <trkpt lat="43.37428" lon="-1.76887">
        <ele>6.4</ele>
        <time>2026-08-05T08:03:02Z</time>
      </trkpt>
      <trkpt lat="43.37427" lon="-1.76892">
        <ele>6.4</ele>
        <time>2026-08-05T08:03:03Z</time>
      </trkpt>
      <trkpt lat="43.37427" lon="-1.76897">
        <ele>6.4</ele>
        <time>2026-08-05T08:03:04Z</time>
      </trkpt>
      <trkpt lat="43.37426" lon="-1.76902">
        <ele>6.4</ele>
        <time>2026-08-05T08:03:05Z</time>
      </trkpt>
      <trkpt lat="43.37426" lon="-1.76907">
        <ele>6.4</ele>
        <time>2026-08-05T08:03:06Z</time>
      </trkpt>
      <trkpt lat="43.37424" lon="-1.76913">
        <ele>6.4</ele>
        <time>2026-08-05T08:03:07Z</time>
      </trkpt>
      <trkpt lat="43.37423" lon="-1.76918">
        <ele>6.4</ele>
        <time>2026-08-05T08:03:08Z</time>
      </trkpt>
      <trkpt lat="43.37422" lon="-1.76923">
        <ele>6.4</ele>
        <time>2026-08-05T08:03:09Z</time>
      </trkpt>
      <trkpt lat="43.37421" lon="-1.76929">
        <ele>6.4</ele>
        <time>2026-08-05T08:03:10Z</time>
      </trkpt>
      <trkpt lat="43.3742" lon="-1.76934">
        <ele>6.4</ele>
        <time>2026-08-05T08:03:11Z</time>
      </trkpt>
      <trkpt lat="43.37419" lon="-1.76939">
        <ele>6</ele>
        <time>2026-08-05T08:03:12Z</time>
      </trkpt>
      <trkpt lat="43.37418" lon="-1.76945">
        <ele>6</ele>
        <time>2026-08-05T08:03:13Z</time>
      </trkpt>
      <trkpt lat="43.37416" lon="-1.7695">
        <ele>6</ele>
        <time>2026-08-05T08:03:14Z</time>
      </trkpt>
      <trkpt lat="43.37415" lon="-1.76956">
        <ele>6.2</ele>
        <time>2026-08-05T08:03:15Z</time>
      </trkpt>
      <trkpt lat="43.37414" lon="-1.76961">
        <ele>6.2</ele>
        <time>2026-08-05T08:03:16Z</time>
      </trkpt>
      <trkpt lat="43.37412" lon="-1.76967">
        <ele>6.2</ele>
        <time>2026-08-05T08:03:17Z</time>
      </trkpt>
      <trkpt lat="43.37411" lon="-1.76973">
        <ele>6.2</ele>
        <time>2026-08-05T08:03:18Z</time>
      </trkpt>
      <trkpt lat="43.3741" lon="-1.76978">
        <ele>6.2</ele>
        <time>2026-08-05T08:03:19Z</time>
      </trkpt>
      <trkpt lat="43.37408" lon="-1.76984">
        <ele>6.2</ele>
        <time>2026-08-05T08:03:20Z</time>
      </trkpt>
      <trkpt lat="43.37407" lon="-1.7699">
        <ele>6.2</ele>
        <time>2026-08-05T08:03:21Z</time>
      </trkpt>
      <trkpt lat="43.37406" lon="-1.76996">
        <ele>5.8</ele>
        <time>2026-08-05T08:03:22Z</time>
      </trkpt>
      <trkpt lat="43.37404" lon="-1.77001">
        <ele>4.4</ele>
        <time>2026-08-05T08:03:23Z</time>
      </trkpt>
      <trkpt lat="43.37403" lon="-1.77007">
        <ele>4.4</ele>
        <time>2026-08-05T08:03:24Z</time>
      </trkpt>
      <trkpt lat="43.37402" lon="-1.77012">
        <ele>4.4</ele>
        <time>2026-08-05T08:03:25Z</time>
      </trkpt>
      <trkpt lat="43.37401" lon="-1.77018">
        <ele>5.4</ele>
        <time>2026-08-05T08:03:26Z</time>
      </trkpt>
      <trkpt lat="43.37399" lon="-1.77024">
        <ele>6</ele>
        <time>2026-08-05T08:03:27Z</time>
      </trkpt>
      <trkpt lat="43.37398" lon="-1.7703">
        <ele>6</ele>
        <time>2026-08-05T08:03:28Z</time>
      </trkpt>
      <trkpt lat="43.37397" lon="-1.77036">
        <ele>6</ele>
        <time>2026-08-05T08:03:29Z</time>
      </trkpt>
      <trkpt lat="43.37395" lon="-1.77042">
        <ele>6</ele>
        <time>2026-08-05T08:03:30Z</time>
      </trkpt>
      <trkpt lat="43.37394" lon="-1.77048">
        <ele>5.8</ele>
        <time>2026-08-05T08:03:31Z</time>
      </trkpt>
      <trkpt lat="43.37392" lon="-1.77054">
        <ele>5.8</ele>
        <time>2026-08-05T08:03:32Z</time>
      </trkpt>
      <trkpt lat="43.37391" lon="-1.7706">
        <ele>5.8</ele>
        <time>2026-08-05T08:03:33Z</time>
      </trkpt>
      <trkpt lat="43.37389" lon="-1.77066">
        <ele>5.8</ele>
        <time>2026-08-05T08:03:34Z</time>
      </trkpt>
      <trkpt lat="43.37388" lon="-1.77071">
        <ele>5.8</ele>
        <time>2026-08-05T08:03:35Z</time>
      </trkpt>
      <trkpt lat="43.37387" lon="-1.77077">
        <ele>5.8</ele>
        <time>2026-08-05T08:03:36Z</time>
      </trkpt>
      <trkpt lat="43.37386" lon="-1.77082">
        <ele>6</ele>
        <time>2026-08-05T08:03:37Z</time>
      </trkpt>
      <trkpt lat="43.37384" lon="-1.77088">
        <ele>6</ele>
        <time>2026-08-05T08:03:38Z</time>
      </trkpt>
      <trkpt lat="43.37383" lon="-1.77093">
        <ele>6</ele>
        <time>2026-08-05T08:03:39Z</time>
      </trkpt>
      <trkpt lat="43.37381" lon="-1.77098">
        <ele>6</ele>
        <time>2026-08-05T08:03:40Z</time>
      </trkpt>
      <trkpt lat="43.3738" lon="-1.77103">
        <ele>5.8</ele>
        <time>2026-08-05T08:03:41Z</time>
      </trkpt>
      <trkpt lat="43.37379" lon="-1.77109">
        <ele>5.8</ele>
        <time>2026-08-05T08:03:42Z</time>
      </trkpt>
      <trkpt lat="43.37378" lon="-1.77115">
        <ele>5.8</ele>
        <time>2026-08-05T08:03:43Z</time>
      </trkpt>
      <trkpt lat="43.37377" lon="-1.77121">
        <ele>5.8</ele>
        <time>2026-08-05T08:03:44Z</time>
      </trkpt>
      <trkpt lat="43.37376" lon="-1.77126">
        <ele>5.8</ele>
        <time>2026-08-05T08:03:45Z</time>
      </trkpt>
      <trkpt lat="43.37375" lon="-1.77132">
        <ele>5.8</ele>
        <time>2026-08-05T08:03:46Z</time>
      </trkpt>
      <trkpt lat="43.37374" lon="-1.77138">
        <ele>5.8</ele>
        <time>2026-08-05T08:03:47Z</time>
      </trkpt>
      <trkpt lat="43.37373" lon="-1.77143">
        <ele>5.8</ele>
        <time>2026-08-05T08:03:48Z</time>
      </trkpt>
      <trkpt lat="43.37371" lon="-1.77149">
        <ele>5.8</ele>
        <time>2026-08-05T08:03:49Z</time>
      </trkpt>
      <trkpt lat="43.3737" lon="-1.77155">
        <ele>5.8</ele>
        <time>2026-08-05T08:03:50Z</time>
      </trkpt>
      <trkpt lat="43.37369" lon="-1.7716">
        <ele>5.8</ele>
        <time>2026-08-05T08:03:51Z</time>
      </trkpt>
      <trkpt lat="43.37368" lon="-1.77166">
        <ele>5.8</ele>
        <time>2026-08-05T08:03:52Z</time>
      </trkpt>
      <trkpt lat="43.37367" lon="-1.77172">
        <ele>5.6</ele>
        <time>2026-08-05T08:03:53Z</time>
      </trkpt>
      <trkpt lat="43.37366" lon="-1.77177">
        <ele>5.6</ele>
        <time>2026-08-05T08:03:54Z</time>
      </trkpt>
      <trkpt lat="43.37364" lon="-1.77183">
        <ele>5.6</ele>
        <time>2026-08-05T08:03:55Z</time>
      </trkpt>
      <trkpt lat="43.37363" lon="-1.77188">
        <ele>5.6</ele>
        <time>2026-08-05T08:03:56Z</time>
      </trkpt>
      <trkpt lat="43.37362" lon="-1.77193">
        <ele>5.6</ele>
        <time>2026-08-05T08:03:57Z</time>
      </trkpt>
      <trkpt lat="43.37362" lon="-1.77198">
        <ele>5.6</ele>
        <time>2026-08-05T08:03:58Z</time>
      </trkpt>
      <trkpt lat="43.3736" lon="-1.77204">
        <ele>5.8</ele>
        <time>2026-08-05T08:03:59Z</time>
      </trkpt>
      <trkpt lat="43.37359" lon="-1.77209">
        <ele>5.8</ele>
        <time>2026-08-05T08:04:00Z</time>
      </trkpt>
      <trkpt lat="43.37358" lon="-1.77214">
        <ele>5.8</ele>
        <time>2026-08-05T08:04:01Z</time>
      </trkpt>
      <trkpt lat="43.37357" lon="-1.77218">
        <ele>5.8</ele>
        <time>2026-08-05T08:04:02Z</time>
      </trkpt>
      <trkpt lat="43.37356" lon="-1.77223">
        <ele>5.6</ele>
        <time>2026-08-05T08:04:03Z</time>
      </trkpt>
      <trkpt lat="43.37355" lon="-1.77228">
        <ele>5.6</ele>
        <time>2026-08-05T08:04:04Z</time>
      </trkpt>
      <trkpt lat="43.37354" lon="-1.77233">
        <ele>5.6</ele>
        <time>2026-08-05T08:04:05Z</time>
      </trkpt>
      <trkpt lat="43.37353" lon="-1.77238">
        <ele>5.6</ele>
        <time>2026-08-05T08:04:06Z</time>
      </trkpt>
      <trkpt lat="43.37352" lon="-1.77243">
        <ele>5.6</ele>
        <time>2026-08-05T08:04:07Z</time>
      </trkpt>
      <trkpt lat="43.37351" lon="-1.77248">
        <ele>5.6</ele>
        <time>2026-08-05T08:04:08Z</time>
      </trkpt>
      <trkpt lat="43.37349" lon="-1.77253">
        <ele>5.6</ele>
        <time>2026-08-05T08:04:09Z</time>
      </trkpt>
      <trkpt lat="43.37347" lon="-1.77257">
        <ele>5.6</ele>
        <time>2026-08-05T08:04:10Z</time>
      </trkpt>
      <trkpt lat="43.37345" lon="-1.77262">
        <ele>5.6</ele>
        <time>2026-08-05T08:04:11Z</time>
      </trkpt>
      <trkpt lat="43.37343" lon="-1.77267">
        <ele>5.6</ele>
        <time>2026-08-05T08:04:12Z</time>
      </trkpt>
      <trkpt lat="43.37342" lon="-1.77272">
        <ele>5.6</ele>
        <time>2026-08-05T08:04:13Z</time>
      </trkpt>
      <trkpt lat="43.3734" lon="-1.77276">
        <ele>5.6</ele>
        <time>2026-08-05T08:04:14Z</time>
      </trkpt>
      <trkpt lat="43.37338" lon="-1.77281">
        <ele>5.6</ele>
        <time>2026-08-05T08:04:15Z</time>
      </trkpt>
      <trkpt lat="43.37337" lon="-1.77287">
        <ele>5.6</ele>
        <time>2026-08-05T08:04:16Z</time>
      </trkpt>
      <trkpt lat="43.37335" lon="-1.77292">
        <ele>5.6</ele>
        <time>2026-08-05T08:04:17Z</time>
      </trkpt>
      <trkpt lat="43.37334" lon="-1.77297">
        <ele>5.6</ele>
        <time>2026-08-05T08:04:18Z</time>
      </trkpt>
      <trkpt lat="43.37333" lon="-1.77303">
        <ele>5.8</ele>
        <time>2026-08-05T08:04:19Z</time>
      </trkpt>
      <trkpt lat="43.37332" lon="-1.77308">
        <ele>5.8</ele>
        <time>2026-08-05T08:04:20Z</time>
      </trkpt>
      <trkpt lat="43.37332" lon="-1.77314">
        <ele>5.2</ele>
        <time>2026-08-05T08:04:21Z</time>
      </trkpt>
      <trkpt lat="43.37331" lon="-1.7732">
        <ele>5.2</ele>
        <time>2026-08-05T08:04:22Z</time>
      </trkpt>
      <trkpt lat="43.3733" lon="-1.77326">
        <ele>5.2</ele>
        <time>2026-08-05T08:04:23Z</time>
      </trkpt>
      <trkpt lat="43.3733" lon="-1.77332">
        <ele>5.2</ele>
        <time>2026-08-05T08:04:24Z</time>
      </trkpt>
      <trkpt lat="43.37329" lon="-1.77337">
        <ele>6</ele>
        <time>2026-08-05T08:04:25Z</time>
      </trkpt>
      <trkpt lat="43.37328" lon="-1.77342">
        <ele>6</ele>
        <time>2026-08-05T08:04:26Z</time>
      </trkpt>
      <trkpt lat="43.37327" lon="-1.77348">
        <ele>6</ele>
        <time>2026-08-05T08:04:27Z</time>
      </trkpt>
      <trkpt lat="43.37327" lon="-1.77353">
        <ele>6</ele>
        <time>2026-08-05T08:04:28Z</time>
      </trkpt>
      <trkpt lat="43.37326" lon="-1.77358">
        <ele>5.8</ele>
        <time>2026-08-05T08:04:29Z</time>
      </trkpt>
      <trkpt lat="43.37325" lon="-1.77363">
        <ele>5.8</ele>
        <time>2026-08-05T08:04:30Z</time>
      </trkpt>
      <trkpt lat="43.37324" lon="-1.77368">
        <ele>5.8</ele>
        <time>2026-08-05T08:04:31Z</time>
      </trkpt>
      <trkpt lat="43.37323" lon="-1.77373">
        <ele>5.8</ele>
        <time>2026-08-05T08:04:32Z</time>
      </trkpt>
      <trkpt lat="43.37322" lon="-1.77377">
        <ele>5.8</ele>
        <time>2026-08-05T08:04:33Z</time>
      </trkpt>
      <trkpt lat="43.3732" lon="-1.7738">
        <ele>5.6</ele>
        <time>2026-08-05T08:04:34Z</time>
      </trkpt>
      <trkpt lat="43.37319" lon="-1.77383">
        <ele>5.6</ele>
        <time>2026-08-05T08:04:35Z</time>
      </trkpt>
      <trkpt lat="43.37319" lon="-1.77386">
        <ele>5.6</ele>
        <time>2026-08-05T08:04:36Z</time>
      </trkpt>
      <trkpt lat="43.37318" lon="-1.77389">
        <ele>5.8</ele>
        <time>2026-08-05T08:04:37Z</time>
      </trkpt>
      <trkpt lat="43.37317" lon="-1.77392">
        <ele>5.8</ele>
        <time>2026-08-05T08:04:38Z</time>
      </trkpt>
      <trkpt lat="43.37316" lon="-1.77395">
        <ele>6</ele>
        <time>2026-08-05T08:04:39Z</time>
      </trkpt>
      <trkpt lat="43.37314" lon="-1.77397">
        <ele>6</ele>
        <time>2026-08-05T08:04:40Z</time>
      </trkpt>
      <trkpt lat="43.37312" lon="-1.77399">
        <ele>6</ele>
        <time>2026-08-05T08:04:41Z</time>
      </trkpt>
      <trkpt lat="43.37309" lon="-1.77401">
        <ele>5.8</ele>
        <time>2026-08-05T08:04:42Z</time>
      </trkpt>
      <trkpt lat="43.37307" lon="-1.77401">
        <ele>5.6</ele>
        <time>2026-08-05T08:04:43Z</time>
      </trkpt>
      <trkpt lat="43.37304" lon="-1.77401">
        <ele>5.6</ele>
        <time>2026-08-05T08:04:44Z</time>
      </trkpt>
      <trkpt lat="43.37301" lon="-1.77399">
        <ele>5.6</ele>
        <time>2026-08-05T08:04:45Z</time>
      </trkpt>
      <trkpt lat="43.37297" lon="-1.77397">
        <ele>5.6</ele>
        <time>2026-08-05T08:04:46Z</time>
      </trkpt>
      <trkpt lat="43.37294" lon="-1.77394">
        <ele>5.2</ele>
        <time>2026-08-05T08:04:47Z</time>
      </trkpt>
      <trkpt lat="43.37291" lon="-1.77392">
        <ele>5.2</ele>
        <time>2026-08-05T08:04:48Z</time>
      </trkpt>
      <trkpt lat="43.37287" lon="-1.77389">
        <ele>5.2</ele>
        <time>2026-08-05T08:04:49Z</time>
      </trkpt>
      <trkpt lat="43.37284" lon="-1.77386">
        <ele>5.2</ele>
        <time>2026-08-05T08:04:50Z</time>
      </trkpt>
      <trkpt lat="43.37281" lon="-1.77383">
        <ele>5.2</ele>
        <time>2026-08-05T08:04:51Z</time>
      </trkpt>
      <trkpt lat="43.37277" lon="-1.77381">
        <ele>5.2</ele>
        <time>2026-08-05T08:04:52Z</time>
      </trkpt>
      <trkpt lat="43.37273" lon="-1.77379">
        <ele>5.2</ele>
        <time>2026-08-05T08:04:53Z</time>
      </trkpt>
      <trkpt lat="43.37269" lon="-1.77377">
        <ele>5</ele>
        <time>2026-08-05T08:04:54Z</time>
      </trkpt>
      <trkpt lat="43.37266" lon="-1.77375">
        <ele>5</ele>
        <time>2026-08-05T08:04:55Z</time>
      </trkpt>
      <trkpt lat="43.37262" lon="-1.77373">
        <ele>5</ele>
        <time>2026-08-05T08:04:56Z</time>
      </trkpt>
      <trkpt lat="43.37259" lon="-1.7737">
        <ele>5.6</ele>
        <time>2026-08-05T08:04:57Z</time>
      </trkpt>
      <trkpt lat="43.37255" lon="-1.77368">
        <ele>5.6</ele>
        <time>2026-08-05T08:04:58Z</time>
      </trkpt>
      <trkpt lat="43.37252" lon="-1.77366">
        <ele>5.6</ele>
        <time>2026-08-05T08:04:59Z</time>
      </trkpt>
      <trkpt lat="43.37248" lon="-1.77365">
        <ele>5.6</ele>
        <time>2026-08-05T08:05:00Z</time>
      </trkpt>
      <trkpt lat="43.37243" lon="-1.77363">
        <ele>5.6</ele>
        <time>2026-08-05T08:05:01Z</time>
      </trkpt>
      <trkpt lat="43.3724" lon="-1.77362">
        <ele>5.6</ele>
        <time>2026-08-05T08:05:02Z</time>
      </trkpt>
      <trkpt lat="43.37236" lon="-1.7736">
        <ele>5.4</ele>
        <time>2026-08-05T08:05:03Z</time>
      </trkpt>
      <trkpt lat="43.37233" lon="-1.77358">
        <ele>5.4</ele>
        <time>2026-08-05T08:05:04Z</time>
      </trkpt>
      <trkpt lat="43.37229" lon="-1.77355">
        <ele>5.4</ele>
        <time>2026-08-05T08:05:05Z</time>
      </trkpt>
      <trkpt lat="43.37225" lon="-1.77353">
        <ele>5.6</ele>
        <time>2026-08-05T08:05:06Z</time>
      </trkpt>
      <trkpt lat="43.37222" lon="-1.77351">
        <ele>5.6</ele>
        <time>2026-08-05T08:05:07Z</time>
      </trkpt>
      <trkpt lat="43.37218" lon="-1.77349">
        <ele>5.6</ele>
        <time>2026-08-05T08:05:08Z</time>
      </trkpt>
      <trkpt lat="43.37214" lon="-1.77347">
        <ele>5.6</ele>
        <time>2026-08-05T08:05:09Z</time>
      </trkpt>
      <trkpt lat="43.3721" lon="-1.77344">
        <ele>5.6</ele>
        <time>2026-08-05T08:05:10Z</time>
      </trkpt>
      <trkpt lat="43.37206" lon="-1.77342">
        <ele>5.6</ele>
        <time>2026-08-05T08:05:11Z</time>
      </trkpt>
      <trkpt lat="43.37202" lon="-1.7734">
        <ele>5.6</ele>
        <time>2026-08-05T08:05:12Z</time>
      </trkpt>
      <trkpt lat="43.37198" lon="-1.77338">
        <ele>5</ele>
        <time>2026-08-05T08:05:13Z</time>
      </trkpt>
      <trkpt lat="43.37195" lon="-1.77337">
        <ele>5</ele>
        <time>2026-08-05T08:05:14Z</time>
      </trkpt>
      <trkpt lat="43.37193" lon="-1.77335">
        <ele>5</ele>
        <time>2026-08-05T08:05:15Z</time>
      </trkpt>
      <trkpt lat="43.37191" lon="-1.77335">
        <ele>5</ele>
        <time>2026-08-05T08:05:16Z</time>
      </trkpt>
      <trkpt lat="43.37189" lon="-1.77333">
        <ele>5.2</ele>
        <time>2026-08-05T08:05:17Z</time>
      </trkpt>
      <trkpt lat="43.37186" lon="-1.77334">
        <ele>5.2</ele>
        <time>2026-08-05T08:05:18Z</time>
      </trkpt>
      <trkpt lat="43.37183" lon="-1.77336">
        <ele>5.2</ele>
        <time>2026-08-05T08:05:19Z</time>
      </trkpt>
      <trkpt lat="43.3718" lon="-1.77339">
        <ele>5.2</ele>
        <time>2026-08-05T08:05:20Z</time>
      </trkpt>
      <trkpt lat="43.37177" lon="-1.77341">
        <ele>5.2</ele>
        <time>2026-08-05T08:05:21Z</time>
      </trkpt>
      <trkpt lat="43.37174" lon="-1.77344">
        <ele>5.2</ele>
        <time>2026-08-05T08:05:22Z</time>
      </trkpt>
      <trkpt lat="43.37171" lon="-1.77346">
        <ele>5.2</ele>
        <time>2026-08-05T08:05:23Z</time>
      </trkpt>
      <trkpt lat="43.37168" lon="-1.77348">
        <ele>5.2</ele>
        <time>2026-08-05T08:05:24Z</time>
      </trkpt>
      <trkpt lat="43.37165" lon="-1.77349">
        <ele>5.2</ele>
        <time>2026-08-05T08:05:25Z</time>
      </trkpt>
      <trkpt lat="43.37162" lon="-1.77349">
        <ele>4.8</ele>
        <time>2026-08-05T08:05:26Z</time>
      </trkpt>
      <trkpt lat="43.37159" lon="-1.77348">
        <ele>4.8</ele>
        <time>2026-08-05T08:05:27Z</time>
      </trkpt>
      <trkpt lat="43.37155" lon="-1.77347">
        <ele>4.8</ele>
        <time>2026-08-05T08:05:28Z</time>
      </trkpt>
      <trkpt lat="43.37151" lon="-1.77345">
        <ele>5</ele>
        <time>2026-08-05T08:05:29Z</time>
      </trkpt>
      <trkpt lat="43.37148" lon="-1.77344">
        <ele>5</ele>
        <time>2026-08-05T08:05:30Z</time>
      </trkpt>
      <trkpt lat="43.37145" lon="-1.77341">
        <ele>5</ele>
        <time>2026-08-05T08:05:31Z</time>
      </trkpt>
      <trkpt lat="43.37142" lon="-1.77338">
        <ele>5</ele>
        <time>2026-08-05T08:05:32Z</time>
      </trkpt>
      <trkpt lat="43.3714" lon="-1.77333">
        <ele>5</ele>
        <time>2026-08-05T08:05:33Z</time>
      </trkpt>
      <trkpt lat="43.37138" lon="-1.77329">
        <ele>5</ele>
        <time>2026-08-05T08:05:34Z</time>
      </trkpt>
      <trkpt lat="43.37137" lon="-1.77324">
        <ele>5</ele>
        <time>2026-08-05T08:05:35Z</time>
      </trkpt>
      <trkpt lat="43.37136" lon="-1.77319">
        <ele>5.2</ele>
        <time>2026-08-05T08:05:36Z</time>
      </trkpt>
      <trkpt lat="43.37135" lon="-1.77313">
        <ele>5</ele>
        <time>2026-08-05T08:05:37Z</time>
      </trkpt>
      <trkpt lat="43.37134" lon="-1.77307">
        <ele>5</ele>
        <time>2026-08-05T08:05:38Z</time>
      </trkpt>
      <trkpt lat="43.37133" lon="-1.77301">
        <ele>4.6</ele>
        <time>2026-08-05T08:05:39Z</time>
      </trkpt>
      <trkpt lat="43.37131" lon="-1.77296">
        <ele>4.6</ele>
        <time>2026-08-05T08:05:40Z</time>
      </trkpt>
      <trkpt lat="43.37129" lon="-1.77292">
        <ele>4.6</ele>
        <time>2026-08-05T08:05:41Z</time>
      </trkpt>
      <trkpt lat="43.37125" lon="-1.77288">
        <ele>5</ele>
        <time>2026-08-05T08:05:42Z</time>
      </trkpt>
      <trkpt lat="43.37121" lon="-1.77285">
        <ele>4.8</ele>
        <time>2026-08-05T08:05:43Z</time>
      </trkpt>
      <trkpt lat="43.37118" lon="-1.77282">
        <ele>4.8</ele>
        <time>2026-08-05T08:05:44Z</time>
      </trkpt>
      <trkpt lat="43.37114" lon="-1.7728">
        <ele>4.8</ele>
        <time>2026-08-05T08:05:45Z</time>
      </trkpt>
      <trkpt lat="43.3711" lon="-1.77277">
        <ele>5</ele>
        <time>2026-08-05T08:05:46Z</time>
      </trkpt>
      <trkpt lat="43.37106" lon="-1.77275">
        <ele>5.4</ele>
        <time>2026-08-05T08:05:47Z</time>
      </trkpt>
      <trkpt lat="43.37101" lon="-1.77272">
        <ele>5.4</ele>
        <time>2026-08-05T08:05:48Z</time>
      </trkpt>
      <trkpt lat="43.37097" lon="-1.77269">
        <ele>5.4</ele>
        <time>2026-08-05T08:05:49Z</time>
      </trkpt>
      <trkpt lat="43.37093" lon="-1.77267">
        <ele>5.2</ele>
        <time>2026-08-05T08:05:50Z</time>
      </trkpt>
      <trkpt lat="43.37089" lon="-1.77264">
        <ele>5.2</ele>
        <time>2026-08-05T08:05:51Z</time>
      </trkpt>
      <trkpt lat="43.37085" lon="-1.77262">
        <ele>5.2</ele>
        <time>2026-08-05T08:05:52Z</time>
      </trkpt>
      <trkpt lat="43.37081" lon="-1.77259">
        <ele>5.2</ele>
        <time>2026-08-05T08:05:53Z</time>
      </trkpt>
      <trkpt lat="43.37077" lon="-1.77256">
        <ele>5.2</ele>
        <time>2026-08-05T08:05:54Z</time>
      </trkpt>
      <trkpt lat="43.37074" lon="-1.77254">
        <ele>5.2</ele>
        <time>2026-08-05T08:05:55Z</time>
      </trkpt>
      <trkpt lat="43.3707" lon="-1.77252">
        <ele>5.2</ele>
        <time>2026-08-05T08:05:56Z</time>
      </trkpt>
      <trkpt lat="43.37066" lon="-1.77251">
        <ele>5.4</ele>
        <time>2026-08-05T08:05:57Z</time>
      </trkpt>
      <trkpt lat="43.37062" lon="-1.77249">
        <ele>5.4</ele>
        <time>2026-08-05T08:05:58Z</time>
      </trkpt>
      <trkpt lat="43.37058" lon="-1.77247">
        <ele>5.4</ele>
        <time>2026-08-05T08:05:59Z</time>
      </trkpt>
      <trkpt lat="43.37055" lon="-1.77244">
        <ele>5.4</ele>
        <time>2026-08-05T08:06:00Z</time>
      </trkpt>
      <trkpt lat="43.37052" lon="-1.77241">
        <ele>5.4</ele>
        <time>2026-08-05T08:06:01Z</time>
      </trkpt>
      <trkpt lat="43.37048" lon="-1.77238">
        <ele>5.4</ele>
        <time>2026-08-05T08:06:02Z</time>
      </trkpt>
      <trkpt lat="43.37044" lon="-1.77235">
        <ele>5.4</ele>
        <time>2026-08-05T08:06:03Z</time>
      </trkpt>
      <trkpt lat="43.37041" lon="-1.77232">
        <ele>5.4</ele>
        <time>2026-08-05T08:06:04Z</time>
      </trkpt>
      <trkpt lat="43.37037" lon="-1.77229">
        <ele>5.4</ele>
        <time>2026-08-05T08:06:05Z</time>
      </trkpt>
      <trkpt lat="43.37034" lon="-1.77226">
        <ele>5.4</ele>
        <time>2026-08-05T08:06:06Z</time>
      </trkpt>
      <trkpt lat="43.3703" lon="-1.77223">
        <ele>5.4</ele>
        <time>2026-08-05T08:06:07Z</time>
      </trkpt>
      <trkpt lat="43.37025" lon="-1.7722">
        <ele>4.4</ele>
        <time>2026-08-05T08:06:08Z</time>
      </trkpt>
      <trkpt lat="43.37021" lon="-1.77217">
        <ele>4.4</ele>
        <time>2026-08-05T08:06:09Z</time>
      </trkpt>
      <trkpt lat="43.37016" lon="-1.77213">
        <ele>4.4</ele>
        <time>2026-08-05T08:06:10Z</time>
      </trkpt>
      <trkpt lat="43.37011" lon="-1.7721">
        <ele>4.6</ele>
        <time>2026-08-05T08:06:11Z</time>
      </trkpt>
      <trkpt lat="43.37006" lon="-1.77206">
        <ele>4.6</ele>
        <time>2026-08-05T08:06:12Z</time>
      </trkpt>
      <trkpt lat="43.37001" lon="-1.77202">
        <ele>4.6</ele>
        <time>2026-08-05T08:06:13Z</time>
      </trkpt>
      <trkpt lat="43.36996" lon="-1.77198">
        <ele>4.6</ele>
        <time>2026-08-05T08:06:14Z</time>
      </trkpt>
      <trkpt lat="43.3699" lon="-1.77194">
        <ele>3.6</ele>
        <time>2026-08-05T08:06:15Z</time>
      </trkpt>
      <trkpt lat="43.36984" lon="-1.77189">
        <ele>2.6</ele>
        <time>2026-08-05T08:06:16Z</time>
      </trkpt>
      <trkpt lat="43.36979" lon="-1.77185">
        <ele>2.6</ele>
        <time>2026-08-05T08:06:17Z</time>
      </trkpt>
      <trkpt lat="43.36973" lon="-1.77181">
        <ele>2.6</ele>
        <time>2026-08-05T08:06:18Z</time>
      </trkpt>
      <trkpt lat="43.36968" lon="-1.77177">
        <ele>3.6</ele>
        <time>2026-08-05T08:06:19Z</time>
      </trkpt>
      <trkpt lat="43.36962" lon="-1.77173">
        <ele>3.8</ele>
        <time>2026-08-05T08:06:20Z</time>
      </trkpt>
      <trkpt lat="43.36957" lon="-1.7717">
        <ele>3.8</ele>
        <time>2026-08-05T08:06:21Z</time>
      </trkpt>
      <trkpt lat="43.36952" lon="-1.77166">
        <ele>3.2</ele>
        <time>2026-08-05T08:06:22Z</time>
      </trkpt>
      <trkpt lat="43.36946" lon="-1.77162">
        <ele>3.2</ele>
        <time>2026-08-05T08:06:23Z</time>
      </trkpt>
      <trkpt lat="43.36941" lon="-1.77158">
        <ele>3.2</ele>
        <time>2026-08-05T08:06:24Z</time>
      </trkpt>
      <trkpt lat="43.36936" lon="-1.77155">
        <ele>3.4</ele>
        <time>2026-08-05T08:06:25Z</time>
      </trkpt>
      <trkpt lat="43.36931" lon="-1.77151">
        <ele>3.4</ele>
        <time>2026-08-05T08:06:26Z</time>
      </trkpt>
      <trkpt lat="43.36926" lon="-1.77148">
        <ele>3.4</ele>
        <time>2026-08-05T08:06:27Z</time>
      </trkpt>
      <trkpt lat="43.36921" lon="-1.77144">
        <ele>3.4</ele>
        <time>2026-08-05T08:06:28Z</time>
      </trkpt>
      <trkpt lat="43.36915" lon="-1.77141">
        <ele>3.4</ele>
        <time>2026-08-05T08:06:29Z</time>
      </trkpt>
      <trkpt lat="43.3691" lon="-1.77138">
        <ele>3.4</ele>
        <time>2026-08-05T08:06:30Z</time>
      </trkpt>
      <trkpt lat="43.36905" lon="-1.77135">
        <ele>3.8</ele>
        <time>2026-08-05T08:06:31Z</time>
      </trkpt>
      <trkpt lat="43.369" lon="-1.77132">
        <ele>3.8</ele>
        <time>2026-08-05T08:06:32Z</time>
      </trkpt>
      <trkpt lat="43.36895" lon="-1.77129">
        <ele>3.2</ele>
        <time>2026-08-05T08:06:33Z</time>
      </trkpt>
      <trkpt lat="43.3689" lon="-1.77126">
        <ele>3.2</ele>
        <time>2026-08-05T08:06:34Z</time>
      </trkpt>
      <trkpt lat="43.36885" lon="-1.77123">
        <ele>3.2</ele>
        <time>2026-08-05T08:06:35Z</time>
      </trkpt>
      <trkpt lat="43.3688" lon="-1.7712">
        <ele>4.2</ele>
        <time>2026-08-05T08:06:36Z</time>
      </trkpt>
      <trkpt lat="43.36875" lon="-1.77117">
        <ele>4.2</ele>
        <time>2026-08-05T08:06:37Z</time>
      </trkpt>
      <trkpt lat="43.3687" lon="-1.77114">
        <ele>4.2</ele>
        <time>2026-08-05T08:06:38Z</time>
      </trkpt>
      <trkpt lat="43.36865" lon="-1.77112">
        <ele>4.2</ele>
        <time>2026-08-05T08:06:39Z</time>
      </trkpt>
      <trkpt lat="43.36861" lon="-1.77109">
        <ele>4.2</ele>
        <time>2026-08-05T08:06:40Z</time>
      </trkpt>
      <trkpt lat="43.36856" lon="-1.77106">
        <ele>4.4</ele>
        <time>2026-08-05T08:06:41Z</time>
      </trkpt>
      <trkpt lat="43.36851" lon="-1.77104">
        <ele>4.4</ele>
        <time>2026-08-05T08:06:42Z</time>
      </trkpt>
      <trkpt lat="43.36847" lon="-1.77101">
        <ele>4.4</ele>
        <time>2026-08-05T08:06:43Z</time>
      </trkpt>
      <trkpt lat="43.36842" lon="-1.77099">
        <ele>4.4</ele>
        <time>2026-08-05T08:06:44Z</time>
      </trkpt>
      <trkpt lat="43.36837" lon="-1.77096">
        <ele>4</ele>
        <time>2026-08-05T08:06:45Z</time>
      </trkpt>
      <trkpt lat="43.36833" lon="-1.77094">
        <ele>3.8</ele>
        <time>2026-08-05T08:06:46Z</time>
      </trkpt>
      <trkpt lat="43.36828" lon="-1.77091">
        <ele>3.8</ele>
        <time>2026-08-05T08:06:47Z</time>
      </trkpt>
      <trkpt lat="43.36823" lon="-1.77088">
        <ele>3.8</ele>
        <time>2026-08-05T08:06:48Z</time>
      </trkpt>
      <trkpt lat="43.36818" lon="-1.77085">
        <ele>3.8</ele>
        <time>2026-08-05T08:06:49Z</time>
      </trkpt>
      <trkpt lat="43.36814" lon="-1.77083">
        <ele>4</ele>
        <time>2026-08-05T08:06:50Z</time>
      </trkpt>
      <trkpt lat="43.36809" lon="-1.7708">
        <ele>4.2</ele>
        <time>2026-08-05T08:06:51Z</time>
      </trkpt>
      <trkpt lat="43.36804" lon="-1.77077">
        <ele>4.2</ele>
        <time>2026-08-05T08:06:52Z</time>
      </trkpt>
      <trkpt lat="43.36799" lon="-1.77074">
        <ele>4.2</ele>
        <time>2026-08-05T08:06:53Z</time>
      </trkpt>
      <trkpt lat="43.36795" lon="-1.77071">
        <ele>4</ele>
        <time>2026-08-05T08:06:54Z</time>
      </trkpt>
      <trkpt lat="43.3679" lon="-1.77068">
        <ele>4</ele>
        <time>2026-08-05T08:06:55Z</time>
      </trkpt>
      <trkpt lat="43.36785" lon="-1.77066">
        <ele>4</ele>
        <time>2026-08-05T08:06:56Z</time>
      </trkpt>
      <trkpt lat="43.36781" lon="-1.77063">
        <ele>4</ele>
        <time>2026-08-05T08:06:57Z</time>
      </trkpt>
      <trkpt lat="43.36776" lon="-1.7706">
        <ele>4</ele>
        <time>2026-08-05T08:06:58Z</time>
      </trkpt>
      <trkpt lat="43.36771" lon="-1.77057">
        <ele>4</ele>
        <time>2026-08-05T08:06:59Z</time>
      </trkpt>
      <trkpt lat="43.36767" lon="-1.77054">
        <ele>4</ele>
        <time>2026-08-05T08:07:00Z</time>
      </trkpt>
      <trkpt lat="43.36762" lon="-1.77052">
        <ele>4</ele>
        <time>2026-08-05T08:07:01Z</time>
      </trkpt>
      <trkpt lat="43.36757" lon="-1.7705">
        <ele>4</ele>
        <time>2026-08-05T08:07:02Z</time>
      </trkpt>
      <trkpt lat="43.36753" lon="-1.77048">
        <ele>4</ele>
        <time>2026-08-05T08:07:03Z</time>
      </trkpt>
      <trkpt lat="43.36749" lon="-1.77045">
        <ele>4</ele>
        <time>2026-08-05T08:07:04Z</time>
      </trkpt>
      <trkpt lat="43.36745" lon="-1.77043">
        <ele>4</ele>
        <time>2026-08-05T08:07:05Z</time>
      </trkpt>
      <trkpt lat="43.3674" lon="-1.7704">
        <ele>4</ele>
        <time>2026-08-05T08:07:06Z</time>
      </trkpt>
      <trkpt lat="43.36736" lon="-1.77038">
        <ele>4</ele>
        <time>2026-08-05T08:07:07Z</time>
      </trkpt>
      <trkpt lat="43.36732" lon="-1.77035">
        <ele>4.6</ele>
        <time>2026-08-05T08:07:08Z</time>
      </trkpt>
      <trkpt lat="43.36728" lon="-1.77032">
        <ele>4.4</ele>
        <time>2026-08-05T08:07:09Z</time>
      </trkpt>
      <trkpt lat="43.36724" lon="-1.7703">
        <ele>4.4</ele>
        <time>2026-08-05T08:07:10Z</time>
      </trkpt>
      <trkpt lat="43.3672" lon="-1.77027">
        <ele>4.4</ele>
        <time>2026-08-05T08:07:11Z</time>
      </trkpt>
      <trkpt lat="43.36715" lon="-1.77025">
        <ele>4.4</ele>
        <time>2026-08-05T08:07:12Z</time>
      </trkpt>
      <trkpt lat="43.36711" lon="-1.77022">
        <ele>4.4</ele>
        <time>2026-08-05T08:07:13Z</time>
      </trkpt>
      <trkpt lat="43.36707" lon="-1.7702">
        <ele>4.8</ele>
        <time>2026-08-05T08:07:14Z</time>
      </trkpt>
      <trkpt lat="43.36703" lon="-1.77017">
        <ele>5</ele>
        <time>2026-08-05T08:07:15Z</time>
      </trkpt>
      <trkpt lat="43.36699" lon="-1.77014">
        <ele>5.2</ele>
        <time>2026-08-05T08:07:16Z</time>
      </trkpt>
      <trkpt lat="43.36694" lon="-1.77011">
        <ele>5.2</ele>
        <time>2026-08-05T08:07:17Z</time>
      </trkpt>
      <trkpt lat="43.3669" lon="-1.77009">
        <ele>5.2</ele>
        <time>2026-08-05T08:07:18Z</time>
      </trkpt>
      <trkpt lat="43.36686" lon="-1.77007">
        <ele>5.2</ele>
        <time>2026-08-05T08:07:19Z</time>
      </trkpt>
      <trkpt lat="43.36681" lon="-1.77005">
        <ele>5.2</ele>
        <time>2026-08-05T08:07:20Z</time>
      </trkpt>
      <trkpt lat="43.36677" lon="-1.77002">
        <ele>5.2</ele>
        <time>2026-08-05T08:07:21Z</time>
      </trkpt>
      <trkpt lat="43.36672" lon="-1.77">
        <ele>4.8</ele>
        <time>2026-08-05T08:07:22Z</time>
      </trkpt>
      <trkpt lat="43.36668" lon="-1.76997">
        <ele>4.8</ele>
        <time>2026-08-05T08:07:23Z</time>
      </trkpt>
      <trkpt lat="43.36663" lon="-1.76994">
        <ele>4.8</ele>
        <time>2026-08-05T08:07:24Z</time>
      </trkpt>
      <trkpt lat="43.36659" lon="-1.76992">
        <ele>5</ele>
        <time>2026-08-05T08:07:25Z</time>
      </trkpt>
      <trkpt lat="43.36655" lon="-1.7699">
        <ele>5</ele>
        <time>2026-08-05T08:07:26Z</time>
      </trkpt>
      <trkpt lat="43.3665" lon="-1.76987">
        <ele>5</ele>
        <time>2026-08-05T08:07:27Z</time>
      </trkpt>
      <trkpt lat="43.36646" lon="-1.76984">
        <ele>5</ele>
        <time>2026-08-05T08:07:28Z</time>
      </trkpt>
      <trkpt lat="43.36641" lon="-1.76981">
        <ele>5</ele>
        <time>2026-08-05T08:07:29Z</time>
      </trkpt>
      <trkpt lat="43.36637" lon="-1.76979">
        <ele>5</ele>
        <time>2026-08-05T08:07:30Z</time>
      </trkpt>
      <trkpt lat="43.36632" lon="-1.76976">
        <ele>5</ele>
        <time>2026-08-05T08:07:31Z</time>
      </trkpt>
      <trkpt lat="43.36627" lon="-1.76974">
        <ele>5</ele>
        <time>2026-08-05T08:07:32Z</time>
      </trkpt>
      <trkpt lat="43.36623" lon="-1.76971">
        <ele>5</ele>
        <time>2026-08-05T08:07:33Z</time>
      </trkpt>
      <trkpt lat="43.36618" lon="-1.76969">
        <ele>5</ele>
        <time>2026-08-05T08:07:34Z</time>
      </trkpt>
      <trkpt lat="43.36613" lon="-1.76967">
        <ele>5</ele>
        <time>2026-08-05T08:07:35Z</time>
      </trkpt>
      <trkpt lat="43.36609" lon="-1.76965">
        <ele>4.2</ele>
        <time>2026-08-05T08:07:36Z</time>
      </trkpt>
      <trkpt lat="43.36604" lon="-1.76962">
        <ele>4.2</ele>
        <time>2026-08-05T08:07:37Z</time>
      </trkpt>
      <trkpt lat="43.36599" lon="-1.76961">
        <ele>4.2</ele>
        <time>2026-08-05T08:07:38Z</time>
      </trkpt>
      <trkpt lat="43.36594" lon="-1.76958">
        <ele>4.8</ele>
        <time>2026-08-05T08:07:39Z</time>
      </trkpt>
      <trkpt lat="43.36589" lon="-1.76956">
        <ele>4.8</ele>
        <time>2026-08-05T08:07:40Z</time>
      </trkpt>
      <trkpt lat="43.36584" lon="-1.76954">
        <ele>4.4</ele>
        <time>2026-08-05T08:07:41Z</time>
      </trkpt>
      <trkpt lat="43.36579" lon="-1.76951">
        <ele>4.4</ele>
        <time>2026-08-05T08:07:42Z</time>
      </trkpt>
      <trkpt lat="43.36574" lon="-1.7695">
        <ele>4.4</ele>
        <time>2026-08-05T08:07:43Z</time>
      </trkpt>
      <trkpt lat="43.36569" lon="-1.76948">
        <ele>4.4</ele>
        <time>2026-08-05T08:07:44Z</time>
      </trkpt>
      <trkpt lat="43.36564" lon="-1.76947">
        <ele>4.4</ele>
        <time>2026-08-05T08:07:45Z</time>
      </trkpt>
      <trkpt lat="43.36559" lon="-1.76946">
        <ele>4.8</ele>
        <time>2026-08-05T08:07:46Z</time>
      </trkpt>
      <trkpt lat="43.36554" lon="-1.76946">
        <ele>4.8</ele>
        <time>2026-08-05T08:07:47Z</time>
      </trkpt>
      <trkpt lat="43.36549" lon="-1.76947">
        <ele>4.8</ele>
        <time>2026-08-05T08:07:48Z</time>
      </trkpt>
      <trkpt lat="43.36545" lon="-1.76948">
        <ele>4.2</ele>
        <time>2026-08-05T08:07:49Z</time>
      </trkpt>
      <trkpt lat="43.36541" lon="-1.76951">
        <ele>4</ele>
        <time>2026-08-05T08:07:50Z</time>
      </trkpt>
      <trkpt lat="43.36538" lon="-1.76954">
        <ele>4</ele>
        <time>2026-08-05T08:07:51Z</time>
      </trkpt>
      <trkpt lat="43.36535" lon="-1.76958">
        <ele>4</ele>
        <time>2026-08-05T08:07:52Z</time>
      </trkpt>
      <trkpt lat="43.36533" lon="-1.76963">
        <ele>4</ele>
        <time>2026-08-05T08:07:53Z</time>
      </trkpt>
      <trkpt lat="43.36531" lon="-1.76966">
        <ele>4.4</ele>
        <time>2026-08-05T08:07:54Z</time>
      </trkpt>
      <trkpt lat="43.36529" lon="-1.7697">
        <ele>4.6</ele>
        <time>2026-08-05T08:07:55Z</time>
      </trkpt>
      <trkpt lat="43.36527" lon="-1.76974">
        <ele>4.6</ele>
        <time>2026-08-05T08:07:56Z</time>
      </trkpt>
      <trkpt lat="43.36525" lon="-1.76978">
        <ele>4.6</ele>
        <time>2026-08-05T08:07:57Z</time>
      </trkpt>
      <trkpt lat="43.36523" lon="-1.76982">
        <ele>4.6</ele>
        <time>2026-08-05T08:07:58Z</time>
      </trkpt>
      <trkpt lat="43.36521" lon="-1.76985">
        <ele>4.4</ele>
        <time>2026-08-05T08:07:59Z</time>
      </trkpt>
      <trkpt lat="43.36519" lon="-1.76989">
        <ele>4.4</ele>
        <time>2026-08-05T08:08:00Z</time>
      </trkpt>
      <trkpt lat="43.36517" lon="-1.76993">
        <ele>4.4</ele>
        <time>2026-08-05T08:08:01Z</time>
      </trkpt>
      <trkpt lat="43.36513" lon="-1.76996">
        <ele>4.4</ele>
        <time>2026-08-05T08:08:02Z</time>
      </trkpt>
      <trkpt lat="43.36509" lon="-1.76998">
        <ele>4.4</ele>
        <time>2026-08-05T08:08:03Z</time>
      </trkpt>
      <trkpt lat="43.36505" lon="-1.77">
        <ele>4.4</ele>
        <time>2026-08-05T08:08:04Z</time>
      </trkpt>
      <trkpt lat="43.36501" lon="-1.77002">
        <ele>4.4</ele>
        <time>2026-08-05T08:08:05Z</time>
      </trkpt>
      <trkpt lat="43.36497" lon="-1.77004">
        <ele>4.4</ele>
        <time>2026-08-05T08:08:06Z</time>
      </trkpt>
      <trkpt lat="43.36493" lon="-1.77006">
        <ele>4.2</ele>
        <time>2026-08-05T08:08:07Z</time>
      </trkpt>
      <trkpt lat="43.36489" lon="-1.77008">
        <ele>4.4</ele>
        <time>2026-08-05T08:08:08Z</time>
      </trkpt>
      <trkpt lat="43.36485" lon="-1.7701">
        <ele>4.4</ele>
        <time>2026-08-05T08:08:09Z</time>
      </trkpt>
      <trkpt lat="43.3648" lon="-1.77012">
        <ele>4.4</ele>
        <time>2026-08-05T08:08:10Z</time>
      </trkpt>
      <trkpt lat="43.36476" lon="-1.77015">
        <ele>4.4</ele>
        <time>2026-08-05T08:08:11Z</time>
      </trkpt>
      <trkpt lat="43.36472" lon="-1.77018">
        <ele>4.4</ele>
        <time>2026-08-05T08:08:12Z</time>
      </trkpt>
      <trkpt lat="43.36469" lon="-1.77021">
        <ele>4.4</ele>
        <time>2026-08-05T08:08:13Z</time>
      </trkpt>
      <trkpt lat="43.36465" lon="-1.77024">
        <ele>4.8</ele>
        <time>2026-08-05T08:08:14Z</time>
      </trkpt>
      <trkpt lat="43.36461" lon="-1.77028">
        <ele>4.8</ele>
        <time>2026-08-05T08:08:15Z</time>
      </trkpt>
      <trkpt lat="43.36458" lon="-1.77031">
        <ele>4.8</ele>
        <time>2026-08-05T08:08:16Z</time>
      </trkpt>
      <trkpt lat="43.36454" lon="-1.77035">
        <ele>4.8</ele>
        <time>2026-08-05T08:08:17Z</time>
      </trkpt>
      <trkpt lat="43.36451" lon="-1.77039">
        <ele>4.8</ele>
        <time>2026-08-05T08:08:18Z</time>
      </trkpt>
      <trkpt lat="43.36448" lon="-1.77043">
        <ele>4.8</ele>
        <time>2026-08-05T08:08:19Z</time>
      </trkpt>
      <trkpt lat="43.36445" lon="-1.77047">
        <ele>4.8</ele>
        <time>2026-08-05T08:08:20Z</time>
      </trkpt>
      <trkpt lat="43.36442" lon="-1.77051">
        <ele>4.8</ele>
        <time>2026-08-05T08:08:21Z</time>
      </trkpt>
      <trkpt lat="43.36439" lon="-1.77055">
        <ele>4.8</ele>
        <time>2026-08-05T08:08:22Z</time>
      </trkpt>
      <trkpt lat="43.36437" lon="-1.7706">
        <ele>4.8</ele>
        <time>2026-08-05T08:08:23Z</time>
      </trkpt>
      <trkpt lat="43.36434" lon="-1.77065">
        <ele>4.8</ele>
        <time>2026-08-05T08:08:24Z</time>
      </trkpt>
      <trkpt lat="43.36432" lon="-1.7707">
        <ele>4.8</ele>
        <time>2026-08-05T08:08:25Z</time>
      </trkpt>
      <trkpt lat="43.36429" lon="-1.77075">
        <ele>4.8</ele>
        <time>2026-08-05T08:08:26Z</time>
      </trkpt>
      <trkpt lat="43.36427" lon="-1.77081">
        <ele>4.8</ele>
        <time>2026-08-05T08:08:27Z</time>
      </trkpt>
      <trkpt lat="43.36425" lon="-1.77086">
        <ele>4.8</ele>
        <time>2026-08-05T08:08:28Z</time>
      </trkpt>
      <trkpt lat="43.36423" lon="-1.77091">
        <ele>5</ele>
        <time>2026-08-05T08:08:29Z</time>
      </trkpt>
      <trkpt lat="43.36422" lon="-1.77097">
        <ele>5</ele>
        <time>2026-08-05T08:08:30Z</time>
      </trkpt>
      <trkpt lat="43.3642" lon="-1.77103">
        <ele>5</ele>
        <time>2026-08-05T08:08:31Z</time>
      </trkpt>
      <trkpt lat="43.36418" lon="-1.77108">
        <ele>4.8</ele>
        <time>2026-08-05T08:08:32Z</time>
      </trkpt>
      <trkpt lat="43.36416" lon="-1.77114">
        <ele>4.8</ele>
        <time>2026-08-05T08:08:33Z</time>
      </trkpt>
      <trkpt lat="43.36414" lon="-1.7712">
        <ele>4.8</ele>
        <time>2026-08-05T08:08:34Z</time>
      </trkpt>
      <trkpt lat="43.36412" lon="-1.77126">
        <ele>4.8</ele>
        <time>2026-08-05T08:08:35Z</time>
      </trkpt>
      <trkpt lat="43.3641" lon="-1.77132">
        <ele>4.8</ele>
        <time>2026-08-05T08:08:36Z</time>
      </trkpt>
      <trkpt lat="43.36408" lon="-1.77138">
        <ele>4.8</ele>
        <time>2026-08-05T08:08:37Z</time>
      </trkpt>
      <trkpt lat="43.36406" lon="-1.77144">
        <ele>4.8</ele>
        <time>2026-08-05T08:08:38Z</time>
      </trkpt>
      <trkpt lat="43.36404" lon="-1.7715">
        <ele>4.8</ele>
        <time>2026-08-05T08:08:39Z</time>
      </trkpt>
      <trkpt lat="43.36402" lon="-1.77156">
        <ele>4.8</ele>
        <time>2026-08-05T08:08:40Z</time>
      </trkpt>
      <trkpt lat="43.364" lon="-1.77161">
        <ele>4.8</ele>
        <time>2026-08-05T08:08:41Z</time>
      </trkpt>
      <trkpt lat="43.36398" lon="-1.77167">
        <ele>4.8</ele>
        <time>2026-08-05T08:08:42Z</time>
      </trkpt>
      <trkpt lat="43.36396" lon="-1.77173">
        <ele>4.8</ele>
        <time>2026-08-05T08:08:43Z</time>
      </trkpt>
      <trkpt lat="43.36393" lon="-1.77178">
        <ele>4.8</ele>
        <time>2026-08-05T08:08:44Z</time>
      </trkpt>
      <trkpt lat="43.3639" lon="-1.77183">
        <ele>4.4</ele>
        <time>2026-08-05T08:08:45Z</time>
      </trkpt>
      <trkpt lat="43.36388" lon="-1.77189">
        <ele>4.4</ele>
        <time>2026-08-05T08:08:46Z</time>
      </trkpt>
      <trkpt lat="43.36385" lon="-1.77194">
        <ele>4.4</ele>
        <time>2026-08-05T08:08:47Z</time>
      </trkpt>
      <trkpt lat="43.36383" lon="-1.77199">
        <ele>4.4</ele>
        <time>2026-08-05T08:08:48Z</time>
      </trkpt>
      <trkpt lat="43.3638" lon="-1.77204">
        <ele>4.6</ele>
        <time>2026-08-05T08:08:49Z</time>
      </trkpt>
      <trkpt lat="43.36377" lon="-1.77209">
        <ele>4.8</ele>
        <time>2026-08-05T08:08:50Z</time>
      </trkpt>
      <trkpt lat="43.36374" lon="-1.77214">
        <ele>4.8</ele>
        <time>2026-08-05T08:08:51Z</time>
      </trkpt>
      <trkpt lat="43.36372" lon="-1.77218">
        <ele>4.8</ele>
        <time>2026-08-05T08:08:52Z</time>
      </trkpt>
      <trkpt lat="43.3637" lon="-1.77223">
        <ele>4.8</ele>
        <time>2026-08-05T08:08:53Z</time>
      </trkpt>
      <trkpt lat="43.36369" lon="-1.77228">
        <ele>4.8</ele>
        <time>2026-08-05T08:08:54Z</time>
      </trkpt>
      <trkpt lat="43.36368" lon="-1.77232">
        <ele>4.8</ele>
        <time>2026-08-05T08:08:55Z</time>
      </trkpt>
      <trkpt lat="43.36366" lon="-1.77236">
        <ele>4.4</ele>
        <time>2026-08-05T08:08:56Z</time>
      </trkpt>
      <trkpt lat="43.36364" lon="-1.7724">
        <ele>4.4</ele>
        <time>2026-08-05T08:08:57Z</time>
      </trkpt>
      <trkpt lat="43.36361" lon="-1.77242">
        <ele>4.4</ele>
        <time>2026-08-05T08:08:58Z</time>
      </trkpt>
      <trkpt lat="43.3636" lon="-1.77245">
        <ele>4.4</ele>
        <time>2026-08-05T08:08:59Z</time>
      </trkpt>
      <trkpt lat="43.36359" lon="-1.77247">
        <ele>4.4</ele>
        <time>2026-08-05T08:09:00Z</time>
      </trkpt>
      <trkpt lat="43.36358" lon="-1.77248">
        <ele>4.6</ele>
        <time>2026-08-05T08:09:01Z</time>
      </trkpt>
      <trkpt lat="43.36358" lon="-1.77248">
        <ele>4.6</ele>
        <time>2026-08-05T08:09:02Z</time>
      </trkpt>
      <trkpt lat="43.36354" lon="-1.77251">
        <ele>4.8</ele>
        <time>2026-08-05T08:09:51Z</time>
      </trkpt>
      <trkpt lat="43.36353" lon="-1.77251">
        <ele>4.8</ele>
        <time>2026-08-05T08:09:52Z</time>
      </trkpt>
      <trkpt lat="43.36352" lon="-1.77251">
        <ele>4.8</ele>
        <time>2026-08-05T08:09:53Z</time>
      </trkpt>
      <trkpt lat="43.36348" lon="-1.77254">
        <ele>4.2</ele>
        <time>2026-08-05T08:10:03Z</time>
      </trkpt>
      <trkpt lat="43.36346" lon="-1.77257">
        <ele>4.2</ele>
        <time>2026-08-05T08:10:04Z</time>
      </trkpt>
      <trkpt lat="43.36344" lon="-1.77259">
        <ele>4.2</ele>
        <time>2026-08-05T08:10:05Z</time>
      </trkpt>
      <trkpt lat="43.36342" lon="-1.77262">
        <ele>4.4</ele>
        <time>2026-08-05T08:10:06Z</time>
      </trkpt>
      <trkpt lat="43.3634" lon="-1.77265">
        <ele>4.4</ele>
        <time>2026-08-05T08:10:07Z</time>
      </trkpt>
      <trkpt lat="43.36338" lon="-1.77267">
        <ele>4.4</ele>
        <time>2026-08-05T08:10:08Z</time>
      </trkpt>
      <trkpt lat="43.36335" lon="-1.7727">
        <ele>4.4</ele>
        <time>2026-08-05T08:10:09Z</time>
      </trkpt>
      <trkpt lat="43.36332" lon="-1.77273">
        <ele>4.2</ele>
        <time>2026-08-05T08:10:10Z</time>
      </trkpt>
      <trkpt lat="43.3633" lon="-1.77276">
        <ele>4.2</ele>
        <time>2026-08-05T08:10:11Z</time>
      </trkpt>
      <trkpt lat="43.36327" lon="-1.77278">
        <ele>4.2</ele>
        <time>2026-08-05T08:10:12Z</time>
      </trkpt>
      <trkpt lat="43.36323" lon="-1.77282">
        <ele>4.2</ele>
        <time>2026-08-05T08:10:13Z</time>
      </trkpt>
      <trkpt lat="43.3632" lon="-1.77285">
        <ele>4.8</ele>
        <time>2026-08-05T08:10:14Z</time>
      </trkpt>
      <trkpt lat="43.36317" lon="-1.77287">
        <ele>4.8</ele>
        <time>2026-08-05T08:10:15Z</time>
      </trkpt>
      <trkpt lat="43.36314" lon="-1.7729">
        <ele>4.8</ele>
        <time>2026-08-05T08:10:16Z</time>
      </trkpt>
      <trkpt lat="43.3631" lon="-1.77293">
        <ele>4.4</ele>
        <time>2026-08-05T08:10:17Z</time>
      </trkpt>
      <trkpt lat="43.36307" lon="-1.77296">
        <ele>4</ele>
        <time>2026-08-05T08:10:18Z</time>
      </trkpt>
      <trkpt lat="43.36303" lon="-1.77298">
        <ele>4</ele>
        <time>2026-08-05T08:10:19Z</time>
      </trkpt>
      <trkpt lat="43.363" lon="-1.773">
        <ele>4</ele>
        <time>2026-08-05T08:10:20Z</time>
      </trkpt>
      <trkpt lat="43.36296" lon="-1.77303">
        <ele>4.4</ele>
        <time>2026-08-05T08:10:21Z</time>
      </trkpt>
      <trkpt lat="43.36292" lon="-1.77305">
        <ele>4.6</ele>
        <time>2026-08-05T08:10:22Z</time>
      </trkpt>
      <trkpt lat="43.36289" lon="-1.77307">
        <ele>4.6</ele>
        <time>2026-08-05T08:10:23Z</time>
      </trkpt>
      <trkpt lat="43.36285" lon="-1.7731">
        <ele>4.6</ele>
        <time>2026-08-05T08:10:24Z</time>
      </trkpt>
      <trkpt lat="43.36282" lon="-1.77312">
        <ele>4.6</ele>
        <time>2026-08-05T08:10:25Z</time>
      </trkpt>
      <trkpt lat="43.36278" lon="-1.77315">
        <ele>4.4</ele>
        <time>2026-08-05T08:10:26Z</time>
      </trkpt>
      <trkpt lat="43.36274" lon="-1.77317">
        <ele>4.4</ele>
        <time>2026-08-05T08:10:27Z</time>
      </trkpt>
      <trkpt lat="43.3627" lon="-1.77319">
        <ele>4.4</ele>
        <time>2026-08-05T08:10:28Z</time>
      </trkpt>
      <trkpt lat="43.36266" lon="-1.77321">
        <ele>4.4</ele>
        <time>2026-08-05T08:10:29Z</time>
      </trkpt>
      <trkpt lat="43.36262" lon="-1.77323">
        <ele>4.4</ele>
        <time>2026-08-05T08:10:30Z</time>
      </trkpt>
      <trkpt lat="43.36258" lon="-1.77325">
        <ele>4.4</ele>
        <time>2026-08-05T08:10:31Z</time>
      </trkpt>
      <trkpt lat="43.36255" lon="-1.77328">
        <ele>4.4</ele>
        <time>2026-08-05T08:10:32Z</time>
      </trkpt>
      <trkpt lat="43.36251" lon="-1.77329">
        <ele>4.4</ele>
        <time>2026-08-05T08:10:33Z</time>
      </trkpt>
      <trkpt lat="43.36247" lon="-1.77331">
        <ele>4.4</ele>
        <time>2026-08-05T08:10:34Z</time>
      </trkpt>
      <trkpt lat="43.36244" lon="-1.77332">
        <ele>4.4</ele>
        <time>2026-08-05T08:10:35Z</time>
      </trkpt>
      <trkpt lat="43.36241" lon="-1.77333">
        <ele>4.8</ele>
        <time>2026-08-05T08:10:36Z</time>
      </trkpt>
      <trkpt lat="43.36237" lon="-1.77333">
        <ele>4.8</ele>
        <time>2026-08-05T08:10:37Z</time>
      </trkpt>
      <trkpt lat="43.36233" lon="-1.77333">
        <ele>4.8</ele>
        <time>2026-08-05T08:10:38Z</time>
      </trkpt>
      <trkpt lat="43.3623" lon="-1.77333">
        <ele>4.4</ele>
        <time>2026-08-05T08:10:39Z</time>
      </trkpt>
      <trkpt lat="43.36226" lon="-1.77332">
        <ele>4.6</ele>
        <time>2026-08-05T08:10:40Z</time>
      </trkpt>
      <trkpt lat="43.36222" lon="-1.77331">
        <ele>4.6</ele>
        <time>2026-08-05T08:10:41Z</time>
      </trkpt>
      <trkpt lat="43.36219" lon="-1.77329">
        <ele>4.6</ele>
        <time>2026-08-05T08:10:42Z</time>
      </trkpt>
      <trkpt lat="43.36215" lon="-1.77328">
        <ele>4.6</ele>
        <time>2026-08-05T08:10:43Z</time>
      </trkpt>
      <trkpt lat="43.36212" lon="-1.77327">
        <ele>4.6</ele>
        <time>2026-08-05T08:10:44Z</time>
      </trkpt>
      <trkpt lat="43.36208" lon="-1.77325">
        <ele>4.6</ele>
        <time>2026-08-05T08:10:45Z</time>
      </trkpt>
      <trkpt lat="43.36204" lon="-1.77324">
        <ele>4.8</ele>
        <time>2026-08-05T08:10:46Z</time>
      </trkpt>
      <trkpt lat="43.36201" lon="-1.77322">
        <ele>4.8</ele>
        <time>2026-08-05T08:10:47Z</time>
      </trkpt>
      <trkpt lat="43.36197" lon="-1.7732">
        <ele>4.8</ele>
        <time>2026-08-05T08:10:48Z</time>
      </trkpt>
      <trkpt lat="43.36194" lon="-1.77318">
        <ele>4.8</ele>
        <time>2026-08-05T08:10:49Z</time>
      </trkpt>
      <trkpt lat="43.3619" lon="-1.77316">
        <ele>4.8</ele>
        <time>2026-08-05T08:10:50Z</time>
      </trkpt>
      <trkpt lat="43.36187" lon="-1.77313">
        <ele>4.6</ele>
        <time>2026-08-05T08:10:51Z</time>
      </trkpt>
      <trkpt lat="43.36184" lon="-1.7731">
        <ele>4.6</ele>
        <time>2026-08-05T08:10:52Z</time>
      </trkpt>
      <trkpt lat="43.36181" lon="-1.77308">
        <ele>4.6</ele>
        <time>2026-08-05T08:10:53Z</time>
      </trkpt>
      <trkpt lat="43.36178" lon="-1.77307">
        <ele>4.6</ele>
        <time>2026-08-05T08:10:54Z</time>
      </trkpt>
      <trkpt lat="43.36176" lon="-1.77305">
        <ele>4.6</ele>
        <time>2026-08-05T08:10:55Z</time>
      </trkpt>
      <trkpt lat="43.36174" lon="-1.77304">
        <ele>5</ele>
        <time>2026-08-05T08:10:56Z</time>
      </trkpt>
      <trkpt lat="43.36172" lon="-1.77303">
        <ele>5</ele>
        <time>2026-08-05T08:10:57Z</time>
      </trkpt>
      <trkpt lat="43.36171" lon="-1.77302">
        <ele>5</ele>
        <time>2026-08-05T08:10:58Z</time>
      </trkpt>
      <trkpt lat="43.36169" lon="-1.77304">
        <ele>5</ele>
        <time>2026-08-05T08:10:59Z</time>
      </trkpt>
      <trkpt lat="43.36169" lon="-1.77307">
        <ele>5</ele>
        <time>2026-08-05T08:11:00Z</time>
      </trkpt>
      <trkpt lat="43.36168" lon="-1.77311">
        <ele>4.8</ele>
        <time>2026-08-05T08:11:01Z</time>
      </trkpt>
      <trkpt lat="43.36167" lon="-1.77314">
        <ele>4.4</ele>
        <time>2026-08-05T08:11:02Z</time>
      </trkpt>
      <trkpt lat="43.36166" lon="-1.77318">
        <ele>4.4</ele>
        <time>2026-08-05T08:11:03Z</time>
      </trkpt>
      <trkpt lat="43.36165" lon="-1.77322">
        <ele>4.4</ele>
        <time>2026-08-05T08:11:04Z</time>
      </trkpt>
      <trkpt lat="43.36163" lon="-1.77326">
        <ele>4.4</ele>
        <time>2026-08-05T08:11:05Z</time>
      </trkpt>
      <trkpt lat="43.36162" lon="-1.77331">
        <ele>4.4</ele>
        <time>2026-08-05T08:11:06Z</time>
      </trkpt>
      <trkpt lat="43.36161" lon="-1.77335">
        <ele>4.4</ele>
        <time>2026-08-05T08:11:07Z</time>
      </trkpt>
      <trkpt lat="43.36159" lon="-1.77339">
        <ele>4.4</ele>
        <time>2026-08-05T08:11:08Z</time>
      </trkpt>
      <trkpt lat="43.36158" lon="-1.77344">
        <ele>4.4</ele>
        <time>2026-08-05T08:11:09Z</time>
      </trkpt>
      <trkpt lat="43.36158" lon="-1.77349">
        <ele>4.4</ele>
        <time>2026-08-05T08:11:10Z</time>
      </trkpt>
      <trkpt lat="43.36158" lon="-1.77353">
        <ele>4.2</ele>
        <time>2026-08-05T08:11:11Z</time>
      </trkpt>
      <trkpt lat="43.36157" lon="-1.77358">
        <ele>3.4</ele>
        <time>2026-08-05T08:11:12Z</time>
      </trkpt>
      <trkpt lat="43.36157" lon="-1.77362">
        <ele>3.4</ele>
        <time>2026-08-05T08:11:13Z</time>
      </trkpt>
      <trkpt lat="43.36156" lon="-1.77366">
        <ele>3.4</ele>
        <time>2026-08-05T08:11:14Z</time>
      </trkpt>
      <trkpt lat="43.36156" lon="-1.77369">
        <ele>5</ele>
        <time>2026-08-05T08:11:15Z</time>
      </trkpt>
      <trkpt lat="43.36155" lon="-1.77371">
        <ele>5</ele>
        <time>2026-08-05T08:11:16Z</time>
      </trkpt>
      <trkpt lat="43.36155" lon="-1.77373">
        <ele>5</ele>
        <time>2026-08-05T08:11:17Z</time>
      </trkpt>
      <trkpt lat="43.36154" lon="-1.77374">
        <ele>5</ele>
        <time>2026-08-05T08:11:18Z</time>
      </trkpt>
      <trkpt lat="43.36154" lon="-1.77374">
        <ele>5</ele>
        <time>2026-08-05T08:11:19Z</time>
      </trkpt>
      <trkpt lat="43.36154" lon="-1.77374">
        <ele>5</ele>
        <time>2026-08-05T08:11:20Z</time>
      </trkpt>
      <trkpt lat="43.36153" lon="-1.77381">
        <ele>5.4</ele>
        <time>2026-08-05T08:11:27Z</time>
      </trkpt>
      <trkpt lat="43.36152" lon="-1.77385">
        <ele>5.4</ele>
        <time>2026-08-05T08:11:28Z</time>
      </trkpt>
      <trkpt lat="43.36151" lon="-1.77389">
        <ele>5.4</ele>
        <time>2026-08-05T08:11:29Z</time>
      </trkpt>
      <trkpt lat="43.36152" lon="-1.77392">
        <ele>5</ele>
        <time>2026-08-05T08:11:30Z</time>
      </trkpt>
      <trkpt lat="43.36153" lon="-1.77395">
        <ele>5</ele>
        <time>2026-08-05T08:11:31Z</time>
      </trkpt>
      <trkpt lat="43.36153" lon="-1.77398">
        <ele>5</ele>
        <time>2026-08-05T08:11:32Z</time>
      </trkpt>
      <trkpt lat="43.36153" lon="-1.77402">
        <ele>5</ele>
        <time>2026-08-05T08:11:33Z</time>
      </trkpt>
      <trkpt lat="43.36153" lon="-1.77405">
        <ele>5</ele>
        <time>2026-08-05T08:11:34Z</time>
      </trkpt>
      <trkpt lat="43.36152" lon="-1.77408">
        <ele>5</ele>
        <time>2026-08-05T08:11:35Z</time>
      </trkpt>
      <trkpt lat="43.3615" lon="-1.7741">
        <ele>5</ele>
        <time>2026-08-05T08:11:36Z</time>
      </trkpt>
      <trkpt lat="43.36148" lon="-1.77411">
        <ele>5</ele>
        <time>2026-08-05T08:11:37Z</time>
      </trkpt>
      <trkpt lat="43.36147" lon="-1.77412">
        <ele>5</ele>
        <time>2026-08-05T08:11:38Z</time>
      </trkpt>
      <trkpt lat="43.36145" lon="-1.77414">
        <ele>5</ele>
        <time>2026-08-05T08:11:39Z</time>
      </trkpt>
      <trkpt lat="43.36144" lon="-1.77416">
        <ele>5</ele>
        <time>2026-08-05T08:11:40Z</time>
      </trkpt>
      <trkpt lat="43.36143" lon="-1.77418">
        <ele>5</ele>
        <time>2026-08-05T08:11:41Z</time>
      </trkpt>
      <trkpt lat="43.36143" lon="-1.7742">
        <ele>5</ele>
        <time>2026-08-05T08:11:42Z</time>
      </trkpt>
      <trkpt lat="43.36142" lon="-1.77422">
        <ele>5</ele>
        <time>2026-08-05T08:11:43Z</time>
      </trkpt>
      <trkpt lat="43.36141" lon="-1.77423">
        <ele>5</ele>
        <time>2026-08-05T08:11:44Z</time>
      </trkpt>
      <trkpt lat="43.36141" lon="-1.77425">
        <ele>5</ele>
        <time>2026-08-05T08:11:45Z</time>
      </trkpt>
      <trkpt lat="43.3614" lon="-1.77427">
        <ele>5</ele>
        <time>2026-08-05T08:11:46Z</time>
      </trkpt>
      <trkpt lat="43.36139" lon="-1.77428">
        <ele>5</ele>
        <time>2026-08-05T08:11:47Z</time>
      </trkpt>
      <trkpt lat="43.36138" lon="-1.77429">
        <ele>5</ele>
        <time>2026-08-05T08:11:48Z</time>
      </trkpt>
      <trkpt lat="43.36137" lon="-1.77431">
        <ele>5</ele>
        <time>2026-08-05T08:11:49Z</time>
      </trkpt>
      <trkpt lat="43.36136" lon="-1.77432">
        <ele>5</ele>
        <time>2026-08-05T08:11:50Z</time>
      </trkpt>
      <trkpt lat="43.36136" lon="-1.77434">
        <ele>5</ele>
        <time>2026-08-05T08:11:51Z</time>
      </trkpt>
      <trkpt lat="43.36135" lon="-1.77435">
        <ele>5</ele>
        <time>2026-08-05T08:11:52Z</time>
      </trkpt>
      <trkpt lat="43.36135" lon="-1.77437">
        <ele>5</ele>
        <time>2026-08-05T08:11:53Z</time>
      </trkpt>
      <trkpt lat="43.36135" lon="-1.77439">
        <ele>5</ele>
        <time>2026-08-05T08:11:54Z</time>
      </trkpt>
      <trkpt lat="43.36134" lon="-1.7744">
        <ele>5</ele>
        <time>2026-08-05T08:11:55Z</time>
      </trkpt>
      <trkpt lat="43.36134" lon="-1.77442">
        <ele>5</ele>
        <time>2026-08-05T08:11:56Z</time>
      </trkpt>
      <trkpt lat="43.36133" lon="-1.77444">
        <ele>5</ele>
        <time>2026-08-05T08:11:57Z</time>
      </trkpt>
      <trkpt lat="43.36133" lon="-1.77447">
        <ele>5</ele>
        <time>2026-08-05T08:11:58Z</time>
      </trkpt>
      <trkpt lat="43.36132" lon="-1.77449">
        <ele>5</ele>
        <time>2026-08-05T08:11:59Z</time>
      </trkpt>
      <trkpt lat="43.36131" lon="-1.77453">
        <ele>5</ele>
        <time>2026-08-05T08:12:00Z</time>
      </trkpt>
      <trkpt lat="43.3613" lon="-1.77457">
        <ele>5.2</ele>
        <time>2026-08-05T08:12:01Z</time>
      </trkpt>
      <trkpt lat="43.36129" lon="-1.77461">
        <ele>5.4</ele>
        <time>2026-08-05T08:12:02Z</time>
      </trkpt>
      <trkpt lat="43.36129" lon="-1.77466">
        <ele>5.4</ele>
        <time>2026-08-05T08:12:03Z</time>
      </trkpt>
      <trkpt lat="43.36128" lon="-1.77471">
        <ele>5.4</ele>
        <time>2026-08-05T08:12:04Z</time>
      </trkpt>
      <trkpt lat="43.36128" lon="-1.77476">
        <ele>5.4</ele>
        <time>2026-08-05T08:12:05Z</time>
      </trkpt>
      <trkpt lat="43.36127" lon="-1.77481">
        <ele>4.4</ele>
        <time>2026-08-05T08:12:06Z</time>
      </trkpt>
      <trkpt lat="43.36126" lon="-1.77486">
        <ele>4.4</ele>
        <time>2026-08-05T08:12:07Z</time>
      </trkpt>
      <trkpt lat="43.36125" lon="-1.7749">
        <ele>4.4</ele>
        <time>2026-08-05T08:12:08Z</time>
      </trkpt>
      <trkpt lat="43.36125" lon="-1.77494">
        <ele>4.4</ele>
        <time>2026-08-05T08:12:09Z</time>
      </trkpt>
      <trkpt lat="43.36125" lon="-1.77496">
        <ele>4.4</ele>
        <time>2026-08-05T08:12:10Z</time>
      </trkpt>
      <trkpt lat="43.36124" lon="-1.77499">
        <ele>4.4</ele>
        <time>2026-08-05T08:12:11Z</time>
      </trkpt>
      <trkpt lat="43.36124" lon="-1.77502">
        <ele>4.8</ele>
        <time>2026-08-05T08:12:12Z</time>
      </trkpt>
      <trkpt lat="43.36125" lon="-1.77504">
        <ele>4.6</ele>
        <time>2026-08-05T08:12:13Z</time>
      </trkpt>
      <trkpt lat="43.36127" lon="-1.77506">
        <ele>4.2</ele>
        <time>2026-08-05T08:12:14Z</time>
      </trkpt>
      <trkpt lat="43.36129" lon="-1.77507">
        <ele>4.2</ele>
        <time>2026-08-05T08:12:15Z</time>
      </trkpt>
      <trkpt lat="43.36131" lon="-1.77509">
        <ele>4.2</ele>
        <time>2026-08-05T08:12:16Z</time>
      </trkpt>
      <trkpt lat="43.36132" lon="-1.77511">
        <ele>4.2</ele>
        <time>2026-08-05T08:12:17Z</time>
      </trkpt>
      <trkpt lat="43.36132" lon="-1.77516">
        <ele>4.2</ele>
        <time>2026-08-05T08:12:18Z</time>
      </trkpt>
      <trkpt lat="43.36132" lon="-1.7752">
        <ele>4.2</ele>
        <time>2026-08-05T08:12:19Z</time>
      </trkpt>
      <trkpt lat="43.3613" lon="-1.77524">
        <ele>4.2</ele>
        <time>2026-08-05T08:12:20Z</time>
      </trkpt>
      <trkpt lat="43.36129" lon="-1.77528">
        <ele>4.2</ele>
        <time>2026-08-05T08:12:21Z</time>
      </trkpt>
      <trkpt lat="43.36127" lon="-1.77532">
        <ele>4.2</ele>
        <time>2026-08-05T08:12:22Z</time>
      </trkpt>
      <trkpt lat="43.36125" lon="-1.77535">
        <ele>4.2</ele>
        <time>2026-08-05T08:12:23Z</time>
      </trkpt>
      <trkpt lat="43.36124" lon="-1.77539">
        <ele>4.2</ele>
        <time>2026-08-05T08:12:24Z</time>
      </trkpt>
      <trkpt lat="43.36122" lon="-1.77542">
        <ele>4.2</ele>
        <time>2026-08-05T08:12:25Z</time>
      </trkpt>
      <trkpt lat="43.3612" lon="-1.77546">
        <ele>4.2</ele>
        <time>2026-08-05T08:12:26Z</time>
      </trkpt>
      <trkpt lat="43.36118" lon="-1.7755">
        <ele>4.2</ele>
        <time>2026-08-05T08:12:27Z</time>
      </trkpt>
      <trkpt lat="43.36117" lon="-1.77553">
        <ele>3.4</ele>
        <time>2026-08-05T08:12:28Z</time>
      </trkpt>
      <trkpt lat="43.36115" lon="-1.77557">
        <ele>3.4</ele>
        <time>2026-08-05T08:12:29Z</time>
      </trkpt>
      <trkpt lat="43.36113" lon="-1.7756">
        <ele>3.4</ele>
        <time>2026-08-05T08:12:30Z</time>
      </trkpt>
      <trkpt lat="43.36111" lon="-1.77563">
        <ele>4.4</ele>
        <time>2026-08-05T08:12:31Z</time>
      </trkpt>
      <trkpt lat="43.36109" lon="-1.77566">
        <ele>4.6</ele>
        <time>2026-08-05T08:12:32Z</time>
      </trkpt>
      <trkpt lat="43.36108" lon="-1.77568">
        <ele>4.6</ele>
        <time>2026-08-05T08:12:33Z</time>
      </trkpt>
      <trkpt lat="43.36106" lon="-1.77571">
        <ele>3.6</ele>
        <time>2026-08-05T08:12:34Z</time>
      </trkpt>
      <trkpt lat="43.36105" lon="-1.77574">
        <ele>3.6</ele>
        <time>2026-08-05T08:12:35Z</time>
      </trkpt>
      <trkpt lat="43.36104" lon="-1.77576">
        <ele>3.6</ele>
        <time>2026-08-05T08:12:36Z</time>
      </trkpt>
      <trkpt lat="43.36102" lon="-1.77578">
        <ele>3.6</ele>
        <time>2026-08-05T08:12:37Z</time>
      </trkpt>
      <trkpt lat="43.36099" lon="-1.7758">
        <ele>4.6</ele>
        <time>2026-08-05T08:12:38Z</time>
      </trkpt>
      <trkpt lat="43.36097" lon="-1.77581">
        <ele>4.6</ele>
        <time>2026-08-05T08:12:39Z</time>
      </trkpt>
      <trkpt lat="43.36094" lon="-1.77583">
        <ele>4.6</ele>
        <time>2026-08-05T08:12:40Z</time>
      </trkpt>
      <trkpt lat="43.36092" lon="-1.77585">
        <ele>4.2</ele>
        <time>2026-08-05T08:12:41Z</time>
      </trkpt>
      <trkpt lat="43.3609" lon="-1.77587">
        <ele>4.2</ele>
        <time>2026-08-05T08:12:42Z</time>
      </trkpt>
      <trkpt lat="43.36088" lon="-1.77589">
        <ele>4.2</ele>
        <time>2026-08-05T08:12:43Z</time>
      </trkpt>
      <trkpt lat="43.36086" lon="-1.77591">
        <ele>4.2</ele>
        <time>2026-08-05T08:12:44Z</time>
      </trkpt>
      <trkpt lat="43.36084" lon="-1.77594">
        <ele>4.2</ele>
        <time>2026-08-05T08:12:45Z</time>
      </trkpt>
      <trkpt lat="43.36082" lon="-1.77596">
        <ele>4.6</ele>
        <time>2026-08-05T08:12:46Z</time>
      </trkpt>
      <trkpt lat="43.36081" lon="-1.77597">
        <ele>4.6</ele>
        <time>2026-08-05T08:12:47Z</time>
      </trkpt>
      <trkpt lat="43.36081" lon="-1.77599">
        <ele>4.6</ele>
        <time>2026-08-05T08:12:48Z</time>
      </trkpt>
      <trkpt lat="43.36081" lon="-1.776">
        <ele>4.2</ele>
        <time>2026-08-05T08:12:49Z</time>
      </trkpt>
      <trkpt lat="43.36081" lon="-1.776">
        <ele>4.2</ele>
        <time>2026-08-05T08:12:50Z</time>
      </trkpt>
      <trkpt lat="43.36081" lon="-1.776">
        <ele>4.2</ele>
        <time>2026-08-05T08:12:51Z</time>
      </trkpt>
      <trkpt lat="43.36078" lon="-1.77603">
        <ele>4.2</ele>
        <time>2026-08-05T08:13:32Z</time>
      </trkpt>
      <trkpt lat="43.36076" lon="-1.77604">
        <ele>4.2</ele>
        <time>2026-08-05T08:13:33Z</time>
      </trkpt>
      <trkpt lat="43.36074" lon="-1.77607">
        <ele>5.2</ele>
        <time>2026-08-05T08:13:34Z</time>
      </trkpt>
      <trkpt lat="43.36073" lon="-1.7761">
        <ele>5.2</ele>
        <time>2026-08-05T08:13:35Z</time>
      </trkpt>
      <trkpt lat="43.36072" lon="-1.77613">
        <ele>5.2</ele>
        <time>2026-08-05T08:13:36Z</time>
      </trkpt>
      <trkpt lat="43.36071" lon="-1.77617">
        <ele>5</ele>
        <time>2026-08-05T08:13:37Z</time>
      </trkpt>
      <trkpt lat="43.3607" lon="-1.7762">
        <ele>4.6</ele>
        <time>2026-08-05T08:13:38Z</time>
      </trkpt>
      <trkpt lat="43.3607" lon="-1.77623">
        <ele>4.6</ele>
        <time>2026-08-05T08:13:39Z</time>
      </trkpt>
      <trkpt lat="43.36069" lon="-1.77627">
        <ele>4.6</ele>
        <time>2026-08-05T08:13:40Z</time>
      </trkpt>
      <trkpt lat="43.36068" lon="-1.77631">
        <ele>4.6</ele>
        <time>2026-08-05T08:13:41Z</time>
      </trkpt>
      <trkpt lat="43.36067" lon="-1.77635">
        <ele>4.6</ele>
        <time>2026-08-05T08:13:42Z</time>
      </trkpt>
      <trkpt lat="43.36065" lon="-1.77638">
        <ele>4.6</ele>
        <time>2026-08-05T08:13:43Z</time>
      </trkpt>
      <trkpt lat="43.36063" lon="-1.77641">
        <ele>4.6</ele>
        <time>2026-08-05T08:13:44Z</time>
      </trkpt>
      <trkpt lat="43.36061" lon="-1.77643">
        <ele>4.2</ele>
        <time>2026-08-05T08:13:45Z</time>
      </trkpt>
      <trkpt lat="43.36059" lon="-1.77646">
        <ele>4.2</ele>
        <time>2026-08-05T08:13:46Z</time>
      </trkpt>
      <trkpt lat="43.36056" lon="-1.77649">
        <ele>4.2</ele>
        <time>2026-08-05T08:13:47Z</time>
      </trkpt>
      <trkpt lat="43.36054" lon="-1.77652">
        <ele>4.4</ele>
        <time>2026-08-05T08:13:48Z</time>
      </trkpt>
      <trkpt lat="43.36051" lon="-1.77655">
        <ele>4.6</ele>
        <time>2026-08-05T08:13:49Z</time>
      </trkpt>
      <trkpt lat="43.3605" lon="-1.77658">
        <ele>4.6</ele>
        <time>2026-08-05T08:13:50Z</time>
      </trkpt>
      <trkpt lat="43.36048" lon="-1.77661">
        <ele>4.6</ele>
        <time>2026-08-05T08:13:51Z</time>
      </trkpt>
      <trkpt lat="43.36049" lon="-1.77663">
        <ele>4.6</ele>
        <time>2026-08-05T08:13:52Z</time>
      </trkpt>
      <trkpt lat="43.3605" lon="-1.77665">
        <ele>5</ele>
        <time>2026-08-05T08:13:53Z</time>
      </trkpt>
      <trkpt lat="43.3605" lon="-1.77668">
        <ele>5</ele>
        <time>2026-08-05T08:13:54Z</time>
      </trkpt>
      <trkpt lat="43.36048" lon="-1.77671">
        <ele>5.2</ele>
        <time>2026-08-05T08:13:55Z</time>
      </trkpt>
      <trkpt lat="43.36047" lon="-1.77673">
        <ele>5.2</ele>
        <time>2026-08-05T08:13:56Z</time>
      </trkpt>
      <trkpt lat="43.36045" lon="-1.77675">
        <ele>5.2</ele>
        <time>2026-08-05T08:13:57Z</time>
      </trkpt>
      <trkpt lat="43.36043" lon="-1.77678">
        <ele>4.6</ele>
        <time>2026-08-05T08:13:58Z</time>
      </trkpt>
      <trkpt lat="43.36041" lon="-1.7768">
        <ele>4.6</ele>
        <time>2026-08-05T08:13:59Z</time>
      </trkpt>
      <trkpt lat="43.36039" lon="-1.77683">
        <ele>4.6</ele>
        <time>2026-08-05T08:14:00Z</time>
      </trkpt>
      <trkpt lat="43.36037" lon="-1.77686">
        <ele>4.6</ele>
        <time>2026-08-05T08:14:01Z</time>
      </trkpt>
      <trkpt lat="43.36035" lon="-1.7769">
        <ele>4.6</ele>
        <time>2026-08-05T08:14:02Z</time>
      </trkpt>
      <trkpt lat="43.36033" lon="-1.77693">
        <ele>4.6</ele>
        <time>2026-08-05T08:14:03Z</time>
      </trkpt>
      <trkpt lat="43.3603" lon="-1.77696">
        <ele>3.6</ele>
        <time>2026-08-05T08:14:04Z</time>
      </trkpt>
      <trkpt lat="43.36028" lon="-1.77699">
        <ele>3.6</ele>
        <time>2026-08-05T08:14:05Z</time>
      </trkpt>
      <trkpt lat="43.36025" lon="-1.77701">
        <ele>4.4</ele>
        <time>2026-08-05T08:14:06Z</time>
      </trkpt>
      <trkpt lat="43.36022" lon="-1.77703">
        <ele>4.4</ele>
        <time>2026-08-05T08:14:07Z</time>
      </trkpt>
      <trkpt lat="43.36019" lon="-1.77705">
        <ele>4.4</ele>
        <time>2026-08-05T08:14:08Z</time>
      </trkpt>
      <trkpt lat="43.36016" lon="-1.77707">
        <ele>4.4</ele>
        <time>2026-08-05T08:14:09Z</time>
      </trkpt>
      <trkpt lat="43.36013" lon="-1.77709">
        <ele>2.4</ele>
        <time>2026-08-05T08:14:10Z</time>
      </trkpt>
      <trkpt lat="43.3601" lon="-1.77711">
        <ele>2.4</ele>
        <time>2026-08-05T08:14:11Z</time>
      </trkpt>
      <trkpt lat="43.36008" lon="-1.77713">
        <ele>2.4</ele>
        <time>2026-08-05T08:14:12Z</time>
      </trkpt>
      <trkpt lat="43.36005" lon="-1.77715">
        <ele>3.4</ele>
        <time>2026-08-05T08:14:13Z</time>
      </trkpt>
      <trkpt lat="43.36003" lon="-1.77717">
        <ele>3.4</ele>
        <time>2026-08-05T08:14:14Z</time>
      </trkpt>
      <trkpt lat="43.36001" lon="-1.77718">
        <ele>4.4</ele>
        <time>2026-08-05T08:14:15Z</time>
      </trkpt>
      <trkpt lat="43.35998" lon="-1.7772">
        <ele>4.4</ele>
        <time>2026-08-05T08:14:16Z</time>
      </trkpt>
      <trkpt lat="43.35996" lon="-1.77722">
        <ele>4.4</ele>
        <time>2026-08-05T08:14:17Z</time>
      </trkpt>
      <trkpt lat="43.35992" lon="-1.77725">
        <ele>4.4</ele>
        <time>2026-08-05T08:14:18Z</time>
      </trkpt>
      <trkpt lat="43.35989" lon="-1.77727">
        <ele>4.4</ele>
        <time>2026-08-05T08:14:19Z</time>
      </trkpt>
      <trkpt lat="43.35986" lon="-1.77729">
        <ele>4.4</ele>
        <time>2026-08-05T08:14:20Z</time>
      </trkpt>
      <trkpt lat="43.35983" lon="-1.77732">
        <ele>4.4</ele>
        <time>2026-08-05T08:14:21Z</time>
      </trkpt>
      <trkpt lat="43.3598" lon="-1.77734">
        <ele>4.4</ele>
        <time>2026-08-05T08:14:22Z</time>
      </trkpt>
      <trkpt lat="43.35977" lon="-1.77736">
        <ele>4.4</ele>
        <time>2026-08-05T08:14:23Z</time>
      </trkpt>
      <trkpt lat="43.35974" lon="-1.77738">
        <ele>4.4</ele>
        <time>2026-08-05T08:14:24Z</time>
      </trkpt>
      <trkpt lat="43.3597" lon="-1.77741">
        <ele>3.4</ele>
        <time>2026-08-05T08:14:25Z</time>
      </trkpt>
      <trkpt lat="43.35967" lon="-1.77743">
        <ele>3.4</ele>
        <time>2026-08-05T08:14:26Z</time>
      </trkpt>
      <trkpt lat="43.35964" lon="-1.77745">
        <ele>3.4</ele>
        <time>2026-08-05T08:14:27Z</time>
      </trkpt>
      <trkpt lat="43.3596" lon="-1.77748">
        <ele>3.4</ele>
        <time>2026-08-05T08:14:28Z</time>
      </trkpt>
      <trkpt lat="43.35957" lon="-1.7775">
        <ele>4.2</ele>
        <time>2026-08-05T08:14:29Z</time>
      </trkpt>
      <trkpt lat="43.35954" lon="-1.77752">
        <ele>4.2</ele>
        <time>2026-08-05T08:14:30Z</time>
      </trkpt>
      <trkpt lat="43.3595" lon="-1.77754">
        <ele>4.2</ele>
        <time>2026-08-05T08:14:31Z</time>
      </trkpt>
      <trkpt lat="43.35947" lon="-1.77756">
        <ele>2.6</ele>
        <time>2026-08-05T08:14:32Z</time>
      </trkpt>
      <trkpt lat="43.35944" lon="-1.77757">
        <ele>2.6</ele>
        <time>2026-08-05T08:14:33Z</time>
      </trkpt>
      <trkpt lat="43.35941" lon="-1.77759">
        <ele>2.6</ele>
        <time>2026-08-05T08:14:34Z</time>
      </trkpt>
      <trkpt lat="43.35938" lon="-1.77761">
        <ele>2.6</ele>
        <time>2026-08-05T08:14:35Z</time>
      </trkpt>
      <trkpt lat="43.35935" lon="-1.77763">
        <ele>3.4</ele>
        <time>2026-08-05T08:14:36Z</time>
      </trkpt>
      <trkpt lat="43.35932" lon="-1.77765">
        <ele>3.6</ele>
        <time>2026-08-05T08:14:37Z</time>
      </trkpt>
      <trkpt lat="43.35929" lon="-1.77767">
        <ele>3.8</ele>
        <time>2026-08-05T08:14:38Z</time>
      </trkpt>
      <trkpt lat="43.35926" lon="-1.77768">
        <ele>4</ele>
        <time>2026-08-05T08:14:39Z</time>
      </trkpt>
      <trkpt lat="43.35923" lon="-1.7777">
        <ele>4</ele>
        <time>2026-08-05T08:14:40Z</time>
      </trkpt>
      <trkpt lat="43.3592" lon="-1.77772">
        <ele>4</ele>
        <time>2026-08-05T08:14:41Z</time>
      </trkpt>
      <trkpt lat="43.35916" lon="-1.77773">
        <ele>3.8</ele>
        <time>2026-08-05T08:14:42Z</time>
      </trkpt>
      <trkpt lat="43.35913" lon="-1.77774">
        <ele>3.8</ele>
        <time>2026-08-05T08:14:43Z</time>
      </trkpt>
      <trkpt lat="43.3591" lon="-1.77776">
        <ele>3.8</ele>
        <time>2026-08-05T08:14:44Z</time>
      </trkpt>
      <trkpt lat="43.35907" lon="-1.77777">
        <ele>3.6</ele>
        <time>2026-08-05T08:14:45Z</time>
      </trkpt>
      <trkpt lat="43.35904" lon="-1.77779">
        <ele>3.6</ele>
        <time>2026-08-05T08:14:46Z</time>
      </trkpt>
      <trkpt lat="43.359" lon="-1.7778">
        <ele>3.8</ele>
        <time>2026-08-05T08:14:47Z</time>
      </trkpt>
      <trkpt lat="43.35897" lon="-1.77781">
        <ele>4.2</ele>
        <time>2026-08-05T08:14:48Z</time>
      </trkpt>
      <trkpt lat="43.35893" lon="-1.77783">
        <ele>4.2</ele>
        <time>2026-08-05T08:14:49Z</time>
      </trkpt>
      <trkpt lat="43.3589" lon="-1.77784">
        <ele>4.4</ele>
        <time>2026-08-05T08:14:50Z</time>
      </trkpt>
      <trkpt lat="43.35886" lon="-1.77785">
        <ele>4.4</ele>
        <time>2026-08-05T08:14:51Z</time>
      </trkpt>
      <trkpt lat="43.35883" lon="-1.77787">
        <ele>4.4</ele>
        <time>2026-08-05T08:14:52Z</time>
      </trkpt>
      <trkpt lat="43.3588" lon="-1.77788">
        <ele>3.8</ele>
        <time>2026-08-05T08:14:53Z</time>
      </trkpt>
      <trkpt lat="43.35876" lon="-1.77789">
        <ele>3.8</ele>
        <time>2026-08-05T08:14:54Z</time>
      </trkpt>
      <trkpt lat="43.35873" lon="-1.77791">
        <ele>3.8</ele>
        <time>2026-08-05T08:14:55Z</time>
      </trkpt>
      <trkpt lat="43.35869" lon="-1.77792">
        <ele>3.8</ele>
        <time>2026-08-05T08:14:56Z</time>
      </trkpt>
      <trkpt lat="43.35865" lon="-1.77794">
        <ele>3.8</ele>
        <time>2026-08-05T08:14:57Z</time>
      </trkpt>
      <trkpt lat="43.35862" lon="-1.77797">
        <ele>3.8</ele>
        <time>2026-08-05T08:14:58Z</time>
      </trkpt>
      <trkpt lat="43.35858" lon="-1.77799">
        <ele>3.8</ele>
        <time>2026-08-05T08:14:59Z</time>
      </trkpt>
      <trkpt lat="43.35854" lon="-1.778">
        <ele>3.8</ele>
        <time>2026-08-05T08:15:00Z</time>
      </trkpt>
      <trkpt lat="43.35851" lon="-1.77802">
        <ele>4</ele>
        <time>2026-08-05T08:15:01Z</time>
      </trkpt>
      <trkpt lat="43.35848" lon="-1.77803">
        <ele>4</ele>
        <time>2026-08-05T08:15:02Z</time>
      </trkpt>
      <trkpt lat="43.35845" lon="-1.77805">
        <ele>3.6</ele>
        <time>2026-08-05T08:15:03Z</time>
      </trkpt>
      <trkpt lat="43.35841" lon="-1.77806">
        <ele>3.6</ele>
        <time>2026-08-05T08:15:04Z</time>
      </trkpt>
      <trkpt lat="43.35838" lon="-1.77808">
        <ele>3.6</ele>
        <time>2026-08-05T08:15:05Z</time>
      </trkpt>
      <trkpt lat="43.35835" lon="-1.77811">
        <ele>3.6</ele>
        <time>2026-08-05T08:15:06Z</time>
      </trkpt>
      <trkpt lat="43.35832" lon="-1.77813">
        <ele>3.8</ele>
        <time>2026-08-05T08:15:07Z</time>
      </trkpt>
      <trkpt lat="43.3583" lon="-1.77817">
        <ele>4</ele>
        <time>2026-08-05T08:15:08Z</time>
      </trkpt>
      <trkpt lat="43.35828" lon="-1.7782">
        <ele>4</ele>
        <time>2026-08-05T08:15:09Z</time>
      </trkpt>
      <trkpt lat="43.35826" lon="-1.77824">
        <ele>4</ele>
        <time>2026-08-05T08:15:10Z</time>
      </trkpt>
      <trkpt lat="43.35825" lon="-1.77829">
        <ele>4</ele>
        <time>2026-08-05T08:15:11Z</time>
      </trkpt>
      <trkpt lat="43.35823" lon="-1.77832">
        <ele>4</ele>
        <time>2026-08-05T08:15:12Z</time>
      </trkpt>
      <trkpt lat="43.35821" lon="-1.77836">
        <ele>4</ele>
        <time>2026-08-05T08:15:13Z</time>
      </trkpt>
      <trkpt lat="43.3582" lon="-1.77839">
        <ele>4</ele>
        <time>2026-08-05T08:15:14Z</time>
      </trkpt>
      <trkpt lat="43.35819" lon="-1.77843">
        <ele>4.2</ele>
        <time>2026-08-05T08:15:15Z</time>
      </trkpt>
      <trkpt lat="43.35818" lon="-1.77848">
        <ele>4.2</ele>
        <time>2026-08-05T08:15:16Z</time>
      </trkpt>
      <trkpt lat="43.35818" lon="-1.77853">
        <ele>4.2</ele>
        <time>2026-08-05T08:15:17Z</time>
      </trkpt>
      <trkpt lat="43.35819" lon="-1.77857">
        <ele>4.2</ele>
        <time>2026-08-05T08:15:18Z</time>
      </trkpt>
      <trkpt lat="43.3582" lon="-1.77862">
        <ele>4.2</ele>
        <time>2026-08-05T08:15:19Z</time>
      </trkpt>
      <trkpt lat="43.3582" lon="-1.77867">
        <ele>4.2</ele>
        <time>2026-08-05T08:15:20Z</time>
      </trkpt>
      <trkpt lat="43.35821" lon="-1.77871">
        <ele>4.2</ele>
        <time>2026-08-05T08:15:21Z</time>
      </trkpt>
      <trkpt lat="43.35822" lon="-1.77876">
        <ele>3.6</ele>
        <time>2026-08-05T08:15:22Z</time>
      </trkpt>
      <trkpt lat="43.35823" lon="-1.7788">
        <ele>3.4</ele>
        <time>2026-08-05T08:15:23Z</time>
      </trkpt>
      <trkpt lat="43.35824" lon="-1.77884">
        <ele>3.4</ele>
        <time>2026-08-05T08:15:24Z</time>
      </trkpt>
      <trkpt lat="43.35826" lon="-1.77889">
        <ele>3.4</ele>
        <time>2026-08-05T08:15:25Z</time>
      </trkpt>
      <trkpt lat="43.35828" lon="-1.77893">
        <ele>4</ele>
        <time>2026-08-05T08:15:26Z</time>
      </trkpt>
      <trkpt lat="43.35829" lon="-1.77897">
        <ele>4</ele>
        <time>2026-08-05T08:15:27Z</time>
      </trkpt>
      <trkpt lat="43.35831" lon="-1.77902">
        <ele>3.6</ele>
        <time>2026-08-05T08:15:28Z</time>
      </trkpt>
      <trkpt lat="43.35832" lon="-1.77906">
        <ele>2.6</ele>
        <time>2026-08-05T08:15:29Z</time>
      </trkpt>
      <trkpt lat="43.35833" lon="-1.7791">
        <ele>2.6</ele>
        <time>2026-08-05T08:15:30Z</time>
      </trkpt>
      <trkpt lat="43.35835" lon="-1.77915">
        <ele>2.6</ele>
        <time>2026-08-05T08:15:31Z</time>
      </trkpt>
      <trkpt lat="43.35836" lon="-1.77919">
        <ele>3.6</ele>
        <time>2026-08-05T08:15:32Z</time>
      </trkpt>
      <trkpt lat="43.35838" lon="-1.77924">
        <ele>4.2</ele>
        <time>2026-08-05T08:15:33Z</time>
      </trkpt>
      <trkpt lat="43.35839" lon="-1.77929">
        <ele>4.2</ele>
        <time>2026-08-05T08:15:34Z</time>
      </trkpt>
      <trkpt lat="43.3584" lon="-1.77933">
        <ele>4.2</ele>
        <time>2026-08-05T08:15:35Z</time>
      </trkpt>
      <trkpt lat="43.35841" lon="-1.77938">
        <ele>4.2</ele>
        <time>2026-08-05T08:15:36Z</time>
      </trkpt>
      <trkpt lat="43.35842" lon="-1.77943">
        <ele>4.2</ele>
        <time>2026-08-05T08:15:37Z</time>
      </trkpt>
      <trkpt lat="43.35844" lon="-1.77947">
        <ele>3.2</ele>
        <time>2026-08-05T08:15:38Z</time>
      </trkpt>
      <trkpt lat="43.35845" lon="-1.77952">
        <ele>3.2</ele>
        <time>2026-08-05T08:15:39Z</time>
      </trkpt>
      <trkpt lat="43.35847" lon="-1.77957">
        <ele>3.2</ele>
        <time>2026-08-05T08:15:40Z</time>
      </trkpt>
      <trkpt lat="43.35848" lon="-1.77962">
        <ele>3.8</ele>
        <time>2026-08-05T08:15:41Z</time>
      </trkpt>
      <trkpt lat="43.35849" lon="-1.77967">
        <ele>4.2</ele>
        <time>2026-08-05T08:15:42Z</time>
      </trkpt>
      <trkpt lat="43.3585" lon="-1.77972">
        <ele>4.2</ele>
        <time>2026-08-05T08:15:43Z</time>
      </trkpt>
      <trkpt lat="43.35852" lon="-1.77977">
        <ele>4.2</ele>
        <time>2026-08-05T08:15:44Z</time>
      </trkpt>
      <trkpt lat="43.35853" lon="-1.77982">
        <ele>4.2</ele>
        <time>2026-08-05T08:15:45Z</time>
      </trkpt>
      <trkpt lat="43.35854" lon="-1.77987">
        <ele>4.2</ele>
        <time>2026-08-05T08:15:46Z</time>
      </trkpt>
      <trkpt lat="43.35856" lon="-1.77992">
        <ele>4.2</ele>
        <time>2026-08-05T08:15:47Z</time>
      </trkpt>
      <trkpt lat="43.35857" lon="-1.77997">
        <ele>4.2</ele>
        <time>2026-08-05T08:15:48Z</time>
      </trkpt>
      <trkpt lat="43.35858" lon="-1.78001">
        <ele>4.2</ele>
        <time>2026-08-05T08:15:49Z</time>
      </trkpt>
      <trkpt lat="43.3586" lon="-1.78006">
        <ele>3.6</ele>
        <time>2026-08-05T08:15:50Z</time>
      </trkpt>
      <trkpt lat="43.35861" lon="-1.78011">
        <ele>3.8</ele>
        <time>2026-08-05T08:15:51Z</time>
      </trkpt>
      <trkpt lat="43.35861" lon="-1.78016">
        <ele>3.8</ele>
        <time>2026-08-05T08:15:52Z</time>
      </trkpt>
      <trkpt lat="43.35859" lon="-1.78021">
        <ele>3.8</ele>
        <time>2026-08-05T08:15:53Z</time>
      </trkpt>
      <trkpt lat="43.35857" lon="-1.78026">
        <ele>3.8</ele>
        <time>2026-08-05T08:15:54Z</time>
      </trkpt>
      <trkpt lat="43.35855" lon="-1.7803">
        <ele>3.8</ele>
        <time>2026-08-05T08:15:55Z</time>
      </trkpt>
      <trkpt lat="43.35852" lon="-1.78035">
        <ele>3.8</ele>
        <time>2026-08-05T08:15:56Z</time>
      </trkpt>
      <trkpt lat="43.3585" lon="-1.78039">
        <ele>3.4</ele>
        <time>2026-08-05T08:15:57Z</time>
      </trkpt>
      <trkpt lat="43.35847" lon="-1.78044">
        <ele>3.4</ele>
        <time>2026-08-05T08:15:58Z</time>
      </trkpt>
      <trkpt lat="43.35845" lon="-1.78048">
        <ele>3.4</ele>
        <time>2026-08-05T08:15:59Z</time>
      </trkpt>
      <trkpt lat="43.35842" lon="-1.78052">
        <ele>3.4</ele>
        <time>2026-08-05T08:16:00Z</time>
      </trkpt>
      <trkpt lat="43.35839" lon="-1.78056">
        <ele>3.4</ele>
        <time>2026-08-05T08:16:01Z</time>
      </trkpt>
      <trkpt lat="43.35837" lon="-1.78061">
        <ele>3.8</ele>
        <time>2026-08-05T08:16:02Z</time>
      </trkpt>
      <trkpt lat="43.35834" lon="-1.78065">
        <ele>3.8</ele>
        <time>2026-08-05T08:16:03Z</time>
      </trkpt>
      <trkpt lat="43.35832" lon="-1.78069">
        <ele>3.8</ele>
        <time>2026-08-05T08:16:04Z</time>
      </trkpt>
      <trkpt lat="43.35829" lon="-1.78073">
        <ele>3.8</ele>
        <time>2026-08-05T08:16:05Z</time>
      </trkpt>
      <trkpt lat="43.35827" lon="-1.78077">
        <ele>4</ele>
        <time>2026-08-05T08:16:06Z</time>
      </trkpt>
      <trkpt lat="43.35824" lon="-1.7808">
        <ele>4</ele>
        <time>2026-08-05T08:16:07Z</time>
      </trkpt>
      <trkpt lat="43.35821" lon="-1.78083">
        <ele>4</ele>
        <time>2026-08-05T08:16:08Z</time>
      </trkpt>
      <trkpt lat="43.35819" lon="-1.78087">
        <ele>3.4</ele>
        <time>2026-08-05T08:16:09Z</time>
      </trkpt>
      <trkpt lat="43.35816" lon="-1.78091">
        <ele>3.4</ele>
        <time>2026-08-05T08:16:10Z</time>
      </trkpt>
      <trkpt lat="43.35814" lon="-1.78095">
        <ele>3.4</ele>
        <time>2026-08-05T08:16:11Z</time>
      </trkpt>
      <trkpt lat="43.35812" lon="-1.78099">
        <ele>3.4</ele>
        <time>2026-08-05T08:16:12Z</time>
      </trkpt>
      <trkpt lat="43.35809" lon="-1.78102">
        <ele>3.8</ele>
        <time>2026-08-05T08:16:13Z</time>
      </trkpt>
      <trkpt lat="43.35807" lon="-1.78106">
        <ele>3.8</ele>
        <time>2026-08-05T08:16:14Z</time>
      </trkpt>
      <trkpt lat="43.35804" lon="-1.78109">
        <ele>4</ele>
        <time>2026-08-05T08:16:15Z</time>
      </trkpt>
      <trkpt lat="43.35802" lon="-1.78112">
        <ele>4</ele>
        <time>2026-08-05T08:16:16Z</time>
      </trkpt>
      <trkpt lat="43.35799" lon="-1.78116">
        <ele>4</ele>
        <time>2026-08-05T08:16:17Z</time>
      </trkpt>
      <trkpt lat="43.35797" lon="-1.7812">
        <ele>3.8</ele>
        <time>2026-08-05T08:16:18Z</time>
      </trkpt>
      <trkpt lat="43.35795" lon="-1.78124">
        <ele>3.8</ele>
        <time>2026-08-05T08:16:19Z</time>
      </trkpt>
      <trkpt lat="43.35792" lon="-1.78127">
        <ele>3.8</ele>
        <time>2026-08-05T08:16:20Z</time>
      </trkpt>
      <trkpt lat="43.35789" lon="-1.78131">
        <ele>3.8</ele>
        <time>2026-08-05T08:16:21Z</time>
      </trkpt>
      <trkpt lat="43.35787" lon="-1.78134">
        <ele>3.8</ele>
        <time>2026-08-05T08:16:22Z</time>
      </trkpt>
      <trkpt lat="43.35784" lon="-1.78138">
        <ele>3.8</ele>
        <time>2026-08-05T08:16:23Z</time>
      </trkpt>
      <trkpt lat="43.35782" lon="-1.78142">
        <ele>3.8</ele>
        <time>2026-08-05T08:16:24Z</time>
      </trkpt>
      <trkpt lat="43.35779" lon="-1.78145">
        <ele>3.8</ele>
        <time>2026-08-05T08:16:25Z</time>
      </trkpt>
      <trkpt lat="43.35777" lon="-1.78149">
        <ele>3.8</ele>
        <time>2026-08-05T08:16:26Z</time>
      </trkpt>
      <trkpt lat="43.35775" lon="-1.78153">
        <ele>3.8</ele>
        <time>2026-08-05T08:16:27Z</time>
      </trkpt>
      <trkpt lat="43.35774" lon="-1.78158">
        <ele>3.8</ele>
        <time>2026-08-05T08:16:28Z</time>
      </trkpt>
      <trkpt lat="43.35772" lon="-1.78162">
        <ele>3.4</ele>
        <time>2026-08-05T08:16:29Z</time>
      </trkpt>
      <trkpt lat="43.35769" lon="-1.78166">
        <ele>3.4</ele>
        <time>2026-08-05T08:16:30Z</time>
      </trkpt>
      <trkpt lat="43.35767" lon="-1.7817">
        <ele>3.4</ele>
        <time>2026-08-05T08:16:31Z</time>
      </trkpt>
      <trkpt lat="43.35765" lon="-1.78174">
        <ele>3.6</ele>
        <time>2026-08-05T08:16:32Z</time>
      </trkpt>
      <trkpt lat="43.35762" lon="-1.78178">
        <ele>3.6</ele>
        <time>2026-08-05T08:16:33Z</time>
      </trkpt>
      <trkpt lat="43.35759" lon="-1.78182">
        <ele>3.6</ele>
        <time>2026-08-05T08:16:34Z</time>
      </trkpt>
      <trkpt lat="43.35757" lon="-1.78186">
        <ele>3.6</ele>
        <time>2026-08-05T08:16:35Z</time>
      </trkpt>
      <trkpt lat="43.35754" lon="-1.7819">
        <ele>3.6</ele>
        <time>2026-08-05T08:16:36Z</time>
      </trkpt>
      <trkpt lat="43.35752" lon="-1.78195">
        <ele>3.8</ele>
        <time>2026-08-05T08:16:37Z</time>
      </trkpt>
      <trkpt lat="43.3575" lon="-1.78199">
        <ele>3.8</ele>
        <time>2026-08-05T08:16:38Z</time>
      </trkpt>
      <trkpt lat="43.35747" lon="-1.78203">
        <ele>3.8</ele>
        <time>2026-08-05T08:16:39Z</time>
      </trkpt>
      <trkpt lat="43.35744" lon="-1.78207">
        <ele>3.8</ele>
        <time>2026-08-05T08:16:40Z</time>
      </trkpt>
      <trkpt lat="43.35742" lon="-1.78212">
        <ele>3.8</ele>
        <time>2026-08-05T08:16:41Z</time>
      </trkpt>
      <trkpt lat="43.35739" lon="-1.78216">
        <ele>4</ele>
        <time>2026-08-05T08:16:42Z</time>
      </trkpt>
      <trkpt lat="43.35737" lon="-1.7822">
        <ele>4</ele>
        <time>2026-08-05T08:16:43Z</time>
      </trkpt>
      <trkpt lat="43.35734" lon="-1.78224">
        <ele>4</ele>
        <time>2026-08-05T08:16:44Z</time>
      </trkpt>
      <trkpt lat="43.35732" lon="-1.78229">
        <ele>3.6</ele>
        <time>2026-08-05T08:16:45Z</time>
      </trkpt>
      <trkpt lat="43.35729" lon="-1.78232">
        <ele>3.6</ele>
        <time>2026-08-05T08:16:46Z</time>
      </trkpt>
      <trkpt lat="43.35726" lon="-1.78236">
        <ele>3.6</ele>
        <time>2026-08-05T08:16:47Z</time>
      </trkpt>
      <trkpt lat="43.35724" lon="-1.7824">
        <ele>3.6</ele>
        <time>2026-08-05T08:16:48Z</time>
      </trkpt>
      <trkpt lat="43.35722" lon="-1.78244">
        <ele>3.8</ele>
        <time>2026-08-05T08:16:49Z</time>
      </trkpt>
      <trkpt lat="43.35719" lon="-1.78248">
        <ele>3.8</ele>
        <time>2026-08-05T08:16:50Z</time>
      </trkpt>
      <trkpt lat="43.35717" lon="-1.78252">
        <ele>3.8</ele>
        <time>2026-08-05T08:16:51Z</time>
      </trkpt>
      <trkpt lat="43.35714" lon="-1.78257">
        <ele>3.8</ele>
        <time>2026-08-05T08:16:52Z</time>
      </trkpt>
      <trkpt lat="43.35712" lon="-1.78261">
        <ele>3.8</ele>
        <time>2026-08-05T08:16:53Z</time>
      </trkpt>
      <trkpt lat="43.35709" lon="-1.78265">
        <ele>3.8</ele>
        <time>2026-08-05T08:16:54Z</time>
      </trkpt>
      <trkpt lat="43.35706" lon="-1.78269">
        <ele>3.8</ele>
        <time>2026-08-05T08:16:55Z</time>
      </trkpt>
      <trkpt lat="43.35704" lon="-1.78272">
        <ele>3.6</ele>
        <time>2026-08-05T08:16:56Z</time>
      </trkpt>
      <trkpt lat="43.35701" lon="-1.78276">
        <ele>3.6</ele>
        <time>2026-08-05T08:16:57Z</time>
      </trkpt>
      <trkpt lat="43.35698" lon="-1.7828">
        <ele>3.6</ele>
        <time>2026-08-05T08:16:58Z</time>
      </trkpt>
      <trkpt lat="43.35696" lon="-1.78285">
        <ele>3.6</ele>
        <time>2026-08-05T08:16:59Z</time>
      </trkpt>
      <trkpt lat="43.35693" lon="-1.78289">
        <ele>3.6</ele>
        <time>2026-08-05T08:17:00Z</time>
      </trkpt>
      <trkpt lat="43.3569" lon="-1.78294">
        <ele>3.2</ele>
        <time>2026-08-05T08:17:01Z</time>
      </trkpt>
      <trkpt lat="43.35688" lon="-1.78298">
        <ele>3.2</ele>
        <time>2026-08-05T08:17:02Z</time>
      </trkpt>
      <trkpt lat="43.35685" lon="-1.78303">
        <ele>3.2</ele>
        <time>2026-08-05T08:17:03Z</time>
      </trkpt>
      <trkpt lat="43.35682" lon="-1.78307">
        <ele>3.6</ele>
        <time>2026-08-05T08:17:04Z</time>
      </trkpt>
      <trkpt lat="43.35678" lon="-1.78312">
        <ele>4</ele>
        <time>2026-08-05T08:17:05Z</time>
      </trkpt>
      <trkpt lat="43.35675" lon="-1.78315">
        <ele>4.4</ele>
        <time>2026-08-05T08:17:06Z</time>
      </trkpt>
      <trkpt lat="43.35671" lon="-1.78318">
        <ele>4.4</ele>
        <time>2026-08-05T08:17:07Z</time>
      </trkpt>
      <trkpt lat="43.35668" lon="-1.78321">
        <ele>4.4</ele>
        <time>2026-08-05T08:17:08Z</time>
      </trkpt>
      <trkpt lat="43.35664" lon="-1.78325">
        <ele>4.4</ele>
        <time>2026-08-05T08:17:09Z</time>
      </trkpt>
      <trkpt lat="43.35661" lon="-1.78328">
        <ele>3.6</ele>
        <time>2026-08-05T08:17:10Z</time>
      </trkpt>
      <trkpt lat="43.35658" lon="-1.78332">
        <ele>3.6</ele>
        <time>2026-08-05T08:17:11Z</time>
      </trkpt>
      <trkpt lat="43.35655" lon="-1.78336">
        <ele>3.6</ele>
        <time>2026-08-05T08:17:12Z</time>
      </trkpt>
      <trkpt lat="43.35653" lon="-1.7834">
        <ele>3.6</ele>
        <time>2026-08-05T08:17:13Z</time>
      </trkpt>
      <trkpt lat="43.3565" lon="-1.78345">
        <ele>3.6</ele>
        <time>2026-08-05T08:17:14Z</time>
      </trkpt>
      <trkpt lat="43.35648" lon="-1.78349">
        <ele>3.6</ele>
        <time>2026-08-05T08:17:15Z</time>
      </trkpt>
      <trkpt lat="43.35645" lon="-1.78352">
        <ele>3.6</ele>
        <time>2026-08-05T08:17:16Z</time>
      </trkpt>
      <trkpt lat="43.35642" lon="-1.78356">
        <ele>3.8</ele>
        <time>2026-08-05T08:17:17Z</time>
      </trkpt>
      <trkpt lat="43.35639" lon="-1.7836">
        <ele>3.8</ele>
        <time>2026-08-05T08:17:18Z</time>
      </trkpt>
      <trkpt lat="43.35636" lon="-1.78363">
        <ele>3.8</ele>
        <time>2026-08-05T08:17:19Z</time>
      </trkpt>
      <trkpt lat="43.35633" lon="-1.78367">
        <ele>3.6</ele>
        <time>2026-08-05T08:17:20Z</time>
      </trkpt>
      <trkpt lat="43.3563" lon="-1.78371">
        <ele>3.6</ele>
        <time>2026-08-05T08:17:21Z</time>
      </trkpt>
      <trkpt lat="43.35627" lon="-1.78374">
        <ele>3.6</ele>
        <time>2026-08-05T08:17:22Z</time>
      </trkpt>
      <trkpt lat="43.35624" lon="-1.78378">
        <ele>3.6</ele>
        <time>2026-08-05T08:17:23Z</time>
      </trkpt>
      <trkpt lat="43.35621" lon="-1.78381">
        <ele>3.6</ele>
        <time>2026-08-05T08:17:24Z</time>
      </trkpt>
      <trkpt lat="43.35618" lon="-1.78385">
        <ele>3.6</ele>
        <time>2026-08-05T08:17:25Z</time>
      </trkpt>
      <trkpt lat="43.35615" lon="-1.78388">
        <ele>3.6</ele>
        <time>2026-08-05T08:17:26Z</time>
      </trkpt>
      <trkpt lat="43.35612" lon="-1.78392">
        <ele>3.6</ele>
        <time>2026-08-05T08:17:27Z</time>
      </trkpt>
      <trkpt lat="43.35608" lon="-1.78395">
        <ele>3.6</ele>
        <time>2026-08-05T08:17:28Z</time>
      </trkpt>
      <trkpt lat="43.35605" lon="-1.78398">
        <ele>3.6</ele>
        <time>2026-08-05T08:17:29Z</time>
      </trkpt>
      <trkpt lat="43.35602" lon="-1.78401">
        <ele>3.6</ele>
        <time>2026-08-05T08:17:30Z</time>
      </trkpt>
      <trkpt lat="43.35599" lon="-1.78404">
        <ele>3.6</ele>
        <time>2026-08-05T08:17:31Z</time>
      </trkpt>
      <trkpt lat="43.35596" lon="-1.78407">
        <ele>3.6</ele>
        <time>2026-08-05T08:17:32Z</time>
      </trkpt>
      <trkpt lat="43.35593" lon="-1.7841">
        <ele>3.4</ele>
        <time>2026-08-05T08:17:33Z</time>
      </trkpt>
      <trkpt lat="43.3559" lon="-1.78413">
        <ele>3.4</ele>
        <time>2026-08-05T08:17:34Z</time>
      </trkpt>
      <trkpt lat="43.35587" lon="-1.78415">
        <ele>3.4</ele>
        <time>2026-08-05T08:17:35Z</time>
      </trkpt>
      <trkpt lat="43.35583" lon="-1.78418">
        <ele>3.4</ele>
        <time>2026-08-05T08:17:36Z</time>
      </trkpt>
      <trkpt lat="43.3558" lon="-1.78421">
        <ele>3.4</ele>
        <time>2026-08-05T08:17:37Z</time>
      </trkpt>
      <trkpt lat="43.35577" lon="-1.78424">
        <ele>3.4</ele>
        <time>2026-08-05T08:17:38Z</time>
      </trkpt>
      <trkpt lat="43.35574" lon="-1.78427">
        <ele>3.4</ele>
        <time>2026-08-05T08:17:39Z</time>
      </trkpt>
      <trkpt lat="43.3557" lon="-1.7843">
        <ele>3.4</ele>
        <time>2026-08-05T08:17:40Z</time>
      </trkpt>
      <trkpt lat="43.35567" lon="-1.78433">
        <ele>3.4</ele>
        <time>2026-08-05T08:17:41Z</time>
      </trkpt>
      <trkpt lat="43.35564" lon="-1.78436">
        <ele>3.4</ele>
        <time>2026-08-05T08:17:42Z</time>
      </trkpt>
      <trkpt lat="43.35561" lon="-1.78439">
        <ele>3.4</ele>
        <time>2026-08-05T08:17:43Z</time>
      </trkpt>
      <trkpt lat="43.35557" lon="-1.78442">
        <ele>3.8</ele>
        <time>2026-08-05T08:17:44Z</time>
      </trkpt>
      <trkpt lat="43.35554" lon="-1.78445">
        <ele>3.8</ele>
        <time>2026-08-05T08:17:45Z</time>
      </trkpt>
      <trkpt lat="43.35551" lon="-1.78447">
        <ele>3.8</ele>
        <time>2026-08-05T08:17:46Z</time>
      </trkpt>
      <trkpt lat="43.35547" lon="-1.7845">
        <ele>3.8</ele>
        <time>2026-08-05T08:17:47Z</time>
      </trkpt>
      <trkpt lat="43.35544" lon="-1.78453">
        <ele>3.4</ele>
        <time>2026-08-05T08:17:48Z</time>
      </trkpt>
      <trkpt lat="43.3554" lon="-1.78455">
        <ele>3.4</ele>
        <time>2026-08-05T08:17:49Z</time>
      </trkpt>
      <trkpt lat="43.35537" lon="-1.78458">
        <ele>3.4</ele>
        <time>2026-08-05T08:17:50Z</time>
      </trkpt>
      <trkpt lat="43.35533" lon="-1.7846">
        <ele>3.8</ele>
        <time>2026-08-05T08:17:51Z</time>
      </trkpt>
      <trkpt lat="43.3553" lon="-1.78462">
        <ele>4</ele>
        <time>2026-08-05T08:17:52Z</time>
      </trkpt>
      <trkpt lat="43.35526" lon="-1.78464">
        <ele>4.6</ele>
        <time>2026-08-05T08:17:53Z</time>
      </trkpt>
      <trkpt lat="43.35522" lon="-1.78466">
        <ele>4.6</ele>
        <time>2026-08-05T08:17:54Z</time>
      </trkpt>
      <trkpt lat="43.35519" lon="-1.78469">
        <ele>4.6</ele>
        <time>2026-08-05T08:17:55Z</time>
      </trkpt>
      <trkpt lat="43.35515" lon="-1.78471">
        <ele>4.2</ele>
        <time>2026-08-05T08:17:56Z</time>
      </trkpt>
      <trkpt lat="43.35511" lon="-1.78474">
        <ele>3.8</ele>
        <time>2026-08-05T08:17:57Z</time>
      </trkpt>
      <trkpt lat="43.35508" lon="-1.78478">
        <ele>3.6</ele>
        <time>2026-08-05T08:17:58Z</time>
      </trkpt>
      <trkpt lat="43.35505" lon="-1.78482">
        <ele>3.6</ele>
        <time>2026-08-05T08:17:59Z</time>
      </trkpt>
      <trkpt lat="43.35502" lon="-1.78485">
        <ele>3.6</ele>
        <time>2026-08-05T08:18:00Z</time>
      </trkpt>
      <trkpt lat="43.35498" lon="-1.78487">
        <ele>3.8</ele>
        <time>2026-08-05T08:18:01Z</time>
      </trkpt>
      <trkpt lat="43.35494" lon="-1.7849">
        <ele>3.8</ele>
        <time>2026-08-05T08:18:02Z</time>
      </trkpt>
      <trkpt lat="43.35491" lon="-1.78492">
        <ele>3.8</ele>
        <time>2026-08-05T08:18:03Z</time>
      </trkpt>
      <trkpt lat="43.35487" lon="-1.78494">
        <ele>3.6</ele>
        <time>2026-08-05T08:18:04Z</time>
      </trkpt>
      <trkpt lat="43.35484" lon="-1.78497">
        <ele>3.6</ele>
        <time>2026-08-05T08:18:05Z</time>
      </trkpt>
      <trkpt lat="43.35481" lon="-1.78499">
        <ele>3.6</ele>
        <time>2026-08-05T08:18:06Z</time>
      </trkpt>
      <trkpt lat="43.35477" lon="-1.78501">
        <ele>3.6</ele>
        <time>2026-08-05T08:18:07Z</time>
      </trkpt>
      <trkpt lat="43.35474" lon="-1.78504">
        <ele>3.8</ele>
        <time>2026-08-05T08:18:08Z</time>
      </trkpt>
      <trkpt lat="43.35471" lon="-1.78506">
        <ele>3.8</ele>
        <time>2026-08-05T08:18:09Z</time>
      </trkpt>
      <trkpt lat="43.35467" lon="-1.78508">
        <ele>3.8</ele>
        <time>2026-08-05T08:18:10Z</time>
      </trkpt>
      <trkpt lat="43.35464" lon="-1.7851">
        <ele>3.8</ele>
        <time>2026-08-05T08:18:11Z</time>
      </trkpt>
      <trkpt lat="43.3546" lon="-1.78512">
        <ele>3.8</ele>
        <time>2026-08-05T08:18:12Z</time>
      </trkpt>
      <trkpt lat="43.35457" lon="-1.78515">
        <ele>3.8</ele>
        <time>2026-08-05T08:18:13Z</time>
      </trkpt>
      <trkpt lat="43.35453" lon="-1.78517">
        <ele>3.8</ele>
        <time>2026-08-05T08:18:14Z</time>
      </trkpt>
      <trkpt lat="43.3545" lon="-1.78519">
        <ele>3.8</ele>
        <time>2026-08-05T08:18:15Z</time>
      </trkpt>
      <trkpt lat="43.35446" lon="-1.78521">
        <ele>3.6</ele>
        <time>2026-08-05T08:18:16Z</time>
      </trkpt>
      <trkpt lat="43.35443" lon="-1.78523">
        <ele>3.6</ele>
        <time>2026-08-05T08:18:17Z</time>
      </trkpt>
      <trkpt lat="43.35439" lon="-1.78525">
        <ele>3.6</ele>
        <time>2026-08-05T08:18:18Z</time>
      </trkpt>
      <trkpt lat="43.35435" lon="-1.78527">
        <ele>3.8</ele>
        <time>2026-08-05T08:18:19Z</time>
      </trkpt>
      <trkpt lat="43.35431" lon="-1.78528">
        <ele>4</ele>
        <time>2026-08-05T08:18:20Z</time>
      </trkpt>
      <trkpt lat="43.35427" lon="-1.7853">
        <ele>4</ele>
        <time>2026-08-05T08:18:21Z</time>
      </trkpt>
      <trkpt lat="43.35424" lon="-1.78532">
        <ele>4</ele>
        <time>2026-08-05T08:18:22Z</time>
      </trkpt>
      <trkpt lat="43.3542" lon="-1.78534">
        <ele>4</ele>
        <time>2026-08-05T08:18:23Z</time>
      </trkpt>
      <trkpt lat="43.35416" lon="-1.78536">
        <ele>4</ele>
        <time>2026-08-05T08:18:24Z</time>
      </trkpt>
      <trkpt lat="43.35413" lon="-1.78538">
        <ele>4</ele>
        <time>2026-08-05T08:18:25Z</time>
      </trkpt>
      <trkpt lat="43.35409" lon="-1.78539">
        <ele>3.8</ele>
        <time>2026-08-05T08:18:26Z</time>
      </trkpt>
      <trkpt lat="43.35406" lon="-1.78541">
        <ele>3.8</ele>
        <time>2026-08-05T08:18:27Z</time>
      </trkpt>
      <trkpt lat="43.35402" lon="-1.78542">
        <ele>4.2</ele>
        <time>2026-08-05T08:18:28Z</time>
      </trkpt>
      <trkpt lat="43.35399" lon="-1.78544">
        <ele>4.2</ele>
        <time>2026-08-05T08:18:29Z</time>
      </trkpt>
      <trkpt lat="43.35395" lon="-1.78545">
        <ele>4.2</ele>
        <time>2026-08-05T08:18:30Z</time>
      </trkpt>
      <trkpt lat="43.35391" lon="-1.78546">
        <ele>3.8</ele>
        <time>2026-08-05T08:18:31Z</time>
      </trkpt>
      <trkpt lat="43.35388" lon="-1.78547">
        <ele>3.8</ele>
        <time>2026-08-05T08:18:32Z</time>
      </trkpt>
      <trkpt lat="43.35384" lon="-1.78547">
        <ele>3.8</ele>
        <time>2026-08-05T08:18:33Z</time>
      </trkpt>
      <trkpt lat="43.3538" lon="-1.78549">
        <ele>3.8</ele>
        <time>2026-08-05T08:18:34Z</time>
      </trkpt>
      <trkpt lat="43.35377" lon="-1.7855">
        <ele>4.2</ele>
        <time>2026-08-05T08:18:35Z</time>
      </trkpt>
      <trkpt lat="43.35373" lon="-1.78553">
        <ele>4.2</ele>
        <time>2026-08-05T08:18:36Z</time>
      </trkpt>
      <trkpt lat="43.3537" lon="-1.78555">
        <ele>4.2</ele>
        <time>2026-08-05T08:18:37Z</time>
      </trkpt>
      <trkpt lat="43.35366" lon="-1.78558">
        <ele>4.2</ele>
        <time>2026-08-05T08:18:38Z</time>
      </trkpt>
      <trkpt lat="43.35362" lon="-1.7856">
        <ele>4.2</ele>
        <time>2026-08-05T08:18:39Z</time>
      </trkpt>
      <trkpt lat="43.35358" lon="-1.78561">
        <ele>4</ele>
        <time>2026-08-05T08:18:40Z</time>
      </trkpt>
      <trkpt lat="43.35355" lon="-1.78562">
        <ele>4</ele>
        <time>2026-08-05T08:18:41Z</time>
      </trkpt>
      <trkpt lat="43.35351" lon="-1.78563">
        <ele>4</ele>
        <time>2026-08-05T08:18:42Z</time>
      </trkpt>
      <trkpt lat="43.35347" lon="-1.78564">
        <ele>4</ele>
        <time>2026-08-05T08:18:43Z</time>
      </trkpt>
      <trkpt lat="43.35343" lon="-1.78565">
        <ele>4</ele>
        <time>2026-08-05T08:18:44Z</time>
      </trkpt>
      <trkpt lat="43.35339" lon="-1.78566">
        <ele>4</ele>
        <time>2026-08-05T08:18:45Z</time>
      </trkpt>
      <trkpt lat="43.35335" lon="-1.78567">
        <ele>4</ele>
        <time>2026-08-05T08:18:46Z</time>
      </trkpt>
      <trkpt lat="43.35331" lon="-1.78568">
        <ele>4</ele>
        <time>2026-08-05T08:18:47Z</time>
      </trkpt>
      <trkpt lat="43.35327" lon="-1.78569">
        <ele>3.8</ele>
        <time>2026-08-05T08:18:48Z</time>
      </trkpt>
      <trkpt lat="43.35323" lon="-1.7857">
        <ele>3.8</ele>
        <time>2026-08-05T08:18:49Z</time>
      </trkpt>
      <trkpt lat="43.35319" lon="-1.78571">
        <ele>3.8</ele>
        <time>2026-08-05T08:18:50Z</time>
      </trkpt>
      <trkpt lat="43.35315" lon="-1.78572">
        <ele>3.8</ele>
        <time>2026-08-05T08:18:51Z</time>
      </trkpt>
      <trkpt lat="43.35311" lon="-1.78574">
        <ele>3.8</ele>
        <time>2026-08-05T08:18:52Z</time>
      </trkpt>
      <trkpt lat="43.35307" lon="-1.78575">
        <ele>3.8</ele>
        <time>2026-08-05T08:18:53Z</time>
      </trkpt>
      <trkpt lat="43.35303" lon="-1.78576">
        <ele>4.4</ele>
        <time>2026-08-05T08:18:54Z</time>
      </trkpt>
      <trkpt lat="43.35299" lon="-1.78578">
        <ele>4.4</ele>
        <time>2026-08-05T08:18:55Z</time>
      </trkpt>
      <trkpt lat="43.35295" lon="-1.78579">
        <ele>4.4</ele>
        <time>2026-08-05T08:18:56Z</time>
      </trkpt>
      <trkpt lat="43.35292" lon="-1.7858">
        <ele>4.4</ele>
        <time>2026-08-05T08:18:57Z</time>
      </trkpt>
      <trkpt lat="43.35288" lon="-1.7858">
        <ele>3.6</ele>
        <time>2026-08-05T08:18:58Z</time>
      </trkpt>
      <trkpt lat="43.35284" lon="-1.78581">
        <ele>3.6</ele>
        <time>2026-08-05T08:18:59Z</time>
      </trkpt>
      <trkpt lat="43.3528" lon="-1.78582">
        <ele>4</ele>
        <time>2026-08-05T08:19:00Z</time>
      </trkpt>
      <trkpt lat="43.35277" lon="-1.78583">
        <ele>4</ele>
        <time>2026-08-05T08:19:01Z</time>
      </trkpt>
      <trkpt lat="43.35273" lon="-1.78584">
        <ele>4</ele>
        <time>2026-08-05T08:19:02Z</time>
      </trkpt>
      <trkpt lat="43.35269" lon="-1.78585">
        <ele>4</ele>
        <time>2026-08-05T08:19:03Z</time>
      </trkpt>
      <trkpt lat="43.35266" lon="-1.78586">
        <ele>4</ele>
        <time>2026-08-05T08:19:04Z</time>
      </trkpt>
      <trkpt lat="43.35262" lon="-1.78587">
        <ele>4</ele>
        <time>2026-08-05T08:19:05Z</time>
      </trkpt>
      <trkpt lat="43.35258" lon="-1.78588">
        <ele>4</ele>
        <time>2026-08-05T08:19:06Z</time>
      </trkpt>
      <trkpt lat="43.35255" lon="-1.78589">
        <ele>4</ele>
        <time>2026-08-05T08:19:07Z</time>
      </trkpt>
      <trkpt lat="43.35251" lon="-1.7859">
        <ele>4</ele>
        <time>2026-08-05T08:19:08Z</time>
      </trkpt>
      <trkpt lat="43.35247" lon="-1.78591">
        <ele>4</ele>
        <time>2026-08-05T08:19:09Z</time>
      </trkpt>
      <trkpt lat="43.35243" lon="-1.78591">
        <ele>4</ele>
        <time>2026-08-05T08:19:10Z</time>
      </trkpt>
      <trkpt lat="43.35239" lon="-1.78592">
        <ele>4</ele>
        <time>2026-08-05T08:19:11Z</time>
      </trkpt>
      <trkpt lat="43.35235" lon="-1.78593">
        <ele>4</ele>
        <time>2026-08-05T08:19:12Z</time>
      </trkpt>
      <trkpt lat="43.35232" lon="-1.78595">
        <ele>4</ele>
        <time>2026-08-05T08:19:13Z</time>
      </trkpt>
      <trkpt lat="43.35228" lon="-1.78596">
        <ele>4</ele>
        <time>2026-08-05T08:19:14Z</time>
      </trkpt>
      <trkpt lat="43.35225" lon="-1.78597">
        <ele>4</ele>
        <time>2026-08-05T08:19:15Z</time>
      </trkpt>
      <trkpt lat="43.35221" lon="-1.78597">
        <ele>3.8</ele>
        <time>2026-08-05T08:19:16Z</time>
      </trkpt>
      <trkpt lat="43.35217" lon="-1.78597">
        <ele>3.8</ele>
        <time>2026-08-05T08:19:17Z</time>
      </trkpt>
      <trkpt lat="43.35213" lon="-1.78597">
        <ele>3.8</ele>
        <time>2026-08-05T08:19:18Z</time>
      </trkpt>
      <trkpt lat="43.35209" lon="-1.78597">
        <ele>3.8</ele>
        <time>2026-08-05T08:19:19Z</time>
      </trkpt>
      <trkpt lat="43.35205" lon="-1.78598">
        <ele>3.8</ele>
        <time>2026-08-05T08:19:20Z</time>
      </trkpt>
      <trkpt lat="43.35201" lon="-1.78598">
        <ele>4.2</ele>
        <time>2026-08-05T08:19:21Z</time>
      </trkpt>
      <trkpt lat="43.35197" lon="-1.78598">
        <ele>4.2</ele>
        <time>2026-08-05T08:19:22Z</time>
      </trkpt>
      <trkpt lat="43.35193" lon="-1.78598">
        <ele>4.2</ele>
        <time>2026-08-05T08:19:23Z</time>
      </trkpt>
      <trkpt lat="43.35189" lon="-1.78598">
        <ele>4.2</ele>
        <time>2026-08-05T08:19:24Z</time>
      </trkpt>
      <trkpt lat="43.35185" lon="-1.78598">
        <ele>4.2</ele>
        <time>2026-08-05T08:19:25Z</time>
      </trkpt>
      <trkpt lat="43.35181" lon="-1.78599">
        <ele>4.2</ele>
        <time>2026-08-05T08:19:26Z</time>
      </trkpt>
      <trkpt lat="43.35178" lon="-1.786">
        <ele>4.4</ele>
        <time>2026-08-05T08:19:27Z</time>
      </trkpt>
      <trkpt lat="43.35174" lon="-1.78602">
        <ele>4.4</ele>
        <time>2026-08-05T08:19:28Z</time>
      </trkpt>
      <trkpt lat="43.35171" lon="-1.78605">
        <ele>4.4</ele>
        <time>2026-08-05T08:19:29Z</time>
      </trkpt>
      <trkpt lat="43.35167" lon="-1.78607">
        <ele>4.4</ele>
        <time>2026-08-05T08:19:30Z</time>
      </trkpt>
      <trkpt lat="43.35164" lon="-1.78609">
        <ele>4.4</ele>
        <time>2026-08-05T08:19:31Z</time>
      </trkpt>
      <trkpt lat="43.3516" lon="-1.7861">
        <ele>4.4</ele>
        <time>2026-08-05T08:19:32Z</time>
      </trkpt>
      <trkpt lat="43.35157" lon="-1.78613">
        <ele>4.4</ele>
        <time>2026-08-05T08:19:33Z</time>
      </trkpt>
      <trkpt lat="43.35153" lon="-1.78614">
        <ele>3.8</ele>
        <time>2026-08-05T08:19:34Z</time>
      </trkpt>
      <trkpt lat="43.35149" lon="-1.78615">
        <ele>3.8</ele>
        <time>2026-08-05T08:19:35Z</time>
      </trkpt>
      <trkpt lat="43.35145" lon="-1.78616">
        <ele>3.8</ele>
        <time>2026-08-05T08:19:36Z</time>
      </trkpt>
      <trkpt lat="43.35141" lon="-1.78616">
        <ele>3.8</ele>
        <time>2026-08-05T08:19:37Z</time>
      </trkpt>
      <trkpt lat="43.35137" lon="-1.78616">
        <ele>4.2</ele>
        <time>2026-08-05T08:19:38Z</time>
      </trkpt>
      <trkpt lat="43.35134" lon="-1.78615">
        <ele>4.8</ele>
        <time>2026-08-05T08:19:39Z</time>
      </trkpt>
      <trkpt lat="43.35129" lon="-1.78614">
        <ele>4.8</ele>
        <time>2026-08-05T08:19:40Z</time>
      </trkpt>
      <trkpt lat="43.35125" lon="-1.78613">
        <ele>4.8</ele>
        <time>2026-08-05T08:19:41Z</time>
      </trkpt>
      <trkpt lat="43.35121" lon="-1.78612">
        <ele>4.8</ele>
        <time>2026-08-05T08:19:42Z</time>
      </trkpt>
      <trkpt lat="43.35117" lon="-1.78611">
        <ele>4.2</ele>
        <time>2026-08-05T08:19:43Z</time>
      </trkpt>
      <trkpt lat="43.35114" lon="-1.78609">
        <ele>4.2</ele>
        <time>2026-08-05T08:19:44Z</time>
      </trkpt>
      <trkpt lat="43.3511" lon="-1.78606">
        <ele>4.2</ele>
        <time>2026-08-05T08:19:45Z</time>
      </trkpt>
      <trkpt lat="43.35107" lon="-1.78603">
        <ele>4.4</ele>
        <time>2026-08-05T08:19:46Z</time>
      </trkpt>
      <trkpt lat="43.35104" lon="-1.786">
        <ele>4.4</ele>
        <time>2026-08-05T08:19:47Z</time>
      </trkpt>
      <trkpt lat="43.351" lon="-1.78597">
        <ele>4.4</ele>
        <time>2026-08-05T08:19:48Z</time>
      </trkpt>
      <trkpt lat="43.35097" lon="-1.78594">
        <ele>4.4</ele>
        <time>2026-08-05T08:19:49Z</time>
      </trkpt>
      <trkpt lat="43.35094" lon="-1.7859">
        <ele>4.4</ele>
        <time>2026-08-05T08:19:50Z</time>
      </trkpt>
      <trkpt lat="43.3509" lon="-1.78587">
        <ele>4.4</ele>
        <time>2026-08-05T08:19:51Z</time>
      </trkpt>
      <trkpt lat="43.35087" lon="-1.78583">
        <ele>4.4</ele>
        <time>2026-08-05T08:19:52Z</time>
      </trkpt>
      <trkpt lat="43.35084" lon="-1.7858">
        <ele>4.4</ele>
        <time>2026-08-05T08:19:53Z</time>
      </trkpt>
      <trkpt lat="43.3508" lon="-1.78577">
        <ele>4.4</ele>
        <time>2026-08-05T08:19:54Z</time>
      </trkpt>
      <trkpt lat="43.35077" lon="-1.78573">
        <ele>4.4</ele>
        <time>2026-08-05T08:19:55Z</time>
      </trkpt>
      <trkpt lat="43.35074" lon="-1.78569">
        <ele>4.4</ele>
        <time>2026-08-05T08:19:56Z</time>
      </trkpt>
      <trkpt lat="43.35071" lon="-1.78565">
        <ele>4.4</ele>
        <time>2026-08-05T08:19:57Z</time>
      </trkpt>
      <trkpt lat="43.35068" lon="-1.78561">
        <ele>4.2</ele>
        <time>2026-08-05T08:19:58Z</time>
      </trkpt>
      <trkpt lat="43.35065" lon="-1.78557">
        <ele>4.2</ele>
        <time>2026-08-05T08:19:59Z</time>
      </trkpt>
      <trkpt lat="43.35062" lon="-1.78554">
        <ele>4.2</ele>
        <time>2026-08-05T08:20:00Z</time>
      </trkpt>
      <trkpt lat="43.35059" lon="-1.7855">
        <ele>4.2</ele>
        <time>2026-08-05T08:20:01Z</time>
      </trkpt>
      <trkpt lat="43.35056" lon="-1.78547">
        <ele>4.2</ele>
        <time>2026-08-05T08:20:02Z</time>
      </trkpt>
      <trkpt lat="43.35053" lon="-1.78543">
        <ele>4.2</ele>
        <time>2026-08-05T08:20:03Z</time>
      </trkpt>
      <trkpt lat="43.35051" lon="-1.7854">
        <ele>4.2</ele>
        <time>2026-08-05T08:20:04Z</time>
      </trkpt>
      <trkpt lat="43.35048" lon="-1.78536">
        <ele>4.2</ele>
        <time>2026-08-05T08:20:05Z</time>
      </trkpt>
      <trkpt lat="43.35045" lon="-1.78533">
        <ele>4.2</ele>
        <time>2026-08-05T08:20:06Z</time>
      </trkpt>
      <trkpt lat="43.35042" lon="-1.78529">
        <ele>4.2</ele>
        <time>2026-08-05T08:20:07Z</time>
      </trkpt>
      <trkpt lat="43.3504" lon="-1.78526">
        <ele>4.2</ele>
        <time>2026-08-05T08:20:08Z</time>
      </trkpt>
      <trkpt lat="43.35038" lon="-1.78523">
        <ele>4.2</ele>
        <time>2026-08-05T08:20:09Z</time>
      </trkpt>
      <trkpt lat="43.35036" lon="-1.78521">
        <ele>4.2</ele>
        <time>2026-08-05T08:20:10Z</time>
      </trkpt>
      <trkpt lat="43.35034" lon="-1.78518">
        <ele>4.2</ele>
        <time>2026-08-05T08:20:11Z</time>
      </trkpt>
      <trkpt lat="43.35033" lon="-1.78515">
        <ele>4.2</ele>
        <time>2026-08-05T08:20:12Z</time>
      </trkpt>
      <trkpt lat="43.35031" lon="-1.78513">
        <ele>4.2</ele>
        <time>2026-08-05T08:20:13Z</time>
      </trkpt>
      <trkpt lat="43.35031" lon="-1.7851">
        <ele>4</ele>
        <time>2026-08-05T08:20:14Z</time>
      </trkpt>
      <trkpt lat="43.35032" lon="-1.78508">
        <ele>4</ele>
        <time>2026-08-05T08:20:15Z</time>
      </trkpt>
      <trkpt lat="43.35032" lon="-1.78507">
        <ele>4</ele>
        <time>2026-08-05T08:20:16Z</time>
      </trkpt>
      <trkpt lat="43.35033" lon="-1.78506">
        <ele>4.2</ele>
        <time>2026-08-05T08:20:17Z</time>
      </trkpt>
      <trkpt lat="43.35033" lon="-1.78506">
        <ele>4.2</ele>
        <time>2026-08-05T08:20:18Z</time>
      </trkpt>
      <trkpt lat="43.35031" lon="-1.78501">
        <ele>9.6</ele>
        <time>2026-08-05T08:24:33Z</time>
      </trkpt>
      <trkpt lat="43.35029" lon="-1.78503">
        <ele>9.6</ele>
        <time>2026-08-05T08:24:34Z</time>
      </trkpt>
      <trkpt lat="43.35027" lon="-1.78505">
        <ele>9.8</ele>
        <time>2026-08-05T08:24:35Z</time>
      </trkpt>
      <trkpt lat="43.35025" lon="-1.78507">
        <ele>9.8</ele>
        <time>2026-08-05T08:24:36Z</time>
      </trkpt>
      <trkpt lat="43.35024" lon="-1.78509">
        <ele>9.8</ele>
        <time>2026-08-05T08:24:37Z</time>
      </trkpt>
      <trkpt lat="43.35022" lon="-1.78511">
        <ele>9.8</ele>
        <time>2026-08-05T08:24:38Z</time>
      </trkpt>
      <trkpt lat="43.3502" lon="-1.78514">
        <ele>9.8</ele>
        <time>2026-08-05T08:24:39Z</time>
      </trkpt>
      <trkpt lat="43.35018" lon="-1.78516">
        <ele>9.8</ele>
        <time>2026-08-05T08:24:40Z</time>
      </trkpt>
      <trkpt lat="43.35016" lon="-1.78519">
        <ele>9.8</ele>
        <time>2026-08-05T08:24:41Z</time>
      </trkpt>
      <trkpt lat="43.35014" lon="-1.78521">
        <ele>9.8</ele>
        <time>2026-08-05T08:24:42Z</time>
      </trkpt>
      <trkpt lat="43.35012" lon="-1.78524">
        <ele>9.8</ele>
        <time>2026-08-05T08:24:43Z</time>
      </trkpt>
      <trkpt lat="43.3501" lon="-1.78526">
        <ele>9.8</ele>
        <time>2026-08-05T08:24:44Z</time>
      </trkpt>
      <trkpt lat="43.35007" lon="-1.78529">
        <ele>9.6</ele>
        <time>2026-08-05T08:24:45Z</time>
      </trkpt>
      <trkpt lat="43.35005" lon="-1.78532">
        <ele>9.6</ele>
        <time>2026-08-05T08:24:46Z</time>
      </trkpt>
      <trkpt lat="43.35003" lon="-1.78535">
        <ele>9.6</ele>
        <time>2026-08-05T08:24:47Z</time>
      </trkpt>
      <trkpt lat="43.35001" lon="-1.78538">
        <ele>9.6</ele>
        <time>2026-08-05T08:24:48Z</time>
      </trkpt>
      <trkpt lat="43.34998" lon="-1.78541">
        <ele>9.6</ele>
        <time>2026-08-05T08:24:49Z</time>
      </trkpt>
      <trkpt lat="43.34996" lon="-1.78543">
        <ele>9.6</ele>
        <time>2026-08-05T08:24:50Z</time>
      </trkpt>
      <trkpt lat="43.34994" lon="-1.78546">
        <ele>9.8</ele>
        <time>2026-08-05T08:24:51Z</time>
      </trkpt>
      <trkpt lat="43.34992" lon="-1.78549">
        <ele>9.8</ele>
        <time>2026-08-05T08:24:52Z</time>
      </trkpt>
      <trkpt lat="43.3499" lon="-1.78552">
        <ele>9.8</ele>
        <time>2026-08-05T08:24:53Z</time>
      </trkpt>
      <trkpt lat="43.34988" lon="-1.78554">
        <ele>9.8</ele>
        <time>2026-08-05T08:24:54Z</time>
      </trkpt>
      <trkpt lat="43.34986" lon="-1.78556">
        <ele>9.8</ele>
        <time>2026-08-05T08:24:55Z</time>
      </trkpt>
      <trkpt lat="43.34984" lon="-1.78558">
        <ele>9.8</ele>
        <time>2026-08-05T08:24:56Z</time>
      </trkpt>
      <trkpt lat="43.34982" lon="-1.7856">
        <ele>9.8</ele>
        <time>2026-08-05T08:24:57Z</time>
      </trkpt>
      <trkpt lat="43.3498" lon="-1.78562">
        <ele>10</ele>
        <time>2026-08-05T08:24:58Z</time>
      </trkpt>
      <trkpt lat="43.34978" lon="-1.78564">
        <ele>10</ele>
        <time>2026-08-05T08:24:59Z</time>
      </trkpt>
      <trkpt lat="43.34975" lon="-1.78566">
        <ele>10</ele>
        <time>2026-08-05T08:25:00Z</time>
      </trkpt>
      <trkpt lat="43.34973" lon="-1.78569">
        <ele>10</ele>
        <time>2026-08-05T08:25:01Z</time>
      </trkpt>
      <trkpt lat="43.34971" lon="-1.78572">
        <ele>10</ele>
        <time>2026-08-05T08:25:02Z</time>
      </trkpt>
      <trkpt lat="43.34968" lon="-1.78574">
        <ele>10</ele>
        <time>2026-08-05T08:25:03Z</time>
      </trkpt>
      <trkpt lat="43.34965" lon="-1.78576">
        <ele>9.8</ele>
        <time>2026-08-05T08:25:04Z</time>
      </trkpt>
      <trkpt lat="43.34963" lon="-1.78579">
        <ele>9.8</ele>
        <time>2026-08-05T08:25:05Z</time>
      </trkpt>
      <trkpt lat="43.3496" lon="-1.78582">
        <ele>9.8</ele>
        <time>2026-08-05T08:25:06Z</time>
      </trkpt>
      <trkpt lat="43.34958" lon="-1.78585">
        <ele>9.8</ele>
        <time>2026-08-05T08:25:07Z</time>
      </trkpt>
      <trkpt lat="43.34956" lon="-1.78588">
        <ele>9.8</ele>
        <time>2026-08-05T08:25:08Z</time>
      </trkpt>
      <trkpt lat="43.34954" lon="-1.78591">
        <ele>9.8</ele>
        <time>2026-08-05T08:25:09Z</time>
      </trkpt>
      <trkpt lat="43.34951" lon="-1.78593">
        <ele>9.4</ele>
        <time>2026-08-05T08:25:10Z</time>
      </trkpt>
      <trkpt lat="43.34948" lon="-1.78596">
        <ele>9.4</ele>
        <time>2026-08-05T08:25:11Z</time>
      </trkpt>
      <trkpt lat="43.34945" lon="-1.78598">
        <ele>9.4</ele>
        <time>2026-08-05T08:25:12Z</time>
      </trkpt>
      <trkpt lat="43.34942" lon="-1.786">
        <ele>9.4</ele>
        <time>2026-08-05T08:25:13Z</time>
      </trkpt>
      <trkpt lat="43.34938" lon="-1.78602">
        <ele>8.4</ele>
        <time>2026-08-05T08:25:14Z</time>
      </trkpt>
      <trkpt lat="43.34935" lon="-1.78603">
        <ele>8.4</ele>
        <time>2026-08-05T08:25:15Z</time>
      </trkpt>
      <trkpt lat="43.34932" lon="-1.78605">
        <ele>8.4</ele>
        <time>2026-08-05T08:25:16Z</time>
      </trkpt>
      <trkpt lat="43.34929" lon="-1.78605">
        <ele>8.8</ele>
        <time>2026-08-05T08:25:17Z</time>
      </trkpt>
      <trkpt lat="43.34926" lon="-1.78606">
        <ele>8.8</ele>
        <time>2026-08-05T08:25:18Z</time>
      </trkpt>
      <trkpt lat="43.34923" lon="-1.78608">
        <ele>8.8</ele>
        <time>2026-08-05T08:25:19Z</time>
      </trkpt>
      <trkpt lat="43.34919" lon="-1.78609">
        <ele>8.8</ele>
        <time>2026-08-05T08:25:20Z</time>
      </trkpt>
      <trkpt lat="43.34915" lon="-1.78611">
        <ele>8.8</ele>
        <time>2026-08-05T08:25:21Z</time>
      </trkpt>
      <trkpt lat="43.34911" lon="-1.78613">
        <ele>8</ele>
        <time>2026-08-05T08:25:22Z</time>
      </trkpt>
      <trkpt lat="43.34907" lon="-1.78615">
        <ele>7.8</ele>
        <time>2026-08-05T08:25:23Z</time>
      </trkpt>
      <trkpt lat="43.34903" lon="-1.78617">
        <ele>7.6</ele>
        <time>2026-08-05T08:25:24Z</time>
      </trkpt>
      <trkpt lat="43.34898" lon="-1.78619">
        <ele>7.6</ele>
        <time>2026-08-05T08:25:25Z</time>
      </trkpt>
      <trkpt lat="43.34894" lon="-1.78621">
        <ele>7.6</ele>
        <time>2026-08-05T08:25:26Z</time>
      </trkpt>
      <trkpt lat="43.3489" lon="-1.78623">
        <ele>7.6</ele>
        <time>2026-08-05T08:25:27Z</time>
      </trkpt>
      <trkpt lat="43.34886" lon="-1.78625">
        <ele>7.4</ele>
        <time>2026-08-05T08:25:28Z</time>
      </trkpt>
      <trkpt lat="43.34882" lon="-1.78627">
        <ele>7</ele>
        <time>2026-08-05T08:25:29Z</time>
      </trkpt>
      <trkpt lat="43.34878" lon="-1.78629">
        <ele>7</ele>
        <time>2026-08-05T08:25:30Z</time>
      </trkpt>
      <trkpt lat="43.34873" lon="-1.78631">
        <ele>6.6</ele>
        <time>2026-08-05T08:25:31Z</time>
      </trkpt>
      <trkpt lat="43.34869" lon="-1.78633">
        <ele>6.4</ele>
        <time>2026-08-05T08:25:32Z</time>
      </trkpt>
      <trkpt lat="43.34864" lon="-1.78636">
        <ele>6.4</ele>
        <time>2026-08-05T08:25:33Z</time>
      </trkpt>
      <trkpt lat="43.34859" lon="-1.78638">
        <ele>6.4</ele>
        <time>2026-08-05T08:25:34Z</time>
      </trkpt>
      <trkpt lat="43.34854" lon="-1.7864">
        <ele>6.4</ele>
        <time>2026-08-05T08:25:35Z</time>
      </trkpt>
      <trkpt lat="43.3485" lon="-1.78642">
        <ele>6.4</ele>
        <time>2026-08-05T08:25:36Z</time>
      </trkpt>
      <trkpt lat="43.34846" lon="-1.78644">
        <ele>6.4</ele>
        <time>2026-08-05T08:25:37Z</time>
      </trkpt>
      <trkpt lat="43.34843" lon="-1.78645">
        <ele>6.4</ele>
        <time>2026-08-05T08:25:38Z</time>
      </trkpt>
      <trkpt lat="43.34841" lon="-1.78647">
        <ele>6.4</ele>
        <time>2026-08-05T08:25:39Z</time>
      </trkpt>
      <trkpt lat="43.34839" lon="-1.78648">
        <ele>6.4</ele>
        <time>2026-08-05T08:25:40Z</time>
      </trkpt>
      <trkpt lat="43.34838" lon="-1.78649">
        <ele>6.4</ele>
        <time>2026-08-05T08:25:41Z</time>
      </trkpt>
      <trkpt lat="43.34837" lon="-1.78651">
        <ele>6.4</ele>
        <time>2026-08-05T08:25:42Z</time>
      </trkpt>
      <trkpt lat="43.34835" lon="-1.78652">
        <ele>6.4</ele>
        <time>2026-08-05T08:25:43Z</time>
      </trkpt>
      <trkpt lat="43.34834" lon="-1.78653">
        <ele>6.2</ele>
        <time>2026-08-05T08:25:44Z</time>
      </trkpt>
      <trkpt lat="43.34832" lon="-1.78654">
        <ele>6.2</ele>
        <time>2026-08-05T08:25:45Z</time>
      </trkpt>
      <trkpt lat="43.3483" lon="-1.78653">
        <ele>6.2</ele>
        <time>2026-08-05T08:25:46Z</time>
      </trkpt>
      <trkpt lat="43.34828" lon="-1.78652">
        <ele>6.2</ele>
        <time>2026-08-05T08:25:47Z</time>
      </trkpt>
      <trkpt lat="43.34827" lon="-1.7865">
        <ele>7.2</ele>
        <time>2026-08-05T08:25:48Z</time>
      </trkpt>
      <trkpt lat="43.34826" lon="-1.78648">
        <ele>7.2</ele>
        <time>2026-08-05T08:25:49Z</time>
      </trkpt>
      <trkpt lat="43.34824" lon="-1.78646">
        <ele>7.2</ele>
        <time>2026-08-05T08:25:50Z</time>
      </trkpt>
      <trkpt lat="43.34823" lon="-1.78644">
        <ele>6.8</ele>
        <time>2026-08-05T08:25:51Z</time>
      </trkpt>
      <trkpt lat="43.34822" lon="-1.78642">
        <ele>6.8</ele>
        <time>2026-08-05T08:25:52Z</time>
      </trkpt>
      <trkpt lat="43.3482" lon="-1.78639">
        <ele>6.8</ele>
        <time>2026-08-05T08:25:53Z</time>
      </trkpt>
      <trkpt lat="43.34818" lon="-1.78637">
        <ele>6.8</ele>
        <time>2026-08-05T08:25:54Z</time>
      </trkpt>
      <trkpt lat="43.34816" lon="-1.78634">
        <ele>6.8</ele>
        <time>2026-08-05T08:25:55Z</time>
      </trkpt>
      <trkpt lat="43.34815" lon="-1.78631">
        <ele>6.8</ele>
        <time>2026-08-05T08:25:56Z</time>
      </trkpt>
      <trkpt lat="43.34813" lon="-1.78628">
        <ele>6.8</ele>
        <time>2026-08-05T08:25:57Z</time>
      </trkpt>
      <trkpt lat="43.34811" lon="-1.78625">
        <ele>6.2</ele>
        <time>2026-08-05T08:25:58Z</time>
      </trkpt>
      <trkpt lat="43.34809" lon="-1.78623">
        <ele>6.2</ele>
        <time>2026-08-05T08:25:59Z</time>
      </trkpt>
      <trkpt lat="43.34808" lon="-1.78621">
        <ele>6.2</ele>
        <time>2026-08-05T08:26:00Z</time>
      </trkpt>
      <trkpt lat="43.34806" lon="-1.78619">
        <ele>7.4</ele>
        <time>2026-08-05T08:26:01Z</time>
      </trkpt>
      <trkpt lat="43.34805" lon="-1.78619">
        <ele>7.4</ele>
        <time>2026-08-05T08:26:02Z</time>
      </trkpt>
      <trkpt lat="43.34803" lon="-1.7862">
        <ele>7.4</ele>
        <time>2026-08-05T08:26:03Z</time>
      </trkpt>
      <trkpt lat="43.34801" lon="-1.78622">
        <ele>7</ele>
        <time>2026-08-05T08:26:04Z</time>
      </trkpt>
      <trkpt lat="43.34799" lon="-1.78624">
        <ele>6.8</ele>
        <time>2026-08-05T08:26:05Z</time>
      </trkpt>
      <trkpt lat="43.34797" lon="-1.78625">
        <ele>6.8</ele>
        <time>2026-08-05T08:26:06Z</time>
      </trkpt>
      <trkpt lat="43.34795" lon="-1.78627">
        <ele>6.8</ele>
        <time>2026-08-05T08:26:07Z</time>
      </trkpt>
      <trkpt lat="43.34792" lon="-1.7863">
        <ele>6.8</ele>
        <time>2026-08-05T08:26:08Z</time>
      </trkpt>
      <trkpt lat="43.34789" lon="-1.78631">
        <ele>6.8</ele>
        <time>2026-08-05T08:26:09Z</time>
      </trkpt>
      <trkpt lat="43.34786" lon="-1.78633">
        <ele>6.8</ele>
        <time>2026-08-05T08:26:10Z</time>
      </trkpt>
      <trkpt lat="43.34782" lon="-1.78635">
        <ele>6.8</ele>
        <time>2026-08-05T08:26:11Z</time>
      </trkpt>
      <trkpt lat="43.34779" lon="-1.78635">
        <ele>6.8</ele>
        <time>2026-08-05T08:26:12Z</time>
      </trkpt>
      <trkpt lat="43.34775" lon="-1.78635">
        <ele>6.8</ele>
        <time>2026-08-05T08:26:13Z</time>
      </trkpt>
      <trkpt lat="43.34771" lon="-1.78636">
        <ele>6.8</ele>
        <time>2026-08-05T08:26:14Z</time>
      </trkpt>
      <trkpt lat="43.34768" lon="-1.78637">
        <ele>6.8</ele>
        <time>2026-08-05T08:26:15Z</time>
      </trkpt>
      <trkpt lat="43.34765" lon="-1.78639">
        <ele>6.8</ele>
        <time>2026-08-05T08:26:16Z</time>
      </trkpt>
      <trkpt lat="43.34761" lon="-1.7864">
        <ele>6.4</ele>
        <time>2026-08-05T08:26:17Z</time>
      </trkpt>
      <trkpt lat="43.34758" lon="-1.78643">
        <ele>6.4</ele>
        <time>2026-08-05T08:26:18Z</time>
      </trkpt>
      <trkpt lat="43.34755" lon="-1.78647">
        <ele>6.4</ele>
        <time>2026-08-05T08:26:19Z</time>
      </trkpt>
      <trkpt lat="43.34752" lon="-1.78651">
        <ele>6.4</ele>
        <time>2026-08-05T08:26:20Z</time>
      </trkpt>
      <trkpt lat="43.3475" lon="-1.78655">
        <ele>6.4</ele>
        <time>2026-08-05T08:26:21Z</time>
      </trkpt>
      <trkpt lat="43.34748" lon="-1.7866">
        <ele>6.4</ele>
        <time>2026-08-05T08:26:22Z</time>
      </trkpt>
      <trkpt lat="43.34747" lon="-1.78665">
        <ele>6.4</ele>
        <time>2026-08-05T08:26:23Z</time>
      </trkpt>
      <trkpt lat="43.34746" lon="-1.78671">
        <ele>6.4</ele>
        <time>2026-08-05T08:26:24Z</time>
      </trkpt>
      <trkpt lat="43.34746" lon="-1.78675">
        <ele>6.2</ele>
        <time>2026-08-05T08:26:25Z</time>
      </trkpt>
      <trkpt lat="43.34745" lon="-1.7868">
        <ele>6</ele>
        <time>2026-08-05T08:26:26Z</time>
      </trkpt>
      <trkpt lat="43.34743" lon="-1.78683">
        <ele>5.8</ele>
        <time>2026-08-05T08:26:27Z</time>
      </trkpt>
      <trkpt lat="43.34741" lon="-1.78686">
        <ele>4.8</ele>
        <time>2026-08-05T08:26:28Z</time>
      </trkpt>
      <trkpt lat="43.34739" lon="-1.78686">
        <ele>4.8</ele>
        <time>2026-08-05T08:26:29Z</time>
      </trkpt>
      <trkpt lat="43.34737" lon="-1.78684">
        <ele>4.8</ele>
        <time>2026-08-05T08:26:30Z</time>
      </trkpt>
      <trkpt lat="43.34735" lon="-1.78681">
        <ele>5.4</ele>
        <time>2026-08-05T08:26:31Z</time>
      </trkpt>
      <trkpt lat="43.34734" lon="-1.78677">
        <ele>5.4</ele>
        <time>2026-08-05T08:26:32Z</time>
      </trkpt>
      <trkpt lat="43.34733" lon="-1.78672">
        <ele>5.4</ele>
        <time>2026-08-05T08:26:33Z</time>
      </trkpt>
      <trkpt lat="43.34732" lon="-1.78668">
        <ele>5.4</ele>
        <time>2026-08-05T08:26:34Z</time>
      </trkpt>
      <trkpt lat="43.34731" lon="-1.78662">
        <ele>4.6</ele>
        <time>2026-08-05T08:26:35Z</time>
      </trkpt>
      <trkpt lat="43.3473" lon="-1.78657">
        <ele>3.4</ele>
        <time>2026-08-05T08:26:36Z</time>
      </trkpt>
      <trkpt lat="43.34729" lon="-1.78651">
        <ele>3.4</ele>
        <time>2026-08-05T08:26:37Z</time>
      </trkpt>
      <trkpt lat="43.34729" lon="-1.78644">
        <ele>3.4</ele>
        <time>2026-08-05T08:26:38Z</time>
      </trkpt>
      <trkpt lat="43.34731" lon="-1.78637">
        <ele>3.4</ele>
        <time>2026-08-05T08:26:39Z</time>
      </trkpt>
      <trkpt lat="43.34732" lon="-1.78631">
        <ele>4</ele>
        <time>2026-08-05T08:26:40Z</time>
      </trkpt>
      <trkpt lat="43.34734" lon="-1.78624">
        <ele>4.2</ele>
        <time>2026-08-05T08:26:41Z</time>
      </trkpt>
      <trkpt lat="43.34737" lon="-1.78618">
        <ele>4.4</ele>
        <time>2026-08-05T08:26:42Z</time>
      </trkpt>
      <trkpt lat="43.34739" lon="-1.78612">
        <ele>4.4</ele>
        <time>2026-08-05T08:26:43Z</time>
      </trkpt>
      <trkpt lat="43.34741" lon="-1.78606">
        <ele>4.4</ele>
        <time>2026-08-05T08:26:44Z</time>
      </trkpt>
      <trkpt lat="43.34743" lon="-1.786">
        <ele>3.8</ele>
        <time>2026-08-05T08:26:45Z</time>
      </trkpt>
      <trkpt lat="43.34745" lon="-1.78594">
        <ele>3.8</ele>
        <time>2026-08-05T08:26:46Z</time>
      </trkpt>
      <trkpt lat="43.34747" lon="-1.78588">
        <ele>3.8</ele>
        <time>2026-08-05T08:26:47Z</time>
      </trkpt>
      <trkpt lat="43.34747" lon="-1.78583">
        <ele>4</ele>
        <time>2026-08-05T08:26:48Z</time>
      </trkpt>
      <trkpt lat="43.34747" lon="-1.78578">
        <ele>4</ele>
        <time>2026-08-05T08:26:49Z</time>
      </trkpt>
      <trkpt lat="43.34746" lon="-1.78575">
        <ele>4</ele>
        <time>2026-08-05T08:26:50Z</time>
      </trkpt>
      <trkpt lat="43.34745" lon="-1.78571">
        <ele>4</ele>
        <time>2026-08-05T08:26:51Z</time>
      </trkpt>
      <trkpt lat="43.34743" lon="-1.78569">
        <ele>4</ele>
        <time>2026-08-05T08:26:52Z</time>
      </trkpt>
      <trkpt lat="43.34741" lon="-1.78567">
        <ele>4</ele>
        <time>2026-08-05T08:26:53Z</time>
      </trkpt>
      <trkpt lat="43.34739" lon="-1.78567">
        <ele>4</ele>
        <time>2026-08-05T08:26:54Z</time>
      </trkpt>
      <trkpt lat="43.34737" lon="-1.78566">
        <ele>4</ele>
        <time>2026-08-05T08:26:55Z</time>
      </trkpt>
      <trkpt lat="43.34735" lon="-1.78565">
        <ele>3.8</ele>
        <time>2026-08-05T08:26:56Z</time>
      </trkpt>
      <trkpt lat="43.34732" lon="-1.78565">
        <ele>3.6</ele>
        <time>2026-08-05T08:26:57Z</time>
      </trkpt>
      <trkpt lat="43.34728" lon="-1.78564">
        <ele>3.6</ele>
        <time>2026-08-05T08:26:58Z</time>
      </trkpt>
      <trkpt lat="43.34725" lon="-1.78563">
        <ele>3.6</ele>
        <time>2026-08-05T08:26:59Z</time>
      </trkpt>
      <trkpt lat="43.34722" lon="-1.78563">
        <ele>3.6</ele>
        <time>2026-08-05T08:27:00Z</time>
      </trkpt>
      <trkpt lat="43.34718" lon="-1.78562">
        <ele>4.2</ele>
        <time>2026-08-05T08:27:01Z</time>
      </trkpt>
      <trkpt lat="43.34715" lon="-1.78562">
        <ele>4.4</ele>
        <time>2026-08-05T08:27:02Z</time>
      </trkpt>
      <trkpt lat="43.34712" lon="-1.78561">
        <ele>4.4</ele>
        <time>2026-08-05T08:27:03Z</time>
      </trkpt>
      <trkpt lat="43.34708" lon="-1.7856">
        <ele>4.4</ele>
        <time>2026-08-05T08:27:04Z</time>
      </trkpt>
      <trkpt lat="43.34705" lon="-1.78559">
        <ele>4.4</ele>
        <time>2026-08-05T08:27:05Z</time>
      </trkpt>
      <trkpt lat="43.34701" lon="-1.78558">
        <ele>4.4</ele>
        <time>2026-08-05T08:27:06Z</time>
      </trkpt>
      <trkpt lat="43.34697" lon="-1.78557">
        <ele>4.4</ele>
        <time>2026-08-05T08:27:07Z</time>
      </trkpt>
      <trkpt lat="43.34693" lon="-1.78556">
        <ele>4.4</ele>
        <time>2026-08-05T08:27:08Z</time>
      </trkpt>
      <trkpt lat="43.3469" lon="-1.78555">
        <ele>4.4</ele>
        <time>2026-08-05T08:27:09Z</time>
      </trkpt>
      <trkpt lat="43.34686" lon="-1.78554">
        <ele>4.4</ele>
        <time>2026-08-05T08:27:10Z</time>
      </trkpt>
      <trkpt lat="43.34682" lon="-1.78553">
        <ele>4.4</ele>
        <time>2026-08-05T08:27:11Z</time>
      </trkpt>
      <trkpt lat="43.34678" lon="-1.78552">
        <ele>4.4</ele>
        <time>2026-08-05T08:27:12Z</time>
      </trkpt>
      <trkpt lat="43.34675" lon="-1.78551">
        <ele>4.4</ele>
        <time>2026-08-05T08:27:13Z</time>
      </trkpt>
      <trkpt lat="43.34671" lon="-1.78551">
        <ele>4.4</ele>
        <time>2026-08-05T08:27:14Z</time>
      </trkpt>
      <trkpt lat="43.34667" lon="-1.7855">
        <ele>4.4</ele>
        <time>2026-08-05T08:27:15Z</time>
      </trkpt>
      <trkpt lat="43.34663" lon="-1.78549">
        <ele>4.6</ele>
        <time>2026-08-05T08:27:16Z</time>
      </trkpt>
      <trkpt lat="43.34659" lon="-1.78548">
        <ele>4.6</ele>
        <time>2026-08-05T08:27:17Z</time>
      </trkpt>
      <trkpt lat="43.34655" lon="-1.78547">
        <ele>4.2</ele>
        <time>2026-08-05T08:27:18Z</time>
      </trkpt>
      <trkpt lat="43.34651" lon="-1.78546">
        <ele>4.2</ele>
        <time>2026-08-05T08:27:19Z</time>
      </trkpt>
      <trkpt lat="43.34647" lon="-1.78545">
        <ele>4.2</ele>
        <time>2026-08-05T08:27:20Z</time>
      </trkpt>
      <trkpt lat="43.34643" lon="-1.78545">
        <ele>4.2</ele>
        <time>2026-08-05T08:27:21Z</time>
      </trkpt>
      <trkpt lat="43.3464" lon="-1.78544">
        <ele>4.2</ele>
        <time>2026-08-05T08:27:22Z</time>
      </trkpt>
      <trkpt lat="43.34636" lon="-1.78543">
        <ele>4.8</ele>
        <time>2026-08-05T08:27:23Z</time>
      </trkpt>
      <trkpt lat="43.34632" lon="-1.78542">
        <ele>4.8</ele>
        <time>2026-08-05T08:27:24Z</time>
      </trkpt>
      <trkpt lat="43.34627" lon="-1.78541">
        <ele>4.8</ele>
        <time>2026-08-05T08:27:25Z</time>
      </trkpt>
      <trkpt lat="43.34623" lon="-1.7854">
        <ele>4.4</ele>
        <time>2026-08-05T08:27:26Z</time>
      </trkpt>
      <trkpt lat="43.34619" lon="-1.78538">
        <ele>4</ele>
        <time>2026-08-05T08:27:27Z</time>
      </trkpt>
      <trkpt lat="43.34615" lon="-1.78537">
        <ele>4</ele>
        <time>2026-08-05T08:27:28Z</time>
      </trkpt>
      <trkpt lat="43.34611" lon="-1.78535">
        <ele>4</ele>
        <time>2026-08-05T08:27:29Z</time>
      </trkpt>
      <trkpt lat="43.34606" lon="-1.78534">
        <ele>4.2</ele>
        <time>2026-08-05T08:27:30Z</time>
      </trkpt>
      <trkpt lat="43.34602" lon="-1.78532">
        <ele>4.2</ele>
        <time>2026-08-05T08:27:31Z</time>
      </trkpt>
      <trkpt lat="43.34598" lon="-1.78531">
        <ele>4.2</ele>
        <time>2026-08-05T08:27:32Z</time>
      </trkpt>
      <trkpt lat="43.34593" lon="-1.78529">
        <ele>4.2</ele>
        <time>2026-08-05T08:27:33Z</time>
      </trkpt>
      <trkpt lat="43.34589" lon="-1.78527">
        <ele>4.2</ele>
        <time>2026-08-05T08:27:34Z</time>
      </trkpt>
      <trkpt lat="43.34584" lon="-1.78524">
        <ele>4.2</ele>
        <time>2026-08-05T08:27:35Z</time>
      </trkpt>
      <trkpt lat="43.34579" lon="-1.78522">
        <ele>4</ele>
        <time>2026-08-05T08:27:36Z</time>
      </trkpt>
      <trkpt lat="43.34575" lon="-1.7852">
        <ele>3.8</ele>
        <time>2026-08-05T08:27:37Z</time>
      </trkpt>
      <trkpt lat="43.3457" lon="-1.78518">
        <ele>3.6</ele>
        <time>2026-08-05T08:27:38Z</time>
      </trkpt>
      <trkpt lat="43.34566" lon="-1.78516">
        <ele>3.6</ele>
        <time>2026-08-05T08:27:39Z</time>
      </trkpt>
      <trkpt lat="43.34561" lon="-1.78514">
        <ele>3.6</ele>
        <time>2026-08-05T08:27:40Z</time>
      </trkpt>
      <trkpt lat="43.34556" lon="-1.78513">
        <ele>3.6</ele>
        <time>2026-08-05T08:27:41Z</time>
      </trkpt>
      <trkpt lat="43.34552" lon="-1.78511">
        <ele>3.8</ele>
        <time>2026-08-05T08:27:42Z</time>
      </trkpt>
      <trkpt lat="43.34548" lon="-1.78509">
        <ele>4</ele>
        <time>2026-08-05T08:27:43Z</time>
      </trkpt>
      <trkpt lat="43.34543" lon="-1.78507">
        <ele>4</ele>
        <time>2026-08-05T08:27:44Z</time>
      </trkpt>
      <trkpt lat="43.34539" lon="-1.78505">
        <ele>4</ele>
        <time>2026-08-05T08:27:45Z</time>
      </trkpt>
      <trkpt lat="43.34534" lon="-1.78504">
        <ele>4</ele>
        <time>2026-08-05T08:27:46Z</time>
      </trkpt>
      <trkpt lat="43.3453" lon="-1.78502">
        <ele>4</ele>
        <time>2026-08-05T08:27:47Z</time>
      </trkpt>
      <trkpt lat="43.34525" lon="-1.785">
        <ele>4.2</ele>
        <time>2026-08-05T08:27:48Z</time>
      </trkpt>
      <trkpt lat="43.34521" lon="-1.78499">
        <ele>4.2</ele>
        <time>2026-08-05T08:27:49Z</time>
      </trkpt>
      <trkpt lat="43.34516" lon="-1.78497">
        <ele>4.2</ele>
        <time>2026-08-05T08:27:50Z</time>
      </trkpt>
      <trkpt lat="43.34512" lon="-1.78495">
        <ele>4.2</ele>
        <time>2026-08-05T08:27:51Z</time>
      </trkpt>
      <trkpt lat="43.34508" lon="-1.78494">
        <ele>4</ele>
        <time>2026-08-05T08:27:52Z</time>
      </trkpt>
      <trkpt lat="43.34504" lon="-1.78493">
        <ele>4</ele>
        <time>2026-08-05T08:27:53Z</time>
      </trkpt>
      <trkpt lat="43.345" lon="-1.78492">
        <ele>4</ele>
        <time>2026-08-05T08:27:54Z</time>
      </trkpt>
      <trkpt lat="43.34496" lon="-1.7849">
        <ele>4</ele>
        <time>2026-08-05T08:27:55Z</time>
      </trkpt>
      <trkpt lat="43.34492" lon="-1.78489">
        <ele>4</ele>
        <time>2026-08-05T08:27:56Z</time>
      </trkpt>
      <trkpt lat="43.34488" lon="-1.78488">
        <ele>4</ele>
        <time>2026-08-05T08:27:57Z</time>
      </trkpt>
      <trkpt lat="43.34483" lon="-1.78488">
        <ele>4.4</ele>
        <time>2026-08-05T08:27:58Z</time>
      </trkpt>
      <trkpt lat="43.34479" lon="-1.78487">
        <ele>4.4</ele>
        <time>2026-08-05T08:27:59Z</time>
      </trkpt>
      <trkpt lat="43.34475" lon="-1.78487">
        <ele>4.4</ele>
        <time>2026-08-05T08:28:00Z</time>
      </trkpt>
      <trkpt lat="43.34471" lon="-1.78488">
        <ele>4.4</ele>
        <time>2026-08-05T08:28:01Z</time>
      </trkpt>
      <trkpt lat="43.34466" lon="-1.7849">
        <ele>4.4</ele>
        <time>2026-08-05T08:28:02Z</time>
      </trkpt>
      <trkpt lat="43.34462" lon="-1.78491">
        <ele>4</ele>
        <time>2026-08-05T08:28:03Z</time>
      </trkpt>
      <trkpt lat="43.34457" lon="-1.78493">
        <ele>4</ele>
        <time>2026-08-05T08:28:04Z</time>
      </trkpt>
      <trkpt lat="43.34453" lon="-1.78494">
        <ele>4</ele>
        <time>2026-08-05T08:28:05Z</time>
      </trkpt>
      <trkpt lat="43.34448" lon="-1.78496">
        <ele>4.2</ele>
        <time>2026-08-05T08:28:06Z</time>
      </trkpt>
      <trkpt lat="43.34444" lon="-1.78499">
        <ele>4.2</ele>
        <time>2026-08-05T08:28:07Z</time>
      </trkpt>
      <trkpt lat="43.34441" lon="-1.78501">
        <ele>4.2</ele>
        <time>2026-08-05T08:28:08Z</time>
      </trkpt>
      <trkpt lat="43.34437" lon="-1.78504">
        <ele>4</ele>
        <time>2026-08-05T08:28:09Z</time>
      </trkpt>
      <trkpt lat="43.34433" lon="-1.78507">
        <ele>3.2</ele>
        <time>2026-08-05T08:28:10Z</time>
      </trkpt>
      <trkpt lat="43.34429" lon="-1.7851">
        <ele>3.2</ele>
        <time>2026-08-05T08:28:11Z</time>
      </trkpt>
      <trkpt lat="43.34425" lon="-1.78512">
        <ele>3.2</ele>
        <time>2026-08-05T08:28:12Z</time>
      </trkpt>
      <trkpt lat="43.34422" lon="-1.78516">
        <ele>3.2</ele>
        <time>2026-08-05T08:28:13Z</time>
      </trkpt>
      <trkpt lat="43.34418" lon="-1.78519">
        <ele>4.2</ele>
        <time>2026-08-05T08:28:14Z</time>
      </trkpt>
      <trkpt lat="43.34415" lon="-1.78522">
        <ele>4.2</ele>
        <time>2026-08-05T08:28:15Z</time>
      </trkpt>
      <trkpt lat="43.34411" lon="-1.78525">
        <ele>4.2</ele>
        <time>2026-08-05T08:28:16Z</time>
      </trkpt>
      <trkpt lat="43.34407" lon="-1.78529">
        <ele>4.2</ele>
        <time>2026-08-05T08:28:17Z</time>
      </trkpt>
      <trkpt lat="43.34403" lon="-1.78532">
        <ele>4.2</ele>
        <time>2026-08-05T08:28:18Z</time>
      </trkpt>
      <trkpt lat="43.344" lon="-1.78536">
        <ele>4</ele>
        <time>2026-08-05T08:28:19Z</time>
      </trkpt>
      <trkpt lat="43.34396" lon="-1.7854">
        <ele>4</ele>
        <time>2026-08-05T08:28:20Z</time>
      </trkpt>
      <trkpt lat="43.34393" lon="-1.78544">
        <ele>4</ele>
        <time>2026-08-05T08:28:21Z</time>
      </trkpt>
      <trkpt lat="43.34389" lon="-1.78548">
        <ele>4</ele>
        <time>2026-08-05T08:28:22Z</time>
      </trkpt>
      <trkpt lat="43.34385" lon="-1.78551">
        <ele>4</ele>
        <time>2026-08-05T08:28:23Z</time>
      </trkpt>
      <trkpt lat="43.34381" lon="-1.78554">
        <ele>4</ele>
        <time>2026-08-05T08:28:24Z</time>
      </trkpt>
      <trkpt lat="43.34376" lon="-1.78557">
        <ele>3.8</ele>
        <time>2026-08-05T08:28:25Z</time>
      </trkpt>
      <trkpt lat="43.34372" lon="-1.7856">
        <ele>3.8</ele>
        <time>2026-08-05T08:28:26Z</time>
      </trkpt>
      <trkpt lat="43.34368" lon="-1.78562">
        <ele>3.8</ele>
        <time>2026-08-05T08:28:27Z</time>
      </trkpt>
      <trkpt lat="43.34364" lon="-1.78565">
        <ele>3.8</ele>
        <time>2026-08-05T08:28:28Z</time>
      </trkpt>
      <trkpt lat="43.34359" lon="-1.78567">
        <ele>3.8</ele>
        <time>2026-08-05T08:28:29Z</time>
      </trkpt>
      <trkpt lat="43.34355" lon="-1.78569">
        <ele>3.8</ele>
        <time>2026-08-05T08:28:30Z</time>
      </trkpt>
      <trkpt lat="43.3435" lon="-1.78571">
        <ele>4.2</ele>
        <time>2026-08-05T08:28:31Z</time>
      </trkpt>
      <trkpt lat="43.34346" lon="-1.78573">
        <ele>4.2</ele>
        <time>2026-08-05T08:28:32Z</time>
      </trkpt>
      <trkpt lat="43.34342" lon="-1.78575">
        <ele>4.2</ele>
        <time>2026-08-05T08:28:33Z</time>
      </trkpt>
      <trkpt lat="43.34337" lon="-1.78577">
        <ele>4.2</ele>
        <time>2026-08-05T08:28:34Z</time>
      </trkpt>
      <trkpt lat="43.34333" lon="-1.78579">
        <ele>4.2</ele>
        <time>2026-08-05T08:28:35Z</time>
      </trkpt>
      <trkpt lat="43.34329" lon="-1.78582">
        <ele>4.2</ele>
        <time>2026-08-05T08:28:36Z</time>
      </trkpt>
      <trkpt lat="43.34325" lon="-1.78584">
        <ele>4.2</ele>
        <time>2026-08-05T08:28:37Z</time>
      </trkpt>
      <trkpt lat="43.34322" lon="-1.78586">
        <ele>4.4</ele>
        <time>2026-08-05T08:28:38Z</time>
      </trkpt>
      <trkpt lat="43.34319" lon="-1.78589">
        <ele>4.4</ele>
        <time>2026-08-05T08:28:39Z</time>
      </trkpt>
      <trkpt lat="43.34315" lon="-1.78592">
        <ele>4.4</ele>
        <time>2026-08-05T08:28:40Z</time>
      </trkpt>
      <trkpt lat="43.34311" lon="-1.78594">
        <ele>4.4</ele>
        <time>2026-08-05T08:28:41Z</time>
      </trkpt>
      <trkpt lat="43.34307" lon="-1.78596">
        <ele>4.4</ele>
        <time>2026-08-05T08:28:42Z</time>
      </trkpt>
      <trkpt lat="43.34303" lon="-1.78598">
        <ele>4.8</ele>
        <time>2026-08-05T08:28:43Z</time>
      </trkpt>
      <trkpt lat="43.34299" lon="-1.786">
        <ele>4.8</ele>
        <time>2026-08-05T08:28:44Z</time>
      </trkpt>
      <trkpt lat="43.34295" lon="-1.78601">
        <ele>4.8</ele>
        <time>2026-08-05T08:28:45Z</time>
      </trkpt>
      <trkpt lat="43.34291" lon="-1.78603">
        <ele>4.6</ele>
        <time>2026-08-05T08:28:46Z</time>
      </trkpt>
      <trkpt lat="43.34287" lon="-1.78604">
        <ele>4.6</ele>
        <time>2026-08-05T08:28:47Z</time>
      </trkpt>
      <trkpt lat="43.34284" lon="-1.78605">
        <ele>5</ele>
        <time>2026-08-05T08:28:48Z</time>
      </trkpt>
      <trkpt lat="43.3428" lon="-1.78606">
        <ele>5</ele>
        <time>2026-08-05T08:28:49Z</time>
      </trkpt>
      <trkpt lat="43.34277" lon="-1.78607">
        <ele>5</ele>
        <time>2026-08-05T08:28:50Z</time>
      </trkpt>
      <trkpt lat="43.34274" lon="-1.78607">
        <ele>5</ele>
        <time>2026-08-05T08:28:51Z</time>
      </trkpt>
      <trkpt lat="43.34272" lon="-1.78607">
        <ele>5.2</ele>
        <time>2026-08-05T08:28:52Z</time>
      </trkpt>
      <trkpt lat="43.34271" lon="-1.78607">
        <ele>5.2</ele>
        <time>2026-08-05T08:28:53Z</time>
      </trkpt>
      <trkpt lat="43.3427" lon="-1.78607">
        <ele>5.2</ele>
        <time>2026-08-05T08:28:54Z</time>
      </trkpt>
      <trkpt lat="43.34269" lon="-1.78607">
        <ele>5.2</ele>
        <time>2026-08-05T08:28:55Z</time>
      </trkpt>
      <trkpt lat="43.34268" lon="-1.78607">
        <ele>5.2</ele>
        <time>2026-08-05T08:28:56Z</time>
      </trkpt>
      <trkpt lat="43.34267" lon="-1.78608">
        <ele>5.2</ele>
        <time>2026-08-05T08:28:57Z</time>
      </trkpt>
      <trkpt lat="43.34266" lon="-1.78609">
        <ele>5.2</ele>
        <time>2026-08-05T08:28:58Z</time>
      </trkpt>
      <trkpt lat="43.34266" lon="-1.78612">
        <ele>4.6</ele>
        <time>2026-08-05T08:28:59Z</time>
      </trkpt>
      <trkpt lat="43.34267" lon="-1.78615">
        <ele>4.6</ele>
        <time>2026-08-05T08:29:00Z</time>
      </trkpt>
      <trkpt lat="43.34267" lon="-1.78618">
        <ele>4.6</ele>
        <time>2026-08-05T08:29:01Z</time>
      </trkpt>
      <trkpt lat="43.34268" lon="-1.78621">
        <ele>4.4</ele>
        <time>2026-08-05T08:29:02Z</time>
      </trkpt>
      <trkpt lat="43.3427" lon="-1.78624">
        <ele>4.4</ele>
        <time>2026-08-05T08:29:03Z</time>
      </trkpt>
      <trkpt lat="43.34272" lon="-1.78627">
        <ele>4.4</ele>
        <time>2026-08-05T08:29:04Z</time>
      </trkpt>
      <trkpt lat="43.34274" lon="-1.7863">
        <ele>4.4</ele>
        <time>2026-08-05T08:29:05Z</time>
      </trkpt>
      <trkpt lat="43.34276" lon="-1.78634">
        <ele>4.4</ele>
        <time>2026-08-05T08:29:06Z</time>
      </trkpt>
      <trkpt lat="43.34278" lon="-1.78637">
        <ele>3.8</ele>
        <time>2026-08-05T08:29:07Z</time>
      </trkpt>
      <trkpt lat="43.3428" lon="-1.7864">
        <ele>3.8</ele>
        <time>2026-08-05T08:29:08Z</time>
      </trkpt>
      <trkpt lat="43.34282" lon="-1.78643">
        <ele>3.8</ele>
        <time>2026-08-05T08:29:09Z</time>
      </trkpt>
      <trkpt lat="43.34284" lon="-1.78647">
        <ele>3.8</ele>
        <time>2026-08-05T08:29:10Z</time>
      </trkpt>
      <trkpt lat="43.34286" lon="-1.7865">
        <ele>3.6</ele>
        <time>2026-08-05T08:29:11Z</time>
      </trkpt>
      <trkpt lat="43.34289" lon="-1.78654">
        <ele>3.6</ele>
        <time>2026-08-05T08:29:12Z</time>
      </trkpt>
      <trkpt lat="43.34291" lon="-1.78658">
        <ele>3.6</ele>
        <time>2026-08-05T08:29:13Z</time>
      </trkpt>
      <trkpt lat="43.34293" lon="-1.78661">
        <ele>3.8</ele>
        <time>2026-08-05T08:29:14Z</time>
      </trkpt>
      <trkpt lat="43.34296" lon="-1.78665">
        <ele>3.8</ele>
        <time>2026-08-05T08:29:15Z</time>
      </trkpt>
      <trkpt lat="43.34298" lon="-1.78668">
        <ele>3.8</ele>
        <time>2026-08-05T08:29:16Z</time>
      </trkpt>
      <trkpt lat="43.34301" lon="-1.78672">
        <ele>3.8</ele>
        <time>2026-08-05T08:29:17Z</time>
      </trkpt>
      <trkpt lat="43.34303" lon="-1.78675">
        <ele>4.2</ele>
        <time>2026-08-05T08:29:18Z</time>
      </trkpt>
      <trkpt lat="43.34306" lon="-1.78679">
        <ele>4.2</ele>
        <time>2026-08-05T08:29:19Z</time>
      </trkpt>
      <trkpt lat="43.34309" lon="-1.78682">
        <ele>4.2</ele>
        <time>2026-08-05T08:29:20Z</time>
      </trkpt>
      <trkpt lat="43.34312" lon="-1.78686">
        <ele>3.8</ele>
        <time>2026-08-05T08:29:21Z</time>
      </trkpt>
      <trkpt lat="43.34314" lon="-1.78689">
        <ele>3.6</ele>
        <time>2026-08-05T08:29:22Z</time>
      </trkpt>
      <trkpt lat="43.34316" lon="-1.78694">
        <ele>3.6</ele>
        <time>2026-08-05T08:29:23Z</time>
      </trkpt>
      <trkpt lat="43.34317" lon="-1.78699">
        <ele>3.6</ele>
        <time>2026-08-05T08:29:24Z</time>
      </trkpt>
      <trkpt lat="43.34318" lon="-1.78704">
        <ele>3.6</ele>
        <time>2026-08-05T08:29:25Z</time>
      </trkpt>
      <trkpt lat="43.34319" lon="-1.78709">
        <ele>3.8</ele>
        <time>2026-08-05T08:29:26Z</time>
      </trkpt>
      <trkpt lat="43.3432" lon="-1.78714">
        <ele>4</ele>
        <time>2026-08-05T08:29:27Z</time>
      </trkpt>
      <trkpt lat="43.3432" lon="-1.7872">
        <ele>4</ele>
        <time>2026-08-05T08:29:28Z</time>
      </trkpt>
      <trkpt lat="43.34321" lon="-1.78726">
        <ele>4</ele>
        <time>2026-08-05T08:29:29Z</time>
      </trkpt>
      <trkpt lat="43.34321" lon="-1.78732">
        <ele>4</ele>
        <time>2026-08-05T08:29:30Z</time>
      </trkpt>
      <trkpt lat="43.34322" lon="-1.78737">
        <ele>3.8</ele>
        <time>2026-08-05T08:29:31Z</time>
      </trkpt>
      <trkpt lat="43.34323" lon="-1.78743">
        <ele>3.8</ele>
        <time>2026-08-05T08:29:32Z</time>
      </trkpt>
      <trkpt lat="43.34323" lon="-1.78748">
        <ele>3.8</ele>
        <time>2026-08-05T08:29:33Z</time>
      </trkpt>
      <trkpt lat="43.34324" lon="-1.78753">
        <ele>3.8</ele>
        <time>2026-08-05T08:29:34Z</time>
      </trkpt>
      <trkpt lat="43.34325" lon="-1.78759">
        <ele>3.8</ele>
        <time>2026-08-05T08:29:35Z</time>
      </trkpt>
      <trkpt lat="43.34326" lon="-1.78764">
        <ele>3.8</ele>
        <time>2026-08-05T08:29:36Z</time>
      </trkpt>
      <trkpt lat="43.34327" lon="-1.7877">
        <ele>3.8</ele>
        <time>2026-08-05T08:29:37Z</time>
      </trkpt>
      <trkpt lat="43.34328" lon="-1.78775">
        <ele>4</ele>
        <time>2026-08-05T08:29:38Z</time>
      </trkpt>
      <trkpt lat="43.34329" lon="-1.78781">
        <ele>4.2</ele>
        <time>2026-08-05T08:29:39Z</time>
      </trkpt>
      <trkpt lat="43.3433" lon="-1.78786">
        <ele>4.2</ele>
        <time>2026-08-05T08:29:40Z</time>
      </trkpt>
      <trkpt lat="43.3433" lon="-1.78792">
        <ele>4.2</ele>
        <time>2026-08-05T08:29:41Z</time>
      </trkpt>
      <trkpt lat="43.34331" lon="-1.78798">
        <ele>4.2</ele>
        <time>2026-08-05T08:29:42Z</time>
      </trkpt>
      <trkpt lat="43.34332" lon="-1.78803">
        <ele>4.2</ele>
        <time>2026-08-05T08:29:43Z</time>
      </trkpt>
      <trkpt lat="43.34333" lon="-1.78809">
        <ele>4.2</ele>
        <time>2026-08-05T08:29:44Z</time>
      </trkpt>
      <trkpt lat="43.34334" lon="-1.78814">
        <ele>4.6</ele>
        <time>2026-08-05T08:29:45Z</time>
      </trkpt>
      <trkpt lat="43.34335" lon="-1.78819">
        <ele>5.2</ele>
        <time>2026-08-05T08:29:46Z</time>
      </trkpt>
      <trkpt lat="43.34336" lon="-1.78824">
        <ele>5.2</ele>
        <time>2026-08-05T08:29:47Z</time>
      </trkpt>
      <trkpt lat="43.34337" lon="-1.7883">
        <ele>5.2</ele>
        <time>2026-08-05T08:29:48Z</time>
      </trkpt>
      <trkpt lat="43.34337" lon="-1.78835">
        <ele>5.2</ele>
        <time>2026-08-05T08:29:49Z</time>
      </trkpt>
      <trkpt lat="43.34338" lon="-1.7884">
        <ele>5.2</ele>
        <time>2026-08-05T08:29:50Z</time>
      </trkpt>
      <trkpt lat="43.34338" lon="-1.78845">
        <ele>5.2</ele>
        <time>2026-08-05T08:29:51Z</time>
      </trkpt>
      <trkpt lat="43.34337" lon="-1.78849">
        <ele>5.2</ele>
        <time>2026-08-05T08:29:52Z</time>
      </trkpt>
      <trkpt lat="43.34335" lon="-1.78852">
        <ele>6.2</ele>
        <time>2026-08-05T08:29:53Z</time>
      </trkpt>
      <trkpt lat="43.34331" lon="-1.78855">
        <ele>6.2</ele>
        <time>2026-08-05T08:29:54Z</time>
      </trkpt>
      <trkpt lat="43.34328" lon="-1.78857">
        <ele>6.2</ele>
        <time>2026-08-05T08:29:55Z</time>
      </trkpt>
      <trkpt lat="43.34324" lon="-1.78859">
        <ele>6.2</ele>
        <time>2026-08-05T08:29:56Z</time>
      </trkpt>
      <trkpt lat="43.3432" lon="-1.78861">
        <ele>6</ele>
        <time>2026-08-05T08:29:57Z</time>
      </trkpt>
      <trkpt lat="43.34317" lon="-1.78863">
        <ele>6</ele>
        <time>2026-08-05T08:29:58Z</time>
      </trkpt>
      <trkpt lat="43.34313" lon="-1.78864">
        <ele>6</ele>
        <time>2026-08-05T08:29:59Z</time>
      </trkpt>
      <trkpt lat="43.3431" lon="-1.78866">
        <ele>6.6</ele>
        <time>2026-08-05T08:30:00Z</time>
      </trkpt>
      <trkpt lat="43.34306" lon="-1.78867">
        <ele>6.6</ele>
        <time>2026-08-05T08:30:01Z</time>
      </trkpt>
      <trkpt lat="43.34303" lon="-1.78869">
        <ele>6.6</ele>
        <time>2026-08-05T08:30:02Z</time>
      </trkpt>
      <trkpt lat="43.343" lon="-1.78871">
        <ele>6.6</ele>
        <time>2026-08-05T08:30:03Z</time>
      </trkpt>
      <trkpt lat="43.34298" lon="-1.78875">
        <ele>6.4</ele>
        <time>2026-08-05T08:30:04Z</time>
      </trkpt>
      <trkpt lat="43.34297" lon="-1.7888">
        <ele>6.4</ele>
        <time>2026-08-05T08:30:05Z</time>
      </trkpt>
      <trkpt lat="43.34297" lon="-1.78884">
        <ele>6.4</ele>
        <time>2026-08-05T08:30:06Z</time>
      </trkpt>
      <trkpt lat="43.34296" lon="-1.78888">
        <ele>6.4</ele>
        <time>2026-08-05T08:30:07Z</time>
      </trkpt>
      <trkpt lat="43.34296" lon="-1.78891">
        <ele>6.4</ele>
        <time>2026-08-05T08:30:08Z</time>
      </trkpt>
      <trkpt lat="43.34297" lon="-1.78894">
        <ele>6.4</ele>
        <time>2026-08-05T08:30:09Z</time>
      </trkpt>
      <trkpt lat="43.34298" lon="-1.78896">
        <ele>6.4</ele>
        <time>2026-08-05T08:30:10Z</time>
      </trkpt>
      <trkpt lat="43.34298" lon="-1.78899">
        <ele>6.6</ele>
        <time>2026-08-05T08:30:11Z</time>
      </trkpt>
      <trkpt lat="43.34299" lon="-1.78902">
        <ele>6.8</ele>
        <time>2026-08-05T08:30:12Z</time>
      </trkpt>
      <trkpt lat="43.34299" lon="-1.78905">
        <ele>6.8</ele>
        <time>2026-08-05T08:30:13Z</time>
      </trkpt>
      <trkpt lat="43.34298" lon="-1.78908">
        <ele>6.8</ele>
        <time>2026-08-05T08:30:14Z</time>
      </trkpt>
      <trkpt lat="43.34297" lon="-1.78912">
        <ele>6.8</ele>
        <time>2026-08-05T08:30:15Z</time>
      </trkpt>
      <trkpt lat="43.34295" lon="-1.78916">
        <ele>6.4</ele>
        <time>2026-08-05T08:30:16Z</time>
      </trkpt>
      <trkpt lat="43.34293" lon="-1.78919">
        <ele>6</ele>
        <time>2026-08-05T08:30:17Z</time>
      </trkpt>
      <trkpt lat="43.3429" lon="-1.78922">
        <ele>6</ele>
        <time>2026-08-05T08:30:18Z</time>
      </trkpt>
      <trkpt lat="43.34287" lon="-1.78924">
        <ele>6</ele>
        <time>2026-08-05T08:30:19Z</time>
      </trkpt>
      <trkpt lat="43.34284" lon="-1.78926">
        <ele>6</ele>
        <time>2026-08-05T08:30:20Z</time>
      </trkpt>
      <trkpt lat="43.34281" lon="-1.78927">
        <ele>6</ele>
        <time>2026-08-05T08:30:21Z</time>
      </trkpt>
      <trkpt lat="43.34278" lon="-1.78928">
        <ele>6</ele>
        <time>2026-08-05T08:30:22Z</time>
      </trkpt>
      <trkpt lat="43.34275" lon="-1.7893">
        <ele>6</ele>
        <time>2026-08-05T08:30:23Z</time>
      </trkpt>
      <trkpt lat="43.34272" lon="-1.78931">
        <ele>6.6</ele>
        <time>2026-08-05T08:30:24Z</time>
      </trkpt>
      <trkpt lat="43.34269" lon="-1.78933">
        <ele>6.6</ele>
        <time>2026-08-05T08:30:25Z</time>
      </trkpt>
      <trkpt lat="43.34267" lon="-1.78934">
        <ele>6.6</ele>
        <time>2026-08-05T08:30:26Z</time>
      </trkpt>
      <trkpt lat="43.34263" lon="-1.78935">
        <ele>6.6</ele>
        <time>2026-08-05T08:30:27Z</time>
      </trkpt>
      <trkpt lat="43.3426" lon="-1.78936">
        <ele>6.6</ele>
        <time>2026-08-05T08:30:28Z</time>
      </trkpt>
      <trkpt lat="43.34257" lon="-1.78937">
        <ele>6.4</ele>
        <time>2026-08-05T08:30:29Z</time>
      </trkpt>
      <trkpt lat="43.34255" lon="-1.78938">
        <ele>6.4</ele>
        <time>2026-08-05T08:30:30Z</time>
      </trkpt>
      <trkpt lat="43.34252" lon="-1.78938">
        <ele>6.4</ele>
        <time>2026-08-05T08:30:31Z</time>
      </trkpt>
      <trkpt lat="43.34249" lon="-1.7894">
        <ele>6.6</ele>
        <time>2026-08-05T08:30:32Z</time>
      </trkpt>
      <trkpt lat="43.34246" lon="-1.78941">
        <ele>6.8</ele>
        <time>2026-08-05T08:30:33Z</time>
      </trkpt>
      <trkpt lat="43.34243" lon="-1.78942">
        <ele>6.8</ele>
        <time>2026-08-05T08:30:34Z</time>
      </trkpt>
      <trkpt lat="43.34239" lon="-1.78943">
        <ele>6.8</ele>
        <time>2026-08-05T08:30:35Z</time>
      </trkpt>
      <trkpt lat="43.34236" lon="-1.78944">
        <ele>6.8</ele>
        <time>2026-08-05T08:30:36Z</time>
      </trkpt>
      <trkpt lat="43.34233" lon="-1.78946">
        <ele>6.8</ele>
        <time>2026-08-05T08:30:37Z</time>
      </trkpt>
      <trkpt lat="43.3423" lon="-1.78948">
        <ele>6.8</ele>
        <time>2026-08-05T08:30:38Z</time>
      </trkpt>
      <trkpt lat="43.34227" lon="-1.78949">
        <ele>7</ele>
        <time>2026-08-05T08:30:39Z</time>
      </trkpt>
      <trkpt lat="43.34225" lon="-1.78951">
        <ele>7</ele>
        <time>2026-08-05T08:30:40Z</time>
      </trkpt>
      <trkpt lat="43.34222" lon="-1.78952">
        <ele>7</ele>
        <time>2026-08-05T08:30:41Z</time>
      </trkpt>
      <trkpt lat="43.34219" lon="-1.78954">
        <ele>7</ele>
        <time>2026-08-05T08:30:42Z</time>
      </trkpt>
      <trkpt lat="43.34216" lon="-1.78955">
        <ele>7</ele>
        <time>2026-08-05T08:30:43Z</time>
      </trkpt>
      <trkpt lat="43.34213" lon="-1.78956">
        <ele>7</ele>
        <time>2026-08-05T08:30:44Z</time>
      </trkpt>
      <trkpt lat="43.3421" lon="-1.78957">
        <ele>7</ele>
        <time>2026-08-05T08:30:45Z</time>
      </trkpt>
      <trkpt lat="43.34208" lon="-1.78958">
        <ele>7</ele>
        <time>2026-08-05T08:30:46Z</time>
      </trkpt>
      <trkpt lat="43.34207" lon="-1.78959">
        <ele>7</ele>
        <time>2026-08-05T08:30:47Z</time>
      </trkpt>
      <trkpt lat="43.34206" lon="-1.78959">
        <ele>7.4</ele>
        <time>2026-08-05T08:30:48Z</time>
      </trkpt>
      <trkpt lat="43.34206" lon="-1.78959">
        <ele>7.4</ele>
        <time>2026-08-05T08:30:49Z</time>
      </trkpt>
      <trkpt lat="43.34199" lon="-1.78962">
        <ele>7.8</ele>
        <time>2026-08-05T08:30:59Z</time>
      </trkpt>
      <trkpt lat="43.34196" lon="-1.78964">
        <ele>7.8</ele>
        <time>2026-08-05T08:31:00Z</time>
      </trkpt>
      <trkpt lat="43.34192" lon="-1.78966">
        <ele>7.8</ele>
        <time>2026-08-05T08:31:01Z</time>
      </trkpt>
      <trkpt lat="43.34189" lon="-1.78967">
        <ele>7.8</ele>
        <time>2026-08-05T08:31:02Z</time>
      </trkpt>
      <trkpt lat="43.34185" lon="-1.78969">
        <ele>8.2</ele>
        <time>2026-08-05T08:31:03Z</time>
      </trkpt>
      <trkpt lat="43.34182" lon="-1.78971">
        <ele>8.2</ele>
        <time>2026-08-05T08:31:04Z</time>
      </trkpt>
      <trkpt lat="43.34179" lon="-1.78972">
        <ele>8.4</ele>
        <time>2026-08-05T08:31:05Z</time>
      </trkpt>
      <trkpt lat="43.34176" lon="-1.78974">
        <ele>8.4</ele>
        <time>2026-08-05T08:31:06Z</time>
      </trkpt>
      <trkpt lat="43.34173" lon="-1.78975">
        <ele>8.4</ele>
        <time>2026-08-05T08:31:07Z</time>
      </trkpt>
      <trkpt lat="43.3417" lon="-1.78976">
        <ele>8.4</ele>
        <time>2026-08-05T08:31:08Z</time>
      </trkpt>
      <trkpt lat="43.34166" lon="-1.78978">
        <ele>8.4</ele>
        <time>2026-08-05T08:31:09Z</time>
      </trkpt>
      <trkpt lat="43.34163" lon="-1.78979">
        <ele>8.8</ele>
        <time>2026-08-05T08:31:10Z</time>
      </trkpt>
      <trkpt lat="43.3416" lon="-1.78981">
        <ele>8.8</ele>
        <time>2026-08-05T08:31:11Z</time>
      </trkpt>
      <trkpt lat="43.34157" lon="-1.78982">
        <ele>9</ele>
        <time>2026-08-05T08:31:12Z</time>
      </trkpt>
      <trkpt lat="43.34154" lon="-1.78983">
        <ele>9</ele>
        <time>2026-08-05T08:31:13Z</time>
      </trkpt>
      <trkpt lat="43.34151" lon="-1.78984">
        <ele>9</ele>
        <time>2026-08-05T08:31:14Z</time>
      </trkpt>
      <trkpt lat="43.34148" lon="-1.78985">
        <ele>9</ele>
        <time>2026-08-05T08:31:15Z</time>
      </trkpt>
      <trkpt lat="43.34145" lon="-1.78986">
        <ele>9.6</ele>
        <time>2026-08-05T08:31:16Z</time>
      </trkpt>
      <trkpt lat="43.34143" lon="-1.78987">
        <ele>9.6</ele>
        <time>2026-08-05T08:31:17Z</time>
      </trkpt>
      <trkpt lat="43.3414" lon="-1.78988">
        <ele>9.6</ele>
        <time>2026-08-05T08:31:18Z</time>
      </trkpt>
      <trkpt lat="43.34138" lon="-1.78989">
        <ele>9.6</ele>
        <time>2026-08-05T08:31:19Z</time>
      </trkpt>
      <trkpt lat="43.34135" lon="-1.78991">
        <ele>9.8</ele>
        <time>2026-08-05T08:31:20Z</time>
      </trkpt>
      <trkpt lat="43.34132" lon="-1.78992">
        <ele>9.8</ele>
        <time>2026-08-05T08:31:21Z</time>
      </trkpt>
      <trkpt lat="43.34129" lon="-1.78994">
        <ele>9.8</ele>
        <time>2026-08-05T08:31:22Z</time>
      </trkpt>
      <trkpt lat="43.34126" lon="-1.78995">
        <ele>10.2</ele>
        <time>2026-08-05T08:31:23Z</time>
      </trkpt>
      <trkpt lat="43.34123" lon="-1.78996">
        <ele>10.2</ele>
        <time>2026-08-05T08:31:24Z</time>
      </trkpt>
      <trkpt lat="43.34121" lon="-1.78997">
        <ele>10.2</ele>
        <time>2026-08-05T08:31:25Z</time>
      </trkpt>
      <trkpt lat="43.34117" lon="-1.78999">
        <ele>10.2</ele>
        <time>2026-08-05T08:31:26Z</time>
      </trkpt>
      <trkpt lat="43.34115" lon="-1.79">
        <ele>10.2</ele>
        <time>2026-08-05T08:31:27Z</time>
      </trkpt>
      <trkpt lat="43.34112" lon="-1.79001">
        <ele>10.8</ele>
        <time>2026-08-05T08:31:28Z</time>
      </trkpt>
      <trkpt lat="43.34109" lon="-1.79003">
        <ele>11</ele>
        <time>2026-08-05T08:31:29Z</time>
      </trkpt>
      <trkpt lat="43.34107" lon="-1.79005">
        <ele>11</ele>
        <time>2026-08-05T08:31:30Z</time>
      </trkpt>
      <trkpt lat="43.34104" lon="-1.79007">
        <ele>11</ele>
        <time>2026-08-05T08:31:31Z</time>
      </trkpt>
      <trkpt lat="43.34102" lon="-1.79008">
        <ele>11</ele>
        <time>2026-08-05T08:31:32Z</time>
      </trkpt>
      <trkpt lat="43.34099" lon="-1.7901">
        <ele>11.4</ele>
        <time>2026-08-05T08:31:33Z</time>
      </trkpt>
      <trkpt lat="43.34097" lon="-1.79011">
        <ele>11.4</ele>
        <time>2026-08-05T08:31:34Z</time>
      </trkpt>
      <trkpt lat="43.34094" lon="-1.79011">
        <ele>11.8</ele>
        <time>2026-08-05T08:31:35Z</time>
      </trkpt>
      <trkpt lat="43.34092" lon="-1.79012">
        <ele>11.8</ele>
        <time>2026-08-05T08:31:36Z</time>
      </trkpt>
      <trkpt lat="43.3409" lon="-1.79013">
        <ele>11.8</ele>
        <time>2026-08-05T08:31:37Z</time>
      </trkpt>
      <trkpt lat="43.34088" lon="-1.79014">
        <ele>11.8</ele>
        <time>2026-08-05T08:31:38Z</time>
      </trkpt>
      <trkpt lat="43.34086" lon="-1.79015">
        <ele>12.2</ele>
        <time>2026-08-05T08:31:39Z</time>
      </trkpt>
      <trkpt lat="43.34084" lon="-1.79016">
        <ele>12.2</ele>
        <time>2026-08-05T08:31:40Z</time>
      </trkpt>
      <trkpt lat="43.34082" lon="-1.79017">
        <ele>12.2</ele>
        <time>2026-08-05T08:31:41Z</time>
      </trkpt>
      <trkpt lat="43.3408" lon="-1.79018">
        <ele>12.2</ele>
        <time>2026-08-05T08:31:42Z</time>
      </trkpt>
      <trkpt lat="43.34079" lon="-1.79018">
        <ele>12.2</ele>
        <time>2026-08-05T08:31:43Z</time>
      </trkpt>
      <trkpt lat="43.34077" lon="-1.79019">
        <ele>12.8</ele>
        <time>2026-08-05T08:31:44Z</time>
      </trkpt>
      <trkpt lat="43.34076" lon="-1.7902">
        <ele>12.8</ele>
        <time>2026-08-05T08:31:45Z</time>
      </trkpt>
      <trkpt lat="43.34075" lon="-1.7902">
        <ele>13</ele>
        <time>2026-08-05T08:31:46Z</time>
      </trkpt>
      <trkpt lat="43.34074" lon="-1.7902">
        <ele>13</ele>
        <time>2026-08-05T08:31:47Z</time>
      </trkpt>
      <trkpt lat="43.34066" lon="-1.79024">
        <ele>13.6</ele>
        <time>2026-08-05T08:31:55Z</time>
      </trkpt>
      <trkpt lat="43.34065" lon="-1.79025">
        <ele>13.6</ele>
        <time>2026-08-05T08:31:56Z</time>
      </trkpt>
      <trkpt lat="43.34064" lon="-1.79025">
        <ele>13.6</ele>
        <time>2026-08-05T08:31:57Z</time>
      </trkpt>
      <trkpt lat="43.34064" lon="-1.79025">
        <ele>13.6</ele>
        <time>2026-08-05T08:31:58Z</time>
      </trkpt>
      <trkpt lat="43.34059" lon="-1.79029">
        <ele>14</ele>
        <time>2026-08-05T08:32:04Z</time>
      </trkpt>
      <trkpt lat="43.34056" lon="-1.7903">
        <ele>14</ele>
        <time>2026-08-05T08:32:05Z</time>
      </trkpt>
      <trkpt lat="43.34054" lon="-1.79032">
        <ele>14</ele>
        <time>2026-08-05T08:32:06Z</time>
      </trkpt>
      <trkpt lat="43.34051" lon="-1.79034">
        <ele>14.8</ele>
        <time>2026-08-05T08:32:07Z</time>
      </trkpt>
      <trkpt lat="43.34048" lon="-1.79036">
        <ele>15</ele>
        <time>2026-08-05T08:32:08Z</time>
      </trkpt>
      <trkpt lat="43.34045" lon="-1.79038">
        <ele>15</ele>
        <time>2026-08-05T08:32:09Z</time>
      </trkpt>
      <trkpt lat="43.34042" lon="-1.79039">
        <ele>15</ele>
        <time>2026-08-05T08:32:10Z</time>
      </trkpt>
      <trkpt lat="43.34039" lon="-1.7904">
        <ele>15</ele>
        <time>2026-08-05T08:32:11Z</time>
      </trkpt>
      <trkpt lat="43.34036" lon="-1.79042">
        <ele>16</ele>
        <time>2026-08-05T08:32:12Z</time>
      </trkpt>
      <trkpt lat="43.34033" lon="-1.79042">
        <ele>16</ele>
        <time>2026-08-05T08:32:13Z</time>
      </trkpt>
      <trkpt lat="43.34031" lon="-1.79043">
        <ele>16</ele>
        <time>2026-08-05T08:32:14Z</time>
      </trkpt>
      <trkpt lat="43.34028" lon="-1.79044">
        <ele>16</ele>
        <time>2026-08-05T08:32:15Z</time>
      </trkpt>
      <trkpt lat="43.34025" lon="-1.79044">
        <ele>16</ele>
        <time>2026-08-05T08:32:16Z</time>
      </trkpt>
      <trkpt lat="43.34022" lon="-1.79045">
        <ele>16</ele>
        <time>2026-08-05T08:32:17Z</time>
      </trkpt>
      <trkpt lat="43.34019" lon="-1.79046">
        <ele>16</ele>
        <time>2026-08-05T08:32:18Z</time>
      </trkpt>
      <trkpt lat="43.34016" lon="-1.79046">
        <ele>17</ele>
        <time>2026-08-05T08:32:19Z</time>
      </trkpt>
      <trkpt lat="43.34013" lon="-1.79047">
        <ele>18</ele>
        <time>2026-08-05T08:32:20Z</time>
      </trkpt>
      <trkpt lat="43.34011" lon="-1.79048">
        <ele>18</ele>
        <time>2026-08-05T08:32:21Z</time>
      </trkpt>
      <trkpt lat="43.34008" lon="-1.79049">
        <ele>18</ele>
        <time>2026-08-05T08:32:22Z</time>
      </trkpt>
      <trkpt lat="43.34005" lon="-1.79051">
        <ele>18</ele>
        <time>2026-08-05T08:32:23Z</time>
      </trkpt>
      <trkpt lat="43.34003" lon="-1.79052">
        <ele>18</ele>
        <time>2026-08-05T08:32:24Z</time>
      </trkpt>
      <trkpt lat="43.34001" lon="-1.79054">
        <ele>18.6</ele>
        <time>2026-08-05T08:32:25Z</time>
      </trkpt>
      <trkpt lat="43.33998" lon="-1.79055">
        <ele>18.6</ele>
        <time>2026-08-05T08:32:26Z</time>
      </trkpt>
      <trkpt lat="43.33995" lon="-1.79056">
        <ele>18.8</ele>
        <time>2026-08-05T08:32:27Z</time>
      </trkpt>
      <trkpt lat="43.33993" lon="-1.79057">
        <ele>19</ele>
        <time>2026-08-05T08:32:28Z</time>
      </trkpt>
      <trkpt lat="43.33991" lon="-1.79058">
        <ele>19.2</ele>
        <time>2026-08-05T08:32:29Z</time>
      </trkpt>
      <trkpt lat="43.33989" lon="-1.79059">
        <ele>19.2</ele>
        <time>2026-08-05T08:32:30Z</time>
      </trkpt>
      <trkpt lat="43.33987" lon="-1.7906">
        <ele>19.2</ele>
        <time>2026-08-05T08:32:31Z</time>
      </trkpt>
      <trkpt lat="43.33987" lon="-1.7906">
        <ele>19.2</ele>
        <time>2026-08-05T08:32:32Z</time>
      </trkpt>
      <trkpt lat="43.33987" lon="-1.7906">
        <ele>19.2</ele>
        <time>2026-08-05T08:32:33Z</time>
      </trkpt>
      <trkpt lat="43.33981" lon="-1.79064">
        <ele>19.8</ele>
        <time>2026-08-05T08:33:44Z</time>
      </trkpt>
      <trkpt lat="43.33978" lon="-1.79067">
        <ele>20</ele>
        <time>2026-08-05T08:33:45Z</time>
      </trkpt>
      <trkpt lat="43.33976" lon="-1.7907">
        <ele>20</ele>
        <time>2026-08-05T08:33:46Z</time>
      </trkpt>
      <trkpt lat="43.33974" lon="-1.79073">
        <ele>20</ele>
        <time>2026-08-05T08:33:47Z</time>
      </trkpt>
      <trkpt lat="43.33974" lon="-1.79077">
        <ele>19.6</ele>
        <time>2026-08-05T08:33:48Z</time>
      </trkpt>
      <trkpt lat="43.33973" lon="-1.79082">
        <ele>19.6</ele>
        <time>2026-08-05T08:33:49Z</time>
      </trkpt>
      <trkpt lat="43.33974" lon="-1.79086">
        <ele>19.6</ele>
        <time>2026-08-05T08:33:50Z</time>
      </trkpt>
      <trkpt lat="43.33975" lon="-1.79091">
        <ele>19.6</ele>
        <time>2026-08-05T08:33:51Z</time>
      </trkpt>
      <trkpt lat="43.33975" lon="-1.79095">
        <ele>20</ele>
        <time>2026-08-05T08:33:52Z</time>
      </trkpt>
      <trkpt lat="43.33976" lon="-1.791">
        <ele>20</ele>
        <time>2026-08-05T08:33:53Z</time>
      </trkpt>
      <trkpt lat="43.33977" lon="-1.79105">
        <ele>20</ele>
        <time>2026-08-05T08:33:54Z</time>
      </trkpt>
      <trkpt lat="43.33977" lon="-1.7911">
        <ele>20</ele>
        <time>2026-08-05T08:33:55Z</time>
      </trkpt>
      <trkpt lat="43.33979" lon="-1.79115">
        <ele>19.8</ele>
        <time>2026-08-05T08:33:56Z</time>
      </trkpt>
      <trkpt lat="43.3398" lon="-1.79121">
        <ele>19.8</ele>
        <time>2026-08-05T08:33:57Z</time>
      </trkpt>
      <trkpt lat="43.33981" lon="-1.79127">
        <ele>19.8</ele>
        <time>2026-08-05T08:33:58Z</time>
      </trkpt>
      <trkpt lat="43.33982" lon="-1.79133">
        <ele>20.2</ele>
        <time>2026-08-05T08:33:59Z</time>
      </trkpt>
      <trkpt lat="43.33982" lon="-1.79139">
        <ele>20.2</ele>
        <time>2026-08-05T08:34:00Z</time>
      </trkpt>
      <trkpt lat="43.33983" lon="-1.79145">
        <ele>20.2</ele>
        <time>2026-08-05T08:34:01Z</time>
      </trkpt>
      <trkpt lat="43.33984" lon="-1.79151">
        <ele>20.2</ele>
        <time>2026-08-05T08:34:02Z</time>
      </trkpt>
      <trkpt lat="43.33986" lon="-1.79156">
        <ele>20.2</ele>
        <time>2026-08-05T08:34:03Z</time>
      </trkpt>
      <trkpt lat="43.33987" lon="-1.79161">
        <ele>20.2</ele>
        <time>2026-08-05T08:34:04Z</time>
      </trkpt>
      <trkpt lat="43.33987" lon="-1.79167">
        <ele>20.2</ele>
        <time>2026-08-05T08:34:05Z</time>
      </trkpt>
      <trkpt lat="43.33988" lon="-1.79172">
        <ele>20</ele>
        <time>2026-08-05T08:34:06Z</time>
      </trkpt>
      <trkpt lat="43.33989" lon="-1.79177">
        <ele>19.6</ele>
        <time>2026-08-05T08:34:07Z</time>
      </trkpt>
      <trkpt lat="43.3399" lon="-1.79183">
        <ele>19.6</ele>
        <time>2026-08-05T08:34:08Z</time>
      </trkpt>
      <trkpt lat="43.33991" lon="-1.79188">
        <ele>19.6</ele>
        <time>2026-08-05T08:34:09Z</time>
      </trkpt>
      <trkpt lat="43.33992" lon="-1.79192">
        <ele>20.4</ele>
        <time>2026-08-05T08:34:10Z</time>
      </trkpt>
      <trkpt lat="43.33993" lon="-1.79196">
        <ele>20.4</ele>
        <time>2026-08-05T08:34:11Z</time>
      </trkpt>
      <trkpt lat="43.33994" lon="-1.792">
        <ele>20.4</ele>
        <time>2026-08-05T08:34:12Z</time>
      </trkpt>
      <trkpt lat="43.33994" lon="-1.79204">
        <ele>20.4</ele>
        <time>2026-08-05T08:34:13Z</time>
      </trkpt>
      <trkpt lat="43.33995" lon="-1.79206">
        <ele>20.4</ele>
        <time>2026-08-05T08:34:14Z</time>
      </trkpt>
      <trkpt lat="43.33996" lon="-1.79207">
        <ele>20.4</ele>
        <time>2026-08-05T08:34:15Z</time>
      </trkpt>
      <trkpt lat="43.34002" lon="-1.79215">
        <ele>20</ele>
        <time>2026-08-05T08:34:40Z</time>
      </trkpt>
      <trkpt lat="43.34004" lon="-1.79219">
        <ele>20</ele>
        <time>2026-08-05T08:34:41Z</time>
      </trkpt>
      <trkpt lat="43.34005" lon="-1.79224">
        <ele>20</ele>
        <time>2026-08-05T08:34:42Z</time>
      </trkpt>
      <trkpt lat="43.34006" lon="-1.79229">
        <ele>20.2</ele>
        <time>2026-08-05T08:34:43Z</time>
      </trkpt>
      <trkpt lat="43.34007" lon="-1.79234">
        <ele>20.6</ele>
        <time>2026-08-05T08:34:44Z</time>
      </trkpt>
      <trkpt lat="43.34008" lon="-1.7924">
        <ele>20.6</ele>
        <time>2026-08-05T08:34:45Z</time>
      </trkpt>
      <trkpt lat="43.34009" lon="-1.79245">
        <ele>20.6</ele>
        <time>2026-08-05T08:34:46Z</time>
      </trkpt>
      <trkpt lat="43.34009" lon="-1.79251">
        <ele>20.6</ele>
        <time>2026-08-05T08:34:47Z</time>
      </trkpt>
      <trkpt lat="43.34011" lon="-1.79256">
        <ele>20</ele>
        <time>2026-08-05T08:34:48Z</time>
      </trkpt>
      <trkpt lat="43.34012" lon="-1.79261">
        <ele>19</ele>
        <time>2026-08-05T08:34:49Z</time>
      </trkpt>
      <trkpt lat="43.34013" lon="-1.79267">
        <ele>19</ele>
        <time>2026-08-05T08:34:50Z</time>
      </trkpt>
      <trkpt lat="43.34014" lon="-1.79273">
        <ele>19</ele>
        <time>2026-08-05T08:34:51Z</time>
      </trkpt>
      <trkpt lat="43.34015" lon="-1.79278">
        <ele>20</ele>
        <time>2026-08-05T08:34:52Z</time>
      </trkpt>
      <trkpt lat="43.34016" lon="-1.79284">
        <ele>20.2</ele>
        <time>2026-08-05T08:34:53Z</time>
      </trkpt>
      <trkpt lat="43.34017" lon="-1.79289">
        <ele>20.4</ele>
        <time>2026-08-05T08:34:54Z</time>
      </trkpt>
      <trkpt lat="43.34019" lon="-1.79295">
        <ele>20.4</ele>
        <time>2026-08-05T08:34:55Z</time>
      </trkpt>
      <trkpt lat="43.3402" lon="-1.793">
        <ele>20.4</ele>
        <time>2026-08-05T08:34:56Z</time>
      </trkpt>
      <trkpt lat="43.34021" lon="-1.79306">
        <ele>20.4</ele>
        <time>2026-08-05T08:34:57Z</time>
      </trkpt>
      <trkpt lat="43.34021" lon="-1.79311">
        <ele>20.4</ele>
        <time>2026-08-05T08:34:58Z</time>
      </trkpt>
      <trkpt lat="43.34022" lon="-1.79317">
        <ele>20.4</ele>
        <time>2026-08-05T08:34:59Z</time>
      </trkpt>
      <trkpt lat="43.34023" lon="-1.79323">
        <ele>20.4</ele>
        <time>2026-08-05T08:35:00Z</time>
      </trkpt>
      <trkpt lat="43.34024" lon="-1.79328">
        <ele>20.4</ele>
        <time>2026-08-05T08:35:01Z</time>
      </trkpt>
      <trkpt lat="43.34025" lon="-1.79333">
        <ele>20.4</ele>
        <time>2026-08-05T08:35:02Z</time>
      </trkpt>
      <trkpt lat="43.34026" lon="-1.79338">
        <ele>20.4</ele>
        <time>2026-08-05T08:35:03Z</time>
      </trkpt>
      <trkpt lat="43.34027" lon="-1.79343">
        <ele>20.4</ele>
        <time>2026-08-05T08:35:04Z</time>
      </trkpt>
      <trkpt lat="43.34028" lon="-1.79348">
        <ele>20.2</ele>
        <time>2026-08-05T08:35:05Z</time>
      </trkpt>
      <trkpt lat="43.34029" lon="-1.79352">
        <ele>20.2</ele>
        <time>2026-08-05T08:35:06Z</time>
      </trkpt>
      <trkpt lat="43.3403" lon="-1.79356">
        <ele>20.2</ele>
        <time>2026-08-05T08:35:07Z</time>
      </trkpt>
      <trkpt lat="43.3403" lon="-1.79358">
        <ele>20.8</ele>
        <time>2026-08-05T08:35:08Z</time>
      </trkpt>
      <trkpt lat="43.34031" lon="-1.7936">
        <ele>21</ele>
        <time>2026-08-05T08:35:09Z</time>
      </trkpt>
      <trkpt lat="43.3403" lon="-1.79361">
        <ele>21</ele>
        <time>2026-08-05T08:35:10Z</time>
      </trkpt>
      <trkpt lat="43.34031" lon="-1.79361">
        <ele>21</ele>
        <time>2026-08-05T08:35:11Z</time>
      </trkpt>
      <trkpt lat="43.34031" lon="-1.79362">
        <ele>21</ele>
        <time>2026-08-05T08:35:12Z</time>
      </trkpt>
      <trkpt lat="43.34032" lon="-1.79365">
        <ele>21</ele>
        <time>2026-08-05T08:35:13Z</time>
      </trkpt>
      <trkpt lat="43.34033" lon="-1.79368">
        <ele>20.8</ele>
        <time>2026-08-05T08:35:14Z</time>
      </trkpt>
      <trkpt lat="43.34034" lon="-1.79372">
        <ele>20.8</ele>
        <time>2026-08-05T08:35:15Z</time>
      </trkpt>
      <trkpt lat="43.34035" lon="-1.79377">
        <ele>20.8</ele>
        <time>2026-08-05T08:35:16Z</time>
      </trkpt>
      <trkpt lat="43.34035" lon="-1.79382">
        <ele>20.8</ele>
        <time>2026-08-05T08:35:17Z</time>
      </trkpt>
      <trkpt lat="43.34036" lon="-1.79387">
        <ele>20.8</ele>
        <time>2026-08-05T08:35:18Z</time>
      </trkpt>
      <trkpt lat="43.34037" lon="-1.79392">
        <ele>20.8</ele>
        <time>2026-08-05T08:35:19Z</time>
      </trkpt>
      <trkpt lat="43.34038" lon="-1.79397">
        <ele>20.8</ele>
        <time>2026-08-05T08:35:20Z</time>
      </trkpt>
      <trkpt lat="43.34039" lon="-1.79402">
        <ele>20.8</ele>
        <time>2026-08-05T08:35:21Z</time>
      </trkpt>
      <trkpt lat="43.3404" lon="-1.79407">
        <ele>20.8</ele>
        <time>2026-08-05T08:35:22Z</time>
      </trkpt>
      <trkpt lat="43.34041" lon="-1.79412">
        <ele>20.6</ele>
        <time>2026-08-05T08:35:23Z</time>
      </trkpt>
      <trkpt lat="43.34042" lon="-1.79418">
        <ele>20.4</ele>
        <time>2026-08-05T08:35:24Z</time>
      </trkpt>
      <trkpt lat="43.34043" lon="-1.79424">
        <ele>20.4</ele>
        <time>2026-08-05T08:35:25Z</time>
      </trkpt>
      <trkpt lat="43.34045" lon="-1.79429">
        <ele>20.4</ele>
        <time>2026-08-05T08:35:26Z</time>
      </trkpt>
      <trkpt lat="43.34046" lon="-1.79435">
        <ele>20.4</ele>
        <time>2026-08-05T08:35:27Z</time>
      </trkpt>
      <trkpt lat="43.34048" lon="-1.7944">
        <ele>20</ele>
        <time>2026-08-05T08:35:28Z</time>
      </trkpt>
      <trkpt lat="43.34049" lon="-1.79446">
        <ele>20</ele>
        <time>2026-08-05T08:35:29Z</time>
      </trkpt>
      <trkpt lat="43.3405" lon="-1.79452">
        <ele>20</ele>
        <time>2026-08-05T08:35:30Z</time>
      </trkpt>
      <trkpt lat="43.34052" lon="-1.79458">
        <ele>20.4</ele>
        <time>2026-08-05T08:35:31Z</time>
      </trkpt>
      <trkpt lat="43.34053" lon="-1.79464">
        <ele>19.8</ele>
        <time>2026-08-05T08:35:32Z</time>
      </trkpt>
      <trkpt lat="43.34054" lon="-1.7947">
        <ele>19.8</ele>
        <time>2026-08-05T08:35:33Z</time>
      </trkpt>
      <trkpt lat="43.34055" lon="-1.79476">
        <ele>19.8</ele>
        <time>2026-08-05T08:35:34Z</time>
      </trkpt>
      <trkpt lat="43.34056" lon="-1.7948">
        <ele>19.8</ele>
        <time>2026-08-05T08:35:35Z</time>
      </trkpt>
      <trkpt lat="43.34058" lon="-1.79485">
        <ele>20.4</ele>
        <time>2026-08-05T08:35:36Z</time>
      </trkpt>
      <trkpt lat="43.3406" lon="-1.7949">
        <ele>20.4</ele>
        <time>2026-08-05T08:35:37Z</time>
      </trkpt>
      <trkpt lat="43.3406" lon="-1.79495">
        <ele>20.4</ele>
        <time>2026-08-05T08:35:38Z</time>
      </trkpt>
      <trkpt lat="43.34061" lon="-1.79501">
        <ele>20</ele>
        <time>2026-08-05T08:35:39Z</time>
      </trkpt>
      <trkpt lat="43.34062" lon="-1.79506">
        <ele>19.8</ele>
        <time>2026-08-05T08:35:40Z</time>
      </trkpt>
      <trkpt lat="43.34063" lon="-1.7951">
        <ele>19.8</ele>
        <time>2026-08-05T08:35:41Z</time>
      </trkpt>
      <trkpt lat="43.34065" lon="-1.79515">
        <ele>19.8</ele>
        <time>2026-08-05T08:35:42Z</time>
      </trkpt>
      <trkpt lat="43.34066" lon="-1.7952">
        <ele>20.2</ele>
        <time>2026-08-05T08:35:43Z</time>
      </trkpt>
      <trkpt lat="43.34067" lon="-1.79526">
        <ele>20.2</ele>
        <time>2026-08-05T08:35:44Z</time>
      </trkpt>
      <trkpt lat="43.34068" lon="-1.79532">
        <ele>20.2</ele>
        <time>2026-08-05T08:35:45Z</time>
      </trkpt>
      <trkpt lat="43.34069" lon="-1.79538">
        <ele>20</ele>
        <time>2026-08-05T08:35:46Z</time>
      </trkpt>
      <trkpt lat="43.34069" lon="-1.79544">
        <ele>20.2</ele>
        <time>2026-08-05T08:35:47Z</time>
      </trkpt>
      <trkpt lat="43.3407" lon="-1.7955">
        <ele>20.2</ele>
        <time>2026-08-05T08:35:48Z</time>
      </trkpt>
      <trkpt lat="43.34071" lon="-1.79555">
        <ele>20.2</ele>
        <time>2026-08-05T08:35:49Z</time>
      </trkpt>
      <trkpt lat="43.34072" lon="-1.79561">
        <ele>20.2</ele>
        <time>2026-08-05T08:35:50Z</time>
      </trkpt>
      <trkpt lat="43.34073" lon="-1.79567">
        <ele>20</ele>
        <time>2026-08-05T08:35:51Z</time>
      </trkpt>
      <trkpt lat="43.34074" lon="-1.79572">
        <ele>20</ele>
        <time>2026-08-05T08:35:52Z</time>
      </trkpt>
      <trkpt lat="43.34075" lon="-1.79578">
        <ele>20</ele>
        <time>2026-08-05T08:35:53Z</time>
      </trkpt>
      <trkpt lat="43.34077" lon="-1.79583">
        <ele>20.4</ele>
        <time>2026-08-05T08:35:54Z</time>
      </trkpt>
      <trkpt lat="43.34078" lon="-1.79589">
        <ele>20.4</ele>
        <time>2026-08-05T08:35:55Z</time>
      </trkpt>
      <trkpt lat="43.34079" lon="-1.79594">
        <ele>20.4</ele>
        <time>2026-08-05T08:35:56Z</time>
      </trkpt>
      <trkpt lat="43.34081" lon="-1.79599">
        <ele>20</ele>
        <time>2026-08-05T08:35:57Z</time>
      </trkpt>
      <trkpt lat="43.34082" lon="-1.79604">
        <ele>20</ele>
        <time>2026-08-05T08:35:58Z</time>
      </trkpt>
      <trkpt lat="43.34083" lon="-1.79609">
        <ele>20</ele>
        <time>2026-08-05T08:35:59Z</time>
      </trkpt>
      <trkpt lat="43.34084" lon="-1.79614">
        <ele>20.6</ele>
        <time>2026-08-05T08:36:00Z</time>
      </trkpt>
      <trkpt lat="43.34085" lon="-1.79619">
        <ele>20.6</ele>
        <time>2026-08-05T08:36:01Z</time>
      </trkpt>
      <trkpt lat="43.34086" lon="-1.79624">
        <ele>20.4</ele>
        <time>2026-08-05T08:36:02Z</time>
      </trkpt>
      <trkpt lat="43.34086" lon="-1.79629">
        <ele>20.4</ele>
        <time>2026-08-05T08:36:03Z</time>
      </trkpt>
      <trkpt lat="43.34086" lon="-1.79634">
        <ele>20.4</ele>
        <time>2026-08-05T08:36:04Z</time>
      </trkpt>
      <trkpt lat="43.34087" lon="-1.79639">
        <ele>20.2</ele>
        <time>2026-08-05T08:36:05Z</time>
      </trkpt>
      <trkpt lat="43.34087" lon="-1.79644">
        <ele>20.2</ele>
        <time>2026-08-05T08:36:06Z</time>
      </trkpt>
      <trkpt lat="43.34088" lon="-1.7965">
        <ele>20.2</ele>
        <time>2026-08-05T08:36:07Z</time>
      </trkpt>
      <trkpt lat="43.34089" lon="-1.79655">
        <ele>20.4</ele>
        <time>2026-08-05T08:36:08Z</time>
      </trkpt>
      <trkpt lat="43.34091" lon="-1.7966">
        <ele>20.4</ele>
        <time>2026-08-05T08:36:09Z</time>
      </trkpt>
      <trkpt lat="43.34092" lon="-1.79665">
        <ele>20.4</ele>
        <time>2026-08-05T08:36:10Z</time>
      </trkpt>
      <trkpt lat="43.34093" lon="-1.79669">
        <ele>20.2</ele>
        <time>2026-08-05T08:36:11Z</time>
      </trkpt>
      <trkpt lat="43.34094" lon="-1.79674">
        <ele>20.2</ele>
        <time>2026-08-05T08:36:12Z</time>
      </trkpt>
      <trkpt lat="43.34094" lon="-1.79677">
        <ele>20.2</ele>
        <time>2026-08-05T08:36:13Z</time>
      </trkpt>
      <trkpt lat="43.34094" lon="-1.79679">
        <ele>20.8</ele>
        <time>2026-08-05T08:36:14Z</time>
      </trkpt>
      <trkpt lat="43.34094" lon="-1.7968">
        <ele>20.8</ele>
        <time>2026-08-05T08:36:15Z</time>
      </trkpt>
      <trkpt lat="43.34094" lon="-1.7968">
        <ele>20.8</ele>
        <time>2026-08-05T08:36:16Z</time>
      </trkpt>
      <trkpt lat="43.341" lon="-1.79689">
        <ele>20.2</ele>
        <time>2026-08-05T08:37:00Z</time>
      </trkpt>
      <trkpt lat="43.34101" lon="-1.79694">
        <ele>20.2</ele>
        <time>2026-08-05T08:37:01Z</time>
      </trkpt>
      <trkpt lat="43.341" lon="-1.79699">
        <ele>20.2</ele>
        <time>2026-08-05T08:37:02Z</time>
      </trkpt>
      <trkpt lat="43.34098" lon="-1.79703">
        <ele>20.2</ele>
        <time>2026-08-05T08:37:03Z</time>
      </trkpt>
      <trkpt lat="43.34096" lon="-1.79705">
        <ele>20.2</ele>
        <time>2026-08-05T08:37:04Z</time>
      </trkpt>
      <trkpt lat="43.34096" lon="-1.79706">
        <ele>20.6</ele>
        <time>2026-08-05T08:37:05Z</time>
      </trkpt>
      <trkpt lat="43.34095" lon="-1.79706">
        <ele>20.6</ele>
        <time>2026-08-05T08:37:06Z</time>
      </trkpt>
      <trkpt lat="43.34093" lon="-1.79707">
        <ele>20.6</ele>
        <time>2026-08-05T08:37:07Z</time>
      </trkpt>
      <trkpt lat="43.34091" lon="-1.79708">
        <ele>20.6</ele>
        <time>2026-08-05T08:37:08Z</time>
      </trkpt>
      <trkpt lat="43.34089" lon="-1.79709">
        <ele>20</ele>
        <time>2026-08-05T08:37:09Z</time>
      </trkpt>
      <trkpt lat="43.34085" lon="-1.79711">
        <ele>20</ele>
        <time>2026-08-05T08:37:10Z</time>
      </trkpt>
      <trkpt lat="43.34082" lon="-1.79713">
        <ele>19.2</ele>
        <time>2026-08-05T08:37:11Z</time>
      </trkpt>
      <trkpt lat="43.34077" lon="-1.79715">
        <ele>19.2</ele>
        <time>2026-08-05T08:37:12Z</time>
      </trkpt>
      <trkpt lat="43.34073" lon="-1.79717">
        <ele>18.8</ele>
        <time>2026-08-05T08:37:13Z</time>
      </trkpt>
      <trkpt lat="43.34068" lon="-1.79718">
        <ele>18.6</ele>
        <time>2026-08-05T08:37:14Z</time>
      </trkpt>
      <trkpt lat="43.34063" lon="-1.7972">
        <ele>18.4</ele>
        <time>2026-08-05T08:37:15Z</time>
      </trkpt>
      <trkpt lat="43.34059" lon="-1.79722">
        <ele>17.8</ele>
        <time>2026-08-05T08:37:16Z</time>
      </trkpt>
      <trkpt lat="43.34054" lon="-1.79724">
        <ele>17.8</ele>
        <time>2026-08-05T08:37:17Z</time>
      </trkpt>
      <trkpt lat="43.3405" lon="-1.79726">
        <ele>17.6</ele>
        <time>2026-08-05T08:37:18Z</time>
      </trkpt>
      <trkpt lat="43.34044" lon="-1.79728">
        <ele>16.6</ele>
        <time>2026-08-05T08:37:19Z</time>
      </trkpt>
      <trkpt lat="43.34039" lon="-1.7973">
        <ele>15.6</ele>
        <time>2026-08-05T08:37:20Z</time>
      </trkpt>
      <trkpt lat="43.34034" lon="-1.79732">
        <ele>15.6</ele>
        <time>2026-08-05T08:37:21Z</time>
      </trkpt>
      <trkpt lat="43.34028" lon="-1.79734">
        <ele>15.6</ele>
        <time>2026-08-05T08:37:22Z</time>
      </trkpt>
      <trkpt lat="43.34022" lon="-1.79736">
        <ele>15.6</ele>
        <time>2026-08-05T08:37:23Z</time>
      </trkpt>
      <trkpt lat="43.34016" lon="-1.79738">
        <ele>15.6</ele>
        <time>2026-08-05T08:37:24Z</time>
      </trkpt>
      <trkpt lat="43.34011" lon="-1.7974">
        <ele>16.2</ele>
        <time>2026-08-05T08:37:25Z</time>
      </trkpt>
      <trkpt lat="43.34006" lon="-1.79742">
        <ele>16.6</ele>
        <time>2026-08-05T08:37:26Z</time>
      </trkpt>
      <trkpt lat="43.34001" lon="-1.79744">
        <ele>16.6</ele>
        <time>2026-08-05T08:37:27Z</time>
      </trkpt>
      <trkpt lat="43.33996" lon="-1.79746">
        <ele>16.6</ele>
        <time>2026-08-05T08:37:28Z</time>
      </trkpt>
      <trkpt lat="43.33991" lon="-1.79749">
        <ele>16.6</ele>
        <time>2026-08-05T08:37:29Z</time>
      </trkpt>
      <trkpt lat="43.33986" lon="-1.79751">
        <ele>16.6</ele>
        <time>2026-08-05T08:37:30Z</time>
      </trkpt>
      <trkpt lat="43.33981" lon="-1.79752">
        <ele>16.6</ele>
        <time>2026-08-05T08:37:31Z</time>
      </trkpt>
      <trkpt lat="43.33977" lon="-1.79753">
        <ele>16.6</ele>
        <time>2026-08-05T08:37:32Z</time>
      </trkpt>
      <trkpt lat="43.33972" lon="-1.79754">
        <ele>16.6</ele>
        <time>2026-08-05T08:37:33Z</time>
      </trkpt>
      <trkpt lat="43.33968" lon="-1.79756">
        <ele>17.2</ele>
        <time>2026-08-05T08:37:34Z</time>
      </trkpt>
      <trkpt lat="43.33964" lon="-1.79758">
        <ele>17.2</ele>
        <time>2026-08-05T08:37:35Z</time>
      </trkpt>
      <trkpt lat="43.33961" lon="-1.7976">
        <ele>17.6</ele>
        <time>2026-08-05T08:37:36Z</time>
      </trkpt>
      <trkpt lat="43.33957" lon="-1.79762">
        <ele>17.6</ele>
        <time>2026-08-05T08:37:37Z</time>
      </trkpt>
      <trkpt lat="43.33954" lon="-1.79764">
        <ele>17.6</ele>
        <time>2026-08-05T08:37:38Z</time>
      </trkpt>
      <trkpt lat="43.3395" lon="-1.79767">
        <ele>17.6</ele>
        <time>2026-08-05T08:37:39Z</time>
      </trkpt>
      <trkpt lat="43.33946" lon="-1.79769">
        <ele>17.6</ele>
        <time>2026-08-05T08:37:40Z</time>
      </trkpt>
      <trkpt lat="43.33942" lon="-1.7977">
        <ele>18.4</ele>
        <time>2026-08-05T08:37:41Z</time>
      </trkpt>
      <trkpt lat="43.33939" lon="-1.79771">
        <ele>18.6</ele>
        <time>2026-08-05T08:37:42Z</time>
      </trkpt>
      <trkpt lat="43.33935" lon="-1.79772">
        <ele>19</ele>
        <time>2026-08-05T08:37:43Z</time>
      </trkpt>
      <trkpt lat="43.33932" lon="-1.79773">
        <ele>19.2</ele>
        <time>2026-08-05T08:37:44Z</time>
      </trkpt>
      <trkpt lat="43.33928" lon="-1.79775">
        <ele>19.4</ele>
        <time>2026-08-05T08:37:45Z</time>
      </trkpt>
      <trkpt lat="43.33925" lon="-1.79776">
        <ele>19.4</ele>
        <time>2026-08-05T08:37:46Z</time>
      </trkpt>
      <trkpt lat="43.33922" lon="-1.79777">
        <ele>19.6</ele>
        <time>2026-08-05T08:37:47Z</time>
      </trkpt>
      <trkpt lat="43.33919" lon="-1.79778">
        <ele>19.6</ele>
        <time>2026-08-05T08:37:48Z</time>
      </trkpt>
      <trkpt lat="43.33916" lon="-1.79779">
        <ele>20</ele>
        <time>2026-08-05T08:37:49Z</time>
      </trkpt>
      <trkpt lat="43.33912" lon="-1.7978">
        <ele>20</ele>
        <time>2026-08-05T08:37:50Z</time>
      </trkpt>
      <trkpt lat="43.33909" lon="-1.7978">
        <ele>20.2</ele>
        <time>2026-08-05T08:37:51Z</time>
      </trkpt>
      <trkpt lat="43.33906" lon="-1.79781">
        <ele>20.6</ele>
        <time>2026-08-05T08:37:52Z</time>
      </trkpt>
      <trkpt lat="43.33903" lon="-1.79782">
        <ele>20.6</ele>
        <time>2026-08-05T08:37:53Z</time>
      </trkpt>
      <trkpt lat="43.339" lon="-1.79782">
        <ele>20.6</ele>
        <time>2026-08-05T08:37:54Z</time>
      </trkpt>
      <trkpt lat="43.33896" lon="-1.79783">
        <ele>20.6</ele>
        <time>2026-08-05T08:37:55Z</time>
      </trkpt>
      <trkpt lat="43.33893" lon="-1.79783">
        <ele>20.6</ele>
        <time>2026-08-05T08:37:56Z</time>
      </trkpt>
      <trkpt lat="43.3389" lon="-1.79785">
        <ele>20.6</ele>
        <time>2026-08-05T08:37:57Z</time>
      </trkpt>
      <trkpt lat="43.33887" lon="-1.79786">
        <ele>21</ele>
        <time>2026-08-05T08:37:58Z</time>
      </trkpt>
      <trkpt lat="43.33883" lon="-1.79787">
        <ele>21</ele>
        <time>2026-08-05T08:37:59Z</time>
      </trkpt>
      <trkpt lat="43.3388" lon="-1.79788">
        <ele>21</ele>
        <time>2026-08-05T08:38:00Z</time>
      </trkpt>
      <trkpt lat="43.33876" lon="-1.79789">
        <ele>21</ele>
        <time>2026-08-05T08:38:01Z</time>
      </trkpt>
      <trkpt lat="43.33873" lon="-1.7979">
        <ele>21</ele>
        <time>2026-08-05T08:38:02Z</time>
      </trkpt>
      <trkpt lat="43.33869" lon="-1.7979">
        <ele>21.8</ele>
        <time>2026-08-05T08:38:03Z</time>
      </trkpt>
      <trkpt lat="43.33866" lon="-1.79791">
        <ele>21.8</ele>
        <time>2026-08-05T08:38:04Z</time>
      </trkpt>
      <trkpt lat="43.33863" lon="-1.79792">
        <ele>21.8</ele>
        <time>2026-08-05T08:38:05Z</time>
      </trkpt>
      <trkpt lat="43.3386" lon="-1.79793">
        <ele>21.8</ele>
        <time>2026-08-05T08:38:06Z</time>
      </trkpt>
      <trkpt lat="43.33858" lon="-1.79794">
        <ele>21.8</ele>
        <time>2026-08-05T08:38:07Z</time>
      </trkpt>
      <trkpt lat="43.33855" lon="-1.79795">
        <ele>21.8</ele>
        <time>2026-08-05T08:38:08Z</time>
      </trkpt>
      <trkpt lat="43.33852" lon="-1.79797">
        <ele>21.8</ele>
        <time>2026-08-05T08:38:09Z</time>
      </trkpt>
      <trkpt lat="43.33849" lon="-1.798">
        <ele>22.6</ele>
        <time>2026-08-05T08:38:10Z</time>
      </trkpt>
      <trkpt lat="43.33846" lon="-1.79801">
        <ele>22.6</ele>
        <time>2026-08-05T08:38:11Z</time>
      </trkpt>
      <trkpt lat="43.33844" lon="-1.79803">
        <ele>22.6</ele>
        <time>2026-08-05T08:38:12Z</time>
      </trkpt>
      <trkpt lat="43.3384" lon="-1.79804">
        <ele>22.6</ele>
        <time>2026-08-05T08:38:13Z</time>
      </trkpt>
      <trkpt lat="43.33836" lon="-1.79805">
        <ele>22.6</ele>
        <time>2026-08-05T08:38:14Z</time>
      </trkpt>
      <trkpt lat="43.33832" lon="-1.79806">
        <ele>23</ele>
        <time>2026-08-05T08:38:15Z</time>
      </trkpt>
      <trkpt lat="43.33829" lon="-1.79808">
        <ele>23</ele>
        <time>2026-08-05T08:38:16Z</time>
      </trkpt>
      <trkpt lat="43.33826" lon="-1.79809">
        <ele>23</ele>
        <time>2026-08-05T08:38:17Z</time>
      </trkpt>
      <trkpt lat="43.33823" lon="-1.7981">
        <ele>23</ele>
        <time>2026-08-05T08:38:18Z</time>
      </trkpt>
      <trkpt lat="43.3382" lon="-1.79812">
        <ele>23</ele>
        <time>2026-08-05T08:38:19Z</time>
      </trkpt>
      <trkpt lat="43.33818" lon="-1.79813">
        <ele>23</ele>
        <time>2026-08-05T08:38:20Z</time>
      </trkpt>
      <trkpt lat="43.33814" lon="-1.79814">
        <ele>23</ele>
        <time>2026-08-05T08:38:21Z</time>
      </trkpt>
      <trkpt lat="43.33812" lon="-1.79815">
        <ele>23.4</ele>
        <time>2026-08-05T08:38:22Z</time>
      </trkpt>
      <trkpt lat="43.3381" lon="-1.79816">
        <ele>23.4</ele>
        <time>2026-08-05T08:38:23Z</time>
      </trkpt>
      <trkpt lat="43.33807" lon="-1.79817">
        <ele>23.4</ele>
        <time>2026-08-05T08:38:24Z</time>
      </trkpt>
      <trkpt lat="43.33806" lon="-1.79817">
        <ele>23.4</ele>
        <time>2026-08-05T08:38:25Z</time>
      </trkpt>
      <trkpt lat="43.33805" lon="-1.79817">
        <ele>23.6</ele>
        <time>2026-08-05T08:38:26Z</time>
      </trkpt>
      <trkpt lat="43.33805" lon="-1.79817">
        <ele>23.6</ele>
        <time>2026-08-05T08:38:27Z</time>
      </trkpt>
      <trkpt lat="43.33798" lon="-1.79817">
        <ele>23.2</ele>
        <time>2026-08-05T08:38:48Z</time>
      </trkpt>
      <trkpt lat="43.33794" lon="-1.79817">
        <ele>23.2</ele>
        <time>2026-08-05T08:38:49Z</time>
      </trkpt>
      <trkpt lat="43.33789" lon="-1.79817">
        <ele>23.2</ele>
        <time>2026-08-05T08:38:50Z</time>
      </trkpt>
      <trkpt lat="43.33784" lon="-1.79818">
        <ele>24.2</ele>
        <time>2026-08-05T08:38:51Z</time>
      </trkpt>
      <trkpt lat="43.33779" lon="-1.79818">
        <ele>24.2</ele>
        <time>2026-08-05T08:38:52Z</time>
      </trkpt>
      <trkpt lat="43.33775" lon="-1.79817">
        <ele>24.2</ele>
        <time>2026-08-05T08:38:53Z</time>
      </trkpt>
      <trkpt lat="43.33771" lon="-1.79816">
        <ele>24.2</ele>
        <time>2026-08-05T08:38:54Z</time>
      </trkpt>
      <trkpt lat="43.33767" lon="-1.79815">
        <ele>25.6</ele>
        <time>2026-08-05T08:38:55Z</time>
      </trkpt>
      <trkpt lat="43.33764" lon="-1.79815">
        <ele>26</ele>
        <time>2026-08-05T08:38:56Z</time>
      </trkpt>
      <trkpt lat="43.33761" lon="-1.79815">
        <ele>26.4</ele>
        <time>2026-08-05T08:38:57Z</time>
      </trkpt>
      <trkpt lat="43.33759" lon="-1.79815">
        <ele>26.4</ele>
        <time>2026-08-05T08:38:58Z</time>
      </trkpt>
      <trkpt lat="43.33756" lon="-1.79815">
        <ele>26.4</ele>
        <time>2026-08-05T08:38:59Z</time>
      </trkpt>
      <trkpt lat="43.33753" lon="-1.79815">
        <ele>26.4</ele>
        <time>2026-08-05T08:39:00Z</time>
      </trkpt>
      <trkpt lat="43.33751" lon="-1.79816">
        <ele>27</ele>
        <time>2026-08-05T08:39:01Z</time>
      </trkpt>
      <trkpt lat="43.33748" lon="-1.79816">
        <ele>27.2</ele>
        <time>2026-08-05T08:39:02Z</time>
      </trkpt>
      <trkpt lat="43.33745" lon="-1.79816">
        <ele>27.6</ele>
        <time>2026-08-05T08:39:03Z</time>
      </trkpt>
      <trkpt lat="43.33742" lon="-1.79817">
        <ele>27.6</ele>
        <time>2026-08-05T08:39:04Z</time>
      </trkpt>
      <trkpt lat="43.3374" lon="-1.79817">
        <ele>28</ele>
        <time>2026-08-05T08:39:05Z</time>
      </trkpt>
      <trkpt lat="43.33737" lon="-1.79818">
        <ele>28.4</ele>
        <time>2026-08-05T08:39:06Z</time>
      </trkpt>
      <trkpt lat="43.33735" lon="-1.79818">
        <ele>28.4</ele>
        <time>2026-08-05T08:39:07Z</time>
      </trkpt>
      <trkpt lat="43.33732" lon="-1.79819">
        <ele>28.4</ele>
        <time>2026-08-05T08:39:08Z</time>
      </trkpt>
      <trkpt lat="43.3373" lon="-1.7982">
        <ele>28.4</ele>
        <time>2026-08-05T08:39:09Z</time>
      </trkpt>
      <trkpt lat="43.33727" lon="-1.7982">
        <ele>28.4</ele>
        <time>2026-08-05T08:39:10Z</time>
      </trkpt>
      <trkpt lat="43.33725" lon="-1.79821">
        <ele>28.8</ele>
        <time>2026-08-05T08:39:11Z</time>
      </trkpt>
      <trkpt lat="43.33722" lon="-1.79822">
        <ele>29.2</ele>
        <time>2026-08-05T08:39:12Z</time>
      </trkpt>
      <trkpt lat="43.3372" lon="-1.79823">
        <ele>29.4</ele>
        <time>2026-08-05T08:39:13Z</time>
      </trkpt>
      <trkpt lat="43.33718" lon="-1.79824">
        <ele>29.6</ele>
        <time>2026-08-05T08:39:14Z</time>
      </trkpt>
      <trkpt lat="43.33715" lon="-1.79824">
        <ele>29.6</ele>
        <time>2026-08-05T08:39:15Z</time>
      </trkpt>
      <trkpt lat="43.33713" lon="-1.79825">
        <ele>29.8</ele>
        <time>2026-08-05T08:39:16Z</time>
      </trkpt>
      <trkpt lat="43.3371" lon="-1.79826">
        <ele>30</ele>
        <time>2026-08-05T08:39:17Z</time>
      </trkpt>
      <trkpt lat="43.33708" lon="-1.79827">
        <ele>30</ele>
        <time>2026-08-05T08:39:18Z</time>
      </trkpt>
      <trkpt lat="43.33705" lon="-1.79828">
        <ele>30.4</ele>
        <time>2026-08-05T08:39:19Z</time>
      </trkpt>
      <trkpt lat="43.33702" lon="-1.79829">
        <ele>30.8</ele>
        <time>2026-08-05T08:39:20Z</time>
      </trkpt>
      <trkpt lat="43.337" lon="-1.79829">
        <ele>30.8</ele>
        <time>2026-08-05T08:39:21Z</time>
      </trkpt>
      <trkpt lat="43.33697" lon="-1.79829">
        <ele>31.2</ele>
        <time>2026-08-05T08:39:22Z</time>
      </trkpt>
      <trkpt lat="43.33695" lon="-1.79829">
        <ele>31.2</ele>
        <time>2026-08-05T08:39:23Z</time>
      </trkpt>
      <trkpt lat="43.33692" lon="-1.7983">
        <ele>31.4</ele>
        <time>2026-08-05T08:39:24Z</time>
      </trkpt>
      <trkpt lat="43.33689" lon="-1.7983">
        <ele>31.4</ele>
        <time>2026-08-05T08:39:25Z</time>
      </trkpt>
      <trkpt lat="43.33686" lon="-1.7983">
        <ele>31.4</ele>
        <time>2026-08-05T08:39:26Z</time>
      </trkpt>
      <trkpt lat="43.33684" lon="-1.79831">
        <ele>31.4</ele>
        <time>2026-08-05T08:39:27Z</time>
      </trkpt>
      <trkpt lat="43.33681" lon="-1.79832">
        <ele>31.8</ele>
        <time>2026-08-05T08:39:28Z</time>
      </trkpt>
      <trkpt lat="43.33678" lon="-1.79832">
        <ele>32</ele>
        <time>2026-08-05T08:39:29Z</time>
      </trkpt>
      <trkpt lat="43.33676" lon="-1.79832">
        <ele>32.4</ele>
        <time>2026-08-05T08:39:30Z</time>
      </trkpt>
      <trkpt lat="43.33673" lon="-1.79832">
        <ele>32.4</ele>
        <time>2026-08-05T08:39:31Z</time>
      </trkpt>
      <trkpt lat="43.3367" lon="-1.79833">
        <ele>32.4</ele>
        <time>2026-08-05T08:39:32Z</time>
      </trkpt>
      <trkpt lat="43.33668" lon="-1.79833">
        <ele>32.2</ele>
        <time>2026-08-05T08:39:33Z</time>
      </trkpt>
      <trkpt lat="43.33665" lon="-1.79833">
        <ele>32.2</ele>
        <time>2026-08-05T08:39:34Z</time>
      </trkpt>
      <trkpt lat="43.33662" lon="-1.79834">
        <ele>32.8</ele>
        <time>2026-08-05T08:39:35Z</time>
      </trkpt>
      <trkpt lat="43.3366" lon="-1.79834">
        <ele>33</ele>
        <time>2026-08-05T08:39:36Z</time>
      </trkpt>
      <trkpt lat="43.33657" lon="-1.79834">
        <ele>33.2</ele>
        <time>2026-08-05T08:39:37Z</time>
      </trkpt>
      <trkpt lat="43.33654" lon="-1.79835">
        <ele>33.4</ele>
        <time>2026-08-05T08:39:38Z</time>
      </trkpt>
      <trkpt lat="43.33652" lon="-1.79835">
        <ele>33.6</ele>
        <time>2026-08-05T08:39:39Z</time>
      </trkpt>
      <trkpt lat="43.33649" lon="-1.79836">
        <ele>33.6</ele>
        <time>2026-08-05T08:39:40Z</time>
      </trkpt>
      <trkpt lat="43.33646" lon="-1.79837">
        <ele>34</ele>
        <time>2026-08-05T08:39:41Z</time>
      </trkpt>
      <trkpt lat="43.33643" lon="-1.79837">
        <ele>34</ele>
        <time>2026-08-05T08:39:42Z</time>
      </trkpt>
      <trkpt lat="43.33641" lon="-1.79838">
        <ele>34</ele>
        <time>2026-08-05T08:39:43Z</time>
      </trkpt>
      <trkpt lat="43.33638" lon="-1.79839">
        <ele>34</ele>
        <time>2026-08-05T08:39:44Z</time>
      </trkpt>
      <trkpt lat="43.33635" lon="-1.79839">
        <ele>34.4</ele>
        <time>2026-08-05T08:39:45Z</time>
      </trkpt>
      <trkpt lat="43.33632" lon="-1.79839">
        <ele>34.6</ele>
        <time>2026-08-05T08:39:46Z</time>
      </trkpt>
      <trkpt lat="43.33629" lon="-1.7984">
        <ele>34.6</ele>
        <time>2026-08-05T08:39:47Z</time>
      </trkpt>
      <trkpt lat="43.33626" lon="-1.79841">
        <ele>34.6</ele>
        <time>2026-08-05T08:39:48Z</time>
      </trkpt>
      <trkpt lat="43.33624" lon="-1.79841">
        <ele>34.6</ele>
        <time>2026-08-05T08:39:49Z</time>
      </trkpt>
      <trkpt lat="43.33621" lon="-1.79842">
        <ele>34.6</ele>
        <time>2026-08-05T08:39:50Z</time>
      </trkpt>
      <trkpt lat="43.33618" lon="-1.79842">
        <ele>34.6</ele>
        <time>2026-08-05T08:39:51Z</time>
      </trkpt>
      <trkpt lat="43.33615" lon="-1.79842">
        <ele>34.8</ele>
        <time>2026-08-05T08:39:52Z</time>
      </trkpt>
      <trkpt lat="43.33612" lon="-1.79843">
        <ele>35</ele>
        <time>2026-08-05T08:39:53Z</time>
      </trkpt>
      <trkpt lat="43.3361" lon="-1.79843">
        <ele>35</ele>
        <time>2026-08-05T08:39:54Z</time>
      </trkpt>
      <trkpt lat="43.33608" lon="-1.79843">
        <ele>35</ele>
        <time>2026-08-05T08:39:55Z</time>
      </trkpt>
      <trkpt lat="43.33605" lon="-1.79843">
        <ele>35</ele>
        <time>2026-08-05T08:39:56Z</time>
      </trkpt>
      <trkpt lat="43.33603" lon="-1.79844">
        <ele>34.6</ele>
        <time>2026-08-05T08:39:57Z</time>
      </trkpt>
      <trkpt lat="43.33601" lon="-1.79844">
        <ele>34.6</ele>
        <time>2026-08-05T08:39:58Z</time>
      </trkpt>
      <trkpt lat="43.33598" lon="-1.79844">
        <ele>34.6</ele>
        <time>2026-08-05T08:39:59Z</time>
      </trkpt>
      <trkpt lat="43.33595" lon="-1.79844">
        <ele>34.6</ele>
        <time>2026-08-05T08:40:00Z</time>
      </trkpt>
      <trkpt lat="43.33592" lon="-1.79844">
        <ele>34.6</ele>
        <time>2026-08-05T08:40:01Z</time>
      </trkpt>
      <trkpt lat="43.33589" lon="-1.79843">
        <ele>34</ele>
        <time>2026-08-05T08:40:02Z</time>
      </trkpt>
      <trkpt lat="43.33587" lon="-1.79841">
        <ele>33.8</ele>
        <time>2026-08-05T08:40:03Z</time>
      </trkpt>
      <trkpt lat="43.33586" lon="-1.7984">
        <ele>33.8</ele>
        <time>2026-08-05T08:40:04Z</time>
      </trkpt>
      <trkpt lat="43.33585" lon="-1.79839">
        <ele>33.6</ele>
        <time>2026-08-05T08:40:05Z</time>
      </trkpt>
      <trkpt lat="43.33584" lon="-1.79839">
        <ele>33.6</ele>
        <time>2026-08-05T08:40:06Z</time>
      </trkpt>
      <trkpt lat="43.33584" lon="-1.79839">
        <ele>33.6</ele>
        <time>2026-08-05T08:40:07Z</time>
      </trkpt>
      <trkpt lat="43.33581" lon="-1.79845">
        <ele>33.2</ele>
        <time>2026-08-05T08:40:19Z</time>
      </trkpt>
      <trkpt lat="43.3358" lon="-1.79846">
        <ele>33.2</ele>
        <time>2026-08-05T08:40:20Z</time>
      </trkpt>
      <trkpt lat="43.33579" lon="-1.79846">
        <ele>33.2</ele>
        <time>2026-08-05T08:40:21Z</time>
      </trkpt>
      <trkpt lat="43.33578" lon="-1.79846">
        <ele>33.2</ele>
        <time>2026-08-05T08:40:22Z</time>
      </trkpt>
      <trkpt lat="43.33569" lon="-1.79848">
        <ele>32.6</ele>
        <time>2026-08-05T08:40:49Z</time>
      </trkpt>
      <trkpt lat="43.33566" lon="-1.79849">
        <ele>32.6</ele>
        <time>2026-08-05T08:40:50Z</time>
      </trkpt>
      <trkpt lat="43.33563" lon="-1.79849">
        <ele>32.6</ele>
        <time>2026-08-05T08:40:51Z</time>
      </trkpt>
      <trkpt lat="43.33559" lon="-1.7985">
        <ele>32.6</ele>
        <time>2026-08-05T08:40:52Z</time>
      </trkpt>
      <trkpt lat="43.33556" lon="-1.79852">
        <ele>32.6</ele>
        <time>2026-08-05T08:40:53Z</time>
      </trkpt>
      <trkpt lat="43.33553" lon="-1.79856">
        <ele>32.6</ele>
        <time>2026-08-05T08:40:54Z</time>
      </trkpt>
      <trkpt lat="43.33551" lon="-1.7986">
        <ele>32.6</ele>
        <time>2026-08-05T08:40:55Z</time>
      </trkpt>
      <trkpt lat="43.33549" lon="-1.79865">
        <ele>32.4</ele>
        <time>2026-08-05T08:40:56Z</time>
      </trkpt>
      <trkpt lat="43.33546" lon="-1.7987">
        <ele>32.4</ele>
        <time>2026-08-05T08:40:57Z</time>
      </trkpt>
      <trkpt lat="43.33544" lon="-1.79875">
        <ele>32.4</ele>
        <time>2026-08-05T08:40:58Z</time>
      </trkpt>
      <trkpt lat="43.33542" lon="-1.7988">
        <ele>32.4</ele>
        <time>2026-08-05T08:40:59Z</time>
      </trkpt>
      <trkpt lat="43.3354" lon="-1.79884">
        <ele>32.4</ele>
        <time>2026-08-05T08:41:00Z</time>
      </trkpt>
      <trkpt lat="43.33538" lon="-1.7989">
        <ele>32.4</ele>
        <time>2026-08-05T08:41:01Z</time>
      </trkpt>
      <trkpt lat="43.33536" lon="-1.79895">
        <ele>32.4</ele>
        <time>2026-08-05T08:41:02Z</time>
      </trkpt>
      <trkpt lat="43.33534" lon="-1.799">
        <ele>32.4</ele>
        <time>2026-08-05T08:41:03Z</time>
      </trkpt>
      <trkpt lat="43.33532" lon="-1.79905">
        <ele>32.4</ele>
        <time>2026-08-05T08:41:04Z</time>
      </trkpt>
      <trkpt lat="43.3353" lon="-1.7991">
        <ele>32.4</ele>
        <time>2026-08-05T08:41:05Z</time>
      </trkpt>
      <trkpt lat="43.33528" lon="-1.79915">
        <ele>32.4</ele>
        <time>2026-08-05T08:41:06Z</time>
      </trkpt>
      <trkpt lat="43.33526" lon="-1.7992">
        <ele>32.6</ele>
        <time>2026-08-05T08:41:07Z</time>
      </trkpt>
      <trkpt lat="43.33524" lon="-1.79924">
        <ele>33.6</ele>
        <time>2026-08-05T08:41:08Z</time>
      </trkpt>
      <trkpt lat="43.33522" lon="-1.79929">
        <ele>33.6</ele>
        <time>2026-08-05T08:41:09Z</time>
      </trkpt>
      <trkpt lat="43.3352" lon="-1.79933">
        <ele>33.6</ele>
        <time>2026-08-05T08:41:10Z</time>
      </trkpt>
      <trkpt lat="43.33517" lon="-1.79937">
        <ele>32.8</ele>
        <time>2026-08-05T08:41:11Z</time>
      </trkpt>
      <trkpt lat="43.33516" lon="-1.79941">
        <ele>32.8</ele>
        <time>2026-08-05T08:41:12Z</time>
      </trkpt>
      <trkpt lat="43.33514" lon="-1.79945">
        <ele>32.8</ele>
        <time>2026-08-05T08:41:13Z</time>
      </trkpt>
      <trkpt lat="43.33512" lon="-1.79948">
        <ele>34</ele>
        <time>2026-08-05T08:41:14Z</time>
      </trkpt>
      <trkpt lat="43.33511" lon="-1.79951">
        <ele>34</ele>
        <time>2026-08-05T08:41:15Z</time>
      </trkpt>
      <trkpt lat="43.3351" lon="-1.79953">
        <ele>34</ele>
        <time>2026-08-05T08:41:16Z</time>
      </trkpt>
      <trkpt lat="43.3351" lon="-1.79955">
        <ele>34</ele>
        <time>2026-08-05T08:41:17Z</time>
      </trkpt>
      <trkpt lat="43.33509" lon="-1.79956">
        <ele>34</ele>
        <time>2026-08-05T08:41:18Z</time>
      </trkpt>
      <trkpt lat="43.33508" lon="-1.79957">
        <ele>34</ele>
        <time>2026-08-05T08:41:19Z</time>
      </trkpt>
      <trkpt lat="43.33507" lon="-1.79958">
        <ele>34</ele>
        <time>2026-08-05T08:41:20Z</time>
      </trkpt>
      <trkpt lat="43.33506" lon="-1.79959">
        <ele>34</ele>
        <time>2026-08-05T08:41:21Z</time>
      </trkpt>
      <trkpt lat="43.33505" lon="-1.79961">
        <ele>34.2</ele>
        <time>2026-08-05T08:41:22Z</time>
      </trkpt>
      <trkpt lat="43.33503" lon="-1.79963">
        <ele>34.8</ele>
        <time>2026-08-05T08:41:23Z</time>
      </trkpt>
      <trkpt lat="43.33502" lon="-1.79967">
        <ele>34.8</ele>
        <time>2026-08-05T08:41:24Z</time>
      </trkpt>
      <trkpt lat="43.335" lon="-1.79971">
        <ele>34.8</ele>
        <time>2026-08-05T08:41:25Z</time>
      </trkpt>
      <trkpt lat="43.33498" lon="-1.79976">
        <ele>34.8</ele>
        <time>2026-08-05T08:41:26Z</time>
      </trkpt>
      <trkpt lat="43.33497" lon="-1.79981">
        <ele>34.8</ele>
        <time>2026-08-05T08:41:27Z</time>
      </trkpt>
      <trkpt lat="43.33495" lon="-1.79985">
        <ele>34.8</ele>
        <time>2026-08-05T08:41:28Z</time>
      </trkpt>
      <trkpt lat="43.33493" lon="-1.79989">
        <ele>35.8</ele>
        <time>2026-08-05T08:41:29Z</time>
      </trkpt>
      <trkpt lat="43.33491" lon="-1.79993">
        <ele>35.8</ele>
        <time>2026-08-05T08:41:30Z</time>
      </trkpt>
      <trkpt lat="43.3349" lon="-1.79996">
        <ele>36</ele>
        <time>2026-08-05T08:41:31Z</time>
      </trkpt>
      <trkpt lat="43.33488" lon="-1.8">
        <ele>36.2</ele>
        <time>2026-08-05T08:41:32Z</time>
      </trkpt>
      <trkpt lat="43.33486" lon="-1.80003">
        <ele>36.4</ele>
        <time>2026-08-05T08:41:33Z</time>
      </trkpt>
      <trkpt lat="43.33485" lon="-1.80006">
        <ele>36.8</ele>
        <time>2026-08-05T08:41:34Z</time>
      </trkpt>
      <trkpt lat="43.33483" lon="-1.8001">
        <ele>36.8</ele>
        <time>2026-08-05T08:41:35Z</time>
      </trkpt>
      <trkpt lat="43.33481" lon="-1.80013">
        <ele>37</ele>
        <time>2026-08-05T08:41:36Z</time>
      </trkpt>
      <trkpt lat="43.33479" lon="-1.80016">
        <ele>37.2</ele>
        <time>2026-08-05T08:41:37Z</time>
      </trkpt>
      <trkpt lat="43.33478" lon="-1.8002">
        <ele>37.4</ele>
        <time>2026-08-05T08:41:38Z</time>
      </trkpt>
      <trkpt lat="43.33475" lon="-1.80023">
        <ele>37.8</ele>
        <time>2026-08-05T08:41:39Z</time>
      </trkpt>
      <trkpt lat="43.33473" lon="-1.80027">
        <ele>38</ele>
        <time>2026-08-05T08:41:40Z</time>
      </trkpt>
      <trkpt lat="43.3347" lon="-1.80032">
        <ele>38</ele>
        <time>2026-08-05T08:41:41Z</time>
      </trkpt>
      <trkpt lat="43.33468" lon="-1.80037">
        <ele>38</ele>
        <time>2026-08-05T08:41:42Z</time>
      </trkpt>
      <trkpt lat="43.33466" lon="-1.80042">
        <ele>38</ele>
        <time>2026-08-05T08:41:43Z</time>
      </trkpt>
      <trkpt lat="43.33463" lon="-1.80047">
        <ele>38</ele>
        <time>2026-08-05T08:41:44Z</time>
      </trkpt>
      <trkpt lat="43.33461" lon="-1.80052">
        <ele>38.8</ele>
        <time>2026-08-05T08:41:45Z</time>
      </trkpt>
      <trkpt lat="43.33458" lon="-1.80057">
        <ele>39.2</ele>
        <time>2026-08-05T08:41:46Z</time>
      </trkpt>
      <trkpt lat="43.33456" lon="-1.80063">
        <ele>39.6</ele>
        <time>2026-08-05T08:41:47Z</time>
      </trkpt>
      <trkpt lat="43.33453" lon="-1.80068">
        <ele>39.6</ele>
        <time>2026-08-05T08:41:48Z</time>
      </trkpt>
      <trkpt lat="43.33451" lon="-1.80073">
        <ele>39.6</ele>
        <time>2026-08-05T08:41:49Z</time>
      </trkpt>
      <trkpt lat="43.33451" lon="-1.80078">
        <ele>39.6</ele>
        <time>2026-08-05T08:41:50Z</time>
      </trkpt>
      <trkpt lat="43.3345" lon="-1.80082">
        <ele>39.6</ele>
        <time>2026-08-05T08:41:51Z</time>
      </trkpt>
      <trkpt lat="43.33448" lon="-1.80086">
        <ele>39.6</ele>
        <time>2026-08-05T08:41:52Z</time>
      </trkpt>
      <trkpt lat="43.33446" lon="-1.80089">
        <ele>39.4</ele>
        <time>2026-08-05T08:41:53Z</time>
      </trkpt>
      <trkpt lat="43.33444" lon="-1.80092">
        <ele>39.4</ele>
        <time>2026-08-05T08:41:54Z</time>
      </trkpt>
      <trkpt lat="43.33441" lon="-1.80096">
        <ele>39.4</ele>
        <time>2026-08-05T08:41:55Z</time>
      </trkpt>
      <trkpt lat="43.3344" lon="-1.80102">
        <ele>39.6</ele>
        <time>2026-08-05T08:41:56Z</time>
      </trkpt>
      <trkpt lat="43.33439" lon="-1.80108">
        <ele>39.6</ele>
        <time>2026-08-05T08:41:57Z</time>
      </trkpt>
      <trkpt lat="43.33439" lon="-1.80114">
        <ele>39.6</ele>
        <time>2026-08-05T08:41:58Z</time>
      </trkpt>
      <trkpt lat="43.33439" lon="-1.80121">
        <ele>39.6</ele>
        <time>2026-08-05T08:41:59Z</time>
      </trkpt>
      <trkpt lat="43.33439" lon="-1.80128">
        <ele>38.8</ele>
        <time>2026-08-05T08:42:00Z</time>
      </trkpt>
      <trkpt lat="43.33437" lon="-1.80134">
        <ele>38.6</ele>
        <time>2026-08-05T08:42:01Z</time>
      </trkpt>
      <trkpt lat="43.33434" lon="-1.80141">
        <ele>37.2</ele>
        <time>2026-08-05T08:42:02Z</time>
      </trkpt>
      <trkpt lat="43.33431" lon="-1.80148">
        <ele>37</ele>
        <time>2026-08-05T08:42:03Z</time>
      </trkpt>
      <trkpt lat="43.33427" lon="-1.80154">
        <ele>37</ele>
        <time>2026-08-05T08:42:04Z</time>
      </trkpt>
      <trkpt lat="43.33422" lon="-1.8016">
        <ele>36.6</ele>
        <time>2026-08-05T08:42:05Z</time>
      </trkpt>
      <trkpt lat="43.33417" lon="-1.80165">
        <ele>36</ele>
        <time>2026-08-05T08:42:06Z</time>
      </trkpt>
      <trkpt lat="43.33412" lon="-1.8017">
        <ele>35.8</ele>
        <time>2026-08-05T08:42:07Z</time>
      </trkpt>
      <trkpt lat="43.33407" lon="-1.80172">
        <ele>35.8</ele>
        <time>2026-08-05T08:42:08Z</time>
      </trkpt>
      <trkpt lat="43.33401" lon="-1.80175">
        <ele>35.8</ele>
        <time>2026-08-05T08:42:09Z</time>
      </trkpt>
      <trkpt lat="43.33396" lon="-1.80178">
        <ele>35.8</ele>
        <time>2026-08-05T08:42:10Z</time>
      </trkpt>
      <trkpt lat="43.33393" lon="-1.80182">
        <ele>34.8</ele>
        <time>2026-08-05T08:42:11Z</time>
      </trkpt>
      <trkpt lat="43.3339" lon="-1.80187">
        <ele>34.8</ele>
        <time>2026-08-05T08:42:12Z</time>
      </trkpt>
      <trkpt lat="43.33387" lon="-1.80192">
        <ele>34.8</ele>
        <time>2026-08-05T08:42:13Z</time>
      </trkpt>
      <trkpt lat="43.33385" lon="-1.80197">
        <ele>34.8</ele>
        <time>2026-08-05T08:42:14Z</time>
      </trkpt>
      <trkpt lat="43.33383" lon="-1.80201">
        <ele>34.8</ele>
        <time>2026-08-05T08:42:15Z</time>
      </trkpt>
      <trkpt lat="43.33381" lon="-1.80206">
        <ele>34.8</ele>
        <time>2026-08-05T08:42:16Z</time>
      </trkpt>
      <trkpt lat="43.33379" lon="-1.8021">
        <ele>34.2</ele>
        <time>2026-08-05T08:42:17Z</time>
      </trkpt>
      <trkpt lat="43.33377" lon="-1.80215">
        <ele>34.2</ele>
        <time>2026-08-05T08:42:18Z</time>
      </trkpt>
      <trkpt lat="43.33377" lon="-1.8022">
        <ele>33.6</ele>
        <time>2026-08-05T08:42:19Z</time>
      </trkpt>
      <trkpt lat="43.33379" lon="-1.80225">
        <ele>33.4</ele>
        <time>2026-08-05T08:42:20Z</time>
      </trkpt>
      <trkpt lat="43.33382" lon="-1.80229">
        <ele>32.8</ele>
        <time>2026-08-05T08:42:21Z</time>
      </trkpt>
      <trkpt lat="43.33386" lon="-1.80233">
        <ele>32.8</ele>
        <time>2026-08-05T08:42:22Z</time>
      </trkpt>
      <trkpt lat="43.33389" lon="-1.80236">
        <ele>32.8</ele>
        <time>2026-08-05T08:42:23Z</time>
      </trkpt>
      <trkpt lat="43.33393" lon="-1.8024">
        <ele>32.2</ele>
        <time>2026-08-05T08:42:24Z</time>
      </trkpt>
      <trkpt lat="43.33396" lon="-1.80244">
        <ele>32.2</ele>
        <time>2026-08-05T08:42:25Z</time>
      </trkpt>
      <trkpt lat="43.334" lon="-1.80248">
        <ele>32.2</ele>
        <time>2026-08-05T08:42:26Z</time>
      </trkpt>
      <trkpt lat="43.33403" lon="-1.80251">
        <ele>32.6</ele>
        <time>2026-08-05T08:42:27Z</time>
      </trkpt>
      <trkpt lat="43.33405" lon="-1.80254">
        <ele>32.6</ele>
        <time>2026-08-05T08:42:28Z</time>
      </trkpt>
      <trkpt lat="43.33406" lon="-1.80257">
        <ele>32.6</ele>
        <time>2026-08-05T08:42:29Z</time>
      </trkpt>
      <trkpt lat="43.33406" lon="-1.8026">
        <ele>32.2</ele>
        <time>2026-08-05T08:42:30Z</time>
      </trkpt>
      <trkpt lat="43.33405" lon="-1.80264">
        <ele>32.6</ele>
        <time>2026-08-05T08:42:31Z</time>
      </trkpt>
      <trkpt lat="43.33404" lon="-1.80267">
        <ele>32.6</ele>
        <time>2026-08-05T08:42:32Z</time>
      </trkpt>
      <trkpt lat="43.33403" lon="-1.8027">
        <ele>32.6</ele>
        <time>2026-08-05T08:42:33Z</time>
      </trkpt>
      <trkpt lat="43.33401" lon="-1.80274">
        <ele>32.6</ele>
        <time>2026-08-05T08:42:34Z</time>
      </trkpt>
      <trkpt lat="43.334" lon="-1.80278">
        <ele>32.4</ele>
        <time>2026-08-05T08:42:35Z</time>
      </trkpt>
      <trkpt lat="43.33398" lon="-1.80282">
        <ele>32</ele>
        <time>2026-08-05T08:42:36Z</time>
      </trkpt>
      <trkpt lat="43.33396" lon="-1.80286">
        <ele>32</ele>
        <time>2026-08-05T08:42:37Z</time>
      </trkpt>
      <trkpt lat="43.33395" lon="-1.8029">
        <ele>32</ele>
        <time>2026-08-05T08:42:38Z</time>
      </trkpt>
      <trkpt lat="43.33394" lon="-1.80294">
        <ele>32</ele>
        <time>2026-08-05T08:42:39Z</time>
      </trkpt>
      <trkpt lat="43.33392" lon="-1.80298">
        <ele>32</ele>
        <time>2026-08-05T08:42:40Z</time>
      </trkpt>
      <trkpt lat="43.33391" lon="-1.80302">
        <ele>31.8</ele>
        <time>2026-08-05T08:42:41Z</time>
      </trkpt>
      <trkpt lat="43.33389" lon="-1.80307">
        <ele>31.8</ele>
        <time>2026-08-05T08:42:42Z</time>
      </trkpt>
      <trkpt lat="43.33387" lon="-1.80311">
        <ele>31.8</ele>
        <time>2026-08-05T08:42:43Z</time>
      </trkpt>
      <trkpt lat="43.33385" lon="-1.80316">
        <ele>31.8</ele>
        <time>2026-08-05T08:42:44Z</time>
      </trkpt>
      <trkpt lat="43.33383" lon="-1.8032">
        <ele>32</ele>
        <time>2026-08-05T08:42:45Z</time>
      </trkpt>
      <trkpt lat="43.33382" lon="-1.80324">
        <ele>32.4</ele>
        <time>2026-08-05T08:42:46Z</time>
      </trkpt>
      <trkpt lat="43.33379" lon="-1.80328">
        <ele>32.4</ele>
        <time>2026-08-05T08:42:47Z</time>
      </trkpt>
      <trkpt lat="43.33378" lon="-1.80333">
        <ele>32.4</ele>
        <time>2026-08-05T08:42:48Z</time>
      </trkpt>
      <trkpt lat="43.33376" lon="-1.80338">
        <ele>32</ele>
        <time>2026-08-05T08:42:49Z</time>
      </trkpt>
      <trkpt lat="43.33374" lon="-1.80342">
        <ele>32</ele>
        <time>2026-08-05T08:42:50Z</time>
      </trkpt>
      <trkpt lat="43.33372" lon="-1.80347">
        <ele>32</ele>
        <time>2026-08-05T08:42:51Z</time>
      </trkpt>
      <trkpt lat="43.33371" lon="-1.80351">
        <ele>32</ele>
        <time>2026-08-05T08:42:52Z</time>
      </trkpt>
      <trkpt lat="43.33369" lon="-1.80355">
        <ele>32</ele>
        <time>2026-08-05T08:42:53Z</time>
      </trkpt>
      <trkpt lat="43.33368" lon="-1.80359">
        <ele>32</ele>
        <time>2026-08-05T08:42:54Z</time>
      </trkpt>
      <trkpt lat="43.33367" lon="-1.80363">
        <ele>32.6</ele>
        <time>2026-08-05T08:42:55Z</time>
      </trkpt>
      <trkpt lat="43.33366" lon="-1.80367">
        <ele>32.6</ele>
        <time>2026-08-05T08:42:56Z</time>
      </trkpt>
      <trkpt lat="43.33365" lon="-1.80372">
        <ele>32.6</ele>
        <time>2026-08-05T08:42:57Z</time>
      </trkpt>
      <trkpt lat="43.33364" lon="-1.80377">
        <ele>32.6</ele>
        <time>2026-08-05T08:42:58Z</time>
      </trkpt>
      <trkpt lat="43.33364" lon="-1.80381">
        <ele>32.6</ele>
        <time>2026-08-05T08:42:59Z</time>
      </trkpt>
      <trkpt lat="43.33363" lon="-1.80386">
        <ele>32.6</ele>
        <time>2026-08-05T08:43:00Z</time>
      </trkpt>
      <trkpt lat="43.33362" lon="-1.8039">
        <ele>32.6</ele>
        <time>2026-08-05T08:43:01Z</time>
      </trkpt>
      <trkpt lat="43.33361" lon="-1.80394">
        <ele>32.6</ele>
        <time>2026-08-05T08:43:02Z</time>
      </trkpt>
      <trkpt lat="43.3336" lon="-1.80399">
        <ele>32.6</ele>
        <time>2026-08-05T08:43:03Z</time>
      </trkpt>
      <trkpt lat="43.3336" lon="-1.80403">
        <ele>32.8</ele>
        <time>2026-08-05T08:43:04Z</time>
      </trkpt>
      <trkpt lat="43.33358" lon="-1.80408">
        <ele>32.8</ele>
        <time>2026-08-05T08:43:05Z</time>
      </trkpt>
      <trkpt lat="43.33357" lon="-1.80413">
        <ele>32.8</ele>
        <time>2026-08-05T08:43:06Z</time>
      </trkpt>
      <trkpt lat="43.33356" lon="-1.80417">
        <ele>32.4</ele>
        <time>2026-08-05T08:43:07Z</time>
      </trkpt>
      <trkpt lat="43.33355" lon="-1.80422">
        <ele>32.2</ele>
        <time>2026-08-05T08:43:08Z</time>
      </trkpt>
      <trkpt lat="43.33354" lon="-1.80427">
        <ele>32.2</ele>
        <time>2026-08-05T08:43:09Z</time>
      </trkpt>
      <trkpt lat="43.33353" lon="-1.80431">
        <ele>32.2</ele>
        <time>2026-08-05T08:43:10Z</time>
      </trkpt>
      <trkpt lat="43.33352" lon="-1.80436">
        <ele>33.2</ele>
        <time>2026-08-05T08:43:11Z</time>
      </trkpt>
      <trkpt lat="43.33351" lon="-1.8044">
        <ele>33.2</ele>
        <time>2026-08-05T08:43:12Z</time>
      </trkpt>
      <trkpt lat="43.3335" lon="-1.80445">
        <ele>33.2</ele>
        <time>2026-08-05T08:43:13Z</time>
      </trkpt>
      <trkpt lat="43.33348" lon="-1.80449">
        <ele>33.2</ele>
        <time>2026-08-05T08:43:14Z</time>
      </trkpt>
      <trkpt lat="43.33347" lon="-1.80453">
        <ele>33.2</ele>
        <time>2026-08-05T08:43:15Z</time>
      </trkpt>
      <trkpt lat="43.33346" lon="-1.80458">
        <ele>33.6</ele>
        <time>2026-08-05T08:43:16Z</time>
      </trkpt>
      <trkpt lat="43.33345" lon="-1.80462">
        <ele>33.6</ele>
        <time>2026-08-05T08:43:17Z</time>
      </trkpt>
      <trkpt lat="43.33344" lon="-1.80466">
        <ele>33.6</ele>
        <time>2026-08-05T08:43:18Z</time>
      </trkpt>
      <trkpt lat="43.33343" lon="-1.8047">
        <ele>33.6</ele>
        <time>2026-08-05T08:43:19Z</time>
      </trkpt>
      <trkpt lat="43.33342" lon="-1.80475">
        <ele>34.4</ele>
        <time>2026-08-05T08:43:20Z</time>
      </trkpt>
      <trkpt lat="43.33341" lon="-1.80479">
        <ele>34.4</ele>
        <time>2026-08-05T08:43:21Z</time>
      </trkpt>
      <trkpt lat="43.3334" lon="-1.80483">
        <ele>34.6</ele>
        <time>2026-08-05T08:43:22Z</time>
      </trkpt>
      <trkpt lat="43.33339" lon="-1.80487">
        <ele>34.8</ele>
        <time>2026-08-05T08:43:23Z</time>
      </trkpt>
      <trkpt lat="43.33339" lon="-1.80491">
        <ele>35.2</ele>
        <time>2026-08-05T08:43:24Z</time>
      </trkpt>
      <trkpt lat="43.33338" lon="-1.80495">
        <ele>35.6</ele>
        <time>2026-08-05T08:43:25Z</time>
      </trkpt>
      <trkpt lat="43.33337" lon="-1.80498">
        <ele>35.8</ele>
        <time>2026-08-05T08:43:26Z</time>
      </trkpt>
      <trkpt lat="43.33336" lon="-1.80503">
        <ele>36.2</ele>
        <time>2026-08-05T08:43:27Z</time>
      </trkpt>
      <trkpt lat="43.33335" lon="-1.80507">
        <ele>36.2</ele>
        <time>2026-08-05T08:43:28Z</time>
      </trkpt>
      <trkpt lat="43.33334" lon="-1.80511">
        <ele>36.2</ele>
        <time>2026-08-05T08:43:29Z</time>
      </trkpt>
      <trkpt lat="43.33333" lon="-1.80515">
        <ele>36.2</ele>
        <time>2026-08-05T08:43:30Z</time>
      </trkpt>
      <trkpt lat="43.33332" lon="-1.80519">
        <ele>36.8</ele>
        <time>2026-08-05T08:43:31Z</time>
      </trkpt>
      <trkpt lat="43.33331" lon="-1.80523">
        <ele>37.2</ele>
        <time>2026-08-05T08:43:32Z</time>
      </trkpt>
      <trkpt lat="43.33331" lon="-1.80526">
        <ele>37.4</ele>
        <time>2026-08-05T08:43:33Z</time>
      </trkpt>
      <trkpt lat="43.3333" lon="-1.8053">
        <ele>37.6</ele>
        <time>2026-08-05T08:43:34Z</time>
      </trkpt>
      <trkpt lat="43.33329" lon="-1.80534">
        <ele>37.6</ele>
        <time>2026-08-05T08:43:35Z</time>
      </trkpt>
      <trkpt lat="43.33328" lon="-1.80538">
        <ele>37.6</ele>
        <time>2026-08-05T08:43:36Z</time>
      </trkpt>
      <trkpt lat="43.33327" lon="-1.80542">
        <ele>37.8</ele>
        <time>2026-08-05T08:43:37Z</time>
      </trkpt>
      <trkpt lat="43.33327" lon="-1.80546">
        <ele>37.8</ele>
        <time>2026-08-05T08:43:38Z</time>
      </trkpt>
      <trkpt lat="43.33326" lon="-1.8055">
        <ele>37.8</ele>
        <time>2026-08-05T08:43:39Z</time>
      </trkpt>
      <trkpt lat="43.33325" lon="-1.80554">
        <ele>37.8</ele>
        <time>2026-08-05T08:43:40Z</time>
      </trkpt>
      <trkpt lat="43.33324" lon="-1.80558">
        <ele>38.8</ele>
        <time>2026-08-05T08:43:41Z</time>
      </trkpt>
      <trkpt lat="43.33323" lon="-1.80562">
        <ele>39</ele>
        <time>2026-08-05T08:43:42Z</time>
      </trkpt>
      <trkpt lat="43.33322" lon="-1.80566">
        <ele>39</ele>
        <time>2026-08-05T08:43:43Z</time>
      </trkpt>
      <trkpt lat="43.33321" lon="-1.8057">
        <ele>39.2</ele>
        <time>2026-08-05T08:43:44Z</time>
      </trkpt>
      <trkpt lat="43.3332" lon="-1.80574">
        <ele>39.2</ele>
        <time>2026-08-05T08:43:45Z</time>
      </trkpt>
      <trkpt lat="43.33318" lon="-1.80578">
        <ele>39.2</ele>
        <time>2026-08-05T08:43:46Z</time>
      </trkpt>
      <trkpt lat="43.33317" lon="-1.80582">
        <ele>39.8</ele>
        <time>2026-08-05T08:43:47Z</time>
      </trkpt>
      <trkpt lat="43.33316" lon="-1.80586">
        <ele>40</ele>
        <time>2026-08-05T08:43:48Z</time>
      </trkpt>
      <trkpt lat="43.33315" lon="-1.8059">
        <ele>40</ele>
        <time>2026-08-05T08:43:49Z</time>
      </trkpt>
      <trkpt lat="43.33314" lon="-1.80594">
        <ele>40</ele>
        <time>2026-08-05T08:43:50Z</time>
      </trkpt>
      <trkpt lat="43.33313" lon="-1.80598">
        <ele>40</ele>
        <time>2026-08-05T08:43:51Z</time>
      </trkpt>
      <trkpt lat="43.33312" lon="-1.80603">
        <ele>40</ele>
        <time>2026-08-05T08:43:52Z</time>
      </trkpt>
      <trkpt lat="43.33311" lon="-1.80607">
        <ele>40.2</ele>
        <time>2026-08-05T08:43:53Z</time>
      </trkpt>
      <trkpt lat="43.3331" lon="-1.80611">
        <ele>40.4</ele>
        <time>2026-08-05T08:43:54Z</time>
      </trkpt>
      <trkpt lat="43.33309" lon="-1.80616">
        <ele>40.4</ele>
        <time>2026-08-05T08:43:55Z</time>
      </trkpt>
      <trkpt lat="43.33308" lon="-1.8062">
        <ele>40.4</ele>
        <time>2026-08-05T08:43:56Z</time>
      </trkpt>
      <trkpt lat="43.33307" lon="-1.80624">
        <ele>40.4</ele>
        <time>2026-08-05T08:43:57Z</time>
      </trkpt>
      <trkpt lat="43.33306" lon="-1.80629">
        <ele>40.4</ele>
        <time>2026-08-05T08:43:58Z</time>
      </trkpt>
      <trkpt lat="43.33305" lon="-1.80634">
        <ele>40.4</ele>
        <time>2026-08-05T08:43:59Z</time>
      </trkpt>
      <trkpt lat="43.33304" lon="-1.80638">
        <ele>40.4</ele>
        <time>2026-08-05T08:44:00Z</time>
      </trkpt>
      <trkpt lat="43.33303" lon="-1.80643">
        <ele>40.4</ele>
        <time>2026-08-05T08:44:01Z</time>
      </trkpt>
      <trkpt lat="43.33302" lon="-1.80648">
        <ele>40.4</ele>
        <time>2026-08-05T08:44:02Z</time>
      </trkpt>
      <trkpt lat="43.33301" lon="-1.80652">
        <ele>40.4</ele>
        <time>2026-08-05T08:44:03Z</time>
      </trkpt>
      <trkpt lat="43.333" lon="-1.80657">
        <ele>40.6</ele>
        <time>2026-08-05T08:44:04Z</time>
      </trkpt>
      <trkpt lat="43.33299" lon="-1.80661">
        <ele>40.6</ele>
        <time>2026-08-05T08:44:05Z</time>
      </trkpt>
      <trkpt lat="43.33298" lon="-1.80665">
        <ele>41.2</ele>
        <time>2026-08-05T08:44:06Z</time>
      </trkpt>
      <trkpt lat="43.33298" lon="-1.8067">
        <ele>41.2</ele>
        <time>2026-08-05T08:44:07Z</time>
      </trkpt>
      <trkpt lat="43.33297" lon="-1.80674">
        <ele>41.2</ele>
        <time>2026-08-05T08:44:08Z</time>
      </trkpt>
      <trkpt lat="43.33295" lon="-1.80677">
        <ele>41</ele>
        <time>2026-08-05T08:44:09Z</time>
      </trkpt>
      <trkpt lat="43.33293" lon="-1.8068">
        <ele>41</ele>
        <time>2026-08-05T08:44:10Z</time>
      </trkpt>
      <trkpt lat="43.33292" lon="-1.80682">
        <ele>41.8</ele>
        <time>2026-08-05T08:44:11Z</time>
      </trkpt>
      <trkpt lat="43.3329" lon="-1.80685">
        <ele>42</ele>
        <time>2026-08-05T08:44:12Z</time>
      </trkpt>
      <trkpt lat="43.33289" lon="-1.80687">
        <ele>42</ele>
        <time>2026-08-05T08:44:13Z</time>
      </trkpt>
      <trkpt lat="43.33287" lon="-1.80689">
        <ele>42</ele>
        <time>2026-08-05T08:44:14Z</time>
      </trkpt>
      <trkpt lat="43.33287" lon="-1.80689">
        <ele>42</ele>
        <time>2026-08-05T08:44:15Z</time>
      </trkpt>
      <trkpt lat="43.33284" lon="-1.80696">
        <ele>41.6</ele>
        <time>2026-08-05T08:44:25Z</time>
      </trkpt>
      <trkpt lat="43.33283" lon="-1.807">
        <ele>41.2</ele>
        <time>2026-08-05T08:44:26Z</time>
      </trkpt>
      <trkpt lat="43.33282" lon="-1.80704">
        <ele>41.2</ele>
        <time>2026-08-05T08:44:27Z</time>
      </trkpt>
      <trkpt lat="43.33281" lon="-1.80709">
        <ele>40.8</ele>
        <time>2026-08-05T08:44:28Z</time>
      </trkpt>
      <trkpt lat="43.33279" lon="-1.80714">
        <ele>40.4</ele>
        <time>2026-08-05T08:44:29Z</time>
      </trkpt>
      <trkpt lat="43.33277" lon="-1.8072">
        <ele>40.2</ele>
        <time>2026-08-05T08:44:30Z</time>
      </trkpt>
      <trkpt lat="43.33275" lon="-1.80725">
        <ele>40.2</ele>
        <time>2026-08-05T08:44:31Z</time>
      </trkpt>
      <trkpt lat="43.33273" lon="-1.80731">
        <ele>39.8</ele>
        <time>2026-08-05T08:44:32Z</time>
      </trkpt>
      <trkpt lat="43.33271" lon="-1.80738">
        <ele>38.8</ele>
        <time>2026-08-05T08:44:33Z</time>
      </trkpt>
      <trkpt lat="43.33269" lon="-1.80744">
        <ele>38.8</ele>
        <time>2026-08-05T08:44:34Z</time>
      </trkpt>
      <trkpt lat="43.33267" lon="-1.8075">
        <ele>38.8</ele>
        <time>2026-08-05T08:44:35Z</time>
      </trkpt>
      <trkpt lat="43.33264" lon="-1.80757">
        <ele>38.8</ele>
        <time>2026-08-05T08:44:36Z</time>
      </trkpt>
      <trkpt lat="43.33262" lon="-1.80764">
        <ele>38.6</ele>
        <time>2026-08-05T08:44:37Z</time>
      </trkpt>
      <trkpt lat="43.33259" lon="-1.8077">
        <ele>38</ele>
        <time>2026-08-05T08:44:38Z</time>
      </trkpt>
      <trkpt lat="43.33257" lon="-1.80777">
        <ele>38</ele>
        <time>2026-08-05T08:44:39Z</time>
      </trkpt>
      <trkpt lat="43.33254" lon="-1.80784">
        <ele>37.6</ele>
        <time>2026-08-05T08:44:40Z</time>
      </trkpt>
      <trkpt lat="43.33252" lon="-1.80791">
        <ele>37</ele>
        <time>2026-08-05T08:44:41Z</time>
      </trkpt>
      <trkpt lat="43.33249" lon="-1.80799">
        <ele>36.8</ele>
        <time>2026-08-05T08:44:42Z</time>
      </trkpt>
      <trkpt lat="43.33247" lon="-1.80806">
        <ele>36.8</ele>
        <time>2026-08-05T08:44:43Z</time>
      </trkpt>
      <trkpt lat="43.33244" lon="-1.80814">
        <ele>36.4</ele>
        <time>2026-08-05T08:44:44Z</time>
      </trkpt>
      <trkpt lat="43.33242" lon="-1.80821">
        <ele>36.4</ele>
        <time>2026-08-05T08:44:45Z</time>
      </trkpt>
      <trkpt lat="43.3324" lon="-1.80826">
        <ele>36.4</ele>
        <time>2026-08-05T08:44:46Z</time>
      </trkpt>
      <trkpt lat="43.33238" lon="-1.80832">
        <ele>36.4</ele>
        <time>2026-08-05T08:44:47Z</time>
      </trkpt>
      <trkpt lat="43.33236" lon="-1.80837">
        <ele>36.4</ele>
        <time>2026-08-05T08:44:48Z</time>
      </trkpt>
      <trkpt lat="43.33234" lon="-1.80843">
        <ele>36.4</ele>
        <time>2026-08-05T08:44:49Z</time>
      </trkpt>
      <trkpt lat="43.33232" lon="-1.80848">
        <ele>35.2</ele>
        <time>2026-08-05T08:44:50Z</time>
      </trkpt>
      <trkpt lat="43.33231" lon="-1.80854">
        <ele>34.4</ele>
        <time>2026-08-05T08:44:51Z</time>
      </trkpt>
      <trkpt lat="43.33228" lon="-1.8086">
        <ele>34.4</ele>
        <time>2026-08-05T08:44:52Z</time>
      </trkpt>
      <trkpt lat="43.33226" lon="-1.80867">
        <ele>34.4</ele>
        <time>2026-08-05T08:44:53Z</time>
      </trkpt>
      <trkpt lat="43.33224" lon="-1.80874">
        <ele>34.4</ele>
        <time>2026-08-05T08:44:54Z</time>
      </trkpt>
      <trkpt lat="43.33222" lon="-1.8088">
        <ele>34.4</ele>
        <time>2026-08-05T08:44:55Z</time>
      </trkpt>
      <trkpt lat="43.3322" lon="-1.80886">
        <ele>34.4</ele>
        <time>2026-08-05T08:44:56Z</time>
      </trkpt>
      <trkpt lat="43.33218" lon="-1.80892">
        <ele>34.4</ele>
        <time>2026-08-05T08:44:57Z</time>
      </trkpt>
      <trkpt lat="43.33216" lon="-1.80898">
        <ele>33.4</ele>
        <time>2026-08-05T08:44:58Z</time>
      </trkpt>
      <trkpt lat="43.33214" lon="-1.80903">
        <ele>33.2</ele>
        <time>2026-08-05T08:44:59Z</time>
      </trkpt>
      <trkpt lat="43.33213" lon="-1.80909">
        <ele>33.2</ele>
        <time>2026-08-05T08:45:00Z</time>
      </trkpt>
      <trkpt lat="43.33211" lon="-1.80915">
        <ele>33.2</ele>
        <time>2026-08-05T08:45:01Z</time>
      </trkpt>
      <trkpt lat="43.33209" lon="-1.80921">
        <ele>33.2</ele>
        <time>2026-08-05T08:45:02Z</time>
      </trkpt>
      <trkpt lat="43.33207" lon="-1.80927">
        <ele>33.2</ele>
        <time>2026-08-05T08:45:03Z</time>
      </trkpt>
      <trkpt lat="43.33204" lon="-1.80933">
        <ele>33.2</ele>
        <time>2026-08-05T08:45:04Z</time>
      </trkpt>
      <trkpt lat="43.33202" lon="-1.8094">
        <ele>31.4</ele>
        <time>2026-08-05T08:45:05Z</time>
      </trkpt>
      <trkpt lat="43.332" lon="-1.80947">
        <ele>31.4</ele>
        <time>2026-08-05T08:45:06Z</time>
      </trkpt>
      <trkpt lat="43.33197" lon="-1.80954">
        <ele>31.4</ele>
        <time>2026-08-05T08:45:07Z</time>
      </trkpt>
      <trkpt lat="43.33195" lon="-1.80961">
        <ele>31.4</ele>
        <time>2026-08-05T08:45:08Z</time>
      </trkpt>
      <trkpt lat="43.33192" lon="-1.80968">
        <ele>30.4</ele>
        <time>2026-08-05T08:45:09Z</time>
      </trkpt>
      <trkpt lat="43.3319" lon="-1.80976">
        <ele>29.4</ele>
        <time>2026-08-05T08:45:10Z</time>
      </trkpt>
      <trkpt lat="43.33187" lon="-1.80983">
        <ele>29.4</ele>
        <time>2026-08-05T08:45:11Z</time>
      </trkpt>
      <trkpt lat="43.33184" lon="-1.80991">
        <ele>29.4</ele>
        <time>2026-08-05T08:45:12Z</time>
      </trkpt>
      <trkpt lat="43.3318" lon="-1.80998">
        <ele>29.4</ele>
        <time>2026-08-05T08:45:13Z</time>
      </trkpt>
      <trkpt lat="43.33177" lon="-1.81004">
        <ele>30.6</ele>
        <time>2026-08-05T08:45:14Z</time>
      </trkpt>
      <trkpt lat="43.33174" lon="-1.81009">
        <ele>30.6</ele>
        <time>2026-08-05T08:45:15Z</time>
      </trkpt>
      <trkpt lat="43.33171" lon="-1.81013">
        <ele>30.6</ele>
        <time>2026-08-05T08:45:16Z</time>
      </trkpt>
      <trkpt lat="43.33169" lon="-1.81017">
        <ele>29.2</ele>
        <time>2026-08-05T08:45:17Z</time>
      </trkpt>
      <trkpt lat="43.33166" lon="-1.81022">
        <ele>28.8</ele>
        <time>2026-08-05T08:45:18Z</time>
      </trkpt>
      <trkpt lat="43.33164" lon="-1.81026">
        <ele>28.8</ele>
        <time>2026-08-05T08:45:19Z</time>
      </trkpt>
      <trkpt lat="43.33161" lon="-1.8103">
        <ele>28.8</ele>
        <time>2026-08-05T08:45:20Z</time>
      </trkpt>
      <trkpt lat="43.33158" lon="-1.81032">
        <ele>29.8</ele>
        <time>2026-08-05T08:45:21Z</time>
      </trkpt>
      <trkpt lat="43.33156" lon="-1.81033">
        <ele>29.8</ele>
        <time>2026-08-05T08:45:22Z</time>
      </trkpt>
      <trkpt lat="43.33154" lon="-1.81035">
        <ele>29.8</ele>
        <time>2026-08-05T08:45:23Z</time>
      </trkpt>
      <trkpt lat="43.33153" lon="-1.81039">
        <ele>29.8</ele>
        <time>2026-08-05T08:45:24Z</time>
      </trkpt>
      <trkpt lat="43.33153" lon="-1.81044">
        <ele>28.4</ele>
        <time>2026-08-05T08:45:25Z</time>
      </trkpt>
      <trkpt lat="43.33152" lon="-1.81049">
        <ele>27.8</ele>
        <time>2026-08-05T08:45:26Z</time>
      </trkpt>
      <trkpt lat="43.33151" lon="-1.81055">
        <ele>27.8</ele>
        <time>2026-08-05T08:45:27Z</time>
      </trkpt>
      <trkpt lat="43.33151" lon="-1.81062">
        <ele>26.8</ele>
        <time>2026-08-05T08:45:28Z</time>
      </trkpt>
      <trkpt lat="43.3315" lon="-1.81069">
        <ele>26</ele>
        <time>2026-08-05T08:45:29Z</time>
      </trkpt>
      <trkpt lat="43.33149" lon="-1.81077">
        <ele>26</ele>
        <time>2026-08-05T08:45:30Z</time>
      </trkpt>
      <trkpt lat="43.33148" lon="-1.81085">
        <ele>26</ele>
        <time>2026-08-05T08:45:31Z</time>
      </trkpt>
      <trkpt lat="43.33148" lon="-1.81092">
        <ele>26</ele>
        <time>2026-08-05T08:45:32Z</time>
      </trkpt>
      <trkpt lat="43.33147" lon="-1.81097">
        <ele>26</ele>
        <time>2026-08-05T08:45:33Z</time>
      </trkpt>
      <trkpt lat="43.33145" lon="-1.811">
        <ele>26</ele>
        <time>2026-08-05T08:45:34Z</time>
      </trkpt>
      <trkpt lat="43.33144" lon="-1.811">
        <ele>26</ele>
        <time>2026-08-05T08:45:35Z</time>
      </trkpt>
      <trkpt lat="43.33144" lon="-1.811">
        <ele>26</ele>
        <time>2026-08-05T08:45:36Z</time>
      </trkpt>
      <trkpt lat="43.33144" lon="-1.811">
        <ele>26</ele>
        <time>2026-08-05T08:45:37Z</time>
      </trkpt>
      <trkpt lat="43.3314" lon="-1.811">
        <ele>25.8</ele>
        <time>2026-08-05T08:45:53Z</time>
      </trkpt>
      <trkpt lat="43.33138" lon="-1.811">
        <ele>25.8</ele>
        <time>2026-08-05T08:45:54Z</time>
      </trkpt>
      <trkpt lat="43.33136" lon="-1.81101">
        <ele>25.8</ele>
        <time>2026-08-05T08:45:55Z</time>
      </trkpt>
      <trkpt lat="43.33134" lon="-1.81104">
        <ele>25.4</ele>
        <time>2026-08-05T08:45:56Z</time>
      </trkpt>
      <trkpt lat="43.33134" lon="-1.81108">
        <ele>25.2</ele>
        <time>2026-08-05T08:45:57Z</time>
      </trkpt>
      <trkpt lat="43.33134" lon="-1.81112">
        <ele>25</ele>
        <time>2026-08-05T08:45:58Z</time>
      </trkpt>
      <trkpt lat="43.33134" lon="-1.81117">
        <ele>24.4</ele>
        <time>2026-08-05T08:45:59Z</time>
      </trkpt>
      <trkpt lat="43.33134" lon="-1.81122">
        <ele>24.4</ele>
        <time>2026-08-05T08:46:00Z</time>
      </trkpt>
      <trkpt lat="43.33133" lon="-1.81128">
        <ele>24.4</ele>
        <time>2026-08-05T08:46:01Z</time>
      </trkpt>
      <trkpt lat="43.33133" lon="-1.81134">
        <ele>24.4</ele>
        <time>2026-08-05T08:46:02Z</time>
      </trkpt>
      <trkpt lat="43.33132" lon="-1.8114">
        <ele>24</ele>
        <time>2026-08-05T08:46:03Z</time>
      </trkpt>
      <trkpt lat="43.33132" lon="-1.81146">
        <ele>23.4</ele>
        <time>2026-08-05T08:46:04Z</time>
      </trkpt>
      <trkpt lat="43.33131" lon="-1.81152">
        <ele>23.4</ele>
        <time>2026-08-05T08:46:05Z</time>
      </trkpt>
      <trkpt lat="43.33131" lon="-1.81158">
        <ele>23.4</ele>
        <time>2026-08-05T08:46:06Z</time>
      </trkpt>
      <trkpt lat="43.3313" lon="-1.81164">
        <ele>23.8</ele>
        <time>2026-08-05T08:46:07Z</time>
      </trkpt>
      <trkpt lat="43.33129" lon="-1.8117">
        <ele>24</ele>
        <time>2026-08-05T08:46:08Z</time>
      </trkpt>
      <trkpt lat="43.33128" lon="-1.81176">
        <ele>24.2</ele>
        <time>2026-08-05T08:46:09Z</time>
      </trkpt>
      <trkpt lat="43.33127" lon="-1.81181">
        <ele>24.6</ele>
        <time>2026-08-05T08:46:10Z</time>
      </trkpt>
      <trkpt lat="43.33126" lon="-1.81187">
        <ele>24.6</ele>
        <time>2026-08-05T08:46:11Z</time>
      </trkpt>
      <trkpt lat="43.33124" lon="-1.81193">
        <ele>24.6</ele>
        <time>2026-08-05T08:46:12Z</time>
      </trkpt>
      <trkpt lat="43.33123" lon="-1.81198">
        <ele>24.6</ele>
        <time>2026-08-05T08:46:13Z</time>
      </trkpt>
      <trkpt lat="43.33121" lon="-1.81203">
        <ele>24.6</ele>
        <time>2026-08-05T08:46:14Z</time>
      </trkpt>
      <trkpt lat="43.33119" lon="-1.81208">
        <ele>25</ele>
        <time>2026-08-05T08:46:15Z</time>
      </trkpt>
      <trkpt lat="43.33115" lon="-1.81212">
        <ele>25</ele>
        <time>2026-08-05T08:46:16Z</time>
      </trkpt>
      <trkpt lat="43.33112" lon="-1.81214">
        <ele>25.2</ele>
        <time>2026-08-05T08:46:17Z</time>
      </trkpt>
      <trkpt lat="43.33107" lon="-1.81216">
        <ele>25.2</ele>
        <time>2026-08-05T08:46:18Z</time>
      </trkpt>
      <trkpt lat="43.33103" lon="-1.81217">
        <ele>25.2</ele>
        <time>2026-08-05T08:46:19Z</time>
      </trkpt>
      <trkpt lat="43.33099" lon="-1.81219">
        <ele>25.2</ele>
        <time>2026-08-05T08:46:20Z</time>
      </trkpt>
      <trkpt lat="43.33095" lon="-1.8122">
        <ele>25.6</ele>
        <time>2026-08-05T08:46:21Z</time>
      </trkpt>
      <trkpt lat="43.33091" lon="-1.81221">
        <ele>25.8</ele>
        <time>2026-08-05T08:46:22Z</time>
      </trkpt>
      <trkpt lat="43.33087" lon="-1.81223">
        <ele>26</ele>
        <time>2026-08-05T08:46:23Z</time>
      </trkpt>
      <trkpt lat="43.33083" lon="-1.81224">
        <ele>26</ele>
        <time>2026-08-05T08:46:24Z</time>
      </trkpt>
      <trkpt lat="43.3308" lon="-1.81226">
        <ele>26.6</ele>
        <time>2026-08-05T08:46:25Z</time>
      </trkpt>
      <trkpt lat="43.33076" lon="-1.81227">
        <ele>26.6</ele>
        <time>2026-08-05T08:46:26Z</time>
      </trkpt>
      <trkpt lat="43.33072" lon="-1.81228">
        <ele>26.6</ele>
        <time>2026-08-05T08:46:27Z</time>
      </trkpt>
      <trkpt lat="43.33069" lon="-1.81229">
        <ele>26.6</ele>
        <time>2026-08-05T08:46:28Z</time>
      </trkpt>
      <trkpt lat="43.33065" lon="-1.81231">
        <ele>26.8</ele>
        <time>2026-08-05T08:46:29Z</time>
      </trkpt>
      <trkpt lat="43.33062" lon="-1.81232">
        <ele>26.8</ele>
        <time>2026-08-05T08:46:30Z</time>
      </trkpt>
      <trkpt lat="43.33058" lon="-1.81234">
        <ele>26.8</ele>
        <time>2026-08-05T08:46:31Z</time>
      </trkpt>
      <trkpt lat="43.33056" lon="-1.81237">
        <ele>26.8</ele>
        <time>2026-08-05T08:46:32Z</time>
      </trkpt>
      <trkpt lat="43.33053" lon="-1.81239">
        <ele>26.8</ele>
        <time>2026-08-05T08:46:33Z</time>
      </trkpt>
      <trkpt lat="43.33051" lon="-1.81242">
        <ele>26.8</ele>
        <time>2026-08-05T08:46:34Z</time>
      </trkpt>
      <trkpt lat="43.33049" lon="-1.81245">
        <ele>27.4</ele>
        <time>2026-08-05T08:46:35Z</time>
      </trkpt>
      <trkpt lat="43.33046" lon="-1.81248">
        <ele>27.4</ele>
        <time>2026-08-05T08:46:36Z</time>
      </trkpt>
      <trkpt lat="43.33045" lon="-1.81252">
        <ele>27.4</ele>
        <time>2026-08-05T08:46:37Z</time>
      </trkpt>
      <trkpt lat="43.33045" lon="-1.81255">
        <ele>27</ele>
        <time>2026-08-05T08:46:38Z</time>
      </trkpt>
      <trkpt lat="43.33048" lon="-1.81258">
        <ele>27</ele>
        <time>2026-08-05T08:46:39Z</time>
      </trkpt>
      <trkpt lat="43.3305" lon="-1.8126">
        <ele>27</ele>
        <time>2026-08-05T08:46:40Z</time>
      </trkpt>
      <trkpt lat="43.33052" lon="-1.81264">
        <ele>27</ele>
        <time>2026-08-05T08:46:41Z</time>
      </trkpt>
      <trkpt lat="43.33054" lon="-1.81268">
        <ele>27</ele>
        <time>2026-08-05T08:46:42Z</time>
      </trkpt>
      <trkpt lat="43.33054" lon="-1.81272">
        <ele>27</ele>
        <time>2026-08-05T08:46:43Z</time>
      </trkpt>
      <trkpt lat="43.33055" lon="-1.81276">
        <ele>27.6</ele>
        <time>2026-08-05T08:46:44Z</time>
      </trkpt>
      <trkpt lat="43.33054" lon="-1.8128">
        <ele>28.2</ele>
        <time>2026-08-05T08:46:45Z</time>
      </trkpt>
      <trkpt lat="43.33053" lon="-1.81285">
        <ele>28.2</ele>
        <time>2026-08-05T08:46:46Z</time>
      </trkpt>
      <trkpt lat="43.33052" lon="-1.81288">
        <ele>28.2</ele>
        <time>2026-08-05T08:46:47Z</time>
      </trkpt>
      <trkpt lat="43.33051" lon="-1.81292">
        <ele>28.2</ele>
        <time>2026-08-05T08:46:48Z</time>
      </trkpt>
      <trkpt lat="43.33049" lon="-1.81296">
        <ele>28</ele>
        <time>2026-08-05T08:46:49Z</time>
      </trkpt>
      <trkpt lat="43.33047" lon="-1.81299">
        <ele>28</ele>
        <time>2026-08-05T08:46:50Z</time>
      </trkpt>
      <trkpt lat="43.33045" lon="-1.813">
        <ele>28.4</ele>
        <time>2026-08-05T08:46:51Z</time>
      </trkpt>
      <trkpt lat="43.33042" lon="-1.81302">
        <ele>28.8</ele>
        <time>2026-08-05T08:46:52Z</time>
      </trkpt>
      <trkpt lat="43.33039" lon="-1.81304">
        <ele>28.8</ele>
        <time>2026-08-05T08:46:53Z</time>
      </trkpt>
      <trkpt lat="43.33037" lon="-1.81305">
        <ele>29.2</ele>
        <time>2026-08-05T08:46:54Z</time>
      </trkpt>
      <trkpt lat="43.33035" lon="-1.81307">
        <ele>29.2</ele>
        <time>2026-08-05T08:46:55Z</time>
      </trkpt>
      <trkpt lat="43.33033" lon="-1.81309">
        <ele>29.2</ele>
        <time>2026-08-05T08:46:56Z</time>
      </trkpt>
      <trkpt lat="43.33032" lon="-1.81311">
        <ele>28.8</ele>
        <time>2026-08-05T08:46:57Z</time>
      </trkpt>
      <trkpt lat="43.33032" lon="-1.81314">
        <ele>28.6</ele>
        <time>2026-08-05T08:46:58Z</time>
      </trkpt>
      <trkpt lat="43.33033" lon="-1.81317">
        <ele>28.6</ele>
        <time>2026-08-05T08:46:59Z</time>
      </trkpt>
      <trkpt lat="43.33035" lon="-1.8132">
        <ele>28.6</ele>
        <time>2026-08-05T08:47:00Z</time>
      </trkpt>
      <trkpt lat="43.33038" lon="-1.81322">
        <ele>28.6</ele>
        <time>2026-08-05T08:47:01Z</time>
      </trkpt>
      <trkpt lat="43.33041" lon="-1.81322">
        <ele>28.6</ele>
        <time>2026-08-05T08:47:02Z</time>
      </trkpt>
      <trkpt lat="43.33046" lon="-1.81323">
        <ele>27.6</ele>
        <time>2026-08-05T08:47:03Z</time>
      </trkpt>
      <trkpt lat="43.3305" lon="-1.81324">
        <ele>27.6</ele>
        <time>2026-08-05T08:47:04Z</time>
      </trkpt>
      <trkpt lat="43.33054" lon="-1.81326">
        <ele>27.6</ele>
        <time>2026-08-05T08:47:05Z</time>
      </trkpt>
      <trkpt lat="43.33056" lon="-1.8133">
        <ele>28</ele>
        <time>2026-08-05T08:47:06Z</time>
      </trkpt>
      <trkpt lat="43.33059" lon="-1.81333">
        <ele>28.2</ele>
        <time>2026-08-05T08:47:07Z</time>
      </trkpt>
      <trkpt lat="43.3306" lon="-1.81337">
        <ele>28.8</ele>
        <time>2026-08-05T08:47:08Z</time>
      </trkpt>
      <trkpt lat="43.3306" lon="-1.81341">
        <ele>29</ele>
        <time>2026-08-05T08:47:09Z</time>
      </trkpt>
      <trkpt lat="43.33059" lon="-1.81345">
        <ele>29</ele>
        <time>2026-08-05T08:47:10Z</time>
      </trkpt>
      <trkpt lat="43.33057" lon="-1.81349">
        <ele>29.2</ele>
        <time>2026-08-05T08:47:11Z</time>
      </trkpt>
      <trkpt lat="43.33055" lon="-1.81352">
        <ele>29.2</ele>
        <time>2026-08-05T08:47:12Z</time>
      </trkpt>
      <trkpt lat="43.33055" lon="-1.81356">
        <ele>29.2</ele>
        <time>2026-08-05T08:47:13Z</time>
      </trkpt>
      <trkpt lat="43.33056" lon="-1.81359">
        <ele>29.2</ele>
        <time>2026-08-05T08:47:14Z</time>
      </trkpt>
      <trkpt lat="43.33058" lon="-1.81363">
        <ele>29.2</ele>
        <time>2026-08-05T08:47:15Z</time>
      </trkpt>
      <trkpt lat="43.33059" lon="-1.81367">
        <ele>29.8</ele>
        <time>2026-08-05T08:47:16Z</time>
      </trkpt>
      <trkpt lat="43.33059" lon="-1.81371">
        <ele>29.8</ele>
        <time>2026-08-05T08:47:17Z</time>
      </trkpt>
      <trkpt lat="43.33059" lon="-1.81374">
        <ele>30</ele>
        <time>2026-08-05T08:47:18Z</time>
      </trkpt>
      <trkpt lat="43.33058" lon="-1.81378">
        <ele>30.2</ele>
        <time>2026-08-05T08:47:19Z</time>
      </trkpt>
      <trkpt lat="43.33058" lon="-1.81382">
        <ele>30.4</ele>
        <time>2026-08-05T08:47:20Z</time>
      </trkpt>
      <trkpt lat="43.33057" lon="-1.81386">
        <ele>30.4</ele>
        <time>2026-08-05T08:47:21Z</time>
      </trkpt>
      <trkpt lat="43.33057" lon="-1.81389">
        <ele>30.6</ele>
        <time>2026-08-05T08:47:22Z</time>
      </trkpt>
      <trkpt lat="43.33056" lon="-1.81393">
        <ele>30.8</ele>
        <time>2026-08-05T08:47:23Z</time>
      </trkpt>
      <trkpt lat="43.33056" lon="-1.81397">
        <ele>30.8</ele>
        <time>2026-08-05T08:47:24Z</time>
      </trkpt>
      <trkpt lat="43.33055" lon="-1.81401">
        <ele>31.4</ele>
        <time>2026-08-05T08:47:25Z</time>
      </trkpt>
      <trkpt lat="43.33055" lon="-1.81404">
        <ele>31.4</ele>
        <time>2026-08-05T08:47:26Z</time>
      </trkpt>
      <trkpt lat="43.33054" lon="-1.81408">
        <ele>31.4</ele>
        <time>2026-08-05T08:47:27Z</time>
      </trkpt>
      <trkpt lat="43.33054" lon="-1.81412">
        <ele>31.4</ele>
        <time>2026-08-05T08:47:28Z</time>
      </trkpt>
      <trkpt lat="43.33053" lon="-1.81416">
        <ele>31.4</ele>
        <time>2026-08-05T08:47:29Z</time>
      </trkpt>
      <trkpt lat="43.33051" lon="-1.81419">
        <ele>31.8</ele>
        <time>2026-08-05T08:47:30Z</time>
      </trkpt>
      <trkpt lat="43.3305" lon="-1.81423">
        <ele>32</ele>
        <time>2026-08-05T08:47:31Z</time>
      </trkpt>
      <trkpt lat="43.33049" lon="-1.81426">
        <ele>32</ele>
        <time>2026-08-05T08:47:32Z</time>
      </trkpt>
      <trkpt lat="43.33048" lon="-1.8143">
        <ele>32</ele>
        <time>2026-08-05T08:47:33Z</time>
      </trkpt>
      <trkpt lat="43.33047" lon="-1.81433">
        <ele>32</ele>
        <time>2026-08-05T08:47:34Z</time>
      </trkpt>
      <trkpt lat="43.33046" lon="-1.81437">
        <ele>32</ele>
        <time>2026-08-05T08:47:35Z</time>
      </trkpt>
      <trkpt lat="43.33045" lon="-1.8144">
        <ele>32.4</ele>
        <time>2026-08-05T08:47:36Z</time>
      </trkpt>
      <trkpt lat="43.33044" lon="-1.81444">
        <ele>32.4</ele>
        <time>2026-08-05T08:47:37Z</time>
      </trkpt>
      <trkpt lat="43.33042" lon="-1.81448">
        <ele>32.8</ele>
        <time>2026-08-05T08:47:38Z</time>
      </trkpt>
      <trkpt lat="43.3304" lon="-1.81451">
        <ele>32.8</ele>
        <time>2026-08-05T08:47:39Z</time>
      </trkpt>
      <trkpt lat="43.33039" lon="-1.81454">
        <ele>32.8</ele>
        <time>2026-08-05T08:47:40Z</time>
      </trkpt>
      <trkpt lat="43.33038" lon="-1.81458">
        <ele>32.8</ele>
        <time>2026-08-05T08:47:41Z</time>
      </trkpt>
      <trkpt lat="43.33036" lon="-1.81461">
        <ele>33</ele>
        <time>2026-08-05T08:47:42Z</time>
      </trkpt>
      <trkpt lat="43.33034" lon="-1.81464">
        <ele>34.2</ele>
        <time>2026-08-05T08:47:43Z</time>
      </trkpt>
      <trkpt lat="43.33032" lon="-1.81467">
        <ele>34.2</ele>
        <time>2026-08-05T08:47:44Z</time>
      </trkpt>
      <trkpt lat="43.3303" lon="-1.81469">
        <ele>34.2</ele>
        <time>2026-08-05T08:47:45Z</time>
      </trkpt>
      <trkpt lat="43.33028" lon="-1.81471">
        <ele>33.2</ele>
        <time>2026-08-05T08:47:46Z</time>
      </trkpt>
      <trkpt lat="43.33026" lon="-1.81473">
        <ele>33.2</ele>
        <time>2026-08-05T08:47:47Z</time>
      </trkpt>
      <trkpt lat="43.33023" lon="-1.81475">
        <ele>32.8</ele>
        <time>2026-08-05T08:47:48Z</time>
      </trkpt>
      <trkpt lat="43.33022" lon="-1.81478">
        <ele>32.4</ele>
        <time>2026-08-05T08:47:49Z</time>
      </trkpt>
      <trkpt lat="43.3302" lon="-1.81482">
        <ele>32.4</ele>
        <time>2026-08-05T08:47:50Z</time>
      </trkpt>
      <trkpt lat="43.3302" lon="-1.81486">
        <ele>32.4</ele>
        <time>2026-08-05T08:47:51Z</time>
      </trkpt>
      <trkpt lat="43.3302" lon="-1.8149">
        <ele>33.2</ele>
        <time>2026-08-05T08:47:52Z</time>
      </trkpt>
      <trkpt lat="43.33019" lon="-1.81494">
        <ele>33.4</ele>
        <time>2026-08-05T08:47:53Z</time>
      </trkpt>
      <trkpt lat="43.33017" lon="-1.81498">
        <ele>33.4</ele>
        <time>2026-08-05T08:47:54Z</time>
      </trkpt>
      <trkpt lat="43.33015" lon="-1.81502">
        <ele>33.4</ele>
        <time>2026-08-05T08:47:55Z</time>
      </trkpt>
      <trkpt lat="43.33012" lon="-1.81506">
        <ele>33</ele>
        <time>2026-08-05T08:47:56Z</time>
      </trkpt>
      <trkpt lat="43.3301" lon="-1.8151">
        <ele>32.2</ele>
        <time>2026-08-05T08:47:57Z</time>
      </trkpt>
      <trkpt lat="43.33007" lon="-1.81514">
        <ele>32.2</ele>
        <time>2026-08-05T08:47:58Z</time>
      </trkpt>
      <trkpt lat="43.33005" lon="-1.81518">
        <ele>32.2</ele>
        <time>2026-08-05T08:47:59Z</time>
      </trkpt>
      <trkpt lat="43.33003" lon="-1.81521">
        <ele>32.4</ele>
        <time>2026-08-05T08:48:00Z</time>
      </trkpt>
      <trkpt lat="43.33" lon="-1.81525">
        <ele>32.6</ele>
        <time>2026-08-05T08:48:01Z</time>
      </trkpt>
      <trkpt lat="43.32997" lon="-1.81529">
        <ele>32.6</ele>
        <time>2026-08-05T08:48:02Z</time>
      </trkpt>
      <trkpt lat="43.32995" lon="-1.81533">
        <ele>32.6</ele>
        <time>2026-08-05T08:48:03Z</time>
      </trkpt>
      <trkpt lat="43.32992" lon="-1.81536">
        <ele>32.6</ele>
        <time>2026-08-05T08:48:04Z</time>
      </trkpt>
      <trkpt lat="43.32989" lon="-1.8154">
        <ele>32.4</ele>
        <time>2026-08-05T08:48:05Z</time>
      </trkpt>
      <trkpt lat="43.32986" lon="-1.81543">
        <ele>32.4</ele>
        <time>2026-08-05T08:48:06Z</time>
      </trkpt>
      <trkpt lat="43.32984" lon="-1.81547">
        <ele>32.4</ele>
        <time>2026-08-05T08:48:07Z</time>
      </trkpt>
      <trkpt lat="43.32981" lon="-1.8155">
        <ele>32.6</ele>
        <time>2026-08-05T08:48:08Z</time>
      </trkpt>
      <trkpt lat="43.32978" lon="-1.81554">
        <ele>32.6</ele>
        <time>2026-08-05T08:48:09Z</time>
      </trkpt>
      <trkpt lat="43.32975" lon="-1.81558">
        <ele>32</ele>
        <time>2026-08-05T08:48:10Z</time>
      </trkpt>
      <trkpt lat="43.32972" lon="-1.81561">
        <ele>32</ele>
        <time>2026-08-05T08:48:11Z</time>
      </trkpt>
      <trkpt lat="43.32969" lon="-1.81565">
        <ele>32</ele>
        <time>2026-08-05T08:48:12Z</time>
      </trkpt>
      <trkpt lat="43.32965" lon="-1.81568">
        <ele>32</ele>
        <time>2026-08-05T08:48:13Z</time>
      </trkpt>
      <trkpt lat="43.32962" lon="-1.81572">
        <ele>31.8</ele>
        <time>2026-08-05T08:48:14Z</time>
      </trkpt>
      <trkpt lat="43.32959" lon="-1.81576">
        <ele>31.8</ele>
        <time>2026-08-05T08:48:15Z</time>
      </trkpt>
      <trkpt lat="43.32955" lon="-1.81579">
        <ele>31.4</ele>
        <time>2026-08-05T08:48:16Z</time>
      </trkpt>
      <trkpt lat="43.32952" lon="-1.81583">
        <ele>31.4</ele>
        <time>2026-08-05T08:48:17Z</time>
      </trkpt>
      <trkpt lat="43.32949" lon="-1.81587">
        <ele>31.4</ele>
        <time>2026-08-05T08:48:18Z</time>
      </trkpt>
      <trkpt lat="43.32946" lon="-1.81592">
        <ele>31.4</ele>
        <time>2026-08-05T08:48:19Z</time>
      </trkpt>
      <trkpt lat="43.32943" lon="-1.81596">
        <ele>31.4</ele>
        <time>2026-08-05T08:48:20Z</time>
      </trkpt>
      <trkpt lat="43.3294" lon="-1.81601">
        <ele>30.6</ele>
        <time>2026-08-05T08:48:21Z</time>
      </trkpt>
      <trkpt lat="43.32937" lon="-1.81605">
        <ele>30.6</ele>
        <time>2026-08-05T08:48:22Z</time>
      </trkpt>
      <trkpt lat="43.32935" lon="-1.81608">
        <ele>30.6</ele>
        <time>2026-08-05T08:48:23Z</time>
      </trkpt>
      <trkpt lat="43.32932" lon="-1.81611">
        <ele>31.4</ele>
        <time>2026-08-05T08:48:24Z</time>
      </trkpt>
      <trkpt lat="43.3293" lon="-1.81613">
        <ele>31.4</ele>
        <time>2026-08-05T08:48:25Z</time>
      </trkpt>
      <trkpt lat="43.32929" lon="-1.81616">
        <ele>31.4</ele>
        <time>2026-08-05T08:48:26Z</time>
      </trkpt>
      <trkpt lat="43.32928" lon="-1.81618">
        <ele>31.4</ele>
        <time>2026-08-05T08:48:27Z</time>
      </trkpt>
      <trkpt lat="43.32927" lon="-1.81621">
        <ele>32</ele>
        <time>2026-08-05T08:48:28Z</time>
      </trkpt>
      <trkpt lat="43.32926" lon="-1.81624">
        <ele>32</ele>
        <time>2026-08-05T08:48:29Z</time>
      </trkpt>
      <trkpt lat="43.32925" lon="-1.81628">
        <ele>32</ele>
        <time>2026-08-05T08:48:30Z</time>
      </trkpt>
      <trkpt lat="43.32923" lon="-1.81631">
        <ele>32</ele>
        <time>2026-08-05T08:48:31Z</time>
      </trkpt>
      <trkpt lat="43.32922" lon="-1.81635">
        <ele>31.4</ele>
        <time>2026-08-05T08:48:32Z</time>
      </trkpt>
      <trkpt lat="43.3292" lon="-1.81639">
        <ele>31.4</ele>
        <time>2026-08-05T08:48:33Z</time>
      </trkpt>
      <trkpt lat="43.32919" lon="-1.81643">
        <ele>31.2</ele>
        <time>2026-08-05T08:48:34Z</time>
      </trkpt>
      <trkpt lat="43.32918" lon="-1.81647">
        <ele>31.2</ele>
        <time>2026-08-05T08:48:35Z</time>
      </trkpt>
      <trkpt lat="43.32917" lon="-1.81652">
        <ele>31.2</ele>
        <time>2026-08-05T08:48:36Z</time>
      </trkpt>
      <trkpt lat="43.32916" lon="-1.81656">
        <ele>31.2</ele>
        <time>2026-08-05T08:48:37Z</time>
      </trkpt>
      <trkpt lat="43.32915" lon="-1.8166">
        <ele>31.2</ele>
        <time>2026-08-05T08:48:38Z</time>
      </trkpt>
      <trkpt lat="43.32914" lon="-1.81665">
        <ele>31.2</ele>
        <time>2026-08-05T08:48:39Z</time>
      </trkpt>
      <trkpt lat="43.32913" lon="-1.81669">
        <ele>31.2</ele>
        <time>2026-08-05T08:48:40Z</time>
      </trkpt>
      <trkpt lat="43.32912" lon="-1.81673">
        <ele>31.2</ele>
        <time>2026-08-05T08:48:41Z</time>
      </trkpt>
      <trkpt lat="43.32912" lon="-1.81677">
        <ele>31.2</ele>
        <time>2026-08-05T08:48:42Z</time>
      </trkpt>
      <trkpt lat="43.32911" lon="-1.81681">
        <ele>31.2</ele>
        <time>2026-08-05T08:48:43Z</time>
      </trkpt>
      <trkpt lat="43.32911" lon="-1.81686">
        <ele>30.4</ele>
        <time>2026-08-05T08:48:44Z</time>
      </trkpt>
      <trkpt lat="43.3291" lon="-1.8169">
        <ele>30.4</ele>
        <time>2026-08-05T08:48:45Z</time>
      </trkpt>
      <trkpt lat="43.3291" lon="-1.81694">
        <ele>30.4</ele>
        <time>2026-08-05T08:48:46Z</time>
      </trkpt>
      <trkpt lat="43.32909" lon="-1.81699">
        <ele>31.4</ele>
        <time>2026-08-05T08:48:47Z</time>
      </trkpt>
      <trkpt lat="43.32908" lon="-1.81703">
        <ele>32.4</ele>
        <time>2026-08-05T08:48:48Z</time>
      </trkpt>
      <trkpt lat="43.32908" lon="-1.81707">
        <ele>32.4</ele>
        <time>2026-08-05T08:48:49Z</time>
      </trkpt>
      <trkpt lat="43.32906" lon="-1.8171">
        <ele>32.4</ele>
        <time>2026-08-05T08:48:50Z</time>
      </trkpt>
      <trkpt lat="43.32905" lon="-1.81714">
        <ele>31</ele>
        <time>2026-08-05T08:48:51Z</time>
      </trkpt>
      <trkpt lat="43.32904" lon="-1.81717">
        <ele>31</ele>
        <time>2026-08-05T08:48:52Z</time>
      </trkpt>
      <trkpt lat="43.32903" lon="-1.81721">
        <ele>31</ele>
        <time>2026-08-05T08:48:53Z</time>
      </trkpt>
      <trkpt lat="43.32902" lon="-1.81725">
        <ele>31</ele>
        <time>2026-08-05T08:48:54Z</time>
      </trkpt>
      <trkpt lat="43.32901" lon="-1.81729">
        <ele>31.6</ele>
        <time>2026-08-05T08:48:55Z</time>
      </trkpt>
      <trkpt lat="43.32901" lon="-1.81732">
        <ele>31.6</ele>
        <time>2026-08-05T08:48:56Z</time>
      </trkpt>
      <trkpt lat="43.32901" lon="-1.81736">
        <ele>31.2</ele>
        <time>2026-08-05T08:48:57Z</time>
      </trkpt>
      <trkpt lat="43.32903" lon="-1.81739">
        <ele>30.8</ele>
        <time>2026-08-05T08:48:58Z</time>
      </trkpt>
      <trkpt lat="43.32905" lon="-1.81741">
        <ele>30.4</ele>
        <time>2026-08-05T08:48:59Z</time>
      </trkpt>
      <trkpt lat="43.32907" lon="-1.81744">
        <ele>30.2</ele>
        <time>2026-08-05T08:49:00Z</time>
      </trkpt>
      <trkpt lat="43.32911" lon="-1.81746">
        <ele>30</ele>
        <time>2026-08-05T08:49:01Z</time>
      </trkpt>
      <trkpt lat="43.32915" lon="-1.81749">
        <ele>29.4</ele>
        <time>2026-08-05T08:49:02Z</time>
      </trkpt>
      <trkpt lat="43.32919" lon="-1.81751">
        <ele>29</ele>
        <time>2026-08-05T08:49:03Z</time>
      </trkpt>
      <trkpt lat="43.32924" lon="-1.81754">
        <ele>28.6</ele>
        <time>2026-08-05T08:49:04Z</time>
      </trkpt>
      <trkpt lat="43.32929" lon="-1.81756">
        <ele>28.6</ele>
        <time>2026-08-05T08:49:05Z</time>
      </trkpt>
      <trkpt lat="43.32933" lon="-1.81758">
        <ele>28.6</ele>
        <time>2026-08-05T08:49:06Z</time>
      </trkpt>
      <trkpt lat="43.32937" lon="-1.8176">
        <ele>28.6</ele>
        <time>2026-08-05T08:49:07Z</time>
      </trkpt>
      <trkpt lat="43.3294" lon="-1.81762">
        <ele>28.6</ele>
        <time>2026-08-05T08:49:08Z</time>
      </trkpt>
      <trkpt lat="43.32943" lon="-1.81763">
        <ele>28.6</ele>
        <time>2026-08-05T08:49:09Z</time>
      </trkpt>
      <trkpt lat="43.32946" lon="-1.81765">
        <ele>27.8</ele>
        <time>2026-08-05T08:49:10Z</time>
      </trkpt>
      <trkpt lat="43.32948" lon="-1.81766">
        <ele>27.4</ele>
        <time>2026-08-05T08:49:11Z</time>
      </trkpt>
      <trkpt lat="43.32951" lon="-1.81767">
        <ele>27.2</ele>
        <time>2026-08-05T08:49:12Z</time>
      </trkpt>
      <trkpt lat="43.32954" lon="-1.81768">
        <ele>27</ele>
        <time>2026-08-05T08:49:13Z</time>
      </trkpt>
      <trkpt lat="43.32956" lon="-1.81769">
        <ele>26.6</ele>
        <time>2026-08-05T08:49:14Z</time>
      </trkpt>
      <trkpt lat="43.32958" lon="-1.81771">
        <ele>26.6</ele>
        <time>2026-08-05T08:49:15Z</time>
      </trkpt>
      <trkpt lat="43.3296" lon="-1.81772">
        <ele>26.6</ele>
        <time>2026-08-05T08:49:16Z</time>
      </trkpt>
      <trkpt lat="43.32962" lon="-1.81774">
        <ele>26.6</ele>
        <time>2026-08-05T08:49:17Z</time>
      </trkpt>
      <trkpt lat="43.32962" lon="-1.81776">
        <ele>26.6</ele>
        <time>2026-08-05T08:49:18Z</time>
      </trkpt>
      <trkpt lat="43.32962" lon="-1.8178">
        <ele>26.6</ele>
        <time>2026-08-05T08:49:19Z</time>
      </trkpt>
      <trkpt lat="43.32961" lon="-1.81784">
        <ele>26.8</ele>
        <time>2026-08-05T08:49:20Z</time>
      </trkpt>
      <trkpt lat="43.32959" lon="-1.81788">
        <ele>27.2</ele>
        <time>2026-08-05T08:49:21Z</time>
      </trkpt>
      <trkpt lat="43.32957" lon="-1.81792">
        <ele>27.2</ele>
        <time>2026-08-05T08:49:22Z</time>
      </trkpt>
      <trkpt lat="43.32955" lon="-1.81796">
        <ele>27.2</ele>
        <time>2026-08-05T08:49:23Z</time>
      </trkpt>
      <trkpt lat="43.32953" lon="-1.818">
        <ele>27.2</ele>
        <time>2026-08-05T08:49:24Z</time>
      </trkpt>
      <trkpt lat="43.32951" lon="-1.81803">
        <ele>27.2</ele>
        <time>2026-08-05T08:49:25Z</time>
      </trkpt>
      <trkpt lat="43.32949" lon="-1.81806">
        <ele>27.6</ele>
        <time>2026-08-05T08:49:26Z</time>
      </trkpt>
      <trkpt lat="43.32947" lon="-1.81809">
        <ele>27.6</ele>
        <time>2026-08-05T08:49:27Z</time>
      </trkpt>
      <trkpt lat="43.32946" lon="-1.81812">
        <ele>27.6</ele>
        <time>2026-08-05T08:49:28Z</time>
      </trkpt>
      <trkpt lat="43.32944" lon="-1.81815">
        <ele>27.6</ele>
        <time>2026-08-05T08:49:29Z</time>
      </trkpt>
      <trkpt lat="43.32942" lon="-1.81819">
        <ele>28.2</ele>
        <time>2026-08-05T08:49:30Z</time>
      </trkpt>
      <trkpt lat="43.32941" lon="-1.81822">
        <ele>28.2</ele>
        <time>2026-08-05T08:49:31Z</time>
      </trkpt>
      <trkpt lat="43.32939" lon="-1.81825">
        <ele>28.2</ele>
        <time>2026-08-05T08:49:32Z</time>
      </trkpt>
      <trkpt lat="43.32938" lon="-1.81829">
        <ele>28.2</ele>
        <time>2026-08-05T08:49:33Z</time>
      </trkpt>
      <trkpt lat="43.32936" lon="-1.81832">
        <ele>28.8</ele>
        <time>2026-08-05T08:49:34Z</time>
      </trkpt>
      <trkpt lat="43.32935" lon="-1.81836">
        <ele>28.8</ele>
        <time>2026-08-05T08:49:35Z</time>
      </trkpt>
      <trkpt lat="43.32933" lon="-1.81839">
        <ele>28.8</ele>
        <time>2026-08-05T08:49:36Z</time>
      </trkpt>
      <trkpt lat="43.32931" lon="-1.81842">
        <ele>28.8</ele>
        <time>2026-08-05T08:49:37Z</time>
      </trkpt>
      <trkpt lat="43.3293" lon="-1.81846">
        <ele>29.2</ele>
        <time>2026-08-05T08:49:38Z</time>
      </trkpt>
      <trkpt lat="43.32928" lon="-1.81849">
        <ele>29.6</ele>
        <time>2026-08-05T08:49:39Z</time>
      </trkpt>
      <trkpt lat="43.32926" lon="-1.81853">
        <ele>29.6</ele>
        <time>2026-08-05T08:49:40Z</time>
      </trkpt>
      <trkpt lat="43.32925" lon="-1.81856">
        <ele>29.6</ele>
        <time>2026-08-05T08:49:41Z</time>
      </trkpt>
      <trkpt lat="43.32923" lon="-1.81859">
        <ele>29.6</ele>
        <time>2026-08-05T08:49:42Z</time>
      </trkpt>
      <trkpt lat="43.32921" lon="-1.81863">
        <ele>29.6</ele>
        <time>2026-08-05T08:49:43Z</time>
      </trkpt>
      <trkpt lat="43.32919" lon="-1.81867">
        <ele>29.6</ele>
        <time>2026-08-05T08:49:44Z</time>
      </trkpt>
      <trkpt lat="43.32918" lon="-1.8187">
        <ele>30.2</ele>
        <time>2026-08-05T08:49:45Z</time>
      </trkpt>
      <trkpt lat="43.32916" lon="-1.81874">
        <ele>30.2</ele>
        <time>2026-08-05T08:49:46Z</time>
      </trkpt>
      <trkpt lat="43.32915" lon="-1.81877">
        <ele>30.2</ele>
        <time>2026-08-05T08:49:47Z</time>
      </trkpt>
      <trkpt lat="43.32913" lon="-1.8188">
        <ele>30.2</ele>
        <time>2026-08-05T08:49:48Z</time>
      </trkpt>
      <trkpt lat="43.32911" lon="-1.81884">
        <ele>30.6</ele>
        <time>2026-08-05T08:49:49Z</time>
      </trkpt>
      <trkpt lat="43.3291" lon="-1.81887">
        <ele>30.6</ele>
        <time>2026-08-05T08:49:50Z</time>
      </trkpt>
      <trkpt lat="43.32908" lon="-1.81891">
        <ele>31.2</ele>
        <time>2026-08-05T08:49:51Z</time>
      </trkpt>
      <trkpt lat="43.32906" lon="-1.81894">
        <ele>31.2</ele>
        <time>2026-08-05T08:49:52Z</time>
      </trkpt>
      <trkpt lat="43.32905" lon="-1.81898">
        <ele>31.2</ele>
        <time>2026-08-05T08:49:53Z</time>
      </trkpt>
      <trkpt lat="43.32903" lon="-1.81901">
        <ele>31.2</ele>
        <time>2026-08-05T08:49:54Z</time>
      </trkpt>
      <trkpt lat="43.32901" lon="-1.81905">
        <ele>31.6</ele>
        <time>2026-08-05T08:49:55Z</time>
      </trkpt>
      <trkpt lat="43.32899" lon="-1.81908">
        <ele>31.6</ele>
        <time>2026-08-05T08:49:56Z</time>
      </trkpt>
      <trkpt lat="43.32897" lon="-1.81912">
        <ele>31.6</ele>
        <time>2026-08-05T08:49:57Z</time>
      </trkpt>
      <trkpt lat="43.32895" lon="-1.81915">
        <ele>31.6</ele>
        <time>2026-08-05T08:49:58Z</time>
      </trkpt>
      <trkpt lat="43.32893" lon="-1.81918">
        <ele>31.6</ele>
        <time>2026-08-05T08:49:59Z</time>
      </trkpt>
      <trkpt lat="43.32891" lon="-1.81921">
        <ele>31.8</ele>
        <time>2026-08-05T08:50:00Z</time>
      </trkpt>
      <trkpt lat="43.32889" lon="-1.81925">
        <ele>31.8</ele>
        <time>2026-08-05T08:50:01Z</time>
      </trkpt>
      <trkpt lat="43.32887" lon="-1.81928">
        <ele>32.2</ele>
        <time>2026-08-05T08:50:02Z</time>
      </trkpt>
      <trkpt lat="43.32886" lon="-1.81932">
        <ele>32.2</ele>
        <time>2026-08-05T08:50:03Z</time>
      </trkpt>
      <trkpt lat="43.32884" lon="-1.81935">
        <ele>32.2</ele>
        <time>2026-08-05T08:50:04Z</time>
      </trkpt>
      <trkpt lat="43.32884" lon="-1.81938">
        <ele>32.2</ele>
        <time>2026-08-05T08:50:05Z</time>
      </trkpt>
      <trkpt lat="43.32884" lon="-1.81941">
        <ele>32.2</ele>
        <time>2026-08-05T08:50:06Z</time>
      </trkpt>
      <trkpt lat="43.32886" lon="-1.81944">
        <ele>32.4</ele>
        <time>2026-08-05T08:50:07Z</time>
      </trkpt>
      <trkpt lat="43.32888" lon="-1.81946">
        <ele>32.4</ele>
        <time>2026-08-05T08:50:08Z</time>
      </trkpt>
      <trkpt lat="43.3289" lon="-1.81949">
        <ele>32.4</ele>
        <time>2026-08-05T08:50:09Z</time>
      </trkpt>
      <trkpt lat="43.32892" lon="-1.81951">
        <ele>32.4</ele>
        <time>2026-08-05T08:50:10Z</time>
      </trkpt>
      <trkpt lat="43.32894" lon="-1.81954">
        <ele>31.8</ele>
        <time>2026-08-05T08:50:11Z</time>
      </trkpt>
      <trkpt lat="43.32896" lon="-1.81957">
        <ele>31.4</ele>
        <time>2026-08-05T08:50:12Z</time>
      </trkpt>
      <trkpt lat="43.32898" lon="-1.8196">
        <ele>31.4</ele>
        <time>2026-08-05T08:50:13Z</time>
      </trkpt>
      <trkpt lat="43.32901" lon="-1.81962">
        <ele>31.4</ele>
        <time>2026-08-05T08:50:14Z</time>
      </trkpt>
      <trkpt lat="43.32903" lon="-1.81965">
        <ele>31.4</ele>
        <time>2026-08-05T08:50:15Z</time>
      </trkpt>
      <trkpt lat="43.32905" lon="-1.81967">
        <ele>31.4</ele>
        <time>2026-08-05T08:50:16Z</time>
      </trkpt>
      <trkpt lat="43.32907" lon="-1.81969">
        <ele>31.8</ele>
        <time>2026-08-05T08:50:17Z</time>
      </trkpt>
      <trkpt lat="43.32909" lon="-1.81972">
        <ele>31.8</ele>
        <time>2026-08-05T08:50:18Z</time>
      </trkpt>
      <trkpt lat="43.3291" lon="-1.81975">
        <ele>31.8</ele>
        <time>2026-08-05T08:50:19Z</time>
      </trkpt>
      <trkpt lat="43.32909" lon="-1.81979">
        <ele>31.8</ele>
        <time>2026-08-05T08:50:20Z</time>
      </trkpt>
      <trkpt lat="43.32907" lon="-1.81982">
        <ele>31.8</ele>
        <time>2026-08-05T08:50:21Z</time>
      </trkpt>
      <trkpt lat="43.32906" lon="-1.81985">
        <ele>30.8</ele>
        <time>2026-08-05T08:50:22Z</time>
      </trkpt>
      <trkpt lat="43.32904" lon="-1.81989">
        <ele>30.8</ele>
        <time>2026-08-05T08:50:23Z</time>
      </trkpt>
      <trkpt lat="43.32902" lon="-1.81992">
        <ele>30.8</ele>
        <time>2026-08-05T08:50:24Z</time>
      </trkpt>
      <trkpt lat="43.329" lon="-1.81996">
        <ele>30.8</ele>
        <time>2026-08-05T08:50:25Z</time>
      </trkpt>
      <trkpt lat="43.329" lon="-1.82001">
        <ele>30.8</ele>
        <time>2026-08-05T08:50:26Z</time>
      </trkpt>
      <trkpt lat="43.32899" lon="-1.82005">
        <ele>30.4</ele>
        <time>2026-08-05T08:50:27Z</time>
      </trkpt>
      <trkpt lat="43.32897" lon="-1.8201">
        <ele>30.4</ele>
        <time>2026-08-05T08:50:28Z</time>
      </trkpt>
      <trkpt lat="43.32896" lon="-1.82013">
        <ele>30.2</ele>
        <time>2026-08-05T08:50:29Z</time>
      </trkpt>
      <trkpt lat="43.32895" lon="-1.82017">
        <ele>30.2</ele>
        <time>2026-08-05T08:50:30Z</time>
      </trkpt>
      <trkpt lat="43.32894" lon="-1.82021">
        <ele>30.2</ele>
        <time>2026-08-05T08:50:31Z</time>
      </trkpt>
      <trkpt lat="43.32894" lon="-1.82026">
        <ele>30.2</ele>
        <time>2026-08-05T08:50:32Z</time>
      </trkpt>
      <trkpt lat="43.32894" lon="-1.8203">
        <ele>30.2</ele>
        <time>2026-08-05T08:50:33Z</time>
      </trkpt>
      <trkpt lat="43.32894" lon="-1.82034">
        <ele>30.2</ele>
        <time>2026-08-05T08:50:34Z</time>
      </trkpt>
      <trkpt lat="43.32895" lon="-1.82038">
        <ele>30</ele>
        <time>2026-08-05T08:50:35Z</time>
      </trkpt>
      <trkpt lat="43.32895" lon="-1.82043">
        <ele>29.8</ele>
        <time>2026-08-05T08:50:36Z</time>
      </trkpt>
      <trkpt lat="43.32895" lon="-1.82047">
        <ele>29.8</ele>
        <time>2026-08-05T08:50:37Z</time>
      </trkpt>
      <trkpt lat="43.32896" lon="-1.82051">
        <ele>29.8</ele>
        <time>2026-08-05T08:50:38Z</time>
      </trkpt>
      <trkpt lat="43.32897" lon="-1.82055">
        <ele>29.8</ele>
        <time>2026-08-05T08:50:39Z</time>
      </trkpt>
      <trkpt lat="43.32898" lon="-1.82059">
        <ele>29.8</ele>
        <time>2026-08-05T08:50:40Z</time>
      </trkpt>
      <trkpt lat="43.32899" lon="-1.82063">
        <ele>29.8</ele>
        <time>2026-08-05T08:50:41Z</time>
      </trkpt>
      <trkpt lat="43.329" lon="-1.82067">
        <ele>29.8</ele>
        <time>2026-08-05T08:50:42Z</time>
      </trkpt>
      <trkpt lat="43.32901" lon="-1.82072">
        <ele>29.6</ele>
        <time>2026-08-05T08:50:43Z</time>
      </trkpt>
      <trkpt lat="43.32902" lon="-1.82076">
        <ele>29.6</ele>
        <time>2026-08-05T08:50:44Z</time>
      </trkpt>
      <trkpt lat="43.32902" lon="-1.8208">
        <ele>29.4</ele>
        <time>2026-08-05T08:50:45Z</time>
      </trkpt>
      <trkpt lat="43.32903" lon="-1.82085">
        <ele>29.4</ele>
        <time>2026-08-05T08:50:46Z</time>
      </trkpt>
      <trkpt lat="43.32904" lon="-1.82089">
        <ele>29.4</ele>
        <time>2026-08-05T08:50:47Z</time>
      </trkpt>
      <trkpt lat="43.32905" lon="-1.82094">
        <ele>30</ele>
        <time>2026-08-05T08:50:48Z</time>
      </trkpt>
      <trkpt lat="43.32906" lon="-1.82099">
        <ele>30</ele>
        <time>2026-08-05T08:50:49Z</time>
      </trkpt>
      <trkpt lat="43.32907" lon="-1.82103">
        <ele>30</ele>
        <time>2026-08-05T08:50:50Z</time>
      </trkpt>
      <trkpt lat="43.32908" lon="-1.82107">
        <ele>29.6</ele>
        <time>2026-08-05T08:50:51Z</time>
      </trkpt>
      <trkpt lat="43.32909" lon="-1.82112">
        <ele>29.6</ele>
        <time>2026-08-05T08:50:52Z</time>
      </trkpt>
      <trkpt lat="43.3291" lon="-1.82116">
        <ele>29.6</ele>
        <time>2026-08-05T08:50:53Z</time>
      </trkpt>
      <trkpt lat="43.32911" lon="-1.8212">
        <ele>29.6</ele>
        <time>2026-08-05T08:50:54Z</time>
      </trkpt>
      <trkpt lat="43.32911" lon="-1.82123">
        <ele>29.6</ele>
        <time>2026-08-05T08:50:55Z</time>
      </trkpt>
      <trkpt lat="43.32912" lon="-1.82126">
        <ele>29.6</ele>
        <time>2026-08-05T08:50:56Z</time>
      </trkpt>
      <trkpt lat="43.32913" lon="-1.82128">
        <ele>29.6</ele>
        <time>2026-08-05T08:50:57Z</time>
      </trkpt>
      <trkpt lat="43.32911" lon="-1.82131">
        <ele>29.6</ele>
        <time>2026-08-05T08:50:58Z</time>
      </trkpt>
      <trkpt lat="43.3291" lon="-1.82133">
        <ele>29.6</ele>
        <time>2026-08-05T08:50:59Z</time>
      </trkpt>
      <trkpt lat="43.32907" lon="-1.82134">
        <ele>29.6</ele>
        <time>2026-08-05T08:51:00Z</time>
      </trkpt>
      <trkpt lat="43.32905" lon="-1.82135">
        <ele>29.4</ele>
        <time>2026-08-05T08:51:01Z</time>
      </trkpt>
      <trkpt lat="43.32902" lon="-1.82135">
        <ele>29.4</ele>
        <time>2026-08-05T08:51:02Z</time>
      </trkpt>
      <trkpt lat="43.32899" lon="-1.82135">
        <ele>28.8</ele>
        <time>2026-08-05T08:51:03Z</time>
      </trkpt>
      <trkpt lat="43.32895" lon="-1.82135">
        <ele>28.2</ele>
        <time>2026-08-05T08:51:04Z</time>
      </trkpt>
      <trkpt lat="43.32892" lon="-1.82134">
        <ele>28.2</ele>
        <time>2026-08-05T08:51:05Z</time>
      </trkpt>
      <trkpt lat="43.32887" lon="-1.82135">
        <ele>28.2</ele>
        <time>2026-08-05T08:51:06Z</time>
      </trkpt>
      <trkpt lat="43.32882" lon="-1.82135">
        <ele>28.2</ele>
        <time>2026-08-05T08:51:07Z</time>
      </trkpt>
      <trkpt lat="43.32878" lon="-1.82135">
        <ele>27.4</ele>
        <time>2026-08-05T08:51:08Z</time>
      </trkpt>
      <trkpt lat="43.32873" lon="-1.82135">
        <ele>27.4</ele>
        <time>2026-08-05T08:51:09Z</time>
      </trkpt>
      <trkpt lat="43.32869" lon="-1.82136">
        <ele>27.4</ele>
        <time>2026-08-05T08:51:10Z</time>
      </trkpt>
      <trkpt lat="43.32866" lon="-1.82138">
        <ele>27.4</ele>
        <time>2026-08-05T08:51:11Z</time>
      </trkpt>
      <trkpt lat="43.32864" lon="-1.82141">
        <ele>25.8</ele>
        <time>2026-08-05T08:51:12Z</time>
      </trkpt>
      <trkpt lat="43.32863" lon="-1.82146">
        <ele>25.8</ele>
        <time>2026-08-05T08:51:13Z</time>
      </trkpt>
      <trkpt lat="43.32863" lon="-1.82151">
        <ele>25.8</ele>
        <time>2026-08-05T08:51:14Z</time>
      </trkpt>
      <trkpt lat="43.32864" lon="-1.82157">
        <ele>25.8</ele>
        <time>2026-08-05T08:51:15Z</time>
      </trkpt>
      <trkpt lat="43.32864" lon="-1.82165">
        <ele>25.8</ele>
        <time>2026-08-05T08:51:16Z</time>
      </trkpt>
      <trkpt lat="43.32864" lon="-1.82172">
        <ele>25.8</ele>
        <time>2026-08-05T08:51:17Z</time>
      </trkpt>
      <trkpt lat="43.32864" lon="-1.8218">
        <ele>24.4</ele>
        <time>2026-08-05T08:51:18Z</time>
      </trkpt>
      <trkpt lat="43.32865" lon="-1.82189">
        <ele>24</ele>
        <time>2026-08-05T08:51:19Z</time>
      </trkpt>
      <trkpt lat="43.32865" lon="-1.82197">
        <ele>23.2</ele>
        <time>2026-08-05T08:51:20Z</time>
      </trkpt>
      <trkpt lat="43.32865" lon="-1.82206">
        <ele>23</ele>
        <time>2026-08-05T08:51:21Z</time>
      </trkpt>
      <trkpt lat="43.32866" lon="-1.82215">
        <ele>22.4</ele>
        <time>2026-08-05T08:51:22Z</time>
      </trkpt>
      <trkpt lat="43.32866" lon="-1.82223">
        <ele>21.6</ele>
        <time>2026-08-05T08:51:23Z</time>
      </trkpt>
      <trkpt lat="43.32867" lon="-1.82232">
        <ele>21.4</ele>
        <time>2026-08-05T08:51:24Z</time>
      </trkpt>
      <trkpt lat="43.32867" lon="-1.82241">
        <ele>20.6</ele>
        <time>2026-08-05T08:51:25Z</time>
      </trkpt>
      <trkpt lat="43.32867" lon="-1.8225">
        <ele>20.4</ele>
        <time>2026-08-05T08:51:26Z</time>
      </trkpt>
      <trkpt lat="43.32867" lon="-1.82259">
        <ele>20.4</ele>
        <time>2026-08-05T08:51:27Z</time>
      </trkpt>
      <trkpt lat="43.32867" lon="-1.82268">
        <ele>19</ele>
        <time>2026-08-05T08:51:28Z</time>
      </trkpt>
      <trkpt lat="43.32868" lon="-1.82277">
        <ele>19</ele>
        <time>2026-08-05T08:51:29Z</time>
      </trkpt>
      <trkpt lat="43.32868" lon="-1.82286">
        <ele>17.4</ele>
        <time>2026-08-05T08:51:30Z</time>
      </trkpt>
      <trkpt lat="43.32868" lon="-1.82296">
        <ele>17.4</ele>
        <time>2026-08-05T08:51:31Z</time>
      </trkpt>
      <trkpt lat="43.32868" lon="-1.82305">
        <ele>17.4</ele>
        <time>2026-08-05T08:51:32Z</time>
      </trkpt>
      <trkpt lat="43.32868" lon="-1.82314">
        <ele>17.4</ele>
        <time>2026-08-05T08:51:33Z</time>
      </trkpt>
      <trkpt lat="43.32868" lon="-1.82324">
        <ele>17.4</ele>
        <time>2026-08-05T08:51:34Z</time>
      </trkpt>
      <trkpt lat="43.32869" lon="-1.82333">
        <ele>17.4</ele>
        <time>2026-08-05T08:51:35Z</time>
      </trkpt>
      <trkpt lat="43.32869" lon="-1.82341">
        <ele>16.2</ele>
        <time>2026-08-05T08:51:36Z</time>
      </trkpt>
      <trkpt lat="43.32869" lon="-1.82349">
        <ele>14.8</ele>
        <time>2026-08-05T08:51:37Z</time>
      </trkpt>
      <trkpt lat="43.32869" lon="-1.82357">
        <ele>14.8</ele>
        <time>2026-08-05T08:51:38Z</time>
      </trkpt>
      <trkpt lat="43.32869" lon="-1.82363">
        <ele>14.8</ele>
        <time>2026-08-05T08:51:39Z</time>
      </trkpt>
      <trkpt lat="43.32869" lon="-1.8237">
        <ele>14.8</ele>
        <time>2026-08-05T08:51:40Z</time>
      </trkpt>
      <trkpt lat="43.32869" lon="-1.82377">
        <ele>14.8</ele>
        <time>2026-08-05T08:51:41Z</time>
      </trkpt>
      <trkpt lat="43.32869" lon="-1.82383">
        <ele>13.6</ele>
        <time>2026-08-05T08:51:42Z</time>
      </trkpt>
      <trkpt lat="43.32869" lon="-1.8239">
        <ele>13.4</ele>
        <time>2026-08-05T08:51:43Z</time>
      </trkpt>
      <trkpt lat="43.32869" lon="-1.82396">
        <ele>13.2</ele>
        <time>2026-08-05T08:51:44Z</time>
      </trkpt>
      <trkpt lat="43.32869" lon="-1.82401">
        <ele>13.2</ele>
        <time>2026-08-05T08:51:45Z</time>
      </trkpt>
      <trkpt lat="43.32869" lon="-1.82406">
        <ele>12.6</ele>
        <time>2026-08-05T08:51:46Z</time>
      </trkpt>
      <trkpt lat="43.32869" lon="-1.8241">
        <ele>12.6</ele>
        <time>2026-08-05T08:51:47Z</time>
      </trkpt>
      <trkpt lat="43.32869" lon="-1.82414">
        <ele>12.6</ele>
        <time>2026-08-05T08:51:48Z</time>
      </trkpt>
      <trkpt lat="43.32868" lon="-1.82416">
        <ele>12.6</ele>
        <time>2026-08-05T08:51:49Z</time>
      </trkpt>
      <trkpt lat="43.32868" lon="-1.82418">
        <ele>13</ele>
        <time>2026-08-05T08:51:50Z</time>
      </trkpt>
      <trkpt lat="43.32863" lon="-1.82428">
        <ele>12.2</ele>
        <time>2026-08-05T08:52:03Z</time>
      </trkpt>
      <trkpt lat="43.32861" lon="-1.82432">
        <ele>12.2</ele>
        <time>2026-08-05T08:52:04Z</time>
      </trkpt>
      <trkpt lat="43.32857" lon="-1.82436">
        <ele>12.2</ele>
        <time>2026-08-05T08:52:05Z</time>
      </trkpt>
      <trkpt lat="43.32852" lon="-1.82441">
        <ele>12.2</ele>
        <time>2026-08-05T08:52:06Z</time>
      </trkpt>
      <trkpt lat="43.32847" lon="-1.82447">
        <ele>12.2</ele>
        <time>2026-08-05T08:52:07Z</time>
      </trkpt>
      <trkpt lat="43.32843" lon="-1.82452">
        <ele>12.2</ele>
        <time>2026-08-05T08:52:08Z</time>
      </trkpt>
      <trkpt lat="43.32839" lon="-1.82458">
        <ele>13.2</ele>
        <time>2026-08-05T08:52:09Z</time>
      </trkpt>
      <trkpt lat="43.32835" lon="-1.82463">
        <ele>13.4</ele>
        <time>2026-08-05T08:52:10Z</time>
      </trkpt>
      <trkpt lat="43.32832" lon="-1.82467">
        <ele>13.8</ele>
        <time>2026-08-05T08:52:11Z</time>
      </trkpt>
      <trkpt lat="43.32829" lon="-1.82472">
        <ele>13.8</ele>
        <time>2026-08-05T08:52:12Z</time>
      </trkpt>
      <trkpt lat="43.32826" lon="-1.82476">
        <ele>13.8</ele>
        <time>2026-08-05T08:52:13Z</time>
      </trkpt>
      <trkpt lat="43.32823" lon="-1.8248">
        <ele>13.8</ele>
        <time>2026-08-05T08:52:14Z</time>
      </trkpt>
      <trkpt lat="43.3282" lon="-1.82484">
        <ele>13.8</ele>
        <time>2026-08-05T08:52:15Z</time>
      </trkpt>
      <trkpt lat="43.32818" lon="-1.82488">
        <ele>13.8</ele>
        <time>2026-08-05T08:52:16Z</time>
      </trkpt>
      <trkpt lat="43.32815" lon="-1.82492">
        <ele>14.6</ele>
        <time>2026-08-05T08:52:17Z</time>
      </trkpt>
      <trkpt lat="43.32813" lon="-1.82496">
        <ele>15</ele>
        <time>2026-08-05T08:52:18Z</time>
      </trkpt>
      <trkpt lat="43.3281" lon="-1.82499">
        <ele>15</ele>
        <time>2026-08-05T08:52:19Z</time>
      </trkpt>
      <trkpt lat="43.32807" lon="-1.82503">
        <ele>15</ele>
        <time>2026-08-05T08:52:20Z</time>
      </trkpt>
      <trkpt lat="43.32805" lon="-1.82507">
        <ele>15</ele>
        <time>2026-08-05T08:52:21Z</time>
      </trkpt>
      <trkpt lat="43.32802" lon="-1.8251">
        <ele>15</ele>
        <time>2026-08-05T08:52:22Z</time>
      </trkpt>
      <trkpt lat="43.328" lon="-1.82514">
        <ele>15</ele>
        <time>2026-08-05T08:52:23Z</time>
      </trkpt>
      <trkpt lat="43.32798" lon="-1.82518">
        <ele>15</ele>
        <time>2026-08-05T08:52:24Z</time>
      </trkpt>
      <trkpt lat="43.32795" lon="-1.82522">
        <ele>15</ele>
        <time>2026-08-05T08:52:25Z</time>
      </trkpt>
      <trkpt lat="43.32793" lon="-1.82526">
        <ele>15.8</ele>
        <time>2026-08-05T08:52:26Z</time>
      </trkpt>
      <trkpt lat="43.32791" lon="-1.8253">
        <ele>15.8</ele>
        <time>2026-08-05T08:52:27Z</time>
      </trkpt>
      <trkpt lat="43.32789" lon="-1.82534">
        <ele>15.8</ele>
        <time>2026-08-05T08:52:28Z</time>
      </trkpt>
      <trkpt lat="43.32786" lon="-1.82538">
        <ele>15.6</ele>
        <time>2026-08-05T08:52:29Z</time>
      </trkpt>
      <trkpt lat="43.32784" lon="-1.82542">
        <ele>15.6</ele>
        <time>2026-08-05T08:52:30Z</time>
      </trkpt>
      <trkpt lat="43.32781" lon="-1.82546">
        <ele>15.6</ele>
        <time>2026-08-05T08:52:31Z</time>
      </trkpt>
      <trkpt lat="43.32779" lon="-1.8255">
        <ele>15.6</ele>
        <time>2026-08-05T08:52:32Z</time>
      </trkpt>
      <trkpt lat="43.32776" lon="-1.82555">
        <ele>15.4</ele>
        <time>2026-08-05T08:52:33Z</time>
      </trkpt>
      <trkpt lat="43.32774" lon="-1.82559">
        <ele>15.4</ele>
        <time>2026-08-05T08:52:34Z</time>
      </trkpt>
      <trkpt lat="43.32771" lon="-1.82563">
        <ele>15.4</ele>
        <time>2026-08-05T08:52:35Z</time>
      </trkpt>
      <trkpt lat="43.32768" lon="-1.82567">
        <ele>15.4</ele>
        <time>2026-08-05T08:52:36Z</time>
      </trkpt>
      <trkpt lat="43.32765" lon="-1.82571">
        <ele>15.4</ele>
        <time>2026-08-05T08:52:37Z</time>
      </trkpt>
      <trkpt lat="43.32762" lon="-1.82576">
        <ele>15.4</ele>
        <time>2026-08-05T08:52:38Z</time>
      </trkpt>
      <trkpt lat="43.3276" lon="-1.8258">
        <ele>15.4</ele>
        <time>2026-08-05T08:52:39Z</time>
      </trkpt>
      <trkpt lat="43.32757" lon="-1.82584">
        <ele>15</ele>
        <time>2026-08-05T08:52:40Z</time>
      </trkpt>
      <trkpt lat="43.32755" lon="-1.82588">
        <ele>15</ele>
        <time>2026-08-05T08:52:41Z</time>
      </trkpt>
      <trkpt lat="43.32752" lon="-1.82592">
        <ele>15</ele>
        <time>2026-08-05T08:52:42Z</time>
      </trkpt>
      <trkpt lat="43.3275" lon="-1.82597">
        <ele>15</ele>
        <time>2026-08-05T08:52:43Z</time>
      </trkpt>
      <trkpt lat="43.32747" lon="-1.82601">
        <ele>15</ele>
        <time>2026-08-05T08:52:44Z</time>
      </trkpt>
      <trkpt lat="43.32744" lon="-1.82605">
        <ele>15.2</ele>
        <time>2026-08-05T08:52:45Z</time>
      </trkpt>
      <trkpt lat="43.32741" lon="-1.8261">
        <ele>15.2</ele>
        <time>2026-08-05T08:52:46Z</time>
      </trkpt>
      <trkpt lat="43.32739" lon="-1.82614">
        <ele>15.2</ele>
        <time>2026-08-05T08:52:47Z</time>
      </trkpt>
      <trkpt lat="43.32736" lon="-1.82618">
        <ele>15.2</ele>
        <time>2026-08-05T08:52:48Z</time>
      </trkpt>
      <trkpt lat="43.32733" lon="-1.82623">
        <ele>15.2</ele>
        <time>2026-08-05T08:52:49Z</time>
      </trkpt>
      <trkpt lat="43.32731" lon="-1.82627">
        <ele>15.2</ele>
        <time>2026-08-05T08:52:50Z</time>
      </trkpt>
      <trkpt lat="43.32728" lon="-1.82631">
        <ele>15.2</ele>
        <time>2026-08-05T08:52:51Z</time>
      </trkpt>
      <trkpt lat="43.32725" lon="-1.82635">
        <ele>15.2</ele>
        <time>2026-08-05T08:52:52Z</time>
      </trkpt>
      <trkpt lat="43.32723" lon="-1.82639">
        <ele>15.8</ele>
        <time>2026-08-05T08:52:53Z</time>
      </trkpt>
      <trkpt lat="43.3272" lon="-1.82643">
        <ele>15.8</ele>
        <time>2026-08-05T08:52:54Z</time>
      </trkpt>
      <trkpt lat="43.32717" lon="-1.82647">
        <ele>15.8</ele>
        <time>2026-08-05T08:52:55Z</time>
      </trkpt>
      <trkpt lat="43.32715" lon="-1.82652">
        <ele>15.8</ele>
        <time>2026-08-05T08:52:56Z</time>
      </trkpt>
      <trkpt lat="43.32712" lon="-1.82656">
        <ele>15.8</ele>
        <time>2026-08-05T08:52:57Z</time>
      </trkpt>
      <trkpt lat="43.32709" lon="-1.8266">
        <ele>15.8</ele>
        <time>2026-08-05T08:52:58Z</time>
      </trkpt>
      <trkpt lat="43.32707" lon="-1.82664">
        <ele>15.8</ele>
        <time>2026-08-05T08:52:59Z</time>
      </trkpt>
      <trkpt lat="43.32704" lon="-1.82667">
        <ele>15.8</ele>
        <time>2026-08-05T08:53:00Z</time>
      </trkpt>
      <trkpt lat="43.32702" lon="-1.8267">
        <ele>15.8</ele>
        <time>2026-08-05T08:53:01Z</time>
      </trkpt>
      <trkpt lat="43.327" lon="-1.82673">
        <ele>15.8</ele>
        <time>2026-08-05T08:53:02Z</time>
      </trkpt>
      <trkpt lat="43.32698" lon="-1.82675">
        <ele>15.8</ele>
        <time>2026-08-05T08:53:03Z</time>
      </trkpt>
      <trkpt lat="43.32697" lon="-1.82677">
        <ele>15.6</ele>
        <time>2026-08-05T08:53:04Z</time>
      </trkpt>
      <trkpt lat="43.32695" lon="-1.82679">
        <ele>15.6</ele>
        <time>2026-08-05T08:53:05Z</time>
      </trkpt>
      <trkpt lat="43.32694" lon="-1.8268">
        <ele>15.6</ele>
        <time>2026-08-05T08:53:06Z</time>
      </trkpt>
      <trkpt lat="43.32693" lon="-1.82682">
        <ele>15.6</ele>
        <time>2026-08-05T08:53:07Z</time>
      </trkpt>
      <trkpt lat="43.32692" lon="-1.82682">
        <ele>15.6</ele>
        <time>2026-08-05T08:53:08Z</time>
      </trkpt>
      <trkpt lat="43.32692" lon="-1.82682">
        <ele>15.6</ele>
        <time>2026-08-05T08:53:09Z</time>
      </trkpt>
      <trkpt lat="43.32687" lon="-1.82684">
        <ele>15.6</ele>
        <time>2026-08-05T08:53:18Z</time>
      </trkpt>
      <trkpt lat="43.32685" lon="-1.82687">
        <ele>15.6</ele>
        <time>2026-08-05T08:53:19Z</time>
      </trkpt>
      <trkpt lat="43.32683" lon="-1.82691">
        <ele>15.6</ele>
        <time>2026-08-05T08:53:20Z</time>
      </trkpt>
      <trkpt lat="43.32681" lon="-1.82696">
        <ele>15.2</ele>
        <time>2026-08-05T08:53:21Z</time>
      </trkpt>
      <trkpt lat="43.32679" lon="-1.82701">
        <ele>15.2</ele>
        <time>2026-08-05T08:53:22Z</time>
      </trkpt>
      <trkpt lat="43.32676" lon="-1.82706">
        <ele>15.6</ele>
        <time>2026-08-05T08:53:23Z</time>
      </trkpt>
      <trkpt lat="43.32674" lon="-1.8271">
        <ele>15.6</ele>
        <time>2026-08-05T08:53:24Z</time>
      </trkpt>
      <trkpt lat="43.32671" lon="-1.82715">
        <ele>16</ele>
        <time>2026-08-05T08:53:25Z</time>
      </trkpt>
      <trkpt lat="43.32668" lon="-1.82719">
        <ele>16</ele>
        <time>2026-08-05T08:53:26Z</time>
      </trkpt>
      <trkpt lat="43.32665" lon="-1.82724">
        <ele>16</ele>
        <time>2026-08-05T08:53:27Z</time>
      </trkpt>
      <trkpt lat="43.32663" lon="-1.82728">
        <ele>16</ele>
        <time>2026-08-05T08:53:28Z</time>
      </trkpt>
      <trkpt lat="43.3266" lon="-1.82732">
        <ele>16</ele>
        <time>2026-08-05T08:53:29Z</time>
      </trkpt>
      <trkpt lat="43.32658" lon="-1.82735">
        <ele>16.4</ele>
        <time>2026-08-05T08:53:30Z</time>
      </trkpt>
      <trkpt lat="43.32656" lon="-1.82737">
        <ele>16.8</ele>
        <time>2026-08-05T08:53:31Z</time>
      </trkpt>
      <trkpt lat="43.32654" lon="-1.8274">
        <ele>17</ele>
        <time>2026-08-05T08:53:32Z</time>
      </trkpt>
      <trkpt lat="43.32652" lon="-1.82743">
        <ele>17</ele>
        <time>2026-08-05T08:53:33Z</time>
      </trkpt>
      <trkpt lat="43.3265" lon="-1.82746">
        <ele>17</ele>
        <time>2026-08-05T08:53:34Z</time>
      </trkpt>
      <trkpt lat="43.32648" lon="-1.82749">
        <ele>17</ele>
        <time>2026-08-05T08:53:35Z</time>
      </trkpt>
      <trkpt lat="43.32647" lon="-1.82752">
        <ele>18</ele>
        <time>2026-08-05T08:53:36Z</time>
      </trkpt>
      <trkpt lat="43.32646" lon="-1.82755">
        <ele>18.4</ele>
        <time>2026-08-05T08:53:37Z</time>
      </trkpt>
      <trkpt lat="43.32645" lon="-1.82759">
        <ele>18.4</ele>
        <time>2026-08-05T08:53:38Z</time>
      </trkpt>
      <trkpt lat="43.32644" lon="-1.82763">
        <ele>18.4</ele>
        <time>2026-08-05T08:53:39Z</time>
      </trkpt>
      <trkpt lat="43.32644" lon="-1.82766">
        <ele>18.4</ele>
        <time>2026-08-05T08:53:40Z</time>
      </trkpt>
      <trkpt lat="43.32644" lon="-1.8277">
        <ele>18.8</ele>
        <time>2026-08-05T08:53:41Z</time>
      </trkpt>
      <trkpt lat="43.32643" lon="-1.82774">
        <ele>19.6</ele>
        <time>2026-08-05T08:53:42Z</time>
      </trkpt>
      <trkpt lat="43.32643" lon="-1.82778">
        <ele>20.6</ele>
        <time>2026-08-05T08:53:43Z</time>
      </trkpt>
      <trkpt lat="43.32643" lon="-1.82782">
        <ele>20.6</ele>
        <time>2026-08-05T08:53:44Z</time>
      </trkpt>
      <trkpt lat="43.32642" lon="-1.82785">
        <ele>20.6</ele>
        <time>2026-08-05T08:53:45Z</time>
      </trkpt>
      <trkpt lat="43.32642" lon="-1.82789">
        <ele>20.6</ele>
        <time>2026-08-05T08:53:46Z</time>
      </trkpt>
      <trkpt lat="43.32642" lon="-1.82792">
        <ele>20.6</ele>
        <time>2026-08-05T08:53:47Z</time>
      </trkpt>
      <trkpt lat="43.32641" lon="-1.82795">
        <ele>20.6</ele>
        <time>2026-08-05T08:53:48Z</time>
      </trkpt>
      <trkpt lat="43.32641" lon="-1.82798">
        <ele>20.6</ele>
        <time>2026-08-05T08:53:49Z</time>
      </trkpt>
      <trkpt lat="43.32642" lon="-1.82801">
        <ele>20.6</ele>
        <time>2026-08-05T08:53:50Z</time>
      </trkpt>
      <trkpt lat="43.32642" lon="-1.82805">
        <ele>21.4</ele>
        <time>2026-08-05T08:53:51Z</time>
      </trkpt>
      <trkpt lat="43.32643" lon="-1.82808">
        <ele>21.4</ele>
        <time>2026-08-05T08:53:52Z</time>
      </trkpt>
      <trkpt lat="43.32643" lon="-1.8281">
        <ele>21.4</ele>
        <time>2026-08-05T08:53:53Z</time>
      </trkpt>
      <trkpt lat="43.32644" lon="-1.82813">
        <ele>21.4</ele>
        <time>2026-08-05T08:53:54Z</time>
      </trkpt>
      <trkpt lat="43.32645" lon="-1.82816">
        <ele>22.2</ele>
        <time>2026-08-05T08:53:55Z</time>
      </trkpt>
      <trkpt lat="43.32646" lon="-1.82819">
        <ele>22.2</ele>
        <time>2026-08-05T08:53:56Z</time>
      </trkpt>
      <trkpt lat="43.32647" lon="-1.82822">
        <ele>22.2</ele>
        <time>2026-08-05T08:53:57Z</time>
      </trkpt>
      <trkpt lat="43.32646" lon="-1.82825">
        <ele>22.2</ele>
        <time>2026-08-05T08:53:58Z</time>
      </trkpt>
      <trkpt lat="43.32646" lon="-1.82828">
        <ele>22.2</ele>
        <time>2026-08-05T08:53:59Z</time>
      </trkpt>
      <trkpt lat="43.32644" lon="-1.82831">
        <ele>22.2</ele>
        <time>2026-08-05T08:54:00Z</time>
      </trkpt>
      <trkpt lat="43.32642" lon="-1.82835">
        <ele>22.2</ele>
        <time>2026-08-05T08:54:01Z</time>
      </trkpt>
      <trkpt lat="43.3264" lon="-1.82838">
        <ele>22.2</ele>
        <time>2026-08-05T08:54:02Z</time>
      </trkpt>
      <trkpt lat="43.32638" lon="-1.82842">
        <ele>21.4</ele>
        <time>2026-08-05T08:54:03Z</time>
      </trkpt>
      <trkpt lat="43.32636" lon="-1.82845">
        <ele>21.4</ele>
        <time>2026-08-05T08:54:04Z</time>
      </trkpt>
      <trkpt lat="43.32634" lon="-1.82849">
        <ele>21.4</ele>
        <time>2026-08-05T08:54:05Z</time>
      </trkpt>
      <trkpt lat="43.32632" lon="-1.82853">
        <ele>21.4</ele>
        <time>2026-08-05T08:54:06Z</time>
      </trkpt>
      <trkpt lat="43.3263" lon="-1.82857">
        <ele>21.4</ele>
        <time>2026-08-05T08:54:07Z</time>
      </trkpt>
      <trkpt lat="43.3263" lon="-1.82862">
        <ele>21.2</ele>
        <time>2026-08-05T08:54:08Z</time>
      </trkpt>
      <trkpt lat="43.3263" lon="-1.82867">
        <ele>21.2</ele>
        <time>2026-08-05T08:54:09Z</time>
      </trkpt>
      <trkpt lat="43.32631" lon="-1.82871">
        <ele>21.2</ele>
        <time>2026-08-05T08:54:10Z</time>
      </trkpt>
      <trkpt lat="43.32634" lon="-1.82874">
        <ele>21.6</ele>
        <time>2026-08-05T08:54:11Z</time>
      </trkpt>
      <trkpt lat="43.32636" lon="-1.82878">
        <ele>21.8</ele>
        <time>2026-08-05T08:54:12Z</time>
      </trkpt>
      <trkpt lat="43.32638" lon="-1.8288">
        <ele>21.8</ele>
        <time>2026-08-05T08:54:13Z</time>
      </trkpt>
      <trkpt lat="43.32641" lon="-1.82883">
        <ele>21.8</ele>
        <time>2026-08-05T08:54:14Z</time>
      </trkpt>
      <trkpt lat="43.32643" lon="-1.82887">
        <ele>21.8</ele>
        <time>2026-08-05T08:54:15Z</time>
      </trkpt>
      <trkpt lat="43.32645" lon="-1.82891">
        <ele>21.8</ele>
        <time>2026-08-05T08:54:16Z</time>
      </trkpt>
      <trkpt lat="43.32647" lon="-1.82895">
        <ele>21.8</ele>
        <time>2026-08-05T08:54:17Z</time>
      </trkpt>
      <trkpt lat="43.3265" lon="-1.82898">
        <ele>21.2</ele>
        <time>2026-08-05T08:54:18Z</time>
      </trkpt>
      <trkpt lat="43.32652" lon="-1.82902">
        <ele>20.8</ele>
        <time>2026-08-05T08:54:19Z</time>
      </trkpt>
      <trkpt lat="43.32655" lon="-1.82906">
        <ele>20.8</ele>
        <time>2026-08-05T08:54:20Z</time>
      </trkpt>
      <trkpt lat="43.32658" lon="-1.8291">
        <ele>20.8</ele>
        <time>2026-08-05T08:54:21Z</time>
      </trkpt>
      <trkpt lat="43.32661" lon="-1.82913">
        <ele>21.2</ele>
        <time>2026-08-05T08:54:22Z</time>
      </trkpt>
      <trkpt lat="43.32665" lon="-1.82916">
        <ele>21.2</ele>
        <time>2026-08-05T08:54:23Z</time>
      </trkpt>
      <trkpt lat="43.32668" lon="-1.82919">
        <ele>21.2</ele>
        <time>2026-08-05T08:54:24Z</time>
      </trkpt>
      <trkpt lat="43.32671" lon="-1.82923">
        <ele>21.2</ele>
        <time>2026-08-05T08:54:25Z</time>
      </trkpt>
      <trkpt lat="43.32673" lon="-1.82927">
        <ele>20.8</ele>
        <time>2026-08-05T08:54:26Z</time>
      </trkpt>
      <trkpt lat="43.32676" lon="-1.82931">
        <ele>20.6</ele>
        <time>2026-08-05T08:54:27Z</time>
      </trkpt>
      <trkpt lat="43.3268" lon="-1.82936">
        <ele>20.6</ele>
        <time>2026-08-05T08:54:28Z</time>
      </trkpt>
      <trkpt lat="43.32683" lon="-1.8294">
        <ele>20.2</ele>
        <time>2026-08-05T08:54:29Z</time>
      </trkpt>
      <trkpt lat="43.32686" lon="-1.82944">
        <ele>20.2</ele>
        <time>2026-08-05T08:54:30Z</time>
      </trkpt>
      <trkpt lat="43.32688" lon="-1.82948">
        <ele>20.2</ele>
        <time>2026-08-05T08:54:31Z</time>
      </trkpt>
      <trkpt lat="43.3269" lon="-1.82952">
        <ele>20.2</ele>
        <time>2026-08-05T08:54:32Z</time>
      </trkpt>
      <trkpt lat="43.32692" lon="-1.82957">
        <ele>20.2</ele>
        <time>2026-08-05T08:54:33Z</time>
      </trkpt>
      <trkpt lat="43.32695" lon="-1.82963">
        <ele>20.2</ele>
        <time>2026-08-05T08:54:34Z</time>
      </trkpt>
      <trkpt lat="43.32696" lon="-1.82968">
        <ele>20.2</ele>
        <time>2026-08-05T08:54:35Z</time>
      </trkpt>
      <trkpt lat="43.32698" lon="-1.82974">
        <ele>20.2</ele>
        <time>2026-08-05T08:54:36Z</time>
      </trkpt>
      <trkpt lat="43.32701" lon="-1.8298">
        <ele>20.2</ele>
        <time>2026-08-05T08:54:37Z</time>
      </trkpt>
      <trkpt lat="43.32704" lon="-1.82984">
        <ele>20</ele>
        <time>2026-08-05T08:54:38Z</time>
      </trkpt>
      <trkpt lat="43.32707" lon="-1.8299">
        <ele>20</ele>
        <time>2026-08-05T08:54:39Z</time>
      </trkpt>
      <trkpt lat="43.32709" lon="-1.82995">
        <ele>20</ele>
        <time>2026-08-05T08:54:40Z</time>
      </trkpt>
      <trkpt lat="43.3271" lon="-1.83001">
        <ele>20</ele>
        <time>2026-08-05T08:54:41Z</time>
      </trkpt>
      <trkpt lat="43.32711" lon="-1.83007">
        <ele>20</ele>
        <time>2026-08-05T08:54:42Z</time>
      </trkpt>
      <trkpt lat="43.32712" lon="-1.83012">
        <ele>20</ele>
        <time>2026-08-05T08:54:43Z</time>
      </trkpt>
      <trkpt lat="43.32712" lon="-1.83017">
        <ele>20</ele>
        <time>2026-08-05T08:54:44Z</time>
      </trkpt>
      <trkpt lat="43.32712" lon="-1.83023">
        <ele>20</ele>
        <time>2026-08-05T08:54:45Z</time>
      </trkpt>
      <trkpt lat="43.32712" lon="-1.83029">
        <ele>20.8</ele>
        <time>2026-08-05T08:54:46Z</time>
      </trkpt>
      <trkpt lat="43.32712" lon="-1.83034">
        <ele>21</ele>
        <time>2026-08-05T08:54:47Z</time>
      </trkpt>
      <trkpt lat="43.32713" lon="-1.83039">
        <ele>21</ele>
        <time>2026-08-05T08:54:48Z</time>
      </trkpt>
      <trkpt lat="43.32713" lon="-1.83045">
        <ele>21</ele>
        <time>2026-08-05T08:54:49Z</time>
      </trkpt>
      <trkpt lat="43.32713" lon="-1.8305">
        <ele>20.2</ele>
        <time>2026-08-05T08:54:50Z</time>
      </trkpt>
      <trkpt lat="43.32712" lon="-1.83056">
        <ele>20.2</ele>
        <time>2026-08-05T08:54:51Z</time>
      </trkpt>
      <trkpt lat="43.32712" lon="-1.83061">
        <ele>20.2</ele>
        <time>2026-08-05T08:54:52Z</time>
      </trkpt>
      <trkpt lat="43.32711" lon="-1.83066">
        <ele>20.2</ele>
        <time>2026-08-05T08:54:53Z</time>
      </trkpt>
      <trkpt lat="43.3271" lon="-1.83071">
        <ele>21</ele>
        <time>2026-08-05T08:54:54Z</time>
      </trkpt>
      <trkpt lat="43.32708" lon="-1.83075">
        <ele>19.6</ele>
        <time>2026-08-05T08:54:55Z</time>
      </trkpt>
      <trkpt lat="43.32706" lon="-1.83079">
        <ele>19.6</ele>
        <time>2026-08-05T08:54:56Z</time>
      </trkpt>
      <trkpt lat="43.32703" lon="-1.83082">
        <ele>19.6</ele>
        <time>2026-08-05T08:54:57Z</time>
      </trkpt>
      <trkpt lat="43.327" lon="-1.83085">
        <ele>23.6</ele>
        <time>2026-08-05T08:54:58Z</time>
      </trkpt>
      <trkpt lat="43.32696" lon="-1.83088">
        <ele>23.6</ele>
        <time>2026-08-05T08:54:59Z</time>
      </trkpt>
      <trkpt lat="43.32693" lon="-1.8309">
        <ele>23.6</ele>
        <time>2026-08-05T08:55:00Z</time>
      </trkpt>
      <trkpt lat="43.32689" lon="-1.83092">
        <ele>21.8</ele>
        <time>2026-08-05T08:55:01Z</time>
      </trkpt>
      <trkpt lat="43.32686" lon="-1.83094">
        <ele>21.8</ele>
        <time>2026-08-05T08:55:02Z</time>
      </trkpt>
      <trkpt lat="43.32683" lon="-1.83096">
        <ele>21.8</ele>
        <time>2026-08-05T08:55:03Z</time>
      </trkpt>
      <trkpt lat="43.3268" lon="-1.83098">
        <ele>21.6</ele>
        <time>2026-08-05T08:55:04Z</time>
      </trkpt>
      <trkpt lat="43.32676" lon="-1.831">
        <ele>21.6</ele>
        <time>2026-08-05T08:55:05Z</time>
      </trkpt>
      <trkpt lat="43.32673" lon="-1.83102">
        <ele>21.6</ele>
        <time>2026-08-05T08:55:06Z</time>
      </trkpt>
      <trkpt lat="43.32669" lon="-1.83104">
        <ele>21.6</ele>
        <time>2026-08-05T08:55:07Z</time>
      </trkpt>
      <trkpt lat="43.32666" lon="-1.83106">
        <ele>21.8</ele>
        <time>2026-08-05T08:55:08Z</time>
      </trkpt>
      <trkpt lat="43.32663" lon="-1.83109">
        <ele>22</ele>
        <time>2026-08-05T08:55:09Z</time>
      </trkpt>
      <trkpt lat="43.32661" lon="-1.83111">
        <ele>22</ele>
        <time>2026-08-05T08:55:10Z</time>
      </trkpt>
      <trkpt lat="43.32658" lon="-1.83114">
        <ele>22</ele>
        <time>2026-08-05T08:55:11Z</time>
      </trkpt>
      <trkpt lat="43.32655" lon="-1.83117">
        <ele>22</ele>
        <time>2026-08-05T08:55:12Z</time>
      </trkpt>
      <trkpt lat="43.32653" lon="-1.83119">
        <ele>22</ele>
        <time>2026-08-05T08:55:13Z</time>
      </trkpt>
      <trkpt lat="43.3265" lon="-1.83122">
        <ele>22</ele>
        <time>2026-08-05T08:55:14Z</time>
      </trkpt>
      <trkpt lat="43.32647" lon="-1.83124">
        <ele>22</ele>
        <time>2026-08-05T08:55:15Z</time>
      </trkpt>
      <trkpt lat="43.32644" lon="-1.83126">
        <ele>22</ele>
        <time>2026-08-05T08:55:16Z</time>
      </trkpt>
      <trkpt lat="43.32642" lon="-1.83128">
        <ele>22.4</ele>
        <time>2026-08-05T08:55:17Z</time>
      </trkpt>
      <trkpt lat="43.32639" lon="-1.83131">
        <ele>22.4</ele>
        <time>2026-08-05T08:55:18Z</time>
      </trkpt>
      <trkpt lat="43.32636" lon="-1.83133">
        <ele>22.4</ele>
        <time>2026-08-05T08:55:19Z</time>
      </trkpt>
      <trkpt lat="43.32633" lon="-1.83136">
        <ele>22.4</ele>
        <time>2026-08-05T08:55:20Z</time>
      </trkpt>
      <trkpt lat="43.3263" lon="-1.83138">
        <ele>22.4</ele>
        <time>2026-08-05T08:55:21Z</time>
      </trkpt>
      <trkpt lat="43.32627" lon="-1.8314">
        <ele>22.4</ele>
        <time>2026-08-05T08:55:22Z</time>
      </trkpt>
      <trkpt lat="43.32625" lon="-1.83142">
        <ele>22.4</ele>
        <time>2026-08-05T08:55:23Z</time>
      </trkpt>
      <trkpt lat="43.32622" lon="-1.83144">
        <ele>23.2</ele>
        <time>2026-08-05T08:55:24Z</time>
      </trkpt>
      <trkpt lat="43.32619" lon="-1.83146">
        <ele>23.2</ele>
        <time>2026-08-05T08:55:25Z</time>
      </trkpt>
      <trkpt lat="43.32617" lon="-1.83148">
        <ele>23.2</ele>
        <time>2026-08-05T08:55:26Z</time>
      </trkpt>
      <trkpt lat="43.32615" lon="-1.83149">
        <ele>23.2</ele>
        <time>2026-08-05T08:55:27Z</time>
      </trkpt>
      <trkpt lat="43.32613" lon="-1.83151">
        <ele>23.2</ele>
        <time>2026-08-05T08:55:28Z</time>
      </trkpt>
      <trkpt lat="43.32612" lon="-1.83151">
        <ele>23.2</ele>
        <time>2026-08-05T08:55:29Z</time>
      </trkpt>
      <trkpt lat="43.32612" lon="-1.83152">
        <ele>23.2</ele>
        <time>2026-08-05T08:55:30Z</time>
      </trkpt>
      <trkpt lat="43.32609" lon="-1.8315">
        <ele>23.2</ele>
        <time>2026-08-05T08:55:36Z</time>
      </trkpt>
      <trkpt lat="43.32608" lon="-1.83149">
        <ele>23</ele>
        <time>2026-08-05T08:55:37Z</time>
      </trkpt>
      <trkpt lat="43.32606" lon="-1.83148">
        <ele>23</ele>
        <time>2026-08-05T08:55:38Z</time>
      </trkpt>
      <trkpt lat="43.32605" lon="-1.83147">
        <ele>23</ele>
        <time>2026-08-05T08:55:39Z</time>
      </trkpt>
      <trkpt lat="43.32605" lon="-1.83146">
        <ele>23</ele>
        <time>2026-08-05T08:55:40Z</time>
      </trkpt>
      <trkpt lat="43.32605" lon="-1.83146">
        <ele>23.2</ele>
        <time>2026-08-05T08:55:41Z</time>
      </trkpt>
      <trkpt lat="43.32605" lon="-1.83146">
        <ele>23.2</ele>
        <time>2026-08-05T08:55:42Z</time>
      </trkpt>
      <trkpt lat="43.32607" lon="-1.83148">
        <ele>23</ele>
        <time>2026-08-05T08:57:22Z</time>
      </trkpt>
      <trkpt lat="43.32609" lon="-1.83147">
        <ele>23</ele>
        <time>2026-08-05T08:57:23Z</time>
      </trkpt>
      <trkpt lat="43.32612" lon="-1.83145">
        <ele>23</ele>
        <time>2026-08-05T08:57:24Z</time>
      </trkpt>
      <trkpt lat="43.32615" lon="-1.83143">
        <ele>22.4</ele>
        <time>2026-08-05T08:57:25Z</time>
      </trkpt>
      <trkpt lat="43.32618" lon="-1.83141">
        <ele>22.4</ele>
        <time>2026-08-05T08:57:26Z</time>
      </trkpt>
      <trkpt lat="43.32622" lon="-1.83138">
        <ele>22.4</ele>
        <time>2026-08-05T08:57:27Z</time>
      </trkpt>
      <trkpt lat="43.32625" lon="-1.83135">
        <ele>22.4</ele>
        <time>2026-08-05T08:57:28Z</time>
      </trkpt>
      <trkpt lat="43.32628" lon="-1.83133">
        <ele>20.4</ele>
        <time>2026-08-05T08:57:29Z</time>
      </trkpt>
      <trkpt lat="43.32632" lon="-1.83131">
        <ele>20.4</ele>
        <time>2026-08-05T08:57:30Z</time>
      </trkpt>
      <trkpt lat="43.32636" lon="-1.83128">
        <ele>20.4</ele>
        <time>2026-08-05T08:57:31Z</time>
      </trkpt>
      <trkpt lat="43.32639" lon="-1.83125">
        <ele>21.4</ele>
        <time>2026-08-05T08:57:32Z</time>
      </trkpt>
      <trkpt lat="43.32643" lon="-1.83122">
        <ele>22.4</ele>
        <time>2026-08-05T08:57:33Z</time>
      </trkpt>
      <trkpt lat="43.32646" lon="-1.8312">
        <ele>22.4</ele>
        <time>2026-08-05T08:57:34Z</time>
      </trkpt>
      <trkpt lat="43.3265" lon="-1.83117">
        <ele>22.4</ele>
        <time>2026-08-05T08:57:35Z</time>
      </trkpt>
      <trkpt lat="43.32653" lon="-1.83114">
        <ele>22.4</ele>
        <time>2026-08-05T08:57:36Z</time>
      </trkpt>
      <trkpt lat="43.32657" lon="-1.83112">
        <ele>23</ele>
        <time>2026-08-05T08:57:37Z</time>
      </trkpt>
      <trkpt lat="43.32661" lon="-1.83109">
        <ele>23</ele>
        <time>2026-08-05T08:57:38Z</time>
      </trkpt>
      <trkpt lat="43.32664" lon="-1.83106">
        <ele>23</ele>
        <time>2026-08-05T08:57:39Z</time>
      </trkpt>
      <trkpt lat="43.32668" lon="-1.83103">
        <ele>23</ele>
        <time>2026-08-05T08:57:40Z</time>
      </trkpt>
      <trkpt lat="43.32671" lon="-1.83101">
        <ele>22</ele>
        <time>2026-08-05T08:57:41Z</time>
      </trkpt>
      <trkpt lat="43.32675" lon="-1.83098">
        <ele>21</ele>
        <time>2026-08-05T08:57:42Z</time>
      </trkpt>
      <trkpt lat="43.32679" lon="-1.83096">
        <ele>21</ele>
        <time>2026-08-05T08:57:43Z</time>
      </trkpt>
      <trkpt lat="43.32683" lon="-1.83094">
        <ele>21</ele>
        <time>2026-08-05T08:57:44Z</time>
      </trkpt>
      <trkpt lat="43.32687" lon="-1.83091">
        <ele>21.4</ele>
        <time>2026-08-05T08:57:45Z</time>
      </trkpt>
      <trkpt lat="43.3269" lon="-1.83088">
        <ele>21.6</ele>
        <time>2026-08-05T08:57:46Z</time>
      </trkpt>
      <trkpt lat="43.32694" lon="-1.83085">
        <ele>21.6</ele>
        <time>2026-08-05T08:57:47Z</time>
      </trkpt>
      <trkpt lat="43.32698" lon="-1.83082">
        <ele>21.6</ele>
        <time>2026-08-05T08:57:48Z</time>
      </trkpt>
      <trkpt lat="43.32702" lon="-1.83078">
        <ele>21.6</ele>
        <time>2026-08-05T08:57:49Z</time>
      </trkpt>
      <trkpt lat="43.32705" lon="-1.83074">
        <ele>21.6</ele>
        <time>2026-08-05T08:57:50Z</time>
      </trkpt>
      <trkpt lat="43.32708" lon="-1.83069">
        <ele>21</ele>
        <time>2026-08-05T08:57:51Z</time>
      </trkpt>
      <trkpt lat="43.3271" lon="-1.83064">
        <ele>20.8</ele>
        <time>2026-08-05T08:57:52Z</time>
      </trkpt>
      <trkpt lat="43.32711" lon="-1.83058">
        <ele>20.2</ele>
        <time>2026-08-05T08:57:53Z</time>
      </trkpt>
      <trkpt lat="43.32712" lon="-1.83052">
        <ele>20.2</ele>
        <time>2026-08-05T08:57:54Z</time>
      </trkpt>
      <trkpt lat="43.32713" lon="-1.83046">
        <ele>20.2</ele>
        <time>2026-08-05T08:57:55Z</time>
      </trkpt>
      <trkpt lat="43.32713" lon="-1.8304">
        <ele>20.2</ele>
        <time>2026-08-05T08:57:56Z</time>
      </trkpt>
      <trkpt lat="43.32713" lon="-1.83034">
        <ele>20.2</ele>
        <time>2026-08-05T08:57:57Z</time>
      </trkpt>
      <trkpt lat="43.32714" lon="-1.83028">
        <ele>20.2</ele>
        <time>2026-08-05T08:57:58Z</time>
      </trkpt>
      <trkpt lat="43.32714" lon="-1.83021">
        <ele>20.2</ele>
        <time>2026-08-05T08:57:59Z</time>
      </trkpt>
      <trkpt lat="43.32714" lon="-1.83015">
        <ele>20.2</ele>
        <time>2026-08-05T08:58:00Z</time>
      </trkpt>
      <trkpt lat="43.32715" lon="-1.8301">
        <ele>20.4</ele>
        <time>2026-08-05T08:58:01Z</time>
      </trkpt>
      <trkpt lat="43.32714" lon="-1.83004">
        <ele>20.6</ele>
        <time>2026-08-05T08:58:02Z</time>
      </trkpt>
      <trkpt lat="43.32714" lon="-1.82999">
        <ele>20.8</ele>
        <time>2026-08-05T08:58:03Z</time>
      </trkpt>
      <trkpt lat="43.32711" lon="-1.82995">
        <ele>20.8</ele>
        <time>2026-08-05T08:58:04Z</time>
      </trkpt>
      <trkpt lat="43.32708" lon="-1.82994">
        <ele>20.8</ele>
        <time>2026-08-05T08:58:05Z</time>
      </trkpt>
      <trkpt lat="43.32705" lon="-1.82994">
        <ele>20.4</ele>
        <time>2026-08-05T08:58:06Z</time>
      </trkpt>
      <trkpt lat="43.32703" lon="-1.82996">
        <ele>20.4</ele>
        <time>2026-08-05T08:58:07Z</time>
      </trkpt>
      <trkpt lat="43.327" lon="-1.82999">
        <ele>20.4</ele>
        <time>2026-08-05T08:58:08Z</time>
      </trkpt>
      <trkpt lat="43.32698" lon="-1.83002">
        <ele>20.4</ele>
        <time>2026-08-05T08:58:09Z</time>
      </trkpt>
      <trkpt lat="43.32696" lon="-1.83006">
        <ele>20.4</ele>
        <time>2026-08-05T08:58:10Z</time>
      </trkpt>
      <trkpt lat="43.32695" lon="-1.83009">
        <ele>20.4</ele>
        <time>2026-08-05T08:58:11Z</time>
      </trkpt>
      <trkpt lat="43.32693" lon="-1.83012">
        <ele>20.4</ele>
        <time>2026-08-05T08:58:12Z</time>
      </trkpt>
      <trkpt lat="43.32691" lon="-1.83016">
        <ele>21.4</ele>
        <time>2026-08-05T08:58:13Z</time>
      </trkpt>
      <trkpt lat="43.32689" lon="-1.83019">
        <ele>21.4</ele>
        <time>2026-08-05T08:58:14Z</time>
      </trkpt>
      <trkpt lat="43.32688" lon="-1.83021">
        <ele>21.4</ele>
        <time>2026-08-05T08:58:15Z</time>
      </trkpt>
      <trkpt lat="43.32687" lon="-1.83024">
        <ele>21</ele>
        <time>2026-08-05T08:58:16Z</time>
      </trkpt>
      <trkpt lat="43.32686" lon="-1.83027">
        <ele>21</ele>
        <time>2026-08-05T08:58:17Z</time>
      </trkpt>
      <trkpt lat="43.32684" lon="-1.8303">
        <ele>20.8</ele>
        <time>2026-08-05T08:58:18Z</time>
      </trkpt>
      <trkpt lat="43.32682" lon="-1.83032">
        <ele>20.8</ele>
        <time>2026-08-05T08:58:19Z</time>
      </trkpt>
      <trkpt lat="43.3268" lon="-1.83034">
        <ele>21</ele>
        <time>2026-08-05T08:58:20Z</time>
      </trkpt>
      <trkpt lat="43.32678" lon="-1.83037">
        <ele>21</ele>
        <time>2026-08-05T08:58:21Z</time>
      </trkpt>
      <trkpt lat="43.32675" lon="-1.83039">
        <ele>21.2</ele>
        <time>2026-08-05T08:58:22Z</time>
      </trkpt>
      <trkpt lat="43.32672" lon="-1.83042">
        <ele>21.2</ele>
        <time>2026-08-05T08:58:23Z</time>
      </trkpt>
      <trkpt lat="43.3267" lon="-1.83044">
        <ele>21.2</ele>
        <time>2026-08-05T08:58:24Z</time>
      </trkpt>
      <trkpt lat="43.32667" lon="-1.83047">
        <ele>21.2</ele>
        <time>2026-08-05T08:58:25Z</time>
      </trkpt>
      <trkpt lat="43.32665" lon="-1.8305">
        <ele>21.2</ele>
        <time>2026-08-05T08:58:26Z</time>
      </trkpt>
      <trkpt lat="43.32663" lon="-1.83052">
        <ele>21.8</ele>
        <time>2026-08-05T08:58:27Z</time>
      </trkpt>
      <trkpt lat="43.32661" lon="-1.83055">
        <ele>21.8</ele>
        <time>2026-08-05T08:58:28Z</time>
      </trkpt>
      <trkpt lat="43.32658" lon="-1.83057">
        <ele>21.8</ele>
        <time>2026-08-05T08:58:29Z</time>
      </trkpt>
      <trkpt lat="43.32656" lon="-1.8306">
        <ele>21.8</ele>
        <time>2026-08-05T08:58:30Z</time>
      </trkpt>
      <trkpt lat="43.32654" lon="-1.83062">
        <ele>21.8</ele>
        <time>2026-08-05T08:58:31Z</time>
      </trkpt>
      <trkpt lat="43.32651" lon="-1.83064">
        <ele>22.2</ele>
        <time>2026-08-05T08:58:32Z</time>
      </trkpt>
      <trkpt lat="43.32648" lon="-1.83067">
        <ele>22.2</ele>
        <time>2026-08-05T08:58:33Z</time>
      </trkpt>
      <trkpt lat="43.32646" lon="-1.8307">
        <ele>22.2</ele>
        <time>2026-08-05T08:58:34Z</time>
      </trkpt>
      <trkpt lat="43.32643" lon="-1.83073">
        <ele>22.2</ele>
        <time>2026-08-05T08:58:35Z</time>
      </trkpt>
      <trkpt lat="43.32641" lon="-1.83075">
        <ele>22.2</ele>
        <time>2026-08-05T08:58:36Z</time>
      </trkpt>
      <trkpt lat="43.32639" lon="-1.83077">
        <ele>22.2</ele>
        <time>2026-08-05T08:58:37Z</time>
      </trkpt>
      <trkpt lat="43.32636" lon="-1.8308">
        <ele>22.2</ele>
        <time>2026-08-05T08:58:38Z</time>
      </trkpt>
      <trkpt lat="43.32634" lon="-1.83082">
        <ele>22.2</ele>
        <time>2026-08-05T08:58:39Z</time>
      </trkpt>
      <trkpt lat="43.32632" lon="-1.83084">
        <ele>23.2</ele>
        <time>2026-08-05T08:58:40Z</time>
      </trkpt>
      <trkpt lat="43.3263" lon="-1.83086">
        <ele>23.2</ele>
        <time>2026-08-05T08:58:41Z</time>
      </trkpt>
      <trkpt lat="43.32628" lon="-1.83088">
        <ele>23.4</ele>
        <time>2026-08-05T08:58:42Z</time>
      </trkpt>
      <trkpt lat="43.32625" lon="-1.8309">
        <ele>23.4</ele>
        <time>2026-08-05T08:58:43Z</time>
      </trkpt>
      <trkpt lat="43.32623" lon="-1.83092">
        <ele>23.8</ele>
        <time>2026-08-05T08:58:44Z</time>
      </trkpt>
      <trkpt lat="43.3262" lon="-1.83094">
        <ele>23.8</ele>
        <time>2026-08-05T08:58:45Z</time>
      </trkpt>
      <trkpt lat="43.32618" lon="-1.83096">
        <ele>23.8</ele>
        <time>2026-08-05T08:58:46Z</time>
      </trkpt>
      <trkpt lat="43.32616" lon="-1.83097">
        <ele>23.8</ele>
        <time>2026-08-05T08:58:47Z</time>
      </trkpt>
      <trkpt lat="43.32614" lon="-1.83098">
        <ele>24.4</ele>
        <time>2026-08-05T08:58:48Z</time>
      </trkpt>
      <trkpt lat="43.32612" lon="-1.83099">
        <ele>24.4</ele>
        <time>2026-08-05T08:58:49Z</time>
      </trkpt>
      <trkpt lat="43.3261" lon="-1.831">
        <ele>24.4</ele>
        <time>2026-08-05T08:58:50Z</time>
      </trkpt>
      <trkpt lat="43.32607" lon="-1.83101">
        <ele>24.4</ele>
        <time>2026-08-05T08:58:51Z</time>
      </trkpt>
      <trkpt lat="43.32604" lon="-1.83102">
        <ele>24.4</ele>
        <time>2026-08-05T08:58:52Z</time>
      </trkpt>
      <trkpt lat="43.326" lon="-1.83104">
        <ele>25</ele>
        <time>2026-08-05T08:58:53Z</time>
      </trkpt>
      <trkpt lat="43.32598" lon="-1.83105">
        <ele>25</ele>
        <time>2026-08-05T08:58:54Z</time>
      </trkpt>
      <trkpt lat="43.32595" lon="-1.83106">
        <ele>25</ele>
        <time>2026-08-05T08:58:55Z</time>
      </trkpt>
      <trkpt lat="43.32591" lon="-1.83107">
        <ele>25</ele>
        <time>2026-08-05T08:58:56Z</time>
      </trkpt>
      <trkpt lat="43.32588" lon="-1.83107">
        <ele>25</ele>
        <time>2026-08-05T08:58:57Z</time>
      </trkpt>
      <trkpt lat="43.32585" lon="-1.83109">
        <ele>25</ele>
        <time>2026-08-05T08:58:58Z</time>
      </trkpt>
      <trkpt lat="43.32581" lon="-1.8311">
        <ele>25.6</ele>
        <time>2026-08-05T08:58:59Z</time>
      </trkpt>
      <trkpt lat="43.32578" lon="-1.83111">
        <ele>26</ele>
        <time>2026-08-05T08:59:00Z</time>
      </trkpt>
      <trkpt lat="43.32575" lon="-1.83112">
        <ele>26</ele>
        <time>2026-08-05T08:59:01Z</time>
      </trkpt>
      <trkpt lat="43.32573" lon="-1.83113">
        <ele>26</ele>
        <time>2026-08-05T08:59:02Z</time>
      </trkpt>
      <trkpt lat="43.3257" lon="-1.83114">
        <ele>26</ele>
        <time>2026-08-05T08:59:03Z</time>
      </trkpt>
      <trkpt lat="43.32567" lon="-1.83114">
        <ele>26</ele>
        <time>2026-08-05T08:59:04Z</time>
      </trkpt>
      <trkpt lat="43.32564" lon="-1.83115">
        <ele>26</ele>
        <time>2026-08-05T08:59:05Z</time>
      </trkpt>
      <trkpt lat="43.32561" lon="-1.83117">
        <ele>26</ele>
        <time>2026-08-05T08:59:06Z</time>
      </trkpt>
      <trkpt lat="43.32558" lon="-1.83117">
        <ele>26.4</ele>
        <time>2026-08-05T08:59:07Z</time>
      </trkpt>
      <trkpt lat="43.32556" lon="-1.83118">
        <ele>26.6</ele>
        <time>2026-08-05T08:59:08Z</time>
      </trkpt>
      <trkpt lat="43.32553" lon="-1.83119">
        <ele>27.2</ele>
        <time>2026-08-05T08:59:09Z</time>
      </trkpt>
      <trkpt lat="43.3255" lon="-1.8312">
        <ele>27.2</ele>
        <time>2026-08-05T08:59:10Z</time>
      </trkpt>
      <trkpt lat="43.32546" lon="-1.83122">
        <ele>27.6</ele>
        <time>2026-08-05T08:59:11Z</time>
      </trkpt>
      <trkpt lat="43.32543" lon="-1.83123">
        <ele>27.8</ele>
        <time>2026-08-05T08:59:12Z</time>
      </trkpt>
      <trkpt lat="43.3254" lon="-1.83124">
        <ele>27.8</ele>
        <time>2026-08-05T08:59:13Z</time>
      </trkpt>
      <trkpt lat="43.32537" lon="-1.83125">
        <ele>27.8</ele>
        <time>2026-08-05T08:59:14Z</time>
      </trkpt>
      <trkpt lat="43.32534" lon="-1.83126">
        <ele>27.8</ele>
        <time>2026-08-05T08:59:15Z</time>
      </trkpt>
      <trkpt lat="43.32529" lon="-1.83127">
        <ele>27.8</ele>
        <time>2026-08-05T08:59:16Z</time>
      </trkpt>
      <trkpt lat="43.32525" lon="-1.83128">
        <ele>28.2</ele>
        <time>2026-08-05T08:59:17Z</time>
      </trkpt>
      <trkpt lat="43.32522" lon="-1.83129">
        <ele>28.4</ele>
        <time>2026-08-05T08:59:18Z</time>
      </trkpt>
      <trkpt lat="43.32519" lon="-1.83129">
        <ele>28.4</ele>
        <time>2026-08-05T08:59:19Z</time>
      </trkpt>
      <trkpt lat="43.32518" lon="-1.83129">
        <ele>28.4</ele>
        <time>2026-08-05T08:59:20Z</time>
      </trkpt>
      <trkpt lat="43.32515" lon="-1.8313">
        <ele>28.4</ele>
        <time>2026-08-05T08:59:21Z</time>
      </trkpt>
      <trkpt lat="43.32513" lon="-1.83132">
        <ele>28.4</ele>
        <time>2026-08-05T08:59:22Z</time>
      </trkpt>
      <trkpt lat="43.3251" lon="-1.83135">
        <ele>28.4</ele>
        <time>2026-08-05T08:59:23Z</time>
      </trkpt>
      <trkpt lat="43.32508" lon="-1.83138">
        <ele>28.6</ele>
        <time>2026-08-05T08:59:24Z</time>
      </trkpt>
      <trkpt lat="43.32504" lon="-1.83142">
        <ele>28.6</ele>
        <time>2026-08-05T08:59:25Z</time>
      </trkpt>
      <trkpt lat="43.32501" lon="-1.83146">
        <ele>28.6</ele>
        <time>2026-08-05T08:59:26Z</time>
      </trkpt>
      <trkpt lat="43.32497" lon="-1.8315">
        <ele>28.6</ele>
        <time>2026-08-05T08:59:27Z</time>
      </trkpt>
      <trkpt lat="43.32494" lon="-1.83153">
        <ele>28.6</ele>
        <time>2026-08-05T08:59:28Z</time>
      </trkpt>
      <trkpt lat="43.32491" lon="-1.83155">
        <ele>28.2</ele>
        <time>2026-08-05T08:59:29Z</time>
      </trkpt>
      <trkpt lat="43.32488" lon="-1.83157">
        <ele>28.2</ele>
        <time>2026-08-05T08:59:30Z</time>
      </trkpt>
      <trkpt lat="43.32483" lon="-1.8316">
        <ele>28.2</ele>
        <time>2026-08-05T08:59:31Z</time>
      </trkpt>
      <trkpt lat="43.3248" lon="-1.83163">
        <ele>28.2</ele>
        <time>2026-08-05T08:59:32Z</time>
      </trkpt>
      <trkpt lat="43.32477" lon="-1.83166">
        <ele>28.2</ele>
        <time>2026-08-05T08:59:33Z</time>
      </trkpt>
      <trkpt lat="43.32473" lon="-1.8317">
        <ele>28.2</ele>
        <time>2026-08-05T08:59:34Z</time>
      </trkpt>
      <trkpt lat="43.3247" lon="-1.83174">
        <ele>26.4</ele>
        <time>2026-08-05T08:59:35Z</time>
      </trkpt>
      <trkpt lat="43.32466" lon="-1.83179">
        <ele>26.4</ele>
        <time>2026-08-05T08:59:36Z</time>
      </trkpt>
      <trkpt lat="43.32462" lon="-1.83182">
        <ele>26.4</ele>
        <time>2026-08-05T08:59:37Z</time>
      </trkpt>
      <trkpt lat="43.32458" lon="-1.83186">
        <ele>27.4</ele>
        <time>2026-08-05T08:59:38Z</time>
      </trkpt>
      <trkpt lat="43.32454" lon="-1.83189">
        <ele>27.4</ele>
        <time>2026-08-05T08:59:39Z</time>
      </trkpt>
      <trkpt lat="43.3245" lon="-1.83192">
        <ele>28.4</ele>
        <time>2026-08-05T08:59:40Z</time>
      </trkpt>
      <trkpt lat="43.32446" lon="-1.83195">
        <ele>28.4</ele>
        <time>2026-08-05T08:59:41Z</time>
      </trkpt>
      <trkpt lat="43.32442" lon="-1.83197">
        <ele>28.2</ele>
        <time>2026-08-05T08:59:42Z</time>
      </trkpt>
      <trkpt lat="43.32438" lon="-1.832">
        <ele>28.2</ele>
        <time>2026-08-05T08:59:43Z</time>
      </trkpt>
      <trkpt lat="43.32434" lon="-1.83201">
        <ele>28.2</ele>
        <time>2026-08-05T08:59:44Z</time>
      </trkpt>
      <trkpt lat="43.3243" lon="-1.83203">
        <ele>28.2</ele>
        <time>2026-08-05T08:59:45Z</time>
      </trkpt>
      <trkpt lat="43.32426" lon="-1.83206">
        <ele>28.2</ele>
        <time>2026-08-05T08:59:46Z</time>
      </trkpt>
      <trkpt lat="43.32422" lon="-1.83207">
        <ele>28.2</ele>
        <time>2026-08-05T08:59:47Z</time>
      </trkpt>
      <trkpt lat="43.32418" lon="-1.83209">
        <ele>28.2</ele>
        <time>2026-08-05T08:59:48Z</time>
      </trkpt>
      <trkpt lat="43.32414" lon="-1.83212">
        <ele>28.2</ele>
        <time>2026-08-05T08:59:49Z</time>
      </trkpt>
      <trkpt lat="43.3241" lon="-1.83215">
        <ele>28.8</ele>
        <time>2026-08-05T08:59:50Z</time>
      </trkpt>
      <trkpt lat="43.32407" lon="-1.83217">
        <ele>28.8</ele>
        <time>2026-08-05T08:59:51Z</time>
      </trkpt>
      <trkpt lat="43.32403" lon="-1.8322">
        <ele>28.8</ele>
        <time>2026-08-05T08:59:52Z</time>
      </trkpt>
      <trkpt lat="43.32401" lon="-1.83225">
        <ele>28.8</ele>
        <time>2026-08-05T08:59:53Z</time>
      </trkpt>
      <trkpt lat="43.32399" lon="-1.8323">
        <ele>29</ele>
        <time>2026-08-05T08:59:54Z</time>
      </trkpt>
      <trkpt lat="43.32398" lon="-1.83235">
        <ele>29</ele>
        <time>2026-08-05T08:59:55Z</time>
      </trkpt>
      <trkpt lat="43.32396" lon="-1.8324">
        <ele>29</ele>
        <time>2026-08-05T08:59:56Z</time>
      </trkpt>
      <trkpt lat="43.32395" lon="-1.83246">
        <ele>29</ele>
        <time>2026-08-05T08:59:57Z</time>
      </trkpt>
      <trkpt lat="43.32393" lon="-1.83251">
        <ele>29</ele>
        <time>2026-08-05T08:59:58Z</time>
      </trkpt>
      <trkpt lat="43.32392" lon="-1.83257">
        <ele>29.2</ele>
        <time>2026-08-05T08:59:59Z</time>
      </trkpt>
      <trkpt lat="43.32391" lon="-1.83263">
        <ele>29.2</ele>
        <time>2026-08-05T09:00:00Z</time>
      </trkpt>
      <trkpt lat="43.32389" lon="-1.83269">
        <ele>29.2</ele>
        <time>2026-08-05T09:00:01Z</time>
      </trkpt>
      <trkpt lat="43.32388" lon="-1.83274">
        <ele>29.2</ele>
        <time>2026-08-05T09:00:02Z</time>
      </trkpt>
      <trkpt lat="43.32387" lon="-1.8328">
        <ele>29.2</ele>
        <time>2026-08-05T09:00:03Z</time>
      </trkpt>
      <trkpt lat="43.32386" lon="-1.83286">
        <ele>29.2</ele>
        <time>2026-08-05T09:00:04Z</time>
      </trkpt>
      <trkpt lat="43.32385" lon="-1.83292">
        <ele>29.2</ele>
        <time>2026-08-05T09:00:05Z</time>
      </trkpt>
      <trkpt lat="43.32385" lon="-1.83297">
        <ele>29.2</ele>
        <time>2026-08-05T09:00:06Z</time>
      </trkpt>
      <trkpt lat="43.32385" lon="-1.83303">
        <ele>29.2</ele>
        <time>2026-08-05T09:00:07Z</time>
      </trkpt>
      <trkpt lat="43.32385" lon="-1.83309">
        <ele>29.2</ele>
        <time>2026-08-05T09:00:08Z</time>
      </trkpt>
      <trkpt lat="43.32386" lon="-1.83314">
        <ele>29.2</ele>
        <time>2026-08-05T09:00:09Z</time>
      </trkpt>
      <trkpt lat="43.32386" lon="-1.8332">
        <ele>29.2</ele>
        <time>2026-08-05T09:00:10Z</time>
      </trkpt>
      <trkpt lat="43.32386" lon="-1.83325">
        <ele>29.2</ele>
        <time>2026-08-05T09:00:11Z</time>
      </trkpt>
      <trkpt lat="43.32386" lon="-1.83331">
        <ele>29.2</ele>
        <time>2026-08-05T09:00:12Z</time>
      </trkpt>
      <trkpt lat="43.32386" lon="-1.83336">
        <ele>29.2</ele>
        <time>2026-08-05T09:00:13Z</time>
      </trkpt>
      <trkpt lat="43.32386" lon="-1.83342">
        <ele>29.2</ele>
        <time>2026-08-05T09:00:14Z</time>
      </trkpt>
      <trkpt lat="43.32385" lon="-1.83347">
        <ele>29.2</ele>
        <time>2026-08-05T09:00:15Z</time>
      </trkpt>
      <trkpt lat="43.32385" lon="-1.83352">
        <ele>29.4</ele>
        <time>2026-08-05T09:00:16Z</time>
      </trkpt>
      <trkpt lat="43.32384" lon="-1.83357">
        <ele>29.8</ele>
        <time>2026-08-05T09:00:17Z</time>
      </trkpt>
      <trkpt lat="43.32383" lon="-1.83361">
        <ele>30.2</ele>
        <time>2026-08-05T09:00:18Z</time>
      </trkpt>
      <trkpt lat="43.32382" lon="-1.83366">
        <ele>31</ele>
        <time>2026-08-05T09:00:19Z</time>
      </trkpt>
      <trkpt lat="43.3238" lon="-1.83371">
        <ele>31.2</ele>
        <time>2026-08-05T09:00:20Z</time>
      </trkpt>
      <trkpt lat="43.32378" lon="-1.83374">
        <ele>31.2</ele>
        <time>2026-08-05T09:00:21Z</time>
      </trkpt>
      <trkpt lat="43.32376" lon="-1.83377">
        <ele>31.2</ele>
        <time>2026-08-05T09:00:22Z</time>
      </trkpt>
      <trkpt lat="43.32373" lon="-1.83381">
        <ele>30.2</ele>
        <time>2026-08-05T09:00:23Z</time>
      </trkpt>
      <trkpt lat="43.32372" lon="-1.83381">
        <ele>29.8</ele>
        <time>2026-08-05T09:00:24Z</time>
      </trkpt>
      <trkpt lat="43.32371" lon="-1.83383">
        <ele>29.8</ele>
        <time>2026-08-05T09:00:25Z</time>
      </trkpt>
      <trkpt lat="43.3237" lon="-1.83385">
        <ele>29.8</ele>
        <time>2026-08-05T09:00:26Z</time>
      </trkpt>
      <trkpt lat="43.32368" lon="-1.83389">
        <ele>30.8</ele>
        <time>2026-08-05T09:00:27Z</time>
      </trkpt>
      <trkpt lat="43.32365" lon="-1.83391">
        <ele>31.2</ele>
        <time>2026-08-05T09:00:28Z</time>
      </trkpt>
      <trkpt lat="43.32363" lon="-1.83393">
        <ele>32.2</ele>
        <time>2026-08-05T09:00:29Z</time>
      </trkpt>
      <trkpt lat="43.32361" lon="-1.83395">
        <ele>32.2</ele>
        <time>2026-08-05T09:00:30Z</time>
      </trkpt>
      <trkpt lat="43.32359" lon="-1.83397">
        <ele>32.2</ele>
        <time>2026-08-05T09:00:31Z</time>
      </trkpt>
      <trkpt lat="43.32358" lon="-1.834">
        <ele>32.2</ele>
        <time>2026-08-05T09:00:32Z</time>
      </trkpt>
      <trkpt lat="43.32357" lon="-1.83401">
        <ele>32.2</ele>
        <time>2026-08-05T09:00:33Z</time>
      </trkpt>
      <trkpt lat="43.32356" lon="-1.83403">
        <ele>32.2</ele>
        <time>2026-08-05T09:00:34Z</time>
      </trkpt>
      <trkpt lat="43.32354" lon="-1.83405">
        <ele>33</ele>
        <time>2026-08-05T09:00:35Z</time>
      </trkpt>
      <trkpt lat="43.32353" lon="-1.83407">
        <ele>33.2</ele>
        <time>2026-08-05T09:00:36Z</time>
      </trkpt>
      <trkpt lat="43.32351" lon="-1.8341">
        <ele>33.2</ele>
        <time>2026-08-05T09:00:37Z</time>
      </trkpt>
      <trkpt lat="43.3235" lon="-1.83411">
        <ele>33.2</ele>
        <time>2026-08-05T09:00:38Z</time>
      </trkpt>
      <trkpt lat="43.32348" lon="-1.83414">
        <ele>33.2</ele>
        <time>2026-08-05T09:00:39Z</time>
      </trkpt>
      <trkpt lat="43.32347" lon="-1.83416">
        <ele>33.2</ele>
        <time>2026-08-05T09:00:40Z</time>
      </trkpt>
      <trkpt lat="43.32346" lon="-1.83418">
        <ele>34</ele>
        <time>2026-08-05T09:00:41Z</time>
      </trkpt>
      <trkpt lat="43.32345" lon="-1.83419">
        <ele>34</ele>
        <time>2026-08-05T09:00:42Z</time>
      </trkpt>
      <trkpt lat="43.32345" lon="-1.83419">
        <ele>34</ele>
        <time>2026-08-05T09:00:43Z</time>
      </trkpt>
      <trkpt lat="43.32342" lon="-1.8342">
        <ele>32.6</ele>
        <time>2026-08-05T09:03:36Z</time>
      </trkpt>
      <trkpt lat="43.32344" lon="-1.83419">
        <ele>32</ele>
        <time>2026-08-05T09:03:37Z</time>
      </trkpt>
      <trkpt lat="43.32346" lon="-1.83417">
        <ele>31.8</ele>
        <time>2026-08-05T09:03:38Z</time>
      </trkpt>
      <trkpt lat="43.32348" lon="-1.83414">
        <ele>31.8</ele>
        <time>2026-08-05T09:03:39Z</time>
      </trkpt>
      <trkpt lat="43.32351" lon="-1.83411">
        <ele>29.8</ele>
        <time>2026-08-05T09:03:40Z</time>
      </trkpt>
      <trkpt lat="43.32353" lon="-1.83407">
        <ele>28.6</ele>
        <time>2026-08-05T09:03:41Z</time>
      </trkpt>
      <trkpt lat="43.32356" lon="-1.83403">
        <ele>28.6</ele>
        <time>2026-08-05T09:03:42Z</time>
      </trkpt>
      <trkpt lat="43.32359" lon="-1.83399">
        <ele>28.6</ele>
        <time>2026-08-05T09:03:43Z</time>
      </trkpt>
      <trkpt lat="43.32362" lon="-1.83395">
        <ele>30.8</ele>
        <time>2026-08-05T09:03:44Z</time>
      </trkpt>
      <trkpt lat="43.32364" lon="-1.8339">
        <ele>30.8</ele>
        <time>2026-08-05T09:03:45Z</time>
      </trkpt>
      <trkpt lat="43.32367" lon="-1.83386">
        <ele>30.8</ele>
        <time>2026-08-05T09:03:46Z</time>
      </trkpt>
      <trkpt lat="43.3237" lon="-1.83381">
        <ele>30.8</ele>
        <time>2026-08-05T09:03:47Z</time>
      </trkpt>
      <trkpt lat="43.32372" lon="-1.83376">
        <ele>30.8</ele>
        <time>2026-08-05T09:03:48Z</time>
      </trkpt>
      <trkpt lat="43.32374" lon="-1.83371">
        <ele>30.8</ele>
        <time>2026-08-05T09:03:49Z</time>
      </trkpt>
      <trkpt lat="43.32376" lon="-1.83366">
        <ele>30.8</ele>
        <time>2026-08-05T09:03:50Z</time>
      </trkpt>
      <trkpt lat="43.32378" lon="-1.83361">
        <ele>30.8</ele>
        <time>2026-08-05T09:03:51Z</time>
      </trkpt>
      <trkpt lat="43.32379" lon="-1.83355">
        <ele>30</ele>
        <time>2026-08-05T09:03:52Z</time>
      </trkpt>
      <trkpt lat="43.32381" lon="-1.8335">
        <ele>30</ele>
        <time>2026-08-05T09:03:53Z</time>
      </trkpt>
      <trkpt lat="43.32382" lon="-1.83346">
        <ele>30</ele>
        <time>2026-08-05T09:03:54Z</time>
      </trkpt>
      <trkpt lat="43.32385" lon="-1.83343">
        <ele>29.2</ele>
        <time>2026-08-05T09:03:55Z</time>
      </trkpt>
      <trkpt lat="43.32388" lon="-1.83343">
        <ele>29.2</ele>
        <time>2026-08-05T09:03:56Z</time>
      </trkpt>
      <trkpt lat="43.32391" lon="-1.83343">
        <ele>29.2</ele>
        <time>2026-08-05T09:03:57Z</time>
      </trkpt>
      <trkpt lat="43.32394" lon="-1.83343">
        <ele>29.2</ele>
        <time>2026-08-05T09:03:58Z</time>
      </trkpt>
      <trkpt lat="43.32396" lon="-1.83343">
        <ele>29.8</ele>
        <time>2026-08-05T09:03:59Z</time>
      </trkpt>
      <trkpt lat="43.32399" lon="-1.83344">
        <ele>30</ele>
        <time>2026-08-05T09:04:00Z</time>
      </trkpt>
      <trkpt lat="43.32401" lon="-1.83344">
        <ele>30</ele>
        <time>2026-08-05T09:04:01Z</time>
      </trkpt>
      <trkpt lat="43.32403" lon="-1.83344">
        <ele>30</ele>
        <time>2026-08-05T09:04:02Z</time>
      </trkpt>
      <trkpt lat="43.32406" lon="-1.83344">
        <ele>30</ele>
        <time>2026-08-05T09:04:03Z</time>
      </trkpt>
      <trkpt lat="43.32409" lon="-1.83345">
        <ele>29.6</ele>
        <time>2026-08-05T09:04:04Z</time>
      </trkpt>
      <trkpt lat="43.32411" lon="-1.83347">
        <ele>29.6</ele>
        <time>2026-08-05T09:04:05Z</time>
      </trkpt>
      <trkpt lat="43.32412" lon="-1.83349">
        <ele>29.6</ele>
        <time>2026-08-05T09:04:06Z</time>
      </trkpt>
      <trkpt lat="43.32414" lon="-1.83351">
        <ele>29.8</ele>
        <time>2026-08-05T09:04:07Z</time>
      </trkpt>
      <trkpt lat="43.32415" lon="-1.83353">
        <ele>30</ele>
        <time>2026-08-05T09:04:08Z</time>
      </trkpt>
      <trkpt lat="43.32416" lon="-1.83355">
        <ele>30</ele>
        <time>2026-08-05T09:04:09Z</time>
      </trkpt>
      <trkpt lat="43.32417" lon="-1.83357">
        <ele>30</ele>
        <time>2026-08-05T09:04:10Z</time>
      </trkpt>
      <trkpt lat="43.32418" lon="-1.8336">
        <ele>30</ele>
        <time>2026-08-05T09:04:11Z</time>
      </trkpt>
      <trkpt lat="43.32419" lon="-1.83363">
        <ele>30.6</ele>
        <time>2026-08-05T09:04:12Z</time>
      </trkpt>
      <trkpt lat="43.3242" lon="-1.83367">
        <ele>30.6</ele>
        <time>2026-08-05T09:04:13Z</time>
      </trkpt>
      <trkpt lat="43.32421" lon="-1.83369">
        <ele>30.6</ele>
        <time>2026-08-05T09:04:14Z</time>
      </trkpt>
      <trkpt lat="43.32422" lon="-1.83372">
        <ele>30.2</ele>
        <time>2026-08-05T09:04:15Z</time>
      </trkpt>
      <trkpt lat="43.32423" lon="-1.83375">
        <ele>30.2</ele>
        <time>2026-08-05T09:04:16Z</time>
      </trkpt>
      <trkpt lat="43.32423" lon="-1.83378">
        <ele>30.2</ele>
        <time>2026-08-05T09:04:17Z</time>
      </trkpt>
      <trkpt lat="43.32424" lon="-1.83381">
        <ele>30.2</ele>
        <time>2026-08-05T09:04:18Z</time>
      </trkpt>
      <trkpt lat="43.32425" lon="-1.83384">
        <ele>30.2</ele>
        <time>2026-08-05T09:04:19Z</time>
      </trkpt>
      <trkpt lat="43.32426" lon="-1.83386">
        <ele>31.2</ele>
        <time>2026-08-05T09:04:20Z</time>
      </trkpt>
      <trkpt lat="43.32427" lon="-1.83389">
        <ele>32.2</ele>
        <time>2026-08-05T09:04:21Z</time>
      </trkpt>
      <trkpt lat="43.32428" lon="-1.83392">
        <ele>33</ele>
        <time>2026-08-05T09:04:22Z</time>
      </trkpt>
      <trkpt lat="43.32429" lon="-1.83394">
        <ele>34.4</ele>
        <time>2026-08-05T09:04:23Z</time>
      </trkpt>
      <trkpt lat="43.32431" lon="-1.83397">
        <ele>34.4</ele>
        <time>2026-08-05T09:04:24Z</time>
      </trkpt>
      <trkpt lat="43.32432" lon="-1.83399">
        <ele>34.4</ele>
        <time>2026-08-05T09:04:25Z</time>
      </trkpt>
      <trkpt lat="43.32433" lon="-1.83401">
        <ele>34.4</ele>
        <time>2026-08-05T09:04:26Z</time>
      </trkpt>
      <trkpt lat="43.32435" lon="-1.83403">
        <ele>35</ele>
        <time>2026-08-05T09:04:27Z</time>
      </trkpt>
      <trkpt lat="43.32436" lon="-1.83404">
        <ele>36</ele>
        <time>2026-08-05T09:04:28Z</time>
      </trkpt>
      <trkpt lat="43.32438" lon="-1.83405">
        <ele>36.2</ele>
        <time>2026-08-05T09:04:29Z</time>
      </trkpt>
      <trkpt lat="43.3244" lon="-1.83407">
        <ele>36.8</ele>
        <time>2026-08-05T09:04:30Z</time>
      </trkpt>
      <trkpt lat="43.32441" lon="-1.83409">
        <ele>36.8</ele>
        <time>2026-08-05T09:04:31Z</time>
      </trkpt>
      <trkpt lat="43.32441" lon="-1.83412">
        <ele>36.8</ele>
        <time>2026-08-05T09:04:32Z</time>
      </trkpt>
      <trkpt lat="43.3244" lon="-1.83414">
        <ele>36.8</ele>
        <time>2026-08-05T09:04:33Z</time>
      </trkpt>
      <trkpt lat="43.32438" lon="-1.83415">
        <ele>37</ele>
        <time>2026-08-05T09:04:34Z</time>
      </trkpt>
      <trkpt lat="43.32437" lon="-1.83416">
        <ele>36.8</ele>
        <time>2026-08-05T09:04:35Z</time>
      </trkpt>
      <trkpt lat="43.32435" lon="-1.83416">
        <ele>36.8</ele>
        <time>2026-08-05T09:04:36Z</time>
      </trkpt>
      <trkpt lat="43.32434" lon="-1.83416">
        <ele>36.8</ele>
        <time>2026-08-05T09:04:37Z</time>
      </trkpt>
      <trkpt lat="43.32433" lon="-1.83416">
        <ele>36.8</ele>
        <time>2026-08-05T09:04:38Z</time>
      </trkpt>
      <trkpt lat="43.32431" lon="-1.83416">
        <ele>36.8</ele>
        <time>2026-08-05T09:04:39Z</time>
      </trkpt>
      <trkpt lat="43.3243" lon="-1.83415">
        <ele>36.8</ele>
        <time>2026-08-05T09:04:40Z</time>
      </trkpt>
      <trkpt lat="43.32429" lon="-1.83415">
        <ele>36.8</ele>
        <time>2026-08-05T09:04:41Z</time>
      </trkpt>
      <trkpt lat="43.32428" lon="-1.83415">
        <ele>36.4</ele>
        <time>2026-08-05T09:04:42Z</time>
      </trkpt>
      <trkpt lat="43.32426" lon="-1.83415">
        <ele>35.6</ele>
        <time>2026-08-05T09:04:43Z</time>
      </trkpt>
      <trkpt lat="43.32424" lon="-1.83415">
        <ele>35.6</ele>
        <time>2026-08-05T09:04:44Z</time>
      </trkpt>
      <trkpt lat="43.32421" lon="-1.83415">
        <ele>35.6</ele>
        <time>2026-08-05T09:04:45Z</time>
      </trkpt>
      <trkpt lat="43.32419" lon="-1.83415">
        <ele>36</ele>
        <time>2026-08-05T09:04:46Z</time>
      </trkpt>
      <trkpt lat="43.32417" lon="-1.83416">
        <ele>36.8</ele>
        <time>2026-08-05T09:04:47Z</time>
      </trkpt>
      <trkpt lat="43.32414" lon="-1.83418">
        <ele>36.8</ele>
        <time>2026-08-05T09:04:48Z</time>
      </trkpt>
      <trkpt lat="43.32412" lon="-1.8342">
        <ele>36.8</ele>
        <time>2026-08-05T09:04:49Z</time>
      </trkpt>
      <trkpt lat="43.3241" lon="-1.83421">
        <ele>36.2</ele>
        <time>2026-08-05T09:04:50Z</time>
      </trkpt>
      <trkpt lat="43.32407" lon="-1.83423">
        <ele>36.2</ele>
        <time>2026-08-05T09:04:51Z</time>
      </trkpt>
      <trkpt lat="43.32405" lon="-1.83424">
        <ele>35.8</ele>
        <time>2026-08-05T09:04:52Z</time>
      </trkpt>
      <trkpt lat="43.32404" lon="-1.83425">
        <ele>35.8</ele>
        <time>2026-08-05T09:04:53Z</time>
      </trkpt>
      <trkpt lat="43.32402" lon="-1.83426">
        <ele>35.8</ele>
        <time>2026-08-05T09:04:54Z</time>
      </trkpt>
      <trkpt lat="43.32401" lon="-1.83427">
        <ele>36.6</ele>
        <time>2026-08-05T09:04:55Z</time>
      </trkpt>
      <trkpt lat="43.324" lon="-1.83429">
        <ele>36.8</ele>
        <time>2026-08-05T09:04:56Z</time>
      </trkpt>
      <trkpt lat="43.32399" lon="-1.83431">
        <ele>37.2</ele>
        <time>2026-08-05T09:04:57Z</time>
      </trkpt>
      <trkpt lat="43.32398" lon="-1.83433">
        <ele>37.2</ele>
        <time>2026-08-05T09:04:58Z</time>
      </trkpt>
      <trkpt lat="43.32397" lon="-1.83435">
        <ele>37.6</ele>
        <time>2026-08-05T09:04:59Z</time>
      </trkpt>
      <trkpt lat="43.32396" lon="-1.83438">
        <ele>37.8</ele>
        <time>2026-08-05T09:05:00Z</time>
      </trkpt>
      <trkpt lat="43.32396" lon="-1.8344">
        <ele>38</ele>
        <time>2026-08-05T09:05:01Z</time>
      </trkpt>
      <trkpt lat="43.32396" lon="-1.83444">
        <ele>38</ele>
        <time>2026-08-05T09:05:02Z</time>
      </trkpt>
      <trkpt lat="43.32396" lon="-1.83447">
        <ele>38</ele>
        <time>2026-08-05T09:05:03Z</time>
      </trkpt>
      <trkpt lat="43.32397" lon="-1.83449">
        <ele>38</ele>
        <time>2026-08-05T09:05:04Z</time>
      </trkpt>
      <trkpt lat="43.32398" lon="-1.83452">
        <ele>38.4</ele>
        <time>2026-08-05T09:05:05Z</time>
      </trkpt>
      <trkpt lat="43.32399" lon="-1.83454">
        <ele>38.8</ele>
        <time>2026-08-05T09:05:06Z</time>
      </trkpt>
      <trkpt lat="43.324" lon="-1.83456">
        <ele>38.8</ele>
        <time>2026-08-05T09:05:07Z</time>
      </trkpt>
      <trkpt lat="43.32402" lon="-1.83458">
        <ele>39.6</ele>
        <time>2026-08-05T09:05:08Z</time>
      </trkpt>
      <trkpt lat="43.32404" lon="-1.83459">
        <ele>39.6</ele>
        <time>2026-08-05T09:05:09Z</time>
      </trkpt>
      <trkpt lat="43.32405" lon="-1.83461">
        <ele>39.6</ele>
        <time>2026-08-05T09:05:10Z</time>
      </trkpt>
      <trkpt lat="43.32406" lon="-1.83463">
        <ele>39.2</ele>
        <time>2026-08-05T09:05:11Z</time>
      </trkpt>
      <trkpt lat="43.32408" lon="-1.83466">
        <ele>39.2</ele>
        <time>2026-08-05T09:05:12Z</time>
      </trkpt>
      <trkpt lat="43.32409" lon="-1.83468">
        <ele>39.2</ele>
        <time>2026-08-05T09:05:13Z</time>
      </trkpt>
      <trkpt lat="43.32411" lon="-1.8347">
        <ele>40.2</ele>
        <time>2026-08-05T09:05:14Z</time>
      </trkpt>
      <trkpt lat="43.32412" lon="-1.83472">
        <ele>40.2</ele>
        <time>2026-08-05T09:05:15Z</time>
      </trkpt>
      <trkpt lat="43.32414" lon="-1.83474">
        <ele>40.2</ele>
        <time>2026-08-05T09:05:16Z</time>
      </trkpt>
      <trkpt lat="43.32416" lon="-1.83476">
        <ele>40.2</ele>
        <time>2026-08-05T09:05:17Z</time>
      </trkpt>
      <trkpt lat="43.32417" lon="-1.83478">
        <ele>40.2</ele>
        <time>2026-08-05T09:05:18Z</time>
      </trkpt>
      <trkpt lat="43.32419" lon="-1.8348">
        <ele>40.2</ele>
        <time>2026-08-05T09:05:19Z</time>
      </trkpt>
      <trkpt lat="43.32421" lon="-1.83482">
        <ele>40.2</ele>
        <time>2026-08-05T09:05:20Z</time>
      </trkpt>
      <trkpt lat="43.32422" lon="-1.83484">
        <ele>40.6</ele>
        <time>2026-08-05T09:05:21Z</time>
      </trkpt>
      <trkpt lat="43.32424" lon="-1.83486">
        <ele>40.6</ele>
        <time>2026-08-05T09:05:22Z</time>
      </trkpt>
      <trkpt lat="43.32426" lon="-1.83487">
        <ele>40.6</ele>
        <time>2026-08-05T09:05:23Z</time>
      </trkpt>
      <trkpt lat="43.32428" lon="-1.83489">
        <ele>40.6</ele>
        <time>2026-08-05T09:05:24Z</time>
      </trkpt>
      <trkpt lat="43.32429" lon="-1.83491">
        <ele>41.2</ele>
        <time>2026-08-05T09:05:25Z</time>
      </trkpt>
      <trkpt lat="43.32431" lon="-1.83493">
        <ele>41.4</ele>
        <time>2026-08-05T09:05:26Z</time>
      </trkpt>
      <trkpt lat="43.32432" lon="-1.83495">
        <ele>41.8</ele>
        <time>2026-08-05T09:05:27Z</time>
      </trkpt>
      <trkpt lat="43.32433" lon="-1.83497">
        <ele>42.2</ele>
        <time>2026-08-05T09:05:28Z</time>
      </trkpt>
      <trkpt lat="43.32435" lon="-1.83499">
        <ele>42.2</ele>
        <time>2026-08-05T09:05:29Z</time>
      </trkpt>
      <trkpt lat="43.32436" lon="-1.83501">
        <ele>42.2</ele>
        <time>2026-08-05T09:05:30Z</time>
      </trkpt>
      <trkpt lat="43.32436" lon="-1.83504">
        <ele>42.2</ele>
        <time>2026-08-05T09:05:31Z</time>
      </trkpt>
      <trkpt lat="43.32436" lon="-1.83506">
        <ele>41.4</ele>
        <time>2026-08-05T09:05:32Z</time>
      </trkpt>
      <trkpt lat="43.32435" lon="-1.83508">
        <ele>41.4</ele>
        <time>2026-08-05T09:05:33Z</time>
      </trkpt>
      <trkpt lat="43.32434" lon="-1.83511">
        <ele>41.4</ele>
        <time>2026-08-05T09:05:34Z</time>
      </trkpt>
      <trkpt lat="43.32432" lon="-1.83513">
        <ele>41.4</ele>
        <time>2026-08-05T09:05:35Z</time>
      </trkpt>
      <trkpt lat="43.32431" lon="-1.83515">
        <ele>41.4</ele>
        <time>2026-08-05T09:05:36Z</time>
      </trkpt>
      <trkpt lat="43.3243" lon="-1.83517">
        <ele>41.4</ele>
        <time>2026-08-05T09:05:37Z</time>
      </trkpt>
      <trkpt lat="43.32428" lon="-1.83519">
        <ele>41.6</ele>
        <time>2026-08-05T09:05:38Z</time>
      </trkpt>
      <trkpt lat="43.32426" lon="-1.83521">
        <ele>41.6</ele>
        <time>2026-08-05T09:05:39Z</time>
      </trkpt>
      <trkpt lat="43.32425" lon="-1.83523">
        <ele>41.6</ele>
        <time>2026-08-05T09:05:40Z</time>
      </trkpt>
      <trkpt lat="43.32424" lon="-1.83525">
        <ele>42</ele>
        <time>2026-08-05T09:05:41Z</time>
      </trkpt>
      <trkpt lat="43.32422" lon="-1.83527">
        <ele>42</ele>
        <time>2026-08-05T09:05:42Z</time>
      </trkpt>
      <trkpt lat="43.32421" lon="-1.83529">
        <ele>42.2</ele>
        <time>2026-08-05T09:05:43Z</time>
      </trkpt>
      <trkpt lat="43.32419" lon="-1.83532">
        <ele>42.2</ele>
        <time>2026-08-05T09:05:44Z</time>
      </trkpt>
      <trkpt lat="43.32418" lon="-1.83535">
        <ele>42.2</ele>
        <time>2026-08-05T09:05:45Z</time>
      </trkpt>
      <trkpt lat="43.32417" lon="-1.83537">
        <ele>42.2</ele>
        <time>2026-08-05T09:05:46Z</time>
      </trkpt>
      <trkpt lat="43.32416" lon="-1.83539">
        <ele>42.2</ele>
        <time>2026-08-05T09:05:47Z</time>
      </trkpt>
      <trkpt lat="43.32414" lon="-1.83541">
        <ele>42.2</ele>
        <time>2026-08-05T09:05:48Z</time>
      </trkpt>
      <trkpt lat="43.32413" lon="-1.83543">
        <ele>43</ele>
        <time>2026-08-05T09:05:49Z</time>
      </trkpt>
      <trkpt lat="43.32411" lon="-1.83545">
        <ele>43</ele>
        <time>2026-08-05T09:05:50Z</time>
      </trkpt>
      <trkpt lat="43.3241" lon="-1.83547">
        <ele>43</ele>
        <time>2026-08-05T09:05:51Z</time>
      </trkpt>
      <trkpt lat="43.32408" lon="-1.83549">
        <ele>43</ele>
        <time>2026-08-05T09:05:52Z</time>
      </trkpt>
      <trkpt lat="43.32407" lon="-1.83551">
        <ele>43</ele>
        <time>2026-08-05T09:05:53Z</time>
      </trkpt>
      <trkpt lat="43.32405" lon="-1.83553">
        <ele>43.2</ele>
        <time>2026-08-05T09:05:54Z</time>
      </trkpt>
      <trkpt lat="43.32403" lon="-1.83554">
        <ele>43.2</ele>
        <time>2026-08-05T09:05:55Z</time>
      </trkpt>
      <trkpt lat="43.32401" lon="-1.83555">
        <ele>43.6</ele>
        <time>2026-08-05T09:05:56Z</time>
      </trkpt>
      <trkpt lat="43.32399" lon="-1.83556">
        <ele>43.8</ele>
        <time>2026-08-05T09:05:57Z</time>
      </trkpt>
      <trkpt lat="43.32397" lon="-1.83557">
        <ele>44</ele>
        <time>2026-08-05T09:05:58Z</time>
      </trkpt>
      <trkpt lat="43.32395" lon="-1.83557">
        <ele>44.4</ele>
        <time>2026-08-05T09:05:59Z</time>
      </trkpt>
      <trkpt lat="43.32393" lon="-1.83558">
        <ele>44.4</ele>
        <time>2026-08-05T09:06:00Z</time>
      </trkpt>
      <trkpt lat="43.32391" lon="-1.83558">
        <ele>44.4</ele>
        <time>2026-08-05T09:06:01Z</time>
      </trkpt>
      <trkpt lat="43.3239" lon="-1.83559">
        <ele>44.4</ele>
        <time>2026-08-05T09:06:02Z</time>
      </trkpt>
      <trkpt lat="43.32388" lon="-1.83559">
        <ele>44.4</ele>
        <time>2026-08-05T09:06:03Z</time>
      </trkpt>
      <trkpt lat="43.32386" lon="-1.8356">
        <ele>44.8</ele>
        <time>2026-08-05T09:06:04Z</time>
      </trkpt>
      <trkpt lat="43.32384" lon="-1.8356">
        <ele>45</ele>
        <time>2026-08-05T09:06:05Z</time>
      </trkpt>
      <trkpt lat="43.32381" lon="-1.83559">
        <ele>45.2</ele>
        <time>2026-08-05T09:06:06Z</time>
      </trkpt>
      <trkpt lat="43.32379" lon="-1.83559">
        <ele>45.2</ele>
        <time>2026-08-05T09:06:07Z</time>
      </trkpt>
      <trkpt lat="43.32378" lon="-1.8356">
        <ele>45.2</ele>
        <time>2026-08-05T09:06:08Z</time>
      </trkpt>
      <trkpt lat="43.32376" lon="-1.83561">
        <ele>45.2</ele>
        <time>2026-08-05T09:06:09Z</time>
      </trkpt>
      <trkpt lat="43.32374" lon="-1.83562">
        <ele>45.2</ele>
        <time>2026-08-05T09:06:10Z</time>
      </trkpt>
      <trkpt lat="43.32373" lon="-1.83564">
        <ele>45.2</ele>
        <time>2026-08-05T09:06:11Z</time>
      </trkpt>
      <trkpt lat="43.32371" lon="-1.83565">
        <ele>45.8</ele>
        <time>2026-08-05T09:06:12Z</time>
      </trkpt>
      <trkpt lat="43.3237" lon="-1.83567">
        <ele>46.2</ele>
        <time>2026-08-05T09:06:13Z</time>
      </trkpt>
      <trkpt lat="43.32369" lon="-1.83568">
        <ele>46.2</ele>
        <time>2026-08-05T09:06:14Z</time>
      </trkpt>
      <trkpt lat="43.32367" lon="-1.8357">
        <ele>46.2</ele>
        <time>2026-08-05T09:06:15Z</time>
      </trkpt>
      <trkpt lat="43.32367" lon="-1.83572">
        <ele>46.2</ele>
        <time>2026-08-05T09:06:16Z</time>
      </trkpt>
      <trkpt lat="43.32366" lon="-1.83574">
        <ele>46.2</ele>
        <time>2026-08-05T09:06:17Z</time>
      </trkpt>
      <trkpt lat="43.32365" lon="-1.83576">
        <ele>46.2</ele>
        <time>2026-08-05T09:06:18Z</time>
      </trkpt>
      <trkpt lat="43.32364" lon="-1.83578">
        <ele>46.2</ele>
        <time>2026-08-05T09:06:19Z</time>
      </trkpt>
      <trkpt lat="43.32363" lon="-1.8358">
        <ele>48</ele>
        <time>2026-08-05T09:06:20Z</time>
      </trkpt>
      <trkpt lat="43.32362" lon="-1.83582">
        <ele>48</ele>
        <time>2026-08-05T09:06:21Z</time>
      </trkpt>
      <trkpt lat="43.32362" lon="-1.83583">
        <ele>48</ele>
        <time>2026-08-05T09:06:22Z</time>
      </trkpt>
      <trkpt lat="43.32352" lon="-1.83588">
        <ele>50.4</ele>
        <time>2026-08-05T09:08:09Z</time>
      </trkpt>
      <trkpt lat="43.32352" lon="-1.83587">
        <ele>50.4</ele>
        <time>2026-08-05T09:08:10Z</time>
      </trkpt>
      <trkpt lat="43.32351" lon="-1.83586">
        <ele>50.4</ele>
        <time>2026-08-05T09:08:11Z</time>
      </trkpt>
      <trkpt lat="43.32351" lon="-1.83585">
        <ele>51</ele>
        <time>2026-08-05T09:08:12Z</time>
      </trkpt>
      <trkpt lat="43.32336" lon="-1.83573">
        <ele>55</ele>
        <time>2026-08-05T09:08:50Z</time>
      </trkpt>
      <trkpt lat="43.32335" lon="-1.83572">
        <ele>55.2</ele>
        <time>2026-08-05T09:08:51Z</time>
      </trkpt>
      <trkpt lat="43.32334" lon="-1.83572">
        <ele>55.6</ele>
        <time>2026-08-05T09:08:52Z</time>
      </trkpt>
      <trkpt lat="43.32333" lon="-1.83572">
        <ele>55.8</ele>
        <time>2026-08-05T09:08:53Z</time>
      </trkpt>
      <trkpt lat="43.32332" lon="-1.83571">
        <ele>56</ele>
        <time>2026-08-05T09:08:54Z</time>
      </trkpt>
      <trkpt lat="43.32331" lon="-1.83571">
        <ele>56.2</ele>
        <time>2026-08-05T09:08:55Z</time>
      </trkpt>
      <trkpt lat="43.3233" lon="-1.8357">
        <ele>56.8</ele>
        <time>2026-08-05T09:08:56Z</time>
      </trkpt>
      <trkpt lat="43.32329" lon="-1.83571">
        <ele>56.8</ele>
        <time>2026-08-05T09:08:57Z</time>
      </trkpt>
      <trkpt lat="43.32328" lon="-1.83571">
        <ele>56.8</ele>
        <time>2026-08-05T09:08:58Z</time>
      </trkpt>
      <trkpt lat="43.32327" lon="-1.83571">
        <ele>56.6</ele>
        <time>2026-08-05T09:08:59Z</time>
      </trkpt>
      <trkpt lat="43.32329" lon="-1.8358">
        <ele>57.2</ele>
        <time>2026-08-05T09:10:46Z</time>
      </trkpt>
      <trkpt lat="43.32331" lon="-1.83581">
        <ele>58</ele>
        <time>2026-08-05T09:10:47Z</time>
      </trkpt>
      <trkpt lat="43.32333" lon="-1.83582">
        <ele>58</ele>
        <time>2026-08-05T09:10:48Z</time>
      </trkpt>
      <trkpt lat="43.32335" lon="-1.83583">
        <ele>58</ele>
        <time>2026-08-05T09:10:49Z</time>
      </trkpt>
      <trkpt lat="43.32337" lon="-1.83585">
        <ele>58</ele>
        <time>2026-08-05T09:10:50Z</time>
      </trkpt>
      <trkpt lat="43.32339" lon="-1.83587">
        <ele>57.8</ele>
        <time>2026-08-05T09:10:51Z</time>
      </trkpt>
      <trkpt lat="43.3234" lon="-1.83589">
        <ele>57.8</ele>
        <time>2026-08-05T09:10:52Z</time>
      </trkpt>
      <trkpt lat="43.32342" lon="-1.83591">
        <ele>58.6</ele>
        <time>2026-08-05T09:10:53Z</time>
      </trkpt>
      <trkpt lat="43.32343" lon="-1.83593">
        <ele>58.6</ele>
        <time>2026-08-05T09:10:54Z</time>
      </trkpt>
      <trkpt lat="43.32344" lon="-1.83596">
        <ele>58.6</ele>
        <time>2026-08-05T09:10:55Z</time>
      </trkpt>
      <trkpt lat="43.32345" lon="-1.83599">
        <ele>58.6</ele>
        <time>2026-08-05T09:10:56Z</time>
      </trkpt>
      <trkpt lat="43.32346" lon="-1.83601">
        <ele>58.6</ele>
        <time>2026-08-05T09:10:57Z</time>
      </trkpt>
      <trkpt lat="43.32347" lon="-1.83604">
        <ele>58.8</ele>
        <time>2026-08-05T09:10:58Z</time>
      </trkpt>
      <trkpt lat="43.32347" lon="-1.83607">
        <ele>59.2</ele>
        <time>2026-08-05T09:10:59Z</time>
      </trkpt>
      <trkpt lat="43.32348" lon="-1.83609">
        <ele>59.2</ele>
        <time>2026-08-05T09:11:00Z</time>
      </trkpt>
      <trkpt lat="43.32349" lon="-1.83612">
        <ele>59.2</ele>
        <time>2026-08-05T09:11:01Z</time>
      </trkpt>
      <trkpt lat="43.32349" lon="-1.83614">
        <ele>59.2</ele>
        <time>2026-08-05T09:11:02Z</time>
      </trkpt>
      <trkpt lat="43.3235" lon="-1.83617">
        <ele>59.8</ele>
        <time>2026-08-05T09:11:03Z</time>
      </trkpt>
      <trkpt lat="43.3235" lon="-1.83619">
        <ele>59.8</ele>
        <time>2026-08-05T09:11:04Z</time>
      </trkpt>
      <trkpt lat="43.32351" lon="-1.83622">
        <ele>59.8</ele>
        <time>2026-08-05T09:11:05Z</time>
      </trkpt>
      <trkpt lat="43.32351" lon="-1.83625">
        <ele>59.6</ele>
        <time>2026-08-05T09:11:06Z</time>
      </trkpt>
      <trkpt lat="43.32352" lon="-1.83627">
        <ele>59.6</ele>
        <time>2026-08-05T09:11:07Z</time>
      </trkpt>
      <trkpt lat="43.32352" lon="-1.8363">
        <ele>59.6</ele>
        <time>2026-08-05T09:11:08Z</time>
      </trkpt>
      <trkpt lat="43.32353" lon="-1.83633">
        <ele>59.6</ele>
        <time>2026-08-05T09:11:09Z</time>
      </trkpt>
      <trkpt lat="43.32353" lon="-1.83636">
        <ele>60.2</ele>
        <time>2026-08-05T09:11:10Z</time>
      </trkpt>
      <trkpt lat="43.32353" lon="-1.83639">
        <ele>60.4</ele>
        <time>2026-08-05T09:11:11Z</time>
      </trkpt>
      <trkpt lat="43.32353" lon="-1.83641">
        <ele>60.6</ele>
        <time>2026-08-05T09:11:12Z</time>
      </trkpt>
      <trkpt lat="43.32353" lon="-1.83644">
        <ele>60.6</ele>
        <time>2026-08-05T09:11:13Z</time>
      </trkpt>
      <trkpt lat="43.32353" lon="-1.83647">
        <ele>60.6</ele>
        <time>2026-08-05T09:11:14Z</time>
      </trkpt>
      <trkpt lat="43.32353" lon="-1.8365">
        <ele>60.6</ele>
        <time>2026-08-05T09:11:15Z</time>
      </trkpt>
      <trkpt lat="43.32353" lon="-1.83652">
        <ele>60.6</ele>
        <time>2026-08-05T09:11:16Z</time>
      </trkpt>
      <trkpt lat="43.32353" lon="-1.83654">
        <ele>60.6</ele>
        <time>2026-08-05T09:11:17Z</time>
      </trkpt>
      <trkpt lat="43.32352" lon="-1.83657">
        <ele>60.6</ele>
        <time>2026-08-05T09:11:18Z</time>
      </trkpt>
      <trkpt lat="43.32352" lon="-1.83658">
        <ele>61.4</ele>
        <time>2026-08-05T09:11:19Z</time>
      </trkpt>
      <trkpt lat="43.32352" lon="-1.8366">
        <ele>61.4</ele>
        <time>2026-08-05T09:11:20Z</time>
      </trkpt>
      <trkpt lat="43.32351" lon="-1.8366">
        <ele>61.4</ele>
        <time>2026-08-05T09:11:21Z</time>
      </trkpt>
      <trkpt lat="43.32351" lon="-1.83661">
        <ele>61.4</ele>
        <time>2026-08-05T09:11:22Z</time>
      </trkpt>
      <trkpt lat="43.32348" lon="-1.83672">
        <ele>62.2</ele>
        <time>2026-08-05T09:11:30Z</time>
      </trkpt>
      <trkpt lat="43.32347" lon="-1.83675">
        <ele>62.2</ele>
        <time>2026-08-05T09:11:31Z</time>
      </trkpt>
      <trkpt lat="43.32346" lon="-1.83678">
        <ele>62.2</ele>
        <time>2026-08-05T09:11:32Z</time>
      </trkpt>
      <trkpt lat="43.32345" lon="-1.83681">
        <ele>62.6</ele>
        <time>2026-08-05T09:11:33Z</time>
      </trkpt>
      <trkpt lat="43.32344" lon="-1.83684">
        <ele>63</ele>
        <time>2026-08-05T09:11:34Z</time>
      </trkpt>
      <trkpt lat="43.32343" lon="-1.83687">
        <ele>63</ele>
        <time>2026-08-05T09:11:35Z</time>
      </trkpt>
      <trkpt lat="43.32341" lon="-1.83689">
        <ele>63.4</ele>
        <time>2026-08-05T09:11:36Z</time>
      </trkpt>
      <trkpt lat="43.3234" lon="-1.83692">
        <ele>63.4</ele>
        <time>2026-08-05T09:11:37Z</time>
      </trkpt>
      <trkpt lat="43.3234" lon="-1.83694">
        <ele>63.4</ele>
        <time>2026-08-05T09:11:38Z</time>
      </trkpt>
      <trkpt lat="43.32338" lon="-1.83697">
        <ele>63.2</ele>
        <time>2026-08-05T09:11:39Z</time>
      </trkpt>
      <trkpt lat="43.32337" lon="-1.837">
        <ele>63</ele>
        <time>2026-08-05T09:11:40Z</time>
      </trkpt>
      <trkpt lat="43.32336" lon="-1.83702">
        <ele>63</ele>
        <time>2026-08-05T09:11:41Z</time>
      </trkpt>
      <trkpt lat="43.32335" lon="-1.83705">
        <ele>63</ele>
        <time>2026-08-05T09:11:42Z</time>
      </trkpt>
      <trkpt lat="43.32334" lon="-1.83708">
        <ele>63</ele>
        <time>2026-08-05T09:11:43Z</time>
      </trkpt>
      <trkpt lat="43.32332" lon="-1.83711">
        <ele>63</ele>
        <time>2026-08-05T09:11:44Z</time>
      </trkpt>
      <trkpt lat="43.32331" lon="-1.83713">
        <ele>63.6</ele>
        <time>2026-08-05T09:11:45Z</time>
      </trkpt>
      <trkpt lat="43.3233" lon="-1.83715">
        <ele>63.8</ele>
        <time>2026-08-05T09:11:46Z</time>
      </trkpt>
      <trkpt lat="43.32328" lon="-1.83717">
        <ele>63.8</ele>
        <time>2026-08-05T09:11:47Z</time>
      </trkpt>
      <trkpt lat="43.32327" lon="-1.8372">
        <ele>64.4</ele>
        <time>2026-08-05T09:11:48Z</time>
      </trkpt>
      <trkpt lat="43.32325" lon="-1.83722">
        <ele>64.4</ele>
        <time>2026-08-05T09:11:49Z</time>
      </trkpt>
      <trkpt lat="43.32324" lon="-1.83725">
        <ele>64.4</ele>
        <time>2026-08-05T09:11:50Z</time>
      </trkpt>
      <trkpt lat="43.32323" lon="-1.83728">
        <ele>64.4</ele>
        <time>2026-08-05T09:11:51Z</time>
      </trkpt>
      <trkpt lat="43.32322" lon="-1.8373">
        <ele>64.4</ele>
        <time>2026-08-05T09:11:52Z</time>
      </trkpt>
      <trkpt lat="43.32321" lon="-1.83733">
        <ele>64.6</ele>
        <time>2026-08-05T09:11:53Z</time>
      </trkpt>
      <trkpt lat="43.3232" lon="-1.83735">
        <ele>64.8</ele>
        <time>2026-08-05T09:11:54Z</time>
      </trkpt>
      <trkpt lat="43.3232" lon="-1.83738">
        <ele>65</ele>
        <time>2026-08-05T09:11:55Z</time>
      </trkpt>
      <trkpt lat="43.3232" lon="-1.83741">
        <ele>65</ele>
        <time>2026-08-05T09:11:56Z</time>
      </trkpt>
      <trkpt lat="43.3232" lon="-1.83744">
        <ele>65</ele>
        <time>2026-08-05T09:11:57Z</time>
      </trkpt>
      <trkpt lat="43.3232" lon="-1.83747">
        <ele>65.2</ele>
        <time>2026-08-05T09:11:58Z</time>
      </trkpt>
      <trkpt lat="43.32318" lon="-1.83749">
        <ele>65.2</ele>
        <time>2026-08-05T09:11:59Z</time>
      </trkpt>
      <trkpt lat="43.32317" lon="-1.83751">
        <ele>66</ele>
        <time>2026-08-05T09:12:00Z</time>
      </trkpt>
      <trkpt lat="43.32316" lon="-1.83753">
        <ele>66</ele>
        <time>2026-08-05T09:12:01Z</time>
      </trkpt>
      <trkpt lat="43.32315" lon="-1.83755">
        <ele>66.2</ele>
        <time>2026-08-05T09:12:02Z</time>
      </trkpt>
      <trkpt lat="43.32314" lon="-1.83757">
        <ele>66.2</ele>
        <time>2026-08-05T09:12:03Z</time>
      </trkpt>
      <trkpt lat="43.32313" lon="-1.83759">
        <ele>66.2</ele>
        <time>2026-08-05T09:12:04Z</time>
      </trkpt>
      <trkpt lat="43.32312" lon="-1.83762">
        <ele>66.2</ele>
        <time>2026-08-05T09:12:05Z</time>
      </trkpt>
      <trkpt lat="43.32311" lon="-1.83764">
        <ele>67.4</ele>
        <time>2026-08-05T09:12:06Z</time>
      </trkpt>
      <trkpt lat="43.3231" lon="-1.83766">
        <ele>67.6</ele>
        <time>2026-08-05T09:12:07Z</time>
      </trkpt>
      <trkpt lat="43.32308" lon="-1.83769">
        <ele>67.6</ele>
        <time>2026-08-05T09:12:08Z</time>
      </trkpt>
      <trkpt lat="43.32307" lon="-1.83771">
        <ele>67.6</ele>
        <time>2026-08-05T09:12:09Z</time>
      </trkpt>
      <trkpt lat="43.32306" lon="-1.83773">
        <ele>67.6</ele>
        <time>2026-08-05T09:12:10Z</time>
      </trkpt>
      <trkpt lat="43.32305" lon="-1.83775">
        <ele>67.6</ele>
        <time>2026-08-05T09:12:11Z</time>
      </trkpt>
      <trkpt lat="43.32304" lon="-1.83777">
        <ele>68</ele>
        <time>2026-08-05T09:12:12Z</time>
      </trkpt>
      <trkpt lat="43.32303" lon="-1.83779">
        <ele>69</ele>
        <time>2026-08-05T09:12:13Z</time>
      </trkpt>
      <trkpt lat="43.32302" lon="-1.83782">
        <ele>69</ele>
        <time>2026-08-05T09:12:14Z</time>
      </trkpt>
      <trkpt lat="43.32301" lon="-1.83784">
        <ele>69.6</ele>
        <time>2026-08-05T09:12:15Z</time>
      </trkpt>
      <trkpt lat="43.32299" lon="-1.83786">
        <ele>69.6</ele>
        <time>2026-08-05T09:12:16Z</time>
      </trkpt>
      <trkpt lat="43.32298" lon="-1.83788">
        <ele>70</ele>
        <time>2026-08-05T09:12:17Z</time>
      </trkpt>
      <trkpt lat="43.32297" lon="-1.8379">
        <ele>70.2</ele>
        <time>2026-08-05T09:12:18Z</time>
      </trkpt>
      <trkpt lat="43.32296" lon="-1.83792">
        <ele>70.4</ele>
        <time>2026-08-05T09:12:19Z</time>
      </trkpt>
      <trkpt lat="43.32295" lon="-1.83795">
        <ele>70.6</ele>
        <time>2026-08-05T09:12:20Z</time>
      </trkpt>
      <trkpt lat="43.32294" lon="-1.83797">
        <ele>71</ele>
        <time>2026-08-05T09:12:21Z</time>
      </trkpt>
      <trkpt lat="43.32293" lon="-1.83799">
        <ele>71.4</ele>
        <time>2026-08-05T09:12:22Z</time>
      </trkpt>
      <trkpt lat="43.32292" lon="-1.83801">
        <ele>72.2</ele>
        <time>2026-08-05T09:12:23Z</time>
      </trkpt>
      <trkpt lat="43.32291" lon="-1.83803">
        <ele>73.2</ele>
        <time>2026-08-05T09:12:24Z</time>
      </trkpt>
      <trkpt lat="43.3229" lon="-1.83805">
        <ele>73.2</ele>
        <time>2026-08-05T09:12:25Z</time>
      </trkpt>
      <trkpt lat="43.32289" lon="-1.83807">
        <ele>73.2</ele>
        <time>2026-08-05T09:12:26Z</time>
      </trkpt>
      <trkpt lat="43.32288" lon="-1.83809">
        <ele>72.6</ele>
        <time>2026-08-05T09:12:27Z</time>
      </trkpt>
      <trkpt lat="43.32287" lon="-1.83812">
        <ele>73.2</ele>
        <time>2026-08-05T09:12:28Z</time>
      </trkpt>
      <trkpt lat="43.32286" lon="-1.83814">
        <ele>73.4</ele>
        <time>2026-08-05T09:12:29Z</time>
      </trkpt>
      <trkpt lat="43.32285" lon="-1.83815">
        <ele>73.4</ele>
        <time>2026-08-05T09:12:30Z</time>
      </trkpt>
      <trkpt lat="43.32284" lon="-1.83817">
        <ele>74</ele>
        <time>2026-08-05T09:12:31Z</time>
      </trkpt>
      <trkpt lat="43.32283" lon="-1.83819">
        <ele>74</ele>
        <time>2026-08-05T09:12:32Z</time>
      </trkpt>
      <trkpt lat="43.32282" lon="-1.83821">
        <ele>74</ele>
        <time>2026-08-05T09:12:33Z</time>
      </trkpt>
      <trkpt lat="43.32281" lon="-1.83824">
        <ele>74</ele>
        <time>2026-08-05T09:12:34Z</time>
      </trkpt>
      <trkpt lat="43.3228" lon="-1.83826">
        <ele>74.8</ele>
        <time>2026-08-05T09:12:35Z</time>
      </trkpt>
      <trkpt lat="43.32279" lon="-1.83828">
        <ele>75</ele>
        <time>2026-08-05T09:12:36Z</time>
      </trkpt>
      <trkpt lat="43.32277" lon="-1.8383">
        <ele>75</ele>
        <time>2026-08-05T09:12:37Z</time>
      </trkpt>
      <trkpt lat="43.32276" lon="-1.83832">
        <ele>75</ele>
        <time>2026-08-05T09:12:38Z</time>
      </trkpt>
      <trkpt lat="43.32275" lon="-1.83834">
        <ele>75</ele>
        <time>2026-08-05T09:12:39Z</time>
      </trkpt>
      <trkpt lat="43.32274" lon="-1.83836">
        <ele>75.6</ele>
        <time>2026-08-05T09:12:40Z</time>
      </trkpt>
      <trkpt lat="43.32273" lon="-1.83838">
        <ele>75.8</ele>
        <time>2026-08-05T09:12:41Z</time>
      </trkpt>
      <trkpt lat="43.32271" lon="-1.83839">
        <ele>75.8</ele>
        <time>2026-08-05T09:12:42Z</time>
      </trkpt>
      <trkpt lat="43.3227" lon="-1.83841">
        <ele>76.4</ele>
        <time>2026-08-05T09:12:43Z</time>
      </trkpt>
      <trkpt lat="43.32269" lon="-1.83844">
        <ele>76.6</ele>
        <time>2026-08-05T09:12:44Z</time>
      </trkpt>
      <trkpt lat="43.32268" lon="-1.83846">
        <ele>76.8</ele>
        <time>2026-08-05T09:12:45Z</time>
      </trkpt>
      <trkpt lat="43.32267" lon="-1.83848">
        <ele>77.6</ele>
        <time>2026-08-05T09:12:46Z</time>
      </trkpt>
      <trkpt lat="43.32265" lon="-1.8385">
        <ele>77.6</ele>
        <time>2026-08-05T09:12:47Z</time>
      </trkpt>
      <trkpt lat="43.32264" lon="-1.83852">
        <ele>77.6</ele>
        <time>2026-08-05T09:12:48Z</time>
      </trkpt>
      <trkpt lat="43.32263" lon="-1.83855">
        <ele>77.6</ele>
        <time>2026-08-05T09:12:49Z</time>
      </trkpt>
      <trkpt lat="43.32262" lon="-1.83857">
        <ele>77.8</ele>
        <time>2026-08-05T09:12:50Z</time>
      </trkpt>
      <trkpt lat="43.3226" lon="-1.83859">
        <ele>77.8</ele>
        <time>2026-08-05T09:12:51Z</time>
      </trkpt>
      <trkpt lat="43.32259" lon="-1.83861">
        <ele>78.8</ele>
        <time>2026-08-05T09:12:52Z</time>
      </trkpt>
      <trkpt lat="43.32257" lon="-1.83863">
        <ele>83.2</ele>
        <time>2026-08-05T09:12:53Z</time>
      </trkpt>
      <trkpt lat="43.32256" lon="-1.83865">
        <ele>83.2</ele>
        <time>2026-08-05T09:12:54Z</time>
      </trkpt>
      <trkpt lat="43.32254" lon="-1.83867">
        <ele>83.2</ele>
        <time>2026-08-05T09:12:55Z</time>
      </trkpt>
      <trkpt lat="43.32253" lon="-1.83868">
        <ele>82.2</ele>
        <time>2026-08-05T09:12:56Z</time>
      </trkpt>
      <trkpt lat="43.32252" lon="-1.8387">
        <ele>82.2</ele>
        <time>2026-08-05T09:12:57Z</time>
      </trkpt>
      <trkpt lat="43.3225" lon="-1.83872">
        <ele>82.2</ele>
        <time>2026-08-05T09:12:58Z</time>
      </trkpt>
      <trkpt lat="43.32249" lon="-1.83874">
        <ele>80.2</ele>
        <time>2026-08-05T09:12:59Z</time>
      </trkpt>
      <trkpt lat="43.32249" lon="-1.83876">
        <ele>79.8</ele>
        <time>2026-08-05T09:13:00Z</time>
      </trkpt>
      <trkpt lat="43.32249" lon="-1.83877">
        <ele>79.8</ele>
        <time>2026-08-05T09:13:01Z</time>
      </trkpt>
      <trkpt lat="43.32249" lon="-1.83878">
        <ele>79.6</ele>
        <time>2026-08-05T09:13:02Z</time>
      </trkpt>
      <trkpt lat="43.32249" lon="-1.83878">
        <ele>79.6</ele>
        <time>2026-08-05T09:13:03Z</time>
      </trkpt>
      <trkpt lat="43.32252" lon="-1.83882">
        <ele>79.4</ele>
        <time>2026-08-05T09:14:46Z</time>
      </trkpt>
      <trkpt lat="43.32253" lon="-1.83884">
        <ele>79.4</ele>
        <time>2026-08-05T09:14:47Z</time>
      </trkpt>
      <trkpt lat="43.32255" lon="-1.83887">
        <ele>79.4</ele>
        <time>2026-08-05T09:14:48Z</time>
      </trkpt>
      <trkpt lat="43.32256" lon="-1.83889">
        <ele>79.6</ele>
        <time>2026-08-05T09:14:49Z</time>
      </trkpt>
      <trkpt lat="43.32258" lon="-1.83892">
        <ele>79.6</ele>
        <time>2026-08-05T09:14:50Z</time>
      </trkpt>
      <trkpt lat="43.32259" lon="-1.83895">
        <ele>79.6</ele>
        <time>2026-08-05T09:14:51Z</time>
      </trkpt>
      <trkpt lat="43.32261" lon="-1.83898">
        <ele>79.6</ele>
        <time>2026-08-05T09:14:52Z</time>
      </trkpt>
      <trkpt lat="43.32263" lon="-1.83901">
        <ele>79.6</ele>
        <time>2026-08-05T09:14:53Z</time>
      </trkpt>
      <trkpt lat="43.32265" lon="-1.83904">
        <ele>79.6</ele>
        <time>2026-08-05T09:14:54Z</time>
      </trkpt>
      <trkpt lat="43.32266" lon="-1.83907">
        <ele>79.6</ele>
        <time>2026-08-05T09:14:55Z</time>
      </trkpt>
      <trkpt lat="43.32268" lon="-1.83909">
        <ele>79.6</ele>
        <time>2026-08-05T09:14:56Z</time>
      </trkpt>
      <trkpt lat="43.32269" lon="-1.83912">
        <ele>79.6</ele>
        <time>2026-08-05T09:14:57Z</time>
      </trkpt>
      <trkpt lat="43.32271" lon="-1.83915">
        <ele>79.6</ele>
        <time>2026-08-05T09:14:58Z</time>
      </trkpt>
      <trkpt lat="43.32272" lon="-1.83917">
        <ele>79.6</ele>
        <time>2026-08-05T09:14:59Z</time>
      </trkpt>
      <trkpt lat="43.32274" lon="-1.8392">
        <ele>79.6</ele>
        <time>2026-08-05T09:15:00Z</time>
      </trkpt>
      <trkpt lat="43.32275" lon="-1.83923">
        <ele>80.2</ele>
        <time>2026-08-05T09:15:01Z</time>
      </trkpt>
      <trkpt lat="43.32277" lon="-1.83925">
        <ele>80.6</ele>
        <time>2026-08-05T09:15:02Z</time>
      </trkpt>
      <trkpt lat="43.32278" lon="-1.83928">
        <ele>80.6</ele>
        <time>2026-08-05T09:15:03Z</time>
      </trkpt>
      <trkpt lat="43.3228" lon="-1.8393">
        <ele>80.6</ele>
        <time>2026-08-05T09:15:04Z</time>
      </trkpt>
      <trkpt lat="43.32282" lon="-1.83932">
        <ele>80</ele>
        <time>2026-08-05T09:15:05Z</time>
      </trkpt>
      <trkpt lat="43.32283" lon="-1.83934">
        <ele>80</ele>
        <time>2026-08-05T09:15:06Z</time>
      </trkpt>
      <trkpt lat="43.32284" lon="-1.83937">
        <ele>80</ele>
        <time>2026-08-05T09:15:07Z</time>
      </trkpt>
      <trkpt lat="43.32286" lon="-1.8394">
        <ele>80.6</ele>
        <time>2026-08-05T09:15:08Z</time>
      </trkpt>
      <trkpt lat="43.32287" lon="-1.83942">
        <ele>81.2</ele>
        <time>2026-08-05T09:15:09Z</time>
      </trkpt>
      <trkpt lat="43.32288" lon="-1.83945">
        <ele>81.2</ele>
        <time>2026-08-05T09:15:10Z</time>
      </trkpt>
      <trkpt lat="43.32289" lon="-1.83947">
        <ele>81.2</ele>
        <time>2026-08-05T09:15:11Z</time>
      </trkpt>
      <trkpt lat="43.3229" lon="-1.8395">
        <ele>81.2</ele>
        <time>2026-08-05T09:15:12Z</time>
      </trkpt>
      <trkpt lat="43.32291" lon="-1.83952">
        <ele>81.6</ele>
        <time>2026-08-05T09:15:13Z</time>
      </trkpt>
      <trkpt lat="43.32292" lon="-1.83955">
        <ele>82</ele>
        <time>2026-08-05T09:15:14Z</time>
      </trkpt>
      <trkpt lat="43.32293" lon="-1.83957">
        <ele>82</ele>
        <time>2026-08-05T09:15:15Z</time>
      </trkpt>
      <trkpt lat="43.32295" lon="-1.8396">
        <ele>82.6</ele>
        <time>2026-08-05T09:15:16Z</time>
      </trkpt>
      <trkpt lat="43.32296" lon="-1.83962">
        <ele>82.8</ele>
        <time>2026-08-05T09:15:17Z</time>
      </trkpt>
      <trkpt lat="43.32297" lon="-1.83965">
        <ele>82.8</ele>
        <time>2026-08-05T09:15:18Z</time>
      </trkpt>
      <trkpt lat="43.32298" lon="-1.83967">
        <ele>83.4</ele>
        <time>2026-08-05T09:15:19Z</time>
      </trkpt>
      <trkpt lat="43.32299" lon="-1.8397">
        <ele>83.6</ele>
        <time>2026-08-05T09:15:20Z</time>
      </trkpt>
      <trkpt lat="43.323" lon="-1.83973">
        <ele>83.6</ele>
        <time>2026-08-05T09:15:21Z</time>
      </trkpt>
      <trkpt lat="43.32301" lon="-1.83975">
        <ele>83.6</ele>
        <time>2026-08-05T09:15:22Z</time>
      </trkpt>
      <trkpt lat="43.32302" lon="-1.83978">
        <ele>83.6</ele>
        <time>2026-08-05T09:15:23Z</time>
      </trkpt>
      <trkpt lat="43.32303" lon="-1.83981">
        <ele>83.6</ele>
        <time>2026-08-05T09:15:24Z</time>
      </trkpt>
      <trkpt lat="43.32304" lon="-1.83983">
        <ele>84.6</ele>
        <time>2026-08-05T09:15:25Z</time>
      </trkpt>
      <trkpt lat="43.32306" lon="-1.83986">
        <ele>84.8</ele>
        <time>2026-08-05T09:15:26Z</time>
      </trkpt>
      <trkpt lat="43.32307" lon="-1.83988">
        <ele>85.4</ele>
        <time>2026-08-05T09:15:27Z</time>
      </trkpt>
      <trkpt lat="43.32308" lon="-1.83991">
        <ele>85.4</ele>
        <time>2026-08-05T09:15:28Z</time>
      </trkpt>
      <trkpt lat="43.32308" lon="-1.83994">
        <ele>85.4</ele>
        <time>2026-08-05T09:15:29Z</time>
      </trkpt>
      <trkpt lat="43.32309" lon="-1.83996">
        <ele>85.4</ele>
        <time>2026-08-05T09:15:30Z</time>
      </trkpt>
      <trkpt lat="43.3231" lon="-1.83999">
        <ele>86.4</ele>
        <time>2026-08-05T09:15:31Z</time>
      </trkpt>
      <trkpt lat="43.32311" lon="-1.84001">
        <ele>86.4</ele>
        <time>2026-08-05T09:15:32Z</time>
      </trkpt>
      <trkpt lat="43.32312" lon="-1.84003">
        <ele>86.4</ele>
        <time>2026-08-05T09:15:33Z</time>
      </trkpt>
      <trkpt lat="43.32314" lon="-1.84006">
        <ele>86</ele>
        <time>2026-08-05T09:15:34Z</time>
      </trkpt>
      <trkpt lat="43.32315" lon="-1.84009">
        <ele>86</ele>
        <time>2026-08-05T09:15:35Z</time>
      </trkpt>
      <trkpt lat="43.32316" lon="-1.84011">
        <ele>86</ele>
        <time>2026-08-05T09:15:36Z</time>
      </trkpt>
      <trkpt lat="43.32317" lon="-1.84014">
        <ele>86.4</ele>
        <time>2026-08-05T09:15:37Z</time>
      </trkpt>
      <trkpt lat="43.32318" lon="-1.84016">
        <ele>86.6</ele>
        <time>2026-08-05T09:15:38Z</time>
      </trkpt>
      <trkpt lat="43.32319" lon="-1.84019">
        <ele>86.6</ele>
        <time>2026-08-05T09:15:39Z</time>
      </trkpt>
      <trkpt lat="43.3232" lon="-1.84021">
        <ele>86.6</ele>
        <time>2026-08-05T09:15:40Z</time>
      </trkpt>
      <trkpt lat="43.3232" lon="-1.84024">
        <ele>86.2</ele>
        <time>2026-08-05T09:15:41Z</time>
      </trkpt>
      <trkpt lat="43.32321" lon="-1.84026">
        <ele>86.2</ele>
        <time>2026-08-05T09:15:42Z</time>
      </trkpt>
      <trkpt lat="43.32321" lon="-1.84029">
        <ele>86.2</ele>
        <time>2026-08-05T09:15:43Z</time>
      </trkpt>
      <trkpt lat="43.32322" lon="-1.84032">
        <ele>86.2</ele>
        <time>2026-08-05T09:15:44Z</time>
      </trkpt>
      <trkpt lat="43.32323" lon="-1.84036">
        <ele>86.2</ele>
        <time>2026-08-05T09:15:45Z</time>
      </trkpt>
      <trkpt lat="43.32323" lon="-1.8404">
        <ele>86.2</ele>
        <time>2026-08-05T09:15:46Z</time>
      </trkpt>
      <trkpt lat="43.32324" lon="-1.84043">
        <ele>86.2</ele>
        <time>2026-08-05T09:15:47Z</time>
      </trkpt>
      <trkpt lat="43.32325" lon="-1.84048">
        <ele>85.2</ele>
        <time>2026-08-05T09:15:48Z</time>
      </trkpt>
      <trkpt lat="43.32325" lon="-1.84052">
        <ele>85.2</ele>
        <time>2026-08-05T09:15:49Z</time>
      </trkpt>
      <trkpt lat="43.32325" lon="-1.84056">
        <ele>85.2</ele>
        <time>2026-08-05T09:15:50Z</time>
      </trkpt>
      <trkpt lat="43.32325" lon="-1.84059">
        <ele>86.2</ele>
        <time>2026-08-05T09:15:51Z</time>
      </trkpt>
      <trkpt lat="43.32325" lon="-1.84062">
        <ele>86.6</ele>
        <time>2026-08-05T09:15:52Z</time>
      </trkpt>
      <trkpt lat="43.32326" lon="-1.84065">
        <ele>86.6</ele>
        <time>2026-08-05T09:15:53Z</time>
      </trkpt>
      <trkpt lat="43.32326" lon="-1.84067">
        <ele>86.6</ele>
        <time>2026-08-05T09:15:54Z</time>
      </trkpt>
      <trkpt lat="43.32327" lon="-1.84069">
        <ele>86.6</ele>
        <time>2026-08-05T09:15:55Z</time>
      </trkpt>
      <trkpt lat="43.32327" lon="-1.84072">
        <ele>86.6</ele>
        <time>2026-08-05T09:15:56Z</time>
      </trkpt>
      <trkpt lat="43.32327" lon="-1.84074">
        <ele>86.6</ele>
        <time>2026-08-05T09:15:57Z</time>
      </trkpt>
      <trkpt lat="43.32328" lon="-1.84076">
        <ele>86.6</ele>
        <time>2026-08-05T09:15:58Z</time>
      </trkpt>
      <trkpt lat="43.32328" lon="-1.84079">
        <ele>86.6</ele>
        <time>2026-08-05T09:15:59Z</time>
      </trkpt>
      <trkpt lat="43.32328" lon="-1.84081">
        <ele>86.6</ele>
        <time>2026-08-05T09:16:00Z</time>
      </trkpt>
      <trkpt lat="43.32329" lon="-1.84084">
        <ele>86.6</ele>
        <time>2026-08-05T09:16:01Z</time>
      </trkpt>
      <trkpt lat="43.32329" lon="-1.84087">
        <ele>86.6</ele>
        <time>2026-08-05T09:16:02Z</time>
      </trkpt>
      <trkpt lat="43.32329" lon="-1.8409">
        <ele>86.6</ele>
        <time>2026-08-05T09:16:03Z</time>
      </trkpt>
      <trkpt lat="43.32329" lon="-1.84093">
        <ele>86.6</ele>
        <time>2026-08-05T09:16:04Z</time>
      </trkpt>
      <trkpt lat="43.32329" lon="-1.84096">
        <ele>87.2</ele>
        <time>2026-08-05T09:16:05Z</time>
      </trkpt>
      <trkpt lat="43.3233" lon="-1.84099">
        <ele>87.2</ele>
        <time>2026-08-05T09:16:06Z</time>
      </trkpt>
      <trkpt lat="43.3233" lon="-1.84101">
        <ele>87.2</ele>
        <time>2026-08-05T09:16:07Z</time>
      </trkpt>
      <trkpt lat="43.3233" lon="-1.84104">
        <ele>87.2</ele>
        <time>2026-08-05T09:16:08Z</time>
      </trkpt>
      <trkpt lat="43.3233" lon="-1.84107">
        <ele>88.4</ele>
        <time>2026-08-05T09:16:09Z</time>
      </trkpt>
      <trkpt lat="43.3233" lon="-1.84109">
        <ele>88.4</ele>
        <time>2026-08-05T09:16:10Z</time>
      </trkpt>
      <trkpt lat="43.32331" lon="-1.84112">
        <ele>88.4</ele>
        <time>2026-08-05T09:16:11Z</time>
      </trkpt>
      <trkpt lat="43.32331" lon="-1.84115">
        <ele>88.4</ele>
        <time>2026-08-05T09:16:12Z</time>
      </trkpt>
      <trkpt lat="43.3233" lon="-1.84118">
        <ele>88.8</ele>
        <time>2026-08-05T09:16:13Z</time>
      </trkpt>
      <trkpt lat="43.32331" lon="-1.84121">
        <ele>88.8</ele>
        <time>2026-08-05T09:16:14Z</time>
      </trkpt>
      <trkpt lat="43.32331" lon="-1.84123">
        <ele>88.8</ele>
        <time>2026-08-05T09:16:15Z</time>
      </trkpt>
      <trkpt lat="43.32331" lon="-1.84126">
        <ele>88.8</ele>
        <time>2026-08-05T09:16:16Z</time>
      </trkpt>
      <trkpt lat="43.32331" lon="-1.84129">
        <ele>88.8</ele>
        <time>2026-08-05T09:16:17Z</time>
      </trkpt>
      <trkpt lat="43.32332" lon="-1.84132">
        <ele>89.8</ele>
        <time>2026-08-05T09:16:18Z</time>
      </trkpt>
      <trkpt lat="43.32332" lon="-1.84135">
        <ele>90</ele>
        <time>2026-08-05T09:16:19Z</time>
      </trkpt>
      <trkpt lat="43.32333" lon="-1.84138">
        <ele>90</ele>
        <time>2026-08-05T09:16:20Z</time>
      </trkpt>
      <trkpt lat="43.32334" lon="-1.8414">
        <ele>90</ele>
        <time>2026-08-05T09:16:21Z</time>
      </trkpt>
      <trkpt lat="43.32334" lon="-1.84144">
        <ele>90</ele>
        <time>2026-08-05T09:16:22Z</time>
      </trkpt>
      <trkpt lat="43.32334" lon="-1.84147">
        <ele>90</ele>
        <time>2026-08-05T09:16:23Z</time>
      </trkpt>
      <trkpt lat="43.32335" lon="-1.84149">
        <ele>90</ele>
        <time>2026-08-05T09:16:24Z</time>
      </trkpt>
      <trkpt lat="43.32335" lon="-1.84152">
        <ele>90.6</ele>
        <time>2026-08-05T09:16:25Z</time>
      </trkpt>
      <trkpt lat="43.32336" lon="-1.84155">
        <ele>90.6</ele>
        <time>2026-08-05T09:16:26Z</time>
      </trkpt>
      <trkpt lat="43.32336" lon="-1.84158">
        <ele>90.6</ele>
        <time>2026-08-05T09:16:27Z</time>
      </trkpt>
      <trkpt lat="43.32336" lon="-1.8416">
        <ele>90.6</ele>
        <time>2026-08-05T09:16:28Z</time>
      </trkpt>
      <trkpt lat="43.32336" lon="-1.84163">
        <ele>92.2</ele>
        <time>2026-08-05T09:16:29Z</time>
      </trkpt>
      <trkpt lat="43.32336" lon="-1.84166">
        <ele>92.2</ele>
        <time>2026-08-05T09:16:30Z</time>
      </trkpt>
      <trkpt lat="43.32335" lon="-1.84169">
        <ele>92.2</ele>
        <time>2026-08-05T09:16:31Z</time>
      </trkpt>
      <trkpt lat="43.32334" lon="-1.84172">
        <ele>92.2</ele>
        <time>2026-08-05T09:16:32Z</time>
      </trkpt>
      <trkpt lat="43.32332" lon="-1.84174">
        <ele>91.2</ele>
        <time>2026-08-05T09:16:33Z</time>
      </trkpt>
      <trkpt lat="43.32331" lon="-1.84176">
        <ele>91.2</ele>
        <time>2026-08-05T09:16:34Z</time>
      </trkpt>
      <trkpt lat="43.3233" lon="-1.84177">
        <ele>91.2</ele>
        <time>2026-08-05T09:16:35Z</time>
      </trkpt>
      <trkpt lat="43.32328" lon="-1.84179">
        <ele>92.2</ele>
        <time>2026-08-05T09:16:36Z</time>
      </trkpt>
      <trkpt lat="43.32327" lon="-1.84181">
        <ele>92.2</ele>
        <time>2026-08-05T09:16:37Z</time>
      </trkpt>
      <trkpt lat="43.32327" lon="-1.84183">
        <ele>93.6</ele>
        <time>2026-08-05T09:16:38Z</time>
      </trkpt>
      <trkpt lat="43.32326" lon="-1.84185">
        <ele>93.6</ele>
        <time>2026-08-05T09:16:39Z</time>
      </trkpt>
      <trkpt lat="43.32325" lon="-1.84187">
        <ele>93.6</ele>
        <time>2026-08-05T09:16:40Z</time>
      </trkpt>
      <trkpt lat="43.32325" lon="-1.84189">
        <ele>93.6</ele>
        <time>2026-08-05T09:16:41Z</time>
      </trkpt>
      <trkpt lat="43.32325" lon="-1.84192">
        <ele>94.4</ele>
        <time>2026-08-05T09:16:42Z</time>
      </trkpt>
      <trkpt lat="43.32325" lon="-1.84194">
        <ele>94.6</ele>
        <time>2026-08-05T09:16:43Z</time>
      </trkpt>
      <trkpt lat="43.32326" lon="-1.84196">
        <ele>95.2</ele>
        <time>2026-08-05T09:16:44Z</time>
      </trkpt>
      <trkpt lat="43.32326" lon="-1.84198">
        <ele>95.2</ele>
        <time>2026-08-05T09:16:45Z</time>
      </trkpt>
      <trkpt lat="43.32327" lon="-1.84199">
        <ele>95.8</ele>
        <time>2026-08-05T09:16:46Z</time>
      </trkpt>
      <trkpt lat="43.32328" lon="-1.84201">
        <ele>95.8</ele>
        <time>2026-08-05T09:16:47Z</time>
      </trkpt>
      <trkpt lat="43.32329" lon="-1.84202">
        <ele>95.8</ele>
        <time>2026-08-05T09:16:48Z</time>
      </trkpt>
      <trkpt lat="43.3233" lon="-1.84204">
        <ele>95.8</ele>
        <time>2026-08-05T09:16:49Z</time>
      </trkpt>
      <trkpt lat="43.3233" lon="-1.84205">
        <ele>96.6</ele>
        <time>2026-08-05T09:16:50Z</time>
      </trkpt>
      <trkpt lat="43.32331" lon="-1.84207">
        <ele>96.6</ele>
        <time>2026-08-05T09:16:51Z</time>
      </trkpt>
      <trkpt lat="43.32332" lon="-1.84209">
        <ele>96.6</ele>
        <time>2026-08-05T09:16:52Z</time>
      </trkpt>
      <trkpt lat="43.32333" lon="-1.84211">
        <ele>96.6</ele>
        <time>2026-08-05T09:16:53Z</time>
      </trkpt>
      <trkpt lat="43.32335" lon="-1.84215">
        <ele>96.6</ele>
        <time>2026-08-05T09:16:54Z</time>
      </trkpt>
      <trkpt lat="43.32336" lon="-1.84216">
        <ele>97.6</ele>
        <time>2026-08-05T09:16:55Z</time>
      </trkpt>
      <trkpt lat="43.32336" lon="-1.84217">
        <ele>97.6</ele>
        <time>2026-08-05T09:16:56Z</time>
      </trkpt>
      <trkpt lat="43.32337" lon="-1.84218">
        <ele>97.6</ele>
        <time>2026-08-05T09:16:57Z</time>
      </trkpt>
      <trkpt lat="43.32338" lon="-1.8422">
        <ele>98.2</ele>
        <time>2026-08-05T09:16:58Z</time>
      </trkpt>
      <trkpt lat="43.32339" lon="-1.84222">
        <ele>98.2</ele>
        <time>2026-08-05T09:16:59Z</time>
      </trkpt>
      <trkpt lat="43.3234" lon="-1.84225">
        <ele>98.8</ele>
        <time>2026-08-05T09:17:00Z</time>
      </trkpt>
      <trkpt lat="43.32342" lon="-1.84228">
        <ele>98.8</ele>
        <time>2026-08-05T09:17:01Z</time>
      </trkpt>
      <trkpt lat="43.32343" lon="-1.84231">
        <ele>99.2</ele>
        <time>2026-08-05T09:17:02Z</time>
      </trkpt>
      <trkpt lat="43.32344" lon="-1.84233">
        <ele>99.6</ele>
        <time>2026-08-05T09:17:03Z</time>
      </trkpt>
      <trkpt lat="43.32345" lon="-1.84235">
        <ele>99.6</ele>
        <time>2026-08-05T09:17:04Z</time>
      </trkpt>
      <trkpt lat="43.32346" lon="-1.84238">
        <ele>99.6</ele>
        <time>2026-08-05T09:17:05Z</time>
      </trkpt>
      <trkpt lat="43.32346" lon="-1.8424">
        <ele>99.6</ele>
        <time>2026-08-05T09:17:06Z</time>
      </trkpt>
      <trkpt lat="43.32347" lon="-1.84242">
        <ele>100.4</ele>
        <time>2026-08-05T09:17:07Z</time>
      </trkpt>
      <trkpt lat="43.32347" lon="-1.84244">
        <ele>101.4</ele>
        <time>2026-08-05T09:17:08Z</time>
      </trkpt>
      <trkpt lat="43.32348" lon="-1.84246">
        <ele>101.4</ele>
        <time>2026-08-05T09:17:09Z</time>
      </trkpt>
      <trkpt lat="43.32349" lon="-1.84247">
        <ele>101.4</ele>
        <time>2026-08-05T09:17:10Z</time>
      </trkpt>
      <trkpt lat="43.32351" lon="-1.8425">
        <ele>101.4</ele>
        <time>2026-08-05T09:17:11Z</time>
      </trkpt>
      <trkpt lat="43.32352" lon="-1.84252">
        <ele>101.4</ele>
        <time>2026-08-05T09:17:12Z</time>
      </trkpt>
      <trkpt lat="43.32354" lon="-1.84254">
        <ele>102.2</ele>
        <time>2026-08-05T09:17:13Z</time>
      </trkpt>
      <trkpt lat="43.32355" lon="-1.84256">
        <ele>103</ele>
        <time>2026-08-05T09:17:14Z</time>
      </trkpt>
      <trkpt lat="43.32356" lon="-1.84258">
        <ele>103</ele>
        <time>2026-08-05T09:17:15Z</time>
      </trkpt>
      <trkpt lat="43.32357" lon="-1.8426">
        <ele>103</ele>
        <time>2026-08-05T09:17:16Z</time>
      </trkpt>
      <trkpt lat="43.32358" lon="-1.84263">
        <ele>103</ele>
        <time>2026-08-05T09:17:17Z</time>
      </trkpt>
      <trkpt lat="43.32358" lon="-1.84265">
        <ele>104.6</ele>
        <time>2026-08-05T09:17:18Z</time>
      </trkpt>
      <trkpt lat="43.32359" lon="-1.84267">
        <ele>104.6</ele>
        <time>2026-08-05T09:17:19Z</time>
      </trkpt>
      <trkpt lat="43.32359" lon="-1.84269">
        <ele>104.6</ele>
        <time>2026-08-05T09:17:20Z</time>
      </trkpt>
      <trkpt lat="43.3236" lon="-1.84271">
        <ele>104.6</ele>
        <time>2026-08-05T09:17:21Z</time>
      </trkpt>
      <trkpt lat="43.32361" lon="-1.84273">
        <ele>104.6</ele>
        <time>2026-08-05T09:17:22Z</time>
      </trkpt>
      <trkpt lat="43.32362" lon="-1.84275">
        <ele>105.2</ele>
        <time>2026-08-05T09:17:23Z</time>
      </trkpt>
      <trkpt lat="43.32362" lon="-1.84276">
        <ele>105.8</ele>
        <time>2026-08-05T09:17:24Z</time>
      </trkpt>
      <trkpt lat="43.32362" lon="-1.84277">
        <ele>105.8</ele>
        <time>2026-08-05T09:17:25Z</time>
      </trkpt>
      <trkpt lat="43.32362" lon="-1.84277">
        <ele>105.8</ele>
        <time>2026-08-05T09:17:26Z</time>
      </trkpt>
      <trkpt lat="43.32362" lon="-1.84277">
        <ele>105.8</ele>
        <time>2026-08-05T09:17:27Z</time>
      </trkpt>
      <trkpt lat="43.32359" lon="-1.84348">
        <ele>115.8</ele>
        <time>2026-08-05T09:22:37Z</time>
      </trkpt>
      <trkpt lat="43.32359" lon="-1.84351">
        <ele>116.4</ele>
        <time>2026-08-05T09:22:38Z</time>
      </trkpt>
      <trkpt lat="43.32359" lon="-1.84353">
        <ele>116.4</ele>
        <time>2026-08-05T09:22:39Z</time>
      </trkpt>
      <trkpt lat="43.3236" lon="-1.84355">
        <ele>116.4</ele>
        <time>2026-08-05T09:22:40Z</time>
      </trkpt>
      <trkpt lat="43.3236" lon="-1.84358">
        <ele>116.8</ele>
        <time>2026-08-05T09:22:41Z</time>
      </trkpt>
      <trkpt lat="43.3236" lon="-1.8436">
        <ele>117.2</ele>
        <time>2026-08-05T09:22:42Z</time>
      </trkpt>
      <trkpt lat="43.32361" lon="-1.84363">
        <ele>117.4</ele>
        <time>2026-08-05T09:22:43Z</time>
      </trkpt>
      <trkpt lat="43.32362" lon="-1.84366">
        <ele>117.4</ele>
        <time>2026-08-05T09:22:44Z</time>
      </trkpt>
      <trkpt lat="43.32363" lon="-1.84369">
        <ele>118.6</ele>
        <time>2026-08-05T09:22:45Z</time>
      </trkpt>
      <trkpt lat="43.32363" lon="-1.84372">
        <ele>118.6</ele>
        <time>2026-08-05T09:22:46Z</time>
      </trkpt>
      <trkpt lat="43.32364" lon="-1.84375">
        <ele>118.6</ele>
        <time>2026-08-05T09:22:47Z</time>
      </trkpt>
      <trkpt lat="43.32365" lon="-1.84377">
        <ele>118.6</ele>
        <time>2026-08-05T09:22:48Z</time>
      </trkpt>
      <trkpt lat="43.32366" lon="-1.8438">
        <ele>118.6</ele>
        <time>2026-08-05T09:22:49Z</time>
      </trkpt>
      <trkpt lat="43.32367" lon="-1.84381">
        <ele>118.6</ele>
        <time>2026-08-05T09:22:50Z</time>
      </trkpt>
      <trkpt lat="43.32368" lon="-1.84383">
        <ele>118.6</ele>
        <time>2026-08-05T09:22:51Z</time>
      </trkpt>
      <trkpt lat="43.32369" lon="-1.84384">
        <ele>118.6</ele>
        <time>2026-08-05T09:22:52Z</time>
      </trkpt>
      <trkpt lat="43.3237" lon="-1.84386">
        <ele>119.6</ele>
        <time>2026-08-05T09:22:53Z</time>
      </trkpt>
      <trkpt lat="43.32371" lon="-1.84387">
        <ele>119.8</ele>
        <time>2026-08-05T09:22:54Z</time>
      </trkpt>
      <trkpt lat="43.32372" lon="-1.84389">
        <ele>120.2</ele>
        <time>2026-08-05T09:22:55Z</time>
      </trkpt>
      <trkpt lat="43.32372" lon="-1.84391">
        <ele>120.2</ele>
        <time>2026-08-05T09:22:56Z</time>
      </trkpt>
      <trkpt lat="43.32373" lon="-1.84392">
        <ele>120.4</ele>
        <time>2026-08-05T09:22:57Z</time>
      </trkpt>
      <trkpt lat="43.32373" lon="-1.84393">
        <ele>120.4</ele>
        <time>2026-08-05T09:22:58Z</time>
      </trkpt>
      <trkpt lat="43.32374" lon="-1.84394">
        <ele>120.4</ele>
        <time>2026-08-05T09:22:59Z</time>
      </trkpt>
      <trkpt lat="43.32374" lon="-1.84395">
        <ele>120.4</ele>
        <time>2026-08-05T09:23:00Z</time>
      </trkpt>
      <trkpt lat="43.32378" lon="-1.84401">
        <ele>119.6</ele>
        <time>2026-08-05T09:23:04Z</time>
      </trkpt>
      <trkpt lat="43.3238" lon="-1.84404">
        <ele>119.6</ele>
        <time>2026-08-05T09:23:05Z</time>
      </trkpt>
      <trkpt lat="43.32381" lon="-1.84406">
        <ele>120</ele>
        <time>2026-08-05T09:23:06Z</time>
      </trkpt>
      <trkpt lat="43.32382" lon="-1.84409">
        <ele>120</ele>
        <time>2026-08-05T09:23:07Z</time>
      </trkpt>
      <trkpt lat="43.32384" lon="-1.84411">
        <ele>120</ele>
        <time>2026-08-05T09:23:08Z</time>
      </trkpt>
      <trkpt lat="43.32385" lon="-1.84414">
        <ele>119.2</ele>
        <time>2026-08-05T09:23:09Z</time>
      </trkpt>
      <trkpt lat="43.32387" lon="-1.84419">
        <ele>118.2</ele>
        <time>2026-08-05T09:23:10Z</time>
      </trkpt>
      <trkpt lat="43.32388" lon="-1.84422">
        <ele>118.2</ele>
        <time>2026-08-05T09:23:11Z</time>
      </trkpt>
      <trkpt lat="43.3239" lon="-1.84424">
        <ele>118.2</ele>
        <time>2026-08-05T09:23:12Z</time>
      </trkpt>
      <trkpt lat="43.32392" lon="-1.84427">
        <ele>118.2</ele>
        <time>2026-08-05T09:23:13Z</time>
      </trkpt>
      <trkpt lat="43.32394" lon="-1.8443">
        <ele>118.2</ele>
        <time>2026-08-05T09:23:14Z</time>
      </trkpt>
      <trkpt lat="43.32397" lon="-1.84433">
        <ele>118.2</ele>
        <time>2026-08-05T09:23:15Z</time>
      </trkpt>
      <trkpt lat="43.324" lon="-1.84435">
        <ele>117.2</ele>
        <time>2026-08-05T09:23:16Z</time>
      </trkpt>
      <trkpt lat="43.32402" lon="-1.84439">
        <ele>117.2</ele>
        <time>2026-08-05T09:23:17Z</time>
      </trkpt>
      <trkpt lat="43.32404" lon="-1.84442">
        <ele>117.2</ele>
        <time>2026-08-05T09:23:18Z</time>
      </trkpt>
      <trkpt lat="43.32405" lon="-1.84445">
        <ele>117.2</ele>
        <time>2026-08-05T09:23:19Z</time>
      </trkpt>
      <trkpt lat="43.32406" lon="-1.84448">
        <ele>116.2</ele>
        <time>2026-08-05T09:23:20Z</time>
      </trkpt>
      <trkpt lat="43.32408" lon="-1.84451">
        <ele>115.2</ele>
        <time>2026-08-05T09:23:21Z</time>
      </trkpt>
      <trkpt lat="43.32409" lon="-1.84455">
        <ele>114.2</ele>
        <time>2026-08-05T09:23:22Z</time>
      </trkpt>
      <trkpt lat="43.32411" lon="-1.84461">
        <ele>113.8</ele>
        <time>2026-08-05T09:23:23Z</time>
      </trkpt>
      <trkpt lat="43.32413" lon="-1.84465">
        <ele>116.4</ele>
        <time>2026-08-05T09:23:24Z</time>
      </trkpt>
      <trkpt lat="43.32416" lon="-1.8447">
        <ele>116.4</ele>
        <time>2026-08-05T09:23:25Z</time>
      </trkpt>
      <trkpt lat="43.32418" lon="-1.84474">
        <ele>116.4</ele>
        <time>2026-08-05T09:23:26Z</time>
      </trkpt>
      <trkpt lat="43.3242" lon="-1.84478">
        <ele>116.4</ele>
        <time>2026-08-05T09:23:27Z</time>
      </trkpt>
      <trkpt lat="43.32422" lon="-1.84484">
        <ele>114.4</ele>
        <time>2026-08-05T09:23:28Z</time>
      </trkpt>
      <trkpt lat="43.32424" lon="-1.84489">
        <ele>113.6</ele>
        <time>2026-08-05T09:23:29Z</time>
      </trkpt>
      <trkpt lat="43.32425" lon="-1.84494">
        <ele>113.6</ele>
        <time>2026-08-05T09:23:30Z</time>
      </trkpt>
      <trkpt lat="43.32427" lon="-1.845">
        <ele>112.6</ele>
        <time>2026-08-05T09:23:31Z</time>
      </trkpt>
      <trkpt lat="43.32429" lon="-1.84505">
        <ele>112.6</ele>
        <time>2026-08-05T09:23:32Z</time>
      </trkpt>
      <trkpt lat="43.3243" lon="-1.84509">
        <ele>112.6</ele>
        <time>2026-08-05T09:23:33Z</time>
      </trkpt>
      <trkpt lat="43.32432" lon="-1.84515">
        <ele>112.6</ele>
        <time>2026-08-05T09:23:34Z</time>
      </trkpt>
      <trkpt lat="43.32435" lon="-1.84519">
        <ele>112.6</ele>
        <time>2026-08-05T09:23:35Z</time>
      </trkpt>
      <trkpt lat="43.32437" lon="-1.84524">
        <ele>112.6</ele>
        <time>2026-08-05T09:23:36Z</time>
      </trkpt>
      <trkpt lat="43.3244" lon="-1.84528">
        <ele>112.6</ele>
        <time>2026-08-05T09:23:37Z</time>
      </trkpt>
      <trkpt lat="43.32442" lon="-1.84532">
        <ele>112.6</ele>
        <time>2026-08-05T09:23:38Z</time>
      </trkpt>
      <trkpt lat="43.32445" lon="-1.84536">
        <ele>112.6</ele>
        <time>2026-08-05T09:23:39Z</time>
      </trkpt>
      <trkpt lat="43.32448" lon="-1.84539">
        <ele>111.6</ele>
        <time>2026-08-05T09:23:40Z</time>
      </trkpt>
      <trkpt lat="43.32452" lon="-1.84544">
        <ele>110.6</ele>
        <time>2026-08-05T09:23:41Z</time>
      </trkpt>
      <trkpt lat="43.32455" lon="-1.84547">
        <ele>110.6</ele>
        <time>2026-08-05T09:23:42Z</time>
      </trkpt>
      <trkpt lat="43.32459" lon="-1.8455">
        <ele>111.2</ele>
        <time>2026-08-05T09:23:43Z</time>
      </trkpt>
      <trkpt lat="43.32462" lon="-1.84553">
        <ele>111</ele>
        <time>2026-08-05T09:23:44Z</time>
      </trkpt>
      <trkpt lat="43.32466" lon="-1.84555">
        <ele>111</ele>
        <time>2026-08-05T09:23:45Z</time>
      </trkpt>
      <trkpt lat="43.3247" lon="-1.84557">
        <ele>111</ele>
        <time>2026-08-05T09:23:46Z</time>
      </trkpt>
      <trkpt lat="43.32474" lon="-1.84557">
        <ele>111.6</ele>
        <time>2026-08-05T09:23:47Z</time>
      </trkpt>
      <trkpt lat="43.32478" lon="-1.84558">
        <ele>111.6</ele>
        <time>2026-08-05T09:23:48Z</time>
      </trkpt>
      <trkpt lat="43.32482" lon="-1.84558">
        <ele>111.6</ele>
        <time>2026-08-05T09:23:49Z</time>
      </trkpt>
      <trkpt lat="43.32485" lon="-1.84558">
        <ele>111.6</ele>
        <time>2026-08-05T09:23:50Z</time>
      </trkpt>
      <trkpt lat="43.32489" lon="-1.84558">
        <ele>111.6</ele>
        <time>2026-08-05T09:23:51Z</time>
      </trkpt>
      <trkpt lat="43.32492" lon="-1.84558">
        <ele>111.6</ele>
        <time>2026-08-05T09:23:52Z</time>
      </trkpt>
      <trkpt lat="43.32496" lon="-1.84558">
        <ele>110.8</ele>
        <time>2026-08-05T09:23:53Z</time>
      </trkpt>
      <trkpt lat="43.32499" lon="-1.84558">
        <ele>110.8</ele>
        <time>2026-08-05T09:23:54Z</time>
      </trkpt>
      <trkpt lat="43.32502" lon="-1.84558">
        <ele>110.8</ele>
        <time>2026-08-05T09:23:55Z</time>
      </trkpt>
      <trkpt lat="43.32505" lon="-1.84557">
        <ele>110.8</ele>
        <time>2026-08-05T09:23:56Z</time>
      </trkpt>
      <trkpt lat="43.32508" lon="-1.84557">
        <ele>110.2</ele>
        <time>2026-08-05T09:23:57Z</time>
      </trkpt>
      <trkpt lat="43.32511" lon="-1.84557">
        <ele>110.2</ele>
        <time>2026-08-05T09:23:58Z</time>
      </trkpt>
      <trkpt lat="43.32512" lon="-1.84557">
        <ele>110.2</ele>
        <time>2026-08-05T09:23:59Z</time>
      </trkpt>
      <trkpt lat="43.32514" lon="-1.84557">
        <ele>110.8</ele>
        <time>2026-08-05T09:24:00Z</time>
      </trkpt>
      <trkpt lat="43.32516" lon="-1.84557">
        <ele>110.8</ele>
        <time>2026-08-05T09:24:01Z</time>
      </trkpt>
      <trkpt lat="43.32518" lon="-1.84557">
        <ele>110.8</ele>
        <time>2026-08-05T09:24:02Z</time>
      </trkpt>
      <trkpt lat="43.3252" lon="-1.84557">
        <ele>110.8</ele>
        <time>2026-08-05T09:24:03Z</time>
      </trkpt>
      <trkpt lat="43.32521" lon="-1.84557">
        <ele>110.8</ele>
        <time>2026-08-05T09:24:04Z</time>
      </trkpt>
      <trkpt lat="43.32522" lon="-1.84556">
        <ele>111.8</ele>
        <time>2026-08-05T09:24:05Z</time>
      </trkpt>
      <trkpt lat="43.32524" lon="-1.84555">
        <ele>112</ele>
        <time>2026-08-05T09:24:06Z</time>
      </trkpt>
      <trkpt lat="43.32525" lon="-1.84554">
        <ele>112.2</ele>
        <time>2026-08-05T09:24:07Z</time>
      </trkpt>
      <trkpt lat="43.32527" lon="-1.84553">
        <ele>112.2</ele>
        <time>2026-08-05T09:24:08Z</time>
      </trkpt>
      <trkpt lat="43.32528" lon="-1.84551">
        <ele>112.2</ele>
        <time>2026-08-05T09:24:09Z</time>
      </trkpt>
      <trkpt lat="43.32529" lon="-1.8455">
        <ele>111.4</ele>
        <time>2026-08-05T09:24:10Z</time>
      </trkpt>
      <trkpt lat="43.32531" lon="-1.84548">
        <ele>111.4</ele>
        <time>2026-08-05T09:24:11Z</time>
      </trkpt>
      <trkpt lat="43.32532" lon="-1.84546">
        <ele>111.4</ele>
        <time>2026-08-05T09:24:12Z</time>
      </trkpt>
      <trkpt lat="43.32533" lon="-1.84544">
        <ele>111.4</ele>
        <time>2026-08-05T09:24:13Z</time>
      </trkpt>
      <trkpt lat="43.32534" lon="-1.84542">
        <ele>111.4</ele>
        <time>2026-08-05T09:24:14Z</time>
      </trkpt>
      <trkpt lat="43.32534" lon="-1.8454">
        <ele>111.4</ele>
        <time>2026-08-05T09:24:15Z</time>
      </trkpt>
      <trkpt lat="43.32536" lon="-1.84538">
        <ele>111.4</ele>
        <time>2026-08-05T09:24:16Z</time>
      </trkpt>
      <trkpt lat="43.32537" lon="-1.84536">
        <ele>111.6</ele>
        <time>2026-08-05T09:24:17Z</time>
      </trkpt>
      <trkpt lat="43.32538" lon="-1.84534">
        <ele>112.6</ele>
        <time>2026-08-05T09:24:18Z</time>
      </trkpt>
      <trkpt lat="43.32539" lon="-1.84533">
        <ele>112.6</ele>
        <time>2026-08-05T09:24:19Z</time>
      </trkpt>
      <trkpt lat="43.3254" lon="-1.84531">
        <ele>112.6</ele>
        <time>2026-08-05T09:24:20Z</time>
      </trkpt>
      <trkpt lat="43.32542" lon="-1.84529">
        <ele>112.6</ele>
        <time>2026-08-05T09:24:21Z</time>
      </trkpt>
      <trkpt lat="43.32543" lon="-1.84527">
        <ele>112.6</ele>
        <time>2026-08-05T09:24:22Z</time>
      </trkpt>
      <trkpt lat="43.32545" lon="-1.84525">
        <ele>112.6</ele>
        <time>2026-08-05T09:24:23Z</time>
      </trkpt>
      <trkpt lat="43.32545" lon="-1.84523">
        <ele>112.6</ele>
        <time>2026-08-05T09:24:24Z</time>
      </trkpt>
      <trkpt lat="43.32547" lon="-1.84521">
        <ele>112.6</ele>
        <time>2026-08-05T09:24:25Z</time>
      </trkpt>
      <trkpt lat="43.32548" lon="-1.84518">
        <ele>112.6</ele>
        <time>2026-08-05T09:24:26Z</time>
      </trkpt>
      <trkpt lat="43.32549" lon="-1.84516">
        <ele>111.6</ele>
        <time>2026-08-05T09:24:27Z</time>
      </trkpt>
      <trkpt lat="43.3255" lon="-1.84514">
        <ele>111.6</ele>
        <time>2026-08-05T09:24:28Z</time>
      </trkpt>
      <trkpt lat="43.32552" lon="-1.84511">
        <ele>111.6</ele>
        <time>2026-08-05T09:24:29Z</time>
      </trkpt>
      <trkpt lat="43.32553" lon="-1.84509">
        <ele>114.6</ele>
        <time>2026-08-05T09:24:30Z</time>
      </trkpt>
      <trkpt lat="43.32555" lon="-1.84507">
        <ele>114.6</ele>
        <time>2026-08-05T09:24:31Z</time>
      </trkpt>
      <trkpt lat="43.32557" lon="-1.84505">
        <ele>114.6</ele>
        <time>2026-08-05T09:24:32Z</time>
      </trkpt>
      <trkpt lat="43.32559" lon="-1.84504">
        <ele>113.8</ele>
        <time>2026-08-05T09:24:33Z</time>
      </trkpt>
      <trkpt lat="43.32561" lon="-1.84502">
        <ele>114</ele>
        <time>2026-08-05T09:24:34Z</time>
      </trkpt>
      <trkpt lat="43.32564" lon="-1.845">
        <ele>114.2</ele>
        <time>2026-08-05T09:24:35Z</time>
      </trkpt>
      <trkpt lat="43.32566" lon="-1.84498">
        <ele>114.8</ele>
        <time>2026-08-05T09:24:36Z</time>
      </trkpt>
      <trkpt lat="43.32568" lon="-1.84497">
        <ele>114.8</ele>
        <time>2026-08-05T09:24:37Z</time>
      </trkpt>
      <trkpt lat="43.3257" lon="-1.84495">
        <ele>114.8</ele>
        <time>2026-08-05T09:24:38Z</time>
      </trkpt>
      <trkpt lat="43.32573" lon="-1.84494">
        <ele>114.8</ele>
        <time>2026-08-05T09:24:39Z</time>
      </trkpt>
      <trkpt lat="43.32575" lon="-1.84492">
        <ele>114.8</ele>
        <time>2026-08-05T09:24:40Z</time>
      </trkpt>
      <trkpt lat="43.32577" lon="-1.84491">
        <ele>114.8</ele>
        <time>2026-08-05T09:24:41Z</time>
      </trkpt>
      <trkpt lat="43.32578" lon="-1.8449">
        <ele>114.8</ele>
        <time>2026-08-05T09:24:42Z</time>
      </trkpt>
      <trkpt lat="43.3258" lon="-1.84489">
        <ele>114.6</ele>
        <time>2026-08-05T09:24:43Z</time>
      </trkpt>
      <trkpt lat="43.32581" lon="-1.84489">
        <ele>114.6</ele>
        <time>2026-08-05T09:24:44Z</time>
      </trkpt>
      <trkpt lat="43.32581" lon="-1.84489">
        <ele>114.6</ele>
        <time>2026-08-05T09:24:45Z</time>
      </trkpt>
      <trkpt lat="43.32589" lon="-1.84488">
        <ele>114.4</ele>
        <time>2026-08-05T09:25:24Z</time>
      </trkpt>
      <trkpt lat="43.32591" lon="-1.84488">
        <ele>114.4</ele>
        <time>2026-08-05T09:25:25Z</time>
      </trkpt>
      <trkpt lat="43.32593" lon="-1.84489">
        <ele>114.4</ele>
        <time>2026-08-05T09:25:26Z</time>
      </trkpt>
      <trkpt lat="43.32594" lon="-1.8449">
        <ele>115.4</ele>
        <time>2026-08-05T09:25:27Z</time>
      </trkpt>
      <trkpt lat="43.32595" lon="-1.84491">
        <ele>115.4</ele>
        <time>2026-08-05T09:25:28Z</time>
      </trkpt>
      <trkpt lat="43.32596" lon="-1.84491">
        <ele>115.4</ele>
        <time>2026-08-05T09:25:29Z</time>
      </trkpt>
      <trkpt lat="43.32597" lon="-1.84491">
        <ele>115.4</ele>
        <time>2026-08-05T09:25:30Z</time>
      </trkpt>
      <trkpt lat="43.32598" lon="-1.84492">
        <ele>115.8</ele>
        <time>2026-08-05T09:25:31Z</time>
      </trkpt>
      <trkpt lat="43.32599" lon="-1.84493">
        <ele>116</ele>
        <time>2026-08-05T09:25:32Z</time>
      </trkpt>
      <trkpt lat="43.326" lon="-1.84494">
        <ele>116</ele>
        <time>2026-08-05T09:25:33Z</time>
      </trkpt>
      <trkpt lat="43.32602" lon="-1.84495">
        <ele>116</ele>
        <time>2026-08-05T09:25:34Z</time>
      </trkpt>
      <trkpt lat="43.32603" lon="-1.84496">
        <ele>116</ele>
        <time>2026-08-05T09:25:35Z</time>
      </trkpt>
      <trkpt lat="43.32604" lon="-1.84497">
        <ele>116</ele>
        <time>2026-08-05T09:25:36Z</time>
      </trkpt>
      <trkpt lat="43.32605" lon="-1.84498">
        <ele>117</ele>
        <time>2026-08-05T09:25:37Z</time>
      </trkpt>
      <trkpt lat="43.32607" lon="-1.84499">
        <ele>117</ele>
        <time>2026-08-05T09:25:38Z</time>
      </trkpt>
      <trkpt lat="43.32608" lon="-1.84501">
        <ele>117</ele>
        <time>2026-08-05T09:25:39Z</time>
      </trkpt>
      <trkpt lat="43.32609" lon="-1.84501">
        <ele>117</ele>
        <time>2026-08-05T09:25:40Z</time>
      </trkpt>
      <trkpt lat="43.3261" lon="-1.84503">
        <ele>117.8</ele>
        <time>2026-08-05T09:25:41Z</time>
      </trkpt>
      <trkpt lat="43.32611" lon="-1.84504">
        <ele>117.8</ele>
        <time>2026-08-05T09:25:42Z</time>
      </trkpt>
      <trkpt lat="43.32612" lon="-1.84506">
        <ele>117.8</ele>
        <time>2026-08-05T09:25:43Z</time>
      </trkpt>
      <trkpt lat="43.32613" lon="-1.84508">
        <ele>117.6</ele>
        <time>2026-08-05T09:25:44Z</time>
      </trkpt>
      <trkpt lat="43.32614" lon="-1.84509">
        <ele>118</ele>
        <time>2026-08-05T09:25:45Z</time>
      </trkpt>
      <trkpt lat="43.32615" lon="-1.84511">
        <ele>118.6</ele>
        <time>2026-08-05T09:25:46Z</time>
      </trkpt>
      <trkpt lat="43.32615" lon="-1.84513">
        <ele>118.8</ele>
        <time>2026-08-05T09:25:47Z</time>
      </trkpt>
      <trkpt lat="43.32616" lon="-1.84515">
        <ele>118.8</ele>
        <time>2026-08-05T09:25:48Z</time>
      </trkpt>
      <trkpt lat="43.32617" lon="-1.84516">
        <ele>118.8</ele>
        <time>2026-08-05T09:25:49Z</time>
      </trkpt>
      <trkpt lat="43.32617" lon="-1.84518">
        <ele>118.8</ele>
        <time>2026-08-05T09:25:50Z</time>
      </trkpt>
      <trkpt lat="43.32618" lon="-1.8452">
        <ele>118.8</ele>
        <time>2026-08-05T09:25:51Z</time>
      </trkpt>
      <trkpt lat="43.32618" lon="-1.84522">
        <ele>118.8</ele>
        <time>2026-08-05T09:25:52Z</time>
      </trkpt>
      <trkpt lat="43.32619" lon="-1.84524">
        <ele>118.8</ele>
        <time>2026-08-05T09:25:53Z</time>
      </trkpt>
      <trkpt lat="43.3262" lon="-1.84527">
        <ele>119.6</ele>
        <time>2026-08-05T09:25:54Z</time>
      </trkpt>
      <trkpt lat="43.3262" lon="-1.84529">
        <ele>119.6</ele>
        <time>2026-08-05T09:25:55Z</time>
      </trkpt>
      <trkpt lat="43.32621" lon="-1.84531">
        <ele>119.6</ele>
        <time>2026-08-05T09:25:56Z</time>
      </trkpt>
      <trkpt lat="43.32621" lon="-1.84533">
        <ele>119.4</ele>
        <time>2026-08-05T09:25:57Z</time>
      </trkpt>
      <trkpt lat="43.32621" lon="-1.84536">
        <ele>119.4</ele>
        <time>2026-08-05T09:25:58Z</time>
      </trkpt>
      <trkpt lat="43.32621" lon="-1.84538">
        <ele>119.4</ele>
        <time>2026-08-05T09:25:59Z</time>
      </trkpt>
      <trkpt lat="43.3262" lon="-1.8454">
        <ele>119.8</ele>
        <time>2026-08-05T09:26:00Z</time>
      </trkpt>
      <trkpt lat="43.3262" lon="-1.84543">
        <ele>119.8</ele>
        <time>2026-08-05T09:26:01Z</time>
      </trkpt>
      <trkpt lat="43.32619" lon="-1.84545">
        <ele>120.8</ele>
        <time>2026-08-05T09:26:02Z</time>
      </trkpt>
      <trkpt lat="43.32619" lon="-1.84547">
        <ele>120.8</ele>
        <time>2026-08-05T09:26:03Z</time>
      </trkpt>
      <trkpt lat="43.32619" lon="-1.84549">
        <ele>121.8</ele>
        <time>2026-08-05T09:26:04Z</time>
      </trkpt>
      <trkpt lat="43.32619" lon="-1.84551">
        <ele>121.8</ele>
        <time>2026-08-05T09:26:05Z</time>
      </trkpt>
      <trkpt lat="43.32619" lon="-1.84553">
        <ele>121.8</ele>
        <time>2026-08-05T09:26:06Z</time>
      </trkpt>
      <trkpt lat="43.32619" lon="-1.84555">
        <ele>120.8</ele>
        <time>2026-08-05T09:26:07Z</time>
      </trkpt>
      <trkpt lat="43.32619" lon="-1.84556">
        <ele>120.8</ele>
        <time>2026-08-05T09:26:08Z</time>
      </trkpt>
      <trkpt lat="43.32619" lon="-1.84558">
        <ele>120.8</ele>
        <time>2026-08-05T09:26:09Z</time>
      </trkpt>
      <trkpt lat="43.32619" lon="-1.8456">
        <ele>121.6</ele>
        <time>2026-08-05T09:26:10Z</time>
      </trkpt>
      <trkpt lat="43.32619" lon="-1.84562">
        <ele>121.6</ele>
        <time>2026-08-05T09:26:11Z</time>
      </trkpt>
      <trkpt lat="43.32619" lon="-1.84563">
        <ele>121.6</ele>
        <time>2026-08-05T09:26:12Z</time>
      </trkpt>
      <trkpt lat="43.32619" lon="-1.84565">
        <ele>121.6</ele>
        <time>2026-08-05T09:26:13Z</time>
      </trkpt>
      <trkpt lat="43.3262" lon="-1.84567">
        <ele>121.6</ele>
        <time>2026-08-05T09:26:14Z</time>
      </trkpt>
      <trkpt lat="43.3262" lon="-1.84569">
        <ele>121.6</ele>
        <time>2026-08-05T09:26:15Z</time>
      </trkpt>
      <trkpt lat="43.32619" lon="-1.8457">
        <ele>121.6</ele>
        <time>2026-08-05T09:26:16Z</time>
      </trkpt>
      <trkpt lat="43.32619" lon="-1.84572">
        <ele>121.6</ele>
        <time>2026-08-05T09:26:17Z</time>
      </trkpt>
      <trkpt lat="43.32619" lon="-1.84574">
        <ele>121.4</ele>
        <time>2026-08-05T09:26:18Z</time>
      </trkpt>
      <trkpt lat="43.32619" lon="-1.84576">
        <ele>121.4</ele>
        <time>2026-08-05T09:26:19Z</time>
      </trkpt>
      <trkpt lat="43.32619" lon="-1.84578">
        <ele>121.4</ele>
        <time>2026-08-05T09:26:20Z</time>
      </trkpt>
      <trkpt lat="43.32619" lon="-1.8458">
        <ele>121.4</ele>
        <time>2026-08-05T09:26:21Z</time>
      </trkpt>
      <trkpt lat="43.32619" lon="-1.84583">
        <ele>121</ele>
        <time>2026-08-05T09:26:22Z</time>
      </trkpt>
      <trkpt lat="43.32619" lon="-1.84585">
        <ele>121</ele>
        <time>2026-08-05T09:26:23Z</time>
      </trkpt>
      <trkpt lat="43.32619" lon="-1.84587">
        <ele>121</ele>
        <time>2026-08-05T09:26:24Z</time>
      </trkpt>
      <trkpt lat="43.3262" lon="-1.8459">
        <ele>121</ele>
        <time>2026-08-05T09:26:25Z</time>
      </trkpt>
      <trkpt lat="43.32621" lon="-1.84593">
        <ele>121</ele>
        <time>2026-08-05T09:26:26Z</time>
      </trkpt>
      <trkpt lat="43.32621" lon="-1.84594">
        <ele>121</ele>
        <time>2026-08-05T09:26:27Z</time>
      </trkpt>
      <trkpt lat="43.32622" lon="-1.84596">
        <ele>121</ele>
        <time>2026-08-05T09:26:28Z</time>
      </trkpt>
      <trkpt lat="43.32623" lon="-1.84598">
        <ele>121</ele>
        <time>2026-08-05T09:26:29Z</time>
      </trkpt>
      <trkpt lat="43.32624" lon="-1.846">
        <ele>121</ele>
        <time>2026-08-05T09:26:30Z</time>
      </trkpt>
      <trkpt lat="43.32624" lon="-1.84603">
        <ele>121</ele>
        <time>2026-08-05T09:26:31Z</time>
      </trkpt>
      <trkpt lat="43.32625" lon="-1.84605">
        <ele>121</ele>
        <time>2026-08-05T09:26:32Z</time>
      </trkpt>
      <trkpt lat="43.32626" lon="-1.84608">
        <ele>121</ele>
        <time>2026-08-05T09:26:33Z</time>
      </trkpt>
      <trkpt lat="43.32626" lon="-1.8461">
        <ele>120</ele>
        <time>2026-08-05T09:26:34Z</time>
      </trkpt>
      <trkpt lat="43.32627" lon="-1.84613">
        <ele>119.2</ele>
        <time>2026-08-05T09:26:35Z</time>
      </trkpt>
      <trkpt lat="43.32627" lon="-1.84615">
        <ele>118.2</ele>
        <time>2026-08-05T09:26:36Z</time>
      </trkpt>
      <trkpt lat="43.32628" lon="-1.84618">
        <ele>118.2</ele>
        <time>2026-08-05T09:26:37Z</time>
      </trkpt>
      <trkpt lat="43.32629" lon="-1.84619">
        <ele>118.2</ele>
        <time>2026-08-05T09:26:38Z</time>
      </trkpt>
      <trkpt lat="43.3263" lon="-1.84622">
        <ele>118.2</ele>
        <time>2026-08-05T09:26:39Z</time>
      </trkpt>
      <trkpt lat="43.32632" lon="-1.84625">
        <ele>118.2</ele>
        <time>2026-08-05T09:26:40Z</time>
      </trkpt>
      <trkpt lat="43.32633" lon="-1.84628">
        <ele>117.2</ele>
        <time>2026-08-05T09:26:41Z</time>
      </trkpt>
      <trkpt lat="43.32634" lon="-1.8463">
        <ele>116.4</ele>
        <time>2026-08-05T09:26:42Z</time>
      </trkpt>
      <trkpt lat="43.32635" lon="-1.84633">
        <ele>116.4</ele>
        <time>2026-08-05T09:26:43Z</time>
      </trkpt>
      <trkpt lat="43.32636" lon="-1.84636">
        <ele>116.4</ele>
        <time>2026-08-05T09:26:44Z</time>
      </trkpt>
      <trkpt lat="43.32637" lon="-1.8464">
        <ele>116.4</ele>
        <time>2026-08-05T09:26:45Z</time>
      </trkpt>
      <trkpt lat="43.32638" lon="-1.84644">
        <ele>116.4</ele>
        <time>2026-08-05T09:26:46Z</time>
      </trkpt>
      <trkpt lat="43.32639" lon="-1.84648">
        <ele>116.4</ele>
        <time>2026-08-05T09:26:47Z</time>
      </trkpt>
      <trkpt lat="43.3264" lon="-1.84651">
        <ele>115.4</ele>
        <time>2026-08-05T09:26:48Z</time>
      </trkpt>
      <trkpt lat="43.3264" lon="-1.84655">
        <ele>115</ele>
        <time>2026-08-05T09:26:49Z</time>
      </trkpt>
      <trkpt lat="43.32641" lon="-1.84659">
        <ele>115</ele>
        <time>2026-08-05T09:26:50Z</time>
      </trkpt>
      <trkpt lat="43.32642" lon="-1.84663">
        <ele>115</ele>
        <time>2026-08-05T09:26:51Z</time>
      </trkpt>
      <trkpt lat="43.32643" lon="-1.84668">
        <ele>115</ele>
        <time>2026-08-05T09:26:52Z</time>
      </trkpt>
      <trkpt lat="43.32645" lon="-1.84672">
        <ele>114</ele>
        <time>2026-08-05T09:26:53Z</time>
      </trkpt>
      <trkpt lat="43.32646" lon="-1.84676">
        <ele>113</ele>
        <time>2026-08-05T09:26:54Z</time>
      </trkpt>
      <trkpt lat="43.32648" lon="-1.8468">
        <ele>113</ele>
        <time>2026-08-05T09:26:55Z</time>
      </trkpt>
      <trkpt lat="43.3265" lon="-1.84683">
        <ele>113</ele>
        <time>2026-08-05T09:26:56Z</time>
      </trkpt>
      <trkpt lat="43.32652" lon="-1.84687">
        <ele>113</ele>
        <time>2026-08-05T09:26:57Z</time>
      </trkpt>
      <trkpt lat="43.32653" lon="-1.8469">
        <ele>113</ele>
        <time>2026-08-05T09:26:58Z</time>
      </trkpt>
      <trkpt lat="43.32655" lon="-1.84694">
        <ele>113</ele>
        <time>2026-08-05T09:26:59Z</time>
      </trkpt>
      <trkpt lat="43.32656" lon="-1.84699">
        <ele>113</ele>
        <time>2026-08-05T09:27:00Z</time>
      </trkpt>
      <trkpt lat="43.32658" lon="-1.84704">
        <ele>113</ele>
        <time>2026-08-05T09:27:01Z</time>
      </trkpt>
      <trkpt lat="43.3266" lon="-1.84708">
        <ele>112</ele>
        <time>2026-08-05T09:27:02Z</time>
      </trkpt>
      <trkpt lat="43.32661" lon="-1.84713">
        <ele>112</ele>
        <time>2026-08-05T09:27:03Z</time>
      </trkpt>
      <trkpt lat="43.32662" lon="-1.84717">
        <ele>112</ele>
        <time>2026-08-05T09:27:04Z</time>
      </trkpt>
      <trkpt lat="43.32664" lon="-1.84721">
        <ele>112</ele>
        <time>2026-08-05T09:27:05Z</time>
      </trkpt>
      <trkpt lat="43.32665" lon="-1.84725">
        <ele>111.2</ele>
        <time>2026-08-05T09:27:06Z</time>
      </trkpt>
      <trkpt lat="43.32666" lon="-1.84728">
        <ele>111.2</ele>
        <time>2026-08-05T09:27:07Z</time>
      </trkpt>
      <trkpt lat="43.32667" lon="-1.84732">
        <ele>111.2</ele>
        <time>2026-08-05T09:27:08Z</time>
      </trkpt>
      <trkpt lat="43.32667" lon="-1.84736">
        <ele>112.2</ele>
        <time>2026-08-05T09:27:09Z</time>
      </trkpt>
      <trkpt lat="43.32668" lon="-1.84741">
        <ele>112.2</ele>
        <time>2026-08-05T09:27:10Z</time>
      </trkpt>
      <trkpt lat="43.3267" lon="-1.84744">
        <ele>112.2</ele>
        <time>2026-08-05T09:27:11Z</time>
      </trkpt>
      <trkpt lat="43.32672" lon="-1.84748">
        <ele>111.2</ele>
        <time>2026-08-05T09:27:12Z</time>
      </trkpt>
      <trkpt lat="43.32675" lon="-1.8475">
        <ele>111.2</ele>
        <time>2026-08-05T09:27:13Z</time>
      </trkpt>
      <trkpt lat="43.32678" lon="-1.84751">
        <ele>111.2</ele>
        <time>2026-08-05T09:27:14Z</time>
      </trkpt>
      <trkpt lat="43.3268" lon="-1.84753">
        <ele>112</ele>
        <time>2026-08-05T09:27:15Z</time>
      </trkpt>
      <trkpt lat="43.32683" lon="-1.84753">
        <ele>112</ele>
        <time>2026-08-05T09:27:16Z</time>
      </trkpt>
      <trkpt lat="43.32685" lon="-1.84753">
        <ele>112</ele>
        <time>2026-08-05T09:27:17Z</time>
      </trkpt>
      <trkpt lat="43.32688" lon="-1.84755">
        <ele>111.2</ele>
        <time>2026-08-05T09:27:18Z</time>
      </trkpt>
      <trkpt lat="43.32691" lon="-1.84756">
        <ele>111.2</ele>
        <time>2026-08-05T09:27:19Z</time>
      </trkpt>
      <trkpt lat="43.32695" lon="-1.84758">
        <ele>112</ele>
        <time>2026-08-05T09:27:20Z</time>
      </trkpt>
      <trkpt lat="43.32698" lon="-1.84759">
        <ele>112</ele>
        <time>2026-08-05T09:27:21Z</time>
      </trkpt>
      <trkpt lat="43.32701" lon="-1.84761">
        <ele>112.2</ele>
        <time>2026-08-05T09:27:22Z</time>
      </trkpt>
      <trkpt lat="43.32704" lon="-1.84762">
        <ele>112.4</ele>
        <time>2026-08-05T09:27:23Z</time>
      </trkpt>
      <trkpt lat="43.32706" lon="-1.84764">
        <ele>112.4</ele>
        <time>2026-08-05T09:27:24Z</time>
      </trkpt>
      <trkpt lat="43.32708" lon="-1.84765">
        <ele>112.4</ele>
        <time>2026-08-05T09:27:25Z</time>
      </trkpt>
      <trkpt lat="43.3271" lon="-1.84766">
        <ele>112.2</ele>
        <time>2026-08-05T09:27:26Z</time>
      </trkpt>
      <trkpt lat="43.32712" lon="-1.84767">
        <ele>112.2</ele>
        <time>2026-08-05T09:27:27Z</time>
      </trkpt>
      <trkpt lat="43.32714" lon="-1.84768">
        <ele>112.4</ele>
        <time>2026-08-05T09:27:28Z</time>
      </trkpt>
      <trkpt lat="43.32717" lon="-1.8477">
        <ele>112.4</ele>
        <time>2026-08-05T09:27:29Z</time>
      </trkpt>
      <trkpt lat="43.32719" lon="-1.84772">
        <ele>112.4</ele>
        <time>2026-08-05T09:27:30Z</time>
      </trkpt>
      <trkpt lat="43.32721" lon="-1.84773">
        <ele>112.4</ele>
        <time>2026-08-05T09:27:31Z</time>
      </trkpt>
      <trkpt lat="43.32723" lon="-1.84775">
        <ele>112.4</ele>
        <time>2026-08-05T09:27:32Z</time>
      </trkpt>
      <trkpt lat="43.32725" lon="-1.84777">
        <ele>112.4</ele>
        <time>2026-08-05T09:27:33Z</time>
      </trkpt>
      <trkpt lat="43.32727" lon="-1.84779">
        <ele>112.4</ele>
        <time>2026-08-05T09:27:34Z</time>
      </trkpt>
      <trkpt lat="43.32729" lon="-1.84781">
        <ele>112.4</ele>
        <time>2026-08-05T09:27:35Z</time>
      </trkpt>
      <trkpt lat="43.3273" lon="-1.84783">
        <ele>112.8</ele>
        <time>2026-08-05T09:27:36Z</time>
      </trkpt>
      <trkpt lat="43.32731" lon="-1.84784">
        <ele>112.8</ele>
        <time>2026-08-05T09:27:37Z</time>
      </trkpt>
      <trkpt lat="43.32732" lon="-1.84786">
        <ele>112.8</ele>
        <time>2026-08-05T09:27:38Z</time>
      </trkpt>
      <trkpt lat="43.32733" lon="-1.84787">
        <ele>112.8</ele>
        <time>2026-08-05T09:27:39Z</time>
      </trkpt>
      <trkpt lat="43.32734" lon="-1.84789">
        <ele>112.8</ele>
        <time>2026-08-05T09:27:40Z</time>
      </trkpt>
      <trkpt lat="43.32735" lon="-1.8479">
        <ele>112.8</ele>
        <time>2026-08-05T09:27:41Z</time>
      </trkpt>
      <trkpt lat="43.32737" lon="-1.84791">
        <ele>112.8</ele>
        <time>2026-08-05T09:27:42Z</time>
      </trkpt>
      <trkpt lat="43.32737" lon="-1.84793">
        <ele>112.8</ele>
        <time>2026-08-05T09:27:43Z</time>
      </trkpt>
      <trkpt lat="43.32737" lon="-1.84794">
        <ele>112.8</ele>
        <time>2026-08-05T09:27:44Z</time>
      </trkpt>
      <trkpt lat="43.32738" lon="-1.84796">
        <ele>113.8</ele>
        <time>2026-08-05T09:27:45Z</time>
      </trkpt>
      <trkpt lat="43.32739" lon="-1.84798">
        <ele>113.8</ele>
        <time>2026-08-05T09:27:46Z</time>
      </trkpt>
      <trkpt lat="43.3274" lon="-1.848">
        <ele>113.8</ele>
        <time>2026-08-05T09:27:47Z</time>
      </trkpt>
      <trkpt lat="43.3274" lon="-1.84801">
        <ele>113.8</ele>
        <time>2026-08-05T09:27:48Z</time>
      </trkpt>
      <trkpt lat="43.32742" lon="-1.84803">
        <ele>113.8</ele>
        <time>2026-08-05T09:27:49Z</time>
      </trkpt>
      <trkpt lat="43.32743" lon="-1.84804">
        <ele>115</ele>
        <time>2026-08-05T09:27:50Z</time>
      </trkpt>
      <trkpt lat="43.32745" lon="-1.84805">
        <ele>115.4</ele>
        <time>2026-08-05T09:27:51Z</time>
      </trkpt>
      <trkpt lat="43.32747" lon="-1.84807">
        <ele>115.8</ele>
        <time>2026-08-05T09:27:52Z</time>
      </trkpt>
      <trkpt lat="43.32748" lon="-1.84808">
        <ele>116.2</ele>
        <time>2026-08-05T09:27:53Z</time>
      </trkpt>
      <trkpt lat="43.32749" lon="-1.8481">
        <ele>116.4</ele>
        <time>2026-08-05T09:27:54Z</time>
      </trkpt>
      <trkpt lat="43.32751" lon="-1.84811">
        <ele>116.6</ele>
        <time>2026-08-05T09:27:55Z</time>
      </trkpt>
      <trkpt lat="43.32753" lon="-1.84813">
        <ele>116.6</ele>
        <time>2026-08-05T09:27:56Z</time>
      </trkpt>
      <trkpt lat="43.32754" lon="-1.84815">
        <ele>117.2</ele>
        <time>2026-08-05T09:27:57Z</time>
      </trkpt>
      <trkpt lat="43.32755" lon="-1.84816">
        <ele>117.2</ele>
        <time>2026-08-05T09:27:58Z</time>
      </trkpt>
      <trkpt lat="43.32756" lon="-1.84819">
        <ele>117.6</ele>
        <time>2026-08-05T09:27:59Z</time>
      </trkpt>
      <trkpt lat="43.32757" lon="-1.84821">
        <ele>118</ele>
        <time>2026-08-05T09:28:00Z</time>
      </trkpt>
      <trkpt lat="43.32758" lon="-1.84824">
        <ele>118</ele>
        <time>2026-08-05T09:28:01Z</time>
      </trkpt>
      <trkpt lat="43.32759" lon="-1.84826">
        <ele>118</ele>
        <time>2026-08-05T09:28:02Z</time>
      </trkpt>
      <trkpt lat="43.32761" lon="-1.84828">
        <ele>118</ele>
        <time>2026-08-05T09:28:03Z</time>
      </trkpt>
      <trkpt lat="43.32762" lon="-1.8483">
        <ele>118</ele>
        <time>2026-08-05T09:28:04Z</time>
      </trkpt>
      <trkpt lat="43.32763" lon="-1.84832">
        <ele>118</ele>
        <time>2026-08-05T09:28:05Z</time>
      </trkpt>
      <trkpt lat="43.32765" lon="-1.84833">
        <ele>118.4</ele>
        <time>2026-08-05T09:28:06Z</time>
      </trkpt>
      <trkpt lat="43.32766" lon="-1.84834">
        <ele>118.4</ele>
        <time>2026-08-05T09:28:07Z</time>
      </trkpt>
      <trkpt lat="43.32768" lon="-1.84836">
        <ele>118.6</ele>
        <time>2026-08-05T09:28:08Z</time>
      </trkpt>
      <trkpt lat="43.32769" lon="-1.84837">
        <ele>118.6</ele>
        <time>2026-08-05T09:28:09Z</time>
      </trkpt>
      <trkpt lat="43.32771" lon="-1.84838">
        <ele>118.6</ele>
        <time>2026-08-05T09:28:10Z</time>
      </trkpt>
      <trkpt lat="43.32772" lon="-1.8484">
        <ele>118.6</ele>
        <time>2026-08-05T09:28:11Z</time>
      </trkpt>
      <trkpt lat="43.32774" lon="-1.84841">
        <ele>118.6</ele>
        <time>2026-08-05T09:28:12Z</time>
      </trkpt>
      <trkpt lat="43.32775" lon="-1.84843">
        <ele>118.6</ele>
        <time>2026-08-05T09:28:13Z</time>
      </trkpt>
      <trkpt lat="43.32776" lon="-1.84844">
        <ele>118.6</ele>
        <time>2026-08-05T09:28:14Z</time>
      </trkpt>
      <trkpt lat="43.32777" lon="-1.84845">
        <ele>118.6</ele>
        <time>2026-08-05T09:28:15Z</time>
      </trkpt>
      <trkpt lat="43.32778" lon="-1.84846">
        <ele>118.8</ele>
        <time>2026-08-05T09:28:16Z</time>
      </trkpt>
      <trkpt lat="43.32779" lon="-1.84847">
        <ele>119</ele>
        <time>2026-08-05T09:28:17Z</time>
      </trkpt>
      <trkpt lat="43.3278" lon="-1.84849">
        <ele>119</ele>
        <time>2026-08-05T09:28:18Z</time>
      </trkpt>
      <trkpt lat="43.32781" lon="-1.8485">
        <ele>118.6</ele>
        <time>2026-08-05T09:28:19Z</time>
      </trkpt>
      <trkpt lat="43.32782" lon="-1.8485">
        <ele>118.6</ele>
        <time>2026-08-05T09:28:20Z</time>
      </trkpt>
      <trkpt lat="43.32783" lon="-1.84851">
        <ele>118.6</ele>
        <time>2026-08-05T09:28:21Z</time>
      </trkpt>
      <trkpt lat="43.32784" lon="-1.84852">
        <ele>118.6</ele>
        <time>2026-08-05T09:28:22Z</time>
      </trkpt>
      <trkpt lat="43.32784" lon="-1.84852">
        <ele>118.6</ele>
        <time>2026-08-05T09:28:23Z</time>
      </trkpt>
      <trkpt lat="43.32786" lon="-1.84854">
        <ele>117.8</ele>
        <time>2026-08-05T09:28:57Z</time>
      </trkpt>
      <trkpt lat="43.32787" lon="-1.84855">
        <ele>117.8</ele>
        <time>2026-08-05T09:28:58Z</time>
      </trkpt>
      <trkpt lat="43.32788" lon="-1.84856">
        <ele>117.8</ele>
        <time>2026-08-05T09:28:59Z</time>
      </trkpt>
      <trkpt lat="43.32788" lon="-1.84857">
        <ele>117.8</ele>
        <time>2026-08-05T09:29:00Z</time>
      </trkpt>
      <trkpt lat="43.32789" lon="-1.84857">
        <ele>117.8</ele>
        <time>2026-08-05T09:29:01Z</time>
      </trkpt>
      <trkpt lat="43.32794" lon="-1.84865">
        <ele>116</ele>
        <time>2026-08-05T09:29:13Z</time>
      </trkpt>
      <trkpt lat="43.32797" lon="-1.84869">
        <ele>116</ele>
        <time>2026-08-05T09:29:14Z</time>
      </trkpt>
      <trkpt lat="43.328" lon="-1.84872">
        <ele>116</ele>
        <time>2026-08-05T09:29:15Z</time>
      </trkpt>
      <trkpt lat="43.32802" lon="-1.84874">
        <ele>116</ele>
        <time>2026-08-05T09:29:16Z</time>
      </trkpt>
      <trkpt lat="43.32805" lon="-1.84877">
        <ele>116</ele>
        <time>2026-08-05T09:29:17Z</time>
      </trkpt>
      <trkpt lat="43.32807" lon="-1.84879">
        <ele>116</ele>
        <time>2026-08-05T09:29:18Z</time>
      </trkpt>
      <trkpt lat="43.32809" lon="-1.84882">
        <ele>114</ele>
        <time>2026-08-05T09:29:19Z</time>
      </trkpt>
      <trkpt lat="43.32812" lon="-1.84884">
        <ele>114</ele>
        <time>2026-08-05T09:29:20Z</time>
      </trkpt>
      <trkpt lat="43.32815" lon="-1.84886">
        <ele>114</ele>
        <time>2026-08-05T09:29:21Z</time>
      </trkpt>
      <trkpt lat="43.32818" lon="-1.84887">
        <ele>114</ele>
        <time>2026-08-05T09:29:22Z</time>
      </trkpt>
      <trkpt lat="43.32822" lon="-1.84888">
        <ele>113</ele>
        <time>2026-08-05T09:29:23Z</time>
      </trkpt>
      <trkpt lat="43.32826" lon="-1.84888">
        <ele>112</ele>
        <time>2026-08-05T09:29:24Z</time>
      </trkpt>
      <trkpt lat="43.3283" lon="-1.84887">
        <ele>111</ele>
        <time>2026-08-05T09:29:25Z</time>
      </trkpt>
      <trkpt lat="43.32834" lon="-1.84885">
        <ele>107.2</ele>
        <time>2026-08-05T09:29:26Z</time>
      </trkpt>
      <trkpt lat="43.32838" lon="-1.84883">
        <ele>107.2</ele>
        <time>2026-08-05T09:29:27Z</time>
      </trkpt>
      <trkpt lat="43.32842" lon="-1.8488">
        <ele>107.2</ele>
        <time>2026-08-05T09:29:28Z</time>
      </trkpt>
      <trkpt lat="43.32847" lon="-1.84876">
        <ele>107.2</ele>
        <time>2026-08-05T09:29:29Z</time>
      </trkpt>
      <trkpt lat="43.32851" lon="-1.84871">
        <ele>108.2</ele>
        <time>2026-08-05T09:29:30Z</time>
      </trkpt>
      <trkpt lat="43.32855" lon="-1.84867">
        <ele>108.2</ele>
        <time>2026-08-05T09:29:31Z</time>
      </trkpt>
      <trkpt lat="43.3286" lon="-1.84863">
        <ele>108.2</ele>
        <time>2026-08-05T09:29:32Z</time>
      </trkpt>
      <trkpt lat="43.32864" lon="-1.84858">
        <ele>107.2</ele>
        <time>2026-08-05T09:29:33Z</time>
      </trkpt>
      <trkpt lat="43.32869" lon="-1.84852">
        <ele>106.2</ele>
        <time>2026-08-05T09:29:34Z</time>
      </trkpt>
      <trkpt lat="43.32873" lon="-1.84847">
        <ele>105.2</ele>
        <time>2026-08-05T09:29:35Z</time>
      </trkpt>
      <trkpt lat="43.32878" lon="-1.8484">
        <ele>102.8</ele>
        <time>2026-08-05T09:29:36Z</time>
      </trkpt>
      <trkpt lat="43.32882" lon="-1.84832">
        <ele>102.8</ele>
        <time>2026-08-05T09:29:37Z</time>
      </trkpt>
      <trkpt lat="43.32887" lon="-1.84823">
        <ele>99.6</ele>
        <time>2026-08-05T09:29:38Z</time>
      </trkpt>
      <trkpt lat="43.32892" lon="-1.84814">
        <ele>99.2</ele>
        <time>2026-08-05T09:29:39Z</time>
      </trkpt>
      <trkpt lat="43.32896" lon="-1.84805">
        <ele>97.4</ele>
        <time>2026-08-05T09:29:40Z</time>
      </trkpt>
      <trkpt lat="43.32901" lon="-1.84796">
        <ele>96.4</ele>
        <time>2026-08-05T09:29:41Z</time>
      </trkpt>
      <trkpt lat="43.32906" lon="-1.84787">
        <ele>96.2</ele>
        <time>2026-08-05T09:29:42Z</time>
      </trkpt>
      <trkpt lat="43.3291" lon="-1.84779">
        <ele>92.8</ele>
        <time>2026-08-05T09:29:43Z</time>
      </trkpt>
      <trkpt lat="43.32915" lon="-1.84771">
        <ele>92.8</ele>
        <time>2026-08-05T09:29:44Z</time>
      </trkpt>
      <trkpt lat="43.3292" lon="-1.84765">
        <ele>92.8</ele>
        <time>2026-08-05T09:29:45Z</time>
      </trkpt>
      <trkpt lat="43.32924" lon="-1.84759">
        <ele>93.8</ele>
        <time>2026-08-05T09:29:46Z</time>
      </trkpt>
      <trkpt lat="43.32929" lon="-1.84756">
        <ele>93.8</ele>
        <time>2026-08-05T09:29:47Z</time>
      </trkpt>
      <trkpt lat="43.32935" lon="-1.84756">
        <ele>94</ele>
        <time>2026-08-05T09:29:48Z</time>
      </trkpt>
      <trkpt lat="43.3294" lon="-1.84757">
        <ele>91.4</ele>
        <time>2026-08-05T09:29:49Z</time>
      </trkpt>
      <trkpt lat="43.32944" lon="-1.84761">
        <ele>89.8</ele>
        <time>2026-08-05T09:29:50Z</time>
      </trkpt>
      <trkpt lat="43.32948" lon="-1.84766">
        <ele>89.8</ele>
        <time>2026-08-05T09:29:51Z</time>
      </trkpt>
      <trkpt lat="43.32953" lon="-1.84773">
        <ele>89.8</ele>
        <time>2026-08-05T09:29:52Z</time>
      </trkpt>
      <trkpt lat="43.32957" lon="-1.84781">
        <ele>89.8</ele>
        <time>2026-08-05T09:29:53Z</time>
      </trkpt>
      <trkpt lat="43.32962" lon="-1.8479">
        <ele>89.8</ele>
        <time>2026-08-05T09:29:54Z</time>
      </trkpt>
      <trkpt lat="43.32966" lon="-1.848">
        <ele>84.4</ele>
        <time>2026-08-05T09:29:55Z</time>
      </trkpt>
      <trkpt lat="43.32971" lon="-1.8481">
        <ele>83.8</ele>
        <time>2026-08-05T09:29:56Z</time>
      </trkpt>
      <trkpt lat="43.32976" lon="-1.84818">
        <ele>82.6</ele>
        <time>2026-08-05T09:29:57Z</time>
      </trkpt>
      <trkpt lat="43.3298" lon="-1.84826">
        <ele>82.4</ele>
        <time>2026-08-05T09:29:58Z</time>
      </trkpt>
      <trkpt lat="43.32984" lon="-1.84834">
        <ele>81.8</ele>
        <time>2026-08-05T09:29:59Z</time>
      </trkpt>
      <trkpt lat="43.32987" lon="-1.84841">
        <ele>81.2</ele>
        <time>2026-08-05T09:30:00Z</time>
      </trkpt>
      <trkpt lat="43.32989" lon="-1.84849">
        <ele>80.4</ele>
        <time>2026-08-05T09:30:01Z</time>
      </trkpt>
      <trkpt lat="43.32989" lon="-1.84858">
        <ele>79.2</ele>
        <time>2026-08-05T09:30:02Z</time>
      </trkpt>
      <trkpt lat="43.32989" lon="-1.84868">
        <ele>78</ele>
        <time>2026-08-05T09:30:03Z</time>
      </trkpt>
      <trkpt lat="43.32989" lon="-1.84878">
        <ele>78</ele>
        <time>2026-08-05T09:30:04Z</time>
      </trkpt>
      <trkpt lat="43.32989" lon="-1.84888">
        <ele>78</ele>
        <time>2026-08-05T09:30:05Z</time>
      </trkpt>
      <trkpt lat="43.32988" lon="-1.84898">
        <ele>78</ele>
        <time>2026-08-05T09:30:06Z</time>
      </trkpt>
      <trkpt lat="43.32987" lon="-1.84908">
        <ele>78.2</ele>
        <time>2026-08-05T09:30:07Z</time>
      </trkpt>
      <trkpt lat="43.32986" lon="-1.84919">
        <ele>78.2</ele>
        <time>2026-08-05T09:30:08Z</time>
      </trkpt>
      <trkpt lat="43.32985" lon="-1.84929">
        <ele>78</ele>
        <time>2026-08-05T09:30:09Z</time>
      </trkpt>
      <trkpt lat="43.32984" lon="-1.84939">
        <ele>78</ele>
        <time>2026-08-05T09:30:10Z</time>
      </trkpt>
      <trkpt lat="43.32984" lon="-1.84949">
        <ele>78</ele>
        <time>2026-08-05T09:30:11Z</time>
      </trkpt>
      <trkpt lat="43.32983" lon="-1.84959">
        <ele>77.2</ele>
        <time>2026-08-05T09:30:12Z</time>
      </trkpt>
      <trkpt lat="43.32982" lon="-1.84969">
        <ele>77.2</ele>
        <time>2026-08-05T09:30:13Z</time>
      </trkpt>
      <trkpt lat="43.32981" lon="-1.8498">
        <ele>77.2</ele>
        <time>2026-08-05T09:30:14Z</time>
      </trkpt>
      <trkpt lat="43.3298" lon="-1.8499">
        <ele>77.2</ele>
        <time>2026-08-05T09:30:15Z</time>
      </trkpt>
      <trkpt lat="43.32979" lon="-1.85">
        <ele>77.2</ele>
        <time>2026-08-05T09:30:16Z</time>
      </trkpt>
      <trkpt lat="43.32978" lon="-1.8501">
        <ele>75.8</ele>
        <time>2026-08-05T09:30:17Z</time>
      </trkpt>
      <trkpt lat="43.32977" lon="-1.8502">
        <ele>75.8</ele>
        <time>2026-08-05T09:30:18Z</time>
      </trkpt>
      <trkpt lat="43.32975" lon="-1.8503">
        <ele>75.8</ele>
        <time>2026-08-05T09:30:19Z</time>
      </trkpt>
      <trkpt lat="43.32971" lon="-1.85039">
        <ele>75.8</ele>
        <time>2026-08-05T09:30:20Z</time>
      </trkpt>
      <trkpt lat="43.32967" lon="-1.85048">
        <ele>74.8</ele>
        <time>2026-08-05T09:30:21Z</time>
      </trkpt>
      <trkpt lat="43.32962" lon="-1.85056">
        <ele>74.2</ele>
        <time>2026-08-05T09:30:22Z</time>
      </trkpt>
      <trkpt lat="43.32957" lon="-1.85064">
        <ele>74.2</ele>
        <time>2026-08-05T09:30:23Z</time>
      </trkpt>
      <trkpt lat="43.32952" lon="-1.85072">
        <ele>74.2</ele>
        <time>2026-08-05T09:30:24Z</time>
      </trkpt>
      <trkpt lat="43.32948" lon="-1.85079">
        <ele>74.2</ele>
        <time>2026-08-05T09:30:25Z</time>
      </trkpt>
      <trkpt lat="43.32945" lon="-1.85087">
        <ele>74.2</ele>
        <time>2026-08-05T09:30:26Z</time>
      </trkpt>
      <trkpt lat="43.32945" lon="-1.85095">
        <ele>74.6</ele>
        <time>2026-08-05T09:30:27Z</time>
      </trkpt>
      <trkpt lat="43.32947" lon="-1.85101">
        <ele>74.6</ele>
        <time>2026-08-05T09:30:28Z</time>
      </trkpt>
      <trkpt lat="43.32949" lon="-1.85106">
        <ele>74.6</ele>
        <time>2026-08-05T09:30:29Z</time>
      </trkpt>
      <trkpt lat="43.32952" lon="-1.85109">
        <ele>74.6</ele>
        <time>2026-08-05T09:30:30Z</time>
      </trkpt>
      <trkpt lat="43.32954" lon="-1.85111">
        <ele>75</ele>
        <time>2026-08-05T09:30:31Z</time>
      </trkpt>
      <trkpt lat="43.32956" lon="-1.85112">
        <ele>75</ele>
        <time>2026-08-05T09:30:32Z</time>
      </trkpt>
      <trkpt lat="43.32958" lon="-1.85113">
        <ele>75.2</ele>
        <time>2026-08-05T09:30:33Z</time>
      </trkpt>
      <trkpt lat="43.32961" lon="-1.85112">
        <ele>75.6</ele>
        <time>2026-08-05T09:30:34Z</time>
      </trkpt>
      <trkpt lat="43.32965" lon="-1.8511">
        <ele>75.6</ele>
        <time>2026-08-05T09:30:35Z</time>
      </trkpt>
      <trkpt lat="43.32969" lon="-1.85109">
        <ele>75.6</ele>
        <time>2026-08-05T09:30:36Z</time>
      </trkpt>
      <trkpt lat="43.32973" lon="-1.85107">
        <ele>75.2</ele>
        <time>2026-08-05T09:30:37Z</time>
      </trkpt>
      <trkpt lat="43.32977" lon="-1.85105">
        <ele>75.2</ele>
        <time>2026-08-05T09:30:38Z</time>
      </trkpt>
      <trkpt lat="43.32981" lon="-1.85104">
        <ele>75.2</ele>
        <time>2026-08-05T09:30:39Z</time>
      </trkpt>
      <trkpt lat="43.32985" lon="-1.85104">
        <ele>75.6</ele>
        <time>2026-08-05T09:30:40Z</time>
      </trkpt>
      <trkpt lat="43.32989" lon="-1.85104">
        <ele>75.6</ele>
        <time>2026-08-05T09:30:41Z</time>
      </trkpt>
      <trkpt lat="43.32993" lon="-1.85105">
        <ele>75.6</ele>
        <time>2026-08-05T09:30:42Z</time>
      </trkpt>
      <trkpt lat="43.32998" lon="-1.85107">
        <ele>75.6</ele>
        <time>2026-08-05T09:30:43Z</time>
      </trkpt>
      <trkpt lat="43.33003" lon="-1.85109">
        <ele>75.6</ele>
        <time>2026-08-05T09:30:44Z</time>
      </trkpt>
      <trkpt lat="43.33007" lon="-1.85111">
        <ele>75.2</ele>
        <time>2026-08-05T09:30:45Z</time>
      </trkpt>
      <trkpt lat="43.33012" lon="-1.85115">
        <ele>74.6</ele>
        <time>2026-08-05T09:30:46Z</time>
      </trkpt>
      <trkpt lat="43.33016" lon="-1.8512">
        <ele>74.6</ele>
        <time>2026-08-05T09:30:47Z</time>
      </trkpt>
      <trkpt lat="43.33019" lon="-1.85126">
        <ele>74.4</ele>
        <time>2026-08-05T09:30:48Z</time>
      </trkpt>
      <trkpt lat="43.33022" lon="-1.85133">
        <ele>74.4</ele>
        <time>2026-08-05T09:30:49Z</time>
      </trkpt>
      <trkpt lat="43.33024" lon="-1.8514">
        <ele>74.4</ele>
        <time>2026-08-05T09:30:50Z</time>
      </trkpt>
      <trkpt lat="43.33026" lon="-1.85148">
        <ele>74.4</ele>
        <time>2026-08-05T09:30:51Z</time>
      </trkpt>
      <trkpt lat="43.33026" lon="-1.85155">
        <ele>74.4</ele>
        <time>2026-08-05T09:30:52Z</time>
      </trkpt>
      <trkpt lat="43.33026" lon="-1.85162">
        <ele>73.8</ele>
        <time>2026-08-05T09:30:53Z</time>
      </trkpt>
      <trkpt lat="43.33025" lon="-1.85169">
        <ele>73.8</ele>
        <time>2026-08-05T09:30:54Z</time>
      </trkpt>
      <trkpt lat="43.33024" lon="-1.85176">
        <ele>73.8</ele>
        <time>2026-08-05T09:30:55Z</time>
      </trkpt>
      <trkpt lat="43.33022" lon="-1.85182">
        <ele>73.8</ele>
        <time>2026-08-05T09:30:56Z</time>
      </trkpt>
      <trkpt lat="43.33019" lon="-1.85188">
        <ele>74</ele>
        <time>2026-08-05T09:30:57Z</time>
      </trkpt>
      <trkpt lat="43.33016" lon="-1.85193">
        <ele>74</ele>
        <time>2026-08-05T09:30:58Z</time>
      </trkpt>
      <trkpt lat="43.33013" lon="-1.85198">
        <ele>74</ele>
        <time>2026-08-05T09:30:59Z</time>
      </trkpt>
      <trkpt lat="43.33009" lon="-1.85202">
        <ele>73.2</ele>
        <time>2026-08-05T09:31:00Z</time>
      </trkpt>
      <trkpt lat="43.33005" lon="-1.85206">
        <ele>73</ele>
        <time>2026-08-05T09:31:01Z</time>
      </trkpt>
      <trkpt lat="43.33001" lon="-1.8521">
        <ele>73</ele>
        <time>2026-08-05T09:31:02Z</time>
      </trkpt>
      <trkpt lat="43.32998" lon="-1.85214">
        <ele>73</ele>
        <time>2026-08-05T09:31:03Z</time>
      </trkpt>
      <trkpt lat="43.32996" lon="-1.85218">
        <ele>73.2</ele>
        <time>2026-08-05T09:31:04Z</time>
      </trkpt>
      <trkpt lat="43.32994" lon="-1.85222">
        <ele>73.4</ele>
        <time>2026-08-05T09:31:05Z</time>
      </trkpt>
      <trkpt lat="43.32993" lon="-1.85225">
        <ele>73.4</ele>
        <time>2026-08-05T09:31:06Z</time>
      </trkpt>
      <trkpt lat="43.32992" lon="-1.85226">
        <ele>73.4</ele>
        <time>2026-08-05T09:31:07Z</time>
      </trkpt>
      <trkpt lat="43.32992" lon="-1.85226">
        <ele>73.2</ele>
        <time>2026-08-05T09:31:08Z</time>
      </trkpt>
      <trkpt lat="43.3299" lon="-1.85233">
        <ele>72.4</ele>
        <time>2026-08-05T09:31:45Z</time>
      </trkpt>
      <trkpt lat="43.3299" lon="-1.85236">
        <ele>72.4</ele>
        <time>2026-08-05T09:31:46Z</time>
      </trkpt>
      <trkpt lat="43.32989" lon="-1.8524">
        <ele>72.4</ele>
        <time>2026-08-05T09:31:47Z</time>
      </trkpt>
      <trkpt lat="43.32988" lon="-1.85245">
        <ele>72.4</ele>
        <time>2026-08-05T09:31:48Z</time>
      </trkpt>
      <trkpt lat="43.32988" lon="-1.8525">
        <ele>72.4</ele>
        <time>2026-08-05T09:31:49Z</time>
      </trkpt>
      <trkpt lat="43.32988" lon="-1.85256">
        <ele>71.2</ele>
        <time>2026-08-05T09:31:50Z</time>
      </trkpt>
      <trkpt lat="43.32987" lon="-1.85262">
        <ele>70.6</ele>
        <time>2026-08-05T09:31:51Z</time>
      </trkpt>
      <trkpt lat="43.32987" lon="-1.85268">
        <ele>70.4</ele>
        <time>2026-08-05T09:31:52Z</time>
      </trkpt>
      <trkpt lat="43.32987" lon="-1.85275">
        <ele>69.6</ele>
        <time>2026-08-05T09:31:53Z</time>
      </trkpt>
      <trkpt lat="43.32987" lon="-1.85283">
        <ele>69.4</ele>
        <time>2026-08-05T09:31:54Z</time>
      </trkpt>
      <trkpt lat="43.32987" lon="-1.85291">
        <ele>69.2</ele>
        <time>2026-08-05T09:31:55Z</time>
      </trkpt>
      <trkpt lat="43.32986" lon="-1.85299">
        <ele>68</ele>
        <time>2026-08-05T09:31:56Z</time>
      </trkpt>
      <trkpt lat="43.32986" lon="-1.85307">
        <ele>67</ele>
        <time>2026-08-05T09:31:57Z</time>
      </trkpt>
      <trkpt lat="43.32985" lon="-1.85316">
        <ele>66.8</ele>
        <time>2026-08-05T09:31:58Z</time>
      </trkpt>
      <trkpt lat="43.32984" lon="-1.85325">
        <ele>65.6</ele>
        <time>2026-08-05T09:31:59Z</time>
      </trkpt>
      <trkpt lat="43.32983" lon="-1.85334">
        <ele>64.4</ele>
        <time>2026-08-05T09:32:00Z</time>
      </trkpt>
      <trkpt lat="43.3298" lon="-1.85344">
        <ele>64.4</ele>
        <time>2026-08-05T09:32:01Z</time>
      </trkpt>
      <trkpt lat="43.32977" lon="-1.85354">
        <ele>62.6</ele>
        <time>2026-08-05T09:32:02Z</time>
      </trkpt>
      <trkpt lat="43.32973" lon="-1.85364">
        <ele>61.4</ele>
        <time>2026-08-05T09:32:03Z</time>
      </trkpt>
      <trkpt lat="43.32969" lon="-1.85374">
        <ele>60.2</ele>
        <time>2026-08-05T09:32:04Z</time>
      </trkpt>
      <trkpt lat="43.32963" lon="-1.85384">
        <ele>58</ele>
        <time>2026-08-05T09:32:05Z</time>
      </trkpt>
      <trkpt lat="43.32957" lon="-1.85394">
        <ele>58</ele>
        <time>2026-08-05T09:32:06Z</time>
      </trkpt>
      <trkpt lat="43.3295" lon="-1.85405">
        <ele>58</ele>
        <time>2026-08-05T09:32:07Z</time>
      </trkpt>
      <trkpt lat="43.32943" lon="-1.85415">
        <ele>58</ele>
        <time>2026-08-05T09:32:08Z</time>
      </trkpt>
      <trkpt lat="43.32935" lon="-1.85426">
        <ele>58</ele>
        <time>2026-08-05T09:32:09Z</time>
      </trkpt>
      <trkpt lat="43.32927" lon="-1.85436">
        <ele>54.8</ele>
        <time>2026-08-05T09:32:10Z</time>
      </trkpt>
      <trkpt lat="43.3292" lon="-1.85447">
        <ele>54.4</ele>
        <time>2026-08-05T09:32:11Z</time>
      </trkpt>
      <trkpt lat="43.32912" lon="-1.85458">
        <ele>54.4</ele>
        <time>2026-08-05T09:32:12Z</time>
      </trkpt>
      <trkpt lat="43.32905" lon="-1.85469">
        <ele>54.4</ele>
        <time>2026-08-05T09:32:13Z</time>
      </trkpt>
      <trkpt lat="43.329" lon="-1.8548">
        <ele>56</ele>
        <time>2026-08-05T09:32:14Z</time>
      </trkpt>
      <trkpt lat="43.32895" lon="-1.85492">
        <ele>56</ele>
        <time>2026-08-05T09:32:15Z</time>
      </trkpt>
      <trkpt lat="43.3289" lon="-1.85503">
        <ele>56</ele>
        <time>2026-08-05T09:32:16Z</time>
      </trkpt>
      <trkpt lat="43.32885" lon="-1.85513">
        <ele>56</ele>
        <time>2026-08-05T09:32:17Z</time>
      </trkpt>
      <trkpt lat="43.32881" lon="-1.85523">
        <ele>57.4</ele>
        <time>2026-08-05T09:32:18Z</time>
      </trkpt>
      <trkpt lat="43.32878" lon="-1.85533">
        <ele>58</ele>
        <time>2026-08-05T09:32:19Z</time>
      </trkpt>
      <trkpt lat="43.32874" lon="-1.85543">
        <ele>58.8</ele>
        <time>2026-08-05T09:32:20Z</time>
      </trkpt>
      <trkpt lat="43.32872" lon="-1.85553">
        <ele>59.8</ele>
        <time>2026-08-05T09:32:21Z</time>
      </trkpt>
      <trkpt lat="43.32869" lon="-1.85563">
        <ele>60</ele>
        <time>2026-08-05T09:32:22Z</time>
      </trkpt>
      <trkpt lat="43.32867" lon="-1.85573">
        <ele>60.2</ele>
        <time>2026-08-05T09:32:23Z</time>
      </trkpt>
      <trkpt lat="43.32865" lon="-1.85583">
        <ele>60.8</ele>
        <time>2026-08-05T09:32:24Z</time>
      </trkpt>
      <trkpt lat="43.32864" lon="-1.85593">
        <ele>61.2</ele>
        <time>2026-08-05T09:32:25Z</time>
      </trkpt>
      <trkpt lat="43.32863" lon="-1.85603">
        <ele>61.2</ele>
        <time>2026-08-05T09:32:26Z</time>
      </trkpt>
      <trkpt lat="43.32862" lon="-1.85613">
        <ele>61.2</ele>
        <time>2026-08-05T09:32:27Z</time>
      </trkpt>
      <trkpt lat="43.32861" lon="-1.85622">
        <ele>61.2</ele>
        <time>2026-08-05T09:32:28Z</time>
      </trkpt>
      <trkpt lat="43.3286" lon="-1.85631">
        <ele>61.2</ele>
        <time>2026-08-05T09:32:29Z</time>
      </trkpt>
      <trkpt lat="43.3286" lon="-1.8564">
        <ele>62.4</ele>
        <time>2026-08-05T09:32:30Z</time>
      </trkpt>
      <trkpt lat="43.32859" lon="-1.85648">
        <ele>62.4</ele>
        <time>2026-08-05T09:32:31Z</time>
      </trkpt>
      <trkpt lat="43.32858" lon="-1.85656">
        <ele>62.4</ele>
        <time>2026-08-05T09:32:32Z</time>
      </trkpt>
      <trkpt lat="43.32857" lon="-1.85664">
        <ele>62.4</ele>
        <time>2026-08-05T09:32:33Z</time>
      </trkpt>
      <trkpt lat="43.32857" lon="-1.85672">
        <ele>62.4</ele>
        <time>2026-08-05T09:32:34Z</time>
      </trkpt>
      <trkpt lat="43.32856" lon="-1.85681">
        <ele>62.6</ele>
        <time>2026-08-05T09:32:35Z</time>
      </trkpt>
      <trkpt lat="43.32856" lon="-1.85689">
        <ele>62.6</ele>
        <time>2026-08-05T09:32:36Z</time>
      </trkpt>
      <trkpt lat="43.32856" lon="-1.85697">
        <ele>62.6</ele>
        <time>2026-08-05T09:32:37Z</time>
      </trkpt>
      <trkpt lat="43.32856" lon="-1.85705">
        <ele>62.6</ele>
        <time>2026-08-05T09:32:38Z</time>
      </trkpt>
      <trkpt lat="43.32856" lon="-1.85713">
        <ele>62</ele>
        <time>2026-08-05T09:32:39Z</time>
      </trkpt>
      <trkpt lat="43.32856" lon="-1.85722">
        <ele>62</ele>
        <time>2026-08-05T09:32:40Z</time>
      </trkpt>
      <trkpt lat="43.32857" lon="-1.8573">
        <ele>62</ele>
        <time>2026-08-05T09:32:41Z</time>
      </trkpt>
      <trkpt lat="43.32857" lon="-1.85739">
        <ele>62</ele>
        <time>2026-08-05T09:32:42Z</time>
      </trkpt>
      <trkpt lat="43.32858" lon="-1.85748">
        <ele>61.6</ele>
        <time>2026-08-05T09:32:43Z</time>
      </trkpt>
      <trkpt lat="43.32858" lon="-1.85757">
        <ele>61</ele>
        <time>2026-08-05T09:32:44Z</time>
      </trkpt>
      <trkpt lat="43.32858" lon="-1.85766">
        <ele>61</ele>
        <time>2026-08-05T09:32:45Z</time>
      </trkpt>
      <trkpt lat="43.32858" lon="-1.85775">
        <ele>61</ele>
        <time>2026-08-05T09:32:46Z</time>
      </trkpt>
      <trkpt lat="43.32859" lon="-1.85783">
        <ele>61.4</ele>
        <time>2026-08-05T09:32:47Z</time>
      </trkpt>
      <trkpt lat="43.32859" lon="-1.85792">
        <ele>61.4</ele>
        <time>2026-08-05T09:32:48Z</time>
      </trkpt>
      <trkpt lat="43.32859" lon="-1.858">
        <ele>61.8</ele>
        <time>2026-08-05T09:32:49Z</time>
      </trkpt>
      <trkpt lat="43.32859" lon="-1.85808">
        <ele>61.8</ele>
        <time>2026-08-05T09:32:50Z</time>
      </trkpt>
      <trkpt lat="43.3286" lon="-1.85816">
        <ele>61.8</ele>
        <time>2026-08-05T09:32:51Z</time>
      </trkpt>
      <trkpt lat="43.3286" lon="-1.85825">
        <ele>61.8</ele>
        <time>2026-08-05T09:32:52Z</time>
      </trkpt>
      <trkpt lat="43.3286" lon="-1.85833">
        <ele>61.4</ele>
        <time>2026-08-05T09:32:53Z</time>
      </trkpt>
      <trkpt lat="43.32861" lon="-1.85841">
        <ele>61.4</ele>
        <time>2026-08-05T09:32:54Z</time>
      </trkpt>
      <trkpt lat="43.32861" lon="-1.85849">
        <ele>60.4</ele>
        <time>2026-08-05T09:32:55Z</time>
      </trkpt>
      <trkpt lat="43.32862" lon="-1.85857">
        <ele>60.4</ele>
        <time>2026-08-05T09:32:56Z</time>
      </trkpt>
      <trkpt lat="43.32862" lon="-1.85865">
        <ele>61.6</ele>
        <time>2026-08-05T09:32:57Z</time>
      </trkpt>
      <trkpt lat="43.32862" lon="-1.85874">
        <ele>61.8</ele>
        <time>2026-08-05T09:32:58Z</time>
      </trkpt>
      <trkpt lat="43.32862" lon="-1.85882">
        <ele>61.8</ele>
        <time>2026-08-05T09:32:59Z</time>
      </trkpt>
      <trkpt lat="43.32862" lon="-1.8589">
        <ele>61.8</ele>
        <time>2026-08-05T09:33:00Z</time>
      </trkpt>
      <trkpt lat="43.32862" lon="-1.85898">
        <ele>61.8</ele>
        <time>2026-08-05T09:33:01Z</time>
      </trkpt>
      <trkpt lat="43.32862" lon="-1.85905">
        <ele>62.2</ele>
        <time>2026-08-05T09:33:02Z</time>
      </trkpt>
      <trkpt lat="43.32861" lon="-1.85913">
        <ele>62.2</ele>
        <time>2026-08-05T09:33:03Z</time>
      </trkpt>
      <trkpt lat="43.32861" lon="-1.8592">
        <ele>62.2</ele>
        <time>2026-08-05T09:33:04Z</time>
      </trkpt>
      <trkpt lat="43.32861" lon="-1.85927">
        <ele>62.2</ele>
        <time>2026-08-05T09:33:05Z</time>
      </trkpt>
      <trkpt lat="43.32861" lon="-1.85934">
        <ele>62.2</ele>
        <time>2026-08-05T09:33:06Z</time>
      </trkpt>
      <trkpt lat="43.32861" lon="-1.85941">
        <ele>63</ele>
        <time>2026-08-05T09:33:07Z</time>
      </trkpt>
      <trkpt lat="43.32861" lon="-1.85948">
        <ele>63</ele>
        <time>2026-08-05T09:33:08Z</time>
      </trkpt>
      <trkpt lat="43.3286" lon="-1.85954">
        <ele>63</ele>
        <time>2026-08-05T09:33:09Z</time>
      </trkpt>
      <trkpt lat="43.32859" lon="-1.85961">
        <ele>63</ele>
        <time>2026-08-05T09:33:10Z</time>
      </trkpt>
      <trkpt lat="43.32859" lon="-1.85967">
        <ele>63</ele>
        <time>2026-08-05T09:33:11Z</time>
      </trkpt>
      <trkpt lat="43.32859" lon="-1.85974">
        <ele>63.8</ele>
        <time>2026-08-05T09:33:12Z</time>
      </trkpt>
      <trkpt lat="43.32859" lon="-1.8598">
        <ele>63.8</ele>
        <time>2026-08-05T09:33:13Z</time>
      </trkpt>
      <trkpt lat="43.32859" lon="-1.85986">
        <ele>63.8</ele>
        <time>2026-08-05T09:33:14Z</time>
      </trkpt>
      <trkpt lat="43.32858" lon="-1.85993">
        <ele>63.8</ele>
        <time>2026-08-05T09:33:15Z</time>
      </trkpt>
      <trkpt lat="43.32858" lon="-1.85999">
        <ele>64</ele>
        <time>2026-08-05T09:33:16Z</time>
      </trkpt>
      <trkpt lat="43.32857" lon="-1.86005">
        <ele>64</ele>
        <time>2026-08-05T09:33:17Z</time>
      </trkpt>
      <trkpt lat="43.32857" lon="-1.86011">
        <ele>64</ele>
        <time>2026-08-05T09:33:18Z</time>
      </trkpt>
      <trkpt lat="43.32856" lon="-1.86017">
        <ele>65</ele>
        <time>2026-08-05T09:33:19Z</time>
      </trkpt>
      <trkpt lat="43.32856" lon="-1.86023">
        <ele>65</ele>
        <time>2026-08-05T09:33:20Z</time>
      </trkpt>
      <trkpt lat="43.32855" lon="-1.86028">
        <ele>65.2</ele>
        <time>2026-08-05T09:33:21Z</time>
      </trkpt>
      <trkpt lat="43.32854" lon="-1.86033">
        <ele>65.2</ele>
        <time>2026-08-05T09:33:22Z</time>
      </trkpt>
      <trkpt lat="43.32854" lon="-1.86038">
        <ele>65.2</ele>
        <time>2026-08-05T09:33:23Z</time>
      </trkpt>
      <trkpt lat="43.32853" lon="-1.86043">
        <ele>65.2</ele>
        <time>2026-08-05T09:33:24Z</time>
      </trkpt>
      <trkpt lat="43.32853" lon="-1.86048">
        <ele>65.6</ele>
        <time>2026-08-05T09:33:25Z</time>
      </trkpt>
      <trkpt lat="43.32852" lon="-1.86053">
        <ele>66</ele>
        <time>2026-08-05T09:33:26Z</time>
      </trkpt>
      <trkpt lat="43.32852" lon="-1.86058">
        <ele>66</ele>
        <time>2026-08-05T09:33:27Z</time>
      </trkpt>
      <trkpt lat="43.32852" lon="-1.86062">
        <ele>66</ele>
        <time>2026-08-05T09:33:28Z</time>
      </trkpt>
      <trkpt lat="43.32851" lon="-1.86067">
        <ele>66</ele>
        <time>2026-08-05T09:33:29Z</time>
      </trkpt>
      <trkpt lat="43.32851" lon="-1.8607">
        <ele>65.8</ele>
        <time>2026-08-05T09:33:30Z</time>
      </trkpt>
      <trkpt lat="43.3285" lon="-1.86073">
        <ele>65.8</ele>
        <time>2026-08-05T09:33:31Z</time>
      </trkpt>
      <trkpt lat="43.3285" lon="-1.86076">
        <ele>66.4</ele>
        <time>2026-08-05T09:33:32Z</time>
      </trkpt>
      <trkpt lat="43.3285" lon="-1.86078">
        <ele>66.4</ele>
        <time>2026-08-05T09:33:33Z</time>
      </trkpt>
      <trkpt lat="43.3285" lon="-1.86078">
        <ele>66.4</ele>
        <time>2026-08-05T09:33:34Z</time>
      </trkpt>
      <trkpt lat="43.3285" lon="-1.86078">
        <ele>66.4</ele>
        <time>2026-08-05T09:33:35Z</time>
      </trkpt>
      <trkpt lat="43.32848" lon="-1.86091">
        <ele>66.2</ele>
        <time>2026-08-05T09:34:58Z</time>
      </trkpt>
      <trkpt lat="43.32847" lon="-1.86096">
        <ele>66.2</ele>
        <time>2026-08-05T09:34:59Z</time>
      </trkpt>
      <trkpt lat="43.32847" lon="-1.86102">
        <ele>65.6</ele>
        <time>2026-08-05T09:35:00Z</time>
      </trkpt>
      <trkpt lat="43.32845" lon="-1.86108">
        <ele>65.4</ele>
        <time>2026-08-05T09:35:01Z</time>
      </trkpt>
      <trkpt lat="43.32845" lon="-1.86114">
        <ele>65.4</ele>
        <time>2026-08-05T09:35:02Z</time>
      </trkpt>
      <trkpt lat="43.32844" lon="-1.86121">
        <ele>65.4</ele>
        <time>2026-08-05T09:35:03Z</time>
      </trkpt>
      <trkpt lat="43.32843" lon="-1.86127">
        <ele>65.4</ele>
        <time>2026-08-05T09:35:04Z</time>
      </trkpt>
      <trkpt lat="43.32842" lon="-1.86133">
        <ele>64</ele>
        <time>2026-08-05T09:35:05Z</time>
      </trkpt>
      <trkpt lat="43.32841" lon="-1.8614">
        <ele>64</ele>
        <time>2026-08-05T09:35:06Z</time>
      </trkpt>
      <trkpt lat="43.3284" lon="-1.86146">
        <ele>64</ele>
        <time>2026-08-05T09:35:07Z</time>
      </trkpt>
      <trkpt lat="43.3284" lon="-1.86154">
        <ele>64.2</ele>
        <time>2026-08-05T09:35:08Z</time>
      </trkpt>
      <trkpt lat="43.32839" lon="-1.86161">
        <ele>64.2</ele>
        <time>2026-08-05T09:35:09Z</time>
      </trkpt>
      <trkpt lat="43.32838" lon="-1.86168">
        <ele>64.2</ele>
        <time>2026-08-05T09:35:10Z</time>
      </trkpt>
      <trkpt lat="43.32838" lon="-1.86176">
        <ele>63.6</ele>
        <time>2026-08-05T09:35:11Z</time>
      </trkpt>
      <trkpt lat="43.32837" lon="-1.86184">
        <ele>62.8</ele>
        <time>2026-08-05T09:35:12Z</time>
      </trkpt>
      <trkpt lat="43.32836" lon="-1.86191">
        <ele>62.8</ele>
        <time>2026-08-05T09:35:13Z</time>
      </trkpt>
      <trkpt lat="43.32836" lon="-1.862">
        <ele>62.8</ele>
        <time>2026-08-05T09:35:14Z</time>
      </trkpt>
      <trkpt lat="43.32835" lon="-1.86208">
        <ele>62.8</ele>
        <time>2026-08-05T09:35:15Z</time>
      </trkpt>
      <trkpt lat="43.32834" lon="-1.86216">
        <ele>62.2</ele>
        <time>2026-08-05T09:35:16Z</time>
      </trkpt>
      <trkpt lat="43.32833" lon="-1.86224">
        <ele>62.2</ele>
        <time>2026-08-05T09:35:17Z</time>
      </trkpt>
      <trkpt lat="43.32833" lon="-1.86232">
        <ele>61.6</ele>
        <time>2026-08-05T09:35:18Z</time>
      </trkpt>
      <trkpt lat="43.32832" lon="-1.8624">
        <ele>61.6</ele>
        <time>2026-08-05T09:35:19Z</time>
      </trkpt>
      <trkpt lat="43.32831" lon="-1.86248">
        <ele>61.6</ele>
        <time>2026-08-05T09:35:20Z</time>
      </trkpt>
      <trkpt lat="43.3283" lon="-1.86256">
        <ele>61.6</ele>
        <time>2026-08-05T09:35:21Z</time>
      </trkpt>
      <trkpt lat="43.32829" lon="-1.86264">
        <ele>60.6</ele>
        <time>2026-08-05T09:35:22Z</time>
      </trkpt>
      <trkpt lat="43.32829" lon="-1.86273">
        <ele>60.6</ele>
        <time>2026-08-05T09:35:23Z</time>
      </trkpt>
      <trkpt lat="43.32828" lon="-1.86282">
        <ele>60.6</ele>
        <time>2026-08-05T09:35:24Z</time>
      </trkpt>
      <trkpt lat="43.32827" lon="-1.86291">
        <ele>60.6</ele>
        <time>2026-08-05T09:35:25Z</time>
      </trkpt>
      <trkpt lat="43.32826" lon="-1.863">
        <ele>59.6</ele>
        <time>2026-08-05T09:35:26Z</time>
      </trkpt>
      <trkpt lat="43.32825" lon="-1.8631">
        <ele>59.6</ele>
        <time>2026-08-05T09:35:27Z</time>
      </trkpt>
      <trkpt lat="43.32824" lon="-1.86319">
        <ele>59.6</ele>
        <time>2026-08-05T09:35:28Z</time>
      </trkpt>
      <trkpt lat="43.32823" lon="-1.86329">
        <ele>59.6</ele>
        <time>2026-08-05T09:35:29Z</time>
      </trkpt>
      <trkpt lat="43.32822" lon="-1.86339">
        <ele>58.2</ele>
        <time>2026-08-05T09:35:30Z</time>
      </trkpt>
      <trkpt lat="43.32821" lon="-1.86349">
        <ele>58</ele>
        <time>2026-08-05T09:35:31Z</time>
      </trkpt>
      <trkpt lat="43.3282" lon="-1.86358">
        <ele>57.2</ele>
        <time>2026-08-05T09:35:32Z</time>
      </trkpt>
      <trkpt lat="43.3282" lon="-1.86367">
        <ele>57.2</ele>
        <time>2026-08-05T09:35:33Z</time>
      </trkpt>
      <trkpt lat="43.32818" lon="-1.86376">
        <ele>57.2</ele>
        <time>2026-08-05T09:35:34Z</time>
      </trkpt>
      <trkpt lat="43.32817" lon="-1.86386">
        <ele>57.2</ele>
        <time>2026-08-05T09:35:35Z</time>
      </trkpt>
      <trkpt lat="43.32816" lon="-1.86396">
        <ele>57.2</ele>
        <time>2026-08-05T09:35:36Z</time>
      </trkpt>
      <trkpt lat="43.32815" lon="-1.86407">
        <ele>56</ele>
        <time>2026-08-05T09:35:37Z</time>
      </trkpt>
      <trkpt lat="43.32814" lon="-1.86418">
        <ele>55.6</ele>
        <time>2026-08-05T09:35:38Z</time>
      </trkpt>
      <trkpt lat="43.32812" lon="-1.86428">
        <ele>55.6</ele>
        <time>2026-08-05T09:35:39Z</time>
      </trkpt>
      <trkpt lat="43.32811" lon="-1.86439">
        <ele>55.6</ele>
        <time>2026-08-05T09:35:40Z</time>
      </trkpt>
      <trkpt lat="43.32809" lon="-1.86449">
        <ele>55.6</ele>
        <time>2026-08-05T09:35:41Z</time>
      </trkpt>
      <trkpt lat="43.32808" lon="-1.8646">
        <ele>55.2</ele>
        <time>2026-08-05T09:35:42Z</time>
      </trkpt>
      <trkpt lat="43.32805" lon="-1.86471">
        <ele>54.6</ele>
        <time>2026-08-05T09:35:43Z</time>
      </trkpt>
      <trkpt lat="43.32803" lon="-1.86482">
        <ele>54.6</ele>
        <time>2026-08-05T09:35:44Z</time>
      </trkpt>
      <trkpt lat="43.32801" lon="-1.86493">
        <ele>54.6</ele>
        <time>2026-08-05T09:35:45Z</time>
      </trkpt>
      <trkpt lat="43.32798" lon="-1.86504">
        <ele>54.6</ele>
        <time>2026-08-05T09:35:46Z</time>
      </trkpt>
      <trkpt lat="43.32795" lon="-1.86515">
        <ele>53.8</ele>
        <time>2026-08-05T09:35:47Z</time>
      </trkpt>
      <trkpt lat="43.32792" lon="-1.86526">
        <ele>52.8</ele>
        <time>2026-08-05T09:35:48Z</time>
      </trkpt>
      <trkpt lat="43.32789" lon="-1.86536">
        <ele>52.8</ele>
        <time>2026-08-05T09:35:49Z</time>
      </trkpt>
      <trkpt lat="43.32786" lon="-1.86547">
        <ele>52.8</ele>
        <time>2026-08-05T09:35:50Z</time>
      </trkpt>
      <trkpt lat="43.32782" lon="-1.86557">
        <ele>52.8</ele>
        <time>2026-08-05T09:35:51Z</time>
      </trkpt>
      <trkpt lat="43.32779" lon="-1.86567">
        <ele>52.8</ele>
        <time>2026-08-05T09:35:52Z</time>
      </trkpt>
      <trkpt lat="43.32775" lon="-1.86578">
        <ele>53</ele>
        <time>2026-08-05T09:35:53Z</time>
      </trkpt>
      <trkpt lat="43.32771" lon="-1.86588">
        <ele>52.8</ele>
        <time>2026-08-05T09:35:54Z</time>
      </trkpt>
      <trkpt lat="43.32768" lon="-1.86598">
        <ele>51.8</ele>
        <time>2026-08-05T09:35:55Z</time>
      </trkpt>
      <trkpt lat="43.32764" lon="-1.86608">
        <ele>51.4</ele>
        <time>2026-08-05T09:35:56Z</time>
      </trkpt>
      <trkpt lat="43.32761" lon="-1.86618">
        <ele>51.2</ele>
        <time>2026-08-05T09:35:57Z</time>
      </trkpt>
      <trkpt lat="43.32757" lon="-1.86628">
        <ele>51.2</ele>
        <time>2026-08-05T09:35:58Z</time>
      </trkpt>
      <trkpt lat="43.32754" lon="-1.86638">
        <ele>51.2</ele>
        <time>2026-08-05T09:35:59Z</time>
      </trkpt>
      <trkpt lat="43.3275" lon="-1.86649">
        <ele>51.2</ele>
        <time>2026-08-05T09:36:00Z</time>
      </trkpt>
      <trkpt lat="43.32747" lon="-1.86659">
        <ele>50.2</ele>
        <time>2026-08-05T09:36:01Z</time>
      </trkpt>
      <trkpt lat="43.32744" lon="-1.8667">
        <ele>49.8</ele>
        <time>2026-08-05T09:36:02Z</time>
      </trkpt>
      <trkpt lat="43.32742" lon="-1.86682">
        <ele>49.6</ele>
        <time>2026-08-05T09:36:03Z</time>
      </trkpt>
      <trkpt lat="43.3274" lon="-1.86693">
        <ele>49.4</ele>
        <time>2026-08-05T09:36:04Z</time>
      </trkpt>
      <trkpt lat="43.32738" lon="-1.86705">
        <ele>49.4</ele>
        <time>2026-08-05T09:36:05Z</time>
      </trkpt>
      <trkpt lat="43.32737" lon="-1.86717">
        <ele>49</ele>
        <time>2026-08-05T09:36:06Z</time>
      </trkpt>
      <trkpt lat="43.32736" lon="-1.8673">
        <ele>48.4</ele>
        <time>2026-08-05T09:36:07Z</time>
      </trkpt>
      <trkpt lat="43.32736" lon="-1.86742">
        <ele>48.4</ele>
        <time>2026-08-05T09:36:08Z</time>
      </trkpt>
      <trkpt lat="43.32735" lon="-1.86754">
        <ele>48.4</ele>
        <time>2026-08-05T09:36:09Z</time>
      </trkpt>
      <trkpt lat="43.32735" lon="-1.86766">
        <ele>48.4</ele>
        <time>2026-08-05T09:36:10Z</time>
      </trkpt>
      <trkpt lat="43.32735" lon="-1.86778">
        <ele>47</ele>
        <time>2026-08-05T09:36:11Z</time>
      </trkpt>
      <trkpt lat="43.32735" lon="-1.8679">
        <ele>47</ele>
        <time>2026-08-05T09:36:12Z</time>
      </trkpt>
      <trkpt lat="43.32735" lon="-1.86801">
        <ele>47</ele>
        <time>2026-08-05T09:36:13Z</time>
      </trkpt>
      <trkpt lat="43.32735" lon="-1.86813">
        <ele>47</ele>
        <time>2026-08-05T09:36:14Z</time>
      </trkpt>
      <trkpt lat="43.32734" lon="-1.86824">
        <ele>47</ele>
        <time>2026-08-05T09:36:15Z</time>
      </trkpt>
      <trkpt lat="43.32734" lon="-1.86835">
        <ele>46.6</ele>
        <time>2026-08-05T09:36:16Z</time>
      </trkpt>
      <trkpt lat="43.32734" lon="-1.86846">
        <ele>46.4</ele>
        <time>2026-08-05T09:36:17Z</time>
      </trkpt>
      <trkpt lat="43.32733" lon="-1.86857">
        <ele>46.4</ele>
        <time>2026-08-05T09:36:18Z</time>
      </trkpt>
      <trkpt lat="43.32732" lon="-1.86867">
        <ele>46.4</ele>
        <time>2026-08-05T09:36:19Z</time>
      </trkpt>
      <trkpt lat="43.32732" lon="-1.86878">
        <ele>46.4</ele>
        <time>2026-08-05T09:36:20Z</time>
      </trkpt>
      <trkpt lat="43.32731" lon="-1.86889">
        <ele>46.4</ele>
        <time>2026-08-05T09:36:21Z</time>
      </trkpt>
      <trkpt lat="43.32731" lon="-1.86899">
        <ele>46.8</ele>
        <time>2026-08-05T09:36:22Z</time>
      </trkpt>
      <trkpt lat="43.3273" lon="-1.86909">
        <ele>46.8</ele>
        <time>2026-08-05T09:36:23Z</time>
      </trkpt>
      <trkpt lat="43.3273" lon="-1.86919">
        <ele>46.8</ele>
        <time>2026-08-05T09:36:24Z</time>
      </trkpt>
      <trkpt lat="43.32729" lon="-1.8693">
        <ele>46.8</ele>
        <time>2026-08-05T09:36:25Z</time>
      </trkpt>
      <trkpt lat="43.32729" lon="-1.8694">
        <ele>46.8</ele>
        <time>2026-08-05T09:36:26Z</time>
      </trkpt>
      <trkpt lat="43.32728" lon="-1.8695">
        <ele>45</ele>
        <time>2026-08-05T09:36:27Z</time>
      </trkpt>
      <trkpt lat="43.32728" lon="-1.8696">
        <ele>45</ele>
        <time>2026-08-05T09:36:28Z</time>
      </trkpt>
      <trkpt lat="43.32727" lon="-1.8697">
        <ele>45</ele>
        <time>2026-08-05T09:36:29Z</time>
      </trkpt>
      <trkpt lat="43.32727" lon="-1.86981">
        <ele>45</ele>
        <time>2026-08-05T09:36:30Z</time>
      </trkpt>
      <trkpt lat="43.32726" lon="-1.86991">
        <ele>45</ele>
        <time>2026-08-05T09:36:31Z</time>
      </trkpt>
      <trkpt lat="43.32725" lon="-1.87001">
        <ele>45</ele>
        <time>2026-08-05T09:36:32Z</time>
      </trkpt>
      <trkpt lat="43.32725" lon="-1.87011">
        <ele>45</ele>
        <time>2026-08-05T09:36:33Z</time>
      </trkpt>
      <trkpt lat="43.32724" lon="-1.87022">
        <ele>45.8</ele>
        <time>2026-08-05T09:36:34Z</time>
      </trkpt>
      <trkpt lat="43.32723" lon="-1.87032">
        <ele>46.2</ele>
        <time>2026-08-05T09:36:35Z</time>
      </trkpt>
      <trkpt lat="43.32722" lon="-1.87042">
        <ele>46.2</ele>
        <time>2026-08-05T09:36:36Z</time>
      </trkpt>
      <trkpt lat="43.32722" lon="-1.87052">
        <ele>46.2</ele>
        <time>2026-08-05T09:36:37Z</time>
      </trkpt>
      <trkpt lat="43.32721" lon="-1.87061">
        <ele>46.2</ele>
        <time>2026-08-05T09:36:38Z</time>
      </trkpt>
      <trkpt lat="43.3272" lon="-1.87071">
        <ele>46</ele>
        <time>2026-08-05T09:36:39Z</time>
      </trkpt>
      <trkpt lat="43.32719" lon="-1.87081">
        <ele>46</ele>
        <time>2026-08-05T09:36:40Z</time>
      </trkpt>
      <trkpt lat="43.32718" lon="-1.8709">
        <ele>46</ele>
        <time>2026-08-05T09:36:41Z</time>
      </trkpt>
      <trkpt lat="43.32718" lon="-1.87099">
        <ele>46</ele>
        <time>2026-08-05T09:36:42Z</time>
      </trkpt>
      <trkpt lat="43.32717" lon="-1.87108">
        <ele>47.4</ele>
        <time>2026-08-05T09:36:43Z</time>
      </trkpt>
      <trkpt lat="43.32716" lon="-1.87117">
        <ele>47.4</ele>
        <time>2026-08-05T09:36:44Z</time>
      </trkpt>
      <trkpt lat="43.32714" lon="-1.87125">
        <ele>47.4</ele>
        <time>2026-08-05T09:36:45Z</time>
      </trkpt>
      <trkpt lat="43.32713" lon="-1.87133">
        <ele>47.4</ele>
        <time>2026-08-05T09:36:46Z</time>
      </trkpt>
      <trkpt lat="43.32711" lon="-1.87141">
        <ele>47.4</ele>
        <time>2026-08-05T09:36:47Z</time>
      </trkpt>
      <trkpt lat="43.3271" lon="-1.87148">
        <ele>48.2</ele>
        <time>2026-08-05T09:36:48Z</time>
      </trkpt>
      <trkpt lat="43.32709" lon="-1.87156">
        <ele>48.2</ele>
        <time>2026-08-05T09:36:49Z</time>
      </trkpt>
      <trkpt lat="43.32708" lon="-1.87162">
        <ele>48.2</ele>
        <time>2026-08-05T09:36:50Z</time>
      </trkpt>
      <trkpt lat="43.32706" lon="-1.87168">
        <ele>48.2</ele>
        <time>2026-08-05T09:36:51Z</time>
      </trkpt>
      <trkpt lat="43.32705" lon="-1.87174">
        <ele>48.2</ele>
        <time>2026-08-05T09:36:52Z</time>
      </trkpt>
      <trkpt lat="43.32703" lon="-1.87179">
        <ele>49.2</ele>
        <time>2026-08-05T09:36:53Z</time>
      </trkpt>
      <trkpt lat="43.32702" lon="-1.87185">
        <ele>49.4</ele>
        <time>2026-08-05T09:36:54Z</time>
      </trkpt>
      <trkpt lat="43.32701" lon="-1.8719">
        <ele>49.4</ele>
        <time>2026-08-05T09:36:55Z</time>
      </trkpt>
      <trkpt lat="43.32699" lon="-1.87195">
        <ele>50.2</ele>
        <time>2026-08-05T09:36:56Z</time>
      </trkpt>
      <trkpt lat="43.32697" lon="-1.87201">
        <ele>50.2</ele>
        <time>2026-08-05T09:36:57Z</time>
      </trkpt>
      <trkpt lat="43.32696" lon="-1.87206">
        <ele>50.2</ele>
        <time>2026-08-05T09:36:58Z</time>
      </trkpt>
      <trkpt lat="43.32694" lon="-1.87212">
        <ele>50.2</ele>
        <time>2026-08-05T09:36:59Z</time>
      </trkpt>
      <trkpt lat="43.32693" lon="-1.87216">
        <ele>51.6</ele>
        <time>2026-08-05T09:37:00Z</time>
      </trkpt>
      <trkpt lat="43.32691" lon="-1.87221">
        <ele>51.6</ele>
        <time>2026-08-05T09:37:01Z</time>
      </trkpt>
      <trkpt lat="43.32689" lon="-1.87227">
        <ele>51.6</ele>
        <time>2026-08-05T09:37:02Z</time>
      </trkpt>
      <trkpt lat="43.32688" lon="-1.87232">
        <ele>51.6</ele>
        <time>2026-08-05T09:37:03Z</time>
      </trkpt>
      <trkpt lat="43.32686" lon="-1.87237">
        <ele>51.6</ele>
        <time>2026-08-05T09:37:04Z</time>
      </trkpt>
      <trkpt lat="43.32685" lon="-1.87242">
        <ele>52.2</ele>
        <time>2026-08-05T09:37:05Z</time>
      </trkpt>
      <trkpt lat="43.32683" lon="-1.87247">
        <ele>52.2</ele>
        <time>2026-08-05T09:37:06Z</time>
      </trkpt>
      <trkpt lat="43.32682" lon="-1.87252">
        <ele>52.2</ele>
        <time>2026-08-05T09:37:07Z</time>
      </trkpt>
      <trkpt lat="43.3268" lon="-1.87257">
        <ele>52.2</ele>
        <time>2026-08-05T09:37:08Z</time>
      </trkpt>
      <trkpt lat="43.32678" lon="-1.87262">
        <ele>52.4</ele>
        <time>2026-08-05T09:37:09Z</time>
      </trkpt>
      <trkpt lat="43.32677" lon="-1.87267">
        <ele>52.4</ele>
        <time>2026-08-05T09:37:10Z</time>
      </trkpt>
      <trkpt lat="43.32675" lon="-1.87272">
        <ele>52.4</ele>
        <time>2026-08-05T09:37:11Z</time>
      </trkpt>
      <trkpt lat="43.32674" lon="-1.87277">
        <ele>52.4</ele>
        <time>2026-08-05T09:37:12Z</time>
      </trkpt>
      <trkpt lat="43.32672" lon="-1.87283">
        <ele>52.4</ele>
        <time>2026-08-05T09:37:13Z</time>
      </trkpt>
      <trkpt lat="43.3267" lon="-1.87288">
        <ele>52.6</ele>
        <time>2026-08-05T09:37:14Z</time>
      </trkpt>
      <trkpt lat="43.32669" lon="-1.87294">
        <ele>52.6</ele>
        <time>2026-08-05T09:37:15Z</time>
      </trkpt>
      <trkpt lat="43.32667" lon="-1.873">
        <ele>52.2</ele>
        <time>2026-08-05T09:37:16Z</time>
      </trkpt>
      <trkpt lat="43.32665" lon="-1.87305">
        <ele>52.2</ele>
        <time>2026-08-05T09:37:17Z</time>
      </trkpt>
      <trkpt lat="43.32663" lon="-1.87311">
        <ele>52.2</ele>
        <time>2026-08-05T09:37:18Z</time>
      </trkpt>
      <trkpt lat="43.32661" lon="-1.87318">
        <ele>52.2</ele>
        <time>2026-08-05T09:37:19Z</time>
      </trkpt>
      <trkpt lat="43.32659" lon="-1.87324">
        <ele>52.6</ele>
        <time>2026-08-05T09:37:20Z</time>
      </trkpt>
      <trkpt lat="43.32657" lon="-1.8733">
        <ele>52.6</ele>
        <time>2026-08-05T09:37:21Z</time>
      </trkpt>
      <trkpt lat="43.32655" lon="-1.87336">
        <ele>52.6</ele>
        <time>2026-08-05T09:37:22Z</time>
      </trkpt>
      <trkpt lat="43.32653" lon="-1.87343">
        <ele>52.2</ele>
        <time>2026-08-05T09:37:23Z</time>
      </trkpt>
      <trkpt lat="43.32651" lon="-1.87349">
        <ele>51.4</ele>
        <time>2026-08-05T09:37:24Z</time>
      </trkpt>
      <trkpt lat="43.32649" lon="-1.87356">
        <ele>51.4</ele>
        <time>2026-08-05T09:37:25Z</time>
      </trkpt>
      <trkpt lat="43.32647" lon="-1.87364">
        <ele>51</ele>
        <time>2026-08-05T09:37:26Z</time>
      </trkpt>
      <trkpt lat="43.32644" lon="-1.87371">
        <ele>50</ele>
        <time>2026-08-05T09:37:27Z</time>
      </trkpt>
      <trkpt lat="43.32642" lon="-1.87379">
        <ele>50</ele>
        <time>2026-08-05T09:37:28Z</time>
      </trkpt>
      <trkpt lat="43.32639" lon="-1.87388">
        <ele>50</ele>
        <time>2026-08-05T09:37:29Z</time>
      </trkpt>
      <trkpt lat="43.32636" lon="-1.87397">
        <ele>50</ele>
        <time>2026-08-05T09:37:30Z</time>
      </trkpt>
      <trkpt lat="43.32633" lon="-1.87407">
        <ele>47</ele>
        <time>2026-08-05T09:37:31Z</time>
      </trkpt>
      <trkpt lat="43.3263" lon="-1.87417">
        <ele>46</ele>
        <time>2026-08-05T09:37:32Z</time>
      </trkpt>
      <trkpt lat="43.32627" lon="-1.87427">
        <ele>45.4</ele>
        <time>2026-08-05T09:37:33Z</time>
      </trkpt>
      <trkpt lat="43.32624" lon="-1.87437">
        <ele>45</ele>
        <time>2026-08-05T09:37:34Z</time>
      </trkpt>
      <trkpt lat="43.3262" lon="-1.87448">
        <ele>44.2</ele>
        <time>2026-08-05T09:37:35Z</time>
      </trkpt>
      <trkpt lat="43.32617" lon="-1.87459">
        <ele>43.4</ele>
        <time>2026-08-05T09:37:36Z</time>
      </trkpt>
      <trkpt lat="43.32613" lon="-1.8747">
        <ele>43.4</ele>
        <time>2026-08-05T09:37:37Z</time>
      </trkpt>
      <trkpt lat="43.3261" lon="-1.87481">
        <ele>43.4</ele>
        <time>2026-08-05T09:37:38Z</time>
      </trkpt>
      <trkpt lat="43.32607" lon="-1.87492">
        <ele>43.4</ele>
        <time>2026-08-05T09:37:39Z</time>
      </trkpt>
      <trkpt lat="43.32604" lon="-1.87503">
        <ele>43.4</ele>
        <time>2026-08-05T09:37:40Z</time>
      </trkpt>
      <trkpt lat="43.32601" lon="-1.87514">
        <ele>42.6</ele>
        <time>2026-08-05T09:37:41Z</time>
      </trkpt>
      <trkpt lat="43.32598" lon="-1.87525">
        <ele>42.4</ele>
        <time>2026-08-05T09:37:42Z</time>
      </trkpt>
      <trkpt lat="43.32597" lon="-1.87535">
        <ele>42.4</ele>
        <time>2026-08-05T09:37:43Z</time>
      </trkpt>
      <trkpt lat="43.32597" lon="-1.87545">
        <ele>42.4</ele>
        <time>2026-08-05T09:37:44Z</time>
      </trkpt>
      <trkpt lat="43.32597" lon="-1.87555">
        <ele>43.4</ele>
        <time>2026-08-05T09:37:45Z</time>
      </trkpt>
      <trkpt lat="43.32596" lon="-1.87564">
        <ele>43.4</ele>
        <time>2026-08-05T09:37:46Z</time>
      </trkpt>
      <trkpt lat="43.32593" lon="-1.87572">
        <ele>43.4</ele>
        <time>2026-08-05T09:37:47Z</time>
      </trkpt>
      <trkpt lat="43.3259" lon="-1.87579">
        <ele>43.4</ele>
        <time>2026-08-05T09:37:48Z</time>
      </trkpt>
      <trkpt lat="43.32585" lon="-1.87586">
        <ele>42.4</ele>
        <time>2026-08-05T09:37:49Z</time>
      </trkpt>
      <trkpt lat="43.3258" lon="-1.87592">
        <ele>42.4</ele>
        <time>2026-08-05T09:37:50Z</time>
      </trkpt>
      <trkpt lat="43.32574" lon="-1.87597">
        <ele>43.4</ele>
        <time>2026-08-05T09:37:51Z</time>
      </trkpt>
      <trkpt lat="43.3257" lon="-1.87603">
        <ele>43.8</ele>
        <time>2026-08-05T09:37:52Z</time>
      </trkpt>
      <trkpt lat="43.32566" lon="-1.8761">
        <ele>43.4</ele>
        <time>2026-08-05T09:37:53Z</time>
      </trkpt>
      <trkpt lat="43.32564" lon="-1.87618">
        <ele>43.4</ele>
        <time>2026-08-05T09:37:54Z</time>
      </trkpt>
      <trkpt lat="43.32562" lon="-1.87626">
        <ele>43.4</ele>
        <time>2026-08-05T09:37:55Z</time>
      </trkpt>
      <trkpt lat="43.3256" lon="-1.87634">
        <ele>44.4</ele>
        <time>2026-08-05T09:37:56Z</time>
      </trkpt>
      <trkpt lat="43.32558" lon="-1.87641">
        <ele>45.4</ele>
        <time>2026-08-05T09:37:57Z</time>
      </trkpt>
      <trkpt lat="43.32556" lon="-1.87648">
        <ele>45.4</ele>
        <time>2026-08-05T09:37:58Z</time>
      </trkpt>
      <trkpt lat="43.32554" lon="-1.87654">
        <ele>46.2</ele>
        <time>2026-08-05T09:37:59Z</time>
      </trkpt>
      <trkpt lat="43.32553" lon="-1.8766">
        <ele>46.2</ele>
        <time>2026-08-05T09:38:00Z</time>
      </trkpt>
      <trkpt lat="43.32551" lon="-1.87665">
        <ele>46.2</ele>
        <time>2026-08-05T09:38:01Z</time>
      </trkpt>
      <trkpt lat="43.32549" lon="-1.8767">
        <ele>46.2</ele>
        <time>2026-08-05T09:38:02Z</time>
      </trkpt>
      <trkpt lat="43.32547" lon="-1.87674">
        <ele>47.4</ele>
        <time>2026-08-05T09:38:03Z</time>
      </trkpt>
      <trkpt lat="43.32546" lon="-1.87679">
        <ele>47.6</ele>
        <time>2026-08-05T09:38:04Z</time>
      </trkpt>
      <trkpt lat="43.32545" lon="-1.87683">
        <ele>47.8</ele>
        <time>2026-08-05T09:38:05Z</time>
      </trkpt>
      <trkpt lat="43.32544" lon="-1.87687">
        <ele>47.8</ele>
        <time>2026-08-05T09:38:06Z</time>
      </trkpt>
      <trkpt lat="43.32543" lon="-1.87691">
        <ele>47.8</ele>
        <time>2026-08-05T09:38:07Z</time>
      </trkpt>
      <trkpt lat="43.32542" lon="-1.87694">
        <ele>48.6</ele>
        <time>2026-08-05T09:38:08Z</time>
      </trkpt>
      <trkpt lat="43.32541" lon="-1.87698">
        <ele>48.6</ele>
        <time>2026-08-05T09:38:09Z</time>
      </trkpt>
      <trkpt lat="43.3254" lon="-1.87701">
        <ele>48.6</ele>
        <time>2026-08-05T09:38:10Z</time>
      </trkpt>
      <trkpt lat="43.32539" lon="-1.87705">
        <ele>48.6</ele>
        <time>2026-08-05T09:38:11Z</time>
      </trkpt>
      <trkpt lat="43.32538" lon="-1.87708">
        <ele>49</ele>
        <time>2026-08-05T09:38:12Z</time>
      </trkpt>
      <trkpt lat="43.32538" lon="-1.87712">
        <ele>49.2</ele>
        <time>2026-08-05T09:38:13Z</time>
      </trkpt>
      <trkpt lat="43.32537" lon="-1.87716">
        <ele>49.6</ele>
        <time>2026-08-05T09:38:14Z</time>
      </trkpt>
      <trkpt lat="43.32535" lon="-1.8772">
        <ele>49.8</ele>
        <time>2026-08-05T09:38:15Z</time>
      </trkpt>
      <trkpt lat="43.32534" lon="-1.87725">
        <ele>49.8</ele>
        <time>2026-08-05T09:38:16Z</time>
      </trkpt>
      <trkpt lat="43.32533" lon="-1.87728">
        <ele>50.4</ele>
        <time>2026-08-05T09:38:17Z</time>
      </trkpt>
      <trkpt lat="43.32532" lon="-1.87732">
        <ele>50.4</ele>
        <time>2026-08-05T09:38:18Z</time>
      </trkpt>
      <trkpt lat="43.32531" lon="-1.87736">
        <ele>50.4</ele>
        <time>2026-08-05T09:38:19Z</time>
      </trkpt>
      <trkpt lat="43.3253" lon="-1.87739">
        <ele>50.4</ele>
        <time>2026-08-05T09:38:20Z</time>
      </trkpt>
      <trkpt lat="43.32529" lon="-1.87743">
        <ele>50.4</ele>
        <time>2026-08-05T09:38:21Z</time>
      </trkpt>
      <trkpt lat="43.32528" lon="-1.87747">
        <ele>51.2</ele>
        <time>2026-08-05T09:38:22Z</time>
      </trkpt>
      <trkpt lat="43.32527" lon="-1.87751">
        <ele>51.2</ele>
        <time>2026-08-05T09:38:23Z</time>
      </trkpt>
      <trkpt lat="43.32526" lon="-1.87755">
        <ele>51.6</ele>
        <time>2026-08-05T09:38:24Z</time>
      </trkpt>
      <trkpt lat="43.32525" lon="-1.87759">
        <ele>51.6</ele>
        <time>2026-08-05T09:38:25Z</time>
      </trkpt>
      <trkpt lat="43.32524" lon="-1.87763">
        <ele>51.6</ele>
        <time>2026-08-05T09:38:26Z</time>
      </trkpt>
      <trkpt lat="43.32523" lon="-1.87767">
        <ele>51.6</ele>
        <time>2026-08-05T09:38:27Z</time>
      </trkpt>
      <trkpt lat="43.32522" lon="-1.87771">
        <ele>52.8</ele>
        <time>2026-08-05T09:38:28Z</time>
      </trkpt>
      <trkpt lat="43.32521" lon="-1.87775">
        <ele>53</ele>
        <time>2026-08-05T09:38:29Z</time>
      </trkpt>
      <trkpt lat="43.3252" lon="-1.87778">
        <ele>53.4</ele>
        <time>2026-08-05T09:38:30Z</time>
      </trkpt>
      <trkpt lat="43.32519" lon="-1.87782">
        <ele>53.4</ele>
        <time>2026-08-05T09:38:31Z</time>
      </trkpt>
      <trkpt lat="43.32518" lon="-1.87786">
        <ele>53.6</ele>
        <time>2026-08-05T09:38:32Z</time>
      </trkpt>
      <trkpt lat="43.32518" lon="-1.8779">
        <ele>53.6</ele>
        <time>2026-08-05T09:38:33Z</time>
      </trkpt>
      <trkpt lat="43.32517" lon="-1.87794">
        <ele>53.6</ele>
        <time>2026-08-05T09:38:34Z</time>
      </trkpt>
      <trkpt lat="43.32516" lon="-1.87798">
        <ele>53.6</ele>
        <time>2026-08-05T09:38:35Z</time>
      </trkpt>
      <trkpt lat="43.32515" lon="-1.87802">
        <ele>53.6</ele>
        <time>2026-08-05T09:38:36Z</time>
      </trkpt>
      <trkpt lat="43.32514" lon="-1.87805">
        <ele>53.6</ele>
        <time>2026-08-05T09:38:37Z</time>
      </trkpt>
      <trkpt lat="43.32514" lon="-1.8781">
        <ele>53.8</ele>
        <time>2026-08-05T09:38:38Z</time>
      </trkpt>
      <trkpt lat="43.32513" lon="-1.87814">
        <ele>53.8</ele>
        <time>2026-08-05T09:38:39Z</time>
      </trkpt>
      <trkpt lat="43.32512" lon="-1.87818">
        <ele>54</ele>
        <time>2026-08-05T09:38:40Z</time>
      </trkpt>
      <trkpt lat="43.3251" lon="-1.87822">
        <ele>54.4</ele>
        <time>2026-08-05T09:38:41Z</time>
      </trkpt>
      <trkpt lat="43.32509" lon="-1.87827">
        <ele>54.4</ele>
        <time>2026-08-05T09:38:42Z</time>
      </trkpt>
      <trkpt lat="43.32508" lon="-1.87831">
        <ele>54.6</ele>
        <time>2026-08-05T09:38:43Z</time>
      </trkpt>
      <trkpt lat="43.32507" lon="-1.87835">
        <ele>54.6</ele>
        <time>2026-08-05T09:38:44Z</time>
      </trkpt>
      <trkpt lat="43.32506" lon="-1.8784">
        <ele>54.6</ele>
        <time>2026-08-05T09:38:45Z</time>
      </trkpt>
      <trkpt lat="43.32505" lon="-1.87845">
        <ele>54.6</ele>
        <time>2026-08-05T09:38:46Z</time>
      </trkpt>
      <trkpt lat="43.32504" lon="-1.8785">
        <ele>54.6</ele>
        <time>2026-08-05T09:38:47Z</time>
      </trkpt>
      <trkpt lat="43.32503" lon="-1.87855">
        <ele>54.2</ele>
        <time>2026-08-05T09:38:48Z</time>
      </trkpt>
      <trkpt lat="43.32502" lon="-1.8786">
        <ele>54.2</ele>
        <time>2026-08-05T09:38:49Z</time>
      </trkpt>
      <trkpt lat="43.32501" lon="-1.87865">
        <ele>54.2</ele>
        <time>2026-08-05T09:38:50Z</time>
      </trkpt>
      <trkpt lat="43.325" lon="-1.8787">
        <ele>54.6</ele>
        <time>2026-08-05T09:38:51Z</time>
      </trkpt>
      <trkpt lat="43.32498" lon="-1.87876">
        <ele>54.6</ele>
        <time>2026-08-05T09:38:52Z</time>
      </trkpt>
      <trkpt lat="43.32497" lon="-1.87882">
        <ele>54.6</ele>
        <time>2026-08-05T09:38:53Z</time>
      </trkpt>
      <trkpt lat="43.32496" lon="-1.87888">
        <ele>53.8</ele>
        <time>2026-08-05T09:38:54Z</time>
      </trkpt>
      <trkpt lat="43.32494" lon="-1.87894">
        <ele>53.4</ele>
        <time>2026-08-05T09:38:55Z</time>
      </trkpt>
      <trkpt lat="43.32493" lon="-1.87901">
        <ele>53.4</ele>
        <time>2026-08-05T09:38:56Z</time>
      </trkpt>
      <trkpt lat="43.32491" lon="-1.87907">
        <ele>53.4</ele>
        <time>2026-08-05T09:38:57Z</time>
      </trkpt>
      <trkpt lat="43.3249" lon="-1.87914">
        <ele>53.4</ele>
        <time>2026-08-05T09:38:58Z</time>
      </trkpt>
      <trkpt lat="43.32488" lon="-1.87921">
        <ele>53.4</ele>
        <time>2026-08-05T09:38:59Z</time>
      </trkpt>
      <trkpt lat="43.32487" lon="-1.87928">
        <ele>52.4</ele>
        <time>2026-08-05T09:39:00Z</time>
      </trkpt>
      <trkpt lat="43.32486" lon="-1.87936">
        <ele>52.4</ele>
        <time>2026-08-05T09:39:01Z</time>
      </trkpt>
      <trkpt lat="43.32484" lon="-1.87943">
        <ele>52.4</ele>
        <time>2026-08-05T09:39:02Z</time>
      </trkpt>
      <trkpt lat="43.32482" lon="-1.87951">
        <ele>52.4</ele>
        <time>2026-08-05T09:39:03Z</time>
      </trkpt>
      <trkpt lat="43.32481" lon="-1.87959">
        <ele>50.8</ele>
        <time>2026-08-05T09:39:04Z</time>
      </trkpt>
      <trkpt lat="43.32479" lon="-1.87967">
        <ele>50.2</ele>
        <time>2026-08-05T09:39:05Z</time>
      </trkpt>
      <trkpt lat="43.32477" lon="-1.87976">
        <ele>50.2</ele>
        <time>2026-08-05T09:39:06Z</time>
      </trkpt>
      <trkpt lat="43.32475" lon="-1.87985">
        <ele>50.2</ele>
        <time>2026-08-05T09:39:07Z</time>
      </trkpt>
      <trkpt lat="43.32473" lon="-1.87994">
        <ele>50.2</ele>
        <time>2026-08-05T09:39:08Z</time>
      </trkpt>
      <trkpt lat="43.32471" lon="-1.88004">
        <ele>48</ele>
        <time>2026-08-05T09:39:09Z</time>
      </trkpt>
      <trkpt lat="43.32469" lon="-1.88014">
        <ele>47.8</ele>
        <time>2026-08-05T09:39:10Z</time>
      </trkpt>
      <trkpt lat="43.32467" lon="-1.88024">
        <ele>47.8</ele>
        <time>2026-08-05T09:39:11Z</time>
      </trkpt>
      <trkpt lat="43.32465" lon="-1.88034">
        <ele>46.8</ele>
        <time>2026-08-05T09:39:12Z</time>
      </trkpt>
      <trkpt lat="43.32462" lon="-1.88045">
        <ele>46.8</ele>
        <time>2026-08-05T09:39:13Z</time>
      </trkpt>
      <trkpt lat="43.32459" lon="-1.88056">
        <ele>46.8</ele>
        <time>2026-08-05T09:39:14Z</time>
      </trkpt>
      <trkpt lat="43.32456" lon="-1.88068">
        <ele>45.4</ele>
        <time>2026-08-05T09:39:15Z</time>
      </trkpt>
      <trkpt lat="43.32453" lon="-1.88079">
        <ele>44.4</ele>
        <time>2026-08-05T09:39:16Z</time>
      </trkpt>
      <trkpt lat="43.3245" lon="-1.88091">
        <ele>44.4</ele>
        <time>2026-08-05T09:39:17Z</time>
      </trkpt>
      <trkpt lat="43.32446" lon="-1.88103">
        <ele>44.4</ele>
        <time>2026-08-05T09:39:18Z</time>
      </trkpt>
      <trkpt lat="43.32442" lon="-1.88114">
        <ele>44.4</ele>
        <time>2026-08-05T09:39:19Z</time>
      </trkpt>
      <trkpt lat="43.32437" lon="-1.88125">
        <ele>43.4</ele>
        <time>2026-08-05T09:39:20Z</time>
      </trkpt>
      <trkpt lat="43.32431" lon="-1.88134">
        <ele>43.4</ele>
        <time>2026-08-05T09:39:21Z</time>
      </trkpt>
      <trkpt lat="43.32425" lon="-1.88144">
        <ele>43.2</ele>
        <time>2026-08-05T09:39:22Z</time>
      </trkpt>
      <trkpt lat="43.32418" lon="-1.88153">
        <ele>43.2</ele>
        <time>2026-08-05T09:39:23Z</time>
      </trkpt>
      <trkpt lat="43.32412" lon="-1.88161">
        <ele>43.2</ele>
        <time>2026-08-05T09:39:24Z</time>
      </trkpt>
      <trkpt lat="43.32406" lon="-1.8817">
        <ele>43.2</ele>
        <time>2026-08-05T09:39:25Z</time>
      </trkpt>
      <trkpt lat="43.32399" lon="-1.88178">
        <ele>43.2</ele>
        <time>2026-08-05T09:39:26Z</time>
      </trkpt>
      <trkpt lat="43.32393" lon="-1.88187">
        <ele>43.2</ele>
        <time>2026-08-05T09:39:27Z</time>
      </trkpt>
      <trkpt lat="43.32387" lon="-1.88195">
        <ele>43.2</ele>
        <time>2026-08-05T09:39:28Z</time>
      </trkpt>
      <trkpt lat="43.32381" lon="-1.88202">
        <ele>43.2</ele>
        <time>2026-08-05T09:39:29Z</time>
      </trkpt>
      <trkpt lat="43.32375" lon="-1.8821">
        <ele>43.2</ele>
        <time>2026-08-05T09:39:30Z</time>
      </trkpt>
      <trkpt lat="43.32369" lon="-1.88218">
        <ele>43.2</ele>
        <time>2026-08-05T09:39:31Z</time>
      </trkpt>
      <trkpt lat="43.32363" lon="-1.88225">
        <ele>43.2</ele>
        <time>2026-08-05T09:39:32Z</time>
      </trkpt>
      <trkpt lat="43.32358" lon="-1.88232">
        <ele>43.8</ele>
        <time>2026-08-05T09:39:33Z</time>
      </trkpt>
      <trkpt lat="43.32352" lon="-1.88239">
        <ele>43.8</ele>
        <time>2026-08-05T09:39:34Z</time>
      </trkpt>
      <trkpt lat="43.32347" lon="-1.88246">
        <ele>43.8</ele>
        <time>2026-08-05T09:39:35Z</time>
      </trkpt>
      <trkpt lat="43.32342" lon="-1.88252">
        <ele>43.6</ele>
        <time>2026-08-05T09:39:36Z</time>
      </trkpt>
      <trkpt lat="43.32336" lon="-1.88259">
        <ele>43.6</ele>
        <time>2026-08-05T09:39:37Z</time>
      </trkpt>
      <trkpt lat="43.32331" lon="-1.88266">
        <ele>44.4</ele>
        <time>2026-08-05T09:39:38Z</time>
      </trkpt>
      <trkpt lat="43.32326" lon="-1.88273">
        <ele>44.6</ele>
        <time>2026-08-05T09:39:39Z</time>
      </trkpt>
      <trkpt lat="43.32322" lon="-1.88279">
        <ele>44.6</ele>
        <time>2026-08-05T09:39:40Z</time>
      </trkpt>
      <trkpt lat="43.32317" lon="-1.88286">
        <ele>44.6</ele>
        <time>2026-08-05T09:39:41Z</time>
      </trkpt>
      <trkpt lat="43.32313" lon="-1.88293">
        <ele>44.6</ele>
        <time>2026-08-05T09:39:42Z</time>
      </trkpt>
      <trkpt lat="43.32308" lon="-1.883">
        <ele>44.6</ele>
        <time>2026-08-05T09:39:43Z</time>
      </trkpt>
      <trkpt lat="43.32304" lon="-1.88307">
        <ele>44.2</ele>
        <time>2026-08-05T09:39:44Z</time>
      </trkpt>
      <trkpt lat="43.323" lon="-1.88315">
        <ele>44</ele>
        <time>2026-08-05T09:39:45Z</time>
      </trkpt>
      <trkpt lat="43.32296" lon="-1.88322">
        <ele>44</ele>
        <time>2026-08-05T09:39:46Z</time>
      </trkpt>
      <trkpt lat="43.32292" lon="-1.88329">
        <ele>44</ele>
        <time>2026-08-05T09:39:47Z</time>
      </trkpt>
      <trkpt lat="43.32288" lon="-1.88336">
        <ele>44.4</ele>
        <time>2026-08-05T09:39:48Z</time>
      </trkpt>
      <trkpt lat="43.32284" lon="-1.88344">
        <ele>44.6</ele>
        <time>2026-08-05T09:39:49Z</time>
      </trkpt>
      <trkpt lat="43.3228" lon="-1.88351">
        <ele>44.8</ele>
        <time>2026-08-05T09:39:50Z</time>
      </trkpt>
      <trkpt lat="43.32277" lon="-1.88358">
        <ele>44.8</ele>
        <time>2026-08-05T09:39:51Z</time>
      </trkpt>
      <trkpt lat="43.32273" lon="-1.88365">
        <ele>44.8</ele>
        <time>2026-08-05T09:39:52Z</time>
      </trkpt>
      <trkpt lat="43.32269" lon="-1.88372">
        <ele>44.8</ele>
        <time>2026-08-05T09:39:53Z</time>
      </trkpt>
      <trkpt lat="43.32266" lon="-1.8838">
        <ele>44.8</ele>
        <time>2026-08-05T09:39:54Z</time>
      </trkpt>
      <trkpt lat="43.32262" lon="-1.88387">
        <ele>44.8</ele>
        <time>2026-08-05T09:39:55Z</time>
      </trkpt>
      <trkpt lat="43.32258" lon="-1.88394">
        <ele>44.8</ele>
        <time>2026-08-05T09:39:56Z</time>
      </trkpt>
      <trkpt lat="43.32255" lon="-1.88401">
        <ele>44.8</ele>
        <time>2026-08-05T09:39:57Z</time>
      </trkpt>
      <trkpt lat="43.32251" lon="-1.88408">
        <ele>44.8</ele>
        <time>2026-08-05T09:39:58Z</time>
      </trkpt>
      <trkpt lat="43.32248" lon="-1.88415">
        <ele>44.8</ele>
        <time>2026-08-05T09:39:59Z</time>
      </trkpt>
      <trkpt lat="43.32244" lon="-1.88422">
        <ele>45.2</ele>
        <time>2026-08-05T09:40:00Z</time>
      </trkpt>
      <trkpt lat="43.32241" lon="-1.88429">
        <ele>45.2</ele>
        <time>2026-08-05T09:40:01Z</time>
      </trkpt>
      <trkpt lat="43.32238" lon="-1.88436">
        <ele>45.2</ele>
        <time>2026-08-05T09:40:02Z</time>
      </trkpt>
      <trkpt lat="43.32234" lon="-1.88443">
        <ele>45.2</ele>
        <time>2026-08-05T09:40:03Z</time>
      </trkpt>
      <trkpt lat="43.32231" lon="-1.8845">
        <ele>45.2</ele>
        <time>2026-08-05T09:40:04Z</time>
      </trkpt>
      <trkpt lat="43.32227" lon="-1.88458">
        <ele>44.4</ele>
        <time>2026-08-05T09:40:05Z</time>
      </trkpt>
      <trkpt lat="43.32224" lon="-1.88465">
        <ele>44</ele>
        <time>2026-08-05T09:40:06Z</time>
      </trkpt>
      <trkpt lat="43.32221" lon="-1.88472">
        <ele>43.6</ele>
        <time>2026-08-05T09:40:07Z</time>
      </trkpt>
      <trkpt lat="43.32217" lon="-1.88479">
        <ele>43.6</ele>
        <time>2026-08-05T09:40:08Z</time>
      </trkpt>
      <trkpt lat="43.32214" lon="-1.88487">
        <ele>43.6</ele>
        <time>2026-08-05T09:40:09Z</time>
      </trkpt>
      <trkpt lat="43.32211" lon="-1.88495">
        <ele>43.6</ele>
        <time>2026-08-05T09:40:10Z</time>
      </trkpt>
      <trkpt lat="43.32207" lon="-1.88503">
        <ele>43.6</ele>
        <time>2026-08-05T09:40:11Z</time>
      </trkpt>
      <trkpt lat="43.32204" lon="-1.88512">
        <ele>42.6</ele>
        <time>2026-08-05T09:40:12Z</time>
      </trkpt>
      <trkpt lat="43.32201" lon="-1.88521">
        <ele>41.6</ele>
        <time>2026-08-05T09:40:13Z</time>
      </trkpt>
      <trkpt lat="43.32197" lon="-1.8853">
        <ele>40.4</ele>
        <time>2026-08-05T09:40:14Z</time>
      </trkpt>
      <trkpt lat="43.32193" lon="-1.88539">
        <ele>39.8</ele>
        <time>2026-08-05T09:40:15Z</time>
      </trkpt>
      <trkpt lat="43.32189" lon="-1.88549">
        <ele>38.8</ele>
        <time>2026-08-05T09:40:16Z</time>
      </trkpt>
      <trkpt lat="43.32186" lon="-1.88559">
        <ele>38.6</ele>
        <time>2026-08-05T09:40:17Z</time>
      </trkpt>
      <trkpt lat="43.32182" lon="-1.88569">
        <ele>38.6</ele>
        <time>2026-08-05T09:40:18Z</time>
      </trkpt>
      <trkpt lat="43.32178" lon="-1.8858">
        <ele>38.6</ele>
        <time>2026-08-05T09:40:19Z</time>
      </trkpt>
      <trkpt lat="43.32174" lon="-1.88591">
        <ele>38.6</ele>
        <time>2026-08-05T09:40:20Z</time>
      </trkpt>
      <trkpt lat="43.3217" lon="-1.88601">
        <ele>36.6</ele>
        <time>2026-08-05T09:40:21Z</time>
      </trkpt>
      <trkpt lat="43.32166" lon="-1.88612">
        <ele>35.6</ele>
        <time>2026-08-05T09:40:22Z</time>
      </trkpt>
      <trkpt lat="43.32162" lon="-1.88624">
        <ele>35.2</ele>
        <time>2026-08-05T09:40:23Z</time>
      </trkpt>
      <trkpt lat="43.32159" lon="-1.88635">
        <ele>35.2</ele>
        <time>2026-08-05T09:40:24Z</time>
      </trkpt>
      <trkpt lat="43.32155" lon="-1.88647">
        <ele>34</ele>
        <time>2026-08-05T09:40:25Z</time>
      </trkpt>
      <trkpt lat="43.32152" lon="-1.8866">
        <ele>32.8</ele>
        <time>2026-08-05T09:40:26Z</time>
      </trkpt>
      <trkpt lat="43.3215" lon="-1.88673">
        <ele>32.8</ele>
        <time>2026-08-05T09:40:27Z</time>
      </trkpt>
      <trkpt lat="43.32147" lon="-1.88686">
        <ele>32.8</ele>
        <time>2026-08-05T09:40:28Z</time>
      </trkpt>
      <trkpt lat="43.32145" lon="-1.88699">
        <ele>32.8</ele>
        <time>2026-08-05T09:40:29Z</time>
      </trkpt>
      <trkpt lat="43.32144" lon="-1.88713">
        <ele>31</ele>
        <time>2026-08-05T09:40:30Z</time>
      </trkpt>
      <trkpt lat="43.32142" lon="-1.88726">
        <ele>30.8</ele>
        <time>2026-08-05T09:40:31Z</time>
      </trkpt>
      <trkpt lat="43.32141" lon="-1.8874">
        <ele>30.8</ele>
        <time>2026-08-05T09:40:32Z</time>
      </trkpt>
      <trkpt lat="43.32139" lon="-1.88753">
        <ele>30.8</ele>
        <time>2026-08-05T09:40:33Z</time>
      </trkpt>
      <trkpt lat="43.32138" lon="-1.88766">
        <ele>30.8</ele>
        <time>2026-08-05T09:40:34Z</time>
      </trkpt>
      <trkpt lat="43.32136" lon="-1.88779">
        <ele>29.8</ele>
        <time>2026-08-05T09:40:35Z</time>
      </trkpt>
      <trkpt lat="43.32135" lon="-1.88792">
        <ele>29.4</ele>
        <time>2026-08-05T09:40:36Z</time>
      </trkpt>
      <trkpt lat="43.32134" lon="-1.88804">
        <ele>28.8</ele>
        <time>2026-08-05T09:40:37Z</time>
      </trkpt>
      <trkpt lat="43.32133" lon="-1.88817">
        <ele>28.8</ele>
        <time>2026-08-05T09:40:38Z</time>
      </trkpt>
      <trkpt lat="43.32132" lon="-1.88829">
        <ele>28.8</ele>
        <time>2026-08-05T09:40:39Z</time>
      </trkpt>
      <trkpt lat="43.3213" lon="-1.88841">
        <ele>28.8</ele>
        <time>2026-08-05T09:40:40Z</time>
      </trkpt>
      <trkpt lat="43.32129" lon="-1.88852">
        <ele>28.8</ele>
        <time>2026-08-05T09:40:41Z</time>
      </trkpt>
      <trkpt lat="43.32128" lon="-1.88864">
        <ele>28.8</ele>
        <time>2026-08-05T09:40:42Z</time>
      </trkpt>
      <trkpt lat="43.32127" lon="-1.88874">
        <ele>28.8</ele>
        <time>2026-08-05T09:40:43Z</time>
      </trkpt>
      <trkpt lat="43.32126" lon="-1.88885">
        <ele>28.8</ele>
        <time>2026-08-05T09:40:44Z</time>
      </trkpt>
      <trkpt lat="43.32124" lon="-1.88895">
        <ele>28.6</ele>
        <time>2026-08-05T09:40:45Z</time>
      </trkpt>
      <trkpt lat="43.32124" lon="-1.88906">
        <ele>28.6</ele>
        <time>2026-08-05T09:40:46Z</time>
      </trkpt>
      <trkpt lat="43.32122" lon="-1.88916">
        <ele>28.6</ele>
        <time>2026-08-05T09:40:47Z</time>
      </trkpt>
      <trkpt lat="43.32122" lon="-1.88926">
        <ele>28.6</ele>
        <time>2026-08-05T09:40:48Z</time>
      </trkpt>
      <trkpt lat="43.32121" lon="-1.88936">
        <ele>27.8</ele>
        <time>2026-08-05T09:40:49Z</time>
      </trkpt>
      <trkpt lat="43.3212" lon="-1.88946">
        <ele>27.6</ele>
        <time>2026-08-05T09:40:50Z</time>
      </trkpt>
      <trkpt lat="43.32119" lon="-1.88956">
        <ele>26.8</ele>
        <time>2026-08-05T09:40:51Z</time>
      </trkpt>
      <trkpt lat="43.32118" lon="-1.88966">
        <ele>25.6</ele>
        <time>2026-08-05T09:40:52Z</time>
      </trkpt>
      <trkpt lat="43.32117" lon="-1.88977">
        <ele>24.8</ele>
        <time>2026-08-05T09:40:53Z</time>
      </trkpt>
      <trkpt lat="43.32117" lon="-1.88987">
        <ele>24.8</ele>
        <time>2026-08-05T09:40:54Z</time>
      </trkpt>
      <trkpt lat="43.32116" lon="-1.88998">
        <ele>24.8</ele>
        <time>2026-08-05T09:40:55Z</time>
      </trkpt>
      <trkpt lat="43.32115" lon="-1.89009">
        <ele>24.8</ele>
        <time>2026-08-05T09:40:56Z</time>
      </trkpt>
      <trkpt lat="43.32114" lon="-1.8902">
        <ele>24.8</ele>
        <time>2026-08-05T09:40:57Z</time>
      </trkpt>
      <trkpt lat="43.32114" lon="-1.89032">
        <ele>23</ele>
        <time>2026-08-05T09:40:58Z</time>
      </trkpt>
      <trkpt lat="43.32113" lon="-1.89044">
        <ele>22.2</ele>
        <time>2026-08-05T09:40:59Z</time>
      </trkpt>
      <trkpt lat="43.32113" lon="-1.89055">
        <ele>21.8</ele>
        <time>2026-08-05T09:41:00Z</time>
      </trkpt>
      <trkpt lat="43.32113" lon="-1.89066">
        <ele>20.6</ele>
        <time>2026-08-05T09:41:01Z</time>
      </trkpt>
      <trkpt lat="43.32112" lon="-1.89077">
        <ele>20.4</ele>
        <time>2026-08-05T09:41:02Z</time>
      </trkpt>
      <trkpt lat="43.32112" lon="-1.89087">
        <ele>19.2</ele>
        <time>2026-08-05T09:41:03Z</time>
      </trkpt>
      <trkpt lat="43.32112" lon="-1.89097">
        <ele>18.6</ele>
        <time>2026-08-05T09:41:04Z</time>
      </trkpt>
      <trkpt lat="43.32112" lon="-1.89108">
        <ele>17.6</ele>
        <time>2026-08-05T09:41:05Z</time>
      </trkpt>
      <trkpt lat="43.32111" lon="-1.89118">
        <ele>17.4</ele>
        <time>2026-08-05T09:41:06Z</time>
      </trkpt>
      <trkpt lat="43.32111" lon="-1.89128">
        <ele>16.4</ele>
        <time>2026-08-05T09:41:07Z</time>
      </trkpt>
      <trkpt lat="43.3211" lon="-1.89138">
        <ele>15.4</ele>
        <time>2026-08-05T09:41:08Z</time>
      </trkpt>
      <trkpt lat="43.3211" lon="-1.89148">
        <ele>15.4</ele>
        <time>2026-08-05T09:41:09Z</time>
      </trkpt>
      <trkpt lat="43.32109" lon="-1.89157">
        <ele>15.4</ele>
        <time>2026-08-05T09:41:10Z</time>
      </trkpt>
      <trkpt lat="43.32109" lon="-1.89166">
        <ele>15.4</ele>
        <time>2026-08-05T09:41:11Z</time>
      </trkpt>
      <trkpt lat="43.32109" lon="-1.89175">
        <ele>15.4</ele>
        <time>2026-08-05T09:41:12Z</time>
      </trkpt>
      <trkpt lat="43.32109" lon="-1.89184">
        <ele>13.2</ele>
        <time>2026-08-05T09:41:13Z</time>
      </trkpt>
      <trkpt lat="43.32109" lon="-1.89192">
        <ele>12.6</ele>
        <time>2026-08-05T09:41:14Z</time>
      </trkpt>
      <trkpt lat="43.32108" lon="-1.89201">
        <ele>12.4</ele>
        <time>2026-08-05T09:41:15Z</time>
      </trkpt>
      <trkpt lat="43.32108" lon="-1.89209">
        <ele>11</ele>
        <time>2026-08-05T09:41:16Z</time>
      </trkpt>
      <trkpt lat="43.32108" lon="-1.89217">
        <ele>10.8</ele>
        <time>2026-08-05T09:41:17Z</time>
      </trkpt>
      <trkpt lat="43.32108" lon="-1.89226">
        <ele>10.2</ele>
        <time>2026-08-05T09:41:18Z</time>
      </trkpt>
      <trkpt lat="43.32107" lon="-1.89234">
        <ele>10</ele>
        <time>2026-08-05T09:41:19Z</time>
      </trkpt>
      <trkpt lat="43.32107" lon="-1.89243">
        <ele>8.6</ele>
        <time>2026-08-05T09:41:20Z</time>
      </trkpt>
      <trkpt lat="43.32107" lon="-1.89252">
        <ele>7.8</ele>
        <time>2026-08-05T09:41:21Z</time>
      </trkpt>
      <trkpt lat="43.32107" lon="-1.89261">
        <ele>7.8</ele>
        <time>2026-08-05T09:41:22Z</time>
      </trkpt>
      <trkpt lat="43.32107" lon="-1.8927">
        <ele>7.8</ele>
        <time>2026-08-05T09:41:23Z</time>
      </trkpt>
      <trkpt lat="43.32106" lon="-1.89278">
        <ele>7.8</ele>
        <time>2026-08-05T09:41:24Z</time>
      </trkpt>
      <trkpt lat="43.32106" lon="-1.89287">
        <ele>7.8</ele>
        <time>2026-08-05T09:41:25Z</time>
      </trkpt>
      <trkpt lat="43.32106" lon="-1.89295">
        <ele>7.8</ele>
        <time>2026-08-05T09:41:26Z</time>
      </trkpt>
      <trkpt lat="43.32106" lon="-1.89302">
        <ele>7.8</ele>
        <time>2026-08-05T09:41:27Z</time>
      </trkpt>
      <trkpt lat="43.32106" lon="-1.89309">
        <ele>7</ele>
        <time>2026-08-05T09:41:28Z</time>
      </trkpt>
      <trkpt lat="43.32106" lon="-1.89316">
        <ele>6.6</ele>
        <time>2026-08-05T09:41:29Z</time>
      </trkpt>
      <trkpt lat="43.32105" lon="-1.89323">
        <ele>6.6</ele>
        <time>2026-08-05T09:41:30Z</time>
      </trkpt>
      <trkpt lat="43.32105" lon="-1.89331">
        <ele>6.6</ele>
        <time>2026-08-05T09:41:31Z</time>
      </trkpt>
      <trkpt lat="43.32105" lon="-1.89339">
        <ele>6.6</ele>
        <time>2026-08-05T09:41:32Z</time>
      </trkpt>
      <trkpt lat="43.32105" lon="-1.89347">
        <ele>5.8</ele>
        <time>2026-08-05T09:41:33Z</time>
      </trkpt>
      <trkpt lat="43.32104" lon="-1.89355">
        <ele>5.8</ele>
        <time>2026-08-05T09:41:34Z</time>
      </trkpt>
      <trkpt lat="43.32104" lon="-1.89363">
        <ele>5.6</ele>
        <time>2026-08-05T09:41:35Z</time>
      </trkpt>
      <trkpt lat="43.32104" lon="-1.89372">
        <ele>5.4</ele>
        <time>2026-08-05T09:41:36Z</time>
      </trkpt>
      <trkpt lat="43.32104" lon="-1.8938">
        <ele>5.4</ele>
        <time>2026-08-05T09:41:37Z</time>
      </trkpt>
      <trkpt lat="43.32104" lon="-1.89389">
        <ele>5.4</ele>
        <time>2026-08-05T09:41:38Z</time>
      </trkpt>
      <trkpt lat="43.32104" lon="-1.89397">
        <ele>5.4</ele>
        <time>2026-08-05T09:41:39Z</time>
      </trkpt>
      <trkpt lat="43.32104" lon="-1.89405">
        <ele>5.4</ele>
        <time>2026-08-05T09:41:40Z</time>
      </trkpt>
      <trkpt lat="43.32104" lon="-1.89413">
        <ele>5.4</ele>
        <time>2026-08-05T09:41:41Z</time>
      </trkpt>
      <trkpt lat="43.32104" lon="-1.89419">
        <ele>5.4</ele>
        <time>2026-08-05T09:41:42Z</time>
      </trkpt>
      <trkpt lat="43.32105" lon="-1.89425">
        <ele>5.4</ele>
        <time>2026-08-05T09:41:43Z</time>
      </trkpt>
      <trkpt lat="43.32105" lon="-1.89431">
        <ele>5.4</ele>
        <time>2026-08-05T09:41:44Z</time>
      </trkpt>
      <trkpt lat="43.32105" lon="-1.89435">
        <ele>5.4</ele>
        <time>2026-08-05T09:41:45Z</time>
      </trkpt>
      <trkpt lat="43.32105" lon="-1.89438">
        <ele>5.4</ele>
        <time>2026-08-05T09:41:46Z</time>
      </trkpt>
      <trkpt lat="43.32104" lon="-1.89439">
        <ele>5.4</ele>
        <time>2026-08-05T09:41:47Z</time>
      </trkpt>
      <trkpt lat="43.32104" lon="-1.89439">
        <ele>6.2</ele>
        <time>2026-08-05T09:41:48Z</time>
      </trkpt>
      <trkpt lat="43.32103" lon="-1.89442">
        <ele>6</ele>
        <time>2026-08-05T09:44:04Z</time>
      </trkpt>
      <trkpt lat="43.32103" lon="-1.89446">
        <ele>6</ele>
        <time>2026-08-05T09:44:05Z</time>
      </trkpt>
      <trkpt lat="43.32103" lon="-1.89451">
        <ele>6</ele>
        <time>2026-08-05T09:44:06Z</time>
      </trkpt>
      <trkpt lat="43.32102" lon="-1.89456">
        <ele>5.6</ele>
        <time>2026-08-05T09:44:07Z</time>
      </trkpt>
      <trkpt lat="43.32102" lon="-1.89462">
        <ele>5.4</ele>
        <time>2026-08-05T09:44:08Z</time>
      </trkpt>
      <trkpt lat="43.32101" lon="-1.89468">
        <ele>5.4</ele>
        <time>2026-08-05T09:44:09Z</time>
      </trkpt>
      <trkpt lat="43.32101" lon="-1.89474">
        <ele>5.4</ele>
        <time>2026-08-05T09:44:10Z</time>
      </trkpt>
      <trkpt lat="43.321" lon="-1.8948">
        <ele>5.4</ele>
        <time>2026-08-05T09:44:11Z</time>
      </trkpt>
      <trkpt lat="43.321" lon="-1.89486">
        <ele>5.2</ele>
        <time>2026-08-05T09:44:12Z</time>
      </trkpt>
      <trkpt lat="43.32099" lon="-1.89492">
        <ele>5</ele>
        <time>2026-08-05T09:44:13Z</time>
      </trkpt>
      <trkpt lat="43.32099" lon="-1.89499">
        <ele>5</ele>
        <time>2026-08-05T09:44:14Z</time>
      </trkpt>
      <trkpt lat="43.32099" lon="-1.89505">
        <ele>5</ele>
        <time>2026-08-05T09:44:15Z</time>
      </trkpt>
      <trkpt lat="43.32099" lon="-1.89512">
        <ele>5</ele>
        <time>2026-08-05T09:44:16Z</time>
      </trkpt>
      <trkpt lat="43.32099" lon="-1.89518">
        <ele>5</ele>
        <time>2026-08-05T09:44:17Z</time>
      </trkpt>
      <trkpt lat="43.32099" lon="-1.89524">
        <ele>5</ele>
        <time>2026-08-05T09:44:18Z</time>
      </trkpt>
      <trkpt lat="43.32098" lon="-1.8953">
        <ele>5</ele>
        <time>2026-08-05T09:44:19Z</time>
      </trkpt>
      <trkpt lat="43.32098" lon="-1.89537">
        <ele>5</ele>
        <time>2026-08-05T09:44:20Z</time>
      </trkpt>
      <trkpt lat="43.32097" lon="-1.89543">
        <ele>5</ele>
        <time>2026-08-05T09:44:21Z</time>
      </trkpt>
      <trkpt lat="43.32096" lon="-1.89549">
        <ele>5</ele>
        <time>2026-08-05T09:44:22Z</time>
      </trkpt>
      <trkpt lat="43.32095" lon="-1.89555">
        <ele>5</ele>
        <time>2026-08-05T09:44:23Z</time>
      </trkpt>
      <trkpt lat="43.32094" lon="-1.89561">
        <ele>5.2</ele>
        <time>2026-08-05T09:44:24Z</time>
      </trkpt>
      <trkpt lat="43.32093" lon="-1.89566">
        <ele>5.4</ele>
        <time>2026-08-05T09:44:25Z</time>
      </trkpt>
      <trkpt lat="43.32092" lon="-1.89572">
        <ele>5.4</ele>
        <time>2026-08-05T09:44:26Z</time>
      </trkpt>
      <trkpt lat="43.3209" lon="-1.89578">
        <ele>5.4</ele>
        <time>2026-08-05T09:44:27Z</time>
      </trkpt>
      <trkpt lat="43.32088" lon="-1.89583">
        <ele>5.4</ele>
        <time>2026-08-05T09:44:28Z</time>
      </trkpt>
      <trkpt lat="43.32087" lon="-1.89589">
        <ele>5.4</ele>
        <time>2026-08-05T09:44:29Z</time>
      </trkpt>
      <trkpt lat="43.32085" lon="-1.89595">
        <ele>5.4</ele>
        <time>2026-08-05T09:44:30Z</time>
      </trkpt>
      <trkpt lat="43.32083" lon="-1.896">
        <ele>5.4</ele>
        <time>2026-08-05T09:44:31Z</time>
      </trkpt>
      <trkpt lat="43.32081" lon="-1.89606">
        <ele>5</ele>
        <time>2026-08-05T09:44:32Z</time>
      </trkpt>
      <trkpt lat="43.32079" lon="-1.89612">
        <ele>5</ele>
        <time>2026-08-05T09:44:33Z</time>
      </trkpt>
      <trkpt lat="43.32077" lon="-1.89618">
        <ele>5</ele>
        <time>2026-08-05T09:44:34Z</time>
      </trkpt>
      <trkpt lat="43.32074" lon="-1.89625">
        <ele>4.8</ele>
        <time>2026-08-05T09:44:35Z</time>
      </trkpt>
      <trkpt lat="43.32072" lon="-1.89631">
        <ele>4.8</ele>
        <time>2026-08-05T09:44:36Z</time>
      </trkpt>
      <trkpt lat="43.3207" lon="-1.89636">
        <ele>5</ele>
        <time>2026-08-05T09:44:37Z</time>
      </trkpt>
      <trkpt lat="43.32068" lon="-1.89642">
        <ele>5</ele>
        <time>2026-08-05T09:44:38Z</time>
      </trkpt>
      <trkpt lat="43.32067" lon="-1.89648">
        <ele>5.6</ele>
        <time>2026-08-05T09:44:39Z</time>
      </trkpt>
      <trkpt lat="43.32065" lon="-1.89654">
        <ele>5.6</ele>
        <time>2026-08-05T09:44:40Z</time>
      </trkpt>
      <trkpt lat="43.32064" lon="-1.89659">
        <ele>5.6</ele>
        <time>2026-08-05T09:44:41Z</time>
      </trkpt>
      <trkpt lat="43.32063" lon="-1.89665">
        <ele>5.6</ele>
        <time>2026-08-05T09:44:42Z</time>
      </trkpt>
      <trkpt lat="43.32064" lon="-1.8967">
        <ele>5.6</ele>
        <time>2026-08-05T09:44:43Z</time>
      </trkpt>
      <trkpt lat="43.32065" lon="-1.89675">
        <ele>5.6</ele>
        <time>2026-08-05T09:44:44Z</time>
      </trkpt>
      <trkpt lat="43.32067" lon="-1.8968">
        <ele>5.6</ele>
        <time>2026-08-05T09:44:45Z</time>
      </trkpt>
      <trkpt lat="43.3207" lon="-1.89685">
        <ele>5.6</ele>
        <time>2026-08-05T09:44:46Z</time>
      </trkpt>
      <trkpt lat="43.32073" lon="-1.89689">
        <ele>5.6</ele>
        <time>2026-08-05T09:44:47Z</time>
      </trkpt>
      <trkpt lat="43.32077" lon="-1.89692">
        <ele>5.2</ele>
        <time>2026-08-05T09:44:48Z</time>
      </trkpt>
      <trkpt lat="43.32081" lon="-1.89694">
        <ele>5.2</ele>
        <time>2026-08-05T09:44:49Z</time>
      </trkpt>
      <trkpt lat="43.32085" lon="-1.89696">
        <ele>6</ele>
        <time>2026-08-05T09:44:50Z</time>
      </trkpt>
      <trkpt lat="43.32089" lon="-1.89698">
        <ele>6</ele>
        <time>2026-08-05T09:44:51Z</time>
      </trkpt>
      <trkpt lat="43.32094" lon="-1.897">
        <ele>6</ele>
        <time>2026-08-05T09:44:52Z</time>
      </trkpt>
      <trkpt lat="43.32099" lon="-1.89702">
        <ele>6</ele>
        <time>2026-08-05T09:44:53Z</time>
      </trkpt>
      <trkpt lat="43.32103" lon="-1.89704">
        <ele>6</ele>
        <time>2026-08-05T09:44:54Z</time>
      </trkpt>
      <trkpt lat="43.32108" lon="-1.89707">
        <ele>5.2</ele>
        <time>2026-08-05T09:44:55Z</time>
      </trkpt>
      <trkpt lat="43.32112" lon="-1.89709">
        <ele>5.2</ele>
        <time>2026-08-05T09:44:56Z</time>
      </trkpt>
      <trkpt lat="43.32116" lon="-1.89711">
        <ele>5.2</ele>
        <time>2026-08-05T09:44:57Z</time>
      </trkpt>
      <trkpt lat="43.3212" lon="-1.89714">
        <ele>5.8</ele>
        <time>2026-08-05T09:44:58Z</time>
      </trkpt>
      <trkpt lat="43.32124" lon="-1.89717">
        <ele>5.8</ele>
        <time>2026-08-05T09:44:59Z</time>
      </trkpt>
      <trkpt lat="43.32126" lon="-1.8972">
        <ele>6.2</ele>
        <time>2026-08-05T09:45:00Z</time>
      </trkpt>
      <trkpt lat="43.32128" lon="-1.89724">
        <ele>6.2</ele>
        <time>2026-08-05T09:45:01Z</time>
      </trkpt>
      <trkpt lat="43.32127" lon="-1.89727">
        <ele>6.8</ele>
        <time>2026-08-05T09:45:02Z</time>
      </trkpt>
      <trkpt lat="43.32125" lon="-1.89727">
        <ele>6.8</ele>
        <time>2026-08-05T09:45:03Z</time>
      </trkpt>
      <trkpt lat="43.32122" lon="-1.89726">
        <ele>6.8</ele>
        <time>2026-08-05T09:45:04Z</time>
      </trkpt>
      <trkpt lat="43.32119" lon="-1.89724">
        <ele>6</ele>
        <time>2026-08-05T09:45:05Z</time>
      </trkpt>
      <trkpt lat="43.32117" lon="-1.89721">
        <ele>6</ele>
        <time>2026-08-05T09:45:06Z</time>
      </trkpt>
      <trkpt lat="43.32114" lon="-1.8972">
        <ele>6</ele>
        <time>2026-08-05T09:45:07Z</time>
      </trkpt>
      <trkpt lat="43.32113" lon="-1.89719">
        <ele>6</ele>
        <time>2026-08-05T09:45:08Z</time>
      </trkpt>
      <trkpt lat="43.32111" lon="-1.89717">
        <ele>6</ele>
        <time>2026-08-05T09:45:09Z</time>
      </trkpt>
      <trkpt lat="43.32108" lon="-1.89715">
        <ele>6</ele>
        <time>2026-08-05T09:45:10Z</time>
      </trkpt>
      <trkpt lat="43.32105" lon="-1.89713">
        <ele>6</ele>
        <time>2026-08-05T09:45:11Z</time>
      </trkpt>
      <trkpt lat="43.32101" lon="-1.89711">
        <ele>6</ele>
        <time>2026-08-05T09:45:12Z</time>
      </trkpt>
      <trkpt lat="43.32098" lon="-1.8971">
        <ele>6</ele>
        <time>2026-08-05T09:45:13Z</time>
      </trkpt>
      <trkpt lat="43.32094" lon="-1.89709">
        <ele>5.2</ele>
        <time>2026-08-05T09:45:14Z</time>
      </trkpt>
      <trkpt lat="43.32089" lon="-1.89708">
        <ele>5.2</ele>
        <time>2026-08-05T09:45:15Z</time>
      </trkpt>
      <trkpt lat="43.32085" lon="-1.89707">
        <ele>5.8</ele>
        <time>2026-08-05T09:45:16Z</time>
      </trkpt>
      <trkpt lat="43.32081" lon="-1.89707">
        <ele>5.8</ele>
        <time>2026-08-05T09:45:17Z</time>
      </trkpt>
      <trkpt lat="43.32077" lon="-1.89708">
        <ele>6</ele>
        <time>2026-08-05T09:45:18Z</time>
      </trkpt>
      <trkpt lat="43.32074" lon="-1.89709">
        <ele>6</ele>
        <time>2026-08-05T09:45:19Z</time>
      </trkpt>
      <trkpt lat="43.32071" lon="-1.89711">
        <ele>7</ele>
        <time>2026-08-05T09:45:20Z</time>
      </trkpt>
      <trkpt lat="43.32069" lon="-1.89715">
        <ele>7</ele>
        <time>2026-08-05T09:45:21Z</time>
      </trkpt>
      <trkpt lat="43.32066" lon="-1.89717">
        <ele>6.6</ele>
        <time>2026-08-05T09:45:22Z</time>
      </trkpt>
      <trkpt lat="43.32063" lon="-1.8972">
        <ele>6.6</ele>
        <time>2026-08-05T09:45:23Z</time>
      </trkpt>
      <trkpt lat="43.3206" lon="-1.89722">
        <ele>6.6</ele>
        <time>2026-08-05T09:45:24Z</time>
      </trkpt>
      <trkpt lat="43.32055" lon="-1.89723">
        <ele>6.6</ele>
        <time>2026-08-05T09:45:25Z</time>
      </trkpt>
      <trkpt lat="43.32052" lon="-1.89725">
        <ele>6.4</ele>
        <time>2026-08-05T09:45:26Z</time>
      </trkpt>
      <trkpt lat="43.32048" lon="-1.89727">
        <ele>6.4</ele>
        <time>2026-08-05T09:45:27Z</time>
      </trkpt>
      <trkpt lat="43.32044" lon="-1.89729">
        <ele>6.4</ele>
        <time>2026-08-05T09:45:28Z</time>
      </trkpt>
      <trkpt lat="43.3204" lon="-1.89731">
        <ele>6.8</ele>
        <time>2026-08-05T09:45:29Z</time>
      </trkpt>
      <trkpt lat="43.32037" lon="-1.89733">
        <ele>6.8</ele>
        <time>2026-08-05T09:45:30Z</time>
      </trkpt>
      <trkpt lat="43.32033" lon="-1.89735">
        <ele>7.2</ele>
        <time>2026-08-05T09:45:31Z</time>
      </trkpt>
      <trkpt lat="43.3203" lon="-1.89736">
        <ele>7.2</ele>
        <time>2026-08-05T09:45:32Z</time>
      </trkpt>
      <trkpt lat="43.32027" lon="-1.89738">
        <ele>7.2</ele>
        <time>2026-08-05T09:45:33Z</time>
      </trkpt>
      <trkpt lat="43.32025" lon="-1.8974">
        <ele>7.2</ele>
        <time>2026-08-05T09:45:34Z</time>
      </trkpt>
      <trkpt lat="43.32022" lon="-1.89742">
        <ele>6.6</ele>
        <time>2026-08-05T09:45:35Z</time>
      </trkpt>
      <trkpt lat="43.32019" lon="-1.89743">
        <ele>6.6</ele>
        <time>2026-08-05T09:45:36Z</time>
      </trkpt>
      <trkpt lat="43.32015" lon="-1.89745">
        <ele>6.6</ele>
        <time>2026-08-05T09:45:37Z</time>
      </trkpt>
      <trkpt lat="43.32011" lon="-1.89746">
        <ele>6.6</ele>
        <time>2026-08-05T09:45:38Z</time>
      </trkpt>
      <trkpt lat="43.32007" lon="-1.89748">
        <ele>6.2</ele>
        <time>2026-08-05T09:45:39Z</time>
      </trkpt>
      <trkpt lat="43.32004" lon="-1.8975">
        <ele>6.2</ele>
        <time>2026-08-05T09:45:40Z</time>
      </trkpt>
      <trkpt lat="43.32001" lon="-1.89751">
        <ele>6.2</ele>
        <time>2026-08-05T09:45:41Z</time>
      </trkpt>
      <trkpt lat="43.31998" lon="-1.89753">
        <ele>6.2</ele>
        <time>2026-08-05T09:45:42Z</time>
      </trkpt>
      <trkpt lat="43.31994" lon="-1.89754">
        <ele>6</ele>
        <time>2026-08-05T09:45:43Z</time>
      </trkpt>
      <trkpt lat="43.31991" lon="-1.89755">
        <ele>5.2</ele>
        <time>2026-08-05T09:45:44Z</time>
      </trkpt>
      <trkpt lat="43.31988" lon="-1.89756">
        <ele>5.2</ele>
        <time>2026-08-05T09:45:45Z</time>
      </trkpt>
      <trkpt lat="43.31984" lon="-1.89757">
        <ele>5.2</ele>
        <time>2026-08-05T09:45:46Z</time>
      </trkpt>
      <trkpt lat="43.31981" lon="-1.89759">
        <ele>5.2</ele>
        <time>2026-08-05T09:45:47Z</time>
      </trkpt>
      <trkpt lat="43.31978" lon="-1.89761">
        <ele>5.2</ele>
        <time>2026-08-05T09:45:48Z</time>
      </trkpt>
      <trkpt lat="43.31974" lon="-1.89765">
        <ele>5.2</ele>
        <time>2026-08-05T09:45:49Z</time>
      </trkpt>
      <trkpt lat="43.31969" lon="-1.89768">
        <ele>4</ele>
        <time>2026-08-05T09:45:50Z</time>
      </trkpt>
      <trkpt lat="43.31965" lon="-1.89772">
        <ele>4</ele>
        <time>2026-08-05T09:45:51Z</time>
      </trkpt>
      <trkpt lat="43.31961" lon="-1.89774">
        <ele>4</ele>
        <time>2026-08-05T09:45:52Z</time>
      </trkpt>
      <trkpt lat="43.31957" lon="-1.89774">
        <ele>4</ele>
        <time>2026-08-05T09:45:53Z</time>
      </trkpt>
      <trkpt lat="43.31953" lon="-1.89775">
        <ele>3.8</ele>
        <time>2026-08-05T09:45:54Z</time>
      </trkpt>
      <trkpt lat="43.31949" lon="-1.89776">
        <ele>3.8</ele>
        <time>2026-08-05T09:45:55Z</time>
      </trkpt>
      <trkpt lat="43.31946" lon="-1.89778">
        <ele>3.8</ele>
        <time>2026-08-05T09:45:56Z</time>
      </trkpt>
      <trkpt lat="43.31943" lon="-1.89782">
        <ele>3.8</ele>
        <time>2026-08-05T09:45:57Z</time>
      </trkpt>
      <trkpt lat="43.31941" lon="-1.89785">
        <ele>3.6</ele>
        <time>2026-08-05T09:45:58Z</time>
      </trkpt>
      <trkpt lat="43.31939" lon="-1.89789">
        <ele>3.6</ele>
        <time>2026-08-05T09:45:59Z</time>
      </trkpt>
      <trkpt lat="43.31937" lon="-1.89794">
        <ele>3.6</ele>
        <time>2026-08-05T09:46:00Z</time>
      </trkpt>
      <trkpt lat="43.31935" lon="-1.89798">
        <ele>3.6</ele>
        <time>2026-08-05T09:46:01Z</time>
      </trkpt>
      <trkpt lat="43.31933" lon="-1.89803">
        <ele>4.2</ele>
        <time>2026-08-05T09:46:02Z</time>
      </trkpt>
      <trkpt lat="43.31931" lon="-1.89808">
        <ele>4.2</ele>
        <time>2026-08-05T09:46:03Z</time>
      </trkpt>
      <trkpt lat="43.3193" lon="-1.89813">
        <ele>4.2</ele>
        <time>2026-08-05T09:46:04Z</time>
      </trkpt>
      <trkpt lat="43.31929" lon="-1.89818">
        <ele>4.2</ele>
        <time>2026-08-05T09:46:05Z</time>
      </trkpt>
      <trkpt lat="43.31928" lon="-1.89823">
        <ele>4.2</ele>
        <time>2026-08-05T09:46:06Z</time>
      </trkpt>
      <trkpt lat="43.31927" lon="-1.89828">
        <ele>4.2</ele>
        <time>2026-08-05T09:46:07Z</time>
      </trkpt>
      <trkpt lat="43.31927" lon="-1.89832">
        <ele>4.8</ele>
        <time>2026-08-05T09:46:08Z</time>
      </trkpt>
      <trkpt lat="43.31926" lon="-1.89838">
        <ele>4.8</ele>
        <time>2026-08-05T09:46:09Z</time>
      </trkpt>
      <trkpt lat="43.31926" lon="-1.89844">
        <ele>4.8</ele>
        <time>2026-08-05T09:46:10Z</time>
      </trkpt>
      <trkpt lat="43.31925" lon="-1.89849">
        <ele>4.8</ele>
        <time>2026-08-05T09:46:11Z</time>
      </trkpt>
      <trkpt lat="43.31924" lon="-1.89854">
        <ele>4.8</ele>
        <time>2026-08-05T09:46:12Z</time>
      </trkpt>
      <trkpt lat="43.31925" lon="-1.8986">
        <ele>4.8</ele>
        <time>2026-08-05T09:46:13Z</time>
      </trkpt>
      <trkpt lat="43.31925" lon="-1.89866">
        <ele>4.8</ele>
        <time>2026-08-05T09:46:14Z</time>
      </trkpt>
      <trkpt lat="43.31925" lon="-1.89871">
        <ele>4.8</ele>
        <time>2026-08-05T09:46:15Z</time>
      </trkpt>
      <trkpt lat="43.31926" lon="-1.89876">
        <ele>5.2</ele>
        <time>2026-08-05T09:46:16Z</time>
      </trkpt>
      <trkpt lat="43.31925" lon="-1.89881">
        <ele>5.2</ele>
        <time>2026-08-05T09:46:17Z</time>
      </trkpt>
      <trkpt lat="43.31925" lon="-1.89887">
        <ele>5.4</ele>
        <time>2026-08-05T09:46:18Z</time>
      </trkpt>
      <trkpt lat="43.31925" lon="-1.89892">
        <ele>5.4</ele>
        <time>2026-08-05T09:46:19Z</time>
      </trkpt>
      <trkpt lat="43.31924" lon="-1.89897">
        <ele>6</ele>
        <time>2026-08-05T09:46:20Z</time>
      </trkpt>
      <trkpt lat="43.31924" lon="-1.89903">
        <ele>6</ele>
        <time>2026-08-05T09:46:21Z</time>
      </trkpt>
      <trkpt lat="43.31923" lon="-1.89908">
        <ele>6</ele>
        <time>2026-08-05T09:46:22Z</time>
      </trkpt>
      <trkpt lat="43.31923" lon="-1.89913">
        <ele>6</ele>
        <time>2026-08-05T09:46:23Z</time>
      </trkpt>
      <trkpt lat="43.31923" lon="-1.89917">
        <ele>5.4</ele>
        <time>2026-08-05T09:46:24Z</time>
      </trkpt>
      <trkpt lat="43.31923" lon="-1.89922">
        <ele>5.4</ele>
        <time>2026-08-05T09:46:25Z</time>
      </trkpt>
      <trkpt lat="43.31923" lon="-1.89925">
        <ele>5.4</ele>
        <time>2026-08-05T09:46:26Z</time>
      </trkpt>
      <trkpt lat="43.31923" lon="-1.89929">
        <ele>5.4</ele>
        <time>2026-08-05T09:46:27Z</time>
      </trkpt>
      <trkpt lat="43.31922" lon="-1.89933">
        <ele>5.6</ele>
        <time>2026-08-05T09:46:28Z</time>
      </trkpt>
      <trkpt lat="43.31923" lon="-1.89938">
        <ele>5.6</ele>
        <time>2026-08-05T09:46:29Z</time>
      </trkpt>
      <trkpt lat="43.31922" lon="-1.89942">
        <ele>5.6</ele>
        <time>2026-08-05T09:46:30Z</time>
      </trkpt>
      <trkpt lat="43.3192" lon="-1.89946">
        <ele>5.6</ele>
        <time>2026-08-05T09:46:31Z</time>
      </trkpt>
      <trkpt lat="43.31919" lon="-1.89952">
        <ele>5.6</ele>
        <time>2026-08-05T09:46:32Z</time>
      </trkpt>
      <trkpt lat="43.31917" lon="-1.89958">
        <ele>5.6</ele>
        <time>2026-08-05T09:46:33Z</time>
      </trkpt>
      <trkpt lat="43.31915" lon="-1.89963">
        <ele>5.6</ele>
        <time>2026-08-05T09:46:34Z</time>
      </trkpt>
      <trkpt lat="43.31913" lon="-1.89969">
        <ele>5.6</ele>
        <time>2026-08-05T09:46:35Z</time>
      </trkpt>
      <trkpt lat="43.31911" lon="-1.89975">
        <ele>5.6</ele>
        <time>2026-08-05T09:46:36Z</time>
      </trkpt>
      <trkpt lat="43.31909" lon="-1.89979">
        <ele>5.6</ele>
        <time>2026-08-05T09:46:37Z</time>
      </trkpt>
      <trkpt lat="43.31907" lon="-1.89983">
        <ele>6.8</ele>
        <time>2026-08-05T09:46:38Z</time>
      </trkpt>
      <trkpt lat="43.31905" lon="-1.89987">
        <ele>6.8</ele>
        <time>2026-08-05T09:46:39Z</time>
      </trkpt>
      <trkpt lat="43.31903" lon="-1.8999">
        <ele>7</ele>
        <time>2026-08-05T09:46:40Z</time>
      </trkpt>
      <trkpt lat="43.31901" lon="-1.89994">
        <ele>7.2</ele>
        <time>2026-08-05T09:46:41Z</time>
      </trkpt>
      <trkpt lat="43.319" lon="-1.89998">
        <ele>7.2</ele>
        <time>2026-08-05T09:46:42Z</time>
      </trkpt>
      <trkpt lat="43.31898" lon="-1.90002">
        <ele>7.2</ele>
        <time>2026-08-05T09:46:43Z</time>
      </trkpt>
      <trkpt lat="43.31897" lon="-1.90006">
        <ele>7.2</ele>
        <time>2026-08-05T09:46:44Z</time>
      </trkpt>
      <trkpt lat="43.31896" lon="-1.9001">
        <ele>7.2</ele>
        <time>2026-08-05T09:46:45Z</time>
      </trkpt>
      <trkpt lat="43.31894" lon="-1.90015">
        <ele>7.2</ele>
        <time>2026-08-05T09:46:46Z</time>
      </trkpt>
      <trkpt lat="43.31893" lon="-1.90019">
        <ele>7.2</ele>
        <time>2026-08-05T09:46:47Z</time>
      </trkpt>
      <trkpt lat="43.31892" lon="-1.90023">
        <ele>7.6</ele>
        <time>2026-08-05T09:46:48Z</time>
      </trkpt>
      <trkpt lat="43.31891" lon="-1.90027">
        <ele>7.6</ele>
        <time>2026-08-05T09:46:49Z</time>
      </trkpt>
      <trkpt lat="43.3189" lon="-1.9003">
        <ele>8</ele>
        <time>2026-08-05T09:46:50Z</time>
      </trkpt>
      <trkpt lat="43.31889" lon="-1.90033">
        <ele>8</ele>
        <time>2026-08-05T09:46:51Z</time>
      </trkpt>
      <trkpt lat="43.31889" lon="-1.90036">
        <ele>8</ele>
        <time>2026-08-05T09:46:52Z</time>
      </trkpt>
      <trkpt lat="43.31888" lon="-1.90036">
        <ele>8</ele>
        <time>2026-08-05T09:46:53Z</time>
      </trkpt>
      <trkpt lat="43.31887" lon="-1.90037">
        <ele>8</ele>
        <time>2026-08-05T09:46:54Z</time>
      </trkpt>
      <trkpt lat="43.31887" lon="-1.90037">
        <ele>8</ele>
        <time>2026-08-05T09:46:55Z</time>
      </trkpt>
      <trkpt lat="43.31882" lon="-1.90037">
        <ele>8</ele>
        <time>2026-08-05T09:47:06Z</time>
      </trkpt>
      <trkpt lat="43.31879" lon="-1.90039">
        <ele>8</ele>
        <time>2026-08-05T09:47:07Z</time>
      </trkpt>
      <trkpt lat="43.31877" lon="-1.90041">
        <ele>8</ele>
        <time>2026-08-05T09:47:08Z</time>
      </trkpt>
      <trkpt lat="43.31876" lon="-1.90045">
        <ele>8</ele>
        <time>2026-08-05T09:47:09Z</time>
      </trkpt>
      <trkpt lat="43.31875" lon="-1.9005">
        <ele>8</ele>
        <time>2026-08-05T09:47:10Z</time>
      </trkpt>
      <trkpt lat="43.31874" lon="-1.90054">
        <ele>8.2</ele>
        <time>2026-08-05T09:47:11Z</time>
      </trkpt>
      <trkpt lat="43.31873" lon="-1.90058">
        <ele>8.2</ele>
        <time>2026-08-05T09:47:12Z</time>
      </trkpt>
      <trkpt lat="43.31872" lon="-1.90062">
        <ele>8.2</ele>
        <time>2026-08-05T09:47:13Z</time>
      </trkpt>
      <trkpt lat="43.31871" lon="-1.90066">
        <ele>8.2</ele>
        <time>2026-08-05T09:47:14Z</time>
      </trkpt>
      <trkpt lat="43.3187" lon="-1.9007">
        <ele>9</ele>
        <time>2026-08-05T09:47:15Z</time>
      </trkpt>
      <trkpt lat="43.31869" lon="-1.90073">
        <ele>9.2</ele>
        <time>2026-08-05T09:47:16Z</time>
      </trkpt>
      <trkpt lat="43.31868" lon="-1.90077">
        <ele>9.6</ele>
        <time>2026-08-05T09:47:17Z</time>
      </trkpt>
      <trkpt lat="43.31867" lon="-1.9008">
        <ele>9.8</ele>
        <time>2026-08-05T09:47:18Z</time>
      </trkpt>
      <trkpt lat="43.31866" lon="-1.90082">
        <ele>10</ele>
        <time>2026-08-05T09:47:19Z</time>
      </trkpt>
      <trkpt lat="43.31866" lon="-1.90084">
        <ele>10</ele>
        <time>2026-08-05T09:47:20Z</time>
      </trkpt>
      <trkpt lat="43.31865" lon="-1.90085">
        <ele>10</ele>
        <time>2026-08-05T09:47:21Z</time>
      </trkpt>
      <trkpt lat="43.31865" lon="-1.90086">
        <ele>10</ele>
        <time>2026-08-05T09:47:22Z</time>
      </trkpt>
      <trkpt lat="43.31865" lon="-1.90087">
        <ele>10</ele>
        <time>2026-08-05T09:47:23Z</time>
      </trkpt>
      <trkpt lat="43.31864" lon="-1.90088">
        <ele>10.2</ele>
        <time>2026-08-05T09:47:24Z</time>
      </trkpt>
      <trkpt lat="43.31858" lon="-1.90095">
        <ele>9</ele>
        <time>2026-08-05T09:47:33Z</time>
      </trkpt>
      <trkpt lat="43.31856" lon="-1.90099">
        <ele>9</ele>
        <time>2026-08-05T09:47:34Z</time>
      </trkpt>
      <trkpt lat="43.31855" lon="-1.90103">
        <ele>8.8</ele>
        <time>2026-08-05T09:47:35Z</time>
      </trkpt>
      <trkpt lat="43.31853" lon="-1.90108">
        <ele>8.6</ele>
        <time>2026-08-05T09:47:36Z</time>
      </trkpt>
      <trkpt lat="43.3185" lon="-1.90113">
        <ele>8.4</ele>
        <time>2026-08-05T09:47:37Z</time>
      </trkpt>
      <trkpt lat="43.31847" lon="-1.90116">
        <ele>8.4</ele>
        <time>2026-08-05T09:47:38Z</time>
      </trkpt>
      <trkpt lat="43.31846" lon="-1.90118">
        <ele>8.6</ele>
        <time>2026-08-05T09:47:39Z</time>
      </trkpt>
      <trkpt lat="43.31846" lon="-1.9012">
        <ele>8.6</ele>
        <time>2026-08-05T09:47:40Z</time>
      </trkpt>
      <trkpt lat="43.31846" lon="-1.9012">
        <ele>8.6</ele>
        <time>2026-08-05T09:47:41Z</time>
      </trkpt>
      <trkpt lat="43.31846" lon="-1.9012">
        <ele>8.6</ele>
        <time>2026-08-05T09:47:42Z</time>
      </trkpt>
      <trkpt lat="43.31847" lon="-1.90119">
        <ele>8.2</ele>
        <time>2026-08-05T09:47:43Z</time>
      </trkpt>
      <trkpt lat="43.31847" lon="-1.90118">
        <ele>8.2</ele>
        <time>2026-08-05T09:47:44Z</time>
      </trkpt>
      <trkpt lat="43.3185" lon="-1.90109">
        <ele>8.2</ele>
        <time>2026-08-05T09:47:48Z</time>
      </trkpt>
      <trkpt lat="43.31865" lon="-1.90131">
        <ele>7.8</ele>
        <time>2026-08-05T09:47:49Z</time>
      </trkpt>
      <trkpt lat="43.31871" lon="-1.90136">
        <ele>7.6</ele>
        <time>2026-08-05T09:47:50Z</time>
      </trkpt>
      <trkpt lat="43.31876" lon="-1.9014">
        <ele>7.6</ele>
        <time>2026-08-05T09:47:51Z</time>
      </trkpt>
      <trkpt lat="43.3188" lon="-1.9014">
        <ele>7.6</ele>
        <time>2026-08-05T09:47:52Z</time>
      </trkpt>
      <trkpt lat="43.31883" lon="-1.9014">
        <ele>7.6</ele>
        <time>2026-08-05T09:47:53Z</time>
      </trkpt>
      <trkpt lat="43.31886" lon="-1.90137">
        <ele>7.6</ele>
        <time>2026-08-05T09:47:54Z</time>
      </trkpt>
      <trkpt lat="43.31889" lon="-1.90136">
        <ele>8.2</ele>
        <time>2026-08-05T09:47:55Z</time>
      </trkpt>
      <trkpt lat="43.31893" lon="-1.90134">
        <ele>8.4</ele>
        <time>2026-08-05T09:47:56Z</time>
      </trkpt>
      <trkpt lat="43.31896" lon="-1.90132">
        <ele>8.4</ele>
        <time>2026-08-05T09:47:57Z</time>
      </trkpt>
      <trkpt lat="43.319" lon="-1.9013">
        <ele>8.4</ele>
        <time>2026-08-05T09:47:58Z</time>
      </trkpt>
      <trkpt lat="43.31904" lon="-1.90128">
        <ele>8.4</ele>
        <time>2026-08-05T09:47:59Z</time>
      </trkpt>
      <trkpt lat="43.31907" lon="-1.90127">
        <ele>8.4</ele>
        <time>2026-08-05T09:48:00Z</time>
      </trkpt>
      <trkpt lat="43.3191" lon="-1.90125">
        <ele>8.6</ele>
        <time>2026-08-05T09:48:01Z</time>
      </trkpt>
      <trkpt lat="43.31912" lon="-1.90124">
        <ele>8.8</ele>
        <time>2026-08-05T09:48:02Z</time>
      </trkpt>
      <trkpt lat="43.31914" lon="-1.90124">
        <ele>8.8</ele>
        <time>2026-08-05T09:48:03Z</time>
      </trkpt>
      <trkpt lat="43.31915" lon="-1.90125">
        <ele>8.8</ele>
        <time>2026-08-05T09:48:04Z</time>
      </trkpt>
      <trkpt lat="43.31916" lon="-1.90126">
        <ele>8.8</ele>
        <time>2026-08-05T09:48:05Z</time>
      </trkpt>
      <trkpt lat="43.31916" lon="-1.90126">
        <ele>8.8</ele>
        <time>2026-08-05T09:48:06Z</time>
      </trkpt>
      <trkpt lat="43.31916" lon="-1.90126">
        <ele>8.8</ele>
        <time>2026-08-05T09:48:07Z</time>
      </trkpt>
      <trkpt lat="43.31912" lon="-1.90129">
        <ele>8.6</ele>
        <time>2026-08-05T09:48:49Z</time>
      </trkpt>
      <trkpt lat="43.31911" lon="-1.90129">
        <ele>8.6</ele>
        <time>2026-08-05T09:48:50Z</time>
      </trkpt>
      <trkpt lat="43.3191" lon="-1.90129">
        <ele>8.6</ele>
        <time>2026-08-05T09:48:51Z</time>
      </trkpt>
      <trkpt lat="43.31906" lon="-1.90132">
        <ele>8.6</ele>
        <time>2026-08-05T09:49:03Z</time>
      </trkpt>
      <trkpt lat="43.31903" lon="-1.90133">
        <ele>8.2</ele>
        <time>2026-08-05T09:49:04Z</time>
      </trkpt>
      <trkpt lat="43.31901" lon="-1.90134">
        <ele>8.2</ele>
        <time>2026-08-05T09:49:05Z</time>
      </trkpt>
      <trkpt lat="43.31898" lon="-1.90136">
        <ele>8.2</ele>
        <time>2026-08-05T09:49:06Z</time>
      </trkpt>
      <trkpt lat="43.31895" lon="-1.90137">
        <ele>8</ele>
        <time>2026-08-05T09:49:07Z</time>
      </trkpt>
      <trkpt lat="43.31892" lon="-1.90139">
        <ele>8</ele>
        <time>2026-08-05T09:49:08Z</time>
      </trkpt>
      <trkpt lat="43.31889" lon="-1.9014">
        <ele>8</ele>
        <time>2026-08-05T09:49:09Z</time>
      </trkpt>
      <trkpt lat="43.31886" lon="-1.90141">
        <ele>7.8</ele>
        <time>2026-08-05T09:49:10Z</time>
      </trkpt>
      <trkpt lat="43.31883" lon="-1.90143">
        <ele>7.8</ele>
        <time>2026-08-05T09:49:11Z</time>
      </trkpt>
      <trkpt lat="43.3188" lon="-1.90144">
        <ele>7.6</ele>
        <time>2026-08-05T09:49:12Z</time>
      </trkpt>
      <trkpt lat="43.31876" lon="-1.90144">
        <ele>7.6</ele>
        <time>2026-08-05T09:49:13Z</time>
      </trkpt>
      <trkpt lat="43.31873" lon="-1.90143">
        <ele>7.8</ele>
        <time>2026-08-05T09:49:14Z</time>
      </trkpt>
      <trkpt lat="43.31871" lon="-1.90141">
        <ele>7.8</ele>
        <time>2026-08-05T09:49:15Z</time>
      </trkpt>
      <trkpt lat="43.31868" lon="-1.9014">
        <ele>7.8</ele>
        <time>2026-08-05T09:49:16Z</time>
      </trkpt>
      <trkpt lat="43.31867" lon="-1.90138">
        <ele>7.8</ele>
        <time>2026-08-05T09:49:17Z</time>
      </trkpt>
      <trkpt lat="43.31866" lon="-1.90138">
        <ele>8</ele>
        <time>2026-08-05T09:49:18Z</time>
      </trkpt>
      <trkpt lat="43.31865" lon="-1.90139">
        <ele>8.2</ele>
        <time>2026-08-05T09:49:19Z</time>
      </trkpt>
      <trkpt lat="43.31864" lon="-1.90139">
        <ele>8.2</ele>
        <time>2026-08-05T09:49:20Z</time>
      </trkpt>
      <trkpt lat="43.31862" lon="-1.90141">
        <ele>8.2</ele>
        <time>2026-08-05T09:49:21Z</time>
      </trkpt>
      <trkpt lat="43.3186" lon="-1.90143">
        <ele>8.2</ele>
        <time>2026-08-05T09:49:22Z</time>
      </trkpt>
      <trkpt lat="43.31858" lon="-1.90143">
        <ele>8.2</ele>
        <time>2026-08-05T09:49:23Z</time>
      </trkpt>
      <trkpt lat="43.31854" lon="-1.90147">
        <ele>8.6</ele>
        <time>2026-08-05T09:49:24Z</time>
      </trkpt>
      <trkpt lat="43.31854" lon="-1.90147">
        <ele>8.6</ele>
        <time>2026-08-05T09:49:25Z</time>
      </trkpt>
      <trkpt lat="43.31854" lon="-1.90147">
        <ele>8.6</ele>
        <time>2026-08-05T09:49:26Z</time>
      </trkpt>
      <trkpt lat="43.31853" lon="-1.90127">
        <ele>8.6</ele>
        <time>2026-08-05T09:49:27Z</time>
      </trkpt>
      <trkpt lat="43.31853" lon="-1.90122">
        <ele>8.6</ele>
        <time>2026-08-05T09:49:28Z</time>
      </trkpt>
      <trkpt lat="43.31852" lon="-1.90117">
        <ele>9.2</ele>
        <time>2026-08-05T09:49:29Z</time>
      </trkpt>
      <trkpt lat="43.31851" lon="-1.90112">
        <ele>9.2</ele>
        <time>2026-08-05T09:49:30Z</time>
      </trkpt>
      <trkpt lat="43.3185" lon="-1.90109">
        <ele>9.4</ele>
        <time>2026-08-05T09:49:31Z</time>
      </trkpt>
      <trkpt lat="43.3185" lon="-1.90105">
        <ele>9.4</ele>
        <time>2026-08-05T09:49:32Z</time>
      </trkpt>
      <trkpt lat="43.31852" lon="-1.90101">
        <ele>9.8</ele>
        <time>2026-08-05T09:49:33Z</time>
      </trkpt>
      <trkpt lat="43.31852" lon="-1.90099">
        <ele>9.8</ele>
        <time>2026-08-05T09:49:34Z</time>
      </trkpt>
      <trkpt lat="43.31853" lon="-1.90097">
        <ele>9.8</ele>
        <time>2026-08-05T09:49:35Z</time>
      </trkpt>
      <trkpt lat="43.31854" lon="-1.90096">
        <ele>9.8</ele>
        <time>2026-08-05T09:49:36Z</time>
      </trkpt>
      <trkpt lat="43.31855" lon="-1.90095">
        <ele>10</ele>
        <time>2026-08-05T09:49:37Z</time>
      </trkpt>
      <trkpt lat="43.31855" lon="-1.90093">
        <ele>10</ele>
        <time>2026-08-05T09:49:38Z</time>
      </trkpt>
      <trkpt lat="43.31856" lon="-1.90091">
        <ele>10.2</ele>
        <time>2026-08-05T09:49:39Z</time>
      </trkpt>
      <trkpt lat="43.31857" lon="-1.90089">
        <ele>10.2</ele>
        <time>2026-08-05T09:49:40Z</time>
      </trkpt>
      <trkpt lat="43.31857" lon="-1.90087">
        <ele>10.2</ele>
        <time>2026-08-05T09:49:41Z</time>
      </trkpt>
      <trkpt lat="43.31858" lon="-1.90086">
        <ele>10.2</ele>
        <time>2026-08-05T09:49:42Z</time>
      </trkpt>
      <trkpt lat="43.31859" lon="-1.90085">
        <ele>10</ele>
        <time>2026-08-05T09:49:43Z</time>
      </trkpt>
      <trkpt lat="43.31859" lon="-1.90085">
        <ele>10</ele>
        <time>2026-08-05T09:49:44Z</time>
      </trkpt>
      <trkpt lat="43.31859" lon="-1.90085">
        <ele>10</ele>
        <time>2026-08-05T09:49:45Z</time>
      </trkpt>
      <trkpt lat="43.31862" lon="-1.90095">
        <ele>10.8</ele>
        <time>2026-08-05T09:49:51Z</time>
      </trkpt>
      <trkpt lat="43.31861" lon="-1.90099">
        <ele>10.8</ele>
        <time>2026-08-05T09:49:52Z</time>
      </trkpt>
      <trkpt lat="43.3186" lon="-1.90102">
        <ele>10.8</ele>
        <time>2026-08-05T09:49:53Z</time>
      </trkpt>
      <trkpt lat="43.31858" lon="-1.90106">
        <ele>10.8</ele>
        <time>2026-08-05T09:49:54Z</time>
      </trkpt>
      <trkpt lat="43.31857" lon="-1.9011">
        <ele>10.8</ele>
        <time>2026-08-05T09:49:55Z</time>
      </trkpt>
      <trkpt lat="43.31855" lon="-1.90114">
        <ele>12</ele>
        <time>2026-08-05T09:49:56Z</time>
      </trkpt>
      <trkpt lat="43.31853" lon="-1.90117">
        <ele>12</ele>
        <time>2026-08-05T09:49:57Z</time>
      </trkpt>
      <trkpt lat="43.31851" lon="-1.9012">
        <ele>12</ele>
        <time>2026-08-05T09:49:58Z</time>
      </trkpt>
      <trkpt lat="43.3185" lon="-1.90123">
        <ele>12.6</ele>
        <time>2026-08-05T09:49:59Z</time>
      </trkpt>
      <trkpt lat="43.31849" lon="-1.90125">
        <ele>12.6</ele>
        <time>2026-08-05T09:50:00Z</time>
      </trkpt>
      <trkpt lat="43.31847" lon="-1.90126">
        <ele>12.8</ele>
        <time>2026-08-05T09:50:01Z</time>
      </trkpt>
      <trkpt lat="43.31845" lon="-1.90128">
        <ele>13.2</ele>
        <time>2026-08-05T09:50:02Z</time>
      </trkpt>
      <trkpt lat="43.31844" lon="-1.90129">
        <ele>13.2</ele>
        <time>2026-08-05T09:50:03Z</time>
      </trkpt>
      <trkpt lat="43.31842" lon="-1.9013">
        <ele>13.2</ele>
        <time>2026-08-05T09:50:04Z</time>
      </trkpt>
      <trkpt lat="43.3184" lon="-1.90131">
        <ele>13.4</ele>
        <time>2026-08-05T09:50:05Z</time>
      </trkpt>
      <trkpt lat="43.31838" lon="-1.90132">
        <ele>13.6</ele>
        <time>2026-08-05T09:50:06Z</time>
      </trkpt>
      <trkpt lat="43.31836" lon="-1.90132">
        <ele>13.6</ele>
        <time>2026-08-05T09:50:07Z</time>
      </trkpt>
      <trkpt lat="43.31835" lon="-1.90131">
        <ele>13.8</ele>
        <time>2026-08-05T09:50:08Z</time>
      </trkpt>
      <trkpt lat="43.31834" lon="-1.90131">
        <ele>13.8</ele>
        <time>2026-08-05T09:50:09Z</time>
      </trkpt>
      <trkpt lat="43.31834" lon="-1.90131">
        <ele>13.8</ele>
        <time>2026-08-05T09:50:10Z</time>
      </trkpt>
      <trkpt lat="43.3183" lon="-1.90125">
        <ele>14.4</ele>
        <time>2026-08-05T09:50:29Z</time>
      </trkpt>
      <trkpt lat="43.31828" lon="-1.90123">
        <ele>14.4</ele>
        <time>2026-08-05T09:50:30Z</time>
      </trkpt>
      <trkpt lat="43.31826" lon="-1.9012">
        <ele>15</ele>
        <time>2026-08-05T09:50:31Z</time>
      </trkpt>
      <trkpt lat="43.31824" lon="-1.90118">
        <ele>15.2</ele>
        <time>2026-08-05T09:50:32Z</time>
      </trkpt>
      <trkpt lat="43.31821" lon="-1.90116">
        <ele>15.4</ele>
        <time>2026-08-05T09:50:33Z</time>
      </trkpt>
      <trkpt lat="43.31819" lon="-1.90115">
        <ele>15.4</ele>
        <time>2026-08-05T09:50:34Z</time>
      </trkpt>
      <trkpt lat="43.31816" lon="-1.90114">
        <ele>15.4</ele>
        <time>2026-08-05T09:50:35Z</time>
      </trkpt>
      <trkpt lat="43.31813" lon="-1.90114">
        <ele>15.8</ele>
        <time>2026-08-05T09:50:36Z</time>
      </trkpt>
      <trkpt lat="43.31811" lon="-1.90114">
        <ele>16.2</ele>
        <time>2026-08-05T09:50:37Z</time>
      </trkpt>
      <trkpt lat="43.31808" lon="-1.90115">
        <ele>16.4</ele>
        <time>2026-08-05T09:50:38Z</time>
      </trkpt>
      <trkpt lat="43.31806" lon="-1.90116">
        <ele>17</ele>
        <time>2026-08-05T09:50:39Z</time>
      </trkpt>
      <trkpt lat="43.31803" lon="-1.90117">
        <ele>17.2</ele>
        <time>2026-08-05T09:50:40Z</time>
      </trkpt>
      <trkpt lat="43.31801" lon="-1.90119">
        <ele>17.4</ele>
        <time>2026-08-05T09:50:41Z</time>
      </trkpt>
      <trkpt lat="43.31799" lon="-1.90121">
        <ele>17.8</ele>
        <time>2026-08-05T09:50:42Z</time>
      </trkpt>
      <trkpt lat="43.31797" lon="-1.90123">
        <ele>17.8</ele>
        <time>2026-08-05T09:50:43Z</time>
      </trkpt>
      <trkpt lat="43.31794" lon="-1.90125">
        <ele>17.8</ele>
        <time>2026-08-05T09:50:44Z</time>
      </trkpt>
      <trkpt lat="43.31792" lon="-1.90127">
        <ele>17.8</ele>
        <time>2026-08-05T09:50:45Z</time>
      </trkpt>
      <trkpt lat="43.3179" lon="-1.90129">
        <ele>18.2</ele>
        <time>2026-08-05T09:50:46Z</time>
      </trkpt>
      <trkpt lat="43.31788" lon="-1.90131">
        <ele>18.2</ele>
        <time>2026-08-05T09:50:47Z</time>
      </trkpt>
      <trkpt lat="43.31786" lon="-1.90133">
        <ele>18.2</ele>
        <time>2026-08-05T09:50:48Z</time>
      </trkpt>
      <trkpt lat="43.31784" lon="-1.90135">
        <ele>18.2</ele>
        <time>2026-08-05T09:50:49Z</time>
      </trkpt>
      <trkpt lat="43.31782" lon="-1.90137">
        <ele>18.2</ele>
        <time>2026-08-05T09:50:50Z</time>
      </trkpt>
      <trkpt lat="43.31781" lon="-1.90139">
        <ele>18.2</ele>
        <time>2026-08-05T09:50:51Z</time>
      </trkpt>
      <trkpt lat="43.31781" lon="-1.90141">
        <ele>18.4</ele>
        <time>2026-08-05T09:50:52Z</time>
      </trkpt>
      <trkpt lat="43.31782" lon="-1.90143">
        <ele>18.4</ele>
        <time>2026-08-05T09:50:53Z</time>
      </trkpt>
      <trkpt lat="43.31783" lon="-1.90146">
        <ele>18.4</ele>
        <time>2026-08-05T09:50:54Z</time>
      </trkpt>
      <trkpt lat="43.31785" lon="-1.90148">
        <ele>18.4</ele>
        <time>2026-08-05T09:50:55Z</time>
      </trkpt>
      <trkpt lat="43.31786" lon="-1.9015">
        <ele>18.4</ele>
        <time>2026-08-05T09:50:56Z</time>
      </trkpt>
      <trkpt lat="43.31786" lon="-1.90153">
        <ele>18.6</ele>
        <time>2026-08-05T09:50:57Z</time>
      </trkpt>
      <trkpt lat="43.31785" lon="-1.90154">
        <ele>18.6</ele>
        <time>2026-08-05T09:50:58Z</time>
      </trkpt>
      <trkpt lat="43.31784" lon="-1.90154">
        <ele>18.6</ele>
        <time>2026-08-05T09:50:59Z</time>
      </trkpt>
      <trkpt lat="43.31784" lon="-1.90155">
        <ele>18.6</ele>
        <time>2026-08-05T09:51:00Z</time>
      </trkpt>
      <trkpt lat="43.31784" lon="-1.90155">
        <ele>18.8</ele>
        <time>2026-08-05T09:51:01Z</time>
      </trkpt>
      <trkpt lat="43.3178" lon="-1.90159">
        <ele>17.6</ele>
        <time>2026-08-05T09:51:21Z</time>
      </trkpt>
      <trkpt lat="43.31777" lon="-1.90161">
        <ele>17.6</ele>
        <time>2026-08-05T09:51:22Z</time>
      </trkpt>
      <trkpt lat="43.31775" lon="-1.90164">
        <ele>17.6</ele>
        <time>2026-08-05T09:51:23Z</time>
      </trkpt>
      <trkpt lat="43.31773" lon="-1.90167">
        <ele>17.6</ele>
        <time>2026-08-05T09:51:24Z</time>
      </trkpt>
      <trkpt lat="43.31774" lon="-1.90171">
        <ele>16.4</ele>
        <time>2026-08-05T09:51:25Z</time>
      </trkpt>
      <trkpt lat="43.31776" lon="-1.90173">
        <ele>16.2</ele>
        <time>2026-08-05T09:51:26Z</time>
      </trkpt>
      <trkpt lat="43.31779" lon="-1.90173">
        <ele>16.2</ele>
        <time>2026-08-05T09:51:27Z</time>
      </trkpt>
      <trkpt lat="43.31782" lon="-1.90172">
        <ele>16.2</ele>
        <time>2026-08-05T09:51:28Z</time>
      </trkpt>
      <trkpt lat="43.31786" lon="-1.90171">
        <ele>16.2</ele>
        <time>2026-08-05T09:51:29Z</time>
      </trkpt>
      <trkpt lat="43.3179" lon="-1.90171">
        <ele>16.2</ele>
        <time>2026-08-05T09:51:30Z</time>
      </trkpt>
      <trkpt lat="43.31792" lon="-1.90174">
        <ele>15.8</ele>
        <time>2026-08-05T09:51:31Z</time>
      </trkpt>
      <trkpt lat="43.31793" lon="-1.90178">
        <ele>15.4</ele>
        <time>2026-08-05T09:51:32Z</time>
      </trkpt>
      <trkpt lat="43.31791" lon="-1.90182">
        <ele>15.4</ele>
        <time>2026-08-05T09:51:33Z</time>
      </trkpt>
      <trkpt lat="43.31789" lon="-1.90184">
        <ele>15.4</ele>
        <time>2026-08-05T09:51:34Z</time>
      </trkpt>
      <trkpt lat="43.31785" lon="-1.90186">
        <ele>15.4</ele>
        <time>2026-08-05T09:51:35Z</time>
      </trkpt>
      <trkpt lat="43.31782" lon="-1.90186">
        <ele>14.8</ele>
        <time>2026-08-05T09:51:36Z</time>
      </trkpt>
      <trkpt lat="43.31778" lon="-1.90187">
        <ele>14.6</ele>
        <time>2026-08-05T09:51:37Z</time>
      </trkpt>
      <trkpt lat="43.31775" lon="-1.90187">
        <ele>14.2</ele>
        <time>2026-08-05T09:51:38Z</time>
      </trkpt>
      <trkpt lat="43.31771" lon="-1.90187">
        <ele>14</ele>
        <time>2026-08-05T09:51:39Z</time>
      </trkpt>
      <trkpt lat="43.31768" lon="-1.90187">
        <ele>14</ele>
        <time>2026-08-05T09:51:40Z</time>
      </trkpt>
      <trkpt lat="43.31764" lon="-1.90187">
        <ele>14</ele>
        <time>2026-08-05T09:51:41Z</time>
      </trkpt>
      <trkpt lat="43.3176" lon="-1.90186">
        <ele>14</ele>
        <time>2026-08-05T09:51:42Z</time>
      </trkpt>
      <trkpt lat="43.31757" lon="-1.90186">
        <ele>14</ele>
        <time>2026-08-05T09:51:43Z</time>
      </trkpt>
      <trkpt lat="43.31753" lon="-1.90186">
        <ele>14</ele>
        <time>2026-08-05T09:51:44Z</time>
      </trkpt>
      <trkpt lat="43.3175" lon="-1.90187">
        <ele>14</ele>
        <time>2026-08-05T09:51:45Z</time>
      </trkpt>
      <trkpt lat="43.31746" lon="-1.90188">
        <ele>14</ele>
        <time>2026-08-05T09:51:46Z</time>
      </trkpt>
      <trkpt lat="43.31742" lon="-1.90187">
        <ele>14</ele>
        <time>2026-08-05T09:51:47Z</time>
      </trkpt>
      <trkpt lat="43.31738" lon="-1.90186">
        <ele>14</ele>
        <time>2026-08-05T09:51:48Z</time>
      </trkpt>
      <trkpt lat="43.31735" lon="-1.90185">
        <ele>14</ele>
        <time>2026-08-05T09:51:49Z</time>
      </trkpt>
      <trkpt lat="43.31731" lon="-1.90183">
        <ele>13.8</ele>
        <time>2026-08-05T09:51:50Z</time>
      </trkpt>
      <trkpt lat="43.31728" lon="-1.9018">
        <ele>13.8</ele>
        <time>2026-08-05T09:51:51Z</time>
      </trkpt>
      <trkpt lat="43.31725" lon="-1.90178">
        <ele>13.8</ele>
        <time>2026-08-05T09:51:52Z</time>
      </trkpt>
      <trkpt lat="43.31722" lon="-1.90176">
        <ele>13.8</ele>
        <time>2026-08-05T09:51:53Z</time>
      </trkpt>
      <trkpt lat="43.3172" lon="-1.90174">
        <ele>13.8</ele>
        <time>2026-08-05T09:51:54Z</time>
      </trkpt>
      <trkpt lat="43.31719" lon="-1.90173">
        <ele>13.8</ele>
        <time>2026-08-05T09:51:55Z</time>
      </trkpt>
      <trkpt lat="43.31718" lon="-1.90172">
        <ele>13.4</ele>
        <time>2026-08-05T09:51:56Z</time>
      </trkpt>
      <trkpt lat="43.31718" lon="-1.90172">
        <ele>13.4</ele>
        <time>2026-08-05T09:51:57Z</time>
      </trkpt>
      <trkpt lat="43.31714" lon="-1.90174">
        <ele>13.2</ele>
        <time>2026-08-05T09:52:10Z</time>
      </trkpt>
      <trkpt lat="43.31711" lon="-1.90174">
        <ele>13.4</ele>
        <time>2026-08-05T09:52:11Z</time>
      </trkpt>
      <trkpt lat="43.31709" lon="-1.90174">
        <ele>13.4</ele>
        <time>2026-08-05T09:52:12Z</time>
      </trkpt>
      <trkpt lat="43.31706" lon="-1.90173">
        <ele>13.4</ele>
        <time>2026-08-05T09:52:13Z</time>
      </trkpt>
      <trkpt lat="43.31704" lon="-1.90171">
        <ele>12.8</ele>
        <time>2026-08-05T09:52:14Z</time>
      </trkpt>
      <trkpt lat="43.31701" lon="-1.90168">
        <ele>12.8</ele>
        <time>2026-08-05T09:52:15Z</time>
      </trkpt>
      <trkpt lat="43.31699" lon="-1.90164">
        <ele>12.8</ele>
        <time>2026-08-05T09:52:16Z</time>
      </trkpt>
      <trkpt lat="43.31696" lon="-1.9016">
        <ele>12.8</ele>
        <time>2026-08-05T09:52:17Z</time>
      </trkpt>
      <trkpt lat="43.31693" lon="-1.90156">
        <ele>12.8</ele>
        <time>2026-08-05T09:52:18Z</time>
      </trkpt>
      <trkpt lat="43.31691" lon="-1.90151">
        <ele>12.8</ele>
        <time>2026-08-05T09:52:19Z</time>
      </trkpt>
      <trkpt lat="43.31688" lon="-1.90146">
        <ele>12.8</ele>
        <time>2026-08-05T09:52:20Z</time>
      </trkpt>
      <trkpt lat="43.31685" lon="-1.90141">
        <ele>12.8</ele>
        <time>2026-08-05T09:52:21Z</time>
      </trkpt>
      <trkpt lat="43.31682" lon="-1.90136">
        <ele>11.8</ele>
        <time>2026-08-05T09:52:22Z</time>
      </trkpt>
      <trkpt lat="43.31679" lon="-1.9013">
        <ele>10.8</ele>
        <time>2026-08-05T09:52:23Z</time>
      </trkpt>
      <trkpt lat="43.31676" lon="-1.90125">
        <ele>10.8</ele>
        <time>2026-08-05T09:52:24Z</time>
      </trkpt>
      <trkpt lat="43.31673" lon="-1.90119">
        <ele>10.8</ele>
        <time>2026-08-05T09:52:25Z</time>
      </trkpt>
      <trkpt lat="43.31669" lon="-1.90113">
        <ele>10.8</ele>
        <time>2026-08-05T09:52:26Z</time>
      </trkpt>
      <trkpt lat="43.31666" lon="-1.90108">
        <ele>10.8</ele>
        <time>2026-08-05T09:52:27Z</time>
      </trkpt>
      <trkpt lat="43.31663" lon="-1.90102">
        <ele>8.8</ele>
        <time>2026-08-05T09:52:28Z</time>
      </trkpt>
      <trkpt lat="43.3166" lon="-1.90096">
        <ele>8.8</ele>
        <time>2026-08-05T09:52:29Z</time>
      </trkpt>
      <trkpt lat="43.31656" lon="-1.90089">
        <ele>8.8</ele>
        <time>2026-08-05T09:52:30Z</time>
      </trkpt>
      <trkpt lat="43.31653" lon="-1.90083">
        <ele>9.8</ele>
        <time>2026-08-05T09:52:31Z</time>
      </trkpt>
      <trkpt lat="43.3165" lon="-1.90077">
        <ele>9.6</ele>
        <time>2026-08-05T09:52:32Z</time>
      </trkpt>
      <trkpt lat="43.31646" lon="-1.9007">
        <ele>9.4</ele>
        <time>2026-08-05T09:52:33Z</time>
      </trkpt>
      <trkpt lat="43.31643" lon="-1.90064">
        <ele>9.4</ele>
        <time>2026-08-05T09:52:34Z</time>
      </trkpt>
      <trkpt lat="43.31639" lon="-1.90057">
        <ele>9.4</ele>
        <time>2026-08-05T09:52:35Z</time>
      </trkpt>
      <trkpt lat="43.31635" lon="-1.9005">
        <ele>9.4</ele>
        <time>2026-08-05T09:52:36Z</time>
      </trkpt>
      <trkpt lat="43.31631" lon="-1.90044">
        <ele>9</ele>
        <time>2026-08-05T09:52:37Z</time>
      </trkpt>
      <trkpt lat="43.31628" lon="-1.90037">
        <ele>9</ele>
        <time>2026-08-05T09:52:38Z</time>
      </trkpt>
      <trkpt lat="43.31624" lon="-1.9003">
        <ele>9</ele>
        <time>2026-08-05T09:52:39Z</time>
      </trkpt>
      <trkpt lat="43.3162" lon="-1.90023">
        <ele>9</ele>
        <time>2026-08-05T09:52:40Z</time>
      </trkpt>
      <trkpt lat="43.31616" lon="-1.90016">
        <ele>9</ele>
        <time>2026-08-05T09:52:41Z</time>
      </trkpt>
      <trkpt lat="43.31612" lon="-1.90009">
        <ele>9</ele>
        <time>2026-08-05T09:52:42Z</time>
      </trkpt>
      <trkpt lat="43.31608" lon="-1.90003">
        <ele>9</ele>
        <time>2026-08-05T09:52:43Z</time>
      </trkpt>
      <trkpt lat="43.31604" lon="-1.89997">
        <ele>8</ele>
        <time>2026-08-05T09:52:44Z</time>
      </trkpt>
      <trkpt lat="43.31601" lon="-1.89991">
        <ele>8</ele>
        <time>2026-08-05T09:52:45Z</time>
      </trkpt>
      <trkpt lat="43.31598" lon="-1.89987">
        <ele>8</ele>
        <time>2026-08-05T09:52:46Z</time>
      </trkpt>
      <trkpt lat="43.31594" lon="-1.89983">
        <ele>8</ele>
        <time>2026-08-05T09:52:47Z</time>
      </trkpt>
      <trkpt lat="43.3159" lon="-1.8998">
        <ele>8</ele>
        <time>2026-08-05T09:52:48Z</time>
      </trkpt>
      <trkpt lat="43.31586" lon="-1.89979">
        <ele>6.4</ele>
        <time>2026-08-05T09:52:49Z</time>
      </trkpt>
      <trkpt lat="43.31581" lon="-1.89979">
        <ele>5.4</ele>
        <time>2026-08-05T09:52:50Z</time>
      </trkpt>
      <trkpt lat="43.31576" lon="-1.8998">
        <ele>5.4</ele>
        <time>2026-08-05T09:52:51Z</time>
      </trkpt>
      <trkpt lat="43.31572" lon="-1.89982">
        <ele>5.4</ele>
        <time>2026-08-05T09:52:52Z</time>
      </trkpt>
      <trkpt lat="43.31567" lon="-1.89984">
        <ele>5.4</ele>
        <time>2026-08-05T09:52:53Z</time>
      </trkpt>
      <trkpt lat="43.31563" lon="-1.89988">
        <ele>4.6</ele>
        <time>2026-08-05T09:52:54Z</time>
      </trkpt>
      <trkpt lat="43.3156" lon="-1.89993">
        <ele>4.2</ele>
        <time>2026-08-05T09:52:55Z</time>
      </trkpt>
      <trkpt lat="43.31557" lon="-1.89998">
        <ele>4.2</ele>
        <time>2026-08-05T09:52:56Z</time>
      </trkpt>
      <trkpt lat="43.31554" lon="-1.90004">
        <ele>4.2</ele>
        <time>2026-08-05T09:52:57Z</time>
      </trkpt>
      <trkpt lat="43.31551" lon="-1.90009">
        <ele>5.2</ele>
        <time>2026-08-05T09:52:58Z</time>
      </trkpt>
      <trkpt lat="43.31549" lon="-1.90015">
        <ele>5.2</ele>
        <time>2026-08-05T09:52:59Z</time>
      </trkpt>
      <trkpt lat="43.31546" lon="-1.9002">
        <ele>5.2</ele>
        <time>2026-08-05T09:53:00Z</time>
      </trkpt>
      <trkpt lat="43.31544" lon="-1.90025">
        <ele>5.2</ele>
        <time>2026-08-05T09:53:01Z</time>
      </trkpt>
      <trkpt lat="43.31541" lon="-1.9003">
        <ele>4.4</ele>
        <time>2026-08-05T09:53:02Z</time>
      </trkpt>
      <trkpt lat="43.31539" lon="-1.90034">
        <ele>4.4</ele>
        <time>2026-08-05T09:53:03Z</time>
      </trkpt>
      <trkpt lat="43.31538" lon="-1.90037">
        <ele>4.4</ele>
        <time>2026-08-05T09:53:04Z</time>
      </trkpt>
      <trkpt lat="43.31536" lon="-1.9004">
        <ele>4.4</ele>
        <time>2026-08-05T09:53:05Z</time>
      </trkpt>
      <trkpt lat="43.31535" lon="-1.90042">
        <ele>4.2</ele>
        <time>2026-08-05T09:53:06Z</time>
      </trkpt>
      <trkpt lat="43.31533" lon="-1.90044">
        <ele>4</ele>
        <time>2026-08-05T09:53:07Z</time>
      </trkpt>
      <trkpt lat="43.31531" lon="-1.90045">
        <ele>4</ele>
        <time>2026-08-05T09:53:08Z</time>
      </trkpt>
      <trkpt lat="43.31529" lon="-1.90045">
        <ele>4</ele>
        <time>2026-08-05T09:53:09Z</time>
      </trkpt>
      <trkpt lat="43.31526" lon="-1.90045">
        <ele>3.4</ele>
        <time>2026-08-05T09:53:10Z</time>
      </trkpt>
      <trkpt lat="43.31523" lon="-1.90043">
        <ele>3.4</ele>
        <time>2026-08-05T09:53:11Z</time>
      </trkpt>
      <trkpt lat="43.3152" lon="-1.90041">
        <ele>3.4</ele>
        <time>2026-08-05T09:53:12Z</time>
      </trkpt>
      <trkpt lat="43.31518" lon="-1.90038">
        <ele>3.4</ele>
        <time>2026-08-05T09:53:13Z</time>
      </trkpt>
      <trkpt lat="43.31515" lon="-1.90035">
        <ele>3.4</ele>
        <time>2026-08-05T09:53:14Z</time>
      </trkpt>
      <trkpt lat="43.31512" lon="-1.90032">
        <ele>3</ele>
        <time>2026-08-05T09:53:15Z</time>
      </trkpt>
      <trkpt lat="43.31508" lon="-1.90029">
        <ele>2.8</ele>
        <time>2026-08-05T09:53:16Z</time>
      </trkpt>
      <trkpt lat="43.31505" lon="-1.90026">
        <ele>2.4</ele>
        <time>2026-08-05T09:53:17Z</time>
      </trkpt>
      <trkpt lat="43.31502" lon="-1.90023">
        <ele>2.4</ele>
        <time>2026-08-05T09:53:18Z</time>
      </trkpt>
      <trkpt lat="43.31498" lon="-1.9002">
        <ele>2.4</ele>
        <time>2026-08-05T09:53:19Z</time>
      </trkpt>
      <trkpt lat="43.31495" lon="-1.90018">
        <ele>2.4</ele>
        <time>2026-08-05T09:53:20Z</time>
      </trkpt>
      <trkpt lat="43.31492" lon="-1.90016">
        <ele>2.4</ele>
        <time>2026-08-05T09:53:21Z</time>
      </trkpt>
      <trkpt lat="43.31489" lon="-1.90017">
        <ele>2.4</ele>
        <time>2026-08-05T09:53:22Z</time>
      </trkpt>
      <trkpt lat="43.31488" lon="-1.90019">
        <ele>2.4</ele>
        <time>2026-08-05T09:53:23Z</time>
      </trkpt>
      <trkpt lat="43.31487" lon="-1.90021">
        <ele>2</ele>
        <time>2026-08-05T09:53:24Z</time>
      </trkpt>
      <trkpt lat="43.31487" lon="-1.90021">
        <ele>2</ele>
        <time>2026-08-05T09:53:25Z</time>
      </trkpt>
      <trkpt lat="43.31487" lon="-1.90021">
        <ele>2</ele>
        <time>2026-08-05T09:53:26Z</time>
      </trkpt>
      <trkpt lat="43.31482" lon="-1.90028">
        <ele>1.4</ele>
        <time>2026-08-05T09:53:31Z</time>
      </trkpt>
      <trkpt lat="43.3148" lon="-1.90031">
        <ele>1.4</ele>
        <time>2026-08-05T09:53:32Z</time>
      </trkpt>
      <trkpt lat="43.31478" lon="-1.90035">
        <ele>1.4</ele>
        <time>2026-08-05T09:53:33Z</time>
      </trkpt>
      <trkpt lat="43.31476" lon="-1.9004">
        <ele>1.4</ele>
        <time>2026-08-05T09:53:34Z</time>
      </trkpt>
      <trkpt lat="43.31474" lon="-1.90044">
        <ele>1.4</ele>
        <time>2026-08-05T09:53:35Z</time>
      </trkpt>
      <trkpt lat="43.31472" lon="-1.90048">
        <ele>1.4</ele>
        <time>2026-08-05T09:53:36Z</time>
      </trkpt>
      <trkpt lat="43.31471" lon="-1.90052">
        <ele>1.4</ele>
        <time>2026-08-05T09:53:37Z</time>
      </trkpt>
      <trkpt lat="43.31471" lon="-1.90055">
        <ele>1.4</ele>
        <time>2026-08-05T09:53:38Z</time>
      </trkpt>
      <trkpt lat="43.31471" lon="-1.90057">
        <ele>1.4</ele>
        <time>2026-08-05T09:53:39Z</time>
      </trkpt>
      <trkpt lat="43.3147" lon="-1.9006">
        <ele>1.6</ele>
        <time>2026-08-05T09:53:40Z</time>
      </trkpt>
      <trkpt lat="43.31469" lon="-1.90063">
        <ele>1.6</ele>
        <time>2026-08-05T09:53:41Z</time>
      </trkpt>
      <trkpt lat="43.31468" lon="-1.90065">
        <ele>1.6</ele>
        <time>2026-08-05T09:53:42Z</time>
      </trkpt>
      <trkpt lat="43.31467" lon="-1.90068">
        <ele>1.6</ele>
        <time>2026-08-05T09:53:43Z</time>
      </trkpt>
      <trkpt lat="43.31466" lon="-1.9007">
        <ele>1.6</ele>
        <time>2026-08-05T09:53:44Z</time>
      </trkpt>
      <trkpt lat="43.31465" lon="-1.90072">
        <ele>1.6</ele>
        <time>2026-08-05T09:53:45Z</time>
      </trkpt>
      <trkpt lat="43.31464" lon="-1.90073">
        <ele>1.6</ele>
        <time>2026-08-05T09:53:46Z</time>
      </trkpt>
      <trkpt lat="43.31464" lon="-1.90073">
        <ele>1.6</ele>
        <time>2026-08-05T09:53:47Z</time>
      </trkpt>
      <trkpt lat="43.31472" lon="-1.90085">
        <ele>1.8</ele>
        <time>2026-08-05T09:53:56Z</time>
      </trkpt>
      <trkpt lat="43.31473" lon="-1.9009">
        <ele>1.8</ele>
        <time>2026-08-05T09:53:57Z</time>
      </trkpt>
      <trkpt lat="43.31473" lon="-1.90095">
        <ele>1.8</ele>
        <time>2026-08-05T09:53:58Z</time>
      </trkpt>
      <trkpt lat="43.31473" lon="-1.90099">
        <ele>1.6</ele>
        <time>2026-08-05T09:53:59Z</time>
      </trkpt>
      <trkpt lat="43.31474" lon="-1.90103">
        <ele>1.6</ele>
        <time>2026-08-05T09:54:00Z</time>
      </trkpt>
      <trkpt lat="43.31474" lon="-1.90106">
        <ele>1.6</ele>
        <time>2026-08-05T09:54:01Z</time>
      </trkpt>
      <trkpt lat="43.31474" lon="-1.90108">
        <ele>1.8</ele>
        <time>2026-08-05T09:54:02Z</time>
      </trkpt>
      <trkpt lat="43.31474" lon="-1.90111">
        <ele>1.8</ele>
        <time>2026-08-05T09:54:03Z</time>
      </trkpt>
      <trkpt lat="43.31474" lon="-1.90112">
        <ele>1.8</ele>
        <time>2026-08-05T09:54:04Z</time>
      </trkpt>
      <trkpt lat="43.31474" lon="-1.90112">
        <ele>1.8</ele>
        <time>2026-08-05T09:54:05Z</time>
      </trkpt>
      <trkpt lat="43.31475" lon="-1.901">
        <ele>1.8</ele>
        <time>2026-08-05T09:54:26Z</time>
      </trkpt>
      <trkpt lat="43.31474" lon="-1.90098">
        <ele>1.8</ele>
        <time>2026-08-05T09:54:27Z</time>
      </trkpt>
      <trkpt lat="43.31474" lon="-1.90097">
        <ele>1.8</ele>
        <time>2026-08-05T09:54:28Z</time>
      </trkpt>
      <trkpt lat="43.31474" lon="-1.90096">
        <ele>1.8</ele>
        <time>2026-08-05T09:54:29Z</time>
      </trkpt>
      <trkpt lat="43.3147" lon="-1.90096">
        <ele>1.4</ele>
        <time>2026-08-05T09:54:47Z</time>
      </trkpt>
      <trkpt lat="43.3147" lon="-1.90098">
        <ele>1.4</ele>
        <time>2026-08-05T09:54:48Z</time>
      </trkpt>
      <trkpt lat="43.3147" lon="-1.901">
        <ele>1.4</ele>
        <time>2026-08-05T09:54:49Z</time>
      </trkpt>
      <trkpt lat="43.3147" lon="-1.90101">
        <ele>1.4</ele>
        <time>2026-08-05T09:54:50Z</time>
      </trkpt>
      <trkpt lat="43.3147" lon="-1.90103">
        <ele>1.4</ele>
        <time>2026-08-05T09:54:51Z</time>
      </trkpt>
      <trkpt lat="43.31471" lon="-1.90105">
        <ele>1.8</ele>
        <time>2026-08-05T09:54:52Z</time>
      </trkpt>
      <trkpt lat="43.31471" lon="-1.90107">
        <ele>1.8</ele>
        <time>2026-08-05T09:54:53Z</time>
      </trkpt>
      <trkpt lat="43.31471" lon="-1.90108">
        <ele>1.8</ele>
        <time>2026-08-05T09:54:54Z</time>
      </trkpt>
      <trkpt lat="43.31471" lon="-1.9011">
        <ele>1.8</ele>
        <time>2026-08-05T09:54:55Z</time>
      </trkpt>
      <trkpt lat="43.31471" lon="-1.90112">
        <ele>1.8</ele>
        <time>2026-08-05T09:54:56Z</time>
      </trkpt>
      <trkpt lat="43.31471" lon="-1.90114">
        <ele>1</ele>
        <time>2026-08-05T09:54:57Z</time>
      </trkpt>
      <trkpt lat="43.31471" lon="-1.90116">
        <ele>1</ele>
        <time>2026-08-05T09:54:58Z</time>
      </trkpt>
      <trkpt lat="43.31471" lon="-1.90118">
        <ele>1</ele>
        <time>2026-08-05T09:54:59Z</time>
      </trkpt>
      <trkpt lat="43.3147" lon="-1.9012">
        <ele>1.8</ele>
        <time>2026-08-05T09:55:00Z</time>
      </trkpt>
      <trkpt lat="43.31471" lon="-1.90122">
        <ele>1.8</ele>
        <time>2026-08-05T09:55:01Z</time>
      </trkpt>
      <trkpt lat="43.3147" lon="-1.90123">
        <ele>1.8</ele>
        <time>2026-08-05T09:55:02Z</time>
      </trkpt>
      <trkpt lat="43.31471" lon="-1.90125">
        <ele>1.6</ele>
        <time>2026-08-05T09:55:03Z</time>
      </trkpt>
      <trkpt lat="43.31471" lon="-1.90126">
        <ele>1.4</ele>
        <time>2026-08-05T09:55:04Z</time>
      </trkpt>
      <trkpt lat="43.31471" lon="-1.90127">
        <ele>1.4</ele>
        <time>2026-08-05T09:55:05Z</time>
      </trkpt>
      <trkpt lat="43.31471" lon="-1.90128">
        <ele>1.4</ele>
        <time>2026-08-05T09:55:06Z</time>
      </trkpt>
      <trkpt lat="43.31479" lon="-1.90151">
        <ele>1.6</ele>
        <time>2026-08-05T09:55:24Z</time>
      </trkpt>
      <trkpt lat="43.31479" lon="-1.90152">
        <ele>1.6</ele>
        <time>2026-08-05T09:55:25Z</time>
      </trkpt>
      <trkpt lat="43.31479" lon="-1.90152">
        <ele>1.6</ele>
        <time>2026-08-05T09:55:26Z</time>
      </trkpt>
      <trkpt lat="43.3148" lon="-1.90158">
        <ele>1.6</ele>
        <time>2026-08-05T09:55:30Z</time>
      </trkpt>
      <trkpt lat="43.31481" lon="-1.9016">
        <ele>1.6</ele>
        <time>2026-08-05T09:55:31Z</time>
      </trkpt>
      <trkpt lat="43.31481" lon="-1.90163">
        <ele>1.6</ele>
        <time>2026-08-05T09:55:32Z</time>
      </trkpt>
      <trkpt lat="43.31481" lon="-1.90167">
        <ele>1.2</ele>
        <time>2026-08-05T09:55:33Z</time>
      </trkpt>
      <trkpt lat="43.31481" lon="-1.90171">
        <ele>0.6</ele>
        <time>2026-08-05T09:55:34Z</time>
      </trkpt>
      <trkpt lat="43.31481" lon="-1.90177">
        <ele>-0.4</ele>
        <time>2026-08-05T09:55:35Z</time>
      </trkpt>
      <trkpt lat="43.31482" lon="-1.90183">
        <ele>-0.4</ele>
        <time>2026-08-05T09:55:36Z</time>
      </trkpt>
      <trkpt lat="43.31482" lon="-1.90186">
        <ele>-0.4</ele>
        <time>2026-08-05T09:55:37Z</time>
      </trkpt>
      <trkpt lat="43.31483" lon="-1.9019">
        <ele>-0.4</ele>
        <time>2026-08-05T09:55:38Z</time>
      </trkpt>
      <trkpt lat="43.31484" lon="-1.90195">
        <ele>1.2</ele>
        <time>2026-08-05T09:55:39Z</time>
      </trkpt>
      <trkpt lat="43.31485" lon="-1.902">
        <ele>1.2</ele>
        <time>2026-08-05T09:55:40Z</time>
      </trkpt>
      <trkpt lat="43.31485" lon="-1.90206">
        <ele>1.2</ele>
        <time>2026-08-05T09:55:41Z</time>
      </trkpt>
      <trkpt lat="43.31485" lon="-1.90211">
        <ele>1.2</ele>
        <time>2026-08-05T09:55:42Z</time>
      </trkpt>
      <trkpt lat="43.31485" lon="-1.90217">
        <ele>1.2</ele>
        <time>2026-08-05T09:55:43Z</time>
      </trkpt>
      <trkpt lat="43.31485" lon="-1.90224">
        <ele>1.6</ele>
        <time>2026-08-05T09:55:44Z</time>
      </trkpt>
      <trkpt lat="43.31486" lon="-1.90229">
        <ele>2.4</ele>
        <time>2026-08-05T09:55:45Z</time>
      </trkpt>
      <trkpt lat="43.31486" lon="-1.90235">
        <ele>3.2</ele>
        <time>2026-08-05T09:55:46Z</time>
      </trkpt>
      <trkpt lat="43.31487" lon="-1.9024">
        <ele>3.2</ele>
        <time>2026-08-05T09:55:47Z</time>
      </trkpt>
      <trkpt lat="43.31488" lon="-1.90246">
        <ele>3.2</ele>
        <time>2026-08-05T09:55:48Z</time>
      </trkpt>
      <trkpt lat="43.31489" lon="-1.90251">
        <ele>2.2</ele>
        <time>2026-08-05T09:55:49Z</time>
      </trkpt>
      <trkpt lat="43.31489" lon="-1.90254">
        <ele>2.2</ele>
        <time>2026-08-05T09:55:50Z</time>
      </trkpt>
      <trkpt lat="43.3149" lon="-1.90257">
        <ele>1.4</ele>
        <time>2026-08-05T09:55:51Z</time>
      </trkpt>
      <trkpt lat="43.3149" lon="-1.90261">
        <ele>1.4</ele>
        <time>2026-08-05T09:55:52Z</time>
      </trkpt>
      <trkpt lat="43.3149" lon="-1.90264">
        <ele>1.4</ele>
        <time>2026-08-05T09:55:53Z</time>
      </trkpt>
      <trkpt lat="43.3149" lon="-1.90267">
        <ele>1.6</ele>
        <time>2026-08-05T09:55:54Z</time>
      </trkpt>
      <trkpt lat="43.3149" lon="-1.9027">
        <ele>1.6</ele>
        <time>2026-08-05T09:55:55Z</time>
      </trkpt>
      <trkpt lat="43.3149" lon="-1.90273">
        <ele>1.4</ele>
        <time>2026-08-05T09:55:56Z</time>
      </trkpt>
      <trkpt lat="43.31491" lon="-1.90276">
        <ele>1.4</ele>
        <time>2026-08-05T09:55:57Z</time>
      </trkpt>
      <trkpt lat="43.31491" lon="-1.9028">
        <ele>1.4</ele>
        <time>2026-08-05T09:55:58Z</time>
      </trkpt>
      <trkpt lat="43.31492" lon="-1.90285">
        <ele>1.4</ele>
        <time>2026-08-05T09:55:59Z</time>
      </trkpt>
      <trkpt lat="43.31492" lon="-1.90289">
        <ele>2</ele>
        <time>2026-08-05T09:56:00Z</time>
      </trkpt>
      <trkpt lat="43.31492" lon="-1.90294">
        <ele>2</ele>
        <time>2026-08-05T09:56:01Z</time>
      </trkpt>
      <trkpt lat="43.31493" lon="-1.90299">
        <ele>2.2</ele>
        <time>2026-08-05T09:56:02Z</time>
      </trkpt>
      <trkpt lat="43.31493" lon="-1.90304">
        <ele>2.2</ele>
        <time>2026-08-05T09:56:03Z</time>
      </trkpt>
      <trkpt lat="43.31493" lon="-1.90309">
        <ele>2.2</ele>
        <time>2026-08-05T09:56:04Z</time>
      </trkpt>
      <trkpt lat="43.31493" lon="-1.90315">
        <ele>2</ele>
        <time>2026-08-05T09:56:05Z</time>
      </trkpt>
      <trkpt lat="43.31494" lon="-1.90321">
        <ele>2</ele>
        <time>2026-08-05T09:56:06Z</time>
      </trkpt>
      <trkpt lat="43.31494" lon="-1.90326">
        <ele>2</ele>
        <time>2026-08-05T09:56:07Z</time>
      </trkpt>
      <trkpt lat="43.31494" lon="-1.90332">
        <ele>2</ele>
        <time>2026-08-05T09:56:08Z</time>
      </trkpt>
      <trkpt lat="43.31494" lon="-1.90338">
        <ele>2</ele>
        <time>2026-08-05T09:56:09Z</time>
      </trkpt>
      <trkpt lat="43.31495" lon="-1.90344">
        <ele>3</ele>
        <time>2026-08-05T09:56:10Z</time>
      </trkpt>
      <trkpt lat="43.31495" lon="-1.9035">
        <ele>3</ele>
        <time>2026-08-05T09:56:11Z</time>
      </trkpt>
      <trkpt lat="43.31496" lon="-1.90355">
        <ele>3</ele>
        <time>2026-08-05T09:56:12Z</time>
      </trkpt>
      <trkpt lat="43.31496" lon="-1.90359">
        <ele>3</ele>
        <time>2026-08-05T09:56:13Z</time>
      </trkpt>
      <trkpt lat="43.31494" lon="-1.90363">
        <ele>3</ele>
        <time>2026-08-05T09:56:14Z</time>
      </trkpt>
      <trkpt lat="43.31493" lon="-1.90367">
        <ele>3</ele>
        <time>2026-08-05T09:56:15Z</time>
      </trkpt>
      <trkpt lat="43.31491" lon="-1.9037">
        <ele>3</ele>
        <time>2026-08-05T09:56:16Z</time>
      </trkpt>
      <trkpt lat="43.31491" lon="-1.90375">
        <ele>3</ele>
        <time>2026-08-05T09:56:17Z</time>
      </trkpt>
      <trkpt lat="43.31491" lon="-1.9038">
        <ele>3</ele>
        <time>2026-08-05T09:56:18Z</time>
      </trkpt>
      <trkpt lat="43.3149" lon="-1.90384">
        <ele>3.4</ele>
        <time>2026-08-05T09:56:19Z</time>
      </trkpt>
      <trkpt lat="43.3149" lon="-1.90389">
        <ele>4</ele>
        <time>2026-08-05T09:56:20Z</time>
      </trkpt>
      <trkpt lat="43.31489" lon="-1.90393">
        <ele>4</ele>
        <time>2026-08-05T09:56:21Z</time>
      </trkpt>
      <trkpt lat="43.31488" lon="-1.90396">
        <ele>4.2</ele>
        <time>2026-08-05T09:56:22Z</time>
      </trkpt>
      <trkpt lat="43.31486" lon="-1.90399">
        <ele>4.4</ele>
        <time>2026-08-05T09:56:23Z</time>
      </trkpt>
      <trkpt lat="43.31484" lon="-1.90402">
        <ele>5</ele>
        <time>2026-08-05T09:56:24Z</time>
      </trkpt>
      <trkpt lat="43.31482" lon="-1.90406">
        <ele>5</ele>
        <time>2026-08-05T09:56:25Z</time>
      </trkpt>
      <trkpt lat="43.31481" lon="-1.9041">
        <ele>5</ele>
        <time>2026-08-05T09:56:26Z</time>
      </trkpt>
      <trkpt lat="43.3148" lon="-1.90413">
        <ele>5</ele>
        <time>2026-08-05T09:56:27Z</time>
      </trkpt>
      <trkpt lat="43.31479" lon="-1.90417">
        <ele>5</ele>
        <time>2026-08-05T09:56:28Z</time>
      </trkpt>
      <trkpt lat="43.31479" lon="-1.90419">
        <ele>5</ele>
        <time>2026-08-05T09:56:29Z</time>
      </trkpt>
      <trkpt lat="43.31478" lon="-1.90422">
        <ele>5.8</ele>
        <time>2026-08-05T09:56:30Z</time>
      </trkpt>
      <trkpt lat="43.31478" lon="-1.90424">
        <ele>5.8</ele>
        <time>2026-08-05T09:56:31Z</time>
      </trkpt>
      <trkpt lat="43.31478" lon="-1.90426">
        <ele>5.8</ele>
        <time>2026-08-05T09:56:32Z</time>
      </trkpt>
      <trkpt lat="43.31478" lon="-1.90429">
        <ele>5.8</ele>
        <time>2026-08-05T09:56:33Z</time>
      </trkpt>
      <trkpt lat="43.31479" lon="-1.90432">
        <ele>5.8</ele>
        <time>2026-08-05T09:56:34Z</time>
      </trkpt>
      <trkpt lat="43.3148" lon="-1.90434">
        <ele>6</ele>
        <time>2026-08-05T09:56:35Z</time>
      </trkpt>
      <trkpt lat="43.31482" lon="-1.90435">
        <ele>6</ele>
        <time>2026-08-05T09:56:36Z</time>
      </trkpt>
      <trkpt lat="43.31483" lon="-1.90434">
        <ele>6</ele>
        <time>2026-08-05T09:56:37Z</time>
      </trkpt>
      <trkpt lat="43.31485" lon="-1.90432">
        <ele>6</ele>
        <time>2026-08-05T09:56:38Z</time>
      </trkpt>
      <trkpt lat="43.31486" lon="-1.90431">
        <ele>6</ele>
        <time>2026-08-05T09:56:39Z</time>
      </trkpt>
      <trkpt lat="43.31488" lon="-1.90429">
        <ele>5.6</ele>
        <time>2026-08-05T09:56:40Z</time>
      </trkpt>
      <trkpt lat="43.31491" lon="-1.90428">
        <ele>5.6</ele>
        <time>2026-08-05T09:56:41Z</time>
      </trkpt>
      <trkpt lat="43.31494" lon="-1.90427">
        <ele>5.6</ele>
        <time>2026-08-05T09:56:42Z</time>
      </trkpt>
      <trkpt lat="43.31496" lon="-1.90427">
        <ele>5.6</ele>
        <time>2026-08-05T09:56:43Z</time>
      </trkpt>
      <trkpt lat="43.31499" lon="-1.90429">
        <ele>5.6</ele>
        <time>2026-08-05T09:56:44Z</time>
      </trkpt>
      <trkpt lat="43.31501" lon="-1.90431">
        <ele>5.6</ele>
        <time>2026-08-05T09:56:45Z</time>
      </trkpt>
      <trkpt lat="43.31504" lon="-1.90433">
        <ele>5.6</ele>
        <time>2026-08-05T09:56:46Z</time>
      </trkpt>
      <trkpt lat="43.31506" lon="-1.90435">
        <ele>5.6</ele>
        <time>2026-08-05T09:56:47Z</time>
      </trkpt>
      <trkpt lat="43.31508" lon="-1.90438">
        <ele>5.6</ele>
        <time>2026-08-05T09:56:48Z</time>
      </trkpt>
      <trkpt lat="43.3151" lon="-1.90441">
        <ele>6.2</ele>
        <time>2026-08-05T09:56:49Z</time>
      </trkpt>
      <trkpt lat="43.31512" lon="-1.90443">
        <ele>6.2</ele>
        <time>2026-08-05T09:56:50Z</time>
      </trkpt>
      <trkpt lat="43.31515" lon="-1.90446">
        <ele>6.2</ele>
        <time>2026-08-05T09:56:51Z</time>
      </trkpt>
      <trkpt lat="43.31517" lon="-1.90448">
        <ele>6</ele>
        <time>2026-08-05T09:56:52Z</time>
      </trkpt>
      <trkpt lat="43.31519" lon="-1.9045">
        <ele>5.8</ele>
        <time>2026-08-05T09:56:53Z</time>
      </trkpt>
      <trkpt lat="43.31522" lon="-1.90452">
        <ele>5.8</ele>
        <time>2026-08-05T09:56:54Z</time>
      </trkpt>
      <trkpt lat="43.31525" lon="-1.90454">
        <ele>5.8</ele>
        <time>2026-08-05T09:56:55Z</time>
      </trkpt>
      <trkpt lat="43.31527" lon="-1.90456">
        <ele>5.8</ele>
        <time>2026-08-05T09:56:56Z</time>
      </trkpt>
      <trkpt lat="43.31529" lon="-1.90458">
        <ele>5.8</ele>
        <time>2026-08-05T09:56:57Z</time>
      </trkpt>
      <trkpt lat="43.31532" lon="-1.9046">
        <ele>5.8</ele>
        <time>2026-08-05T09:56:58Z</time>
      </trkpt>
      <trkpt lat="43.31533" lon="-1.90462">
        <ele>5.8</ele>
        <time>2026-08-05T09:56:59Z</time>
      </trkpt>
      <trkpt lat="43.31535" lon="-1.90465">
        <ele>6</ele>
        <time>2026-08-05T09:57:00Z</time>
      </trkpt>
      <trkpt lat="43.31537" lon="-1.90467">
        <ele>6</ele>
        <time>2026-08-05T09:57:01Z</time>
      </trkpt>
      <trkpt lat="43.3154" lon="-1.9047">
        <ele>6.4</ele>
        <time>2026-08-05T09:57:02Z</time>
      </trkpt>
      <trkpt lat="43.31543" lon="-1.90472">
        <ele>6.4</ele>
        <time>2026-08-05T09:57:03Z</time>
      </trkpt>
      <trkpt lat="43.31546" lon="-1.90474">
        <ele>6.4</ele>
        <time>2026-08-05T09:57:04Z</time>
      </trkpt>
      <trkpt lat="43.31548" lon="-1.90475">
        <ele>6.4</ele>
        <time>2026-08-05T09:57:05Z</time>
      </trkpt>
      <trkpt lat="43.31551" lon="-1.90477">
        <ele>6.6</ele>
        <time>2026-08-05T09:57:06Z</time>
      </trkpt>
      <trkpt lat="43.31554" lon="-1.90479">
        <ele>6.8</ele>
        <time>2026-08-05T09:57:07Z</time>
      </trkpt>
      <trkpt lat="43.31556" lon="-1.9048">
        <ele>7</ele>
        <time>2026-08-05T09:57:08Z</time>
      </trkpt>
      <trkpt lat="43.31559" lon="-1.90482">
        <ele>7</ele>
        <time>2026-08-05T09:57:09Z</time>
      </trkpt>
      <trkpt lat="43.31562" lon="-1.90483">
        <ele>7</ele>
        <time>2026-08-05T09:57:10Z</time>
      </trkpt>
      <trkpt lat="43.31564" lon="-1.90484">
        <ele>7</ele>
        <time>2026-08-05T09:57:11Z</time>
      </trkpt>
      <trkpt lat="43.31567" lon="-1.90486">
        <ele>7.4</ele>
        <time>2026-08-05T09:57:12Z</time>
      </trkpt>
      <trkpt lat="43.3157" lon="-1.90487">
        <ele>7.4</ele>
        <time>2026-08-05T09:57:13Z</time>
      </trkpt>
      <trkpt lat="43.31572" lon="-1.90489">
        <ele>7.4</ele>
        <time>2026-08-05T09:57:14Z</time>
      </trkpt>
      <trkpt lat="43.31575" lon="-1.90491">
        <ele>8</ele>
        <time>2026-08-05T09:57:15Z</time>
      </trkpt>
      <trkpt lat="43.31577" lon="-1.90493">
        <ele>8</ele>
        <time>2026-08-05T09:57:16Z</time>
      </trkpt>
      <trkpt lat="43.3158" lon="-1.90495">
        <ele>8</ele>
        <time>2026-08-05T09:57:17Z</time>
      </trkpt>
      <trkpt lat="43.31582" lon="-1.90497">
        <ele>8</ele>
        <time>2026-08-05T09:57:18Z</time>
      </trkpt>
      <trkpt lat="43.31585" lon="-1.90498">
        <ele>8</ele>
        <time>2026-08-05T09:57:19Z</time>
      </trkpt>
      <trkpt lat="43.31588" lon="-1.90499">
        <ele>8.8</ele>
        <time>2026-08-05T09:57:20Z</time>
      </trkpt>
      <trkpt lat="43.31591" lon="-1.905">
        <ele>8.8</ele>
        <time>2026-08-05T09:57:21Z</time>
      </trkpt>
      <trkpt lat="43.31594" lon="-1.90501">
        <ele>8.8</ele>
        <time>2026-08-05T09:57:22Z</time>
      </trkpt>
      <trkpt lat="43.31596" lon="-1.90503">
        <ele>8.8</ele>
        <time>2026-08-05T09:57:23Z</time>
      </trkpt>
      <trkpt lat="43.31599" lon="-1.90505">
        <ele>8.8</ele>
        <time>2026-08-05T09:57:24Z</time>
      </trkpt>
      <trkpt lat="43.31602" lon="-1.90506">
        <ele>9.6</ele>
        <time>2026-08-05T09:57:25Z</time>
      </trkpt>
      <trkpt lat="43.31604" lon="-1.90508">
        <ele>10.2</ele>
        <time>2026-08-05T09:57:26Z</time>
      </trkpt>
      <trkpt lat="43.31607" lon="-1.90509">
        <ele>10.2</ele>
        <time>2026-08-05T09:57:27Z</time>
      </trkpt>
      <trkpt lat="43.3161" lon="-1.90511">
        <ele>10.2</ele>
        <time>2026-08-05T09:57:28Z</time>
      </trkpt>
      <trkpt lat="43.31613" lon="-1.90513">
        <ele>9.6</ele>
        <time>2026-08-05T09:57:29Z</time>
      </trkpt>
      <trkpt lat="43.31615" lon="-1.90515">
        <ele>9.6</ele>
        <time>2026-08-05T09:57:30Z</time>
      </trkpt>
      <trkpt lat="43.31618" lon="-1.90516">
        <ele>9.6</ele>
        <time>2026-08-05T09:57:31Z</time>
      </trkpt>
      <trkpt lat="43.31621" lon="-1.90518">
        <ele>9.6</ele>
        <time>2026-08-05T09:57:32Z</time>
      </trkpt>
      <trkpt lat="43.31624" lon="-1.90519">
        <ele>9.8</ele>
        <time>2026-08-05T09:57:33Z</time>
      </trkpt>
      <trkpt lat="43.31627" lon="-1.90521">
        <ele>9.8</ele>
        <time>2026-08-05T09:57:34Z</time>
      </trkpt>
      <trkpt lat="43.31629" lon="-1.90522">
        <ele>10</ele>
        <time>2026-08-05T09:57:35Z</time>
      </trkpt>
      <trkpt lat="43.31632" lon="-1.90523">
        <ele>10</ele>
        <time>2026-08-05T09:57:36Z</time>
      </trkpt>
      <trkpt lat="43.31634" lon="-1.90525">
        <ele>10.6</ele>
        <time>2026-08-05T09:57:37Z</time>
      </trkpt>
      <trkpt lat="43.31637" lon="-1.90526">
        <ele>10.8</ele>
        <time>2026-08-05T09:57:38Z</time>
      </trkpt>
      <trkpt lat="43.3164" lon="-1.90528">
        <ele>11</ele>
        <time>2026-08-05T09:57:39Z</time>
      </trkpt>
      <trkpt lat="43.31642" lon="-1.9053">
        <ele>11</ele>
        <time>2026-08-05T09:57:40Z</time>
      </trkpt>
      <trkpt lat="43.31645" lon="-1.90531">
        <ele>11</ele>
        <time>2026-08-05T09:57:41Z</time>
      </trkpt>
      <trkpt lat="43.31647" lon="-1.90533">
        <ele>11</ele>
        <time>2026-08-05T09:57:42Z</time>
      </trkpt>
      <trkpt lat="43.3165" lon="-1.90534">
        <ele>11</ele>
        <time>2026-08-05T09:57:43Z</time>
      </trkpt>
      <trkpt lat="43.31653" lon="-1.90536">
        <ele>11.2</ele>
        <time>2026-08-05T09:57:44Z</time>
      </trkpt>
      <trkpt lat="43.31655" lon="-1.90537">
        <ele>11.4</ele>
        <time>2026-08-05T09:57:45Z</time>
      </trkpt>
      <trkpt lat="43.31657" lon="-1.90538">
        <ele>11.4</ele>
        <time>2026-08-05T09:57:46Z</time>
      </trkpt>
      <trkpt lat="43.31659" lon="-1.90539">
        <ele>11.4</ele>
        <time>2026-08-05T09:57:47Z</time>
      </trkpt>
      <trkpt lat="43.31662" lon="-1.9054">
        <ele>11.4</ele>
        <time>2026-08-05T09:57:48Z</time>
      </trkpt>
      <trkpt lat="43.31665" lon="-1.90541">
        <ele>11.8</ele>
        <time>2026-08-05T09:57:49Z</time>
      </trkpt>
      <trkpt lat="43.31667" lon="-1.90542">
        <ele>11.8</ele>
        <time>2026-08-05T09:57:50Z</time>
      </trkpt>
      <trkpt lat="43.31669" lon="-1.90543">
        <ele>12.2</ele>
        <time>2026-08-05T09:57:51Z</time>
      </trkpt>
      <trkpt lat="43.31672" lon="-1.90544">
        <ele>12.2</ele>
        <time>2026-08-05T09:57:52Z</time>
      </trkpt>
      <trkpt lat="43.31674" lon="-1.90546">
        <ele>12.2</ele>
        <time>2026-08-05T09:57:53Z</time>
      </trkpt>
      <trkpt lat="43.31677" lon="-1.90547">
        <ele>12.2</ele>
        <time>2026-08-05T09:57:54Z</time>
      </trkpt>
      <trkpt lat="43.31679" lon="-1.90548">
        <ele>12.2</ele>
        <time>2026-08-05T09:57:55Z</time>
      </trkpt>
      <trkpt lat="43.31682" lon="-1.9055">
        <ele>12.2</ele>
        <time>2026-08-05T09:57:56Z</time>
      </trkpt>
      <trkpt lat="43.31684" lon="-1.90551">
        <ele>12.2</ele>
        <time>2026-08-05T09:57:57Z</time>
      </trkpt>
      <trkpt lat="43.31687" lon="-1.90552">
        <ele>13.2</ele>
        <time>2026-08-05T09:57:58Z</time>
      </trkpt>
      <trkpt lat="43.3169" lon="-1.90553">
        <ele>13.2</ele>
        <time>2026-08-05T09:57:59Z</time>
      </trkpt>
      <trkpt lat="43.31692" lon="-1.90555">
        <ele>13.2</ele>
        <time>2026-08-05T09:58:00Z</time>
      </trkpt>
      <trkpt lat="43.31694" lon="-1.90556">
        <ele>13.2</ele>
        <time>2026-08-05T09:58:01Z</time>
      </trkpt>
      <trkpt lat="43.31697" lon="-1.90558">
        <ele>13.6</ele>
        <time>2026-08-05T09:58:02Z</time>
      </trkpt>
      <trkpt lat="43.317" lon="-1.90559">
        <ele>14</ele>
        <time>2026-08-05T09:58:03Z</time>
      </trkpt>
      <trkpt lat="43.31702" lon="-1.9056">
        <ele>14</ele>
        <time>2026-08-05T09:58:04Z</time>
      </trkpt>
      <trkpt lat="43.31705" lon="-1.90561">
        <ele>14</ele>
        <time>2026-08-05T09:58:05Z</time>
      </trkpt>
      <trkpt lat="43.31707" lon="-1.90563">
        <ele>14</ele>
        <time>2026-08-05T09:58:06Z</time>
      </trkpt>
      <trkpt lat="43.3171" lon="-1.90564">
        <ele>14.4</ele>
        <time>2026-08-05T09:58:07Z</time>
      </trkpt>
      <trkpt lat="43.31713" lon="-1.90566">
        <ele>14.4</ele>
        <time>2026-08-05T09:58:08Z</time>
      </trkpt>
      <trkpt lat="43.31716" lon="-1.90567">
        <ele>14.4</ele>
        <time>2026-08-05T09:58:09Z</time>
      </trkpt>
      <trkpt lat="43.31718" lon="-1.90568">
        <ele>14.4</ele>
        <time>2026-08-05T09:58:10Z</time>
      </trkpt>
      <trkpt lat="43.31721" lon="-1.9057">
        <ele>14.4</ele>
        <time>2026-08-05T09:58:11Z</time>
      </trkpt>
      <trkpt lat="43.31723" lon="-1.90571">
        <ele>14.4</ele>
        <time>2026-08-05T09:58:12Z</time>
      </trkpt>
      <trkpt lat="43.31726" lon="-1.90572">
        <ele>15.2</ele>
        <time>2026-08-05T09:58:13Z</time>
      </trkpt>
      <trkpt lat="43.31728" lon="-1.90574">
        <ele>15.2</ele>
        <time>2026-08-05T09:58:14Z</time>
      </trkpt>
      <trkpt lat="43.3173" lon="-1.90574">
        <ele>15.6</ele>
        <time>2026-08-05T09:58:15Z</time>
      </trkpt>
      <trkpt lat="43.31732" lon="-1.90575">
        <ele>15.8</ele>
        <time>2026-08-05T09:58:16Z</time>
      </trkpt>
      <trkpt lat="43.31734" lon="-1.90576">
        <ele>15.8</ele>
        <time>2026-08-05T09:58:17Z</time>
      </trkpt>
      <trkpt lat="43.31736" lon="-1.90578">
        <ele>15.8</ele>
        <time>2026-08-05T09:58:18Z</time>
      </trkpt>
      <trkpt lat="43.31739" lon="-1.90579">
        <ele>15.8</ele>
        <time>2026-08-05T09:58:19Z</time>
      </trkpt>
      <trkpt lat="43.31742" lon="-1.9058">
        <ele>15.8</ele>
        <time>2026-08-05T09:58:20Z</time>
      </trkpt>
      <trkpt lat="43.31744" lon="-1.90581">
        <ele>16.4</ele>
        <time>2026-08-05T09:58:21Z</time>
      </trkpt>
      <trkpt lat="43.31747" lon="-1.90582">
        <ele>16.4</ele>
        <time>2026-08-05T09:58:22Z</time>
      </trkpt>
      <trkpt lat="43.31749" lon="-1.90584">
        <ele>16.4</ele>
        <time>2026-08-05T09:58:23Z</time>
      </trkpt>
      <trkpt lat="43.31752" lon="-1.90585">
        <ele>16.4</ele>
        <time>2026-08-05T09:58:24Z</time>
      </trkpt>
      <trkpt lat="43.31755" lon="-1.90587">
        <ele>16.4</ele>
        <time>2026-08-05T09:58:25Z</time>
      </trkpt>
      <trkpt lat="43.31757" lon="-1.90588">
        <ele>17</ele>
        <time>2026-08-05T09:58:26Z</time>
      </trkpt>
      <trkpt lat="43.3176" lon="-1.9059">
        <ele>17</ele>
        <time>2026-08-05T09:58:27Z</time>
      </trkpt>
      <trkpt lat="43.31762" lon="-1.90592">
        <ele>17</ele>
        <time>2026-08-05T09:58:28Z</time>
      </trkpt>
      <trkpt lat="43.31765" lon="-1.90593">
        <ele>17</ele>
        <time>2026-08-05T09:58:29Z</time>
      </trkpt>
      <trkpt lat="43.31768" lon="-1.90595">
        <ele>17.2</ele>
        <time>2026-08-05T09:58:30Z</time>
      </trkpt>
      <trkpt lat="43.3177" lon="-1.90597">
        <ele>17.2</ele>
        <time>2026-08-05T09:58:31Z</time>
      </trkpt>
      <trkpt lat="43.31772" lon="-1.90598">
        <ele>17.2</ele>
        <time>2026-08-05T09:58:32Z</time>
      </trkpt>
      <trkpt lat="43.31775" lon="-1.90599">
        <ele>17.2</ele>
        <time>2026-08-05T09:58:33Z</time>
      </trkpt>
      <trkpt lat="43.31777" lon="-1.90601">
        <ele>17.2</ele>
        <time>2026-08-05T09:58:34Z</time>
      </trkpt>
      <trkpt lat="43.31779" lon="-1.90602">
        <ele>17.2</ele>
        <time>2026-08-05T09:58:35Z</time>
      </trkpt>
      <trkpt lat="43.31781" lon="-1.90604">
        <ele>17.2</ele>
        <time>2026-08-05T09:58:36Z</time>
      </trkpt>
      <trkpt lat="43.31783" lon="-1.90605">
        <ele>17.4</ele>
        <time>2026-08-05T09:58:37Z</time>
      </trkpt>
      <trkpt lat="43.31784" lon="-1.90607">
        <ele>17.6</ele>
        <time>2026-08-05T09:58:38Z</time>
      </trkpt>
      <trkpt lat="43.31786" lon="-1.90609">
        <ele>17.6</ele>
        <time>2026-08-05T09:58:39Z</time>
      </trkpt>
      <trkpt lat="43.31788" lon="-1.90612">
        <ele>17.6</ele>
        <time>2026-08-05T09:58:40Z</time>
      </trkpt>
      <trkpt lat="43.31789" lon="-1.90614">
        <ele>17.8</ele>
        <time>2026-08-05T09:58:41Z</time>
      </trkpt>
      <trkpt lat="43.31791" lon="-1.90617">
        <ele>17.8</ele>
        <time>2026-08-05T09:58:42Z</time>
      </trkpt>
      <trkpt lat="43.31793" lon="-1.90619">
        <ele>17.8</ele>
        <time>2026-08-05T09:58:43Z</time>
      </trkpt>
      <trkpt lat="43.31794" lon="-1.90622">
        <ele>17.2</ele>
        <time>2026-08-05T09:58:44Z</time>
      </trkpt>
      <trkpt lat="43.31796" lon="-1.90624">
        <ele>17</ele>
        <time>2026-08-05T09:58:45Z</time>
      </trkpt>
      <trkpt lat="43.31799" lon="-1.90627">
        <ele>17</ele>
        <time>2026-08-05T09:58:46Z</time>
      </trkpt>
      <trkpt lat="43.31801" lon="-1.9063">
        <ele>17</ele>
        <time>2026-08-05T09:58:47Z</time>
      </trkpt>
      <trkpt lat="43.31803" lon="-1.90634">
        <ele>17.2</ele>
        <time>2026-08-05T09:58:48Z</time>
      </trkpt>
      <trkpt lat="43.31806" lon="-1.90637">
        <ele>17.4</ele>
        <time>2026-08-05T09:58:49Z</time>
      </trkpt>
      <trkpt lat="43.31808" lon="-1.9064">
        <ele>17.4</ele>
        <time>2026-08-05T09:58:50Z</time>
      </trkpt>
      <trkpt lat="43.3181" lon="-1.90643">
        <ele>17.4</ele>
        <time>2026-08-05T09:58:51Z</time>
      </trkpt>
      <trkpt lat="43.31812" lon="-1.90645">
        <ele>17.4</ele>
        <time>2026-08-05T09:58:52Z</time>
      </trkpt>
      <trkpt lat="43.31815" lon="-1.90648">
        <ele>17.4</ele>
        <time>2026-08-05T09:58:53Z</time>
      </trkpt>
      <trkpt lat="43.31817" lon="-1.90651">
        <ele>18</ele>
        <time>2026-08-05T09:58:54Z</time>
      </trkpt>
      <trkpt lat="43.31819" lon="-1.90654">
        <ele>18</ele>
        <time>2026-08-05T09:58:55Z</time>
      </trkpt>
      <trkpt lat="43.3182" lon="-1.90656">
        <ele>18</ele>
        <time>2026-08-05T09:58:56Z</time>
      </trkpt>
      <trkpt lat="43.31821" lon="-1.90659">
        <ele>17.8</ele>
        <time>2026-08-05T09:58:57Z</time>
      </trkpt>
      <trkpt lat="43.31822" lon="-1.90662">
        <ele>17.8</ele>
        <time>2026-08-05T09:58:58Z</time>
      </trkpt>
      <trkpt lat="43.31824" lon="-1.90664">
        <ele>17.8</ele>
        <time>2026-08-05T09:58:59Z</time>
      </trkpt>
      <trkpt lat="43.31825" lon="-1.90668">
        <ele>18.2</ele>
        <time>2026-08-05T09:59:00Z</time>
      </trkpt>
      <trkpt lat="43.31826" lon="-1.90673">
        <ele>18.4</ele>
        <time>2026-08-05T09:59:01Z</time>
      </trkpt>
      <trkpt lat="43.31827" lon="-1.90678">
        <ele>18.4</ele>
        <time>2026-08-05T09:59:02Z</time>
      </trkpt>
      <trkpt lat="43.31829" lon="-1.90682">
        <ele>18.4</ele>
        <time>2026-08-05T09:59:03Z</time>
      </trkpt>
      <trkpt lat="43.3183" lon="-1.90686">
        <ele>18.2</ele>
        <time>2026-08-05T09:59:04Z</time>
      </trkpt>
      <trkpt lat="43.31833" lon="-1.9069">
        <ele>18.2</ele>
        <time>2026-08-05T09:59:05Z</time>
      </trkpt>
      <trkpt lat="43.31835" lon="-1.90695">
        <ele>18</ele>
        <time>2026-08-05T09:59:06Z</time>
      </trkpt>
      <trkpt lat="43.31837" lon="-1.90699">
        <ele>18</ele>
        <time>2026-08-05T09:59:07Z</time>
      </trkpt>
      <trkpt lat="43.31839" lon="-1.90703">
        <ele>18</ele>
        <time>2026-08-05T09:59:08Z</time>
      </trkpt>
      <trkpt lat="43.31841" lon="-1.90708">
        <ele>18</ele>
        <time>2026-08-05T09:59:09Z</time>
      </trkpt>
      <trkpt lat="43.31843" lon="-1.90714">
        <ele>18</ele>
        <time>2026-08-05T09:59:10Z</time>
      </trkpt>
      <trkpt lat="43.31844" lon="-1.9072">
        <ele>18</ele>
        <time>2026-08-05T09:59:11Z</time>
      </trkpt>
      <trkpt lat="43.31846" lon="-1.90726">
        <ele>17.6</ele>
        <time>2026-08-05T09:59:12Z</time>
      </trkpt>
      <trkpt lat="43.31849" lon="-1.9073">
        <ele>17.4</ele>
        <time>2026-08-05T09:59:13Z</time>
      </trkpt>
      <trkpt lat="43.31849" lon="-1.90737">
        <ele>17.4</ele>
        <time>2026-08-05T09:59:14Z</time>
      </trkpt>
      <trkpt lat="43.3185" lon="-1.90744">
        <ele>17.4</ele>
        <time>2026-08-05T09:59:15Z</time>
      </trkpt>
      <trkpt lat="43.31851" lon="-1.9075">
        <ele>17.4</ele>
        <time>2026-08-05T09:59:16Z</time>
      </trkpt>
      <trkpt lat="43.31852" lon="-1.90756">
        <ele>17.4</ele>
        <time>2026-08-05T09:59:17Z</time>
      </trkpt>
      <trkpt lat="43.31852" lon="-1.90762">
        <ele>17.4</ele>
        <time>2026-08-05T09:59:18Z</time>
      </trkpt>
      <trkpt lat="43.31853" lon="-1.90767">
        <ele>17.4</ele>
        <time>2026-08-05T09:59:19Z</time>
      </trkpt>
      <trkpt lat="43.31854" lon="-1.90772">
        <ele>17.4</ele>
        <time>2026-08-05T09:59:20Z</time>
      </trkpt>
      <trkpt lat="43.31854" lon="-1.90777">
        <ele>17.4</ele>
        <time>2026-08-05T09:59:21Z</time>
      </trkpt>
      <trkpt lat="43.31854" lon="-1.90783">
        <ele>17.4</ele>
        <time>2026-08-05T09:59:22Z</time>
      </trkpt>
      <trkpt lat="43.31854" lon="-1.90788">
        <ele>17.4</ele>
        <time>2026-08-05T09:59:23Z</time>
      </trkpt>
      <trkpt lat="43.31854" lon="-1.90793">
        <ele>17</ele>
        <time>2026-08-05T09:59:24Z</time>
      </trkpt>
      <trkpt lat="43.31854" lon="-1.90799">
        <ele>16.6</ele>
        <time>2026-08-05T09:59:25Z</time>
      </trkpt>
      <trkpt lat="43.31855" lon="-1.90805">
        <ele>16.6</ele>
        <time>2026-08-05T09:59:26Z</time>
      </trkpt>
      <trkpt lat="43.31854" lon="-1.9081">
        <ele>16.6</ele>
        <time>2026-08-05T09:59:27Z</time>
      </trkpt>
      <trkpt lat="43.31854" lon="-1.90816">
        <ele>16.6</ele>
        <time>2026-08-05T09:59:28Z</time>
      </trkpt>
      <trkpt lat="43.31853" lon="-1.90822">
        <ele>15.4</ele>
        <time>2026-08-05T09:59:29Z</time>
      </trkpt>
      <trkpt lat="43.31853" lon="-1.90828">
        <ele>15.2</ele>
        <time>2026-08-05T09:59:30Z</time>
      </trkpt>
      <trkpt lat="43.31852" lon="-1.90834">
        <ele>15.2</ele>
        <time>2026-08-05T09:59:31Z</time>
      </trkpt>
      <trkpt lat="43.31851" lon="-1.9084">
        <ele>15.2</ele>
        <time>2026-08-05T09:59:32Z</time>
      </trkpt>
      <trkpt lat="43.3185" lon="-1.90846">
        <ele>15.2</ele>
        <time>2026-08-05T09:59:33Z</time>
      </trkpt>
      <trkpt lat="43.31848" lon="-1.90852">
        <ele>15.2</ele>
        <time>2026-08-05T09:59:34Z</time>
      </trkpt>
      <trkpt lat="43.31847" lon="-1.90858">
        <ele>14.6</ele>
        <time>2026-08-05T09:59:35Z</time>
      </trkpt>
      <trkpt lat="43.31845" lon="-1.90864">
        <ele>14.4</ele>
        <time>2026-08-05T09:59:36Z</time>
      </trkpt>
      <trkpt lat="43.31843" lon="-1.90869">
        <ele>14.2</ele>
        <time>2026-08-05T09:59:37Z</time>
      </trkpt>
      <trkpt lat="43.31842" lon="-1.90875">
        <ele>14.2</ele>
        <time>2026-08-05T09:59:38Z</time>
      </trkpt>
      <trkpt lat="43.3184" lon="-1.90881">
        <ele>14.2</ele>
        <time>2026-08-05T09:59:39Z</time>
      </trkpt>
      <trkpt lat="43.31838" lon="-1.90887">
        <ele>14.2</ele>
        <time>2026-08-05T09:59:40Z</time>
      </trkpt>
      <trkpt lat="43.31836" lon="-1.90893">
        <ele>13.2</ele>
        <time>2026-08-05T09:59:41Z</time>
      </trkpt>
      <trkpt lat="43.31834" lon="-1.90899">
        <ele>13.2</ele>
        <time>2026-08-05T09:59:42Z</time>
      </trkpt>
      <trkpt lat="43.31832" lon="-1.90906">
        <ele>12.6</ele>
        <time>2026-08-05T09:59:43Z</time>
      </trkpt>
      <trkpt lat="43.3183" lon="-1.90912">
        <ele>12.6</ele>
        <time>2026-08-05T09:59:44Z</time>
      </trkpt>
      <trkpt lat="43.31828" lon="-1.90919">
        <ele>12.6</ele>
        <time>2026-08-05T09:59:45Z</time>
      </trkpt>
      <trkpt lat="43.31826" lon="-1.90926">
        <ele>12.6</ele>
        <time>2026-08-05T09:59:46Z</time>
      </trkpt>
      <trkpt lat="43.31823" lon="-1.90933">
        <ele>12.6</ele>
        <time>2026-08-05T09:59:47Z</time>
      </trkpt>
      <trkpt lat="43.31821" lon="-1.9094">
        <ele>11.4</ele>
        <time>2026-08-05T09:59:48Z</time>
      </trkpt>
      <trkpt lat="43.31818" lon="-1.90948">
        <ele>10.8</ele>
        <time>2026-08-05T09:59:49Z</time>
      </trkpt>
      <trkpt lat="43.31816" lon="-1.90955">
        <ele>10.8</ele>
        <time>2026-08-05T09:59:50Z</time>
      </trkpt>
      <trkpt lat="43.31813" lon="-1.90963">
        <ele>10.8</ele>
        <time>2026-08-05T09:59:51Z</time>
      </trkpt>
      <trkpt lat="43.31811" lon="-1.90971">
        <ele>10.8</ele>
        <time>2026-08-05T09:59:52Z</time>
      </trkpt>
      <trkpt lat="43.31808" lon="-1.90979">
        <ele>9.2</ele>
        <time>2026-08-05T09:59:53Z</time>
      </trkpt>
      <trkpt lat="43.31805" lon="-1.90988">
        <ele>9.2</ele>
        <time>2026-08-05T09:59:54Z</time>
      </trkpt>
      <trkpt lat="43.31802" lon="-1.90996">
        <ele>9.2</ele>
        <time>2026-08-05T09:59:55Z</time>
      </trkpt>
      <trkpt lat="43.31799" lon="-1.91005">
        <ele>9.2</ele>
        <time>2026-08-05T09:59:56Z</time>
      </trkpt>
      <trkpt lat="43.31796" lon="-1.91014">
        <ele>7.4</ele>
        <time>2026-08-05T09:59:57Z</time>
      </trkpt>
      <trkpt lat="43.31793" lon="-1.91023">
        <ele>6.8</ele>
        <time>2026-08-05T09:59:58Z</time>
      </trkpt>
      <trkpt lat="43.3179" lon="-1.91032">
        <ele>6.6</ele>
        <time>2026-08-05T09:59:59Z</time>
      </trkpt>
      <trkpt lat="43.31787" lon="-1.91041">
        <ele>6.6</ele>
        <time>2026-08-05T10:00:00Z</time>
      </trkpt>
      <trkpt lat="43.31784" lon="-1.9105">
        <ele>6.6</ele>
        <time>2026-08-05T10:00:01Z</time>
      </trkpt>
      <trkpt lat="43.31781" lon="-1.91059">
        <ele>6.6</ele>
        <time>2026-08-05T10:00:02Z</time>
      </trkpt>
      <trkpt lat="43.31778" lon="-1.91067">
        <ele>6.6</ele>
        <time>2026-08-05T10:00:03Z</time>
      </trkpt>
      <trkpt lat="43.31774" lon="-1.91075">
        <ele>5.6</ele>
        <time>2026-08-05T10:00:04Z</time>
      </trkpt>
      <trkpt lat="43.3177" lon="-1.91083">
        <ele>5.6</ele>
        <time>2026-08-05T10:00:05Z</time>
      </trkpt>
      <trkpt lat="43.31766" lon="-1.91091">
        <ele>5.6</ele>
        <time>2026-08-05T10:00:06Z</time>
      </trkpt>
      <trkpt lat="43.31761" lon="-1.91098">
        <ele>6.2</ele>
        <time>2026-08-05T10:00:07Z</time>
      </trkpt>
      <trkpt lat="43.31756" lon="-1.91106">
        <ele>6.2</ele>
        <time>2026-08-05T10:00:08Z</time>
      </trkpt>
      <trkpt lat="43.31751" lon="-1.91112">
        <ele>6.2</ele>
        <time>2026-08-05T10:00:09Z</time>
      </trkpt>
      <trkpt lat="43.31745" lon="-1.91119">
        <ele>6.2</ele>
        <time>2026-08-05T10:00:10Z</time>
      </trkpt>
      <trkpt lat="43.31739" lon="-1.91125">
        <ele>6.2</ele>
        <time>2026-08-05T10:00:11Z</time>
      </trkpt>
      <trkpt lat="43.31734" lon="-1.91131">
        <ele>6.2</ele>
        <time>2026-08-05T10:00:12Z</time>
      </trkpt>
      <trkpt lat="43.31729" lon="-1.91137">
        <ele>6.2</ele>
        <time>2026-08-05T10:00:13Z</time>
      </trkpt>
      <trkpt lat="43.31724" lon="-1.91142">
        <ele>6.2</ele>
        <time>2026-08-05T10:00:14Z</time>
      </trkpt>
      <trkpt lat="43.31719" lon="-1.91147">
        <ele>6.2</ele>
        <time>2026-08-05T10:00:15Z</time>
      </trkpt>
      <trkpt lat="43.31714" lon="-1.9115">
        <ele>6.2</ele>
        <time>2026-08-05T10:00:16Z</time>
      </trkpt>
      <trkpt lat="43.31709" lon="-1.91153">
        <ele>7.6</ele>
        <time>2026-08-05T10:00:17Z</time>
      </trkpt>
      <trkpt lat="43.31706" lon="-1.91155">
        <ele>8.2</ele>
        <time>2026-08-05T10:00:18Z</time>
      </trkpt>
      <trkpt lat="43.31703" lon="-1.91156">
        <ele>9</ele>
        <time>2026-08-05T10:00:19Z</time>
      </trkpt>
      <trkpt lat="43.317" lon="-1.91157">
        <ele>9.2</ele>
        <time>2026-08-05T10:00:20Z</time>
      </trkpt>
      <trkpt lat="43.31698" lon="-1.91157">
        <ele>9.4</ele>
        <time>2026-08-05T10:00:21Z</time>
      </trkpt>
      <trkpt lat="43.31696" lon="-1.91158">
        <ele>9.6</ele>
        <time>2026-08-05T10:00:22Z</time>
      </trkpt>
      <trkpt lat="43.31695" lon="-1.91159">
        <ele>9.8</ele>
        <time>2026-08-05T10:00:23Z</time>
      </trkpt>
      <trkpt lat="43.31693" lon="-1.9116">
        <ele>10</ele>
        <time>2026-08-05T10:00:24Z</time>
      </trkpt>
      <trkpt lat="43.31692" lon="-1.91161">
        <ele>10</ele>
        <time>2026-08-05T10:00:25Z</time>
      </trkpt>
      <trkpt lat="43.31692" lon="-1.91161">
        <ele>10</ele>
        <time>2026-08-05T10:00:26Z</time>
      </trkpt>
      <trkpt lat="43.31692" lon="-1.91161">
        <ele>10</ele>
        <time>2026-08-05T10:00:27Z</time>
      </trkpt>
      <trkpt lat="43.31684" lon="-1.91166">
        <ele>9.8</ele>
        <time>2026-08-05T10:00:53Z</time>
      </trkpt>
      <trkpt lat="43.31682" lon="-1.91168">
        <ele>9.6</ele>
        <time>2026-08-05T10:00:54Z</time>
      </trkpt>
      <trkpt lat="43.31681" lon="-1.91172">
        <ele>10.4</ele>
        <time>2026-08-05T10:00:55Z</time>
      </trkpt>
      <trkpt lat="43.31681" lon="-1.91175">
        <ele>10.4</ele>
        <time>2026-08-05T10:00:56Z</time>
      </trkpt>
      <trkpt lat="43.31682" lon="-1.91178">
        <ele>10.4</ele>
        <time>2026-08-05T10:00:57Z</time>
      </trkpt>
      <trkpt lat="43.31683" lon="-1.91181">
        <ele>9.8</ele>
        <time>2026-08-05T10:00:58Z</time>
      </trkpt>
      <trkpt lat="43.31684" lon="-1.91185">
        <ele>9.8</ele>
        <time>2026-08-05T10:00:59Z</time>
      </trkpt>
      <trkpt lat="43.31685" lon="-1.91189">
        <ele>9.8</ele>
        <time>2026-08-05T10:01:00Z</time>
      </trkpt>
      <trkpt lat="43.31686" lon="-1.91193">
        <ele>10.6</ele>
        <time>2026-08-05T10:01:01Z</time>
      </trkpt>
      <trkpt lat="43.31685" lon="-1.91197">
        <ele>10.6</ele>
        <time>2026-08-05T10:01:02Z</time>
      </trkpt>
      <trkpt lat="43.31685" lon="-1.91202">
        <ele>10.6</ele>
        <time>2026-08-05T10:01:03Z</time>
      </trkpt>
      <trkpt lat="43.31684" lon="-1.91207">
        <ele>10.6</ele>
        <time>2026-08-05T10:01:04Z</time>
      </trkpt>
      <trkpt lat="43.31683" lon="-1.91212">
        <ele>10.2</ele>
        <time>2026-08-05T10:01:05Z</time>
      </trkpt>
      <trkpt lat="43.31683" lon="-1.91217">
        <ele>10.2</ele>
        <time>2026-08-05T10:01:06Z</time>
      </trkpt>
      <trkpt lat="43.31682" lon="-1.91222">
        <ele>10.2</ele>
        <time>2026-08-05T10:01:07Z</time>
      </trkpt>
      <trkpt lat="43.31682" lon="-1.91227">
        <ele>11</ele>
        <time>2026-08-05T10:01:08Z</time>
      </trkpt>
      <trkpt lat="43.31682" lon="-1.91232">
        <ele>11</ele>
        <time>2026-08-05T10:01:09Z</time>
      </trkpt>
      <trkpt lat="43.31681" lon="-1.91236">
        <ele>11</ele>
        <time>2026-08-05T10:01:10Z</time>
      </trkpt>
      <trkpt lat="43.3168" lon="-1.91241">
        <ele>10.2</ele>
        <time>2026-08-05T10:01:11Z</time>
      </trkpt>
      <trkpt lat="43.31679" lon="-1.91246">
        <ele>10.2</ele>
        <time>2026-08-05T10:01:12Z</time>
      </trkpt>
      <trkpt lat="43.31679" lon="-1.9125">
        <ele>10.2</ele>
        <time>2026-08-05T10:01:13Z</time>
      </trkpt>
      <trkpt lat="43.31678" lon="-1.91255">
        <ele>10.8</ele>
        <time>2026-08-05T10:01:14Z</time>
      </trkpt>
      <trkpt lat="43.31678" lon="-1.9126">
        <ele>10.8</ele>
        <time>2026-08-05T10:01:15Z</time>
      </trkpt>
      <trkpt lat="43.31677" lon="-1.91265">
        <ele>10.8</ele>
        <time>2026-08-05T10:01:16Z</time>
      </trkpt>
      <trkpt lat="43.31677" lon="-1.9127">
        <ele>10.8</ele>
        <time>2026-08-05T10:01:17Z</time>
      </trkpt>
      <trkpt lat="43.31677" lon="-1.91276">
        <ele>11.2</ele>
        <time>2026-08-05T10:01:18Z</time>
      </trkpt>
      <trkpt lat="43.31677" lon="-1.91281">
        <ele>11.4</ele>
        <time>2026-08-05T10:01:19Z</time>
      </trkpt>
      <trkpt lat="43.31677" lon="-1.91286">
        <ele>11.4</ele>
        <time>2026-08-05T10:01:20Z</time>
      </trkpt>
      <trkpt lat="43.31677" lon="-1.91291">
        <ele>11.4</ele>
        <time>2026-08-05T10:01:21Z</time>
      </trkpt>
      <trkpt lat="43.31676" lon="-1.91296">
        <ele>11.4</ele>
        <time>2026-08-05T10:01:22Z</time>
      </trkpt>
      <trkpt lat="43.31676" lon="-1.91302">
        <ele>11.4</ele>
        <time>2026-08-05T10:01:23Z</time>
      </trkpt>
      <trkpt lat="43.31677" lon="-1.91308">
        <ele>11.4</ele>
        <time>2026-08-05T10:01:24Z</time>
      </trkpt>
      <trkpt lat="43.31677" lon="-1.91314">
        <ele>10.8</ele>
        <time>2026-08-05T10:01:25Z</time>
      </trkpt>
      <trkpt lat="43.31676" lon="-1.9132">
        <ele>10.8</ele>
        <time>2026-08-05T10:01:26Z</time>
      </trkpt>
      <trkpt lat="43.31676" lon="-1.91327">
        <ele>11.4</ele>
        <time>2026-08-05T10:01:27Z</time>
      </trkpt>
      <trkpt lat="43.31676" lon="-1.91334">
        <ele>11.4</ele>
        <time>2026-08-05T10:01:28Z</time>
      </trkpt>
      <trkpt lat="43.31676" lon="-1.9134">
        <ele>11.4</ele>
        <time>2026-08-05T10:01:29Z</time>
      </trkpt>
      <trkpt lat="43.31675" lon="-1.91346">
        <ele>11.4</ele>
        <time>2026-08-05T10:01:30Z</time>
      </trkpt>
      <trkpt lat="43.31675" lon="-1.91352">
        <ele>11.4</ele>
        <time>2026-08-05T10:01:31Z</time>
      </trkpt>
      <trkpt lat="43.31676" lon="-1.91358">
        <ele>13.2</ele>
        <time>2026-08-05T10:01:32Z</time>
      </trkpt>
      <trkpt lat="43.31676" lon="-1.91363">
        <ele>13.2</ele>
        <time>2026-08-05T10:01:33Z</time>
      </trkpt>
      <trkpt lat="43.31676" lon="-1.91368">
        <ele>13.6</ele>
        <time>2026-08-05T10:01:34Z</time>
      </trkpt>
      <trkpt lat="43.31677" lon="-1.91372">
        <ele>14</ele>
        <time>2026-08-05T10:01:35Z</time>
      </trkpt>
      <trkpt lat="43.31677" lon="-1.91376">
        <ele>14.2</ele>
        <time>2026-08-05T10:01:36Z</time>
      </trkpt>
      <trkpt lat="43.31677" lon="-1.9138">
        <ele>14.2</ele>
        <time>2026-08-05T10:01:37Z</time>
      </trkpt>
      <trkpt lat="43.31677" lon="-1.91384">
        <ele>14.4</ele>
        <time>2026-08-05T10:01:38Z</time>
      </trkpt>
      <trkpt lat="43.31678" lon="-1.91388">
        <ele>14.8</ele>
        <time>2026-08-05T10:01:39Z</time>
      </trkpt>
      <trkpt lat="43.31679" lon="-1.91391">
        <ele>14.8</ele>
        <time>2026-08-05T10:01:40Z</time>
      </trkpt>
      <trkpt lat="43.3168" lon="-1.91393">
        <ele>14.8</ele>
        <time>2026-08-05T10:01:41Z</time>
      </trkpt>
      <trkpt lat="43.31682" lon="-1.91395">
        <ele>14.4</ele>
        <time>2026-08-05T10:01:42Z</time>
      </trkpt>
      <trkpt lat="43.31685" lon="-1.91396">
        <ele>14.2</ele>
        <time>2026-08-05T10:01:43Z</time>
      </trkpt>
      <trkpt lat="43.31688" lon="-1.91396">
        <ele>13.8</ele>
        <time>2026-08-05T10:01:44Z</time>
      </trkpt>
      <trkpt lat="43.31691" lon="-1.91396">
        <ele>13.8</ele>
        <time>2026-08-05T10:01:45Z</time>
      </trkpt>
      <trkpt lat="43.31695" lon="-1.91396">
        <ele>13.8</ele>
        <time>2026-08-05T10:01:46Z</time>
      </trkpt>
      <trkpt lat="43.31699" lon="-1.91396">
        <ele>13.8</ele>
        <time>2026-08-05T10:01:47Z</time>
      </trkpt>
      <trkpt lat="43.31704" lon="-1.91396">
        <ele>12.8</ele>
        <time>2026-08-05T10:01:48Z</time>
      </trkpt>
      <trkpt lat="43.31708" lon="-1.91394">
        <ele>12.4</ele>
        <time>2026-08-05T10:01:49Z</time>
      </trkpt>
      <trkpt lat="43.31712" lon="-1.91392">
        <ele>12.4</ele>
        <time>2026-08-05T10:01:50Z</time>
      </trkpt>
      <trkpt lat="43.31714" lon="-1.91387">
        <ele>12.4</ele>
        <time>2026-08-05T10:01:51Z</time>
      </trkpt>
      <trkpt lat="43.31714" lon="-1.91382">
        <ele>12.4</ele>
        <time>2026-08-05T10:01:52Z</time>
      </trkpt>
      <trkpt lat="43.31714" lon="-1.91376">
        <ele>11.6</ele>
        <time>2026-08-05T10:01:53Z</time>
      </trkpt>
      <trkpt lat="43.31714" lon="-1.91371">
        <ele>11.4</ele>
        <time>2026-08-05T10:01:54Z</time>
      </trkpt>
      <trkpt lat="43.31717" lon="-1.91366">
        <ele>11.4</ele>
        <time>2026-08-05T10:01:55Z</time>
      </trkpt>
      <trkpt lat="43.31721" lon="-1.91365">
        <ele>10.4</ele>
        <time>2026-08-05T10:01:56Z</time>
      </trkpt>
      <trkpt lat="43.31726" lon="-1.91366">
        <ele>10.4</ele>
        <time>2026-08-05T10:01:57Z</time>
      </trkpt>
      <trkpt lat="43.31729" lon="-1.91371">
        <ele>10.4</ele>
        <time>2026-08-05T10:01:58Z</time>
      </trkpt>
      <trkpt lat="43.31731" lon="-1.91377">
        <ele>10.4</ele>
        <time>2026-08-05T10:01:59Z</time>
      </trkpt>
      <trkpt lat="43.31729" lon="-1.91384">
        <ele>9</ele>
        <time>2026-08-05T10:02:00Z</time>
      </trkpt>
      <trkpt lat="43.31728" lon="-1.91391">
        <ele>9</ele>
        <time>2026-08-05T10:02:01Z</time>
      </trkpt>
      <trkpt lat="43.31726" lon="-1.91399">
        <ele>9</ele>
        <time>2026-08-05T10:02:02Z</time>
      </trkpt>
      <trkpt lat="43.31723" lon="-1.91406">
        <ele>9</ele>
        <time>2026-08-05T10:02:03Z</time>
      </trkpt>
      <trkpt lat="43.3172" lon="-1.91414">
        <ele>8</ele>
        <time>2026-08-05T10:02:04Z</time>
      </trkpt>
      <trkpt lat="43.31718" lon="-1.91422">
        <ele>7.8</ele>
        <time>2026-08-05T10:02:05Z</time>
      </trkpt>
      <trkpt lat="43.31716" lon="-1.91429">
        <ele>7.8</ele>
        <time>2026-08-05T10:02:06Z</time>
      </trkpt>
      <trkpt lat="43.31716" lon="-1.91436">
        <ele>7.2</ele>
        <time>2026-08-05T10:02:07Z</time>
      </trkpt>
      <trkpt lat="43.31718" lon="-1.91441">
        <ele>7.2</ele>
        <time>2026-08-05T10:02:08Z</time>
      </trkpt>
      <trkpt lat="43.31722" lon="-1.91442">
        <ele>7.2</ele>
        <time>2026-08-05T10:02:09Z</time>
      </trkpt>
      <trkpt lat="43.31726" lon="-1.9144">
        <ele>7.2</ele>
        <time>2026-08-05T10:02:10Z</time>
      </trkpt>
      <trkpt lat="43.31729" lon="-1.91435">
        <ele>7.2</ele>
        <time>2026-08-05T10:02:11Z</time>
      </trkpt>
      <trkpt lat="43.31731" lon="-1.91428">
        <ele>5.2</ele>
        <time>2026-08-05T10:02:12Z</time>
      </trkpt>
      <trkpt lat="43.31733" lon="-1.91421">
        <ele>5.2</ele>
        <time>2026-08-05T10:02:13Z</time>
      </trkpt>
      <trkpt lat="43.31734" lon="-1.91413">
        <ele>5.2</ele>
        <time>2026-08-05T10:02:14Z</time>
      </trkpt>
      <trkpt lat="43.31736" lon="-1.91406">
        <ele>5.2</ele>
        <time>2026-08-05T10:02:15Z</time>
      </trkpt>
      <trkpt lat="43.3174" lon="-1.91401">
        <ele>4.4</ele>
        <time>2026-08-05T10:02:16Z</time>
      </trkpt>
      <trkpt lat="43.31745" lon="-1.914">
        <ele>4.2</ele>
        <time>2026-08-05T10:02:17Z</time>
      </trkpt>
      <trkpt lat="43.3175" lon="-1.91403">
        <ele>3.6</ele>
        <time>2026-08-05T10:02:18Z</time>
      </trkpt>
      <trkpt lat="43.31753" lon="-1.91409">
        <ele>3.6</ele>
        <time>2026-08-05T10:02:19Z</time>
      </trkpt>
      <trkpt lat="43.31755" lon="-1.91416">
        <ele>3.6</ele>
        <time>2026-08-05T10:02:20Z</time>
      </trkpt>
      <trkpt lat="43.31758" lon="-1.91423">
        <ele>3.6</ele>
        <time>2026-08-05T10:02:21Z</time>
      </trkpt>
      <trkpt lat="43.31761" lon="-1.9143">
        <ele>2</ele>
        <time>2026-08-05T10:02:22Z</time>
      </trkpt>
      <trkpt lat="43.31763" lon="-1.91437">
        <ele>2</ele>
        <time>2026-08-05T10:02:23Z</time>
      </trkpt>
      <trkpt lat="43.31767" lon="-1.91444">
        <ele>1.6</ele>
        <time>2026-08-05T10:02:24Z</time>
      </trkpt>
      <trkpt lat="43.3177" lon="-1.91453">
        <ele>1.6</ele>
        <time>2026-08-05T10:02:25Z</time>
      </trkpt>
      <trkpt lat="43.31773" lon="-1.91461">
        <ele>1.6</ele>
        <time>2026-08-05T10:02:26Z</time>
      </trkpt>
      <trkpt lat="43.31776" lon="-1.91468">
        <ele>1.6</ele>
        <time>2026-08-05T10:02:27Z</time>
      </trkpt>
      <trkpt lat="43.31778" lon="-1.91475">
        <ele>1.6</ele>
        <time>2026-08-05T10:02:28Z</time>
      </trkpt>
      <trkpt lat="43.31781" lon="-1.91481">
        <ele>1.6</ele>
        <time>2026-08-05T10:02:29Z</time>
      </trkpt>
      <trkpt lat="43.31783" lon="-1.91486">
        <ele>1.8</ele>
        <time>2026-08-05T10:02:30Z</time>
      </trkpt>
      <trkpt lat="43.31785" lon="-1.91491">
        <ele>2</ele>
        <time>2026-08-05T10:02:31Z</time>
      </trkpt>
      <trkpt lat="43.31787" lon="-1.91495">
        <ele>2</ele>
        <time>2026-08-05T10:02:32Z</time>
      </trkpt>
      <trkpt lat="43.31789" lon="-1.91498">
        <ele>2</ele>
        <time>2026-08-05T10:02:33Z</time>
      </trkpt>
      <trkpt lat="43.31791" lon="-1.91501">
        <ele>2</ele>
        <time>2026-08-05T10:02:34Z</time>
      </trkpt>
      <trkpt lat="43.31794" lon="-1.91505">
        <ele>1.2</ele>
        <time>2026-08-05T10:02:35Z</time>
      </trkpt>
      <trkpt lat="43.31795" lon="-1.91509">
        <ele>1.2</ele>
        <time>2026-08-05T10:02:36Z</time>
      </trkpt>
      <trkpt lat="43.31797" lon="-1.91513">
        <ele>1.2</ele>
        <time>2026-08-05T10:02:37Z</time>
      </trkpt>
      <trkpt lat="43.31798" lon="-1.91516">
        <ele>1.2</ele>
        <time>2026-08-05T10:02:38Z</time>
      </trkpt>
      <trkpt lat="43.318" lon="-1.91519">
        <ele>1.2</ele>
        <time>2026-08-05T10:02:39Z</time>
      </trkpt>
      <trkpt lat="43.31801" lon="-1.91522">
        <ele>1.2</ele>
        <time>2026-08-05T10:02:40Z</time>
      </trkpt>
      <trkpt lat="43.31802" lon="-1.91525">
        <ele>1.4</ele>
        <time>2026-08-05T10:02:41Z</time>
      </trkpt>
      <trkpt lat="43.31803" lon="-1.91528">
        <ele>1.6</ele>
        <time>2026-08-05T10:02:42Z</time>
      </trkpt>
      <trkpt lat="43.31805" lon="-1.91531">
        <ele>1.6</ele>
        <time>2026-08-05T10:02:43Z</time>
      </trkpt>
      <trkpt lat="43.31806" lon="-1.91534">
        <ele>1.6</ele>
        <time>2026-08-05T10:02:44Z</time>
      </trkpt>
      <trkpt lat="43.31807" lon="-1.91537">
        <ele>1.4</ele>
        <time>2026-08-05T10:02:45Z</time>
      </trkpt>
      <trkpt lat="43.31808" lon="-1.91539">
        <ele>1.8</ele>
        <time>2026-08-05T10:02:46Z</time>
      </trkpt>
      <trkpt lat="43.31808" lon="-1.9154">
        <ele>1.8</ele>
        <time>2026-08-05T10:02:47Z</time>
      </trkpt>
      <trkpt lat="43.31808" lon="-1.9154">
        <ele>1.8</ele>
        <time>2026-08-05T10:02:48Z</time>
      </trkpt>
      <trkpt lat="43.31808" lon="-1.91541">
        <ele>1.6</ele>
        <time>2026-08-05T10:02:49Z</time>
      </trkpt>
      <trkpt lat="43.31808" lon="-1.91542">
        <ele>1.6</ele>
        <time>2026-08-05T10:02:50Z</time>
      </trkpt>
      <trkpt lat="43.31807" lon="-1.91541">
        <ele>1.6</ele>
        <time>2026-08-05T10:02:51Z</time>
      </trkpt>
      <trkpt lat="43.31807" lon="-1.9154">
        <ele>1.6</ele>
        <time>2026-08-05T10:02:52Z</time>
      </trkpt>
      <trkpt lat="43.31807" lon="-1.91538">
        <ele>1.6</ele>
        <time>2026-08-05T10:02:53Z</time>
      </trkpt>
      <trkpt lat="43.31806" lon="-1.91536">
        <ele>1.8</ele>
        <time>2026-08-05T10:02:54Z</time>
      </trkpt>
      <trkpt lat="43.31805" lon="-1.91534">
        <ele>1.8</ele>
        <time>2026-08-05T10:02:55Z</time>
      </trkpt>
      <trkpt lat="43.31804" lon="-1.91531">
        <ele>1.8</ele>
        <time>2026-08-05T10:02:56Z</time>
      </trkpt>
      <trkpt lat="43.31803" lon="-1.91528">
        <ele>1.8</ele>
        <time>2026-08-05T10:02:57Z</time>
      </trkpt>
      <trkpt lat="43.31802" lon="-1.91525">
        <ele>1.8</ele>
        <time>2026-08-05T10:02:58Z</time>
      </trkpt>
      <trkpt lat="43.318" lon="-1.91522">
        <ele>2</ele>
        <time>2026-08-05T10:02:59Z</time>
      </trkpt>
      <trkpt lat="43.31799" lon="-1.91519">
        <ele>2</ele>
        <time>2026-08-05T10:03:00Z</time>
      </trkpt>
      <trkpt lat="43.31798" lon="-1.91516">
        <ele>2</ele>
        <time>2026-08-05T10:03:01Z</time>
      </trkpt>
      <trkpt lat="43.31797" lon="-1.91512">
        <ele>-0.2</ele>
        <time>2026-08-05T10:03:02Z</time>
      </trkpt>
      <trkpt lat="43.31795" lon="-1.91508">
        <ele>-0.2</ele>
        <time>2026-08-05T10:03:03Z</time>
      </trkpt>
      <trkpt lat="43.31793" lon="-1.91505">
        <ele>-0.2</ele>
        <time>2026-08-05T10:03:04Z</time>
      </trkpt>
      <trkpt lat="43.31791" lon="-1.91501">
        <ele>0.8</ele>
        <time>2026-08-05T10:03:05Z</time>
      </trkpt>
      <trkpt lat="43.31789" lon="-1.91497">
        <ele>0.8</ele>
        <time>2026-08-05T10:03:06Z</time>
      </trkpt>
      <trkpt lat="43.31788" lon="-1.91493">
        <ele>0.8</ele>
        <time>2026-08-05T10:03:07Z</time>
      </trkpt>
      <trkpt lat="43.31787" lon="-1.91489">
        <ele>0.8</ele>
        <time>2026-08-05T10:03:08Z</time>
      </trkpt>
      <trkpt lat="43.31787" lon="-1.91485">
        <ele>1.8</ele>
        <time>2026-08-05T10:03:09Z</time>
      </trkpt>
      <trkpt lat="43.31789" lon="-1.91482">
        <ele>1.8</ele>
        <time>2026-08-05T10:03:10Z</time>
      </trkpt>
      <trkpt lat="43.31792" lon="-1.9148">
        <ele>2</ele>
        <time>2026-08-05T10:03:11Z</time>
      </trkpt>
      <trkpt lat="43.31795" lon="-1.91479">
        <ele>2</ele>
        <time>2026-08-05T10:03:12Z</time>
      </trkpt>
      <trkpt lat="43.31797" lon="-1.9148">
        <ele>2</ele>
        <time>2026-08-05T10:03:13Z</time>
      </trkpt>
      <trkpt lat="43.31799" lon="-1.91483">
        <ele>2</ele>
        <time>2026-08-05T10:03:14Z</time>
      </trkpt>
      <trkpt lat="43.318" lon="-1.91486">
        <ele>1.6</ele>
        <time>2026-08-05T10:03:15Z</time>
      </trkpt>
      <trkpt lat="43.31802" lon="-1.9149">
        <ele>1.4</ele>
        <time>2026-08-05T10:03:16Z</time>
      </trkpt>
      <trkpt lat="43.31803" lon="-1.91494">
        <ele>1.2</ele>
        <time>2026-08-05T10:03:17Z</time>
      </trkpt>
      <trkpt lat="43.31805" lon="-1.91498">
        <ele>0.8</ele>
        <time>2026-08-05T10:03:18Z</time>
      </trkpt>
      <trkpt lat="43.31807" lon="-1.91502">
        <ele>0.8</ele>
        <time>2026-08-05T10:03:19Z</time>
      </trkpt>
      <trkpt lat="43.31808" lon="-1.91507">
        <ele>0.8</ele>
        <time>2026-08-05T10:03:20Z</time>
      </trkpt>
      <trkpt lat="43.3181" lon="-1.91512">
        <ele>0.8</ele>
        <time>2026-08-05T10:03:21Z</time>
      </trkpt>
      <trkpt lat="43.31812" lon="-1.91517">
        <ele>0.4</ele>
        <time>2026-08-05T10:03:22Z</time>
      </trkpt>
      <trkpt lat="43.31813" lon="-1.91522">
        <ele>0.4</ele>
        <time>2026-08-05T10:03:23Z</time>
      </trkpt>
      <trkpt lat="43.31815" lon="-1.91527">
        <ele>0.4</ele>
        <time>2026-08-05T10:03:24Z</time>
      </trkpt>
      <trkpt lat="43.31817" lon="-1.91531">
        <ele>1</ele>
        <time>2026-08-05T10:03:25Z</time>
      </trkpt>
      <trkpt lat="43.31818" lon="-1.91536">
        <ele>1</ele>
        <time>2026-08-05T10:03:26Z</time>
      </trkpt>
      <trkpt lat="43.3182" lon="-1.91542">
        <ele>1</ele>
        <time>2026-08-05T10:03:27Z</time>
      </trkpt>
      <trkpt lat="43.31822" lon="-1.91547">
        <ele>1.4</ele>
        <time>2026-08-05T10:03:28Z</time>
      </trkpt>
      <trkpt lat="43.31823" lon="-1.91552">
        <ele>1.4</ele>
        <time>2026-08-05T10:03:29Z</time>
      </trkpt>
      <trkpt lat="43.31825" lon="-1.91558">
        <ele>1.4</ele>
        <time>2026-08-05T10:03:30Z</time>
      </trkpt>
      <trkpt lat="43.31827" lon="-1.91563">
        <ele>1</ele>
        <time>2026-08-05T10:03:31Z</time>
      </trkpt>
      <trkpt lat="43.31829" lon="-1.91569">
        <ele>1</ele>
        <time>2026-08-05T10:03:32Z</time>
      </trkpt>
      <trkpt lat="43.31831" lon="-1.91574">
        <ele>1.4</ele>
        <time>2026-08-05T10:03:33Z</time>
      </trkpt>
      <trkpt lat="43.31833" lon="-1.91579">
        <ele>1.4</ele>
        <time>2026-08-05T10:03:34Z</time>
      </trkpt>
      <trkpt lat="43.31835" lon="-1.91584">
        <ele>1.4</ele>
        <time>2026-08-05T10:03:35Z</time>
      </trkpt>
      <trkpt lat="43.31837" lon="-1.91589">
        <ele>0.8</ele>
        <time>2026-08-05T10:03:36Z</time>
      </trkpt>
      <trkpt lat="43.31839" lon="-1.91595">
        <ele>0.8</ele>
        <time>2026-08-05T10:03:37Z</time>
      </trkpt>
      <trkpt lat="43.31841" lon="-1.91599">
        <ele>0.6</ele>
        <time>2026-08-05T10:03:38Z</time>
      </trkpt>
      <trkpt lat="43.31843" lon="-1.91604">
        <ele>0.6</ele>
        <time>2026-08-05T10:03:39Z</time>
      </trkpt>
      <trkpt lat="43.31845" lon="-1.91609">
        <ele>0.6</ele>
        <time>2026-08-05T10:03:40Z</time>
      </trkpt>
      <trkpt lat="43.31847" lon="-1.91615">
        <ele>0.6</ele>
        <time>2026-08-05T10:03:41Z</time>
      </trkpt>
      <trkpt lat="43.31849" lon="-1.9162">
        <ele>0.2</ele>
        <time>2026-08-05T10:03:42Z</time>
      </trkpt>
      <trkpt lat="43.3185" lon="-1.91625">
        <ele>0.2</ele>
        <time>2026-08-05T10:03:43Z</time>
      </trkpt>
      <trkpt lat="43.31852" lon="-1.91629">
        <ele>0.2</ele>
        <time>2026-08-05T10:03:44Z</time>
      </trkpt>
      <trkpt lat="43.31854" lon="-1.91634">
        <ele>0.4</ele>
        <time>2026-08-05T10:03:45Z</time>
      </trkpt>
      <trkpt lat="43.31856" lon="-1.91639">
        <ele>0.6</ele>
        <time>2026-08-05T10:03:46Z</time>
      </trkpt>
      <trkpt lat="43.31858" lon="-1.91644">
        <ele>0.6</ele>
        <time>2026-08-05T10:03:47Z</time>
      </trkpt>
      <trkpt lat="43.31859" lon="-1.91648">
        <ele>0.6</ele>
        <time>2026-08-05T10:03:48Z</time>
      </trkpt>
      <trkpt lat="43.31861" lon="-1.91653">
        <ele>0.6</ele>
        <time>2026-08-05T10:03:49Z</time>
      </trkpt>
      <trkpt lat="43.31863" lon="-1.91658">
        <ele>0.2</ele>
        <time>2026-08-05T10:03:50Z</time>
      </trkpt>
      <trkpt lat="43.31865" lon="-1.91663">
        <ele>4</ele>
        <time>2026-08-05T10:03:51Z</time>
      </trkpt>
      <trkpt lat="43.31866" lon="-1.91668">
        <ele>4</ele>
        <time>2026-08-05T10:03:52Z</time>
      </trkpt>
      <trkpt lat="43.31868" lon="-1.91673">
        <ele>3.8</ele>
        <time>2026-08-05T10:03:53Z</time>
      </trkpt>
      <trkpt lat="43.3187" lon="-1.91678">
        <ele>0.6</ele>
        <time>2026-08-05T10:03:54Z</time>
      </trkpt>
      <trkpt lat="43.31872" lon="-1.91683">
        <ele>0.6</ele>
        <time>2026-08-05T10:03:55Z</time>
      </trkpt>
      <trkpt lat="43.31873" lon="-1.91688">
        <ele>0.6</ele>
        <time>2026-08-05T10:03:56Z</time>
      </trkpt>
      <trkpt lat="43.31875" lon="-1.91693">
        <ele>0.4</ele>
        <time>2026-08-05T10:03:57Z</time>
      </trkpt>
      <trkpt lat="43.31877" lon="-1.91697">
        <ele>0.4</ele>
        <time>2026-08-05T10:03:58Z</time>
      </trkpt>
      <trkpt lat="43.31879" lon="-1.91702">
        <ele>0.4</ele>
        <time>2026-08-05T10:03:59Z</time>
      </trkpt>
      <trkpt lat="43.31881" lon="-1.91706">
        <ele>-0.2</ele>
        <time>2026-08-05T10:04:00Z</time>
      </trkpt>
      <trkpt lat="43.31882" lon="-1.91709">
        <ele>-0.2</ele>
        <time>2026-08-05T10:04:01Z</time>
      </trkpt>
      <trkpt lat="43.31884" lon="-1.91714">
        <ele>-0.2</ele>
        <time>2026-08-05T10:04:02Z</time>
      </trkpt>
      <trkpt lat="43.31886" lon="-1.91718">
        <ele>-0.2</ele>
        <time>2026-08-05T10:04:03Z</time>
      </trkpt>
      <trkpt lat="43.31888" lon="-1.91722">
        <ele>-0.2</ele>
        <time>2026-08-05T10:04:04Z</time>
      </trkpt>
      <trkpt lat="43.3189" lon="-1.91727">
        <ele>0.6</ele>
        <time>2026-08-05T10:04:05Z</time>
      </trkpt>
      <trkpt lat="43.31891" lon="-1.91731">
        <ele>-0.4</ele>
        <time>2026-08-05T10:04:06Z</time>
      </trkpt>
      <trkpt lat="43.31893" lon="-1.91736">
        <ele>-0.4</ele>
        <time>2026-08-05T10:04:07Z</time>
      </trkpt>
      <trkpt lat="43.31895" lon="-1.91741">
        <ele>-0.4</ele>
        <time>2026-08-05T10:04:08Z</time>
      </trkpt>
      <trkpt lat="43.31897" lon="-1.91746">
        <ele>0.6</ele>
        <time>2026-08-05T10:04:09Z</time>
      </trkpt>
      <trkpt lat="43.31898" lon="-1.91751">
        <ele>0.6</ele>
        <time>2026-08-05T10:04:10Z</time>
      </trkpt>
      <trkpt lat="43.319" lon="-1.91755">
        <ele>0.6</ele>
        <time>2026-08-05T10:04:11Z</time>
      </trkpt>
      <trkpt lat="43.31901" lon="-1.9176">
        <ele>3.4</ele>
        <time>2026-08-05T10:04:12Z</time>
      </trkpt>
      <trkpt lat="43.31901" lon="-1.91766">
        <ele>3.4</ele>
        <time>2026-08-05T10:04:13Z</time>
      </trkpt>
      <trkpt lat="43.31902" lon="-1.91771">
        <ele>-0.2</ele>
        <time>2026-08-05T10:04:14Z</time>
      </trkpt>
      <trkpt lat="43.31904" lon="-1.91776">
        <ele>-0.2</ele>
        <time>2026-08-05T10:04:15Z</time>
      </trkpt>
      <trkpt lat="43.31906" lon="-1.91781">
        <ele>-0.2</ele>
        <time>2026-08-05T10:04:16Z</time>
      </trkpt>
      <trkpt lat="43.31908" lon="-1.91787">
        <ele>3.7</ele>
        <time>2026-08-05T10:04:17Z</time>
      </trkpt>
      <trkpt lat="43.3191" lon="-1.91792">
        <ele>3.7</ele>
        <time>2026-08-05T10:04:18Z</time>
      </trkpt>
      <trkpt lat="43.31912" lon="-1.91798">
        <ele>3.8</ele>
        <time>2026-08-05T10:04:19Z</time>
      </trkpt>
      <trkpt lat="43.31914" lon="-1.91803">
        <ele>3.9</ele>
        <time>2026-08-05T10:04:20Z</time>
      </trkpt>
      <trkpt lat="43.31915" lon="-1.91808">
        <ele>0.2</ele>
        <time>2026-08-05T10:04:21Z</time>
      </trkpt>
      <trkpt lat="43.31917" lon="-1.91813">
        <ele>0.2</ele>
        <time>2026-08-05T10:04:22Z</time>
      </trkpt>
      <trkpt lat="43.31919" lon="-1.91818">
        <ele>0.2</ele>
        <time>2026-08-05T10:04:23Z</time>
      </trkpt>
      <trkpt lat="43.31921" lon="-1.91823">
        <ele>0.2</ele>
        <time>2026-08-05T10:04:24Z</time>
      </trkpt>
      <trkpt lat="43.31923" lon="-1.91829">
        <ele>0.2</ele>
        <time>2026-08-05T10:04:25Z</time>
      </trkpt>
      <trkpt lat="43.31925" lon="-1.91834">
        <ele>0.4</ele>
        <time>2026-08-05T10:04:26Z</time>
      </trkpt>
      <trkpt lat="43.31926" lon="-1.91838">
        <ele>0.2</ele>
        <time>2026-08-05T10:04:27Z</time>
      </trkpt>
      <trkpt lat="43.31928" lon="-1.91844">
        <ele>3.4</ele>
        <time>2026-08-05T10:04:28Z</time>
      </trkpt>
      <trkpt lat="43.3193" lon="-1.91849">
        <ele>3.5</ele>
        <time>2026-08-05T10:04:29Z</time>
      </trkpt>
      <trkpt lat="43.31932" lon="-1.91854">
        <ele>3.6</ele>
        <time>2026-08-05T10:04:30Z</time>
      </trkpt>
      <trkpt lat="43.31934" lon="-1.91859">
        <ele>3.6</ele>
        <time>2026-08-05T10:04:31Z</time>
      </trkpt>
      <trkpt lat="43.31936" lon="-1.91864">
        <ele>0.8</ele>
        <time>2026-08-05T10:04:32Z</time>
      </trkpt>
      <trkpt lat="43.31938" lon="-1.91869">
        <ele>0.8</ele>
        <time>2026-08-05T10:04:33Z</time>
      </trkpt>
      <trkpt lat="43.3194" lon="-1.91874">
        <ele>0.8</ele>
        <time>2026-08-05T10:04:34Z</time>
      </trkpt>
      <trkpt lat="43.31942" lon="-1.91879">
        <ele>0.8</ele>
        <time>2026-08-05T10:04:35Z</time>
      </trkpt>
      <trkpt lat="43.31944" lon="-1.91884">
        <ele>0.8</ele>
        <time>2026-08-05T10:04:36Z</time>
      </trkpt>
      <trkpt lat="43.31946" lon="-1.91889">
        <ele>0.8</ele>
        <time>2026-08-05T10:04:37Z</time>
      </trkpt>
      <trkpt lat="43.31948" lon="-1.91893">
        <ele>0.8</ele>
        <time>2026-08-05T10:04:38Z</time>
      </trkpt>
      <trkpt lat="43.3195" lon="-1.91898">
        <ele>1.2</ele>
        <time>2026-08-05T10:04:39Z</time>
      </trkpt>
      <trkpt lat="43.31952" lon="-1.91903">
        <ele>1.6</ele>
        <time>2026-08-05T10:04:40Z</time>
      </trkpt>
      <trkpt lat="43.31954" lon="-1.91908">
        <ele>1.6</ele>
        <time>2026-08-05T10:04:41Z</time>
      </trkpt>
      <trkpt lat="43.31956" lon="-1.91912">
        <ele>1.6</ele>
        <time>2026-08-05T10:04:42Z</time>
      </trkpt>
      <trkpt lat="43.31958" lon="-1.91917">
        <ele>1.6</ele>
        <time>2026-08-05T10:04:43Z</time>
      </trkpt>
      <trkpt lat="43.31961" lon="-1.91921">
        <ele>2.2</ele>
        <time>2026-08-05T10:04:44Z</time>
      </trkpt>
      <trkpt lat="43.31963" lon="-1.91925">
        <ele>2.2</ele>
        <time>2026-08-05T10:04:45Z</time>
      </trkpt>
      <trkpt lat="43.31966" lon="-1.91929">
        <ele>2.2</ele>
        <time>2026-08-05T10:04:46Z</time>
      </trkpt>
      <trkpt lat="43.31968" lon="-1.91934">
        <ele>2.2</ele>
        <time>2026-08-05T10:04:47Z</time>
      </trkpt>
      <trkpt lat="43.3197" lon="-1.91938">
        <ele>2.2</ele>
        <time>2026-08-05T10:04:48Z</time>
      </trkpt>
      <trkpt lat="43.31973" lon="-1.91943">
        <ele>2.2</ele>
        <time>2026-08-05T10:04:49Z</time>
      </trkpt>
      <trkpt lat="43.31975" lon="-1.91947">
        <ele>2.2</ele>
        <time>2026-08-05T10:04:50Z</time>
      </trkpt>
      <trkpt lat="43.31977" lon="-1.91952">
        <ele>2.2</ele>
        <time>2026-08-05T10:04:51Z</time>
      </trkpt>
      <trkpt lat="43.31979" lon="-1.91956">
        <ele>2.2</ele>
        <time>2026-08-05T10:04:52Z</time>
      </trkpt>
      <trkpt lat="43.31981" lon="-1.91961">
        <ele>2.8</ele>
        <time>2026-08-05T10:04:53Z</time>
      </trkpt>
      <trkpt lat="43.31983" lon="-1.91965">
        <ele>2.8</ele>
        <time>2026-08-05T10:04:54Z</time>
      </trkpt>
      <trkpt lat="43.31985" lon="-1.91969">
        <ele>3</ele>
        <time>2026-08-05T10:04:55Z</time>
      </trkpt>
      <trkpt lat="43.31987" lon="-1.91973">
        <ele>3</ele>
        <time>2026-08-05T10:04:56Z</time>
      </trkpt>
      <trkpt lat="43.31989" lon="-1.91977">
        <ele>3</ele>
        <time>2026-08-05T10:04:57Z</time>
      </trkpt>
      <trkpt lat="43.31991" lon="-1.91981">
        <ele>3</ele>
        <time>2026-08-05T10:04:58Z</time>
      </trkpt>
      <trkpt lat="43.31993" lon="-1.91985">
        <ele>3.4</ele>
        <time>2026-08-05T10:04:59Z</time>
      </trkpt>
      <trkpt lat="43.31996" lon="-1.91989">
        <ele>3.4</ele>
        <time>2026-08-05T10:05:00Z</time>
      </trkpt>
      <trkpt lat="43.31998" lon="-1.91993">
        <ele>3.4</ele>
        <time>2026-08-05T10:05:01Z</time>
      </trkpt>
      <trkpt lat="43.32" lon="-1.91997">
        <ele>3.4</ele>
        <time>2026-08-05T10:05:02Z</time>
      </trkpt>
      <trkpt lat="43.32002" lon="-1.92001">
        <ele>3.8</ele>
        <time>2026-08-05T10:05:03Z</time>
      </trkpt>
      <trkpt lat="43.32004" lon="-1.92005">
        <ele>4</ele>
        <time>2026-08-05T10:05:04Z</time>
      </trkpt>
      <trkpt lat="43.32006" lon="-1.92009">
        <ele>4.4</ele>
        <time>2026-08-05T10:05:05Z</time>
      </trkpt>
      <trkpt lat="43.32007" lon="-1.92013">
        <ele>4.4</ele>
        <time>2026-08-05T10:05:06Z</time>
      </trkpt>
      <trkpt lat="43.32009" lon="-1.92016">
        <ele>4.4</ele>
        <time>2026-08-05T10:05:07Z</time>
      </trkpt>
      <trkpt lat="43.32011" lon="-1.9202">
        <ele>4.4</ele>
        <time>2026-08-05T10:05:08Z</time>
      </trkpt>
      <trkpt lat="43.32013" lon="-1.92024">
        <ele>4.6</ele>
        <time>2026-08-05T10:05:09Z</time>
      </trkpt>
      <trkpt lat="43.32015" lon="-1.92028">
        <ele>4.6</ele>
        <time>2026-08-05T10:05:10Z</time>
      </trkpt>
      <trkpt lat="43.32017" lon="-1.92032">
        <ele>5</ele>
        <time>2026-08-05T10:05:11Z</time>
      </trkpt>
      <trkpt lat="43.32019" lon="-1.92035">
        <ele>5.4</ele>
        <time>2026-08-05T10:05:12Z</time>
      </trkpt>
      <trkpt lat="43.32021" lon="-1.92039">
        <ele>5.4</ele>
        <time>2026-08-05T10:05:13Z</time>
      </trkpt>
      <trkpt lat="43.32023" lon="-1.92043">
        <ele>5.4</ele>
        <time>2026-08-05T10:05:14Z</time>
      </trkpt>
      <trkpt lat="43.32024" lon="-1.92047">
        <ele>5.4</ele>
        <time>2026-08-05T10:05:15Z</time>
      </trkpt>
      <trkpt lat="43.32026" lon="-1.9205">
        <ele>5.4</ele>
        <time>2026-08-05T10:05:16Z</time>
      </trkpt>
      <trkpt lat="43.32028" lon="-1.92053">
        <ele>5.4</ele>
        <time>2026-08-05T10:05:17Z</time>
      </trkpt>
      <trkpt lat="43.32029" lon="-1.92056">
        <ele>6</ele>
        <time>2026-08-05T10:05:18Z</time>
      </trkpt>
      <trkpt lat="43.32031" lon="-1.92059">
        <ele>6</ele>
        <time>2026-08-05T10:05:19Z</time>
      </trkpt>
      <trkpt lat="43.32033" lon="-1.92063">
        <ele>6.2</ele>
        <time>2026-08-05T10:05:20Z</time>
      </trkpt>
      <trkpt lat="43.32034" lon="-1.92066">
        <ele>6.4</ele>
        <time>2026-08-05T10:05:21Z</time>
      </trkpt>
      <trkpt lat="43.32036" lon="-1.92069">
        <ele>6.4</ele>
        <time>2026-08-05T10:05:22Z</time>
      </trkpt>
      <trkpt lat="43.32037" lon="-1.92073">
        <ele>6.4</ele>
        <time>2026-08-05T10:05:23Z</time>
      </trkpt>
      <trkpt lat="43.32039" lon="-1.92077">
        <ele>6.4</ele>
        <time>2026-08-05T10:05:24Z</time>
      </trkpt>
      <trkpt lat="43.32041" lon="-1.9208">
        <ele>6.6</ele>
        <time>2026-08-05T10:05:25Z</time>
      </trkpt>
      <trkpt lat="43.32042" lon="-1.92083">
        <ele>7.4</ele>
        <time>2026-08-05T10:05:26Z</time>
      </trkpt>
      <trkpt lat="43.32044" lon="-1.92086">
        <ele>7.4</ele>
        <time>2026-08-05T10:05:27Z</time>
      </trkpt>
      <trkpt lat="43.32046" lon="-1.9209">
        <ele>7.4</ele>
        <time>2026-08-05T10:05:28Z</time>
      </trkpt>
      <trkpt lat="43.32048" lon="-1.92094">
        <ele>7.4</ele>
        <time>2026-08-05T10:05:29Z</time>
      </trkpt>
      <trkpt lat="43.32049" lon="-1.92097">
        <ele>7.8</ele>
        <time>2026-08-05T10:05:30Z</time>
      </trkpt>
      <trkpt lat="43.32051" lon="-1.92101">
        <ele>7.8</ele>
        <time>2026-08-05T10:05:31Z</time>
      </trkpt>
      <trkpt lat="43.32053" lon="-1.92104">
        <ele>8</ele>
        <time>2026-08-05T10:05:32Z</time>
      </trkpt>
      <trkpt lat="43.32055" lon="-1.92108">
        <ele>8</ele>
        <time>2026-08-05T10:05:33Z</time>
      </trkpt>
      <trkpt lat="43.32056" lon="-1.92111">
        <ele>8</ele>
        <time>2026-08-05T10:05:34Z</time>
      </trkpt>
      <trkpt lat="43.32058" lon="-1.92115">
        <ele>8</ele>
        <time>2026-08-05T10:05:35Z</time>
      </trkpt>
      <trkpt lat="43.3206" lon="-1.92118">
        <ele>8</ele>
        <time>2026-08-05T10:05:36Z</time>
      </trkpt>
      <trkpt lat="43.32062" lon="-1.92122">
        <ele>8.6</ele>
        <time>2026-08-05T10:05:37Z</time>
      </trkpt>
      <trkpt lat="43.32064" lon="-1.92126">
        <ele>8.6</ele>
        <time>2026-08-05T10:05:38Z</time>
      </trkpt>
      <trkpt lat="43.32066" lon="-1.92129">
        <ele>8.8</ele>
        <time>2026-08-05T10:05:39Z</time>
      </trkpt>
      <trkpt lat="43.32067" lon="-1.92133">
        <ele>9</ele>
        <time>2026-08-05T10:05:40Z</time>
      </trkpt>
      <trkpt lat="43.32069" lon="-1.92137">
        <ele>9.2</ele>
        <time>2026-08-05T10:05:41Z</time>
      </trkpt>
      <trkpt lat="43.32071" lon="-1.9214">
        <ele>9.4</ele>
        <time>2026-08-05T10:05:42Z</time>
      </trkpt>
      <trkpt lat="43.32073" lon="-1.92144">
        <ele>9.4</ele>
        <time>2026-08-05T10:05:43Z</time>
      </trkpt>
      <trkpt lat="43.32074" lon="-1.92148">
        <ele>9.4</ele>
        <time>2026-08-05T10:05:44Z</time>
      </trkpt>
      <trkpt lat="43.32076" lon="-1.92152">
        <ele>9.4</ele>
        <time>2026-08-05T10:05:45Z</time>
      </trkpt>
      <trkpt lat="43.32078" lon="-1.92155">
        <ele>10.2</ele>
        <time>2026-08-05T10:05:46Z</time>
      </trkpt>
      <trkpt lat="43.3208" lon="-1.92159">
        <ele>10.2</ele>
        <time>2026-08-05T10:05:47Z</time>
      </trkpt>
      <trkpt lat="43.32081" lon="-1.92162">
        <ele>10.2</ele>
        <time>2026-08-05T10:05:48Z</time>
      </trkpt>
      <trkpt lat="43.32083" lon="-1.92166">
        <ele>10.2</ele>
        <time>2026-08-05T10:05:49Z</time>
      </trkpt>
      <trkpt lat="43.32085" lon="-1.92169">
        <ele>10.2</ele>
        <time>2026-08-05T10:05:50Z</time>
      </trkpt>
      <trkpt lat="43.32087" lon="-1.92173">
        <ele>11.8</ele>
        <time>2026-08-05T10:05:51Z</time>
      </trkpt>
      <trkpt lat="43.32089" lon="-1.92176">
        <ele>11.8</ele>
        <time>2026-08-05T10:05:52Z</time>
      </trkpt>
      <trkpt lat="43.32091" lon="-1.92179">
        <ele>11.8</ele>
        <time>2026-08-05T10:05:53Z</time>
      </trkpt>
      <trkpt lat="43.32093" lon="-1.92182">
        <ele>11.8</ele>
        <time>2026-08-05T10:05:54Z</time>
      </trkpt>
      <trkpt lat="43.32096" lon="-1.92185">
        <ele>10.8</ele>
        <time>2026-08-05T10:05:55Z</time>
      </trkpt>
      <trkpt lat="43.32098" lon="-1.92187">
        <ele>10.8</ele>
        <time>2026-08-05T10:05:56Z</time>
      </trkpt>
      <trkpt lat="43.321" lon="-1.9219">
        <ele>10.8</ele>
        <time>2026-08-05T10:05:57Z</time>
      </trkpt>
      <trkpt lat="43.32102" lon="-1.92193">
        <ele>10.8</ele>
        <time>2026-08-05T10:05:58Z</time>
      </trkpt>
      <trkpt lat="43.32104" lon="-1.92196">
        <ele>10.8</ele>
        <time>2026-08-05T10:05:59Z</time>
      </trkpt>
      <trkpt lat="43.32106" lon="-1.92199">
        <ele>10.8</ele>
        <time>2026-08-05T10:06:00Z</time>
      </trkpt>
      <trkpt lat="43.32108" lon="-1.92202">
        <ele>10.8</ele>
        <time>2026-08-05T10:06:01Z</time>
      </trkpt>
      <trkpt lat="43.3211" lon="-1.92204">
        <ele>10.8</ele>
        <time>2026-08-05T10:06:02Z</time>
      </trkpt>
      <trkpt lat="43.32113" lon="-1.92207">
        <ele>10.8</ele>
        <time>2026-08-05T10:06:03Z</time>
      </trkpt>
      <trkpt lat="43.32115" lon="-1.92209">
        <ele>11.2</ele>
        <time>2026-08-05T10:06:04Z</time>
      </trkpt>
      <trkpt lat="43.32116" lon="-1.92211">
        <ele>11.6</ele>
        <time>2026-08-05T10:06:05Z</time>
      </trkpt>
      <trkpt lat="43.32118" lon="-1.92213">
        <ele>11.6</ele>
        <time>2026-08-05T10:06:06Z</time>
      </trkpt>
      <trkpt lat="43.3212" lon="-1.92215">
        <ele>11.6</ele>
        <time>2026-08-05T10:06:07Z</time>
      </trkpt>
      <trkpt lat="43.32122" lon="-1.92218">
        <ele>11.6</ele>
        <time>2026-08-05T10:06:08Z</time>
      </trkpt>
      <trkpt lat="43.32124" lon="-1.9222">
        <ele>11.6</ele>
        <time>2026-08-05T10:06:09Z</time>
      </trkpt>
      <trkpt lat="43.32126" lon="-1.92222">
        <ele>11.6</ele>
        <time>2026-08-05T10:06:10Z</time>
      </trkpt>
      <trkpt lat="43.32128" lon="-1.92225">
        <ele>11.6</ele>
        <time>2026-08-05T10:06:11Z</time>
      </trkpt>
      <trkpt lat="43.32129" lon="-1.92228">
        <ele>11.6</ele>
        <time>2026-08-05T10:06:12Z</time>
      </trkpt>
      <trkpt lat="43.3213" lon="-1.92231">
        <ele>11.6</ele>
        <time>2026-08-05T10:06:13Z</time>
      </trkpt>
      <trkpt lat="43.32132" lon="-1.92234">
        <ele>11.6</ele>
        <time>2026-08-05T10:06:14Z</time>
      </trkpt>
      <trkpt lat="43.32133" lon="-1.92238">
        <ele>9.8</ele>
        <time>2026-08-05T10:06:15Z</time>
      </trkpt>
      <trkpt lat="43.32134" lon="-1.92241">
        <ele>9.8</ele>
        <time>2026-08-05T10:06:16Z</time>
      </trkpt>
      <trkpt lat="43.32134" lon="-1.92245">
        <ele>9.8</ele>
        <time>2026-08-05T10:06:17Z</time>
      </trkpt>
      <trkpt lat="43.32134" lon="-1.92246">
        <ele>10.8</ele>
        <time>2026-08-05T10:06:18Z</time>
      </trkpt>
      <trkpt lat="43.32134" lon="-1.92247">
        <ele>11.2</ele>
        <time>2026-08-05T10:06:19Z</time>
      </trkpt>
      <trkpt lat="43.32129" lon="-1.92253">
        <ele>11.2</ele>
        <time>2026-08-05T10:06:35Z</time>
      </trkpt>
      <trkpt lat="43.32128" lon="-1.92256">
        <ele>11.2</ele>
        <time>2026-08-05T10:06:36Z</time>
      </trkpt>
      <trkpt lat="43.32128" lon="-1.92261">
        <ele>10.2</ele>
        <time>2026-08-05T10:06:37Z</time>
      </trkpt>
      <trkpt lat="43.32129" lon="-1.92266">
        <ele>9.6</ele>
        <time>2026-08-05T10:06:38Z</time>
      </trkpt>
      <trkpt lat="43.32131" lon="-1.92271">
        <ele>8.8</ele>
        <time>2026-08-05T10:06:39Z</time>
      </trkpt>
      <trkpt lat="43.32133" lon="-1.92276">
        <ele>8.8</ele>
        <time>2026-08-05T10:06:40Z</time>
      </trkpt>
      <trkpt lat="43.32134" lon="-1.92282">
        <ele>8.8</ele>
        <time>2026-08-05T10:06:41Z</time>
      </trkpt>
      <trkpt lat="43.32135" lon="-1.92288">
        <ele>8.8</ele>
        <time>2026-08-05T10:06:42Z</time>
      </trkpt>
      <trkpt lat="43.32136" lon="-1.92295">
        <ele>8.2</ele>
        <time>2026-08-05T10:06:43Z</time>
      </trkpt>
      <trkpt lat="43.32137" lon="-1.92302">
        <ele>7.2</ele>
        <time>2026-08-05T10:06:44Z</time>
      </trkpt>
      <trkpt lat="43.32138" lon="-1.92309">
        <ele>7.2</ele>
        <time>2026-08-05T10:06:45Z</time>
      </trkpt>
      <trkpt lat="43.32138" lon="-1.92317">
        <ele>7.2</ele>
        <time>2026-08-05T10:06:46Z</time>
      </trkpt>
      <trkpt lat="43.32139" lon="-1.92324">
        <ele>7.2</ele>
        <time>2026-08-05T10:06:47Z</time>
      </trkpt>
      <trkpt lat="43.32139" lon="-1.92332">
        <ele>7.2</ele>
        <time>2026-08-05T10:06:48Z</time>
      </trkpt>
      <trkpt lat="43.3214" lon="-1.9234">
        <ele>6.2</ele>
        <time>2026-08-05T10:06:49Z</time>
      </trkpt>
      <trkpt lat="43.32141" lon="-1.92348">
        <ele>6.2</ele>
        <time>2026-08-05T10:06:50Z</time>
      </trkpt>
      <trkpt lat="43.32141" lon="-1.92357">
        <ele>5.2</ele>
        <time>2026-08-05T10:06:51Z</time>
      </trkpt>
      <trkpt lat="43.32142" lon="-1.92365">
        <ele>4.4</ele>
        <time>2026-08-05T10:06:52Z</time>
      </trkpt>
      <trkpt lat="43.32143" lon="-1.92373">
        <ele>4.4</ele>
        <time>2026-08-05T10:06:53Z</time>
      </trkpt>
      <trkpt lat="43.32143" lon="-1.92382">
        <ele>4.4</ele>
        <time>2026-08-05T10:06:54Z</time>
      </trkpt>
      <trkpt lat="43.32144" lon="-1.9239">
        <ele>4.4</ele>
        <time>2026-08-05T10:06:55Z</time>
      </trkpt>
      <trkpt lat="43.32144" lon="-1.92398">
        <ele>4.4</ele>
        <time>2026-08-05T10:06:56Z</time>
      </trkpt>
      <trkpt lat="43.32144" lon="-1.92406">
        <ele>4.4</ele>
        <time>2026-08-05T10:06:57Z</time>
      </trkpt>
      <trkpt lat="43.32144" lon="-1.92414">
        <ele>5</ele>
        <time>2026-08-05T10:06:58Z</time>
      </trkpt>
      <trkpt lat="43.32144" lon="-1.92421">
        <ele>5.2</ele>
        <time>2026-08-05T10:06:59Z</time>
      </trkpt>
      <trkpt lat="43.32144" lon="-1.92429">
        <ele>5.2</ele>
        <time>2026-08-05T10:07:00Z</time>
      </trkpt>
      <trkpt lat="43.32144" lon="-1.92436">
        <ele>5.2</ele>
        <time>2026-08-05T10:07:01Z</time>
      </trkpt>
      <trkpt lat="43.32144" lon="-1.92443">
        <ele>5</ele>
        <time>2026-08-05T10:07:02Z</time>
      </trkpt>
      <trkpt lat="43.32144" lon="-1.92451">
        <ele>5</ele>
        <time>2026-08-05T10:07:03Z</time>
      </trkpt>
      <trkpt lat="43.32144" lon="-1.92458">
        <ele>4.6</ele>
        <time>2026-08-05T10:07:04Z</time>
      </trkpt>
      <trkpt lat="43.32144" lon="-1.92465">
        <ele>4.6</ele>
        <time>2026-08-05T10:07:05Z</time>
      </trkpt>
      <trkpt lat="43.32143" lon="-1.92472">
        <ele>4.6</ele>
        <time>2026-08-05T10:07:06Z</time>
      </trkpt>
      <trkpt lat="43.32143" lon="-1.92479">
        <ele>5</ele>
        <time>2026-08-05T10:07:07Z</time>
      </trkpt>
      <trkpt lat="43.32142" lon="-1.92486">
        <ele>5</ele>
        <time>2026-08-05T10:07:08Z</time>
      </trkpt>
      <trkpt lat="43.32142" lon="-1.92493">
        <ele>5</ele>
        <time>2026-08-05T10:07:09Z</time>
      </trkpt>
      <trkpt lat="43.32142" lon="-1.92499">
        <ele>5</ele>
        <time>2026-08-05T10:07:10Z</time>
      </trkpt>
      <trkpt lat="43.32141" lon="-1.92506">
        <ele>5.4</ele>
        <time>2026-08-05T10:07:11Z</time>
      </trkpt>
      <trkpt lat="43.3214" lon="-1.92512">
        <ele>5.4</ele>
        <time>2026-08-05T10:07:12Z</time>
      </trkpt>
      <trkpt lat="43.3214" lon="-1.92519">
        <ele>5.4</ele>
        <time>2026-08-05T10:07:13Z</time>
      </trkpt>
      <trkpt lat="43.32139" lon="-1.92525">
        <ele>5.4</ele>
        <time>2026-08-05T10:07:14Z</time>
      </trkpt>
      <trkpt lat="43.32139" lon="-1.92532">
        <ele>5.4</ele>
        <time>2026-08-05T10:07:15Z</time>
      </trkpt>
      <trkpt lat="43.32138" lon="-1.92538">
        <ele>5.4</ele>
        <time>2026-08-05T10:07:16Z</time>
      </trkpt>
      <trkpt lat="43.32137" lon="-1.92544">
        <ele>5.4</ele>
        <time>2026-08-05T10:07:17Z</time>
      </trkpt>
      <trkpt lat="43.32136" lon="-1.92551">
        <ele>5.8</ele>
        <time>2026-08-05T10:07:18Z</time>
      </trkpt>
      <trkpt lat="43.32135" lon="-1.92557">
        <ele>5.8</ele>
        <time>2026-08-05T10:07:19Z</time>
      </trkpt>
      <trkpt lat="43.32135" lon="-1.92563">
        <ele>5.8</ele>
        <time>2026-08-05T10:07:20Z</time>
      </trkpt>
      <trkpt lat="43.32134" lon="-1.92569">
        <ele>5.8</ele>
        <time>2026-08-05T10:07:21Z</time>
      </trkpt>
      <trkpt lat="43.32133" lon="-1.92575">
        <ele>5.8</ele>
        <time>2026-08-05T10:07:22Z</time>
      </trkpt>
      <trkpt lat="43.32133" lon="-1.92581">
        <ele>5.8</ele>
        <time>2026-08-05T10:07:23Z</time>
      </trkpt>
      <trkpt lat="43.32132" lon="-1.92587">
        <ele>5.8</ele>
        <time>2026-08-05T10:07:24Z</time>
      </trkpt>
      <trkpt lat="43.32131" lon="-1.92593">
        <ele>5.8</ele>
        <time>2026-08-05T10:07:25Z</time>
      </trkpt>
      <trkpt lat="43.32131" lon="-1.92599">
        <ele>5.8</ele>
        <time>2026-08-05T10:07:26Z</time>
      </trkpt>
      <trkpt lat="43.3213" lon="-1.92605">
        <ele>5.8</ele>
        <time>2026-08-05T10:07:27Z</time>
      </trkpt>
      <trkpt lat="43.3213" lon="-1.92611">
        <ele>6.2</ele>
        <time>2026-08-05T10:07:28Z</time>
      </trkpt>
      <trkpt lat="43.32129" lon="-1.92617">
        <ele>6.2</ele>
        <time>2026-08-05T10:07:29Z</time>
      </trkpt>
      <trkpt lat="43.32128" lon="-1.92623">
        <ele>6.2</ele>
        <time>2026-08-05T10:07:30Z</time>
      </trkpt>
      <trkpt lat="43.32128" lon="-1.92629">
        <ele>6.2</ele>
        <time>2026-08-05T10:07:31Z</time>
      </trkpt>
      <trkpt lat="43.32127" lon="-1.92635">
        <ele>6.2</ele>
        <time>2026-08-05T10:07:32Z</time>
      </trkpt>
      <trkpt lat="43.32127" lon="-1.92641">
        <ele>6.2</ele>
        <time>2026-08-05T10:07:33Z</time>
      </trkpt>
      <trkpt lat="43.32126" lon="-1.92647">
        <ele>6.2</ele>
        <time>2026-08-05T10:07:34Z</time>
      </trkpt>
      <trkpt lat="43.32125" lon="-1.92653">
        <ele>6.2</ele>
        <time>2026-08-05T10:07:35Z</time>
      </trkpt>
      <trkpt lat="43.32125" lon="-1.92659">
        <ele>6.2</ele>
        <time>2026-08-05T10:07:36Z</time>
      </trkpt>
      <trkpt lat="43.32124" lon="-1.92665">
        <ele>6.2</ele>
        <time>2026-08-05T10:07:37Z</time>
      </trkpt>
      <trkpt lat="43.32123" lon="-1.9267">
        <ele>6.4</ele>
        <time>2026-08-05T10:07:38Z</time>
      </trkpt>
      <trkpt lat="43.32123" lon="-1.92676">
        <ele>6.4</ele>
        <time>2026-08-05T10:07:39Z</time>
      </trkpt>
      <trkpt lat="43.32122" lon="-1.92682">
        <ele>6.4</ele>
        <time>2026-08-05T10:07:40Z</time>
      </trkpt>
      <trkpt lat="43.32121" lon="-1.92687">
        <ele>6.4</ele>
        <time>2026-08-05T10:07:41Z</time>
      </trkpt>
      <trkpt lat="43.32121" lon="-1.92693">
        <ele>6.4</ele>
        <time>2026-08-05T10:07:42Z</time>
      </trkpt>
      <trkpt lat="43.3212" lon="-1.92699">
        <ele>6.4</ele>
        <time>2026-08-05T10:07:43Z</time>
      </trkpt>
      <trkpt lat="43.3212" lon="-1.92704">
        <ele>6.4</ele>
        <time>2026-08-05T10:07:44Z</time>
      </trkpt>
      <trkpt lat="43.3212" lon="-1.9271">
        <ele>6.4</ele>
        <time>2026-08-05T10:07:45Z</time>
      </trkpt>
      <trkpt lat="43.32119" lon="-1.92716">
        <ele>7.2</ele>
        <time>2026-08-05T10:07:46Z</time>
      </trkpt>
      <trkpt lat="43.32119" lon="-1.92722">
        <ele>7.4</ele>
        <time>2026-08-05T10:07:47Z</time>
      </trkpt>
      <trkpt lat="43.32119" lon="-1.92728">
        <ele>7.4</ele>
        <time>2026-08-05T10:07:48Z</time>
      </trkpt>
      <trkpt lat="43.32118" lon="-1.92734">
        <ele>7.4</ele>
        <time>2026-08-05T10:07:49Z</time>
      </trkpt>
      <trkpt lat="43.32118" lon="-1.9274">
        <ele>7.4</ele>
        <time>2026-08-05T10:07:50Z</time>
      </trkpt>
      <trkpt lat="43.32118" lon="-1.92745">
        <ele>7.4</ele>
        <time>2026-08-05T10:07:51Z</time>
      </trkpt>
      <trkpt lat="43.32118" lon="-1.92751">
        <ele>7.4</ele>
        <time>2026-08-05T10:07:52Z</time>
      </trkpt>
      <trkpt lat="43.32117" lon="-1.92757">
        <ele>7.4</ele>
        <time>2026-08-05T10:07:53Z</time>
      </trkpt>
      <trkpt lat="43.32117" lon="-1.92763">
        <ele>7.4</ele>
        <time>2026-08-05T10:07:54Z</time>
      </trkpt>
      <trkpt lat="43.32117" lon="-1.92769">
        <ele>7.4</ele>
        <time>2026-08-05T10:07:55Z</time>
      </trkpt>
      <trkpt lat="43.32116" lon="-1.92775">
        <ele>7.4</ele>
        <time>2026-08-05T10:07:56Z</time>
      </trkpt>
      <trkpt lat="43.32116" lon="-1.92781">
        <ele>7.2</ele>
        <time>2026-08-05T10:07:57Z</time>
      </trkpt>
      <trkpt lat="43.32116" lon="-1.92787">
        <ele>7.2</ele>
        <time>2026-08-05T10:07:58Z</time>
      </trkpt>
      <trkpt lat="43.32116" lon="-1.92794">
        <ele>7.2</ele>
        <time>2026-08-05T10:07:59Z</time>
      </trkpt>
      <trkpt lat="43.32116" lon="-1.928">
        <ele>7.4</ele>
        <time>2026-08-05T10:08:00Z</time>
      </trkpt>
      <trkpt lat="43.32116" lon="-1.92806">
        <ele>7.8</ele>
        <time>2026-08-05T10:08:01Z</time>
      </trkpt>
      <trkpt lat="43.32116" lon="-1.92812">
        <ele>7.8</ele>
        <time>2026-08-05T10:08:02Z</time>
      </trkpt>
      <trkpt lat="43.32116" lon="-1.92819">
        <ele>7.8</ele>
        <time>2026-08-05T10:08:03Z</time>
      </trkpt>
      <trkpt lat="43.32116" lon="-1.92825">
        <ele>7.8</ele>
        <time>2026-08-05T10:08:04Z</time>
      </trkpt>
      <trkpt lat="43.32116" lon="-1.92831">
        <ele>7.8</ele>
        <time>2026-08-05T10:08:05Z</time>
      </trkpt>
      <trkpt lat="43.32116" lon="-1.92838">
        <ele>7.8</ele>
        <time>2026-08-05T10:08:06Z</time>
      </trkpt>
      <trkpt lat="43.32116" lon="-1.92844">
        <ele>8</ele>
        <time>2026-08-05T10:08:07Z</time>
      </trkpt>
      <trkpt lat="43.32116" lon="-1.92851">
        <ele>8.2</ele>
        <time>2026-08-05T10:08:08Z</time>
      </trkpt>
      <trkpt lat="43.32117" lon="-1.92857">
        <ele>8.2</ele>
        <time>2026-08-05T10:08:09Z</time>
      </trkpt>
      <trkpt lat="43.32117" lon="-1.92863">
        <ele>8.2</ele>
        <time>2026-08-05T10:08:10Z</time>
      </trkpt>
      <trkpt lat="43.32117" lon="-1.9287">
        <ele>6.8</ele>
        <time>2026-08-05T10:08:11Z</time>
      </trkpt>
      <trkpt lat="43.32117" lon="-1.92877">
        <ele>6.6</ele>
        <time>2026-08-05T10:08:12Z</time>
      </trkpt>
      <trkpt lat="43.32117" lon="-1.92884">
        <ele>6.6</ele>
        <time>2026-08-05T10:08:13Z</time>
      </trkpt>
      <trkpt lat="43.32117" lon="-1.92891">
        <ele>6.6</ele>
        <time>2026-08-05T10:08:14Z</time>
      </trkpt>
      <trkpt lat="43.32117" lon="-1.92897">
        <ele>6.6</ele>
        <time>2026-08-05T10:08:15Z</time>
      </trkpt>
      <trkpt lat="43.32118" lon="-1.92904">
        <ele>6.6</ele>
        <time>2026-08-05T10:08:16Z</time>
      </trkpt>
      <trkpt lat="43.32118" lon="-1.92911">
        <ele>6.2</ele>
        <time>2026-08-05T10:08:17Z</time>
      </trkpt>
      <trkpt lat="43.32118" lon="-1.92918">
        <ele>6.2</ele>
        <time>2026-08-05T10:08:18Z</time>
      </trkpt>
      <trkpt lat="43.32118" lon="-1.92925">
        <ele>6.2</ele>
        <time>2026-08-05T10:08:19Z</time>
      </trkpt>
      <trkpt lat="43.32119" lon="-1.92932">
        <ele>6.2</ele>
        <time>2026-08-05T10:08:20Z</time>
      </trkpt>
      <trkpt lat="43.32119" lon="-1.92939">
        <ele>6.2</ele>
        <time>2026-08-05T10:08:21Z</time>
      </trkpt>
      <trkpt lat="43.32119" lon="-1.92946">
        <ele>5.6</ele>
        <time>2026-08-05T10:08:22Z</time>
      </trkpt>
      <trkpt lat="43.32119" lon="-1.92953">
        <ele>5.6</ele>
        <time>2026-08-05T10:08:23Z</time>
      </trkpt>
      <trkpt lat="43.3212" lon="-1.9296">
        <ele>5.6</ele>
        <time>2026-08-05T10:08:24Z</time>
      </trkpt>
      <trkpt lat="43.3212" lon="-1.92968">
        <ele>5.6</ele>
        <time>2026-08-05T10:08:25Z</time>
      </trkpt>
      <trkpt lat="43.3212" lon="-1.92975">
        <ele>5.6</ele>
        <time>2026-08-05T10:08:26Z</time>
      </trkpt>
      <trkpt lat="43.3212" lon="-1.92983">
        <ele>5.6</ele>
        <time>2026-08-05T10:08:27Z</time>
      </trkpt>
      <trkpt lat="43.3212" lon="-1.9299">
        <ele>5.6</ele>
        <time>2026-08-05T10:08:28Z</time>
      </trkpt>
      <trkpt lat="43.3212" lon="-1.92998">
        <ele>4.4</ele>
        <time>2026-08-05T10:08:29Z</time>
      </trkpt>
      <trkpt lat="43.32121" lon="-1.93006">
        <ele>4.2</ele>
        <time>2026-08-05T10:08:30Z</time>
      </trkpt>
      <trkpt lat="43.32121" lon="-1.93014">
        <ele>4</ele>
        <time>2026-08-05T10:08:31Z</time>
      </trkpt>
      <trkpt lat="43.32121" lon="-1.93022">
        <ele>3.8</ele>
        <time>2026-08-05T10:08:32Z</time>
      </trkpt>
      <trkpt lat="43.32121" lon="-1.9303">
        <ele>3.8</ele>
        <time>2026-08-05T10:08:33Z</time>
      </trkpt>
      <trkpt lat="43.32121" lon="-1.93038">
        <ele>3.8</ele>
        <time>2026-08-05T10:08:34Z</time>
      </trkpt>
      <trkpt lat="43.32122" lon="-1.93046">
        <ele>3.8</ele>
        <time>2026-08-05T10:08:35Z</time>
      </trkpt>
      <trkpt lat="43.32122" lon="-1.93053">
        <ele>4.6</ele>
        <time>2026-08-05T10:08:36Z</time>
      </trkpt>
      <trkpt lat="43.32122" lon="-1.93061">
        <ele>4.6</ele>
        <time>2026-08-05T10:08:37Z</time>
      </trkpt>
      <trkpt lat="43.32122" lon="-1.93068">
        <ele>4.6</ele>
        <time>2026-08-05T10:08:38Z</time>
      </trkpt>
      <trkpt lat="43.32122" lon="-1.93076">
        <ele>4.6</ele>
        <time>2026-08-05T10:08:39Z</time>
      </trkpt>
      <trkpt lat="43.32122" lon="-1.93083">
        <ele>5</ele>
        <time>2026-08-05T10:08:40Z</time>
      </trkpt>
      <trkpt lat="43.32122" lon="-1.9309">
        <ele>5</ele>
        <time>2026-08-05T10:08:41Z</time>
      </trkpt>
      <trkpt lat="43.32122" lon="-1.93097">
        <ele>5</ele>
        <time>2026-08-05T10:08:42Z</time>
      </trkpt>
      <trkpt lat="43.32121" lon="-1.93104">
        <ele>5</ele>
        <time>2026-08-05T10:08:43Z</time>
      </trkpt>
      <trkpt lat="43.32121" lon="-1.93111">
        <ele>4.8</ele>
        <time>2026-08-05T10:08:44Z</time>
      </trkpt>
      <trkpt lat="43.32121" lon="-1.93117">
        <ele>4.8</ele>
        <time>2026-08-05T10:08:45Z</time>
      </trkpt>
      <trkpt lat="43.32121" lon="-1.93124">
        <ele>4.8</ele>
        <time>2026-08-05T10:08:46Z</time>
      </trkpt>
      <trkpt lat="43.32121" lon="-1.9313">
        <ele>4.8</ele>
        <time>2026-08-05T10:08:47Z</time>
      </trkpt>
      <trkpt lat="43.32122" lon="-1.93136">
        <ele>4.8</ele>
        <time>2026-08-05T10:08:48Z</time>
      </trkpt>
      <trkpt lat="43.32123" lon="-1.93142">
        <ele>5.8</ele>
        <time>2026-08-05T10:08:49Z</time>
      </trkpt>
      <trkpt lat="43.32123" lon="-1.93149">
        <ele>6.2</ele>
        <time>2026-08-05T10:08:50Z</time>
      </trkpt>
      <trkpt lat="43.32124" lon="-1.93155">
        <ele>6.2</ele>
        <time>2026-08-05T10:08:51Z</time>
      </trkpt>
      <trkpt lat="43.32124" lon="-1.93161">
        <ele>6.2</ele>
        <time>2026-08-05T10:08:52Z</time>
      </trkpt>
      <trkpt lat="43.32123" lon="-1.93166">
        <ele>6.2</ele>
        <time>2026-08-05T10:08:53Z</time>
      </trkpt>
      <trkpt lat="43.32123" lon="-1.93172">
        <ele>6.2</ele>
        <time>2026-08-05T10:08:54Z</time>
      </trkpt>
      <trkpt lat="43.32123" lon="-1.93178">
        <ele>5.6</ele>
        <time>2026-08-05T10:08:55Z</time>
      </trkpt>
      <trkpt lat="43.32123" lon="-1.93184">
        <ele>5.6</ele>
        <time>2026-08-05T10:08:56Z</time>
      </trkpt>
      <trkpt lat="43.32122" lon="-1.93189">
        <ele>5.6</ele>
        <time>2026-08-05T10:08:57Z</time>
      </trkpt>
      <trkpt lat="43.32122" lon="-1.93195">
        <ele>5.6</ele>
        <time>2026-08-05T10:08:58Z</time>
      </trkpt>
      <trkpt lat="43.32121" lon="-1.932">
        <ele>6.4</ele>
        <time>2026-08-05T10:08:59Z</time>
      </trkpt>
      <trkpt lat="43.32121" lon="-1.93205">
        <ele>6.4</ele>
        <time>2026-08-05T10:09:00Z</time>
      </trkpt>
      <trkpt lat="43.32121" lon="-1.93211">
        <ele>6.4</ele>
        <time>2026-08-05T10:09:01Z</time>
      </trkpt>
      <trkpt lat="43.3212" lon="-1.93216">
        <ele>7.2</ele>
        <time>2026-08-05T10:09:02Z</time>
      </trkpt>
      <trkpt lat="43.32119" lon="-1.9322">
        <ele>7.2</ele>
        <time>2026-08-05T10:09:03Z</time>
      </trkpt>
      <trkpt lat="43.32119" lon="-1.93225">
        <ele>7.2</ele>
        <time>2026-08-05T10:09:04Z</time>
      </trkpt>
      <trkpt lat="43.32118" lon="-1.9323">
        <ele>7.2</ele>
        <time>2026-08-05T10:09:05Z</time>
      </trkpt>
      <trkpt lat="43.32118" lon="-1.93235">
        <ele>7.4</ele>
        <time>2026-08-05T10:09:06Z</time>
      </trkpt>
      <trkpt lat="43.32117" lon="-1.93241">
        <ele>7.6</ele>
        <time>2026-08-05T10:09:07Z</time>
      </trkpt>
      <trkpt lat="43.32117" lon="-1.93246">
        <ele>7.6</ele>
        <time>2026-08-05T10:09:08Z</time>
      </trkpt>
      <trkpt lat="43.32116" lon="-1.93251">
        <ele>7.8</ele>
        <time>2026-08-05T10:09:09Z</time>
      </trkpt>
      <trkpt lat="43.32116" lon="-1.93256">
        <ele>8.2</ele>
        <time>2026-08-05T10:09:10Z</time>
      </trkpt>
      <trkpt lat="43.32115" lon="-1.93261">
        <ele>8.2</ele>
        <time>2026-08-05T10:09:11Z</time>
      </trkpt>
      <trkpt lat="43.32114" lon="-1.93266">
        <ele>8.2</ele>
        <time>2026-08-05T10:09:12Z</time>
      </trkpt>
      <trkpt lat="43.32114" lon="-1.93271">
        <ele>8.2</ele>
        <time>2026-08-05T10:09:13Z</time>
      </trkpt>
      <trkpt lat="43.32113" lon="-1.93277">
        <ele>8.2</ele>
        <time>2026-08-05T10:09:14Z</time>
      </trkpt>
      <trkpt lat="43.32113" lon="-1.93282">
        <ele>8.6</ele>
        <time>2026-08-05T10:09:15Z</time>
      </trkpt>
      <trkpt lat="43.32112" lon="-1.93287">
        <ele>8.8</ele>
        <time>2026-08-05T10:09:16Z</time>
      </trkpt>
      <trkpt lat="43.32111" lon="-1.93292">
        <ele>8.8</ele>
        <time>2026-08-05T10:09:17Z</time>
      </trkpt>
      <trkpt lat="43.32111" lon="-1.93297">
        <ele>8.8</ele>
        <time>2026-08-05T10:09:18Z</time>
      </trkpt>
      <trkpt lat="43.3211" lon="-1.93302">
        <ele>8.8</ele>
        <time>2026-08-05T10:09:19Z</time>
      </trkpt>
      <trkpt lat="43.32109" lon="-1.93308">
        <ele>8.8</ele>
        <time>2026-08-05T10:09:20Z</time>
      </trkpt>
      <trkpt lat="43.32109" lon="-1.93313">
        <ele>8.8</ele>
        <time>2026-08-05T10:09:21Z</time>
      </trkpt>
      <trkpt lat="43.32108" lon="-1.93317">
        <ele>8.8</ele>
        <time>2026-08-05T10:09:22Z</time>
      </trkpt>
      <trkpt lat="43.32107" lon="-1.93322">
        <ele>8.8</ele>
        <time>2026-08-05T10:09:23Z</time>
      </trkpt>
      <trkpt lat="43.32107" lon="-1.93328">
        <ele>8.2</ele>
        <time>2026-08-05T10:09:24Z</time>
      </trkpt>
      <trkpt lat="43.32106" lon="-1.93333">
        <ele>8.2</ele>
        <time>2026-08-05T10:09:25Z</time>
      </trkpt>
      <trkpt lat="43.32105" lon="-1.93338">
        <ele>8.2</ele>
        <time>2026-08-05T10:09:26Z</time>
      </trkpt>
      <trkpt lat="43.32104" lon="-1.93343">
        <ele>9.2</ele>
        <time>2026-08-05T10:09:27Z</time>
      </trkpt>
      <trkpt lat="43.32104" lon="-1.93348">
        <ele>9.2</ele>
        <time>2026-08-05T10:09:28Z</time>
      </trkpt>
      <trkpt lat="43.32103" lon="-1.93353">
        <ele>8.2</ele>
        <time>2026-08-05T10:09:29Z</time>
      </trkpt>
      <trkpt lat="43.32102" lon="-1.93358">
        <ele>8.2</ele>
        <time>2026-08-05T10:09:30Z</time>
      </trkpt>
      <trkpt lat="43.32101" lon="-1.93364">
        <ele>8.2</ele>
        <time>2026-08-05T10:09:31Z</time>
      </trkpt>
      <trkpt lat="43.32099" lon="-1.93369">
        <ele>9</ele>
        <time>2026-08-05T10:09:32Z</time>
      </trkpt>
      <trkpt lat="43.32098" lon="-1.93374">
        <ele>9.4</ele>
        <time>2026-08-05T10:09:33Z</time>
      </trkpt>
      <trkpt lat="43.32096" lon="-1.93379">
        <ele>9.4</ele>
        <time>2026-08-05T10:09:34Z</time>
      </trkpt>
      <trkpt lat="43.32095" lon="-1.93384">
        <ele>9.4</ele>
        <time>2026-08-05T10:09:35Z</time>
      </trkpt>
      <trkpt lat="43.32093" lon="-1.93389">
        <ele>9.4</ele>
        <time>2026-08-05T10:09:36Z</time>
      </trkpt>
      <trkpt lat="43.32092" lon="-1.93395">
        <ele>9.8</ele>
        <time>2026-08-05T10:09:37Z</time>
      </trkpt>
      <trkpt lat="43.3209" lon="-1.934">
        <ele>9.4</ele>
        <time>2026-08-05T10:09:38Z</time>
      </trkpt>
      <trkpt lat="43.32088" lon="-1.93405">
        <ele>9.4</ele>
        <time>2026-08-05T10:09:39Z</time>
      </trkpt>
      <trkpt lat="43.32087" lon="-1.93411">
        <ele>9.4</ele>
        <time>2026-08-05T10:09:40Z</time>
      </trkpt>
      <trkpt lat="43.32085" lon="-1.93416">
        <ele>9.4</ele>
        <time>2026-08-05T10:09:41Z</time>
      </trkpt>
      <trkpt lat="43.32083" lon="-1.93421">
        <ele>9.8</ele>
        <time>2026-08-05T10:09:42Z</time>
      </trkpt>
      <trkpt lat="43.32081" lon="-1.93426">
        <ele>9.8</ele>
        <time>2026-08-05T10:09:43Z</time>
      </trkpt>
      <trkpt lat="43.3208" lon="-1.93431">
        <ele>9.8</ele>
        <time>2026-08-05T10:09:44Z</time>
      </trkpt>
      <trkpt lat="43.32078" lon="-1.93436">
        <ele>9.6</ele>
        <time>2026-08-05T10:09:45Z</time>
      </trkpt>
      <trkpt lat="43.32076" lon="-1.93442">
        <ele>9.6</ele>
        <time>2026-08-05T10:09:46Z</time>
      </trkpt>
      <trkpt lat="43.32074" lon="-1.93447">
        <ele>9.6</ele>
        <time>2026-08-05T10:09:47Z</time>
      </trkpt>
      <trkpt lat="43.32072" lon="-1.93453">
        <ele>9.6</ele>
        <time>2026-08-05T10:09:48Z</time>
      </trkpt>
      <trkpt lat="43.3207" lon="-1.93458">
        <ele>8.8</ele>
        <time>2026-08-05T10:09:49Z</time>
      </trkpt>
      <trkpt lat="43.32069" lon="-1.93464">
        <ele>8.8</ele>
        <time>2026-08-05T10:09:50Z</time>
      </trkpt>
      <trkpt lat="43.32067" lon="-1.9347">
        <ele>8.8</ele>
        <time>2026-08-05T10:09:51Z</time>
      </trkpt>
      <trkpt lat="43.32065" lon="-1.93476">
        <ele>8.8</ele>
        <time>2026-08-05T10:09:52Z</time>
      </trkpt>
      <trkpt lat="43.32063" lon="-1.93482">
        <ele>8.6</ele>
        <time>2026-08-05T10:09:53Z</time>
      </trkpt>
      <trkpt lat="43.32061" lon="-1.93488">
        <ele>8.4</ele>
        <time>2026-08-05T10:09:54Z</time>
      </trkpt>
      <trkpt lat="43.32059" lon="-1.93494">
        <ele>8.4</ele>
        <time>2026-08-05T10:09:55Z</time>
      </trkpt>
      <trkpt lat="43.32057" lon="-1.935">
        <ele>8.4</ele>
        <time>2026-08-05T10:09:56Z</time>
      </trkpt>
      <trkpt lat="43.32055" lon="-1.93506">
        <ele>8.4</ele>
        <time>2026-08-05T10:09:57Z</time>
      </trkpt>
      <trkpt lat="43.32053" lon="-1.93512">
        <ele>8.4</ele>
        <time>2026-08-05T10:09:58Z</time>
      </trkpt>
      <trkpt lat="43.32051" lon="-1.93517">
        <ele>8.4</ele>
        <time>2026-08-05T10:09:59Z</time>
      </trkpt>
      <trkpt lat="43.32049" lon="-1.93522">
        <ele>8.6</ele>
        <time>2026-08-05T10:10:00Z</time>
      </trkpt>
      <trkpt lat="43.32047" lon="-1.93527">
        <ele>8.6</ele>
        <time>2026-08-05T10:10:01Z</time>
      </trkpt>
      <trkpt lat="43.32045" lon="-1.93533">
        <ele>8.6</ele>
        <time>2026-08-05T10:10:02Z</time>
      </trkpt>
      <trkpt lat="43.32043" lon="-1.93538">
        <ele>8.2</ele>
        <time>2026-08-05T10:10:03Z</time>
      </trkpt>
      <trkpt lat="43.32041" lon="-1.93544">
        <ele>8.2</ele>
        <time>2026-08-05T10:10:04Z</time>
      </trkpt>
      <trkpt lat="43.32039" lon="-1.9355">
        <ele>8.2</ele>
        <time>2026-08-05T10:10:05Z</time>
      </trkpt>
      <trkpt lat="43.32037" lon="-1.93556">
        <ele>8.2</ele>
        <time>2026-08-05T10:10:06Z</time>
      </trkpt>
      <trkpt lat="43.32035" lon="-1.93562">
        <ele>8.2</ele>
        <time>2026-08-05T10:10:07Z</time>
      </trkpt>
      <trkpt lat="43.32033" lon="-1.93568">
        <ele>8.2</ele>
        <time>2026-08-05T10:10:08Z</time>
      </trkpt>
      <trkpt lat="43.32031" lon="-1.93575">
        <ele>8.2</ele>
        <time>2026-08-05T10:10:09Z</time>
      </trkpt>
      <trkpt lat="43.32029" lon="-1.93581">
        <ele>7</ele>
        <time>2026-08-05T10:10:10Z</time>
      </trkpt>
      <trkpt lat="43.32027" lon="-1.93588">
        <ele>7</ele>
        <time>2026-08-05T10:10:11Z</time>
      </trkpt>
      <trkpt lat="43.32025" lon="-1.93595">
        <ele>7</ele>
        <time>2026-08-05T10:10:12Z</time>
      </trkpt>
      <trkpt lat="43.32023" lon="-1.93602">
        <ele>6.8</ele>
        <time>2026-08-05T10:10:13Z</time>
      </trkpt>
      <trkpt lat="43.32022" lon="-1.93609">
        <ele>6.6</ele>
        <time>2026-08-05T10:10:14Z</time>
      </trkpt>
      <trkpt lat="43.3202" lon="-1.93615">
        <ele>6.6</ele>
        <time>2026-08-05T10:10:15Z</time>
      </trkpt>
      <trkpt lat="43.32017" lon="-1.93622">
        <ele>6.6</ele>
        <time>2026-08-05T10:10:16Z</time>
      </trkpt>
      <trkpt lat="43.32015" lon="-1.93628">
        <ele>6.6</ele>
        <time>2026-08-05T10:10:17Z</time>
      </trkpt>
      <trkpt lat="43.32013" lon="-1.93634">
        <ele>6.6</ele>
        <time>2026-08-05T10:10:18Z</time>
      </trkpt>
      <trkpt lat="43.32011" lon="-1.9364">
        <ele>6.6</ele>
        <time>2026-08-05T10:10:19Z</time>
      </trkpt>
      <trkpt lat="43.32009" lon="-1.93646">
        <ele>6.2</ele>
        <time>2026-08-05T10:10:20Z</time>
      </trkpt>
      <trkpt lat="43.32007" lon="-1.93652">
        <ele>6</ele>
        <time>2026-08-05T10:10:21Z</time>
      </trkpt>
      <trkpt lat="43.32006" lon="-1.93658">
        <ele>6</ele>
        <time>2026-08-05T10:10:22Z</time>
      </trkpt>
      <trkpt lat="43.32003" lon="-1.93664">
        <ele>6</ele>
        <time>2026-08-05T10:10:23Z</time>
      </trkpt>
      <trkpt lat="43.32001" lon="-1.9367">
        <ele>6</ele>
        <time>2026-08-05T10:10:24Z</time>
      </trkpt>
      <trkpt lat="43.32" lon="-1.93676">
        <ele>6</ele>
        <time>2026-08-05T10:10:25Z</time>
      </trkpt>
      <trkpt lat="43.31998" lon="-1.93682">
        <ele>5.8</ele>
        <time>2026-08-05T10:10:26Z</time>
      </trkpt>
      <trkpt lat="43.31996" lon="-1.93688">
        <ele>5.8</ele>
        <time>2026-08-05T10:10:27Z</time>
      </trkpt>
      <trkpt lat="43.31994" lon="-1.93694">
        <ele>6.4</ele>
        <time>2026-08-05T10:10:28Z</time>
      </trkpt>
      <trkpt lat="43.31992" lon="-1.93699">
        <ele>6.8</ele>
        <time>2026-08-05T10:10:29Z</time>
      </trkpt>
      <trkpt lat="43.3199" lon="-1.93705">
        <ele>6.8</ele>
        <time>2026-08-05T10:10:30Z</time>
      </trkpt>
      <trkpt lat="43.31989" lon="-1.93711">
        <ele>7.2</ele>
        <time>2026-08-05T10:10:31Z</time>
      </trkpt>
      <trkpt lat="43.31987" lon="-1.93716">
        <ele>7.2</ele>
        <time>2026-08-05T10:10:32Z</time>
      </trkpt>
      <trkpt lat="43.31985" lon="-1.93721">
        <ele>7.2</ele>
        <time>2026-08-05T10:10:33Z</time>
      </trkpt>
      <trkpt lat="43.31983" lon="-1.93726">
        <ele>7.2</ele>
        <time>2026-08-05T10:10:34Z</time>
      </trkpt>
      <trkpt lat="43.31982" lon="-1.93731">
        <ele>7.2</ele>
        <time>2026-08-05T10:10:35Z</time>
      </trkpt>
      <trkpt lat="43.31981" lon="-1.93735">
        <ele>7.6</ele>
        <time>2026-08-05T10:10:36Z</time>
      </trkpt>
      <trkpt lat="43.3198" lon="-1.93739">
        <ele>8.6</ele>
        <time>2026-08-05T10:10:37Z</time>
      </trkpt>
      <trkpt lat="43.31978" lon="-1.93742">
        <ele>8.6</ele>
        <time>2026-08-05T10:10:38Z</time>
      </trkpt>
      <trkpt lat="43.31978" lon="-1.93745">
        <ele>9</ele>
        <time>2026-08-05T10:10:39Z</time>
      </trkpt>
      <trkpt lat="43.31976" lon="-1.93747">
        <ele>9</ele>
        <time>2026-08-05T10:10:40Z</time>
      </trkpt>
      <trkpt lat="43.31976" lon="-1.9375">
        <ele>9</ele>
        <time>2026-08-05T10:10:41Z</time>
      </trkpt>
      <trkpt lat="43.31975" lon="-1.93753">
        <ele>9</ele>
        <time>2026-08-05T10:10:42Z</time>
      </trkpt>
      <trkpt lat="43.31975" lon="-1.93756">
        <ele>9</ele>
        <time>2026-08-05T10:10:43Z</time>
      </trkpt>
      <trkpt lat="43.31974" lon="-1.9376">
        <ele>8</ele>
        <time>2026-08-05T10:10:44Z</time>
      </trkpt>
      <trkpt lat="43.31973" lon="-1.93764">
        <ele>7.8</ele>
        <time>2026-08-05T10:10:45Z</time>
      </trkpt>
      <trkpt lat="43.31972" lon="-1.93769">
        <ele>7.8</ele>
        <time>2026-08-05T10:10:46Z</time>
      </trkpt>
      <trkpt lat="43.31972" lon="-1.93773">
        <ele>7.8</ele>
        <time>2026-08-05T10:10:47Z</time>
      </trkpt>
      <trkpt lat="43.31972" lon="-1.93774">
        <ele>8.2</ele>
        <time>2026-08-05T10:10:48Z</time>
      </trkpt>
      <trkpt lat="43.31972" lon="-1.93774">
        <ele>8.2</ele>
        <time>2026-08-05T10:10:49Z</time>
      </trkpt>
      <trkpt lat="43.31976" lon="-1.93777">
        <ele>7.6</ele>
        <time>2026-08-05T10:12:05Z</time>
      </trkpt>
      <trkpt lat="43.31976" lon="-1.9378">
        <ele>7.6</ele>
        <time>2026-08-05T10:12:06Z</time>
      </trkpt>
      <trkpt lat="43.31976" lon="-1.93784">
        <ele>7.6</ele>
        <time>2026-08-05T10:12:07Z</time>
      </trkpt>
      <trkpt lat="43.31976" lon="-1.93789">
        <ele>7.6</ele>
        <time>2026-08-05T10:12:08Z</time>
      </trkpt>
      <trkpt lat="43.31975" lon="-1.93794">
        <ele>7.6</ele>
        <time>2026-08-05T10:12:09Z</time>
      </trkpt>
      <trkpt lat="43.31975" lon="-1.93799">
        <ele>7.6</ele>
        <time>2026-08-05T10:12:10Z</time>
      </trkpt>
      <trkpt lat="43.31974" lon="-1.93804">
        <ele>8.6</ele>
        <time>2026-08-05T10:12:11Z</time>
      </trkpt>
      <trkpt lat="43.31974" lon="-1.9381">
        <ele>8.6</ele>
        <time>2026-08-05T10:12:12Z</time>
      </trkpt>
      <trkpt lat="43.31973" lon="-1.93815">
        <ele>8.6</ele>
        <time>2026-08-05T10:12:13Z</time>
      </trkpt>
      <trkpt lat="43.31972" lon="-1.9382">
        <ele>7.6</ele>
        <time>2026-08-05T10:12:14Z</time>
      </trkpt>
      <trkpt lat="43.31971" lon="-1.93825">
        <ele>7.6</ele>
        <time>2026-08-05T10:12:15Z</time>
      </trkpt>
      <trkpt lat="43.3197" lon="-1.9383">
        <ele>7.6</ele>
        <time>2026-08-05T10:12:16Z</time>
      </trkpt>
      <trkpt lat="43.31968" lon="-1.93834">
        <ele>8.6</ele>
        <time>2026-08-05T10:12:17Z</time>
      </trkpt>
      <trkpt lat="43.31968" lon="-1.93839">
        <ele>9.4</ele>
        <time>2026-08-05T10:12:18Z</time>
      </trkpt>
      <trkpt lat="43.31968" lon="-1.93843">
        <ele>9.4</ele>
        <time>2026-08-05T10:12:19Z</time>
      </trkpt>
      <trkpt lat="43.31967" lon="-1.93847">
        <ele>9.4</ele>
        <time>2026-08-05T10:12:20Z</time>
      </trkpt>
      <trkpt lat="43.31967" lon="-1.93851">
        <ele>9.4</ele>
        <time>2026-08-05T10:12:21Z</time>
      </trkpt>
      <trkpt lat="43.31967" lon="-1.93855">
        <ele>9.8</ele>
        <time>2026-08-05T10:12:22Z</time>
      </trkpt>
      <trkpt lat="43.31967" lon="-1.93859">
        <ele>9.8</ele>
        <time>2026-08-05T10:12:23Z</time>
      </trkpt>
      <trkpt lat="43.31967" lon="-1.93863">
        <ele>9.8</ele>
        <time>2026-08-05T10:12:24Z</time>
      </trkpt>
      <trkpt lat="43.31966" lon="-1.93867">
        <ele>9.8</ele>
        <time>2026-08-05T10:12:25Z</time>
      </trkpt>
      <trkpt lat="43.31966" lon="-1.93871">
        <ele>10.2</ele>
        <time>2026-08-05T10:12:26Z</time>
      </trkpt>
      <trkpt lat="43.31966" lon="-1.93875">
        <ele>10.6</ele>
        <time>2026-08-05T10:12:27Z</time>
      </trkpt>
      <trkpt lat="43.31966" lon="-1.93879">
        <ele>11</ele>
        <time>2026-08-05T10:12:28Z</time>
      </trkpt>
      <trkpt lat="43.31966" lon="-1.93883">
        <ele>11</ele>
        <time>2026-08-05T10:12:29Z</time>
      </trkpt>
      <trkpt lat="43.31966" lon="-1.93887">
        <ele>11</ele>
        <time>2026-08-05T10:12:30Z</time>
      </trkpt>
      <trkpt lat="43.31966" lon="-1.93891">
        <ele>11</ele>
        <time>2026-08-05T10:12:31Z</time>
      </trkpt>
      <trkpt lat="43.31966" lon="-1.93895">
        <ele>11</ele>
        <time>2026-08-05T10:12:32Z</time>
      </trkpt>
      <trkpt lat="43.31966" lon="-1.93899">
        <ele>11</ele>
        <time>2026-08-05T10:12:33Z</time>
      </trkpt>
      <trkpt lat="43.31965" lon="-1.93902">
        <ele>11.4</ele>
        <time>2026-08-05T10:12:34Z</time>
      </trkpt>
      <trkpt lat="43.31964" lon="-1.93904">
        <ele>11.4</ele>
        <time>2026-08-05T10:12:35Z</time>
      </trkpt>
      <trkpt lat="43.31963" lon="-1.93906">
        <ele>11.4</ele>
        <time>2026-08-05T10:12:36Z</time>
      </trkpt>
      <trkpt lat="43.3196" lon="-1.93906">
        <ele>11.4</ele>
        <time>2026-08-05T10:12:37Z</time>
      </trkpt>
      <trkpt lat="43.31958" lon="-1.93907">
        <ele>11.4</ele>
        <time>2026-08-05T10:12:38Z</time>
      </trkpt>
      <trkpt lat="43.31954" lon="-1.93908">
        <ele>11.4</ele>
        <time>2026-08-05T10:12:39Z</time>
      </trkpt>
      <trkpt lat="43.31951" lon="-1.93909">
        <ele>11.4</ele>
        <time>2026-08-05T10:12:40Z</time>
      </trkpt>
      <trkpt lat="43.31948" lon="-1.9391">
        <ele>11.8</ele>
        <time>2026-08-05T10:12:41Z</time>
      </trkpt>
      <trkpt lat="43.31945" lon="-1.93911">
        <ele>12</ele>
        <time>2026-08-05T10:12:42Z</time>
      </trkpt>
      <trkpt lat="43.31942" lon="-1.93913">
        <ele>12.2</ele>
        <time>2026-08-05T10:12:43Z</time>
      </trkpt>
      <trkpt lat="43.31939" lon="-1.93915">
        <ele>12.2</ele>
        <time>2026-08-05T10:12:44Z</time>
      </trkpt>
      <trkpt lat="43.31937" lon="-1.93918">
        <ele>12.2</ele>
        <time>2026-08-05T10:12:45Z</time>
      </trkpt>
      <trkpt lat="43.31935" lon="-1.93921">
        <ele>12.2</ele>
        <time>2026-08-05T10:12:46Z</time>
      </trkpt>
      <trkpt lat="43.31932" lon="-1.93923">
        <ele>12.2</ele>
        <time>2026-08-05T10:12:47Z</time>
      </trkpt>
      <trkpt lat="43.3193" lon="-1.93926">
        <ele>12.4</ele>
        <time>2026-08-05T10:12:48Z</time>
      </trkpt>
      <trkpt lat="43.31928" lon="-1.93929">
        <ele>12.4</ele>
        <time>2026-08-05T10:12:49Z</time>
      </trkpt>
      <trkpt lat="43.31926" lon="-1.93932">
        <ele>12.6</ele>
        <time>2026-08-05T10:12:50Z</time>
      </trkpt>
      <trkpt lat="43.31924" lon="-1.93935">
        <ele>12.8</ele>
        <time>2026-08-05T10:12:51Z</time>
      </trkpt>
      <trkpt lat="43.31922" lon="-1.93938">
        <ele>12.8</ele>
        <time>2026-08-05T10:12:52Z</time>
      </trkpt>
      <trkpt lat="43.3192" lon="-1.93941">
        <ele>12.8</ele>
        <time>2026-08-05T10:12:53Z</time>
      </trkpt>
      <trkpt lat="43.31918" lon="-1.93944">
        <ele>12.8</ele>
        <time>2026-08-05T10:12:54Z</time>
      </trkpt>
      <trkpt lat="43.31916" lon="-1.93947">
        <ele>12.8</ele>
        <time>2026-08-05T10:12:55Z</time>
      </trkpt>
      <trkpt lat="43.31914" lon="-1.9395">
        <ele>13</ele>
        <time>2026-08-05T10:12:56Z</time>
      </trkpt>
      <trkpt lat="43.31912" lon="-1.93952">
        <ele>13.2</ele>
        <time>2026-08-05T10:12:57Z</time>
      </trkpt>
      <trkpt lat="43.31909" lon="-1.93955">
        <ele>13.6</ele>
        <time>2026-08-05T10:12:58Z</time>
      </trkpt>
      <trkpt lat="43.31907" lon="-1.93958">
        <ele>13.6</ele>
        <time>2026-08-05T10:12:59Z</time>
      </trkpt>
      <trkpt lat="43.31905" lon="-1.93961">
        <ele>13.6</ele>
        <time>2026-08-05T10:13:00Z</time>
      </trkpt>
      <trkpt lat="43.31903" lon="-1.93964">
        <ele>13.6</ele>
        <time>2026-08-05T10:13:01Z</time>
      </trkpt>
      <trkpt lat="43.31901" lon="-1.93967">
        <ele>13.6</ele>
        <time>2026-08-05T10:13:02Z</time>
      </trkpt>
      <trkpt lat="43.31898" lon="-1.9397">
        <ele>13.6</ele>
        <time>2026-08-05T10:13:03Z</time>
      </trkpt>
      <trkpt lat="43.31896" lon="-1.93973">
        <ele>14.8</ele>
        <time>2026-08-05T10:13:04Z</time>
      </trkpt>
      <trkpt lat="43.31893" lon="-1.93975">
        <ele>14.8</ele>
        <time>2026-08-05T10:13:05Z</time>
      </trkpt>
      <trkpt lat="43.31891" lon="-1.93978">
        <ele>15</ele>
        <time>2026-08-05T10:13:06Z</time>
      </trkpt>
      <trkpt lat="43.31888" lon="-1.93981">
        <ele>15</ele>
        <time>2026-08-05T10:13:07Z</time>
      </trkpt>
      <trkpt lat="43.31886" lon="-1.93984">
        <ele>15</ele>
        <time>2026-08-05T10:13:08Z</time>
      </trkpt>
      <trkpt lat="43.31884" lon="-1.93988">
        <ele>15</ele>
        <time>2026-08-05T10:13:09Z</time>
      </trkpt>
      <trkpt lat="43.31882" lon="-1.93991">
        <ele>15</ele>
        <time>2026-08-05T10:13:10Z</time>
      </trkpt>
      <trkpt lat="43.3188" lon="-1.93995">
        <ele>15.8</ele>
        <time>2026-08-05T10:13:11Z</time>
      </trkpt>
      <trkpt lat="43.31878" lon="-1.93999">
        <ele>15.8</ele>
        <time>2026-08-05T10:13:12Z</time>
      </trkpt>
      <trkpt lat="43.31877" lon="-1.94003">
        <ele>16</ele>
        <time>2026-08-05T10:13:13Z</time>
      </trkpt>
      <trkpt lat="43.31876" lon="-1.94008">
        <ele>16.2</ele>
        <time>2026-08-05T10:13:14Z</time>
      </trkpt>
      <trkpt lat="43.31875" lon="-1.94012">
        <ele>16.8</ele>
        <time>2026-08-05T10:13:15Z</time>
      </trkpt>
      <trkpt lat="43.31875" lon="-1.94016">
        <ele>16.8</ele>
        <time>2026-08-05T10:13:16Z</time>
      </trkpt>
      <trkpt lat="43.31875" lon="-1.94021">
        <ele>16.8</ele>
        <time>2026-08-05T10:13:17Z</time>
      </trkpt>
      <trkpt lat="43.31874" lon="-1.94026">
        <ele>16.8</ele>
        <time>2026-08-05T10:13:18Z</time>
      </trkpt>
      <trkpt lat="43.31874" lon="-1.9403">
        <ele>17</ele>
        <time>2026-08-05T10:13:19Z</time>
      </trkpt>
      <trkpt lat="43.31874" lon="-1.94034">
        <ele>17</ele>
        <time>2026-08-05T10:13:20Z</time>
      </trkpt>
      <trkpt lat="43.31873" lon="-1.94038">
        <ele>17</ele>
        <time>2026-08-05T10:13:21Z</time>
      </trkpt>
      <trkpt lat="43.31873" lon="-1.94042">
        <ele>17</ele>
        <time>2026-08-05T10:13:22Z</time>
      </trkpt>
      <trkpt lat="43.31872" lon="-1.94047">
        <ele>17</ele>
        <time>2026-08-05T10:13:23Z</time>
      </trkpt>
      <trkpt lat="43.31872" lon="-1.94051">
        <ele>17</ele>
        <time>2026-08-05T10:13:24Z</time>
      </trkpt>
      <trkpt lat="43.31872" lon="-1.94056">
        <ele>17</ele>
        <time>2026-08-05T10:13:25Z</time>
      </trkpt>
      <trkpt lat="43.31872" lon="-1.9406">
        <ele>17.4</ele>
        <time>2026-08-05T10:13:26Z</time>
      </trkpt>
      <trkpt lat="43.31871" lon="-1.94065">
        <ele>17.4</ele>
        <time>2026-08-05T10:13:27Z</time>
      </trkpt>
      <trkpt lat="43.31871" lon="-1.94069">
        <ele>17.4</ele>
        <time>2026-08-05T10:13:28Z</time>
      </trkpt>
      <trkpt lat="43.31871" lon="-1.94074">
        <ele>17.4</ele>
        <time>2026-08-05T10:13:29Z</time>
      </trkpt>
      <trkpt lat="43.31871" lon="-1.94078">
        <ele>17.6</ele>
        <time>2026-08-05T10:13:30Z</time>
      </trkpt>
      <trkpt lat="43.31871" lon="-1.94082">
        <ele>17.8</ele>
        <time>2026-08-05T10:13:31Z</time>
      </trkpt>
      <trkpt lat="43.3187" lon="-1.94086">
        <ele>18.2</ele>
        <time>2026-08-05T10:13:32Z</time>
      </trkpt>
      <trkpt lat="43.3187" lon="-1.9409">
        <ele>18.2</ele>
        <time>2026-08-05T10:13:33Z</time>
      </trkpt>
      <trkpt lat="43.3187" lon="-1.94094">
        <ele>18.4</ele>
        <time>2026-08-05T10:13:34Z</time>
      </trkpt>
      <trkpt lat="43.3187" lon="-1.94098">
        <ele>18.4</ele>
        <time>2026-08-05T10:13:35Z</time>
      </trkpt>
      <trkpt lat="43.31869" lon="-1.94103">
        <ele>18.4</ele>
        <time>2026-08-05T10:13:36Z</time>
      </trkpt>
      <trkpt lat="43.31869" lon="-1.94106">
        <ele>18.4</ele>
        <time>2026-08-05T10:13:37Z</time>
      </trkpt>
      <trkpt lat="43.31869" lon="-1.9411">
        <ele>18.4</ele>
        <time>2026-08-05T10:13:38Z</time>
      </trkpt>
      <trkpt lat="43.31868" lon="-1.94114">
        <ele>18.4</ele>
        <time>2026-08-05T10:13:39Z</time>
      </trkpt>
      <trkpt lat="43.31867" lon="-1.94118">
        <ele>19.6</ele>
        <time>2026-08-05T10:13:40Z</time>
      </trkpt>
      <trkpt lat="43.31865" lon="-1.94122">
        <ele>19.6</ele>
        <time>2026-08-05T10:13:41Z</time>
      </trkpt>
      <trkpt lat="43.31863" lon="-1.94124">
        <ele>19.6</ele>
        <time>2026-08-05T10:13:42Z</time>
      </trkpt>
      <trkpt lat="43.3186" lon="-1.94126">
        <ele>18.6</ele>
        <time>2026-08-05T10:13:43Z</time>
      </trkpt>
      <trkpt lat="43.31858" lon="-1.94128">
        <ele>18.6</ele>
        <time>2026-08-05T10:13:44Z</time>
      </trkpt>
      <trkpt lat="43.31855" lon="-1.94129">
        <ele>18.6</ele>
        <time>2026-08-05T10:13:45Z</time>
      </trkpt>
      <trkpt lat="43.31852" lon="-1.9413">
        <ele>18.6</ele>
        <time>2026-08-05T10:13:46Z</time>
      </trkpt>
      <trkpt lat="43.31849" lon="-1.94131">
        <ele>19.2</ele>
        <time>2026-08-05T10:13:47Z</time>
      </trkpt>
      <trkpt lat="43.31846" lon="-1.94132">
        <ele>19.2</ele>
        <time>2026-08-05T10:13:48Z</time>
      </trkpt>
      <trkpt lat="43.31843" lon="-1.94134">
        <ele>19.2</ele>
        <time>2026-08-05T10:13:49Z</time>
      </trkpt>
      <trkpt lat="43.3184" lon="-1.94135">
        <ele>19.2</ele>
        <time>2026-08-05T10:13:50Z</time>
      </trkpt>
      <trkpt lat="43.31838" lon="-1.94137">
        <ele>19.2</ele>
        <time>2026-08-05T10:13:51Z</time>
      </trkpt>
      <trkpt lat="43.31835" lon="-1.94138">
        <ele>19.2</ele>
        <time>2026-08-05T10:13:52Z</time>
      </trkpt>
      <trkpt lat="43.31832" lon="-1.94139">
        <ele>19.6</ele>
        <time>2026-08-05T10:13:53Z</time>
      </trkpt>
      <trkpt lat="43.31829" lon="-1.9414">
        <ele>19.8</ele>
        <time>2026-08-05T10:13:54Z</time>
      </trkpt>
      <trkpt lat="43.31826" lon="-1.94141">
        <ele>19.8</ele>
        <time>2026-08-05T10:13:55Z</time>
      </trkpt>
      <trkpt lat="43.31823" lon="-1.94143">
        <ele>19.8</ele>
        <time>2026-08-05T10:13:56Z</time>
      </trkpt>
      <trkpt lat="43.3182" lon="-1.94144">
        <ele>19.8</ele>
        <time>2026-08-05T10:13:57Z</time>
      </trkpt>
      <trkpt lat="43.31818" lon="-1.94146">
        <ele>20.6</ele>
        <time>2026-08-05T10:13:58Z</time>
      </trkpt>
      <trkpt lat="43.31815" lon="-1.94147">
        <ele>20.6</ele>
        <time>2026-08-05T10:13:59Z</time>
      </trkpt>
      <trkpt lat="43.31813" lon="-1.94149">
        <ele>20.6</ele>
        <time>2026-08-05T10:14:00Z</time>
      </trkpt>
      <trkpt lat="43.3181" lon="-1.94151">
        <ele>20.6</ele>
        <time>2026-08-05T10:14:01Z</time>
      </trkpt>
      <trkpt lat="43.31808" lon="-1.94154">
        <ele>20.6</ele>
        <time>2026-08-05T10:14:02Z</time>
      </trkpt>
      <trkpt lat="43.31807" lon="-1.94157">
        <ele>20.6</ele>
        <time>2026-08-05T10:14:03Z</time>
      </trkpt>
      <trkpt lat="43.31805" lon="-1.9416">
        <ele>20.6</ele>
        <time>2026-08-05T10:14:04Z</time>
      </trkpt>
      <trkpt lat="43.31804" lon="-1.94164">
        <ele>20</ele>
        <time>2026-08-05T10:14:05Z</time>
      </trkpt>
      <trkpt lat="43.31804" lon="-1.94167">
        <ele>20</ele>
        <time>2026-08-05T10:14:06Z</time>
      </trkpt>
      <trkpt lat="43.31803" lon="-1.94171">
        <ele>20</ele>
        <time>2026-08-05T10:14:07Z</time>
      </trkpt>
      <trkpt lat="43.31803" lon="-1.94175">
        <ele>20.2</ele>
        <time>2026-08-05T10:14:08Z</time>
      </trkpt>
      <trkpt lat="43.31803" lon="-1.94179">
        <ele>20.6</ele>
        <time>2026-08-05T10:14:09Z</time>
      </trkpt>
      <trkpt lat="43.31803" lon="-1.94183">
        <ele>20.6</ele>
        <time>2026-08-05T10:14:10Z</time>
      </trkpt>
      <trkpt lat="43.31803" lon="-1.94187">
        <ele>20.6</ele>
        <time>2026-08-05T10:14:11Z</time>
      </trkpt>
      <trkpt lat="43.31803" lon="-1.94191">
        <ele>20.6</ele>
        <time>2026-08-05T10:14:12Z</time>
      </trkpt>
      <trkpt lat="43.31802" lon="-1.94195">
        <ele>20.6</ele>
        <time>2026-08-05T10:14:13Z</time>
      </trkpt>
      <trkpt lat="43.31802" lon="-1.94199">
        <ele>20.6</ele>
        <time>2026-08-05T10:14:14Z</time>
      </trkpt>
      <trkpt lat="43.31802" lon="-1.94202">
        <ele>20.8</ele>
        <time>2026-08-05T10:14:15Z</time>
      </trkpt>
      <trkpt lat="43.31802" lon="-1.94206">
        <ele>21.4</ele>
        <time>2026-08-05T10:14:16Z</time>
      </trkpt>
      <trkpt lat="43.31802" lon="-1.9421">
        <ele>21.4</ele>
        <time>2026-08-05T10:14:17Z</time>
      </trkpt>
      <trkpt lat="43.31802" lon="-1.94213">
        <ele>21.4</ele>
        <time>2026-08-05T10:14:18Z</time>
      </trkpt>
      <trkpt lat="43.31802" lon="-1.94217">
        <ele>21.4</ele>
        <time>2026-08-05T10:14:19Z</time>
      </trkpt>
      <trkpt lat="43.31801" lon="-1.94221">
        <ele>21.4</ele>
        <time>2026-08-05T10:14:20Z</time>
      </trkpt>
      <trkpt lat="43.31801" lon="-1.94224">
        <ele>21.4</ele>
        <time>2026-08-05T10:14:21Z</time>
      </trkpt>
      <trkpt lat="43.31801" lon="-1.94228">
        <ele>21.4</ele>
        <time>2026-08-05T10:14:22Z</time>
      </trkpt>
      <trkpt lat="43.31801" lon="-1.94232">
        <ele>21.4</ele>
        <time>2026-08-05T10:14:23Z</time>
      </trkpt>
      <trkpt lat="43.31801" lon="-1.94235">
        <ele>21.4</ele>
        <time>2026-08-05T10:14:24Z</time>
      </trkpt>
      <trkpt lat="43.31801" lon="-1.94239">
        <ele>21.8</ele>
        <time>2026-08-05T10:14:25Z</time>
      </trkpt>
      <trkpt lat="43.31801" lon="-1.94243">
        <ele>21.4</ele>
        <time>2026-08-05T10:14:26Z</time>
      </trkpt>
      <trkpt lat="43.31801" lon="-1.94247">
        <ele>21.4</ele>
        <time>2026-08-05T10:14:27Z</time>
      </trkpt>
      <trkpt lat="43.31801" lon="-1.94251">
        <ele>21.4</ele>
        <time>2026-08-05T10:14:28Z</time>
      </trkpt>
      <trkpt lat="43.31801" lon="-1.94255">
        <ele>22.4</ele>
        <time>2026-08-05T10:14:29Z</time>
      </trkpt>
      <trkpt lat="43.31801" lon="-1.94259">
        <ele>22.6</ele>
        <time>2026-08-05T10:14:30Z</time>
      </trkpt>
      <trkpt lat="43.31801" lon="-1.94263">
        <ele>22.6</ele>
        <time>2026-08-05T10:14:31Z</time>
      </trkpt>
      <trkpt lat="43.318" lon="-1.94267">
        <ele>22.6</ele>
        <time>2026-08-05T10:14:32Z</time>
      </trkpt>
      <trkpt lat="43.318" lon="-1.94271">
        <ele>22.6</ele>
        <time>2026-08-05T10:14:33Z</time>
      </trkpt>
      <trkpt lat="43.318" lon="-1.94275">
        <ele>22.6</ele>
        <time>2026-08-05T10:14:34Z</time>
      </trkpt>
      <trkpt lat="43.318" lon="-1.94279">
        <ele>22.6</ele>
        <time>2026-08-05T10:14:35Z</time>
      </trkpt>
      <trkpt lat="43.318" lon="-1.94282">
        <ele>22.6</ele>
        <time>2026-08-05T10:14:36Z</time>
      </trkpt>
      <trkpt lat="43.318" lon="-1.94287">
        <ele>22.6</ele>
        <time>2026-08-05T10:14:37Z</time>
      </trkpt>
      <trkpt lat="43.318" lon="-1.94291">
        <ele>22.8</ele>
        <time>2026-08-05T10:14:38Z</time>
      </trkpt>
      <trkpt lat="43.318" lon="-1.94295">
        <ele>22.8</ele>
        <time>2026-08-05T10:14:39Z</time>
      </trkpt>
      <trkpt lat="43.318" lon="-1.94298">
        <ele>22.8</ele>
        <time>2026-08-05T10:14:40Z</time>
      </trkpt>
      <trkpt lat="43.318" lon="-1.94302">
        <ele>22.8</ele>
        <time>2026-08-05T10:14:41Z</time>
      </trkpt>
      <trkpt lat="43.318" lon="-1.94306">
        <ele>22.8</ele>
        <time>2026-08-05T10:14:42Z</time>
      </trkpt>
      <trkpt lat="43.31799" lon="-1.9431">
        <ele>22.8</ele>
        <time>2026-08-05T10:14:43Z</time>
      </trkpt>
      <trkpt lat="43.31799" lon="-1.94314">
        <ele>22.8</ele>
        <time>2026-08-05T10:14:44Z</time>
      </trkpt>
      <trkpt lat="43.31799" lon="-1.94318">
        <ele>22.8</ele>
        <time>2026-08-05T10:14:45Z</time>
      </trkpt>
      <trkpt lat="43.31799" lon="-1.94322">
        <ele>22.8</ele>
        <time>2026-08-05T10:14:46Z</time>
      </trkpt>
      <trkpt lat="43.31799" lon="-1.94326">
        <ele>23</ele>
        <time>2026-08-05T10:14:47Z</time>
      </trkpt>
      <trkpt lat="43.31799" lon="-1.9433">
        <ele>23</ele>
        <time>2026-08-05T10:14:48Z</time>
      </trkpt>
      <trkpt lat="43.31799" lon="-1.94334">
        <ele>23</ele>
        <time>2026-08-05T10:14:49Z</time>
      </trkpt>
      <trkpt lat="43.31799" lon="-1.94339">
        <ele>23.4</ele>
        <time>2026-08-05T10:14:50Z</time>
      </trkpt>
      <trkpt lat="43.31799" lon="-1.94343">
        <ele>23.4</ele>
        <time>2026-08-05T10:14:51Z</time>
      </trkpt>
      <trkpt lat="43.31799" lon="-1.94347">
        <ele>23.4</ele>
        <time>2026-08-05T10:14:52Z</time>
      </trkpt>
      <trkpt lat="43.31799" lon="-1.94351">
        <ele>23.4</ele>
        <time>2026-08-05T10:14:53Z</time>
      </trkpt>
      <trkpt lat="43.31799" lon="-1.94355">
        <ele>23.4</ele>
        <time>2026-08-05T10:14:54Z</time>
      </trkpt>
      <trkpt lat="43.318" lon="-1.94359">
        <ele>23.8</ele>
        <time>2026-08-05T10:14:55Z</time>
      </trkpt>
      <trkpt lat="43.318" lon="-1.94363">
        <ele>23.8</ele>
        <time>2026-08-05T10:14:56Z</time>
      </trkpt>
      <trkpt lat="43.318" lon="-1.94367">
        <ele>23.8</ele>
        <time>2026-08-05T10:14:57Z</time>
      </trkpt>
      <trkpt lat="43.318" lon="-1.94371">
        <ele>23.8</ele>
        <time>2026-08-05T10:14:58Z</time>
      </trkpt>
      <trkpt lat="43.31801" lon="-1.94375">
        <ele>24</ele>
        <time>2026-08-05T10:14:59Z</time>
      </trkpt>
      <trkpt lat="43.31801" lon="-1.94379">
        <ele>24.4</ele>
        <time>2026-08-05T10:15:00Z</time>
      </trkpt>
      <trkpt lat="43.31802" lon="-1.94384">
        <ele>24.4</ele>
        <time>2026-08-05T10:15:01Z</time>
      </trkpt>
      <trkpt lat="43.31803" lon="-1.94388">
        <ele>24.8</ele>
        <time>2026-08-05T10:15:02Z</time>
      </trkpt>
      <trkpt lat="43.31803" lon="-1.94392">
        <ele>24.8</ele>
        <time>2026-08-05T10:15:03Z</time>
      </trkpt>
      <trkpt lat="43.31804" lon="-1.94396">
        <ele>24.8</ele>
        <time>2026-08-05T10:15:04Z</time>
      </trkpt>
      <trkpt lat="43.31804" lon="-1.944">
        <ele>24.8</ele>
        <time>2026-08-05T10:15:05Z</time>
      </trkpt>
      <trkpt lat="43.31805" lon="-1.94405">
        <ele>24.8</ele>
        <time>2026-08-05T10:15:06Z</time>
      </trkpt>
      <trkpt lat="43.31806" lon="-1.94409">
        <ele>24.8</ele>
        <time>2026-08-05T10:15:07Z</time>
      </trkpt>
      <trkpt lat="43.31807" lon="-1.94413">
        <ele>24.8</ele>
        <time>2026-08-05T10:15:08Z</time>
      </trkpt>
      <trkpt lat="43.31808" lon="-1.94418">
        <ele>24</ele>
        <time>2026-08-05T10:15:09Z</time>
      </trkpt>
      <trkpt lat="43.31808" lon="-1.94422">
        <ele>24</ele>
        <time>2026-08-05T10:15:10Z</time>
      </trkpt>
      <trkpt lat="43.3181" lon="-1.94426">
        <ele>24</ele>
        <time>2026-08-05T10:15:11Z</time>
      </trkpt>
      <trkpt lat="43.31811" lon="-1.9443">
        <ele>25</ele>
        <time>2026-08-05T10:15:12Z</time>
      </trkpt>
      <trkpt lat="43.31812" lon="-1.94434">
        <ele>25.2</ele>
        <time>2026-08-05T10:15:13Z</time>
      </trkpt>
      <trkpt lat="43.31813" lon="-1.94439">
        <ele>25.2</ele>
        <time>2026-08-05T10:15:14Z</time>
      </trkpt>
      <trkpt lat="43.31813" lon="-1.94443">
        <ele>25.2</ele>
        <time>2026-08-05T10:15:15Z</time>
      </trkpt>
      <trkpt lat="43.31814" lon="-1.94447">
        <ele>25.2</ele>
        <time>2026-08-05T10:15:16Z</time>
      </trkpt>
      <trkpt lat="43.31815" lon="-1.94451">
        <ele>25.2</ele>
        <time>2026-08-05T10:15:17Z</time>
      </trkpt>
      <trkpt lat="43.31816" lon="-1.94456">
        <ele>25.2</ele>
        <time>2026-08-05T10:15:18Z</time>
      </trkpt>
      <trkpt lat="43.31817" lon="-1.9446">
        <ele>25.2</ele>
        <time>2026-08-05T10:15:19Z</time>
      </trkpt>
      <trkpt lat="43.31818" lon="-1.94465">
        <ele>25.2</ele>
        <time>2026-08-05T10:15:20Z</time>
      </trkpt>
      <trkpt lat="43.31819" lon="-1.94469">
        <ele>25.2</ele>
        <time>2026-08-05T10:15:21Z</time>
      </trkpt>
      <trkpt lat="43.3182" lon="-1.94474">
        <ele>25.2</ele>
        <time>2026-08-05T10:15:22Z</time>
      </trkpt>
      <trkpt lat="43.31821" lon="-1.94478">
        <ele>25.4</ele>
        <time>2026-08-05T10:15:23Z</time>
      </trkpt>
      <trkpt lat="43.31822" lon="-1.94481">
        <ele>25.4</ele>
        <time>2026-08-05T10:15:24Z</time>
      </trkpt>
      <trkpt lat="43.31824" lon="-1.94481">
        <ele>25.4</ele>
        <time>2026-08-05T10:15:25Z</time>
      </trkpt>
      <trkpt lat="43.31825" lon="-1.94483">
        <ele>25.4</ele>
        <time>2026-08-05T10:15:26Z</time>
      </trkpt>
      <trkpt lat="43.31827" lon="-1.94485">
        <ele>25.4</ele>
        <time>2026-08-05T10:15:27Z</time>
      </trkpt>
      <trkpt lat="43.31828" lon="-1.94487">
        <ele>25.6</ele>
        <time>2026-08-05T10:15:28Z</time>
      </trkpt>
      <trkpt lat="43.3183" lon="-1.9449">
        <ele>25.8</ele>
        <time>2026-08-05T10:15:29Z</time>
      </trkpt>
      <trkpt lat="43.31832" lon="-1.94492">
        <ele>25.8</ele>
        <time>2026-08-05T10:15:30Z</time>
      </trkpt>
      <trkpt lat="43.31834" lon="-1.94496">
        <ele>25.8</ele>
        <time>2026-08-05T10:15:31Z</time>
      </trkpt>
      <trkpt lat="43.31835" lon="-1.945">
        <ele>25.8</ele>
        <time>2026-08-05T10:15:32Z</time>
      </trkpt>
      <trkpt lat="43.31835" lon="-1.94507">
        <ele>26</ele>
        <time>2026-08-05T10:15:33Z</time>
      </trkpt>
      <trkpt lat="43.31835" lon="-1.94507">
        <ele>26</ele>
        <time>2026-08-05T10:15:34Z</time>
      </trkpt>
      <trkpt lat="43.31831" lon="-1.94524">
        <ele>26.2</ele>
        <time>2026-08-05T10:15:35Z</time>
      </trkpt>
      <trkpt lat="43.31831" lon="-1.9453">
        <ele>26.2</ele>
        <time>2026-08-05T10:15:36Z</time>
      </trkpt>
      <trkpt lat="43.31833" lon="-1.94533">
        <ele>26.2</ele>
        <time>2026-08-05T10:15:37Z</time>
      </trkpt>
      <trkpt lat="43.3183" lon="-1.94545">
        <ele>26.4</ele>
        <time>2026-08-05T10:15:38Z</time>
      </trkpt>
      <trkpt lat="43.3183" lon="-1.94553">
        <ele>26.4</ele>
        <time>2026-08-05T10:15:39Z</time>
      </trkpt>
      <trkpt lat="43.31828" lon="-1.94561">
        <ele>26.6</ele>
        <time>2026-08-05T10:15:40Z</time>
      </trkpt>
      <trkpt lat="43.31831" lon="-1.94564">
        <ele>26.6</ele>
        <time>2026-08-05T10:15:41Z</time>
      </trkpt>
      <trkpt lat="43.31831" lon="-1.94572">
        <ele>26.6</ele>
        <time>2026-08-05T10:15:42Z</time>
      </trkpt>
      <trkpt lat="43.31831" lon="-1.94581">
        <ele>26.6</ele>
        <time>2026-08-05T10:15:43Z</time>
      </trkpt>
      <trkpt lat="43.31832" lon="-1.94587">
        <ele>26.6</ele>
        <time>2026-08-05T10:15:44Z</time>
      </trkpt>
      <trkpt lat="43.31834" lon="-1.94591">
        <ele>27</ele>
        <time>2026-08-05T10:15:45Z</time>
      </trkpt>
      <trkpt lat="43.31833" lon="-1.94594">
        <ele>27.2</ele>
        <time>2026-08-05T10:15:46Z</time>
      </trkpt>
      <trkpt lat="43.3184" lon="-1.94594">
        <ele>27.2</ele>
        <time>2026-08-05T10:15:47Z</time>
      </trkpt>
      <trkpt lat="43.31845" lon="-1.94597">
        <ele>27.2</ele>
        <time>2026-08-05T10:15:48Z</time>
      </trkpt>
      <trkpt lat="43.31852" lon="-1.94596">
        <ele>27.2</ele>
        <time>2026-08-05T10:15:49Z</time>
      </trkpt>
      <trkpt lat="43.3186" lon="-1.94592">
        <ele>27.4</ele>
        <time>2026-08-05T10:15:50Z</time>
      </trkpt>
      <trkpt lat="43.31866" lon="-1.94594">
        <ele>27.8</ele>
        <time>2026-08-05T10:15:51Z</time>
      </trkpt>
      <trkpt lat="43.3187" lon="-1.94604">
        <ele>27.8</ele>
        <time>2026-08-05T10:15:52Z</time>
      </trkpt>
      <trkpt lat="43.31868" lon="-1.94616">
        <ele>27.8</ele>
        <time>2026-08-05T10:15:53Z</time>
      </trkpt>
      <trkpt lat="43.31865" lon="-1.94625">
        <ele>27.8</ele>
        <time>2026-08-05T10:15:54Z</time>
      </trkpt>
      <trkpt lat="43.31866" lon="-1.94628">
        <ele>27.6</ele>
        <time>2026-08-05T10:15:55Z</time>
      </trkpt>
      <trkpt lat="43.31867" lon="-1.94631">
        <ele>27.6</ele>
        <time>2026-08-05T10:15:56Z</time>
      </trkpt>
      <trkpt lat="43.31866" lon="-1.94636">
        <ele>27.6</ele>
        <time>2026-08-05T10:15:57Z</time>
      </trkpt>
      <trkpt lat="43.31867" lon="-1.94641">
        <ele>27.6</ele>
        <time>2026-08-05T10:15:58Z</time>
      </trkpt>
      <trkpt lat="43.31868" lon="-1.94645">
        <ele>27.6</ele>
        <time>2026-08-05T10:15:59Z</time>
      </trkpt>
      <trkpt lat="43.31868" lon="-1.94651">
        <ele>27.8</ele>
        <time>2026-08-05T10:16:00Z</time>
      </trkpt>
      <trkpt lat="43.31869" lon="-1.94655">
        <ele>28.2</ele>
        <time>2026-08-05T10:16:01Z</time>
      </trkpt>
      <trkpt lat="43.31871" lon="-1.9466">
        <ele>28.2</ele>
        <time>2026-08-05T10:16:02Z</time>
      </trkpt>
      <trkpt lat="43.31872" lon="-1.94665">
        <ele>28.2</ele>
        <time>2026-08-05T10:16:03Z</time>
      </trkpt>
      <trkpt lat="43.31874" lon="-1.94669">
        <ele>27.8</ele>
        <time>2026-08-05T10:16:04Z</time>
      </trkpt>
      <trkpt lat="43.31875" lon="-1.94674">
        <ele>27.8</ele>
        <time>2026-08-05T10:16:05Z</time>
      </trkpt>
      <trkpt lat="43.31876" lon="-1.94678">
        <ele>27.6</ele>
        <time>2026-08-05T10:16:06Z</time>
      </trkpt>
      <trkpt lat="43.31878" lon="-1.94683">
        <ele>27.6</ele>
        <time>2026-08-05T10:16:07Z</time>
      </trkpt>
      <trkpt lat="43.31879" lon="-1.94688">
        <ele>27.8</ele>
        <time>2026-08-05T10:16:08Z</time>
      </trkpt>
      <trkpt lat="43.31881" lon="-1.94692">
        <ele>27.8</ele>
        <time>2026-08-05T10:16:09Z</time>
      </trkpt>
      <trkpt lat="43.31882" lon="-1.94696">
        <ele>27.8</ele>
        <time>2026-08-05T10:16:10Z</time>
      </trkpt>
      <trkpt lat="43.31884" lon="-1.94701">
        <ele>27.8</ele>
        <time>2026-08-05T10:16:11Z</time>
      </trkpt>
      <trkpt lat="43.31886" lon="-1.94706">
        <ele>27.8</ele>
        <time>2026-08-05T10:16:12Z</time>
      </trkpt>
      <trkpt lat="43.31887" lon="-1.9471">
        <ele>28.2</ele>
        <time>2026-08-05T10:16:13Z</time>
      </trkpt>
      <trkpt lat="43.31888" lon="-1.94715">
        <ele>28</ele>
        <time>2026-08-05T10:16:14Z</time>
      </trkpt>
      <trkpt lat="43.3189" lon="-1.9472">
        <ele>28</ele>
        <time>2026-08-05T10:16:15Z</time>
      </trkpt>
      <trkpt lat="43.31891" lon="-1.94724">
        <ele>28</ele>
        <time>2026-08-05T10:16:16Z</time>
      </trkpt>
      <trkpt lat="43.31893" lon="-1.94729">
        <ele>28.2</ele>
        <time>2026-08-05T10:16:17Z</time>
      </trkpt>
      <trkpt lat="43.31894" lon="-1.94733">
        <ele>28.2</ele>
        <time>2026-08-05T10:16:18Z</time>
      </trkpt>
      <trkpt lat="43.31896" lon="-1.94738">
        <ele>28.2</ele>
        <time>2026-08-05T10:16:19Z</time>
      </trkpt>
      <trkpt lat="43.31897" lon="-1.94742">
        <ele>27.8</ele>
        <time>2026-08-05T10:16:20Z</time>
      </trkpt>
      <trkpt lat="43.31898" lon="-1.94747">
        <ele>27.8</ele>
        <time>2026-08-05T10:16:21Z</time>
      </trkpt>
      <trkpt lat="43.31899" lon="-1.94752">
        <ele>27.8</ele>
        <time>2026-08-05T10:16:22Z</time>
      </trkpt>
      <trkpt lat="43.31901" lon="-1.94756">
        <ele>27.8</ele>
        <time>2026-08-05T10:16:23Z</time>
      </trkpt>
      <trkpt lat="43.31903" lon="-1.9476">
        <ele>28.2</ele>
        <time>2026-08-05T10:16:24Z</time>
      </trkpt>
      <trkpt lat="43.31904" lon="-1.94765">
        <ele>28.2</ele>
        <time>2026-08-05T10:16:25Z</time>
      </trkpt>
      <trkpt lat="43.31905" lon="-1.9477">
        <ele>28.2</ele>
        <time>2026-08-05T10:16:26Z</time>
      </trkpt>
      <trkpt lat="43.31907" lon="-1.94775">
        <ele>28.2</ele>
        <time>2026-08-05T10:16:27Z</time>
      </trkpt>
      <trkpt lat="43.31909" lon="-1.94779">
        <ele>28.2</ele>
        <time>2026-08-05T10:16:28Z</time>
      </trkpt>
      <trkpt lat="43.3191" lon="-1.94783">
        <ele>28.2</ele>
        <time>2026-08-05T10:16:29Z</time>
      </trkpt>
      <trkpt lat="43.31911" lon="-1.94788">
        <ele>28.4</ele>
        <time>2026-08-05T10:16:30Z</time>
      </trkpt>
      <trkpt lat="43.31912" lon="-1.94793">
        <ele>28.4</ele>
        <time>2026-08-05T10:16:31Z</time>
      </trkpt>
      <trkpt lat="43.31914" lon="-1.94797">
        <ele>28.4</ele>
        <time>2026-08-05T10:16:32Z</time>
      </trkpt>
      <trkpt lat="43.31916" lon="-1.94802">
        <ele>28.4</ele>
        <time>2026-08-05T10:16:33Z</time>
      </trkpt>
      <trkpt lat="43.31917" lon="-1.94807">
        <ele>28.4</ele>
        <time>2026-08-05T10:16:34Z</time>
      </trkpt>
      <trkpt lat="43.31919" lon="-1.94811">
        <ele>28.4</ele>
        <time>2026-08-05T10:16:35Z</time>
      </trkpt>
      <trkpt lat="43.31921" lon="-1.94816">
        <ele>28.4</ele>
        <time>2026-08-05T10:16:36Z</time>
      </trkpt>
      <trkpt lat="43.31923" lon="-1.94821">
        <ele>28.4</ele>
        <time>2026-08-05T10:16:37Z</time>
      </trkpt>
      <trkpt lat="43.31924" lon="-1.94826">
        <ele>28.4</ele>
        <time>2026-08-05T10:16:38Z</time>
      </trkpt>
      <trkpt lat="43.31926" lon="-1.9483">
        <ele>28.8</ele>
        <time>2026-08-05T10:16:39Z</time>
      </trkpt>
      <trkpt lat="43.31928" lon="-1.94835">
        <ele>29</ele>
        <time>2026-08-05T10:16:40Z</time>
      </trkpt>
      <trkpt lat="43.31929" lon="-1.9484">
        <ele>29</ele>
        <time>2026-08-05T10:16:41Z</time>
      </trkpt>
      <trkpt lat="43.31931" lon="-1.94845">
        <ele>29</ele>
        <time>2026-08-05T10:16:42Z</time>
      </trkpt>
      <trkpt lat="43.31933" lon="-1.94849">
        <ele>29</ele>
        <time>2026-08-05T10:16:43Z</time>
      </trkpt>
      <trkpt lat="43.31934" lon="-1.94854">
        <ele>29</ele>
        <time>2026-08-05T10:16:44Z</time>
      </trkpt>
      <trkpt lat="43.31936" lon="-1.94859">
        <ele>29</ele>
        <time>2026-08-05T10:16:45Z</time>
      </trkpt>
      <trkpt lat="43.31938" lon="-1.94863">
        <ele>29.4</ele>
        <time>2026-08-05T10:16:46Z</time>
      </trkpt>
      <trkpt lat="43.3194" lon="-1.94867">
        <ele>29.4</ele>
        <time>2026-08-05T10:16:47Z</time>
      </trkpt>
      <trkpt lat="43.31942" lon="-1.94872">
        <ele>29.4</ele>
        <time>2026-08-05T10:16:48Z</time>
      </trkpt>
      <trkpt lat="43.31944" lon="-1.94876">
        <ele>29.2</ele>
        <time>2026-08-05T10:16:49Z</time>
      </trkpt>
      <trkpt lat="43.31945" lon="-1.94881">
        <ele>29.2</ele>
        <time>2026-08-05T10:16:50Z</time>
      </trkpt>
      <trkpt lat="43.31947" lon="-1.94886">
        <ele>29.2</ele>
        <time>2026-08-05T10:16:51Z</time>
      </trkpt>
      <trkpt lat="43.31949" lon="-1.9489">
        <ele>29.2</ele>
        <time>2026-08-05T10:16:52Z</time>
      </trkpt>
      <trkpt lat="43.3195" lon="-1.94895">
        <ele>29.2</ele>
        <time>2026-08-05T10:16:53Z</time>
      </trkpt>
      <trkpt lat="43.31952" lon="-1.94899">
        <ele>29.4</ele>
        <time>2026-08-05T10:16:54Z</time>
      </trkpt>
      <trkpt lat="43.31954" lon="-1.94904">
        <ele>29.6</ele>
        <time>2026-08-05T10:16:55Z</time>
      </trkpt>
      <trkpt lat="43.31955" lon="-1.94909">
        <ele>29.6</ele>
        <time>2026-08-05T10:16:56Z</time>
      </trkpt>
      <trkpt lat="43.31957" lon="-1.94913">
        <ele>29.6</ele>
        <time>2026-08-05T10:16:57Z</time>
      </trkpt>
      <trkpt lat="43.31958" lon="-1.94917">
        <ele>29.6</ele>
        <time>2026-08-05T10:16:58Z</time>
      </trkpt>
      <trkpt lat="43.3196" lon="-1.94921">
        <ele>29.6</ele>
        <time>2026-08-05T10:16:59Z</time>
      </trkpt>
      <trkpt lat="43.31961" lon="-1.94925">
        <ele>30</ele>
        <time>2026-08-05T10:17:00Z</time>
      </trkpt>
      <trkpt lat="43.31963" lon="-1.94929">
        <ele>30</ele>
        <time>2026-08-05T10:17:01Z</time>
      </trkpt>
      <trkpt lat="43.31964" lon="-1.94934">
        <ele>30</ele>
        <time>2026-08-05T10:17:02Z</time>
      </trkpt>
      <trkpt lat="43.31965" lon="-1.94938">
        <ele>30</ele>
        <time>2026-08-05T10:17:03Z</time>
      </trkpt>
      <trkpt lat="43.31967" lon="-1.94942">
        <ele>30</ele>
        <time>2026-08-05T10:17:04Z</time>
      </trkpt>
      <trkpt lat="43.31968" lon="-1.94946">
        <ele>30</ele>
        <time>2026-08-05T10:17:05Z</time>
      </trkpt>
      <trkpt lat="43.31969" lon="-1.9495">
        <ele>30</ele>
        <time>2026-08-05T10:17:06Z</time>
      </trkpt>
      <trkpt lat="43.31971" lon="-1.94955">
        <ele>30</ele>
        <time>2026-08-05T10:17:07Z</time>
      </trkpt>
      <trkpt lat="43.31972" lon="-1.94959">
        <ele>30.2</ele>
        <time>2026-08-05T10:17:08Z</time>
      </trkpt>
      <trkpt lat="43.31974" lon="-1.94963">
        <ele>30.2</ele>
        <time>2026-08-05T10:17:09Z</time>
      </trkpt>
      <trkpt lat="43.31976" lon="-1.94967">
        <ele>30.2</ele>
        <time>2026-08-05T10:17:10Z</time>
      </trkpt>
      <trkpt lat="43.31977" lon="-1.94972">
        <ele>30.8</ele>
        <time>2026-08-05T10:17:11Z</time>
      </trkpt>
      <trkpt lat="43.31979" lon="-1.94976">
        <ele>30.8</ele>
        <time>2026-08-05T10:17:12Z</time>
      </trkpt>
      <trkpt lat="43.31981" lon="-1.94981">
        <ele>30.8</ele>
        <time>2026-08-05T10:17:13Z</time>
      </trkpt>
      <trkpt lat="43.31983" lon="-1.94985">
        <ele>30.8</ele>
        <time>2026-08-05T10:17:14Z</time>
      </trkpt>
      <trkpt lat="43.31984" lon="-1.9499">
        <ele>30.8</ele>
        <time>2026-08-05T10:17:15Z</time>
      </trkpt>
      <trkpt lat="43.31986" lon="-1.94994">
        <ele>31.2</ele>
        <time>2026-08-05T10:17:16Z</time>
      </trkpt>
      <trkpt lat="43.31987" lon="-1.94998">
        <ele>31.2</ele>
        <time>2026-08-05T10:17:17Z</time>
      </trkpt>
      <trkpt lat="43.31988" lon="-1.95003">
        <ele>31.2</ele>
        <time>2026-08-05T10:17:18Z</time>
      </trkpt>
      <trkpt lat="43.31989" lon="-1.95007">
        <ele>31.2</ele>
        <time>2026-08-05T10:17:19Z</time>
      </trkpt>
      <trkpt lat="43.3199" lon="-1.95012">
        <ele>31.2</ele>
        <time>2026-08-05T10:17:20Z</time>
      </trkpt>
      <trkpt lat="43.31991" lon="-1.95016">
        <ele>31.2</ele>
        <time>2026-08-05T10:17:21Z</time>
      </trkpt>
      <trkpt lat="43.31992" lon="-1.95021">
        <ele>31.2</ele>
        <time>2026-08-05T10:17:22Z</time>
      </trkpt>
      <trkpt lat="43.31993" lon="-1.95025">
        <ele>31.2</ele>
        <time>2026-08-05T10:17:23Z</time>
      </trkpt>
      <trkpt lat="43.31995" lon="-1.95029">
        <ele>31.4</ele>
        <time>2026-08-05T10:17:24Z</time>
      </trkpt>
      <trkpt lat="43.31996" lon="-1.95034">
        <ele>31.6</ele>
        <time>2026-08-05T10:17:25Z</time>
      </trkpt>
      <trkpt lat="43.31997" lon="-1.95039">
        <ele>31.6</ele>
        <time>2026-08-05T10:17:26Z</time>
      </trkpt>
      <trkpt lat="43.31998" lon="-1.95043">
        <ele>31.6</ele>
        <time>2026-08-05T10:17:27Z</time>
      </trkpt>
      <trkpt lat="43.31999" lon="-1.95048">
        <ele>31.6</ele>
        <time>2026-08-05T10:17:28Z</time>
      </trkpt>
      <trkpt lat="43.32001" lon="-1.95053">
        <ele>31.4</ele>
        <time>2026-08-05T10:17:29Z</time>
      </trkpt>
      <trkpt lat="43.32002" lon="-1.95058">
        <ele>31.4</ele>
        <time>2026-08-05T10:17:30Z</time>
      </trkpt>
      <trkpt lat="43.32003" lon="-1.95063">
        <ele>31.4</ele>
        <time>2026-08-05T10:17:31Z</time>
      </trkpt>
      <trkpt lat="43.32004" lon="-1.95068">
        <ele>31.6</ele>
        <time>2026-08-05T10:17:32Z</time>
      </trkpt>
      <trkpt lat="43.32005" lon="-1.95073">
        <ele>31.8</ele>
        <time>2026-08-05T10:17:33Z</time>
      </trkpt>
      <trkpt lat="43.32006" lon="-1.95078">
        <ele>32.2</ele>
        <time>2026-08-05T10:17:34Z</time>
      </trkpt>
      <trkpt lat="43.32007" lon="-1.95083">
        <ele>32.2</ele>
        <time>2026-08-05T10:17:35Z</time>
      </trkpt>
      <trkpt lat="43.32008" lon="-1.95088">
        <ele>32.2</ele>
        <time>2026-08-05T10:17:36Z</time>
      </trkpt>
      <trkpt lat="43.32009" lon="-1.95092">
        <ele>32.2</ele>
        <time>2026-08-05T10:17:37Z</time>
      </trkpt>
      <trkpt lat="43.32011" lon="-1.95097">
        <ele>32.2</ele>
        <time>2026-08-05T10:17:38Z</time>
      </trkpt>
      <trkpt lat="43.32012" lon="-1.95102">
        <ele>32.2</ele>
        <time>2026-08-05T10:17:39Z</time>
      </trkpt>
      <trkpt lat="43.32013" lon="-1.95106">
        <ele>32.2</ele>
        <time>2026-08-05T10:17:40Z</time>
      </trkpt>
      <trkpt lat="43.32014" lon="-1.95111">
        <ele>32.2</ele>
        <time>2026-08-05T10:17:41Z</time>
      </trkpt>
      <trkpt lat="43.32015" lon="-1.95116">
        <ele>32</ele>
        <time>2026-08-05T10:17:42Z</time>
      </trkpt>
      <trkpt lat="43.32016" lon="-1.95121">
        <ele>32</ele>
        <time>2026-08-05T10:17:43Z</time>
      </trkpt>
      <trkpt lat="43.32016" lon="-1.95126">
        <ele>32</ele>
        <time>2026-08-05T10:17:44Z</time>
      </trkpt>
      <trkpt lat="43.32017" lon="-1.95131">
        <ele>32</ele>
        <time>2026-08-05T10:17:45Z</time>
      </trkpt>
      <trkpt lat="43.32018" lon="-1.95136">
        <ele>32.2</ele>
        <time>2026-08-05T10:17:46Z</time>
      </trkpt>
      <trkpt lat="43.32018" lon="-1.95141">
        <ele>32.4</ele>
        <time>2026-08-05T10:17:47Z</time>
      </trkpt>
      <trkpt lat="43.32019" lon="-1.95145">
        <ele>32.4</ele>
        <time>2026-08-05T10:17:48Z</time>
      </trkpt>
      <trkpt lat="43.32019" lon="-1.95149">
        <ele>32.4</ele>
        <time>2026-08-05T10:17:49Z</time>
      </trkpt>
      <trkpt lat="43.32019" lon="-1.95153">
        <ele>32.4</ele>
        <time>2026-08-05T10:17:50Z</time>
      </trkpt>
      <trkpt lat="43.3202" lon="-1.95157">
        <ele>32.6</ele>
        <time>2026-08-05T10:17:51Z</time>
      </trkpt>
      <trkpt lat="43.3202" lon="-1.9516">
        <ele>32.8</ele>
        <time>2026-08-05T10:17:52Z</time>
      </trkpt>
      <trkpt lat="43.32021" lon="-1.95162">
        <ele>32.8</ele>
        <time>2026-08-05T10:17:53Z</time>
      </trkpt>
      <trkpt lat="43.32022" lon="-1.95164">
        <ele>32.8</ele>
        <time>2026-08-05T10:17:54Z</time>
      </trkpt>
      <trkpt lat="43.32022" lon="-1.95167">
        <ele>31.8</ele>
        <time>2026-08-05T10:17:55Z</time>
      </trkpt>
      <trkpt lat="43.32023" lon="-1.9517">
        <ele>31.8</ele>
        <time>2026-08-05T10:17:56Z</time>
      </trkpt>
      <trkpt lat="43.32023" lon="-1.95174">
        <ele>31.8</ele>
        <time>2026-08-05T10:17:57Z</time>
      </trkpt>
      <trkpt lat="43.32022" lon="-1.95177">
        <ele>32.2</ele>
        <time>2026-08-05T10:17:58Z</time>
      </trkpt>
      <trkpt lat="43.32022" lon="-1.95181">
        <ele>32.2</ele>
        <time>2026-08-05T10:17:59Z</time>
      </trkpt>
      <trkpt lat="43.32022" lon="-1.95186">
        <ele>32.2</ele>
        <time>2026-08-05T10:18:00Z</time>
      </trkpt>
      <trkpt lat="43.32022" lon="-1.9519">
        <ele>32.2</ele>
        <time>2026-08-05T10:18:01Z</time>
      </trkpt>
      <trkpt lat="43.32022" lon="-1.95195">
        <ele>32.2</ele>
        <time>2026-08-05T10:18:02Z</time>
      </trkpt>
      <trkpt lat="43.32023" lon="-1.95199">
        <ele>31.6</ele>
        <time>2026-08-05T10:18:03Z</time>
      </trkpt>
      <trkpt lat="43.32024" lon="-1.95204">
        <ele>31.4</ele>
        <time>2026-08-05T10:18:04Z</time>
      </trkpt>
      <trkpt lat="43.32025" lon="-1.9521">
        <ele>31.4</ele>
        <time>2026-08-05T10:18:05Z</time>
      </trkpt>
      <trkpt lat="43.32025" lon="-1.95215">
        <ele>31.4</ele>
        <time>2026-08-05T10:18:06Z</time>
      </trkpt>
      <trkpt lat="43.32025" lon="-1.95221">
        <ele>31.4</ele>
        <time>2026-08-05T10:18:07Z</time>
      </trkpt>
      <trkpt lat="43.32026" lon="-1.95226">
        <ele>31.4</ele>
        <time>2026-08-05T10:18:08Z</time>
      </trkpt>
      <trkpt lat="43.32026" lon="-1.95232">
        <ele>31.4</ele>
        <time>2026-08-05T10:18:09Z</time>
      </trkpt>
      <trkpt lat="43.32027" lon="-1.95238">
        <ele>30.4</ele>
        <time>2026-08-05T10:18:10Z</time>
      </trkpt>
      <trkpt lat="43.32027" lon="-1.95243">
        <ele>30.2</ele>
        <time>2026-08-05T10:18:11Z</time>
      </trkpt>
      <trkpt lat="43.32027" lon="-1.95248">
        <ele>30.2</ele>
        <time>2026-08-05T10:18:12Z</time>
      </trkpt>
      <trkpt lat="43.32028" lon="-1.95253">
        <ele>30.2</ele>
        <time>2026-08-05T10:18:13Z</time>
      </trkpt>
      <trkpt lat="43.32029" lon="-1.95257">
        <ele>30.2</ele>
        <time>2026-08-05T10:18:14Z</time>
      </trkpt>
      <trkpt lat="43.32029" lon="-1.95261">
        <ele>30.2</ele>
        <time>2026-08-05T10:18:15Z</time>
      </trkpt>
      <trkpt lat="43.32029" lon="-1.95265">
        <ele>30</ele>
        <time>2026-08-05T10:18:16Z</time>
      </trkpt>
      <trkpt lat="43.3203" lon="-1.95267">
        <ele>30</ele>
        <time>2026-08-05T10:18:17Z</time>
      </trkpt>
      <trkpt lat="43.3203" lon="-1.95268">
        <ele>30.4</ele>
        <time>2026-08-05T10:18:18Z</time>
      </trkpt>
      <trkpt lat="43.3203" lon="-1.95276">
        <ele>30</ele>
        <time>2026-08-05T10:18:35Z</time>
      </trkpt>
      <trkpt lat="43.3203" lon="-1.9528">
        <ele>29.2</ele>
        <time>2026-08-05T10:18:36Z</time>
      </trkpt>
      <trkpt lat="43.32031" lon="-1.95284">
        <ele>29.2</ele>
        <time>2026-08-05T10:18:37Z</time>
      </trkpt>
      <trkpt lat="43.32031" lon="-1.95288">
        <ele>29.2</ele>
        <time>2026-08-05T10:18:38Z</time>
      </trkpt>
      <trkpt lat="43.32031" lon="-1.95293">
        <ele>29.2</ele>
        <time>2026-08-05T10:18:39Z</time>
      </trkpt>
      <trkpt lat="43.32032" lon="-1.95298">
        <ele>29.2</ele>
        <time>2026-08-05T10:18:40Z</time>
      </trkpt>
      <trkpt lat="43.32032" lon="-1.95303">
        <ele>29.2</ele>
        <time>2026-08-05T10:18:41Z</time>
      </trkpt>
      <trkpt lat="43.32032" lon="-1.95308">
        <ele>29.2</ele>
        <time>2026-08-05T10:18:42Z</time>
      </trkpt>
      <trkpt lat="43.32032" lon="-1.95313">
        <ele>29.2</ele>
        <time>2026-08-05T10:18:43Z</time>
      </trkpt>
      <trkpt lat="43.32033" lon="-1.95318">
        <ele>28.2</ele>
        <time>2026-08-05T10:18:44Z</time>
      </trkpt>
      <trkpt lat="43.32033" lon="-1.95324">
        <ele>28</ele>
        <time>2026-08-05T10:18:45Z</time>
      </trkpt>
      <trkpt lat="43.32033" lon="-1.95329">
        <ele>27.8</ele>
        <time>2026-08-05T10:18:46Z</time>
      </trkpt>
      <trkpt lat="43.32034" lon="-1.95334">
        <ele>27.8</ele>
        <time>2026-08-05T10:18:47Z</time>
      </trkpt>
      <trkpt lat="43.32034" lon="-1.95338">
        <ele>27.8</ele>
        <time>2026-08-05T10:18:48Z</time>
      </trkpt>
      <trkpt lat="43.32035" lon="-1.95342">
        <ele>28.4</ele>
        <time>2026-08-05T10:18:49Z</time>
      </trkpt>
      <trkpt lat="43.32035" lon="-1.95347">
        <ele>28.8</ele>
        <time>2026-08-05T10:18:50Z</time>
      </trkpt>
      <trkpt lat="43.32036" lon="-1.95351">
        <ele>28.8</ele>
        <time>2026-08-05T10:18:51Z</time>
      </trkpt>
      <trkpt lat="43.32036" lon="-1.95355">
        <ele>28.8</ele>
        <time>2026-08-05T10:18:52Z</time>
      </trkpt>
      <trkpt lat="43.32036" lon="-1.95359">
        <ele>28.2</ele>
        <time>2026-08-05T10:18:53Z</time>
      </trkpt>
      <trkpt lat="43.32036" lon="-1.95363">
        <ele>28.2</ele>
        <time>2026-08-05T10:18:54Z</time>
      </trkpt>
      <trkpt lat="43.32036" lon="-1.95368">
        <ele>27.8</ele>
        <time>2026-08-05T10:18:55Z</time>
      </trkpt>
      <trkpt lat="43.32036" lon="-1.95372">
        <ele>27.8</ele>
        <time>2026-08-05T10:18:56Z</time>
      </trkpt>
      <trkpt lat="43.32035" lon="-1.95377">
        <ele>27.8</ele>
        <time>2026-08-05T10:18:57Z</time>
      </trkpt>
      <trkpt lat="43.32035" lon="-1.95381">
        <ele>27.8</ele>
        <time>2026-08-05T10:18:58Z</time>
      </trkpt>
      <trkpt lat="43.32036" lon="-1.95386">
        <ele>27.8</ele>
        <time>2026-08-05T10:18:59Z</time>
      </trkpt>
      <trkpt lat="43.32036" lon="-1.9539">
        <ele>27.8</ele>
        <time>2026-08-05T10:19:00Z</time>
      </trkpt>
      <trkpt lat="43.32037" lon="-1.95395">
        <ele>27.8</ele>
        <time>2026-08-05T10:19:01Z</time>
      </trkpt>
      <trkpt lat="43.32037" lon="-1.954">
        <ele>27.8</ele>
        <time>2026-08-05T10:19:02Z</time>
      </trkpt>
      <trkpt lat="43.32037" lon="-1.95405">
        <ele>27.2</ele>
        <time>2026-08-05T10:19:03Z</time>
      </trkpt>
      <trkpt lat="43.32037" lon="-1.95411">
        <ele>26.8</ele>
        <time>2026-08-05T10:19:04Z</time>
      </trkpt>
      <trkpt lat="43.32037" lon="-1.95417">
        <ele>26.4</ele>
        <time>2026-08-05T10:19:05Z</time>
      </trkpt>
      <trkpt lat="43.32037" lon="-1.95422">
        <ele>26</ele>
        <time>2026-08-05T10:19:06Z</time>
      </trkpt>
      <trkpt lat="43.32037" lon="-1.95428">
        <ele>25.4</ele>
        <time>2026-08-05T10:19:07Z</time>
      </trkpt>
      <trkpt lat="43.32037" lon="-1.95434">
        <ele>25.4</ele>
        <time>2026-08-05T10:19:08Z</time>
      </trkpt>
      <trkpt lat="43.32037" lon="-1.9544">
        <ele>25.4</ele>
        <time>2026-08-05T10:19:09Z</time>
      </trkpt>
      <trkpt lat="43.32038" lon="-1.95445">
        <ele>25.8</ele>
        <time>2026-08-05T10:19:10Z</time>
      </trkpt>
      <trkpt lat="43.32038" lon="-1.95451">
        <ele>25.4</ele>
        <time>2026-08-05T10:19:11Z</time>
      </trkpt>
      <trkpt lat="43.32038" lon="-1.95457">
        <ele>25.4</ele>
        <time>2026-08-05T10:19:12Z</time>
      </trkpt>
      <trkpt lat="43.32038" lon="-1.95463">
        <ele>25.4</ele>
        <time>2026-08-05T10:19:13Z</time>
      </trkpt>
      <trkpt lat="43.32038" lon="-1.95469">
        <ele>25.4</ele>
        <time>2026-08-05T10:19:14Z</time>
      </trkpt>
      <trkpt lat="43.32038" lon="-1.95475">
        <ele>25.4</ele>
        <time>2026-08-05T10:19:15Z</time>
      </trkpt>
      <trkpt lat="43.32038" lon="-1.95481">
        <ele>25.4</ele>
        <time>2026-08-05T10:19:16Z</time>
      </trkpt>
      <trkpt lat="43.32038" lon="-1.95488">
        <ele>25.4</ele>
        <time>2026-08-05T10:19:17Z</time>
      </trkpt>
      <trkpt lat="43.32038" lon="-1.95495">
        <ele>25.4</ele>
        <time>2026-08-05T10:19:18Z</time>
      </trkpt>
      <trkpt lat="43.32038" lon="-1.95501">
        <ele>25.4</ele>
        <time>2026-08-05T10:19:19Z</time>
      </trkpt>
      <trkpt lat="43.32039" lon="-1.95507">
        <ele>25.8</ele>
        <time>2026-08-05T10:19:20Z</time>
      </trkpt>
      <trkpt lat="43.32039" lon="-1.95513">
        <ele>25.8</ele>
        <time>2026-08-05T10:19:21Z</time>
      </trkpt>
      <trkpt lat="43.32039" lon="-1.95519">
        <ele>25.8</ele>
        <time>2026-08-05T10:19:22Z</time>
      </trkpt>
      <trkpt lat="43.32039" lon="-1.95525">
        <ele>25</ele>
        <time>2026-08-05T10:19:23Z</time>
      </trkpt>
      <trkpt lat="43.32039" lon="-1.95531">
        <ele>24.4</ele>
        <time>2026-08-05T10:19:24Z</time>
      </trkpt>
      <trkpt lat="43.32039" lon="-1.95537">
        <ele>21.4</ele>
        <time>2026-08-05T10:19:25Z</time>
      </trkpt>
      <trkpt lat="43.32039" lon="-1.95544">
        <ele>21.4</ele>
        <time>2026-08-05T10:19:26Z</time>
      </trkpt>
      <trkpt lat="43.32039" lon="-1.9555">
        <ele>21.4</ele>
        <time>2026-08-05T10:19:27Z</time>
      </trkpt>
      <trkpt lat="43.3204" lon="-1.95557">
        <ele>21.4</ele>
        <time>2026-08-05T10:19:28Z</time>
      </trkpt>
      <trkpt lat="43.3204" lon="-1.95564">
        <ele>21.4</ele>
        <time>2026-08-05T10:19:29Z</time>
      </trkpt>
      <trkpt lat="43.32041" lon="-1.95571">
        <ele>22.4</ele>
        <time>2026-08-05T10:19:30Z</time>
      </trkpt>
      <trkpt lat="43.32041" lon="-1.95578">
        <ele>23</ele>
        <time>2026-08-05T10:19:31Z</time>
      </trkpt>
      <trkpt lat="43.32041" lon="-1.95585">
        <ele>23</ele>
        <time>2026-08-05T10:19:32Z</time>
      </trkpt>
      <trkpt lat="43.32041" lon="-1.95592">
        <ele>23</ele>
        <time>2026-08-05T10:19:33Z</time>
      </trkpt>
      <trkpt lat="43.32042" lon="-1.95599">
        <ele>23</ele>
        <time>2026-08-05T10:19:34Z</time>
      </trkpt>
      <trkpt lat="43.32042" lon="-1.95607">
        <ele>22.4</ele>
        <time>2026-08-05T10:19:35Z</time>
      </trkpt>
      <trkpt lat="43.32042" lon="-1.95614">
        <ele>21.8</ele>
        <time>2026-08-05T10:19:36Z</time>
      </trkpt>
      <trkpt lat="43.32043" lon="-1.95621">
        <ele>21.8</ele>
        <time>2026-08-05T10:19:37Z</time>
      </trkpt>
      <trkpt lat="43.32042" lon="-1.95628">
        <ele>21.8</ele>
        <time>2026-08-05T10:19:38Z</time>
      </trkpt>
      <trkpt lat="43.32042" lon="-1.95635">
        <ele>21.8</ele>
        <time>2026-08-05T10:19:39Z</time>
      </trkpt>
      <trkpt lat="43.32042" lon="-1.95643">
        <ele>21.8</ele>
        <time>2026-08-05T10:19:40Z</time>
      </trkpt>
      <trkpt lat="43.32042" lon="-1.9565">
        <ele>20.8</ele>
        <time>2026-08-05T10:19:41Z</time>
      </trkpt>
      <trkpt lat="43.32043" lon="-1.95657">
        <ele>20.8</ele>
        <time>2026-08-05T10:19:42Z</time>
      </trkpt>
      <trkpt lat="43.32044" lon="-1.95665">
        <ele>20.8</ele>
        <time>2026-08-05T10:19:43Z</time>
      </trkpt>
      <trkpt lat="43.32044" lon="-1.95672">
        <ele>20.8</ele>
        <time>2026-08-05T10:19:44Z</time>
      </trkpt>
      <trkpt lat="43.32044" lon="-1.95679">
        <ele>20.8</ele>
        <time>2026-08-05T10:19:45Z</time>
      </trkpt>
      <trkpt lat="43.32044" lon="-1.95687">
        <ele>20.8</ele>
        <time>2026-08-05T10:19:46Z</time>
      </trkpt>
      <trkpt lat="43.32044" lon="-1.95694">
        <ele>20.8</ele>
        <time>2026-08-05T10:19:47Z</time>
      </trkpt>
      <trkpt lat="43.32044" lon="-1.95701">
        <ele>20</ele>
        <time>2026-08-05T10:19:48Z</time>
      </trkpt>
      <trkpt lat="43.32044" lon="-1.95709">
        <ele>19.8</ele>
        <time>2026-08-05T10:19:49Z</time>
      </trkpt>
      <trkpt lat="43.32044" lon="-1.95716">
        <ele>19.6</ele>
        <time>2026-08-05T10:19:50Z</time>
      </trkpt>
      <trkpt lat="43.32044" lon="-1.95724">
        <ele>19.6</ele>
        <time>2026-08-05T10:19:51Z</time>
      </trkpt>
      <trkpt lat="43.32044" lon="-1.95731">
        <ele>19.6</ele>
        <time>2026-08-05T10:19:52Z</time>
      </trkpt>
      <trkpt lat="43.32044" lon="-1.95739">
        <ele>20</ele>
        <time>2026-08-05T10:19:53Z</time>
      </trkpt>
      <trkpt lat="43.32044" lon="-1.95747">
        <ele>20</ele>
        <time>2026-08-05T10:19:54Z</time>
      </trkpt>
      <trkpt lat="43.32044" lon="-1.95754">
        <ele>20</ele>
        <time>2026-08-05T10:19:55Z</time>
      </trkpt>
      <trkpt lat="43.32044" lon="-1.95762">
        <ele>19.6</ele>
        <time>2026-08-05T10:19:56Z</time>
      </trkpt>
      <trkpt lat="43.32044" lon="-1.9577">
        <ele>18.6</ele>
        <time>2026-08-05T10:19:57Z</time>
      </trkpt>
      <trkpt lat="43.32044" lon="-1.95777">
        <ele>17.8</ele>
        <time>2026-08-05T10:19:58Z</time>
      </trkpt>
      <trkpt lat="43.32044" lon="-1.95784">
        <ele>17.8</ele>
        <time>2026-08-05T10:19:59Z</time>
      </trkpt>
      <trkpt lat="43.32044" lon="-1.9579">
        <ele>17.8</ele>
        <time>2026-08-05T10:20:00Z</time>
      </trkpt>
      <trkpt lat="43.32044" lon="-1.95796">
        <ele>17.8</ele>
        <time>2026-08-05T10:20:01Z</time>
      </trkpt>
      <trkpt lat="43.32044" lon="-1.95802">
        <ele>18.6</ele>
        <time>2026-08-05T10:20:02Z</time>
      </trkpt>
      <trkpt lat="43.32044" lon="-1.95807">
        <ele>18.6</ele>
        <time>2026-08-05T10:20:03Z</time>
      </trkpt>
      <trkpt lat="43.32044" lon="-1.95812">
        <ele>18.4</ele>
        <time>2026-08-05T10:20:04Z</time>
      </trkpt>
      <trkpt lat="43.32043" lon="-1.95817">
        <ele>17.4</ele>
        <time>2026-08-05T10:20:05Z</time>
      </trkpt>
      <trkpt lat="43.32043" lon="-1.95822">
        <ele>17.4</ele>
        <time>2026-08-05T10:20:06Z</time>
      </trkpt>
      <trkpt lat="43.32044" lon="-1.95827">
        <ele>17.4</ele>
        <time>2026-08-05T10:20:07Z</time>
      </trkpt>
      <trkpt lat="43.32044" lon="-1.95832">
        <ele>17.4</ele>
        <time>2026-08-05T10:20:08Z</time>
      </trkpt>
      <trkpt lat="43.32044" lon="-1.95837">
        <ele>17.4</ele>
        <time>2026-08-05T10:20:09Z</time>
      </trkpt>
      <trkpt lat="43.32044" lon="-1.95843">
        <ele>18.4</ele>
        <time>2026-08-05T10:20:10Z</time>
      </trkpt>
      <trkpt lat="43.32044" lon="-1.95849">
        <ele>18.6</ele>
        <time>2026-08-05T10:20:11Z</time>
      </trkpt>
      <trkpt lat="43.32044" lon="-1.95855">
        <ele>18.6</ele>
        <time>2026-08-05T10:20:12Z</time>
      </trkpt>
      <trkpt lat="43.32044" lon="-1.9586">
        <ele>18.6</ele>
        <time>2026-08-05T10:20:13Z</time>
      </trkpt>
      <trkpt lat="43.32044" lon="-1.95866">
        <ele>17.6</ele>
        <time>2026-08-05T10:20:14Z</time>
      </trkpt>
      <trkpt lat="43.32044" lon="-1.95872">
        <ele>17.6</ele>
        <time>2026-08-05T10:20:15Z</time>
      </trkpt>
      <trkpt lat="43.32045" lon="-1.95879">
        <ele>16.6</ele>
        <time>2026-08-05T10:20:16Z</time>
      </trkpt>
      <trkpt lat="43.32045" lon="-1.95885">
        <ele>16.6</ele>
        <time>2026-08-05T10:20:17Z</time>
      </trkpt>
      <trkpt lat="43.32045" lon="-1.95892">
        <ele>16</ele>
        <time>2026-08-05T10:20:18Z</time>
      </trkpt>
      <trkpt lat="43.32045" lon="-1.95899">
        <ele>15.6</ele>
        <time>2026-08-05T10:20:19Z</time>
      </trkpt>
      <trkpt lat="43.32046" lon="-1.95905">
        <ele>15.4</ele>
        <time>2026-08-05T10:20:20Z</time>
      </trkpt>
      <trkpt lat="43.32046" lon="-1.95912">
        <ele>15.2</ele>
        <time>2026-08-05T10:20:21Z</time>
      </trkpt>
      <trkpt lat="43.32046" lon="-1.95919">
        <ele>15.2</ele>
        <time>2026-08-05T10:20:22Z</time>
      </trkpt>
      <trkpt lat="43.32046" lon="-1.95926">
        <ele>15.2</ele>
        <time>2026-08-05T10:20:23Z</time>
      </trkpt>
      <trkpt lat="43.32046" lon="-1.95933">
        <ele>16.2</ele>
        <time>2026-08-05T10:20:24Z</time>
      </trkpt>
      <trkpt lat="43.32047" lon="-1.9594">
        <ele>16.2</ele>
        <time>2026-08-05T10:20:25Z</time>
      </trkpt>
      <trkpt lat="43.32047" lon="-1.95947">
        <ele>16.2</ele>
        <time>2026-08-05T10:20:26Z</time>
      </trkpt>
      <trkpt lat="43.32047" lon="-1.95954">
        <ele>15.4</ele>
        <time>2026-08-05T10:20:27Z</time>
      </trkpt>
      <trkpt lat="43.32048" lon="-1.9596">
        <ele>15.4</ele>
        <time>2026-08-05T10:20:28Z</time>
      </trkpt>
      <trkpt lat="43.32048" lon="-1.95966">
        <ele>15.4</ele>
        <time>2026-08-05T10:20:29Z</time>
      </trkpt>
      <trkpt lat="43.32049" lon="-1.95972">
        <ele>15.4</ele>
        <time>2026-08-05T10:20:30Z</time>
      </trkpt>
      <trkpt lat="43.3205" lon="-1.95976">
        <ele>15.2</ele>
        <time>2026-08-05T10:20:31Z</time>
      </trkpt>
      <trkpt lat="43.32051" lon="-1.9598">
        <ele>15.2</ele>
        <time>2026-08-05T10:20:32Z</time>
      </trkpt>
      <trkpt lat="43.32053" lon="-1.95985">
        <ele>15.2</ele>
        <time>2026-08-05T10:20:33Z</time>
      </trkpt>
      <trkpt lat="43.32055" lon="-1.95989">
        <ele>15.2</ele>
        <time>2026-08-05T10:20:34Z</time>
      </trkpt>
      <trkpt lat="43.32058" lon="-1.95993">
        <ele>15.2</ele>
        <time>2026-08-05T10:20:35Z</time>
      </trkpt>
      <trkpt lat="43.3206" lon="-1.95995">
        <ele>15.2</ele>
        <time>2026-08-05T10:20:36Z</time>
      </trkpt>
      <trkpt lat="43.32064" lon="-1.95996">
        <ele>16</ele>
        <time>2026-08-05T10:20:37Z</time>
      </trkpt>
      <trkpt lat="43.32067" lon="-1.95995">
        <ele>16</ele>
        <time>2026-08-05T10:20:38Z</time>
      </trkpt>
      <trkpt lat="43.3207" lon="-1.95995">
        <ele>16</ele>
        <time>2026-08-05T10:20:39Z</time>
      </trkpt>
      <trkpt lat="43.32073" lon="-1.95994">
        <ele>15.4</ele>
        <time>2026-08-05T10:20:40Z</time>
      </trkpt>
      <trkpt lat="43.32077" lon="-1.95993">
        <ele>15.4</ele>
        <time>2026-08-05T10:20:41Z</time>
      </trkpt>
      <trkpt lat="43.3208" lon="-1.95992">
        <ele>15.4</ele>
        <time>2026-08-05T10:20:42Z</time>
      </trkpt>
      <trkpt lat="43.32083" lon="-1.95991">
        <ele>16</ele>
        <time>2026-08-05T10:20:43Z</time>
      </trkpt>
      <trkpt lat="43.32086" lon="-1.95991">
        <ele>16</ele>
        <time>2026-08-05T10:20:44Z</time>
      </trkpt>
      <trkpt lat="43.3209" lon="-1.9599">
        <ele>16</ele>
        <time>2026-08-05T10:20:45Z</time>
      </trkpt>
      <trkpt lat="43.32093" lon="-1.9599">
        <ele>15.8</ele>
        <time>2026-08-05T10:20:46Z</time>
      </trkpt>
      <trkpt lat="43.32097" lon="-1.95989">
        <ele>15.6</ele>
        <time>2026-08-05T10:20:47Z</time>
      </trkpt>
      <trkpt lat="43.321" lon="-1.95987">
        <ele>15.6</ele>
        <time>2026-08-05T10:20:48Z</time>
      </trkpt>
      <trkpt lat="43.32103" lon="-1.95987">
        <ele>15.6</ele>
        <time>2026-08-05T10:20:49Z</time>
      </trkpt>
      <trkpt lat="43.32106" lon="-1.95987">
        <ele>15.6</ele>
        <time>2026-08-05T10:20:50Z</time>
      </trkpt>
      <trkpt lat="43.32109" lon="-1.95988">
        <ele>15.6</ele>
        <time>2026-08-05T10:20:51Z</time>
      </trkpt>
      <trkpt lat="43.32111" lon="-1.9599">
        <ele>15.6</ele>
        <time>2026-08-05T10:20:52Z</time>
      </trkpt>
      <trkpt lat="43.32112" lon="-1.95993">
        <ele>15.6</ele>
        <time>2026-08-05T10:20:53Z</time>
      </trkpt>
      <trkpt lat="43.32113" lon="-1.95997">
        <ele>15.6</ele>
        <time>2026-08-05T10:20:54Z</time>
      </trkpt>
      <trkpt lat="43.32113" lon="-1.96002">
        <ele>15.2</ele>
        <time>2026-08-05T10:20:55Z</time>
      </trkpt>
      <trkpt lat="43.32114" lon="-1.96007">
        <ele>14.6</ele>
        <time>2026-08-05T10:20:56Z</time>
      </trkpt>
      <trkpt lat="43.32115" lon="-1.96012">
        <ele>14.2</ele>
        <time>2026-08-05T10:20:57Z</time>
      </trkpt>
      <trkpt lat="43.32115" lon="-1.96018">
        <ele>14.2</ele>
        <time>2026-08-05T10:20:58Z</time>
      </trkpt>
      <trkpt lat="43.32116" lon="-1.96024">
        <ele>13.8</ele>
        <time>2026-08-05T10:20:59Z</time>
      </trkpt>
      <trkpt lat="43.32117" lon="-1.9603">
        <ele>13.2</ele>
        <time>2026-08-05T10:21:00Z</time>
      </trkpt>
      <trkpt lat="43.32118" lon="-1.96038">
        <ele>12.8</ele>
        <time>2026-08-05T10:21:01Z</time>
      </trkpt>
      <trkpt lat="43.32119" lon="-1.96045">
        <ele>12.8</ele>
        <time>2026-08-05T10:21:02Z</time>
      </trkpt>
      <trkpt lat="43.3212" lon="-1.96052">
        <ele>12.8</ele>
        <time>2026-08-05T10:21:03Z</time>
      </trkpt>
      <trkpt lat="43.32121" lon="-1.96058">
        <ele>12.8</ele>
        <time>2026-08-05T10:21:04Z</time>
      </trkpt>
      <trkpt lat="43.32121" lon="-1.96064">
        <ele>12.8</ele>
        <time>2026-08-05T10:21:05Z</time>
      </trkpt>
      <trkpt lat="43.32121" lon="-1.96069">
        <ele>11.6</ele>
        <time>2026-08-05T10:21:06Z</time>
      </trkpt>
      <trkpt lat="43.3212" lon="-1.96074">
        <ele>11.6</ele>
        <time>2026-08-05T10:21:07Z</time>
      </trkpt>
      <trkpt lat="43.32119" lon="-1.96079">
        <ele>11.6</ele>
        <time>2026-08-05T10:21:08Z</time>
      </trkpt>
      <trkpt lat="43.3212" lon="-1.96084">
        <ele>11.6</ele>
        <time>2026-08-05T10:21:09Z</time>
      </trkpt>
      <trkpt lat="43.32122" lon="-1.96087">
        <ele>12.8</ele>
        <time>2026-08-05T10:21:10Z</time>
      </trkpt>
      <trkpt lat="43.32123" lon="-1.96089">
        <ele>12.8</ele>
        <time>2026-08-05T10:21:11Z</time>
      </trkpt>
      <trkpt lat="43.32125" lon="-1.9609">
        <ele>12.8</ele>
        <time>2026-08-05T10:21:12Z</time>
      </trkpt>
      <trkpt lat="43.32126" lon="-1.96091">
        <ele>12.8</ele>
        <time>2026-08-05T10:21:13Z</time>
      </trkpt>
      <trkpt lat="43.32127" lon="-1.96092">
        <ele>12.8</ele>
        <time>2026-08-05T10:21:14Z</time>
      </trkpt>
      <trkpt lat="43.32127" lon="-1.96092">
        <ele>12.8</ele>
        <time>2026-08-05T10:21:15Z</time>
      </trkpt>
      <trkpt lat="43.32132" lon="-1.96091">
        <ele>12.6</ele>
        <time>2026-08-05T10:21:29Z</time>
      </trkpt>
      <trkpt lat="43.32135" lon="-1.96089">
        <ele>12.6</ele>
        <time>2026-08-05T10:21:30Z</time>
      </trkpt>
      <trkpt lat="43.32136" lon="-1.96086">
        <ele>12.6</ele>
        <time>2026-08-05T10:21:31Z</time>
      </trkpt>
      <trkpt lat="43.32137" lon="-1.96084">
        <ele>12.6</ele>
        <time>2026-08-05T10:21:32Z</time>
      </trkpt>
      <trkpt lat="43.32139" lon="-1.96083">
        <ele>13</ele>
        <time>2026-08-05T10:21:33Z</time>
      </trkpt>
      <trkpt lat="43.32142" lon="-1.96082">
        <ele>13.2</ele>
        <time>2026-08-05T10:21:34Z</time>
      </trkpt>
      <trkpt lat="43.32145" lon="-1.96082">
        <ele>13.2</ele>
        <time>2026-08-05T10:21:35Z</time>
      </trkpt>
      <trkpt lat="43.32149" lon="-1.96082">
        <ele>13.2</ele>
        <time>2026-08-05T10:21:36Z</time>
      </trkpt>
      <trkpt lat="43.32153" lon="-1.96082">
        <ele>13.2</ele>
        <time>2026-08-05T10:21:37Z</time>
      </trkpt>
      <trkpt lat="43.32156" lon="-1.96082">
        <ele>13.2</ele>
        <time>2026-08-05T10:21:38Z</time>
      </trkpt>
      <trkpt lat="43.3216" lon="-1.96082">
        <ele>13.4</ele>
        <time>2026-08-05T10:21:39Z</time>
      </trkpt>
      <trkpt lat="43.32163" lon="-1.96082">
        <ele>13.6</ele>
        <time>2026-08-05T10:21:40Z</time>
      </trkpt>
      <trkpt lat="43.32167" lon="-1.96083">
        <ele>14</ele>
        <time>2026-08-05T10:21:41Z</time>
      </trkpt>
      <trkpt lat="43.3217" lon="-1.96084">
        <ele>14</ele>
        <time>2026-08-05T10:21:42Z</time>
      </trkpt>
      <trkpt lat="43.32173" lon="-1.96084">
        <ele>14</ele>
        <time>2026-08-05T10:21:43Z</time>
      </trkpt>
      <trkpt lat="43.32177" lon="-1.96085">
        <ele>14</ele>
        <time>2026-08-05T10:21:44Z</time>
      </trkpt>
      <trkpt lat="43.3218" lon="-1.96085">
        <ele>14</ele>
        <time>2026-08-05T10:21:45Z</time>
      </trkpt>
      <trkpt lat="43.32183" lon="-1.96086">
        <ele>14</ele>
        <time>2026-08-05T10:21:46Z</time>
      </trkpt>
      <trkpt lat="43.32185" lon="-1.9609">
        <ele>13.6</ele>
        <time>2026-08-05T10:21:47Z</time>
      </trkpt>
      <trkpt lat="43.32185" lon="-1.96094">
        <ele>13.6</ele>
        <time>2026-08-05T10:21:48Z</time>
      </trkpt>
      <trkpt lat="43.32185" lon="-1.96098">
        <ele>13.2</ele>
        <time>2026-08-05T10:21:49Z</time>
      </trkpt>
      <trkpt lat="43.32186" lon="-1.96103">
        <ele>13.2</ele>
        <time>2026-08-05T10:21:50Z</time>
      </trkpt>
      <trkpt lat="43.32185" lon="-1.96107">
        <ele>13.2</ele>
        <time>2026-08-05T10:21:51Z</time>
      </trkpt>
      <trkpt lat="43.32186" lon="-1.96112">
        <ele>13.2</ele>
        <time>2026-08-05T10:21:52Z</time>
      </trkpt>
      <trkpt lat="43.32186" lon="-1.96117">
        <ele>12.2</ele>
        <time>2026-08-05T10:21:53Z</time>
      </trkpt>
      <trkpt lat="43.32186" lon="-1.96122">
        <ele>12.2</ele>
        <time>2026-08-05T10:21:54Z</time>
      </trkpt>
      <trkpt lat="43.32186" lon="-1.96127">
        <ele>12.2</ele>
        <time>2026-08-05T10:21:55Z</time>
      </trkpt>
      <trkpt lat="43.32186" lon="-1.96131">
        <ele>12.2</ele>
        <time>2026-08-05T10:21:56Z</time>
      </trkpt>
      <trkpt lat="43.32186" lon="-1.96134">
        <ele>12.2</ele>
        <time>2026-08-05T10:21:57Z</time>
      </trkpt>
      <trkpt lat="43.32186" lon="-1.96135">
        <ele>12.4</ele>
        <time>2026-08-05T10:21:58Z</time>
      </trkpt>
      <trkpt lat="43.32186" lon="-1.96135">
        <ele>12.4</ele>
        <time>2026-08-05T10:21:59Z</time>
      </trkpt>
      <trkpt lat="43.32188" lon="-1.96145">
        <ele>12.4</ele>
        <time>2026-08-05T10:22:13Z</time>
      </trkpt>
      <trkpt lat="43.32189" lon="-1.96147">
        <ele>12.4</ele>
        <time>2026-08-05T10:22:14Z</time>
      </trkpt>
      <trkpt lat="43.32191" lon="-1.96148">
        <ele>12.2</ele>
        <time>2026-08-05T10:22:15Z</time>
      </trkpt>
      <trkpt lat="43.32192" lon="-1.96148">
        <ele>12.2</ele>
        <time>2026-08-05T10:22:16Z</time>
      </trkpt>
      <trkpt lat="43.32192" lon="-1.96149">
        <ele>12.2</ele>
        <time>2026-08-05T10:22:17Z</time>
      </trkpt>
      <trkpt lat="43.32195" lon="-1.96151">
        <ele>11</ele>
        <time>2026-08-05T10:23:03Z</time>
      </trkpt>
      <trkpt lat="43.32198" lon="-1.96152">
        <ele>11</ele>
        <time>2026-08-05T10:23:04Z</time>
      </trkpt>
      <trkpt lat="43.322" lon="-1.96152">
        <ele>11</ele>
        <time>2026-08-05T10:23:05Z</time>
      </trkpt>
      <trkpt lat="43.32203" lon="-1.9615">
        <ele>12</ele>
        <time>2026-08-05T10:23:06Z</time>
      </trkpt>
      <trkpt lat="43.32205" lon="-1.96149">
        <ele>12.2</ele>
        <time>2026-08-05T10:23:07Z</time>
      </trkpt>
      <trkpt lat="43.32207" lon="-1.96148">
        <ele>12.2</ele>
        <time>2026-08-05T10:23:08Z</time>
      </trkpt>
      <trkpt lat="43.3221" lon="-1.9615">
        <ele>11.4</ele>
        <time>2026-08-05T10:23:09Z</time>
      </trkpt>
      <trkpt lat="43.32212" lon="-1.96153">
        <ele>11.4</ele>
        <time>2026-08-05T10:23:10Z</time>
      </trkpt>
      <trkpt lat="43.32214" lon="-1.96156">
        <ele>11.4</ele>
        <time>2026-08-05T10:23:11Z</time>
      </trkpt>
      <trkpt lat="43.32216" lon="-1.96158">
        <ele>11.4</ele>
        <time>2026-08-05T10:23:12Z</time>
      </trkpt>
      <trkpt lat="43.32218" lon="-1.96159">
        <ele>11.4</ele>
        <time>2026-08-05T10:23:13Z</time>
      </trkpt>
      <trkpt lat="43.32219" lon="-1.96159">
        <ele>11.4</ele>
        <time>2026-08-05T10:23:14Z</time>
      </trkpt>
      <trkpt lat="43.32221" lon="-1.96159">
        <ele>11.4</ele>
        <time>2026-08-05T10:23:15Z</time>
      </trkpt>
      <trkpt lat="43.32223" lon="-1.96161">
        <ele>11.4</ele>
        <time>2026-08-05T10:23:16Z</time>
      </trkpt>
      <trkpt lat="43.32225" lon="-1.96164">
        <ele>11.4</ele>
        <time>2026-08-05T10:23:17Z</time>
      </trkpt>
      <trkpt lat="43.32227" lon="-1.96168">
        <ele>11.4</ele>
        <time>2026-08-05T10:23:18Z</time>
      </trkpt>
      <trkpt lat="43.32228" lon="-1.96172">
        <ele>10.6</ele>
        <time>2026-08-05T10:23:19Z</time>
      </trkpt>
      <trkpt lat="43.32229" lon="-1.96177">
        <ele>10.6</ele>
        <time>2026-08-05T10:23:20Z</time>
      </trkpt>
      <trkpt lat="43.3223" lon="-1.96182">
        <ele>10.6</ele>
        <time>2026-08-05T10:23:21Z</time>
      </trkpt>
      <trkpt lat="43.32231" lon="-1.96187">
        <ele>10.6</ele>
        <time>2026-08-05T10:23:22Z</time>
      </trkpt>
      <trkpt lat="43.32231" lon="-1.96192">
        <ele>10.6</ele>
        <time>2026-08-05T10:23:23Z</time>
      </trkpt>
      <trkpt lat="43.32232" lon="-1.96197">
        <ele>10.8</ele>
        <time>2026-08-05T10:23:24Z</time>
      </trkpt>
      <trkpt lat="43.32232" lon="-1.96203">
        <ele>10.8</ele>
        <time>2026-08-05T10:23:25Z</time>
      </trkpt>
      <trkpt lat="43.32233" lon="-1.96208">
        <ele>10.6</ele>
        <time>2026-08-05T10:23:26Z</time>
      </trkpt>
      <trkpt lat="43.32233" lon="-1.96213">
        <ele>10.6</ele>
        <time>2026-08-05T10:23:27Z</time>
      </trkpt>
      <trkpt lat="43.32234" lon="-1.96218">
        <ele>10.6</ele>
        <time>2026-08-05T10:23:28Z</time>
      </trkpt>
      <trkpt lat="43.32234" lon="-1.96223">
        <ele>11.6</ele>
        <time>2026-08-05T10:23:29Z</time>
      </trkpt>
      <trkpt lat="43.32235" lon="-1.96228">
        <ele>12</ele>
        <time>2026-08-05T10:23:30Z</time>
      </trkpt>
      <trkpt lat="43.32236" lon="-1.96232">
        <ele>12</ele>
        <time>2026-08-05T10:23:31Z</time>
      </trkpt>
      <trkpt lat="43.32237" lon="-1.96237">
        <ele>12</ele>
        <time>2026-08-05T10:23:32Z</time>
      </trkpt>
      <trkpt lat="43.32238" lon="-1.96241">
        <ele>12</ele>
        <time>2026-08-05T10:23:33Z</time>
      </trkpt>
      <trkpt lat="43.32239" lon="-1.96245">
        <ele>12.6</ele>
        <time>2026-08-05T10:23:34Z</time>
      </trkpt>
      <trkpt lat="43.32241" lon="-1.9625">
        <ele>12.6</ele>
        <time>2026-08-05T10:23:35Z</time>
      </trkpt>
      <trkpt lat="43.32242" lon="-1.96254">
        <ele>13.2</ele>
        <time>2026-08-05T10:23:36Z</time>
      </trkpt>
      <trkpt lat="43.32243" lon="-1.96258">
        <ele>13.6</ele>
        <time>2026-08-05T10:23:37Z</time>
      </trkpt>
      <trkpt lat="43.32244" lon="-1.96263">
        <ele>13.6</ele>
        <time>2026-08-05T10:23:38Z</time>
      </trkpt>
      <trkpt lat="43.32246" lon="-1.96267">
        <ele>13.6</ele>
        <time>2026-08-05T10:23:39Z</time>
      </trkpt>
      <trkpt lat="43.32248" lon="-1.96272">
        <ele>13.6</ele>
        <time>2026-08-05T10:23:40Z</time>
      </trkpt>
      <trkpt lat="43.32249" lon="-1.96276">
        <ele>14.4</ele>
        <time>2026-08-05T10:23:41Z</time>
      </trkpt>
      <trkpt lat="43.32251" lon="-1.9628">
        <ele>14.8</ele>
        <time>2026-08-05T10:23:42Z</time>
      </trkpt>
      <trkpt lat="43.32252" lon="-1.96284">
        <ele>14.8</ele>
        <time>2026-08-05T10:23:43Z</time>
      </trkpt>
      <trkpt lat="43.32254" lon="-1.96288">
        <ele>14.8</ele>
        <time>2026-08-05T10:23:44Z</time>
      </trkpt>
      <trkpt lat="43.32256" lon="-1.96292">
        <ele>14.8</ele>
        <time>2026-08-05T10:23:45Z</time>
      </trkpt>
      <trkpt lat="43.32258" lon="-1.96296">
        <ele>14.8</ele>
        <time>2026-08-05T10:23:46Z</time>
      </trkpt>
      <trkpt lat="43.32259" lon="-1.963">
        <ele>15.4</ele>
        <time>2026-08-05T10:23:47Z</time>
      </trkpt>
      <trkpt lat="43.32261" lon="-1.96304">
        <ele>15.4</ele>
        <time>2026-08-05T10:23:48Z</time>
      </trkpt>
      <trkpt lat="43.32263" lon="-1.96308">
        <ele>15.4</ele>
        <time>2026-08-05T10:23:49Z</time>
      </trkpt>
      <trkpt lat="43.32264" lon="-1.96312">
        <ele>15.4</ele>
        <time>2026-08-05T10:23:50Z</time>
      </trkpt>
      <trkpt lat="43.32266" lon="-1.96316">
        <ele>15.4</ele>
        <time>2026-08-05T10:23:51Z</time>
      </trkpt>
      <trkpt lat="43.32268" lon="-1.96319">
        <ele>16</ele>
        <time>2026-08-05T10:23:52Z</time>
      </trkpt>
      <trkpt lat="43.3227" lon="-1.96323">
        <ele>16.2</ele>
        <time>2026-08-05T10:23:53Z</time>
      </trkpt>
      <trkpt lat="43.32272" lon="-1.96326">
        <ele>16.6</ele>
        <time>2026-08-05T10:23:54Z</time>
      </trkpt>
      <trkpt lat="43.32274" lon="-1.9633">
        <ele>16.6</ele>
        <time>2026-08-05T10:23:55Z</time>
      </trkpt>
      <trkpt lat="43.32276" lon="-1.96334">
        <ele>16.6</ele>
        <time>2026-08-05T10:23:56Z</time>
      </trkpt>
      <trkpt lat="43.32278" lon="-1.96339">
        <ele>16.4</ele>
        <time>2026-08-05T10:23:57Z</time>
      </trkpt>
      <trkpt lat="43.32281" lon="-1.96343">
        <ele>15.8</ele>
        <time>2026-08-05T10:23:58Z</time>
      </trkpt>
      <trkpt lat="43.32283" lon="-1.96348">
        <ele>15</ele>
        <time>2026-08-05T10:23:59Z</time>
      </trkpt>
      <trkpt lat="43.32285" lon="-1.96354">
        <ele>14.4</ele>
        <time>2026-08-05T10:24:00Z</time>
      </trkpt>
      <trkpt lat="43.32288" lon="-1.96359">
        <ele>14.4</ele>
        <time>2026-08-05T10:24:01Z</time>
      </trkpt>
      <trkpt lat="43.3229" lon="-1.96364">
        <ele>14.4</ele>
        <time>2026-08-05T10:24:02Z</time>
      </trkpt>
      <trkpt lat="43.32293" lon="-1.9637">
        <ele>14.4</ele>
        <time>2026-08-05T10:24:03Z</time>
      </trkpt>
      <trkpt lat="43.32295" lon="-1.96376">
        <ele>14.4</ele>
        <time>2026-08-05T10:24:04Z</time>
      </trkpt>
      <trkpt lat="43.32298" lon="-1.96382">
        <ele>14.4</ele>
        <time>2026-08-05T10:24:05Z</time>
      </trkpt>
      <trkpt lat="43.323" lon="-1.96388">
        <ele>14.4</ele>
        <time>2026-08-05T10:24:06Z</time>
      </trkpt>
      <trkpt lat="43.32302" lon="-1.96394">
        <ele>14.4</ele>
        <time>2026-08-05T10:24:07Z</time>
      </trkpt>
      <trkpt lat="43.32304" lon="-1.964">
        <ele>14.4</ele>
        <time>2026-08-05T10:24:08Z</time>
      </trkpt>
      <trkpt lat="43.32306" lon="-1.96406">
        <ele>14.4</ele>
        <time>2026-08-05T10:24:09Z</time>
      </trkpt>
      <trkpt lat="43.32308" lon="-1.96411">
        <ele>14.4</ele>
        <time>2026-08-05T10:24:10Z</time>
      </trkpt>
      <trkpt lat="43.3231" lon="-1.96417">
        <ele>14.4</ele>
        <time>2026-08-05T10:24:11Z</time>
      </trkpt>
      <trkpt lat="43.32312" lon="-1.96422">
        <ele>15.2</ele>
        <time>2026-08-05T10:24:12Z</time>
      </trkpt>
      <trkpt lat="43.32315" lon="-1.96427">
        <ele>15.4</ele>
        <time>2026-08-05T10:24:13Z</time>
      </trkpt>
      <trkpt lat="43.32317" lon="-1.96431">
        <ele>15.4</ele>
        <time>2026-08-05T10:24:14Z</time>
      </trkpt>
      <trkpt lat="43.32319" lon="-1.96436">
        <ele>15.4</ele>
        <time>2026-08-05T10:24:15Z</time>
      </trkpt>
      <trkpt lat="43.32321" lon="-1.9644">
        <ele>15.4</ele>
        <time>2026-08-05T10:24:16Z</time>
      </trkpt>
      <trkpt lat="43.32323" lon="-1.96445">
        <ele>15.4</ele>
        <time>2026-08-05T10:24:17Z</time>
      </trkpt>
      <trkpt lat="43.32324" lon="-1.96449">
        <ele>16.2</ele>
        <time>2026-08-05T10:24:18Z</time>
      </trkpt>
      <trkpt lat="43.32326" lon="-1.96453">
        <ele>16.2</ele>
        <time>2026-08-05T10:24:19Z</time>
      </trkpt>
      <trkpt lat="43.32326" lon="-1.96458">
        <ele>16.2</ele>
        <time>2026-08-05T10:24:20Z</time>
      </trkpt>
      <trkpt lat="43.32326" lon="-1.96463">
        <ele>16.2</ele>
        <time>2026-08-05T10:24:21Z</time>
      </trkpt>
      <trkpt lat="43.32327" lon="-1.96468">
        <ele>16.2</ele>
        <time>2026-08-05T10:24:22Z</time>
      </trkpt>
      <trkpt lat="43.32327" lon="-1.96472">
        <ele>16.2</ele>
        <time>2026-08-05T10:24:23Z</time>
      </trkpt>
      <trkpt lat="43.32329" lon="-1.96477">
        <ele>16.2</ele>
        <time>2026-08-05T10:24:24Z</time>
      </trkpt>
      <trkpt lat="43.3233" lon="-1.96481">
        <ele>16.2</ele>
        <time>2026-08-05T10:24:25Z</time>
      </trkpt>
      <trkpt lat="43.32332" lon="-1.96485">
        <ele>16.2</ele>
        <time>2026-08-05T10:24:26Z</time>
      </trkpt>
      <trkpt lat="43.32334" lon="-1.96489">
        <ele>16.2</ele>
        <time>2026-08-05T10:24:27Z</time>
      </trkpt>
      <trkpt lat="43.32336" lon="-1.96492">
        <ele>16.2</ele>
        <time>2026-08-05T10:24:28Z</time>
      </trkpt>
      <trkpt lat="43.32338" lon="-1.96497">
        <ele>16.2</ele>
        <time>2026-08-05T10:24:29Z</time>
      </trkpt>
      <trkpt lat="43.32339" lon="-1.96501">
        <ele>16.6</ele>
        <time>2026-08-05T10:24:30Z</time>
      </trkpt>
      <trkpt lat="43.3234" lon="-1.96506">
        <ele>16.6</ele>
        <time>2026-08-05T10:24:31Z</time>
      </trkpt>
      <trkpt lat="43.32341" lon="-1.9651">
        <ele>16.6</ele>
        <time>2026-08-05T10:24:32Z</time>
      </trkpt>
      <trkpt lat="43.32343" lon="-1.96514">
        <ele>16.6</ele>
        <time>2026-08-05T10:24:33Z</time>
      </trkpt>
      <trkpt lat="43.32344" lon="-1.96518">
        <ele>16.6</ele>
        <time>2026-08-05T10:24:34Z</time>
      </trkpt>
      <trkpt lat="43.32345" lon="-1.96522">
        <ele>16.6</ele>
        <time>2026-08-05T10:24:35Z</time>
      </trkpt>
      <trkpt lat="43.32346" lon="-1.96526">
        <ele>16.6</ele>
        <time>2026-08-05T10:24:36Z</time>
      </trkpt>
      <trkpt lat="43.32347" lon="-1.9653">
        <ele>16.6</ele>
        <time>2026-08-05T10:24:37Z</time>
      </trkpt>
      <trkpt lat="43.32348" lon="-1.96534">
        <ele>16.6</ele>
        <time>2026-08-05T10:24:38Z</time>
      </trkpt>
      <trkpt lat="43.32348" lon="-1.96538">
        <ele>17.6</ele>
        <time>2026-08-05T10:24:39Z</time>
      </trkpt>
      <trkpt lat="43.32349" lon="-1.96541">
        <ele>17.6</ele>
        <time>2026-08-05T10:24:40Z</time>
      </trkpt>
      <trkpt lat="43.3235" lon="-1.96545">
        <ele>17.6</ele>
        <time>2026-08-05T10:24:41Z</time>
      </trkpt>
      <trkpt lat="43.32351" lon="-1.96548">
        <ele>17</ele>
        <time>2026-08-05T10:24:42Z</time>
      </trkpt>
      <trkpt lat="43.32352" lon="-1.96551">
        <ele>17</ele>
        <time>2026-08-05T10:24:43Z</time>
      </trkpt>
      <trkpt lat="43.32353" lon="-1.96554">
        <ele>17</ele>
        <time>2026-08-05T10:24:44Z</time>
      </trkpt>
      <trkpt lat="43.32354" lon="-1.96558">
        <ele>17.2</ele>
        <time>2026-08-05T10:24:45Z</time>
      </trkpt>
      <trkpt lat="43.32355" lon="-1.96561">
        <ele>17.4</ele>
        <time>2026-08-05T10:24:46Z</time>
      </trkpt>
      <trkpt lat="43.32356" lon="-1.96564">
        <ele>17.4</ele>
        <time>2026-08-05T10:24:47Z</time>
      </trkpt>
      <trkpt lat="43.32357" lon="-1.96567">
        <ele>17.4</ele>
        <time>2026-08-05T10:24:48Z</time>
      </trkpt>
      <trkpt lat="43.32358" lon="-1.9657">
        <ele>16.8</ele>
        <time>2026-08-05T10:24:49Z</time>
      </trkpt>
      <trkpt lat="43.32359" lon="-1.96574">
        <ele>16.8</ele>
        <time>2026-08-05T10:24:50Z</time>
      </trkpt>
      <trkpt lat="43.3236" lon="-1.96577">
        <ele>16.8</ele>
        <time>2026-08-05T10:24:51Z</time>
      </trkpt>
      <trkpt lat="43.32361" lon="-1.9658">
        <ele>16.8</ele>
        <time>2026-08-05T10:24:52Z</time>
      </trkpt>
      <trkpt lat="43.32362" lon="-1.96584">
        <ele>16.6</ele>
        <time>2026-08-05T10:24:53Z</time>
      </trkpt>
      <trkpt lat="43.32364" lon="-1.96587">
        <ele>16.4</ele>
        <time>2026-08-05T10:24:54Z</time>
      </trkpt>
      <trkpt lat="43.32365" lon="-1.9659">
        <ele>16.4</ele>
        <time>2026-08-05T10:24:55Z</time>
      </trkpt>
      <trkpt lat="43.32367" lon="-1.96594">
        <ele>16.4</ele>
        <time>2026-08-05T10:24:56Z</time>
      </trkpt>
      <trkpt lat="43.32368" lon="-1.96597">
        <ele>16.2</ele>
        <time>2026-08-05T10:24:57Z</time>
      </trkpt>
      <trkpt lat="43.3237" lon="-1.966">
        <ele>16.2</ele>
        <time>2026-08-05T10:24:58Z</time>
      </trkpt>
      <trkpt lat="43.32371" lon="-1.96603">
        <ele>16.2</ele>
        <time>2026-08-05T10:24:59Z</time>
      </trkpt>
      <trkpt lat="43.32372" lon="-1.96607">
        <ele>16.2</ele>
        <time>2026-08-05T10:25:00Z</time>
      </trkpt>
      <trkpt lat="43.32374" lon="-1.9661">
        <ele>16.2</ele>
        <time>2026-08-05T10:25:01Z</time>
      </trkpt>
      <trkpt lat="43.32375" lon="-1.96614">
        <ele>16.2</ele>
        <time>2026-08-05T10:25:02Z</time>
      </trkpt>
      <trkpt lat="43.32377" lon="-1.96618">
        <ele>16.2</ele>
        <time>2026-08-05T10:25:03Z</time>
      </trkpt>
      <trkpt lat="43.32379" lon="-1.96623">
        <ele>16.2</ele>
        <time>2026-08-05T10:25:04Z</time>
      </trkpt>
      <trkpt lat="43.32381" lon="-1.96627">
        <ele>15.8</ele>
        <time>2026-08-05T10:25:05Z</time>
      </trkpt>
      <trkpt lat="43.32383" lon="-1.96631">
        <ele>15.4</ele>
        <time>2026-08-05T10:25:06Z</time>
      </trkpt>
      <trkpt lat="43.32384" lon="-1.96633">
        <ele>15.4</ele>
        <time>2026-08-05T10:25:07Z</time>
      </trkpt>
      <trkpt lat="43.32385" lon="-1.96635">
        <ele>15</ele>
        <time>2026-08-05T10:25:08Z</time>
      </trkpt>
      <trkpt lat="43.32386" lon="-1.96638">
        <ele>14.8</ele>
        <time>2026-08-05T10:25:09Z</time>
      </trkpt>
      <trkpt lat="43.32388" lon="-1.96641">
        <ele>14.4</ele>
        <time>2026-08-05T10:25:10Z</time>
      </trkpt>
      <trkpt lat="43.32389" lon="-1.96644">
        <ele>13.4</ele>
        <time>2026-08-05T10:25:11Z</time>
      </trkpt>
      <trkpt lat="43.32391" lon="-1.96648">
        <ele>13.4</ele>
        <time>2026-08-05T10:25:12Z</time>
      </trkpt>
      <trkpt lat="43.32394" lon="-1.96653">
        <ele>13.4</ele>
        <time>2026-08-05T10:25:13Z</time>
      </trkpt>
      <trkpt lat="43.32396" lon="-1.96657">
        <ele>13.4</ele>
        <time>2026-08-05T10:25:14Z</time>
      </trkpt>
      <trkpt lat="43.32398" lon="-1.96662">
        <ele>12.4</ele>
        <time>2026-08-05T10:25:15Z</time>
      </trkpt>
      <trkpt lat="43.32401" lon="-1.96668">
        <ele>11.6</ele>
        <time>2026-08-05T10:25:16Z</time>
      </trkpt>
      <trkpt lat="43.32403" lon="-1.96675">
        <ele>11.4</ele>
        <time>2026-08-05T10:25:17Z</time>
      </trkpt>
      <trkpt lat="43.32405" lon="-1.96681">
        <ele>10.4</ele>
        <time>2026-08-05T10:25:18Z</time>
      </trkpt>
      <trkpt lat="43.32407" lon="-1.96689">
        <ele>10.4</ele>
        <time>2026-08-05T10:25:19Z</time>
      </trkpt>
      <trkpt lat="43.32409" lon="-1.96696">
        <ele>10.4</ele>
        <time>2026-08-05T10:25:20Z</time>
      </trkpt>
      <trkpt lat="43.3241" lon="-1.96704">
        <ele>10.4</ele>
        <time>2026-08-05T10:25:21Z</time>
      </trkpt>
      <trkpt lat="43.32412" lon="-1.96711">
        <ele>10.4</ele>
        <time>2026-08-05T10:25:22Z</time>
      </trkpt>
      <trkpt lat="43.32414" lon="-1.96719">
        <ele>9.4</ele>
        <time>2026-08-05T10:25:23Z</time>
      </trkpt>
      <trkpt lat="43.32416" lon="-1.96727">
        <ele>9.4</ele>
        <time>2026-08-05T10:25:24Z</time>
      </trkpt>
      <trkpt lat="43.32418" lon="-1.96734">
        <ele>9.4</ele>
        <time>2026-08-05T10:25:25Z</time>
      </trkpt>
      <trkpt lat="43.32419" lon="-1.96742">
        <ele>9.4</ele>
        <time>2026-08-05T10:25:26Z</time>
      </trkpt>
      <trkpt lat="43.32421" lon="-1.96749">
        <ele>9.4</ele>
        <time>2026-08-05T10:25:27Z</time>
      </trkpt>
      <trkpt lat="43.32422" lon="-1.96756">
        <ele>9.4</ele>
        <time>2026-08-05T10:25:28Z</time>
      </trkpt>
      <trkpt lat="43.32424" lon="-1.96762">
        <ele>9.8</ele>
        <time>2026-08-05T10:25:29Z</time>
      </trkpt>
      <trkpt lat="43.32425" lon="-1.96769">
        <ele>9.8</ele>
        <time>2026-08-05T10:25:30Z</time>
      </trkpt>
      <trkpt lat="43.32426" lon="-1.96775">
        <ele>9.8</ele>
        <time>2026-08-05T10:25:31Z</time>
      </trkpt>
      <trkpt lat="43.32428" lon="-1.96781">
        <ele>9.4</ele>
        <time>2026-08-05T10:25:32Z</time>
      </trkpt>
      <trkpt lat="43.32429" lon="-1.96787">
        <ele>9.4</ele>
        <time>2026-08-05T10:25:33Z</time>
      </trkpt>
      <trkpt lat="43.32431" lon="-1.96793">
        <ele>9.4</ele>
        <time>2026-08-05T10:25:34Z</time>
      </trkpt>
      <trkpt lat="43.32432" lon="-1.96798">
        <ele>9.4</ele>
        <time>2026-08-05T10:25:35Z</time>
      </trkpt>
      <trkpt lat="43.32433" lon="-1.96804">
        <ele>9.4</ele>
        <time>2026-08-05T10:25:36Z</time>
      </trkpt>
      <trkpt lat="43.32434" lon="-1.9681">
        <ele>9.4</ele>
        <time>2026-08-05T10:25:37Z</time>
      </trkpt>
      <trkpt lat="43.32434" lon="-1.96815">
        <ele>9.8</ele>
        <time>2026-08-05T10:25:38Z</time>
      </trkpt>
      <trkpt lat="43.32434" lon="-1.9682">
        <ele>9.8</ele>
        <time>2026-08-05T10:25:39Z</time>
      </trkpt>
      <trkpt lat="43.32434" lon="-1.96825">
        <ele>9.8</ele>
        <time>2026-08-05T10:25:40Z</time>
      </trkpt>
      <trkpt lat="43.32434" lon="-1.9683">
        <ele>9.8</ele>
        <time>2026-08-05T10:25:41Z</time>
      </trkpt>
      <trkpt lat="43.32435" lon="-1.96834">
        <ele>8.8</ele>
        <time>2026-08-05T10:25:42Z</time>
      </trkpt>
      <trkpt lat="43.32435" lon="-1.96838">
        <ele>8.8</ele>
        <time>2026-08-05T10:25:43Z</time>
      </trkpt>
      <trkpt lat="43.32436" lon="-1.96841">
        <ele>8.8</ele>
        <time>2026-08-05T10:25:44Z</time>
      </trkpt>
      <trkpt lat="43.32437" lon="-1.96843">
        <ele>10</ele>
        <time>2026-08-05T10:25:45Z</time>
      </trkpt>
      <trkpt lat="43.32437" lon="-1.96845">
        <ele>10</ele>
        <time>2026-08-05T10:25:46Z</time>
      </trkpt>
      <trkpt lat="43.32437" lon="-1.96848">
        <ele>10</ele>
        <time>2026-08-05T10:25:47Z</time>
      </trkpt>
      <trkpt lat="43.32437" lon="-1.9685">
        <ele>9.4</ele>
        <time>2026-08-05T10:25:48Z</time>
      </trkpt>
      <trkpt lat="43.32438" lon="-1.96854">
        <ele>9.4</ele>
        <time>2026-08-05T10:25:49Z</time>
      </trkpt>
      <trkpt lat="43.32439" lon="-1.96857">
        <ele>9.4</ele>
        <time>2026-08-05T10:25:50Z</time>
      </trkpt>
      <trkpt lat="43.3244" lon="-1.9686">
        <ele>10.2</ele>
        <time>2026-08-05T10:25:51Z</time>
      </trkpt>
      <trkpt lat="43.32441" lon="-1.96864">
        <ele>10.6</ele>
        <time>2026-08-05T10:25:52Z</time>
      </trkpt>
      <trkpt lat="43.32442" lon="-1.96867">
        <ele>10.6</ele>
        <time>2026-08-05T10:25:53Z</time>
      </trkpt>
      <trkpt lat="43.32444" lon="-1.96871">
        <ele>10.6</ele>
        <time>2026-08-05T10:25:54Z</time>
      </trkpt>
      <trkpt lat="43.32445" lon="-1.96875">
        <ele>9.4</ele>
        <time>2026-08-05T10:25:55Z</time>
      </trkpt>
      <trkpt lat="43.32446" lon="-1.9688">
        <ele>9.4</ele>
        <time>2026-08-05T10:25:56Z</time>
      </trkpt>
      <trkpt lat="43.32447" lon="-1.96885">
        <ele>9.4</ele>
        <time>2026-08-05T10:25:57Z</time>
      </trkpt>
      <trkpt lat="43.32449" lon="-1.96889">
        <ele>9.4</ele>
        <time>2026-08-05T10:25:58Z</time>
      </trkpt>
      <trkpt lat="43.32452" lon="-1.96893">
        <ele>9.4</ele>
        <time>2026-08-05T10:25:59Z</time>
      </trkpt>
      <trkpt lat="43.32454" lon="-1.96896">
        <ele>9.4</ele>
        <time>2026-08-05T10:26:00Z</time>
      </trkpt>
      <trkpt lat="43.32456" lon="-1.969">
        <ele>8.6</ele>
        <time>2026-08-05T10:26:01Z</time>
      </trkpt>
      <trkpt lat="43.32459" lon="-1.96903">
        <ele>8.6</ele>
        <time>2026-08-05T10:26:02Z</time>
      </trkpt>
      <trkpt lat="43.32462" lon="-1.96905">
        <ele>8.6</ele>
        <time>2026-08-05T10:26:03Z</time>
      </trkpt>
      <trkpt lat="43.32465" lon="-1.96908">
        <ele>9.6</ele>
        <time>2026-08-05T10:26:04Z</time>
      </trkpt>
      <trkpt lat="43.32467" lon="-1.9691">
        <ele>9.8</ele>
        <time>2026-08-05T10:26:05Z</time>
      </trkpt>
      <trkpt lat="43.32468" lon="-1.96912">
        <ele>9.8</ele>
        <time>2026-08-05T10:26:06Z</time>
      </trkpt>
      <trkpt lat="43.32468" lon="-1.96912">
        <ele>9.8</ele>
        <time>2026-08-05T10:26:07Z</time>
      </trkpt>
      <trkpt lat="43.32468" lon="-1.96912">
        <ele>9.4</ele>
        <time>2026-08-05T10:26:08Z</time>
      </trkpt>
      <trkpt lat="43.32466" lon="-1.9692">
        <ele>8.6</ele>
        <time>2026-08-05T10:26:46Z</time>
      </trkpt>
      <trkpt lat="43.32466" lon="-1.96923">
        <ele>8.6</ele>
        <time>2026-08-05T10:26:47Z</time>
      </trkpt>
      <trkpt lat="43.32468" lon="-1.96927">
        <ele>8.6</ele>
        <time>2026-08-05T10:26:48Z</time>
      </trkpt>
      <trkpt lat="43.32471" lon="-1.9693">
        <ele>8.6</ele>
        <time>2026-08-05T10:26:49Z</time>
      </trkpt>
      <trkpt lat="43.32474" lon="-1.96933">
        <ele>8.6</ele>
        <time>2026-08-05T10:26:50Z</time>
      </trkpt>
      <trkpt lat="43.32477" lon="-1.96937">
        <ele>8.6</ele>
        <time>2026-08-05T10:26:51Z</time>
      </trkpt>
      <trkpt lat="43.3248" lon="-1.96941">
        <ele>8.6</ele>
        <time>2026-08-05T10:26:52Z</time>
      </trkpt>
      <trkpt lat="43.32483" lon="-1.96945">
        <ele>9</ele>
        <time>2026-08-05T10:26:53Z</time>
      </trkpt>
      <trkpt lat="43.32486" lon="-1.96949">
        <ele>9</ele>
        <time>2026-08-05T10:26:54Z</time>
      </trkpt>
      <trkpt lat="43.32489" lon="-1.96954">
        <ele>9</ele>
        <time>2026-08-05T10:26:55Z</time>
      </trkpt>
      <trkpt lat="43.32493" lon="-1.96958">
        <ele>9</ele>
        <time>2026-08-05T10:26:56Z</time>
      </trkpt>
      <trkpt lat="43.32496" lon="-1.96962">
        <ele>8.8</ele>
        <time>2026-08-05T10:26:57Z</time>
      </trkpt>
      <trkpt lat="43.32499" lon="-1.96967">
        <ele>8.8</ele>
        <time>2026-08-05T10:26:58Z</time>
      </trkpt>
      <trkpt lat="43.32503" lon="-1.96971">
        <ele>8.8</ele>
        <time>2026-08-05T10:26:59Z</time>
      </trkpt>
      <trkpt lat="43.32506" lon="-1.96976">
        <ele>8.6</ele>
        <time>2026-08-05T10:27:00Z</time>
      </trkpt>
      <trkpt lat="43.32509" lon="-1.9698">
        <ele>8.6</ele>
        <time>2026-08-05T10:27:01Z</time>
      </trkpt>
      <trkpt lat="43.32513" lon="-1.96985">
        <ele>8.2</ele>
        <time>2026-08-05T10:27:02Z</time>
      </trkpt>
      <trkpt lat="43.32516" lon="-1.96989">
        <ele>8.2</ele>
        <time>2026-08-05T10:27:03Z</time>
      </trkpt>
      <trkpt lat="43.3252" lon="-1.96993">
        <ele>8.2</ele>
        <time>2026-08-05T10:27:04Z</time>
      </trkpt>
      <trkpt lat="43.32523" lon="-1.96998">
        <ele>7.8</ele>
        <time>2026-08-05T10:27:05Z</time>
      </trkpt>
      <trkpt lat="43.32527" lon="-1.97002">
        <ele>7.8</ele>
        <time>2026-08-05T10:27:06Z</time>
      </trkpt>
      <trkpt lat="43.3253" lon="-1.97006">
        <ele>7.8</ele>
        <time>2026-08-05T10:27:07Z</time>
      </trkpt>
      <trkpt lat="43.32534" lon="-1.97011">
        <ele>7.8</ele>
        <time>2026-08-05T10:27:08Z</time>
      </trkpt>
      <trkpt lat="43.32537" lon="-1.97016">
        <ele>7.8</ele>
        <time>2026-08-05T10:27:09Z</time>
      </trkpt>
      <trkpt lat="43.3254" lon="-1.9702">
        <ele>7.8</ele>
        <time>2026-08-05T10:27:10Z</time>
      </trkpt>
      <trkpt lat="43.32543" lon="-1.97025">
        <ele>7.8</ele>
        <time>2026-08-05T10:27:11Z</time>
      </trkpt>
      <trkpt lat="43.32546" lon="-1.9703">
        <ele>7.8</ele>
        <time>2026-08-05T10:27:12Z</time>
      </trkpt>
      <trkpt lat="43.3255" lon="-1.97034">
        <ele>7.8</ele>
        <time>2026-08-05T10:27:13Z</time>
      </trkpt>
      <trkpt lat="43.32553" lon="-1.97039">
        <ele>7.8</ele>
        <time>2026-08-05T10:27:14Z</time>
      </trkpt>
      <trkpt lat="43.32556" lon="-1.97044">
        <ele>7.8</ele>
        <time>2026-08-05T10:27:15Z</time>
      </trkpt>
      <trkpt lat="43.3256" lon="-1.97049">
        <ele>7</ele>
        <time>2026-08-05T10:27:16Z</time>
      </trkpt>
      <trkpt lat="43.32563" lon="-1.97054">
        <ele>7</ele>
        <time>2026-08-05T10:27:17Z</time>
      </trkpt>
      <trkpt lat="43.32567" lon="-1.97058">
        <ele>7</ele>
        <time>2026-08-05T10:27:18Z</time>
      </trkpt>
      <trkpt lat="43.3257" lon="-1.97063">
        <ele>7</ele>
        <time>2026-08-05T10:27:19Z</time>
      </trkpt>
      <trkpt lat="43.32574" lon="-1.97067">
        <ele>7</ele>
        <time>2026-08-05T10:27:20Z</time>
      </trkpt>
      <trkpt lat="43.32577" lon="-1.97072">
        <ele>7</ele>
        <time>2026-08-05T10:27:21Z</time>
      </trkpt>
      <trkpt lat="43.3258" lon="-1.97077">
        <ele>7</ele>
        <time>2026-08-05T10:27:22Z</time>
      </trkpt>
      <trkpt lat="43.32584" lon="-1.97082">
        <ele>5.8</ele>
        <time>2026-08-05T10:27:23Z</time>
      </trkpt>
      <trkpt lat="43.32587" lon="-1.97086">
        <ele>5.8</ele>
        <time>2026-08-05T10:27:24Z</time>
      </trkpt>
      <trkpt lat="43.3259" lon="-1.97091">
        <ele>5.6</ele>
        <time>2026-08-05T10:27:25Z</time>
      </trkpt>
      <trkpt lat="43.32594" lon="-1.97095">
        <ele>4.8</ele>
        <time>2026-08-05T10:27:26Z</time>
      </trkpt>
      <trkpt lat="43.32597" lon="-1.97099">
        <ele>4.6</ele>
        <time>2026-08-05T10:27:27Z</time>
      </trkpt>
      <trkpt lat="43.32601" lon="-1.97104">
        <ele>4.6</ele>
        <time>2026-08-05T10:27:28Z</time>
      </trkpt>
      <trkpt lat="43.32604" lon="-1.97108">
        <ele>4.6</ele>
        <time>2026-08-05T10:27:29Z</time>
      </trkpt>
      <trkpt lat="43.32607" lon="-1.97113">
        <ele>4.6</ele>
        <time>2026-08-05T10:27:30Z</time>
      </trkpt>
      <trkpt lat="43.32611" lon="-1.97117">
        <ele>4.6</ele>
        <time>2026-08-05T10:27:31Z</time>
      </trkpt>
      <trkpt lat="43.32615" lon="-1.97122">
        <ele>4.6</ele>
        <time>2026-08-05T10:27:32Z</time>
      </trkpt>
      <trkpt lat="43.32618" lon="-1.97127">
        <ele>4.6</ele>
        <time>2026-08-05T10:27:33Z</time>
      </trkpt>
      <trkpt lat="43.32621" lon="-1.97132">
        <ele>4.6</ele>
        <time>2026-08-05T10:27:34Z</time>
      </trkpt>
      <trkpt lat="43.32625" lon="-1.97136">
        <ele>4.4</ele>
        <time>2026-08-05T10:27:35Z</time>
      </trkpt>
      <trkpt lat="43.32628" lon="-1.97141">
        <ele>4.4</ele>
        <time>2026-08-05T10:27:36Z</time>
      </trkpt>
      <trkpt lat="43.3263" lon="-1.97145">
        <ele>4.4</ele>
        <time>2026-08-05T10:27:37Z</time>
      </trkpt>
      <trkpt lat="43.32633" lon="-1.97149">
        <ele>5</ele>
        <time>2026-08-05T10:27:38Z</time>
      </trkpt>
      <trkpt lat="43.32634" lon="-1.97154">
        <ele>5</ele>
        <time>2026-08-05T10:27:39Z</time>
      </trkpt>
      <trkpt lat="43.32636" lon="-1.97159">
        <ele>5</ele>
        <time>2026-08-05T10:27:40Z</time>
      </trkpt>
      <trkpt lat="43.32638" lon="-1.97164">
        <ele>5</ele>
        <time>2026-08-05T10:27:41Z</time>
      </trkpt>
      <trkpt lat="43.3264" lon="-1.97169">
        <ele>4.2</ele>
        <time>2026-08-05T10:27:42Z</time>
      </trkpt>
      <trkpt lat="43.32642" lon="-1.97175">
        <ele>4.2</ele>
        <time>2026-08-05T10:27:43Z</time>
      </trkpt>
      <trkpt lat="43.32643" lon="-1.97182">
        <ele>3.8</ele>
        <time>2026-08-05T10:27:44Z</time>
      </trkpt>
      <trkpt lat="43.32643" lon="-1.97189">
        <ele>3.8</ele>
        <time>2026-08-05T10:27:45Z</time>
      </trkpt>
      <trkpt lat="43.32642" lon="-1.97196">
        <ele>3.4</ele>
        <time>2026-08-05T10:27:46Z</time>
      </trkpt>
      <trkpt lat="43.32641" lon="-1.97202">
        <ele>3.4</ele>
        <time>2026-08-05T10:27:47Z</time>
      </trkpt>
      <trkpt lat="43.3264" lon="-1.97209">
        <ele>3.4</ele>
        <time>2026-08-05T10:27:48Z</time>
      </trkpt>
      <trkpt lat="43.32638" lon="-1.97215">
        <ele>3.4</ele>
        <time>2026-08-05T10:27:49Z</time>
      </trkpt>
      <trkpt lat="43.32636" lon="-1.97221">
        <ele>4</ele>
        <time>2026-08-05T10:27:50Z</time>
      </trkpt>
      <trkpt lat="43.32634" lon="-1.97227">
        <ele>4</ele>
        <time>2026-08-05T10:27:51Z</time>
      </trkpt>
      <trkpt lat="43.32632" lon="-1.97233">
        <ele>4</ele>
        <time>2026-08-05T10:27:52Z</time>
      </trkpt>
      <trkpt lat="43.32629" lon="-1.97238">
        <ele>4</ele>
        <time>2026-08-05T10:27:53Z</time>
      </trkpt>
      <trkpt lat="43.32627" lon="-1.97244">
        <ele>4</ele>
        <time>2026-08-05T10:27:54Z</time>
      </trkpt>
      <trkpt lat="43.32625" lon="-1.97249">
        <ele>4</ele>
        <time>2026-08-05T10:27:55Z</time>
      </trkpt>
      <trkpt lat="43.32623" lon="-1.97254">
        <ele>4.8</ele>
        <time>2026-08-05T10:27:56Z</time>
      </trkpt>
      <trkpt lat="43.32622" lon="-1.97259">
        <ele>5</ele>
        <time>2026-08-05T10:27:57Z</time>
      </trkpt>
      <trkpt lat="43.32622" lon="-1.97263">
        <ele>5</ele>
        <time>2026-08-05T10:27:58Z</time>
      </trkpt>
      <trkpt lat="43.32622" lon="-1.97265">
        <ele>5</ele>
        <time>2026-08-05T10:27:59Z</time>
      </trkpt>
      <trkpt lat="43.32623" lon="-1.97265">
        <ele>4.6</ele>
        <time>2026-08-05T10:28:00Z</time>
      </trkpt>
      <trkpt lat="43.32623" lon="-1.97265">
        <ele>4.6</ele>
        <time>2026-08-05T10:28:01Z</time>
      </trkpt>
      <trkpt lat="43.32625" lon="-1.97266">
        <ele>4.6</ele>
        <time>2026-08-05T10:28:12Z</time>
      </trkpt>
      <trkpt lat="43.32627" lon="-1.97267">
        <ele>4.6</ele>
        <time>2026-08-05T10:28:13Z</time>
      </trkpt>
      <trkpt lat="43.32629" lon="-1.97268">
        <ele>4.6</ele>
        <time>2026-08-05T10:28:14Z</time>
      </trkpt>
      <trkpt lat="43.32632" lon="-1.97269">
        <ele>4.6</ele>
        <time>2026-08-05T10:28:15Z</time>
      </trkpt>
      <trkpt lat="43.32634" lon="-1.97271">
        <ele>4.6</ele>
        <time>2026-08-05T10:28:16Z</time>
      </trkpt>
      <trkpt lat="43.32636" lon="-1.97274">
        <ele>4.6</ele>
        <time>2026-08-05T10:28:17Z</time>
      </trkpt>
      <trkpt lat="43.32636" lon="-1.97276">
        <ele>4.6</ele>
        <time>2026-08-05T10:28:18Z</time>
      </trkpt>
      <trkpt lat="43.32636" lon="-1.97277">
        <ele>4.6</ele>
        <time>2026-08-05T10:28:19Z</time>
      </trkpt>
      <trkpt lat="43.32636" lon="-1.97277">
        <ele>4.6</ele>
        <time>2026-08-05T10:28:20Z</time>
      </trkpt>
      <trkpt lat="43.32638" lon="-1.9728">
        <ele>4.2</ele>
        <time>2026-08-05T10:32:04Z</time>
      </trkpt>
      <trkpt lat="43.32638" lon="-1.97278">
        <ele>4.2</ele>
        <time>2026-08-05T10:32:05Z</time>
      </trkpt>
      <trkpt lat="43.32638" lon="-1.97276">
        <ele>4.2</ele>
        <time>2026-08-05T10:32:06Z</time>
      </trkpt>
      <trkpt lat="43.32638" lon="-1.97275">
        <ele>4.4</ele>
        <time>2026-08-05T10:32:07Z</time>
      </trkpt>
      <trkpt lat="43.32638" lon="-1.97273">
        <ele>4.4</ele>
        <time>2026-08-05T10:32:08Z</time>
      </trkpt>
      <trkpt lat="43.32639" lon="-1.97271">
        <ele>4.4</ele>
        <time>2026-08-05T10:32:09Z</time>
      </trkpt>
      <trkpt lat="43.32639" lon="-1.9727">
        <ele>4.8</ele>
        <time>2026-08-05T10:32:10Z</time>
      </trkpt>
      <trkpt lat="43.32639" lon="-1.97268">
        <ele>4.8</ele>
        <time>2026-08-05T10:32:11Z</time>
      </trkpt>
      <trkpt lat="43.3264" lon="-1.97266">
        <ele>4.8</ele>
        <time>2026-08-05T10:32:12Z</time>
      </trkpt>
      <trkpt lat="43.3264" lon="-1.97265">
        <ele>4.4</ele>
        <time>2026-08-05T10:32:13Z</time>
      </trkpt>
      <trkpt lat="43.3264" lon="-1.97263">
        <ele>4.4</ele>
        <time>2026-08-05T10:32:14Z</time>
      </trkpt>
      <trkpt lat="43.32641" lon="-1.97262">
        <ele>4.4</ele>
        <time>2026-08-05T10:32:15Z</time>
      </trkpt>
      <trkpt lat="43.32641" lon="-1.9726">
        <ele>4.4</ele>
        <time>2026-08-05T10:32:16Z</time>
      </trkpt>
      <trkpt lat="43.32641" lon="-1.97259">
        <ele>4.4</ele>
        <time>2026-08-05T10:32:17Z</time>
      </trkpt>
      <trkpt lat="43.32641" lon="-1.97257">
        <ele>4.4</ele>
        <time>2026-08-05T10:32:18Z</time>
      </trkpt>
      <trkpt lat="43.32641" lon="-1.97256">
        <ele>4.4</ele>
        <time>2026-08-05T10:32:19Z</time>
      </trkpt>
      <trkpt lat="43.32641" lon="-1.97255">
        <ele>4.4</ele>
        <time>2026-08-05T10:32:20Z</time>
      </trkpt>
      <trkpt lat="43.32642" lon="-1.97254">
        <ele>4.4</ele>
        <time>2026-08-05T10:32:21Z</time>
      </trkpt>
      <trkpt lat="43.32642" lon="-1.97253">
        <ele>4.4</ele>
        <time>2026-08-05T10:32:22Z</time>
      </trkpt>
      <trkpt lat="43.32642" lon="-1.97252">
        <ele>4.4</ele>
        <time>2026-08-05T10:32:23Z</time>
      </trkpt>
      <trkpt lat="43.32639" lon="-1.97249">
        <ele>4.2</ele>
        <time>2026-08-05T12:29:33Z</time>
      </trkpt>
      <trkpt lat="43.32639" lon="-1.97249">
        <ele>3.8</ele>
        <time>2026-08-05T12:29:34Z</time>
      </trkpt>
      <trkpt lat="43.32634" lon="-1.97259">
        <ele>4</ele>
        <time>2026-08-05T12:29:58Z</time>
      </trkpt>
      <trkpt lat="43.32633" lon="-1.97261">
        <ele>4</ele>
        <time>2026-08-05T12:29:59Z</time>
      </trkpt>
      <trkpt lat="43.32632" lon="-1.97264">
        <ele>4</ele>
        <time>2026-08-05T12:30:00Z</time>
      </trkpt>
      <trkpt lat="43.32631" lon="-1.97268">
        <ele>4</ele>
        <time>2026-08-05T12:30:01Z</time>
      </trkpt>
      <trkpt lat="43.3263" lon="-1.97271">
        <ele>4</ele>
        <time>2026-08-05T12:30:02Z</time>
      </trkpt>
      <trkpt lat="43.32628" lon="-1.97274">
        <ele>3.8</ele>
        <time>2026-08-05T12:30:03Z</time>
      </trkpt>
      <trkpt lat="43.32627" lon="-1.97278">
        <ele>3.8</ele>
        <time>2026-08-05T12:30:04Z</time>
      </trkpt>
      <trkpt lat="43.32626" lon="-1.97281">
        <ele>3.8</ele>
        <time>2026-08-05T12:30:05Z</time>
      </trkpt>
      <trkpt lat="43.32625" lon="-1.97285">
        <ele>3.8</ele>
        <time>2026-08-05T12:30:06Z</time>
      </trkpt>
      <trkpt lat="43.32623" lon="-1.97289">
        <ele>3.8</ele>
        <time>2026-08-05T12:30:07Z</time>
      </trkpt>
      <trkpt lat="43.32622" lon="-1.97292">
        <ele>3.8</ele>
        <time>2026-08-05T12:30:08Z</time>
      </trkpt>
      <trkpt lat="43.3262" lon="-1.97296">
        <ele>3.4</ele>
        <time>2026-08-05T12:30:09Z</time>
      </trkpt>
      <trkpt lat="43.32619" lon="-1.97301">
        <ele>3.4</ele>
        <time>2026-08-05T12:30:10Z</time>
      </trkpt>
      <trkpt lat="43.32617" lon="-1.97305">
        <ele>3.4</ele>
        <time>2026-08-05T12:30:11Z</time>
      </trkpt>
      <trkpt lat="43.32616" lon="-1.97309">
        <ele>3.4</ele>
        <time>2026-08-05T12:30:12Z</time>
      </trkpt>
      <trkpt lat="43.32614" lon="-1.97314">
        <ele>3.4</ele>
        <time>2026-08-05T12:30:13Z</time>
      </trkpt>
      <trkpt lat="43.32613" lon="-1.97318">
        <ele>3.4</ele>
        <time>2026-08-05T12:30:14Z</time>
      </trkpt>
      <trkpt lat="43.32611" lon="-1.97323">
        <ele>4</ele>
        <time>2026-08-05T12:30:15Z</time>
      </trkpt>
      <trkpt lat="43.32609" lon="-1.97328">
        <ele>4</ele>
        <time>2026-08-05T12:30:16Z</time>
      </trkpt>
      <trkpt lat="43.32607" lon="-1.97332">
        <ele>3.2</ele>
        <time>2026-08-05T12:30:17Z</time>
      </trkpt>
      <trkpt lat="43.32606" lon="-1.97337">
        <ele>3.2</ele>
        <time>2026-08-05T12:30:18Z</time>
      </trkpt>
      <trkpt lat="43.32604" lon="-1.97341">
        <ele>3.2</ele>
        <time>2026-08-05T12:30:19Z</time>
      </trkpt>
      <trkpt lat="43.32602" lon="-1.97345">
        <ele>3.2</ele>
        <time>2026-08-05T12:30:20Z</time>
      </trkpt>
      <trkpt lat="43.326" lon="-1.9735">
        <ele>3.2</ele>
        <time>2026-08-05T12:30:21Z</time>
      </trkpt>
      <trkpt lat="43.32598" lon="-1.97354">
        <ele>3.2</ele>
        <time>2026-08-05T12:30:22Z</time>
      </trkpt>
      <trkpt lat="43.32597" lon="-1.97358">
        <ele>3.2</ele>
        <time>2026-08-05T12:30:23Z</time>
      </trkpt>
      <trkpt lat="43.32595" lon="-1.97363">
        <ele>3.2</ele>
        <time>2026-08-05T12:30:24Z</time>
      </trkpt>
      <trkpt lat="43.32593" lon="-1.97367">
        <ele>3.2</ele>
        <time>2026-08-05T12:30:25Z</time>
      </trkpt>
      <trkpt lat="43.32592" lon="-1.97371">
        <ele>3.2</ele>
        <time>2026-08-05T12:30:26Z</time>
      </trkpt>
      <trkpt lat="43.3259" lon="-1.97375">
        <ele>2.8</ele>
        <time>2026-08-05T12:30:27Z</time>
      </trkpt>
      <trkpt lat="43.32589" lon="-1.97379">
        <ele>2.8</ele>
        <time>2026-08-05T12:30:28Z</time>
      </trkpt>
      <trkpt lat="43.32587" lon="-1.97382">
        <ele>2.8</ele>
        <time>2026-08-05T12:30:29Z</time>
      </trkpt>
      <trkpt lat="43.32586" lon="-1.97385">
        <ele>2.8</ele>
        <time>2026-08-05T12:30:30Z</time>
      </trkpt>
      <trkpt lat="43.32585" lon="-1.97388">
        <ele>2.8</ele>
        <time>2026-08-05T12:30:31Z</time>
      </trkpt>
      <trkpt lat="43.32584" lon="-1.97392">
        <ele>2.8</ele>
        <time>2026-08-05T12:30:32Z</time>
      </trkpt>
      <trkpt lat="43.32584" lon="-1.97395">
        <ele>2.8</ele>
        <time>2026-08-05T12:30:33Z</time>
      </trkpt>
      <trkpt lat="43.32583" lon="-1.97399">
        <ele>3</ele>
        <time>2026-08-05T12:30:34Z</time>
      </trkpt>
      <trkpt lat="43.32582" lon="-1.97403">
        <ele>3</ele>
        <time>2026-08-05T12:30:35Z</time>
      </trkpt>
      <trkpt lat="43.32581" lon="-1.97407">
        <ele>3</ele>
        <time>2026-08-05T12:30:36Z</time>
      </trkpt>
      <trkpt lat="43.3258" lon="-1.97411">
        <ele>3</ele>
        <time>2026-08-05T12:30:37Z</time>
      </trkpt>
      <trkpt lat="43.32579" lon="-1.97414">
        <ele>2.4</ele>
        <time>2026-08-05T12:30:38Z</time>
      </trkpt>
      <trkpt lat="43.32577" lon="-1.97417">
        <ele>2.4</ele>
        <time>2026-08-05T12:30:39Z</time>
      </trkpt>
      <trkpt lat="43.32576" lon="-1.97419">
        <ele>2.4</ele>
        <time>2026-08-05T12:30:40Z</time>
      </trkpt>
      <trkpt lat="43.32575" lon="-1.97422">
        <ele>2.4</ele>
        <time>2026-08-05T12:30:41Z</time>
      </trkpt>
      <trkpt lat="43.32575" lon="-1.97425">
        <ele>2.4</ele>
        <time>2026-08-05T12:30:42Z</time>
      </trkpt>
      <trkpt lat="43.32575" lon="-1.97427">
        <ele>2.4</ele>
        <time>2026-08-05T12:30:43Z</time>
      </trkpt>
      <trkpt lat="43.32576" lon="-1.97429">
        <ele>2.4</ele>
        <time>2026-08-05T12:30:44Z</time>
      </trkpt>
      <trkpt lat="43.32577" lon="-1.97431">
        <ele>2.4</ele>
        <time>2026-08-05T12:30:45Z</time>
      </trkpt>
      <trkpt lat="43.32578" lon="-1.97433">
        <ele>2.4</ele>
        <time>2026-08-05T12:30:46Z</time>
      </trkpt>
      <trkpt lat="43.32578" lon="-1.97436">
        <ele>2.4</ele>
        <time>2026-08-05T12:30:47Z</time>
      </trkpt>
      <trkpt lat="43.32578" lon="-1.97439">
        <ele>2.4</ele>
        <time>2026-08-05T12:30:48Z</time>
      </trkpt>
      <trkpt lat="43.32577" lon="-1.97442">
        <ele>2.4</ele>
        <time>2026-08-05T12:30:49Z</time>
      </trkpt>
      <trkpt lat="43.32577" lon="-1.97445">
        <ele>2.4</ele>
        <time>2026-08-05T12:30:50Z</time>
      </trkpt>
      <trkpt lat="43.32575" lon="-1.97447">
        <ele>2.6</ele>
        <time>2026-08-05T12:30:51Z</time>
      </trkpt>
      <trkpt lat="43.32573" lon="-1.9745">
        <ele>2.6</ele>
        <time>2026-08-05T12:30:52Z</time>
      </trkpt>
      <trkpt lat="43.32572" lon="-1.97453">
        <ele>2.6</ele>
        <time>2026-08-05T12:30:53Z</time>
      </trkpt>
      <trkpt lat="43.32571" lon="-1.97456">
        <ele>2.6</ele>
        <time>2026-08-05T12:30:54Z</time>
      </trkpt>
      <trkpt lat="43.32571" lon="-1.97459">
        <ele>2.2</ele>
        <time>2026-08-05T12:30:55Z</time>
      </trkpt>
      <trkpt lat="43.32571" lon="-1.97459">
        <ele>2.6</ele>
        <time>2026-08-05T12:30:56Z</time>
      </trkpt>
      <trkpt lat="43.32571" lon="-1.97459">
        <ele>2.6</ele>
        <time>2026-08-05T12:30:57Z</time>
      </trkpt>
      <trkpt lat="43.32312" lon="-1.9816">
        <ele>1.4</ele>
        <time>2026-08-05T13:26:14Z</time>
      </trkpt>
      <trkpt lat="43.32311" lon="-1.98164">
        <ele>1</ele>
        <time>2026-08-05T13:26:15Z</time>
      </trkpt>
      <trkpt lat="43.32309" lon="-1.98168">
        <ele>1</ele>
        <time>2026-08-05T13:26:16Z</time>
      </trkpt>
      <trkpt lat="43.32308" lon="-1.98172">
        <ele>1</ele>
        <time>2026-08-05T13:26:17Z</time>
      </trkpt>
      <trkpt lat="43.32307" lon="-1.98177">
        <ele>1</ele>
        <time>2026-08-05T13:26:18Z</time>
      </trkpt>
      <trkpt lat="43.32307" lon="-1.98181">
        <ele>1</ele>
        <time>2026-08-05T13:26:19Z</time>
      </trkpt>
      <trkpt lat="43.32306" lon="-1.98185">
        <ele>0.8</ele>
        <time>2026-08-05T13:26:20Z</time>
      </trkpt>
      <trkpt lat="43.32305" lon="-1.9819">
        <ele>0.8</ele>
        <time>2026-08-05T13:26:21Z</time>
      </trkpt>
      <trkpt lat="43.32304" lon="-1.98193">
        <ele>1.2</ele>
        <time>2026-08-05T13:26:22Z</time>
      </trkpt>
      <trkpt lat="43.32303" lon="-1.98196">
        <ele>1.4</ele>
        <time>2026-08-05T13:26:23Z</time>
      </trkpt>
      <trkpt lat="43.32302" lon="-1.98198">
        <ele>1.4</ele>
        <time>2026-08-05T13:26:24Z</time>
      </trkpt>
      <trkpt lat="43.32302" lon="-1.98199">
        <ele>1.4</ele>
        <time>2026-08-05T13:26:25Z</time>
      </trkpt>
      <trkpt lat="43.32302" lon="-1.98199">
        <ele>1.4</ele>
        <time>2026-08-05T13:26:26Z</time>
      </trkpt>
      <trkpt lat="43.32299" lon="-1.98203">
        <ele>0.8</ele>
        <time>2026-08-05T13:26:39Z</time>
      </trkpt>
      <trkpt lat="43.32297" lon="-1.98206">
        <ele>0.8</ele>
        <time>2026-08-05T13:26:40Z</time>
      </trkpt>
      <trkpt lat="43.32296" lon="-1.98209">
        <ele>0.8</ele>
        <time>2026-08-05T13:26:41Z</time>
      </trkpt>
      <trkpt lat="43.32295" lon="-1.98212">
        <ele>0.8</ele>
        <time>2026-08-05T13:26:42Z</time>
      </trkpt>
      <trkpt lat="43.32293" lon="-1.98215">
        <ele>0.8</ele>
        <time>2026-08-05T13:26:43Z</time>
      </trkpt>
      <trkpt lat="43.32292" lon="-1.98219">
        <ele>1.2</ele>
        <time>2026-08-05T13:26:44Z</time>
      </trkpt>
      <trkpt lat="43.32291" lon="-1.98223">
        <ele>1.2</ele>
        <time>2026-08-05T13:26:45Z</time>
      </trkpt>
      <trkpt lat="43.3229" lon="-1.98227">
        <ele>1.2</ele>
        <time>2026-08-05T13:26:46Z</time>
      </trkpt>
      <trkpt lat="43.32289" lon="-1.98231">
        <ele>1.2</ele>
        <time>2026-08-05T13:26:47Z</time>
      </trkpt>
      <trkpt lat="43.32288" lon="-1.98235">
        <ele>1</ele>
        <time>2026-08-05T13:26:48Z</time>
      </trkpt>
      <trkpt lat="43.32286" lon="-1.98239">
        <ele>0.6</ele>
        <time>2026-08-05T13:26:49Z</time>
      </trkpt>
      <trkpt lat="43.32285" lon="-1.98243">
        <ele>0.6</ele>
        <time>2026-08-05T13:26:50Z</time>
      </trkpt>
      <trkpt lat="43.32283" lon="-1.98247">
        <ele>0.6</ele>
        <time>2026-08-05T13:26:51Z</time>
      </trkpt>
      <trkpt lat="43.32281" lon="-1.98251">
        <ele>0.8</ele>
        <time>2026-08-05T13:26:52Z</time>
      </trkpt>
      <trkpt lat="43.3228" lon="-1.98254">
        <ele>1.2</ele>
        <time>2026-08-05T13:26:53Z</time>
      </trkpt>
      <trkpt lat="43.32278" lon="-1.98258">
        <ele>1.2</ele>
        <time>2026-08-05T13:26:54Z</time>
      </trkpt>
      <trkpt lat="43.32277" lon="-1.98262">
        <ele>1.2</ele>
        <time>2026-08-05T13:26:55Z</time>
      </trkpt>
      <trkpt lat="43.32276" lon="-1.98265">
        <ele>1.2</ele>
        <time>2026-08-05T13:26:56Z</time>
      </trkpt>
      <trkpt lat="43.32275" lon="-1.98268">
        <ele>1.2</ele>
        <time>2026-08-05T13:26:57Z</time>
      </trkpt>
      <trkpt lat="43.32275" lon="-1.98271">
        <ele>1.2</ele>
        <time>2026-08-05T13:26:58Z</time>
      </trkpt>
      <trkpt lat="43.32274" lon="-1.98274">
        <ele>1.2</ele>
        <time>2026-08-05T13:26:59Z</time>
      </trkpt>
      <trkpt lat="43.32274" lon="-1.98277">
        <ele>1</ele>
        <time>2026-08-05T13:27:00Z</time>
      </trkpt>
      <trkpt lat="43.32273" lon="-1.9828">
        <ele>1</ele>
        <time>2026-08-05T13:27:01Z</time>
      </trkpt>
      <trkpt lat="43.32272" lon="-1.98282">
        <ele>1</ele>
        <time>2026-08-05T13:27:02Z</time>
      </trkpt>
      <trkpt lat="43.32271" lon="-1.98285">
        <ele>1</ele>
        <time>2026-08-05T13:27:03Z</time>
      </trkpt>
      <trkpt lat="43.3227" lon="-1.98287">
        <ele>1</ele>
        <time>2026-08-05T13:27:04Z</time>
      </trkpt>
      <trkpt lat="43.3227" lon="-1.9829">
        <ele>1</ele>
        <time>2026-08-05T13:27:05Z</time>
      </trkpt>
      <trkpt lat="43.3227" lon="-1.98292">
        <ele>1</ele>
        <time>2026-08-05T13:27:06Z</time>
      </trkpt>
      <trkpt lat="43.3227" lon="-1.98294">
        <ele>1</ele>
        <time>2026-08-05T13:27:07Z</time>
      </trkpt>
      <trkpt lat="43.3227" lon="-1.98297">
        <ele>1</ele>
        <time>2026-08-05T13:27:08Z</time>
      </trkpt>
      <trkpt lat="43.3227" lon="-1.98299">
        <ele>0.8</ele>
        <time>2026-08-05T13:27:09Z</time>
      </trkpt>
      <trkpt lat="43.32269" lon="-1.98299">
        <ele>0.8</ele>
        <time>2026-08-05T13:27:10Z</time>
      </trkpt>
      <trkpt lat="43.32269" lon="-1.98299">
        <ele>0.8</ele>
        <time>2026-08-05T13:27:11Z</time>
      </trkpt>
      <trkpt lat="43.32269" lon="-1.98299">
        <ele>0.8</ele>
        <time>2026-08-05T13:27:12Z</time>
      </trkpt>
      <trkpt lat="43.32271" lon="-1.9829">
        <ele>1</ele>
        <time>2026-08-05T13:27:20Z</time>
      </trkpt>
      <trkpt lat="43.32272" lon="-1.98288">
        <ele>1</ele>
        <time>2026-08-05T13:27:21Z</time>
      </trkpt>
      <trkpt lat="43.32272" lon="-1.98285">
        <ele>1</ele>
        <time>2026-08-05T13:27:22Z</time>
      </trkpt>
      <trkpt lat="43.32272" lon="-1.98284">
        <ele>0.8</ele>
        <time>2026-08-05T13:27:23Z</time>
      </trkpt>
      <trkpt lat="43.32272" lon="-1.98282">
        <ele>0.8</ele>
        <time>2026-08-05T13:27:24Z</time>
      </trkpt>
      <trkpt lat="43.32271" lon="-1.98281">
        <ele>0.6</ele>
        <time>2026-08-05T13:27:25Z</time>
      </trkpt>
      <trkpt lat="43.3227" lon="-1.9828">
        <ele>0.4</ele>
        <time>2026-08-05T13:27:26Z</time>
      </trkpt>
      <trkpt lat="43.32269" lon="-1.98279">
        <ele>0.4</ele>
        <time>2026-08-05T13:27:27Z</time>
      </trkpt>
      <trkpt lat="43.32268" lon="-1.98278">
        <ele>0.4</ele>
        <time>2026-08-05T13:27:28Z</time>
      </trkpt>
      <trkpt lat="43.32267" lon="-1.98278">
        <ele>1</ele>
        <time>2026-08-05T13:27:29Z</time>
      </trkpt>
      <trkpt lat="43.32266" lon="-1.98278">
        <ele>1</ele>
        <time>2026-08-05T13:27:30Z</time>
      </trkpt>
      <trkpt lat="43.32265" lon="-1.98278">
        <ele>1.2</ele>
        <time>2026-08-05T13:27:31Z</time>
      </trkpt>
      <trkpt lat="43.32265" lon="-1.98278">
        <ele>1.2</ele>
        <time>2026-08-05T13:27:32Z</time>
      </trkpt>
      <trkpt lat="43.32255" lon="-1.98275">
        <ele>0.6</ele>
        <time>2026-08-05T13:27:48Z</time>
      </trkpt>
      <trkpt lat="43.32253" lon="-1.98275">
        <ele>0.6</ele>
        <time>2026-08-05T13:27:49Z</time>
      </trkpt>
      <trkpt lat="43.32251" lon="-1.98277">
        <ele>0.6</ele>
        <time>2026-08-05T13:27:50Z</time>
      </trkpt>
      <trkpt lat="43.32248" lon="-1.98278">
        <ele>0.6</ele>
        <time>2026-08-05T13:27:51Z</time>
      </trkpt>
      <trkpt lat="43.32245" lon="-1.9828">
        <ele>0.6</ele>
        <time>2026-08-05T13:27:52Z</time>
      </trkpt>
      <trkpt lat="43.32243" lon="-1.98284">
        <ele>0.6</ele>
        <time>2026-08-05T13:27:53Z</time>
      </trkpt>
      <trkpt lat="43.32241" lon="-1.98287">
        <ele>0.6</ele>
        <time>2026-08-05T13:27:54Z</time>
      </trkpt>
      <trkpt lat="43.32239" lon="-1.98292">
        <ele>0.6</ele>
        <time>2026-08-05T13:27:55Z</time>
      </trkpt>
      <trkpt lat="43.32238" lon="-1.98296">
        <ele>0.6</ele>
        <time>2026-08-05T13:27:56Z</time>
      </trkpt>
      <trkpt lat="43.32236" lon="-1.98301">
        <ele>1</ele>
        <time>2026-08-05T13:27:57Z</time>
      </trkpt>
      <trkpt lat="43.32234" lon="-1.98305">
        <ele>1</ele>
        <time>2026-08-05T13:27:58Z</time>
      </trkpt>
      <trkpt lat="43.32232" lon="-1.9831">
        <ele>1</ele>
        <time>2026-08-05T13:27:59Z</time>
      </trkpt>
      <trkpt lat="43.32231" lon="-1.98314">
        <ele>1</ele>
        <time>2026-08-05T13:28:00Z</time>
      </trkpt>
      <trkpt lat="43.3223" lon="-1.98319">
        <ele>1</ele>
        <time>2026-08-05T13:28:01Z</time>
      </trkpt>
      <trkpt lat="43.32229" lon="-1.98322">
        <ele>0.8</ele>
        <time>2026-08-05T13:28:02Z</time>
      </trkpt>
      <trkpt lat="43.32228" lon="-1.98324">
        <ele>0.8</ele>
        <time>2026-08-05T13:28:03Z</time>
      </trkpt>
      <trkpt lat="43.32227" lon="-1.98325">
        <ele>0.8</ele>
        <time>2026-08-05T13:28:04Z</time>
      </trkpt>
      <trkpt lat="43.32226" lon="-1.98327">
        <ele>0.8</ele>
        <time>2026-08-05T13:28:05Z</time>
      </trkpt>
      <trkpt lat="43.32225" lon="-1.98328">
        <ele>0.8</ele>
        <time>2026-08-05T13:28:06Z</time>
      </trkpt>
      <trkpt lat="43.32225" lon="-1.9833">
        <ele>0.8</ele>
        <time>2026-08-05T13:28:07Z</time>
      </trkpt>
      <trkpt lat="43.32225" lon="-1.98332">
        <ele>1</ele>
        <time>2026-08-05T13:28:08Z</time>
      </trkpt>
      <trkpt lat="43.32224" lon="-1.98333">
        <ele>1</ele>
        <time>2026-08-05T13:28:09Z</time>
      </trkpt>
      <trkpt lat="43.32224" lon="-1.98333">
        <ele>1</ele>
        <time>2026-08-05T13:28:10Z</time>
      </trkpt>
      <trkpt lat="43.32224" lon="-1.98333">
        <ele>1.2</ele>
        <time>2026-08-05T13:28:11Z</time>
      </trkpt>
      <trkpt lat="43.32219" lon="-1.98341">
        <ele>1.6</ele>
        <time>2026-08-05T13:28:24Z</time>
      </trkpt>
      <trkpt lat="43.32219" lon="-1.98346">
        <ele>1.6</ele>
        <time>2026-08-05T13:28:25Z</time>
      </trkpt>
      <trkpt lat="43.32219" lon="-1.98352">
        <ele>1.8</ele>
        <time>2026-08-05T13:28:26Z</time>
      </trkpt>
      <trkpt lat="43.32218" lon="-1.98357">
        <ele>1.8</ele>
        <time>2026-08-05T13:28:27Z</time>
      </trkpt>
      <trkpt lat="43.32217" lon="-1.98362">
        <ele>1.8</ele>
        <time>2026-08-05T13:28:28Z</time>
      </trkpt>
      <trkpt lat="43.32215" lon="-1.98367">
        <ele>1.2</ele>
        <time>2026-08-05T13:28:29Z</time>
      </trkpt>
      <trkpt lat="43.32213" lon="-1.98372">
        <ele>0.8</ele>
        <time>2026-08-05T13:28:30Z</time>
      </trkpt>
      <trkpt lat="43.32211" lon="-1.98378">
        <ele>0.4</ele>
        <time>2026-08-05T13:28:31Z</time>
      </trkpt>
      <trkpt lat="43.32209" lon="-1.98384">
        <ele>0.4</ele>
        <time>2026-08-05T13:28:32Z</time>
      </trkpt>
      <trkpt lat="43.32207" lon="-1.9839">
        <ele>0.4</ele>
        <time>2026-08-05T13:28:33Z</time>
      </trkpt>
      <trkpt lat="43.32205" lon="-1.98396">
        <ele>1</ele>
        <time>2026-08-05T13:28:34Z</time>
      </trkpt>
      <trkpt lat="43.32203" lon="-1.98402">
        <ele>1.8</ele>
        <time>2026-08-05T13:28:35Z</time>
      </trkpt>
      <trkpt lat="43.32201" lon="-1.98409">
        <ele>1.8</ele>
        <time>2026-08-05T13:28:36Z</time>
      </trkpt>
      <trkpt lat="43.32199" lon="-1.98415">
        <ele>1.8</ele>
        <time>2026-08-05T13:28:37Z</time>
      </trkpt>
      <trkpt lat="43.32197" lon="-1.98421">
        <ele>1.8</ele>
        <time>2026-08-05T13:28:38Z</time>
      </trkpt>
      <trkpt lat="43.32194" lon="-1.98427">
        <ele>1.8</ele>
        <time>2026-08-05T13:28:39Z</time>
      </trkpt>
      <trkpt lat="43.32192" lon="-1.98432">
        <ele>1.8</ele>
        <time>2026-08-05T13:28:40Z</time>
      </trkpt>
      <trkpt lat="43.32189" lon="-1.98437">
        <ele>1.8</ele>
        <time>2026-08-05T13:28:41Z</time>
      </trkpt>
      <trkpt lat="43.32189" lon="-1.98442">
        <ele>1.4</ele>
        <time>2026-08-05T13:28:42Z</time>
      </trkpt>
      <trkpt lat="43.32187" lon="-1.98446">
        <ele>1.4</ele>
        <time>2026-08-05T13:28:43Z</time>
      </trkpt>
      <trkpt lat="43.32186" lon="-1.98449">
        <ele>1.4</ele>
        <time>2026-08-05T13:28:44Z</time>
      </trkpt>
      <trkpt lat="43.32183" lon="-1.98452">
        <ele>1.4</ele>
        <time>2026-08-05T13:28:45Z</time>
      </trkpt>
      <trkpt lat="43.32182" lon="-1.98455">
        <ele>1.4</ele>
        <time>2026-08-05T13:28:46Z</time>
      </trkpt>
      <trkpt lat="43.3218" lon="-1.98458">
        <ele>1.4</ele>
        <time>2026-08-05T13:28:47Z</time>
      </trkpt>
      <trkpt lat="43.32178" lon="-1.98461">
        <ele>1.6</ele>
        <time>2026-08-05T13:28:48Z</time>
      </trkpt>
      <trkpt lat="43.32177" lon="-1.98464">
        <ele>1.6</ele>
        <time>2026-08-05T13:28:49Z</time>
      </trkpt>
      <trkpt lat="43.32176" lon="-1.98467">
        <ele>1.6</ele>
        <time>2026-08-05T13:28:50Z</time>
      </trkpt>
      <trkpt lat="43.32175" lon="-1.98469">
        <ele>1.4</ele>
        <time>2026-08-05T13:28:51Z</time>
      </trkpt>
      <trkpt lat="43.32173" lon="-1.98472">
        <ele>1.4</ele>
        <time>2026-08-05T13:28:52Z</time>
      </trkpt>
      <trkpt lat="43.32172" lon="-1.98475">
        <ele>1.4</ele>
        <time>2026-08-05T13:28:53Z</time>
      </trkpt>
      <trkpt lat="43.32171" lon="-1.98477">
        <ele>1.8</ele>
        <time>2026-08-05T13:28:54Z</time>
      </trkpt>
      <trkpt lat="43.3217" lon="-1.9848">
        <ele>1.8</ele>
        <time>2026-08-05T13:28:55Z</time>
      </trkpt>
      <trkpt lat="43.32169" lon="-1.98482">
        <ele>1.8</ele>
        <time>2026-08-05T13:28:56Z</time>
      </trkpt>
      <trkpt lat="43.32168" lon="-1.98483">
        <ele>1.4</ele>
        <time>2026-08-05T13:28:57Z</time>
      </trkpt>
      <trkpt lat="43.32167" lon="-1.98484">
        <ele>1.4</ele>
        <time>2026-08-05T13:28:58Z</time>
      </trkpt>
      <trkpt lat="43.32166" lon="-1.98485">
        <ele>1.4</ele>
        <time>2026-08-05T13:28:59Z</time>
      </trkpt>
      <trkpt lat="43.32166" lon="-1.98484">
        <ele>1.6</ele>
        <time>2026-08-05T13:29:00Z</time>
      </trkpt>
      <trkpt lat="43.32171" lon="-1.98473">
        <ele>0.8</ele>
        <time>2026-08-05T13:29:09Z</time>
      </trkpt>
      <trkpt lat="43.32173" lon="-1.98468">
        <ele>0.8</ele>
        <time>2026-08-05T13:29:10Z</time>
      </trkpt>
      <trkpt lat="43.32174" lon="-1.98463">
        <ele>0.8</ele>
        <time>2026-08-05T13:29:11Z</time>
      </trkpt>
      <trkpt lat="43.32176" lon="-1.98458">
        <ele>0.8</ele>
        <time>2026-08-05T13:29:12Z</time>
      </trkpt>
      <trkpt lat="43.32177" lon="-1.98452">
        <ele>1.6</ele>
        <time>2026-08-05T13:29:13Z</time>
      </trkpt>
      <trkpt lat="43.32179" lon="-1.98447">
        <ele>1.6</ele>
        <time>2026-08-05T13:29:14Z</time>
      </trkpt>
      <trkpt lat="43.32181" lon="-1.98443">
        <ele>1.2</ele>
        <time>2026-08-05T13:29:15Z</time>
      </trkpt>
      <trkpt lat="43.32183" lon="-1.98439">
        <ele>1.2</ele>
        <time>2026-08-05T13:29:16Z</time>
      </trkpt>
      <trkpt lat="43.32184" lon="-1.98436">
        <ele>1.2</ele>
        <time>2026-08-05T13:29:17Z</time>
      </trkpt>
      <trkpt lat="43.32185" lon="-1.98433">
        <ele>1.2</ele>
        <time>2026-08-05T13:29:18Z</time>
      </trkpt>
      <trkpt lat="43.32186" lon="-1.98432">
        <ele>1.2</ele>
        <time>2026-08-05T13:29:19Z</time>
      </trkpt>
      <trkpt lat="43.32186" lon="-1.98431">
        <ele>1.2</ele>
        <time>2026-08-05T13:29:20Z</time>
      </trkpt>
      <trkpt lat="43.32186" lon="-1.98431">
        <ele>1.2</ele>
        <time>2026-08-05T13:29:21Z</time>
      </trkpt>
      <trkpt lat="43.32188" lon="-1.98418">
        <ele>0.8</ele>
        <time>2026-08-05T13:29:51Z</time>
      </trkpt>
      <trkpt lat="43.3219" lon="-1.98413">
        <ele>0.8</ele>
        <time>2026-08-05T13:29:52Z</time>
      </trkpt>
      <trkpt lat="43.32193" lon="-1.98407">
        <ele>0.8</ele>
        <time>2026-08-05T13:29:53Z</time>
      </trkpt>
      <trkpt lat="43.32195" lon="-1.984">
        <ele>2</ele>
        <time>2026-08-05T13:29:54Z</time>
      </trkpt>
      <trkpt lat="43.32197" lon="-1.98393">
        <ele>2</ele>
        <time>2026-08-05T13:29:55Z</time>
      </trkpt>
      <trkpt lat="43.32199" lon="-1.98387">
        <ele>2</ele>
        <time>2026-08-05T13:29:56Z</time>
      </trkpt>
      <trkpt lat="43.32201" lon="-1.98381">
        <ele>1.2</ele>
        <time>2026-08-05T13:29:57Z</time>
      </trkpt>
      <trkpt lat="43.32204" lon="-1.98374">
        <ele>0.6</ele>
        <time>2026-08-05T13:29:58Z</time>
      </trkpt>
      <trkpt lat="43.32207" lon="-1.98367">
        <ele>6.1</ele>
        <time>2026-08-05T13:29:59Z</time>
      </trkpt>
      <trkpt lat="43.3221" lon="-1.98359">
        <ele>6</ele>
        <time>2026-08-05T13:30:00Z</time>
      </trkpt>
      <trkpt lat="43.32212" lon="-1.98352">
        <ele>6</ele>
        <time>2026-08-05T13:30:01Z</time>
      </trkpt>
      <trkpt lat="43.32215" lon="-1.98345">
        <ele>6</ele>
        <time>2026-08-05T13:30:02Z</time>
      </trkpt>
      <trkpt lat="43.32218" lon="-1.98338">
        <ele>6</ele>
        <time>2026-08-05T13:30:03Z</time>
      </trkpt>
      <trkpt lat="43.32221" lon="-1.98331">
        <ele>6</ele>
        <time>2026-08-05T13:30:04Z</time>
      </trkpt>
      <trkpt lat="43.32224" lon="-1.98325">
        <ele>6</ele>
        <time>2026-08-05T13:30:05Z</time>
      </trkpt>
      <trkpt lat="43.32227" lon="-1.98319">
        <ele>6</ele>
        <time>2026-08-05T13:30:06Z</time>
      </trkpt>
      <trkpt lat="43.3223" lon="-1.98312">
        <ele>0.8</ele>
        <time>2026-08-05T13:30:07Z</time>
      </trkpt>
      <trkpt lat="43.32233" lon="-1.98307">
        <ele>0.8</ele>
        <time>2026-08-05T13:30:08Z</time>
      </trkpt>
      <trkpt lat="43.32235" lon="-1.98301">
        <ele>0.8</ele>
        <time>2026-08-05T13:30:09Z</time>
      </trkpt>
      <trkpt lat="43.32238" lon="-1.98295">
        <ele>0.6</ele>
        <time>2026-08-05T13:30:10Z</time>
      </trkpt>
      <trkpt lat="43.3224" lon="-1.98289">
        <ele>0.4</ele>
        <time>2026-08-05T13:30:11Z</time>
      </trkpt>
      <trkpt lat="43.32242" lon="-1.98284">
        <ele>0.4</ele>
        <time>2026-08-05T13:30:12Z</time>
      </trkpt>
      <trkpt lat="43.32243" lon="-1.98281">
        <ele>0.4</ele>
        <time>2026-08-05T13:30:13Z</time>
      </trkpt>
      <trkpt lat="43.32244" lon="-1.98278">
        <ele>0.4</ele>
        <time>2026-08-05T13:30:14Z</time>
      </trkpt>
      <trkpt lat="43.32245" lon="-1.98275">
        <ele>0.4</ele>
        <time>2026-08-05T13:30:15Z</time>
      </trkpt>
      <trkpt lat="43.32246" lon="-1.98272">
        <ele>0.4</ele>
        <time>2026-08-05T13:30:16Z</time>
      </trkpt>
      <trkpt lat="43.32247" lon="-1.9827">
        <ele>0.4</ele>
        <time>2026-08-05T13:30:17Z</time>
      </trkpt>
      <trkpt lat="43.32248" lon="-1.98269">
        <ele>0.6</ele>
        <time>2026-08-05T13:30:18Z</time>
      </trkpt>
      <trkpt lat="43.32249" lon="-1.98269">
        <ele>0.6</ele>
        <time>2026-08-05T13:30:19Z</time>
      </trkpt>
      <trkpt lat="43.32249" lon="-1.98269">
        <ele>0.8</ele>
        <time>2026-08-05T13:30:20Z</time>
      </trkpt>
      <trkpt lat="43.32256" lon="-1.98268">
        <ele>0.4</ele>
        <time>2026-08-05T13:30:38Z</time>
      </trkpt>
      <trkpt lat="43.32259" lon="-1.98268">
        <ele>0.6</ele>
        <time>2026-08-05T13:30:39Z</time>
      </trkpt>
      <trkpt lat="43.32263" lon="-1.98268">
        <ele>1.2</ele>
        <time>2026-08-05T13:30:40Z</time>
      </trkpt>
      <trkpt lat="43.32266" lon="-1.98268">
        <ele>1.2</ele>
        <time>2026-08-05T13:30:41Z</time>
      </trkpt>
      <trkpt lat="43.32269" lon="-1.98267">
        <ele>1.2</ele>
        <time>2026-08-05T13:30:42Z</time>
      </trkpt>
      <trkpt lat="43.32271" lon="-1.98263">
        <ele>1</ele>
        <time>2026-08-05T13:30:43Z</time>
      </trkpt>
      <trkpt lat="43.32273" lon="-1.98259">
        <ele>0.8</ele>
        <time>2026-08-05T13:30:44Z</time>
      </trkpt>
      <trkpt lat="43.32275" lon="-1.98254">
        <ele>0.8</ele>
        <time>2026-08-05T13:30:45Z</time>
      </trkpt>
      <trkpt lat="43.32277" lon="-1.9825">
        <ele>0.8</ele>
        <time>2026-08-05T13:30:46Z</time>
      </trkpt>
      <trkpt lat="43.32278" lon="-1.98246">
        <ele>0.8</ele>
        <time>2026-08-05T13:30:47Z</time>
      </trkpt>
      <trkpt lat="43.3228" lon="-1.98242">
        <ele>0.8</ele>
        <time>2026-08-05T13:30:48Z</time>
      </trkpt>
      <trkpt lat="43.32282" lon="-1.9824">
        <ele>0.8</ele>
        <time>2026-08-05T13:30:49Z</time>
      </trkpt>
      <trkpt lat="43.32283" lon="-1.98237">
        <ele>1.2</ele>
        <time>2026-08-05T13:30:50Z</time>
      </trkpt>
      <trkpt lat="43.32284" lon="-1.98235">
        <ele>1.2</ele>
        <time>2026-08-05T13:30:51Z</time>
      </trkpt>
      <trkpt lat="43.32285" lon="-1.98233">
        <ele>1.2</ele>
        <time>2026-08-05T13:30:52Z</time>
      </trkpt>
      <trkpt lat="43.32286" lon="-1.9823">
        <ele>1.2</ele>
        <time>2026-08-05T13:30:53Z</time>
      </trkpt>
      <trkpt lat="43.32287" lon="-1.98227">
        <ele>1.2</ele>
        <time>2026-08-05T13:30:54Z</time>
      </trkpt>
      <trkpt lat="43.32288" lon="-1.98225">
        <ele>1.2</ele>
        <time>2026-08-05T13:30:55Z</time>
      </trkpt>
      <trkpt lat="43.32288" lon="-1.98224">
        <ele>1.2</ele>
        <time>2026-08-05T13:30:56Z</time>
      </trkpt>
      <trkpt lat="43.32289" lon="-1.98223">
        <ele>1.2</ele>
        <time>2026-08-05T13:30:57Z</time>
      </trkpt>
      <trkpt lat="43.32289" lon="-1.98221">
        <ele>1.2</ele>
        <time>2026-08-05T13:30:58Z</time>
      </trkpt>
      <trkpt lat="43.3229" lon="-1.98219">
        <ele>1.4</ele>
        <time>2026-08-05T13:30:59Z</time>
      </trkpt>
      <trkpt lat="43.3229" lon="-1.98216">
        <ele>1.4</ele>
        <time>2026-08-05T13:31:00Z</time>
      </trkpt>
      <trkpt lat="43.32291" lon="-1.98214">
        <ele>1.4</ele>
        <time>2026-08-05T13:31:01Z</time>
      </trkpt>
      <trkpt lat="43.32292" lon="-1.98211">
        <ele>1.4</ele>
        <time>2026-08-05T13:31:02Z</time>
      </trkpt>
      <trkpt lat="43.32293" lon="-1.98209">
        <ele>1.4</ele>
        <time>2026-08-05T13:31:03Z</time>
      </trkpt>
      <trkpt lat="43.32294" lon="-1.98206">
        <ele>1.4</ele>
        <time>2026-08-05T13:31:04Z</time>
      </trkpt>
      <trkpt lat="43.32295" lon="-1.98202">
        <ele>1.4</ele>
        <time>2026-08-05T13:31:05Z</time>
      </trkpt>
      <trkpt lat="43.32296" lon="-1.98198">
        <ele>1.4</ele>
        <time>2026-08-05T13:31:06Z</time>
      </trkpt>
      <trkpt lat="43.32298" lon="-1.98194">
        <ele>1.2</ele>
        <time>2026-08-05T13:31:07Z</time>
      </trkpt>
      <trkpt lat="43.32299" lon="-1.98189">
        <ele>1.2</ele>
        <time>2026-08-05T13:31:08Z</time>
      </trkpt>
      <trkpt lat="43.323" lon="-1.98184">
        <ele>1</ele>
        <time>2026-08-05T13:31:09Z</time>
      </trkpt>
      <trkpt lat="43.32301" lon="-1.98179">
        <ele>1</ele>
        <time>2026-08-05T13:31:10Z</time>
      </trkpt>
      <trkpt lat="43.32303" lon="-1.98173">
        <ele>1</ele>
        <time>2026-08-05T13:31:11Z</time>
      </trkpt>
      <trkpt lat="43.32304" lon="-1.98168">
        <ele>1.6</ele>
        <time>2026-08-05T13:31:12Z</time>
      </trkpt>
      <trkpt lat="43.32305" lon="-1.98162">
        <ele>1.6</ele>
        <time>2026-08-05T13:31:13Z</time>
      </trkpt>
      <trkpt lat="43.32307" lon="-1.98157">
        <ele>1.6</ele>
        <time>2026-08-05T13:31:14Z</time>
      </trkpt>
      <trkpt lat="43.32308" lon="-1.98151">
        <ele>1.6</ele>
        <time>2026-08-05T13:31:15Z</time>
      </trkpt>
      <trkpt lat="43.32309" lon="-1.98146">
        <ele>1.6</ele>
        <time>2026-08-05T13:31:16Z</time>
      </trkpt>
      <trkpt lat="43.3231" lon="-1.9814">
        <ele>1.6</ele>
        <time>2026-08-05T13:31:17Z</time>
      </trkpt>
      <trkpt lat="43.32312" lon="-1.98135">
        <ele>1.6</ele>
        <time>2026-08-05T13:31:18Z</time>
      </trkpt>
      <trkpt lat="43.32313" lon="-1.98131">
        <ele>1.6</ele>
        <time>2026-08-05T13:31:19Z</time>
      </trkpt>
      <trkpt lat="43.32314" lon="-1.98127">
        <ele>2</ele>
        <time>2026-08-05T13:31:20Z</time>
      </trkpt>
      <trkpt lat="43.32315" lon="-1.98125">
        <ele>2</ele>
        <time>2026-08-05T13:31:21Z</time>
      </trkpt>
      <trkpt lat="43.32316" lon="-1.98125">
        <ele>2</ele>
        <time>2026-08-05T13:31:22Z</time>
      </trkpt>
      <trkpt lat="43.32316" lon="-1.98125">
        <ele>2</ele>
        <time>2026-08-05T13:31:23Z</time>
      </trkpt>
      <trkpt lat="43.32316" lon="-1.98125">
        <ele>1.8</ele>
        <time>2026-08-05T13:31:24Z</time>
      </trkpt>
      <trkpt lat="43.32316" lon="-1.98125">
        <ele>1.8</ele>
        <time>2026-08-05T13:31:25Z</time>
      </trkpt>
      <trkpt lat="43.32316" lon="-1.98124">
        <ele>1.8</ele>
        <time>2026-08-05T13:31:26Z</time>
      </trkpt>
      <trkpt lat="43.32316" lon="-1.98123">
        <ele>1.8</ele>
        <time>2026-08-05T13:31:27Z</time>
      </trkpt>
      <trkpt lat="43.32308" lon="-1.98097">
        <ele>2</ele>
        <time>2026-08-05T13:32:11Z</time>
      </trkpt>
      <trkpt lat="43.32308" lon="-1.98097">
        <ele>2</ele>
        <time>2026-08-05T13:32:12Z</time>
      </trkpt>
      <trkpt lat="43.32309" lon="-1.98096">
        <ele>2</ele>
        <time>2026-08-05T13:32:13Z</time>
      </trkpt>
      <trkpt lat="43.32309" lon="-1.98093">
        <ele>2</ele>
        <time>2026-08-05T13:32:14Z</time>
      </trkpt>
      <trkpt lat="43.32309" lon="-1.9809">
        <ele>2</ele>
        <time>2026-08-05T13:32:15Z</time>
      </trkpt>
      <trkpt lat="43.32309" lon="-1.9809">
        <ele>2</ele>
        <time>2026-08-05T13:32:16Z</time>
      </trkpt>
      <trkpt lat="43.32307" lon="-1.98095">
        <ele>2</ele>
        <time>2026-08-05T13:32:17Z</time>
      </trkpt>
      <trkpt lat="43.32307" lon="-1.98094">
        <ele>2</ele>
        <time>2026-08-05T13:32:18Z</time>
      </trkpt>
      <trkpt lat="43.32307" lon="-1.98096">
        <ele>2</ele>
        <time>2026-08-05T13:32:19Z</time>
      </trkpt>
      <trkpt lat="43.32307" lon="-1.98099">
        <ele>2</ele>
        <time>2026-08-05T13:32:20Z</time>
      </trkpt>
      <trkpt lat="43.32306" lon="-1.98092">
        <ele>1.8</ele>
        <time>2026-08-05T13:33:05Z</time>
      </trkpt>
      <trkpt lat="43.32306" lon="-1.98092">
        <ele>1.8</ele>
        <time>2026-08-05T13:33:06Z</time>
      </trkpt>
      <trkpt lat="43.32329" lon="-1.98126">
        <ele>1.8</ele>
        <time>2026-08-05T13:33:07Z</time>
      </trkpt>
      <trkpt lat="43.32329" lon="-1.98126">
        <ele>1.8</ele>
        <time>2026-08-05T13:33:08Z</time>
      </trkpt>
      <trkpt lat="43.32317" lon="-1.98138">
        <ele>1.2</ele>
        <time>2026-08-05T13:34:41Z</time>
      </trkpt>
      <trkpt lat="43.32316" lon="-1.98143">
        <ele>0.8</ele>
        <time>2026-08-05T13:34:42Z</time>
      </trkpt>
      <trkpt lat="43.32314" lon="-1.98148">
        <ele>0.8</ele>
        <time>2026-08-05T13:34:43Z</time>
      </trkpt>
      <trkpt lat="43.32312" lon="-1.98154">
        <ele>0.8</ele>
        <time>2026-08-05T13:34:44Z</time>
      </trkpt>
      <trkpt lat="43.32311" lon="-1.9816">
        <ele>0.8</ele>
        <time>2026-08-05T13:34:45Z</time>
      </trkpt>
      <trkpt lat="43.32309" lon="-1.98166">
        <ele>5.1</ele>
        <time>2026-08-05T13:34:46Z</time>
      </trkpt>
      <trkpt lat="43.32308" lon="-1.98173">
        <ele>5.3</ele>
        <time>2026-08-05T13:34:47Z</time>
      </trkpt>
      <trkpt lat="43.32306" lon="-1.98179">
        <ele>-0.4</ele>
        <time>2026-08-05T13:34:48Z</time>
      </trkpt>
      <trkpt lat="43.32304" lon="-1.98186">
        <ele>-0.4</ele>
        <time>2026-08-05T13:34:49Z</time>
      </trkpt>
      <trkpt lat="43.32303" lon="-1.98192">
        <ele>-0.4</ele>
        <time>2026-08-05T13:34:50Z</time>
      </trkpt>
      <trkpt lat="43.32301" lon="-1.98198">
        <ele>-0.4</ele>
        <time>2026-08-05T13:34:51Z</time>
      </trkpt>
      <trkpt lat="43.32299" lon="-1.98203">
        <ele>-0.4</ele>
        <time>2026-08-05T13:34:52Z</time>
      </trkpt>
      <trkpt lat="43.32298" lon="-1.98208">
        <ele>-0.4</ele>
        <time>2026-08-05T13:34:53Z</time>
      </trkpt>
      <trkpt lat="43.32296" lon="-1.98214">
        <ele>0.4</ele>
        <time>2026-08-05T13:34:54Z</time>
      </trkpt>
      <trkpt lat="43.32294" lon="-1.98219">
        <ele>0.6</ele>
        <time>2026-08-05T13:34:55Z</time>
      </trkpt>
      <trkpt lat="43.32293" lon="-1.98224">
        <ele>0.6</ele>
        <time>2026-08-05T13:34:56Z</time>
      </trkpt>
      <trkpt lat="43.32291" lon="-1.98228">
        <ele>0.6</ele>
        <time>2026-08-05T13:34:57Z</time>
      </trkpt>
      <trkpt lat="43.32289" lon="-1.98232">
        <ele>0.6</ele>
        <time>2026-08-05T13:34:58Z</time>
      </trkpt>
      <trkpt lat="43.32288" lon="-1.98236">
        <ele>0.4</ele>
        <time>2026-08-05T13:34:59Z</time>
      </trkpt>
      <trkpt lat="43.32286" lon="-1.9824">
        <ele>0.4</ele>
        <time>2026-08-05T13:35:00Z</time>
      </trkpt>
      <trkpt lat="43.32285" lon="-1.98244">
        <ele>0.4</ele>
        <time>2026-08-05T13:35:01Z</time>
      </trkpt>
      <trkpt lat="43.32283" lon="-1.98249">
        <ele>0.4</ele>
        <time>2026-08-05T13:35:02Z</time>
      </trkpt>
      <trkpt lat="43.32281" lon="-1.98254">
        <ele>0.4</ele>
        <time>2026-08-05T13:35:03Z</time>
      </trkpt>
      <trkpt lat="43.32279" lon="-1.98259">
        <ele>0.4</ele>
        <time>2026-08-05T13:35:04Z</time>
      </trkpt>
      <trkpt lat="43.32277" lon="-1.98263">
        <ele>0.4</ele>
        <time>2026-08-05T13:35:05Z</time>
      </trkpt>
      <trkpt lat="43.32275" lon="-1.98267">
        <ele>0.4</ele>
        <time>2026-08-05T13:35:06Z</time>
      </trkpt>
      <trkpt lat="43.32273" lon="-1.98271">
        <ele>0.4</ele>
        <time>2026-08-05T13:35:07Z</time>
      </trkpt>
      <trkpt lat="43.3227" lon="-1.98274">
        <ele>0.4</ele>
        <time>2026-08-05T13:35:08Z</time>
      </trkpt>
      <trkpt lat="43.32267" lon="-1.98275">
        <ele>0.4</ele>
        <time>2026-08-05T13:35:09Z</time>
      </trkpt>
      <trkpt lat="43.32265" lon="-1.98275">
        <ele>0.8</ele>
        <time>2026-08-05T13:35:10Z</time>
      </trkpt>
      <trkpt lat="43.32263" lon="-1.98275">
        <ele>0.8</ele>
        <time>2026-08-05T13:35:11Z</time>
      </trkpt>
      <trkpt lat="43.3226" lon="-1.98274">
        <ele>0.8</ele>
        <time>2026-08-05T13:35:12Z</time>
      </trkpt>
      <trkpt lat="43.32258" lon="-1.98273">
        <ele>0.8</ele>
        <time>2026-08-05T13:35:13Z</time>
      </trkpt>
      <trkpt lat="43.32255" lon="-1.98272">
        <ele>0.4</ele>
        <time>2026-08-05T13:35:14Z</time>
      </trkpt>
      <trkpt lat="43.32253" lon="-1.98271">
        <ele>0.4</ele>
        <time>2026-08-05T13:35:15Z</time>
      </trkpt>
      <trkpt lat="43.32251" lon="-1.98271">
        <ele>0.4</ele>
        <time>2026-08-05T13:35:16Z</time>
      </trkpt>
      <trkpt lat="43.3225" lon="-1.98271">
        <ele>0.4</ele>
        <time>2026-08-05T13:35:17Z</time>
      </trkpt>
      <trkpt lat="43.32249" lon="-1.98271">
        <ele>0.6</ele>
        <time>2026-08-05T13:35:18Z</time>
      </trkpt>
      <trkpt lat="43.32249" lon="-1.9827">
        <ele>0.8</ele>
        <time>2026-08-05T13:35:19Z</time>
      </trkpt>
      <trkpt lat="43.32244" lon="-1.98284">
        <ele>0.2</ele>
        <time>2026-08-05T13:35:28Z</time>
      </trkpt>
      <trkpt lat="43.32243" lon="-1.98288">
        <ele>0.2</ele>
        <time>2026-08-05T13:35:29Z</time>
      </trkpt>
      <trkpt lat="43.32241" lon="-1.98294">
        <ele>0.2</ele>
        <time>2026-08-05T13:35:30Z</time>
      </trkpt>
      <trkpt lat="43.32239" lon="-1.98299">
        <ele>0.2</ele>
        <time>2026-08-05T13:35:31Z</time>
      </trkpt>
      <trkpt lat="43.32237" lon="-1.98305">
        <ele>6</ele>
        <time>2026-08-05T13:35:32Z</time>
      </trkpt>
      <trkpt lat="43.32236" lon="-1.98311">
        <ele>-0.2</ele>
        <time>2026-08-05T13:35:33Z</time>
      </trkpt>
      <trkpt lat="43.32234" lon="-1.98317">
        <ele>-0.2</ele>
        <time>2026-08-05T13:35:34Z</time>
      </trkpt>
      <trkpt lat="43.32231" lon="-1.98321">
        <ele>-0.2</ele>
        <time>2026-08-05T13:35:35Z</time>
      </trkpt>
      <trkpt lat="43.3223" lon="-1.98325">
        <ele>0.4</ele>
        <time>2026-08-05T13:35:36Z</time>
      </trkpt>
      <trkpt lat="43.32229" lon="-1.98327">
        <ele>0.6</ele>
        <time>2026-08-05T13:35:37Z</time>
      </trkpt>
      <trkpt lat="43.32228" lon="-1.9833">
        <ele>0.6</ele>
        <time>2026-08-05T13:35:38Z</time>
      </trkpt>
      <trkpt lat="43.32228" lon="-1.98332">
        <ele>0.6</ele>
        <time>2026-08-05T13:35:39Z</time>
      </trkpt>
      <trkpt lat="43.32227" lon="-1.98333">
        <ele>0.6</ele>
        <time>2026-08-05T13:35:40Z</time>
      </trkpt>
      <trkpt lat="43.32227" lon="-1.98335">
        <ele>0.4</ele>
        <time>2026-08-05T13:35:41Z</time>
      </trkpt>
      <trkpt lat="43.32226" lon="-1.98335">
        <ele>0.4</ele>
        <time>2026-08-05T13:35:42Z</time>
      </trkpt>
      <trkpt lat="43.32226" lon="-1.98336">
        <ele>0.4</ele>
        <time>2026-08-05T13:35:43Z</time>
      </trkpt>
      <trkpt lat="43.32225" lon="-1.98337">
        <ele>0.4</ele>
        <time>2026-08-05T13:35:44Z</time>
      </trkpt>
      <trkpt lat="43.32223" lon="-1.98343">
        <ele>0.8</ele>
        <time>2026-08-05T13:35:48Z</time>
      </trkpt>
      <trkpt lat="43.32223" lon="-1.98345">
        <ele>0.8</ele>
        <time>2026-08-05T13:35:49Z</time>
      </trkpt>
      <trkpt lat="43.32222" lon="-1.98348">
        <ele>0.4</ele>
        <time>2026-08-05T13:35:50Z</time>
      </trkpt>
      <trkpt lat="43.32221" lon="-1.98352">
        <ele>0.4</ele>
        <time>2026-08-05T13:35:51Z</time>
      </trkpt>
      <trkpt lat="43.32219" lon="-1.98356">
        <ele>0.4</ele>
        <time>2026-08-05T13:35:52Z</time>
      </trkpt>
      <trkpt lat="43.32218" lon="-1.98361">
        <ele>0.4</ele>
        <time>2026-08-05T13:35:53Z</time>
      </trkpt>
      <trkpt lat="43.32216" lon="-1.98366">
        <ele>0.4</ele>
        <time>2026-08-05T13:35:54Z</time>
      </trkpt>
      <trkpt lat="43.32214" lon="-1.98372">
        <ele>6.3</ele>
        <time>2026-08-05T13:35:55Z</time>
      </trkpt>
      <trkpt lat="43.32212" lon="-1.98377">
        <ele>6.4</ele>
        <time>2026-08-05T13:35:56Z</time>
      </trkpt>
      <trkpt lat="43.3221" lon="-1.98383">
        <ele>6.5</ele>
        <time>2026-08-05T13:35:57Z</time>
      </trkpt>
      <trkpt lat="43.32208" lon="-1.98389">
        <ele>6.5</ele>
        <time>2026-08-05T13:35:58Z</time>
      </trkpt>
      <trkpt lat="43.32206" lon="-1.98395">
        <ele>6.3</ele>
        <time>2026-08-05T13:35:59Z</time>
      </trkpt>
      <trkpt lat="43.32204" lon="-1.98401">
        <ele>0.2</ele>
        <time>2026-08-05T13:36:00Z</time>
      </trkpt>
      <trkpt lat="43.32202" lon="-1.98407">
        <ele>0.4</ele>
        <time>2026-08-05T13:36:01Z</time>
      </trkpt>
      <trkpt lat="43.32199" lon="-1.98413">
        <ele>0.4</ele>
        <time>2026-08-05T13:36:02Z</time>
      </trkpt>
      <trkpt lat="43.32197" lon="-1.98419">
        <ele>0.4</ele>
        <time>2026-08-05T13:36:03Z</time>
      </trkpt>
      <trkpt lat="43.32195" lon="-1.98425">
        <ele>0.4</ele>
        <time>2026-08-05T13:36:04Z</time>
      </trkpt>
      <trkpt lat="43.32192" lon="-1.98431">
        <ele>0.4</ele>
        <time>2026-08-05T13:36:05Z</time>
      </trkpt>
      <trkpt lat="43.3219" lon="-1.98437">
        <ele>0.4</ele>
        <time>2026-08-05T13:36:06Z</time>
      </trkpt>
      <trkpt lat="43.32187" lon="-1.98443">
        <ele>0.6</ele>
        <time>2026-08-05T13:36:07Z</time>
      </trkpt>
      <trkpt lat="43.32184" lon="-1.98449">
        <ele>1.2</ele>
        <time>2026-08-05T13:36:08Z</time>
      </trkpt>
      <trkpt lat="43.32183" lon="-1.98455">
        <ele>1.2</ele>
        <time>2026-08-05T13:36:09Z</time>
      </trkpt>
      <trkpt lat="43.32181" lon="-1.98461">
        <ele>1.2</ele>
        <time>2026-08-05T13:36:10Z</time>
      </trkpt>
      <trkpt lat="43.32178" lon="-1.98467">
        <ele>1</ele>
        <time>2026-08-05T13:36:11Z</time>
      </trkpt>
      <trkpt lat="43.32175" lon="-1.98473">
        <ele>1.2</ele>
        <time>2026-08-05T13:36:12Z</time>
      </trkpt>
      <trkpt lat="43.32173" lon="-1.98479">
        <ele>1.2</ele>
        <time>2026-08-05T13:36:13Z</time>
      </trkpt>
      <trkpt lat="43.32171" lon="-1.98484">
        <ele>1.2</ele>
        <time>2026-08-05T13:36:14Z</time>
      </trkpt>
      <trkpt lat="43.32169" lon="-1.98488">
        <ele>1.2</ele>
        <time>2026-08-05T13:36:15Z</time>
      </trkpt>
      <trkpt lat="43.32166" lon="-1.98491">
        <ele>1.2</ele>
        <time>2026-08-05T13:36:16Z</time>
      </trkpt>
      <trkpt lat="43.32164" lon="-1.98491">
        <ele>1.2</ele>
        <time>2026-08-05T13:36:17Z</time>
      </trkpt>
      <trkpt lat="43.32161" lon="-1.98491">
        <ele>1.4</ele>
        <time>2026-08-05T13:36:18Z</time>
      </trkpt>
      <trkpt lat="43.3216" lon="-1.98491">
        <ele>1.4</ele>
        <time>2026-08-05T13:36:19Z</time>
      </trkpt>
      <trkpt lat="43.3216" lon="-1.98492">
        <ele>1.4</ele>
        <time>2026-08-05T13:36:20Z</time>
      </trkpt>
      <trkpt lat="43.3216" lon="-1.98492">
        <ele>1.4</ele>
        <time>2026-08-05T13:36:21Z</time>
      </trkpt>
      <trkpt lat="43.32155" lon="-1.98496">
        <ele>1.8</ele>
        <time>2026-08-05T13:36:55Z</time>
      </trkpt>
      <trkpt lat="43.32154" lon="-1.98497">
        <ele>1.8</ele>
        <time>2026-08-05T13:36:56Z</time>
      </trkpt>
      <trkpt lat="43.32153" lon="-1.98498">
        <ele>1.8</ele>
        <time>2026-08-05T13:36:57Z</time>
      </trkpt>
      <trkpt lat="43.3215" lon="-1.98497">
        <ele>1.8</ele>
        <time>2026-08-05T13:36:58Z</time>
      </trkpt>
      <trkpt lat="43.32148" lon="-1.98496">
        <ele>1.8</ele>
        <time>2026-08-05T13:36:59Z</time>
      </trkpt>
      <trkpt lat="43.32145" lon="-1.98495">
        <ele>1.8</ele>
        <time>2026-08-05T13:37:00Z</time>
      </trkpt>
      <trkpt lat="43.32142" lon="-1.98493">
        <ele>0.4</ele>
        <time>2026-08-05T13:37:01Z</time>
      </trkpt>
      <trkpt lat="43.32139" lon="-1.98492">
        <ele>0.4</ele>
        <time>2026-08-05T13:37:02Z</time>
      </trkpt>
      <trkpt lat="43.32137" lon="-1.9849">
        <ele>0.4</ele>
        <time>2026-08-05T13:37:03Z</time>
      </trkpt>
      <trkpt lat="43.32134" lon="-1.9849">
        <ele>1.4</ele>
        <time>2026-08-05T13:37:04Z</time>
      </trkpt>
      <trkpt lat="43.32132" lon="-1.9849">
        <ele>1.4</ele>
        <time>2026-08-05T13:37:05Z</time>
      </trkpt>
      <trkpt lat="43.3213" lon="-1.98491">
        <ele>1.4</ele>
        <time>2026-08-05T13:37:06Z</time>
      </trkpt>
      <trkpt lat="43.32129" lon="-1.98492">
        <ele>1.4</ele>
        <time>2026-08-05T13:37:07Z</time>
      </trkpt>
      <trkpt lat="43.32128" lon="-1.98494">
        <ele>1.6</ele>
        <time>2026-08-05T13:37:08Z</time>
      </trkpt>
      <trkpt lat="43.32128" lon="-1.98494">
        <ele>1.8</ele>
        <time>2026-08-05T13:37:09Z</time>
      </trkpt>
      <trkpt lat="43.32128" lon="-1.98494">
        <ele>1.8</ele>
        <time>2026-08-05T13:37:10Z</time>
      </trkpt>
      <trkpt lat="43.32123" lon="-1.98511">
        <ele>1.8</ele>
        <time>2026-08-05T13:38:17Z</time>
      </trkpt>
      <trkpt lat="43.32123" lon="-1.98512">
        <ele>1.8</ele>
        <time>2026-08-05T13:38:18Z</time>
      </trkpt>
      <trkpt lat="43.32122" lon="-1.98513">
        <ele>1.4</ele>
        <time>2026-08-05T13:38:19Z</time>
      </trkpt>
      <trkpt lat="43.32122" lon="-1.98515">
        <ele>1.4</ele>
        <time>2026-08-05T13:38:20Z</time>
      </trkpt>
      <trkpt lat="43.32121" lon="-1.98516">
        <ele>1.4</ele>
        <time>2026-08-05T13:38:21Z</time>
      </trkpt>
      <trkpt lat="43.32121" lon="-1.98518">
        <ele>1.4</ele>
        <time>2026-08-05T13:38:22Z</time>
      </trkpt>
      <trkpt lat="43.3212" lon="-1.98519">
        <ele>1.6</ele>
        <time>2026-08-05T13:38:23Z</time>
      </trkpt>
      <trkpt lat="43.3212" lon="-1.9852">
        <ele>1.6</ele>
        <time>2026-08-05T13:38:24Z</time>
      </trkpt>
      <trkpt lat="43.32119" lon="-1.98522">
        <ele>1.6</ele>
        <time>2026-08-05T13:38:25Z</time>
      </trkpt>
      <trkpt lat="43.32118" lon="-1.98523">
        <ele>1.8</ele>
        <time>2026-08-05T13:38:26Z</time>
      </trkpt>
      <trkpt lat="43.32118" lon="-1.98525">
        <ele>1.8</ele>
        <time>2026-08-05T13:38:27Z</time>
      </trkpt>
      <trkpt lat="43.32117" lon="-1.98526">
        <ele>1.8</ele>
        <time>2026-08-05T13:38:28Z</time>
      </trkpt>
      <trkpt lat="43.32117" lon="-1.98528">
        <ele>1.8</ele>
        <time>2026-08-05T13:38:29Z</time>
      </trkpt>
      <trkpt lat="43.32116" lon="-1.98529">
        <ele>1.6</ele>
        <time>2026-08-05T13:38:30Z</time>
      </trkpt>
      <trkpt lat="43.32115" lon="-1.9853">
        <ele>1.6</ele>
        <time>2026-08-05T13:38:31Z</time>
      </trkpt>
      <trkpt lat="43.32115" lon="-1.98532">
        <ele>1.6</ele>
        <time>2026-08-05T13:38:32Z</time>
      </trkpt>
      <trkpt lat="43.32114" lon="-1.98533">
        <ele>1.6</ele>
        <time>2026-08-05T13:38:33Z</time>
      </trkpt>
      <trkpt lat="43.32114" lon="-1.98535">
        <ele>1.6</ele>
        <time>2026-08-05T13:38:34Z</time>
      </trkpt>
      <trkpt lat="43.32113" lon="-1.98536">
        <ele>1.6</ele>
        <time>2026-08-05T13:38:35Z</time>
      </trkpt>
      <trkpt lat="43.32112" lon="-1.98537">
        <ele>1.6</ele>
        <time>2026-08-05T13:38:36Z</time>
      </trkpt>
      <trkpt lat="43.32112" lon="-1.98539">
        <ele>1.8</ele>
        <time>2026-08-05T13:38:37Z</time>
      </trkpt>
      <trkpt lat="43.32111" lon="-1.9854">
        <ele>1.8</ele>
        <time>2026-08-05T13:38:38Z</time>
      </trkpt>
      <trkpt lat="43.3211" lon="-1.98542">
        <ele>1.8</ele>
        <time>2026-08-05T13:38:39Z</time>
      </trkpt>
      <trkpt lat="43.3211" lon="-1.98543">
        <ele>1.8</ele>
        <time>2026-08-05T13:38:40Z</time>
      </trkpt>
      <trkpt lat="43.32109" lon="-1.98545">
        <ele>1.8</ele>
        <time>2026-08-05T13:38:41Z</time>
      </trkpt>
      <trkpt lat="43.32109" lon="-1.98546">
        <ele>1.8</ele>
        <time>2026-08-05T13:38:42Z</time>
      </trkpt>
      <trkpt lat="43.32108" lon="-1.98548">
        <ele>1.6</ele>
        <time>2026-08-05T13:38:43Z</time>
      </trkpt>
      <trkpt lat="43.32108" lon="-1.98549">
        <ele>1.6</ele>
        <time>2026-08-05T13:38:44Z</time>
      </trkpt>
      <trkpt lat="43.32107" lon="-1.98551">
        <ele>1.6</ele>
        <time>2026-08-05T13:38:45Z</time>
      </trkpt>
      <trkpt lat="43.32107" lon="-1.98552">
        <ele>1.6</ele>
        <time>2026-08-05T13:38:46Z</time>
      </trkpt>
      <trkpt lat="43.32106" lon="-1.98553">
        <ele>1.8</ele>
        <time>2026-08-05T13:38:47Z</time>
      </trkpt>
      <trkpt lat="43.32105" lon="-1.98554">
        <ele>1.8</ele>
        <time>2026-08-05T13:38:48Z</time>
      </trkpt>
      <trkpt lat="43.32105" lon="-1.98555">
        <ele>1.8</ele>
        <time>2026-08-05T13:38:49Z</time>
      </trkpt>
      <trkpt lat="43.32105" lon="-1.98557">
        <ele>1.6</ele>
        <time>2026-08-05T13:38:50Z</time>
      </trkpt>
      <trkpt lat="43.32104" lon="-1.98558">
        <ele>1.6</ele>
        <time>2026-08-05T13:38:51Z</time>
      </trkpt>
      <trkpt lat="43.32104" lon="-1.9856">
        <ele>1.6</ele>
        <time>2026-08-05T13:38:52Z</time>
      </trkpt>
      <trkpt lat="43.32103" lon="-1.98561">
        <ele>1.6</ele>
        <time>2026-08-05T13:38:53Z</time>
      </trkpt>
      <trkpt lat="43.32103" lon="-1.98562">
        <ele>1.8</ele>
        <time>2026-08-05T13:38:54Z</time>
      </trkpt>
      <trkpt lat="43.32102" lon="-1.98563">
        <ele>1.8</ele>
        <time>2026-08-05T13:38:55Z</time>
      </trkpt>
      <trkpt lat="43.32102" lon="-1.98565">
        <ele>1.8</ele>
        <time>2026-08-05T13:38:56Z</time>
      </trkpt>
      <trkpt lat="43.32101" lon="-1.98566">
        <ele>1.8</ele>
        <time>2026-08-05T13:38:57Z</time>
      </trkpt>
      <trkpt lat="43.32101" lon="-1.98567">
        <ele>1.8</ele>
        <time>2026-08-05T13:38:58Z</time>
      </trkpt>
      <trkpt lat="43.32101" lon="-1.98569">
        <ele>1.8</ele>
        <time>2026-08-05T13:38:59Z</time>
      </trkpt>
      <trkpt lat="43.321" lon="-1.9857">
        <ele>1.8</ele>
        <time>2026-08-05T13:39:00Z</time>
      </trkpt>
      <trkpt lat="43.321" lon="-1.98571">
        <ele>1.8</ele>
        <time>2026-08-05T13:39:01Z</time>
      </trkpt>
      <trkpt lat="43.32099" lon="-1.98573">
        <ele>2</ele>
        <time>2026-08-05T13:39:02Z</time>
      </trkpt>
      <trkpt lat="43.32099" lon="-1.98574">
        <ele>2</ele>
        <time>2026-08-05T13:39:03Z</time>
      </trkpt>
      <trkpt lat="43.32098" lon="-1.98576">
        <ele>2</ele>
        <time>2026-08-05T13:39:04Z</time>
      </trkpt>
      <trkpt lat="43.32098" lon="-1.98577">
        <ele>2</ele>
        <time>2026-08-05T13:39:05Z</time>
      </trkpt>
      <trkpt lat="43.32098" lon="-1.98579">
        <ele>2</ele>
        <time>2026-08-05T13:39:06Z</time>
      </trkpt>
      <trkpt lat="43.32097" lon="-1.9858">
        <ele>1.8</ele>
        <time>2026-08-05T13:39:07Z</time>
      </trkpt>
      <trkpt lat="43.32097" lon="-1.98581">
        <ele>1.8</ele>
        <time>2026-08-05T13:39:08Z</time>
      </trkpt>
      <trkpt lat="43.32096" lon="-1.98583">
        <ele>1.8</ele>
        <time>2026-08-05T13:39:09Z</time>
      </trkpt>
      <trkpt lat="43.32096" lon="-1.98584">
        <ele>1.8</ele>
        <time>2026-08-05T13:39:10Z</time>
      </trkpt>
      <trkpt lat="43.32095" lon="-1.98585">
        <ele>1.8</ele>
        <time>2026-08-05T13:39:11Z</time>
      </trkpt>
      <trkpt lat="43.32095" lon="-1.98587">
        <ele>1.8</ele>
        <time>2026-08-05T13:39:12Z</time>
      </trkpt>
      <trkpt lat="43.32094" lon="-1.98588">
        <ele>1.8</ele>
        <time>2026-08-05T13:39:13Z</time>
      </trkpt>
      <trkpt lat="43.32093" lon="-1.9859">
        <ele>1.8</ele>
        <time>2026-08-05T13:39:14Z</time>
      </trkpt>
      <trkpt lat="43.32093" lon="-1.98591">
        <ele>1.8</ele>
        <time>2026-08-05T13:39:15Z</time>
      </trkpt>
      <trkpt lat="43.32092" lon="-1.98592">
        <ele>1.8</ele>
        <time>2026-08-05T13:39:16Z</time>
      </trkpt>
      <trkpt lat="43.32092" lon="-1.98594">
        <ele>2</ele>
        <time>2026-08-05T13:39:17Z</time>
      </trkpt>
      <trkpt lat="43.32092" lon="-1.98595">
        <ele>2</ele>
        <time>2026-08-05T13:39:18Z</time>
      </trkpt>
      <trkpt lat="43.32091" lon="-1.98597">
        <ele>2</ele>
        <time>2026-08-05T13:39:19Z</time>
      </trkpt>
      <trkpt lat="43.32091" lon="-1.98598">
        <ele>2</ele>
        <time>2026-08-05T13:39:20Z</time>
      </trkpt>
      <trkpt lat="43.32091" lon="-1.986">
        <ele>1.8</ele>
        <time>2026-08-05T13:39:21Z</time>
      </trkpt>
      <trkpt lat="43.3209" lon="-1.98601">
        <ele>2</ele>
        <time>2026-08-05T13:39:22Z</time>
      </trkpt>
      <trkpt lat="43.32089" lon="-1.98602">
        <ele>2</ele>
        <time>2026-08-05T13:39:23Z</time>
      </trkpt>
      <trkpt lat="43.32089" lon="-1.98603">
        <ele>2</ele>
        <time>2026-08-05T13:39:24Z</time>
      </trkpt>
      <trkpt lat="43.32088" lon="-1.98604">
        <ele>2</ele>
        <time>2026-08-05T13:39:25Z</time>
      </trkpt>
      <trkpt lat="43.32087" lon="-1.98605">
        <ele>1.6</ele>
        <time>2026-08-05T13:39:26Z</time>
      </trkpt>
      <trkpt lat="43.32086" lon="-1.98606">
        <ele>1.6</ele>
        <time>2026-08-05T13:39:27Z</time>
      </trkpt>
      <trkpt lat="43.32086" lon="-1.98606">
        <ele>1.6</ele>
        <time>2026-08-05T13:39:28Z</time>
      </trkpt>
      <trkpt lat="43.32085" lon="-1.98597">
        <ele>1.8</ele>
        <time>2026-08-05T13:41:33Z</time>
      </trkpt>
      <trkpt lat="43.32084" lon="-1.98595">
        <ele>1.8</ele>
        <time>2026-08-05T13:41:34Z</time>
      </trkpt>
      <trkpt lat="43.32084" lon="-1.98594">
        <ele>1.8</ele>
        <time>2026-08-05T13:41:35Z</time>
      </trkpt>
      <trkpt lat="43.32084" lon="-1.98593">
        <ele>1.8</ele>
        <time>2026-08-05T13:41:36Z</time>
      </trkpt>
      <trkpt lat="43.32083" lon="-1.98591">
        <ele>1.8</ele>
        <time>2026-08-05T13:41:37Z</time>
      </trkpt>
      <trkpt lat="43.32082" lon="-1.9859">
        <ele>2</ele>
        <time>2026-08-05T13:41:38Z</time>
      </trkpt>
      <trkpt lat="43.32082" lon="-1.98589">
        <ele>2</ele>
        <time>2026-08-05T13:41:39Z</time>
      </trkpt>
      <trkpt lat="43.32081" lon="-1.98588">
        <ele>2</ele>
        <time>2026-08-05T13:41:40Z</time>
      </trkpt>
      <trkpt lat="43.3208" lon="-1.98587">
        <ele>2</ele>
        <time>2026-08-05T13:41:41Z</time>
      </trkpt>
      <trkpt lat="43.32079" lon="-1.98585">
        <ele>2</ele>
        <time>2026-08-05T13:41:42Z</time>
      </trkpt>
      <trkpt lat="43.32079" lon="-1.98584">
        <ele>2</ele>
        <time>2026-08-05T13:41:43Z</time>
      </trkpt>
      <trkpt lat="43.32078" lon="-1.98583">
        <ele>2</ele>
        <time>2026-08-05T13:41:44Z</time>
      </trkpt>
      <trkpt lat="43.32078" lon="-1.98581">
        <ele>2</ele>
        <time>2026-08-05T13:41:45Z</time>
      </trkpt>
      <trkpt lat="43.32078" lon="-1.98579">
        <ele>2</ele>
        <time>2026-08-05T13:41:46Z</time>
      </trkpt>
      <trkpt lat="43.32078" lon="-1.98578">
        <ele>2</ele>
        <time>2026-08-05T13:41:47Z</time>
      </trkpt>
      <trkpt lat="43.32077" lon="-1.98577">
        <ele>2</ele>
        <time>2026-08-05T13:41:48Z</time>
      </trkpt>
      <trkpt lat="43.32077" lon="-1.98575">
        <ele>2</ele>
        <time>2026-08-05T13:41:49Z</time>
      </trkpt>
      <trkpt lat="43.32076" lon="-1.98574">
        <ele>2</ele>
        <time>2026-08-05T13:41:50Z</time>
      </trkpt>
      <trkpt lat="43.32076" lon="-1.98573">
        <ele>2</ele>
        <time>2026-08-05T13:41:51Z</time>
      </trkpt>
      <trkpt lat="43.32076" lon="-1.98573">
        <ele>2</ele>
        <time>2026-08-05T13:41:52Z</time>
      </trkpt>
      <trkpt lat="43.32053" lon="-1.98534">
        <ele>2</ele>
        <time>2026-08-05T13:42:40Z</time>
      </trkpt>
      <trkpt lat="43.32052" lon="-1.98533">
        <ele>2</ele>
        <time>2026-08-05T13:42:41Z</time>
      </trkpt>
      <trkpt lat="43.32052" lon="-1.98531">
        <ele>2</ele>
        <time>2026-08-05T13:42:42Z</time>
      </trkpt>
      <trkpt lat="43.32051" lon="-1.9853">
        <ele>2</ele>
        <time>2026-08-05T13:42:43Z</time>
      </trkpt>
      <trkpt lat="43.32051" lon="-1.98529">
        <ele>1.6</ele>
        <time>2026-08-05T13:42:44Z</time>
      </trkpt>
      <trkpt lat="43.3205" lon="-1.98527">
        <ele>1.6</ele>
        <time>2026-08-05T13:42:45Z</time>
      </trkpt>
      <trkpt lat="43.3205" lon="-1.98526">
        <ele>1.6</ele>
        <time>2026-08-05T13:42:46Z</time>
      </trkpt>
      <trkpt lat="43.32049" lon="-1.98525">
        <ele>1.8</ele>
        <time>2026-08-05T13:42:47Z</time>
      </trkpt>
      <trkpt lat="43.32048" lon="-1.98523">
        <ele>1.8</ele>
        <time>2026-08-05T13:42:48Z</time>
      </trkpt>
      <trkpt lat="43.32047" lon="-1.98522">
        <ele>1.8</ele>
        <time>2026-08-05T13:42:49Z</time>
      </trkpt>
      <trkpt lat="43.32046" lon="-1.98521">
        <ele>1.8</ele>
        <time>2026-08-05T13:42:50Z</time>
      </trkpt>
      <trkpt lat="43.32046" lon="-1.98521">
        <ele>1.8</ele>
        <time>2026-08-05T13:42:51Z</time>
      </trkpt>
      <trkpt lat="43.32045" lon="-1.9852">
        <ele>1.8</ele>
        <time>2026-08-05T13:42:52Z</time>
      </trkpt>
      <trkpt lat="43.32044" lon="-1.98519">
        <ele>2</ele>
        <time>2026-08-05T13:42:53Z</time>
      </trkpt>
      <trkpt lat="43.32043" lon="-1.98518">
        <ele>2</ele>
        <time>2026-08-05T13:42:54Z</time>
      </trkpt>
      <trkpt lat="43.32042" lon="-1.98517">
        <ele>2</ele>
        <time>2026-08-05T13:42:55Z</time>
      </trkpt>
      <trkpt lat="43.32041" lon="-1.98516">
        <ele>2</ele>
        <time>2026-08-05T13:42:56Z</time>
      </trkpt>
      <trkpt lat="43.32041" lon="-1.98515">
        <ele>1.8</ele>
        <time>2026-08-05T13:42:57Z</time>
      </trkpt>
      <trkpt lat="43.3204" lon="-1.98514">
        <ele>1.8</ele>
        <time>2026-08-05T13:42:58Z</time>
      </trkpt>
      <trkpt lat="43.32028" lon="-1.98508">
        <ele>2</ele>
        <time>2026-08-05T13:43:11Z</time>
      </trkpt>
      <trkpt lat="43.32028" lon="-1.98508">
        <ele>2</ele>
        <time>2026-08-05T13:43:12Z</time>
      </trkpt>
      <trkpt lat="43.32027" lon="-1.98507">
        <ele>2</ele>
        <time>2026-08-05T13:43:13Z</time>
      </trkpt>
      <trkpt lat="43.32026" lon="-1.98507">
        <ele>2</ele>
        <time>2026-08-05T13:43:14Z</time>
      </trkpt>
      <trkpt lat="43.32025" lon="-1.98506">
        <ele>2</ele>
        <time>2026-08-05T13:43:15Z</time>
      </trkpt>
      <trkpt lat="43.32024" lon="-1.98506">
        <ele>2</ele>
        <time>2026-08-05T13:43:16Z</time>
      </trkpt>
      <trkpt lat="43.32023" lon="-1.98506">
        <ele>2</ele>
        <time>2026-08-05T13:43:17Z</time>
      </trkpt>
      <trkpt lat="43.32021" lon="-1.98505">
        <ele>2</ele>
        <time>2026-08-05T13:43:18Z</time>
      </trkpt>
      <trkpt lat="43.3202" lon="-1.98505">
        <ele>2</ele>
        <time>2026-08-05T13:43:19Z</time>
      </trkpt>
      <trkpt lat="43.32019" lon="-1.98505">
        <ele>2</ele>
        <time>2026-08-05T13:43:20Z</time>
      </trkpt>
      <trkpt lat="43.32018" lon="-1.98504">
        <ele>2</ele>
        <time>2026-08-05T13:43:21Z</time>
      </trkpt>
      <trkpt lat="43.32017" lon="-1.98504">
        <ele>2</ele>
        <time>2026-08-05T13:43:22Z</time>
      </trkpt>
      <trkpt lat="43.32016" lon="-1.98504">
        <ele>2</ele>
        <time>2026-08-05T13:43:23Z</time>
      </trkpt>
      <trkpt lat="43.32015" lon="-1.98504">
        <ele>2</ele>
        <time>2026-08-05T13:43:24Z</time>
      </trkpt>
      <trkpt lat="43.32014" lon="-1.98504">
        <ele>2</ele>
        <time>2026-08-05T13:43:25Z</time>
      </trkpt>
      <trkpt lat="43.32013" lon="-1.98504">
        <ele>2</ele>
        <time>2026-08-05T13:43:26Z</time>
      </trkpt>
      <trkpt lat="43.32002" lon="-1.98495">
        <ele>2.2</ele>
        <time>2026-08-05T13:43:42Z</time>
      </trkpt>
      <trkpt lat="43.32001" lon="-1.98494">
        <ele>2.2</ele>
        <time>2026-08-05T13:43:43Z</time>
      </trkpt>
      <trkpt lat="43.32" lon="-1.98493">
        <ele>2.2</ele>
        <time>2026-08-05T13:43:44Z</time>
      </trkpt>
      <trkpt lat="43.31999" lon="-1.98493">
        <ele>2.2</ele>
        <time>2026-08-05T13:43:45Z</time>
      </trkpt>
      <trkpt lat="43.31997" lon="-1.98493">
        <ele>2.2</ele>
        <time>2026-08-05T13:43:46Z</time>
      </trkpt>
      <trkpt lat="43.31996" lon="-1.98492">
        <ele>2.2</ele>
        <time>2026-08-05T13:43:47Z</time>
      </trkpt>
      <trkpt lat="43.31995" lon="-1.98492">
        <ele>2.2</ele>
        <time>2026-08-05T13:43:48Z</time>
      </trkpt>
      <trkpt lat="43.31975" lon="-1.98482">
        <ele>2.2</ele>
        <time>2026-08-05T13:44:30Z</time>
      </trkpt>
      <trkpt lat="43.31972" lon="-1.98482">
        <ele>2</ele>
        <time>2026-08-05T13:44:31Z</time>
      </trkpt>
      <trkpt lat="43.31969" lon="-1.98483">
        <ele>2</ele>
        <time>2026-08-05T13:44:32Z</time>
      </trkpt>
      <trkpt lat="43.31965" lon="-1.98482">
        <ele>2</ele>
        <time>2026-08-05T13:44:33Z</time>
      </trkpt>
      <trkpt lat="43.31962" lon="-1.98481">
        <ele>2</ele>
        <time>2026-08-05T13:44:34Z</time>
      </trkpt>
      <trkpt lat="43.31958" lon="-1.9848">
        <ele>1.8</ele>
        <time>2026-08-05T13:44:35Z</time>
      </trkpt>
      <trkpt lat="43.31955" lon="-1.98479">
        <ele>1.8</ele>
        <time>2026-08-05T13:44:36Z</time>
      </trkpt>
      <trkpt lat="43.31952" lon="-1.98479">
        <ele>1.8</ele>
        <time>2026-08-05T13:44:37Z</time>
      </trkpt>
      <trkpt lat="43.31948" lon="-1.98477">
        <ele>1.8</ele>
        <time>2026-08-05T13:44:38Z</time>
      </trkpt>
      <trkpt lat="43.31945" lon="-1.98476">
        <ele>1.8</ele>
        <time>2026-08-05T13:44:39Z</time>
      </trkpt>
      <trkpt lat="43.31942" lon="-1.98474">
        <ele>1.8</ele>
        <time>2026-08-05T13:44:40Z</time>
      </trkpt>
      <trkpt lat="43.31939" lon="-1.98471">
        <ele>1.6</ele>
        <time>2026-08-05T13:44:41Z</time>
      </trkpt>
      <trkpt lat="43.31936" lon="-1.98469">
        <ele>1.6</ele>
        <time>2026-08-05T13:44:42Z</time>
      </trkpt>
      <trkpt lat="43.31932" lon="-1.98466">
        <ele>1.6</ele>
        <time>2026-08-05T13:44:43Z</time>
      </trkpt>
      <trkpt lat="43.31929" lon="-1.98464">
        <ele>1.6</ele>
        <time>2026-08-05T13:44:44Z</time>
      </trkpt>
      <trkpt lat="43.31926" lon="-1.98462">
        <ele>1.6</ele>
        <time>2026-08-05T13:44:45Z</time>
      </trkpt>
      <trkpt lat="43.31922" lon="-1.98459">
        <ele>1.6</ele>
        <time>2026-08-05T13:44:46Z</time>
      </trkpt>
      <trkpt lat="43.31919" lon="-1.98457">
        <ele>2</ele>
        <time>2026-08-05T13:44:47Z</time>
      </trkpt>
      <trkpt lat="43.31915" lon="-1.98454">
        <ele>2</ele>
        <time>2026-08-05T13:44:48Z</time>
      </trkpt>
      <trkpt lat="43.31912" lon="-1.98451">
        <ele>2</ele>
        <time>2026-08-05T13:44:49Z</time>
      </trkpt>
      <trkpt lat="43.31908" lon="-1.98449">
        <ele>2</ele>
        <time>2026-08-05T13:44:50Z</time>
      </trkpt>
      <trkpt lat="43.31905" lon="-1.98447">
        <ele>2</ele>
        <time>2026-08-05T13:44:51Z</time>
      </trkpt>
      <trkpt lat="43.31902" lon="-1.98446">
        <ele>2</ele>
        <time>2026-08-05T13:44:52Z</time>
      </trkpt>
      <trkpt lat="43.31899" lon="-1.98445">
        <ele>2</ele>
        <time>2026-08-05T13:44:53Z</time>
      </trkpt>
      <trkpt lat="43.31897" lon="-1.98446">
        <ele>2</ele>
        <time>2026-08-05T13:44:54Z</time>
      </trkpt>
      <trkpt lat="43.31895" lon="-1.98447">
        <ele>2</ele>
        <time>2026-08-05T13:44:55Z</time>
      </trkpt>
      <trkpt lat="43.31893" lon="-1.98448">
        <ele>2</ele>
        <time>2026-08-05T13:44:56Z</time>
      </trkpt>
      <trkpt lat="43.31891" lon="-1.98449">
        <ele>1.8</ele>
        <time>2026-08-05T13:44:57Z</time>
      </trkpt>
      <trkpt lat="43.31889" lon="-1.9845">
        <ele>1.8</ele>
        <time>2026-08-05T13:44:58Z</time>
      </trkpt>
      <trkpt lat="43.31887" lon="-1.98451">
        <ele>1.8</ele>
        <time>2026-08-05T13:44:59Z</time>
      </trkpt>
      <trkpt lat="43.31885" lon="-1.98454">
        <ele>2</ele>
        <time>2026-08-05T13:45:00Z</time>
      </trkpt>
      <trkpt lat="43.31884" lon="-1.98457">
        <ele>2</ele>
        <time>2026-08-05T13:45:01Z</time>
      </trkpt>
      <trkpt lat="43.31882" lon="-1.9846">
        <ele>2</ele>
        <time>2026-08-05T13:45:02Z</time>
      </trkpt>
      <trkpt lat="43.3188" lon="-1.98463">
        <ele>2</ele>
        <time>2026-08-05T13:45:03Z</time>
      </trkpt>
      <trkpt lat="43.31879" lon="-1.98466">
        <ele>2</ele>
        <time>2026-08-05T13:45:04Z</time>
      </trkpt>
      <trkpt lat="43.31877" lon="-1.9847">
        <ele>2</ele>
        <time>2026-08-05T13:45:05Z</time>
      </trkpt>
      <trkpt lat="43.31875" lon="-1.98473">
        <ele>2</ele>
        <time>2026-08-05T13:45:06Z</time>
      </trkpt>
      <trkpt lat="43.31874" lon="-1.98477">
        <ele>2</ele>
        <time>2026-08-05T13:45:07Z</time>
      </trkpt>
      <trkpt lat="43.31872" lon="-1.98481">
        <ele>2</ele>
        <time>2026-08-05T13:45:08Z</time>
      </trkpt>
      <trkpt lat="43.31871" lon="-1.98484">
        <ele>2</ele>
        <time>2026-08-05T13:45:09Z</time>
      </trkpt>
      <trkpt lat="43.31869" lon="-1.98488">
        <ele>2</ele>
        <time>2026-08-05T13:45:10Z</time>
      </trkpt>
      <trkpt lat="43.31867" lon="-1.98491">
        <ele>2</ele>
        <time>2026-08-05T13:45:11Z</time>
      </trkpt>
      <trkpt lat="43.31865" lon="-1.98494">
        <ele>2</ele>
        <time>2026-08-05T13:45:12Z</time>
      </trkpt>
      <trkpt lat="43.31862" lon="-1.98496">
        <ele>2</ele>
        <time>2026-08-05T13:45:13Z</time>
      </trkpt>
      <trkpt lat="43.31859" lon="-1.98498">
        <ele>2</ele>
        <time>2026-08-05T13:45:14Z</time>
      </trkpt>
      <trkpt lat="43.31856" lon="-1.98499">
        <ele>2</ele>
        <time>2026-08-05T13:45:15Z</time>
      </trkpt>
      <trkpt lat="43.31853" lon="-1.98501">
        <ele>2</ele>
        <time>2026-08-05T13:45:16Z</time>
      </trkpt>
      <trkpt lat="43.31851" lon="-1.98503">
        <ele>2</ele>
        <time>2026-08-05T13:45:17Z</time>
      </trkpt>
      <trkpt lat="43.31848" lon="-1.98505">
        <ele>2</ele>
        <time>2026-08-05T13:45:18Z</time>
      </trkpt>
      <trkpt lat="43.31846" lon="-1.98507">
        <ele>2</ele>
        <time>2026-08-05T13:45:19Z</time>
      </trkpt>
      <trkpt lat="43.31844" lon="-1.98509">
        <ele>2</ele>
        <time>2026-08-05T13:45:20Z</time>
      </trkpt>
      <trkpt lat="43.31841" lon="-1.98511">
        <ele>2</ele>
        <time>2026-08-05T13:45:21Z</time>
      </trkpt>
      <trkpt lat="43.31839" lon="-1.98513">
        <ele>2</ele>
        <time>2026-08-05T13:45:22Z</time>
      </trkpt>
      <trkpt lat="43.31836" lon="-1.98515">
        <ele>2</ele>
        <time>2026-08-05T13:45:23Z</time>
      </trkpt>
      <trkpt lat="43.31833" lon="-1.98517">
        <ele>1.6</ele>
        <time>2026-08-05T13:45:24Z</time>
      </trkpt>
      <trkpt lat="43.3183" lon="-1.98518">
        <ele>1.4</ele>
        <time>2026-08-05T13:45:25Z</time>
      </trkpt>
      <trkpt lat="43.31827" lon="-1.9852">
        <ele>1.4</ele>
        <time>2026-08-05T13:45:26Z</time>
      </trkpt>
      <trkpt lat="43.31824" lon="-1.98521">
        <ele>1.4</ele>
        <time>2026-08-05T13:45:27Z</time>
      </trkpt>
      <trkpt lat="43.31821" lon="-1.98523">
        <ele>2.4</ele>
        <time>2026-08-05T13:45:28Z</time>
      </trkpt>
      <trkpt lat="43.31818" lon="-1.98525">
        <ele>2.4</ele>
        <time>2026-08-05T13:45:29Z</time>
      </trkpt>
      <trkpt lat="43.31816" lon="-1.98528">
        <ele>2.4</ele>
        <time>2026-08-05T13:45:30Z</time>
      </trkpt>
      <trkpt lat="43.31813" lon="-1.9853">
        <ele>2</ele>
        <time>2026-08-05T13:45:31Z</time>
      </trkpt>
      <trkpt lat="43.3181" lon="-1.98532">
        <ele>2</ele>
        <time>2026-08-05T13:45:32Z</time>
      </trkpt>
      <trkpt lat="43.31807" lon="-1.98534">
        <ele>2</ele>
        <time>2026-08-05T13:45:33Z</time>
      </trkpt>
      <trkpt lat="43.31805" lon="-1.98536">
        <ele>2</ele>
        <time>2026-08-05T13:45:34Z</time>
      </trkpt>
      <trkpt lat="43.31803" lon="-1.98538">
        <ele>2</ele>
        <time>2026-08-05T13:45:35Z</time>
      </trkpt>
      <trkpt lat="43.31801" lon="-1.9854">
        <ele>2</ele>
        <time>2026-08-05T13:45:36Z</time>
      </trkpt>
      <trkpt lat="43.31799" lon="-1.98542">
        <ele>2</ele>
        <time>2026-08-05T13:45:37Z</time>
      </trkpt>
      <trkpt lat="43.31797" lon="-1.98544">
        <ele>2</ele>
        <time>2026-08-05T13:45:38Z</time>
      </trkpt>
      <trkpt lat="43.31795" lon="-1.98546">
        <ele>2</ele>
        <time>2026-08-05T13:45:39Z</time>
      </trkpt>
      <trkpt lat="43.31792" lon="-1.98548">
        <ele>2.2</ele>
        <time>2026-08-05T13:45:40Z</time>
      </trkpt>
      <trkpt lat="43.3179" lon="-1.9855">
        <ele>2.4</ele>
        <time>2026-08-05T13:45:41Z</time>
      </trkpt>
      <trkpt lat="43.31788" lon="-1.98552">
        <ele>2.4</ele>
        <time>2026-08-05T13:45:42Z</time>
      </trkpt>
      <trkpt lat="43.31785" lon="-1.98554">
        <ele>2.4</ele>
        <time>2026-08-05T13:45:43Z</time>
      </trkpt>
      <trkpt lat="43.31782" lon="-1.98556">
        <ele>2.4</ele>
        <time>2026-08-05T13:45:44Z</time>
      </trkpt>
      <trkpt lat="43.3178" lon="-1.98558">
        <ele>2.4</ele>
        <time>2026-08-05T13:45:45Z</time>
      </trkpt>
      <trkpt lat="43.31777" lon="-1.9856">
        <ele>2</ele>
        <time>2026-08-05T13:45:46Z</time>
      </trkpt>
      <trkpt lat="43.31775" lon="-1.98563">
        <ele>2</ele>
        <time>2026-08-05T13:45:47Z</time>
      </trkpt>
      <trkpt lat="43.31773" lon="-1.98565">
        <ele>2</ele>
        <time>2026-08-05T13:45:48Z</time>
      </trkpt>
      <trkpt lat="43.31771" lon="-1.98567">
        <ele>2</ele>
        <time>2026-08-05T13:45:49Z</time>
      </trkpt>
      <trkpt lat="43.31769" lon="-1.9857">
        <ele>2</ele>
        <time>2026-08-05T13:45:50Z</time>
      </trkpt>
      <trkpt lat="43.31766" lon="-1.98572">
        <ele>2</ele>
        <time>2026-08-05T13:45:51Z</time>
      </trkpt>
      <trkpt lat="43.31764" lon="-1.98575">
        <ele>2</ele>
        <time>2026-08-05T13:45:52Z</time>
      </trkpt>
      <trkpt lat="43.31762" lon="-1.98577">
        <ele>2</ele>
        <time>2026-08-05T13:45:53Z</time>
      </trkpt>
      <trkpt lat="43.3176" lon="-1.98579">
        <ele>2</ele>
        <time>2026-08-05T13:45:54Z</time>
      </trkpt>
      <trkpt lat="43.31757" lon="-1.98581">
        <ele>2</ele>
        <time>2026-08-05T13:45:55Z</time>
      </trkpt>
      <trkpt lat="43.31755" lon="-1.98583">
        <ele>2</ele>
        <time>2026-08-05T13:45:56Z</time>
      </trkpt>
      <trkpt lat="43.31752" lon="-1.98586">
        <ele>2</ele>
        <time>2026-08-05T13:45:57Z</time>
      </trkpt>
      <trkpt lat="43.31749" lon="-1.98588">
        <ele>2</ele>
        <time>2026-08-05T13:45:58Z</time>
      </trkpt>
      <trkpt lat="43.31747" lon="-1.98591">
        <ele>2.2</ele>
        <time>2026-08-05T13:45:59Z</time>
      </trkpt>
      <trkpt lat="43.31744" lon="-1.98594">
        <ele>2.2</ele>
        <time>2026-08-05T13:46:00Z</time>
      </trkpt>
      <trkpt lat="43.31741" lon="-1.98597">
        <ele>2.2</ele>
        <time>2026-08-05T13:46:01Z</time>
      </trkpt>
      <trkpt lat="43.31738" lon="-1.986">
        <ele>2.2</ele>
        <time>2026-08-05T13:46:02Z</time>
      </trkpt>
      <trkpt lat="43.31736" lon="-1.98603">
        <ele>2.4</ele>
        <time>2026-08-05T13:46:03Z</time>
      </trkpt>
      <trkpt lat="43.31733" lon="-1.98606">
        <ele>2.4</ele>
        <time>2026-08-05T13:46:04Z</time>
      </trkpt>
      <trkpt lat="43.31731" lon="-1.98609">
        <ele>2.4</ele>
        <time>2026-08-05T13:46:05Z</time>
      </trkpt>
      <trkpt lat="43.31728" lon="-1.98611">
        <ele>2.4</ele>
        <time>2026-08-05T13:46:06Z</time>
      </trkpt>
      <trkpt lat="43.31725" lon="-1.98614">
        <ele>2.4</ele>
        <time>2026-08-05T13:46:07Z</time>
      </trkpt>
      <trkpt lat="43.31722" lon="-1.98617">
        <ele>3</ele>
        <time>2026-08-05T13:46:08Z</time>
      </trkpt>
      <trkpt lat="43.3172" lon="-1.98619">
        <ele>3</ele>
        <time>2026-08-05T13:46:09Z</time>
      </trkpt>
      <trkpt lat="43.31717" lon="-1.98622">
        <ele>2.2</ele>
        <time>2026-08-05T13:46:10Z</time>
      </trkpt>
      <trkpt lat="43.31715" lon="-1.98624">
        <ele>2.2</ele>
        <time>2026-08-05T13:46:11Z</time>
      </trkpt>
      <trkpt lat="43.31712" lon="-1.98627">
        <ele>2.2</ele>
        <time>2026-08-05T13:46:12Z</time>
      </trkpt>
      <trkpt lat="43.3171" lon="-1.98629">
        <ele>2.2</ele>
        <time>2026-08-05T13:46:13Z</time>
      </trkpt>
      <trkpt lat="43.31707" lon="-1.98632">
        <ele>2.6</ele>
        <time>2026-08-05T13:46:14Z</time>
      </trkpt>
      <trkpt lat="43.31705" lon="-1.98635">
        <ele>2.6</ele>
        <time>2026-08-05T13:46:15Z</time>
      </trkpt>
      <trkpt lat="43.31703" lon="-1.98638">
        <ele>2.6</ele>
        <time>2026-08-05T13:46:16Z</time>
      </trkpt>
      <trkpt lat="43.317" lon="-1.98641">
        <ele>2.6</ele>
        <time>2026-08-05T13:46:17Z</time>
      </trkpt>
      <trkpt lat="43.31698" lon="-1.98644">
        <ele>2.6</ele>
        <time>2026-08-05T13:46:18Z</time>
      </trkpt>
      <trkpt lat="43.31695" lon="-1.98647">
        <ele>2.6</ele>
        <time>2026-08-05T13:46:19Z</time>
      </trkpt>
      <trkpt lat="43.31692" lon="-1.9865">
        <ele>2.4</ele>
        <time>2026-08-05T13:46:20Z</time>
      </trkpt>
      <trkpt lat="43.31689" lon="-1.98653">
        <ele>2.4</ele>
        <time>2026-08-05T13:46:21Z</time>
      </trkpt>
      <trkpt lat="43.31687" lon="-1.98656">
        <ele>2.4</ele>
        <time>2026-08-05T13:46:22Z</time>
      </trkpt>
      <trkpt lat="43.31684" lon="-1.98659">
        <ele>2.4</ele>
        <time>2026-08-05T13:46:23Z</time>
      </trkpt>
      <trkpt lat="43.31681" lon="-1.98662">
        <ele>2.4</ele>
        <time>2026-08-05T13:46:24Z</time>
      </trkpt>
      <trkpt lat="43.31679" lon="-1.98665">
        <ele>2.6</ele>
        <time>2026-08-05T13:46:25Z</time>
      </trkpt>
      <trkpt lat="43.31677" lon="-1.98669">
        <ele>3</ele>
        <time>2026-08-05T13:46:26Z</time>
      </trkpt>
      <trkpt lat="43.31674" lon="-1.98672">
        <ele>3</ele>
        <time>2026-08-05T13:46:27Z</time>
      </trkpt>
      <trkpt lat="43.31672" lon="-1.98674">
        <ele>3</ele>
        <time>2026-08-05T13:46:28Z</time>
      </trkpt>
      <trkpt lat="43.3167" lon="-1.98677">
        <ele>3</ele>
        <time>2026-08-05T13:46:29Z</time>
      </trkpt>
      <trkpt lat="43.31667" lon="-1.9868">
        <ele>3</ele>
        <time>2026-08-05T13:46:30Z</time>
      </trkpt>
      <trkpt lat="43.31665" lon="-1.98683">
        <ele>3</ele>
        <time>2026-08-05T13:46:31Z</time>
      </trkpt>
      <trkpt lat="43.31663" lon="-1.98685">
        <ele>2.4</ele>
        <time>2026-08-05T13:46:32Z</time>
      </trkpt>
      <trkpt lat="43.31661" lon="-1.98688">
        <ele>2.2</ele>
        <time>2026-08-05T13:46:33Z</time>
      </trkpt>
      <trkpt lat="43.31659" lon="-1.98691">
        <ele>2.2</ele>
        <time>2026-08-05T13:46:34Z</time>
      </trkpt>
      <trkpt lat="43.31657" lon="-1.98694">
        <ele>2.2</ele>
        <time>2026-08-05T13:46:35Z</time>
      </trkpt>
      <trkpt lat="43.31655" lon="-1.98698">
        <ele>2.2</ele>
        <time>2026-08-05T13:46:36Z</time>
      </trkpt>
      <trkpt lat="43.31653" lon="-1.98702">
        <ele>2.2</ele>
        <time>2026-08-05T13:46:37Z</time>
      </trkpt>
      <trkpt lat="43.31651" lon="-1.98705">
        <ele>2.2</ele>
        <time>2026-08-05T13:46:38Z</time>
      </trkpt>
      <trkpt lat="43.31648" lon="-1.98708">
        <ele>2.2</ele>
        <time>2026-08-05T13:46:39Z</time>
      </trkpt>
      <trkpt lat="43.31646" lon="-1.98712">
        <ele>2.6</ele>
        <time>2026-08-05T13:46:40Z</time>
      </trkpt>
      <trkpt lat="43.31643" lon="-1.98715">
        <ele>2.6</ele>
        <time>2026-08-05T13:46:41Z</time>
      </trkpt>
      <trkpt lat="43.31641" lon="-1.98719">
        <ele>2.6</ele>
        <time>2026-08-05T13:46:42Z</time>
      </trkpt>
      <trkpt lat="43.31639" lon="-1.98722">
        <ele>2.6</ele>
        <time>2026-08-05T13:46:43Z</time>
      </trkpt>
      <trkpt lat="43.31636" lon="-1.98726">
        <ele>2.2</ele>
        <time>2026-08-05T13:46:44Z</time>
      </trkpt>
      <trkpt lat="43.31633" lon="-1.98729">
        <ele>2.2</ele>
        <time>2026-08-05T13:46:45Z</time>
      </trkpt>
      <trkpt lat="43.3163" lon="-1.98733">
        <ele>2.2</ele>
        <time>2026-08-05T13:46:46Z</time>
      </trkpt>
      <trkpt lat="43.31627" lon="-1.98736">
        <ele>2.2</ele>
        <time>2026-08-05T13:46:47Z</time>
      </trkpt>
      <trkpt lat="43.31625" lon="-1.9874">
        <ele>2.6</ele>
        <time>2026-08-05T13:46:48Z</time>
      </trkpt>
      <trkpt lat="43.31622" lon="-1.98744">
        <ele>3</ele>
        <time>2026-08-05T13:46:49Z</time>
      </trkpt>
      <trkpt lat="43.3162" lon="-1.98747">
        <ele>3</ele>
        <time>2026-08-05T13:46:50Z</time>
      </trkpt>
      <trkpt lat="43.31617" lon="-1.98751">
        <ele>3</ele>
        <time>2026-08-05T13:46:51Z</time>
      </trkpt>
      <trkpt lat="43.31614" lon="-1.98754">
        <ele>2.6</ele>
        <time>2026-08-05T13:46:52Z</time>
      </trkpt>
      <trkpt lat="43.31612" lon="-1.98758">
        <ele>2.2</ele>
        <time>2026-08-05T13:46:53Z</time>
      </trkpt>
      <trkpt lat="43.31609" lon="-1.98762">
        <ele>2.2</ele>
        <time>2026-08-05T13:46:54Z</time>
      </trkpt>
      <trkpt lat="43.31607" lon="-1.98765">
        <ele>2.2</ele>
        <time>2026-08-05T13:46:55Z</time>
      </trkpt>
      <trkpt lat="43.31605" lon="-1.98769">
        <ele>2.4</ele>
        <time>2026-08-05T13:46:56Z</time>
      </trkpt>
      <trkpt lat="43.31602" lon="-1.98772">
        <ele>2.6</ele>
        <time>2026-08-05T13:46:57Z</time>
      </trkpt>
      <trkpt lat="43.316" lon="-1.98775">
        <ele>2.8</ele>
        <time>2026-08-05T13:46:58Z</time>
      </trkpt>
      <trkpt lat="43.31598" lon="-1.98779">
        <ele>2.8</ele>
        <time>2026-08-05T13:46:59Z</time>
      </trkpt>
      <trkpt lat="43.31595" lon="-1.98782">
        <ele>2.8</ele>
        <time>2026-08-05T13:47:00Z</time>
      </trkpt>
      <trkpt lat="43.31593" lon="-1.98785">
        <ele>2.4</ele>
        <time>2026-08-05T13:47:01Z</time>
      </trkpt>
      <trkpt lat="43.31591" lon="-1.98788">
        <ele>2.4</ele>
        <time>2026-08-05T13:47:02Z</time>
      </trkpt>
      <trkpt lat="43.31588" lon="-1.98791">
        <ele>2.4</ele>
        <time>2026-08-05T13:47:03Z</time>
      </trkpt>
      <trkpt lat="43.31586" lon="-1.98794">
        <ele>2.6</ele>
        <time>2026-08-05T13:47:04Z</time>
      </trkpt>
      <trkpt lat="43.31583" lon="-1.98797">
        <ele>3</ele>
        <time>2026-08-05T13:47:05Z</time>
      </trkpt>
      <trkpt lat="43.31581" lon="-1.988">
        <ele>3</ele>
        <time>2026-08-05T13:47:06Z</time>
      </trkpt>
      <trkpt lat="43.31578" lon="-1.98804">
        <ele>3</ele>
        <time>2026-08-05T13:47:07Z</time>
      </trkpt>
      <trkpt lat="43.31575" lon="-1.98807">
        <ele>3</ele>
        <time>2026-08-05T13:47:08Z</time>
      </trkpt>
      <trkpt lat="43.31573" lon="-1.98811">
        <ele>3</ele>
        <time>2026-08-05T13:47:09Z</time>
      </trkpt>
      <trkpt lat="43.3157" lon="-1.98815">
        <ele>3</ele>
        <time>2026-08-05T13:47:10Z</time>
      </trkpt>
      <trkpt lat="43.31567" lon="-1.98819">
        <ele>3.6</ele>
        <time>2026-08-05T13:47:11Z</time>
      </trkpt>
      <trkpt lat="43.31565" lon="-1.98822">
        <ele>3.6</ele>
        <time>2026-08-05T13:47:12Z</time>
      </trkpt>
      <trkpt lat="43.31562" lon="-1.98826">
        <ele>3.8</ele>
        <time>2026-08-05T13:47:13Z</time>
      </trkpt>
      <trkpt lat="43.3156" lon="-1.98829">
        <ele>3.8</ele>
        <time>2026-08-05T13:47:14Z</time>
      </trkpt>
      <trkpt lat="43.31558" lon="-1.98832">
        <ele>3.8</ele>
        <time>2026-08-05T13:47:15Z</time>
      </trkpt>
      <trkpt lat="43.31555" lon="-1.98833">
        <ele>3.2</ele>
        <time>2026-08-05T13:47:16Z</time>
      </trkpt>
      <trkpt lat="43.31553" lon="-1.98835">
        <ele>3.2</ele>
        <time>2026-08-05T13:47:17Z</time>
      </trkpt>
      <trkpt lat="43.3155" lon="-1.98835">
        <ele>3.2</ele>
        <time>2026-08-05T13:47:18Z</time>
      </trkpt>
      <trkpt lat="43.31548" lon="-1.98836">
        <ele>3.2</ele>
        <time>2026-08-05T13:47:19Z</time>
      </trkpt>
      <trkpt lat="43.31545" lon="-1.98836">
        <ele>3.8</ele>
        <time>2026-08-05T13:47:20Z</time>
      </trkpt>
      <trkpt lat="43.31543" lon="-1.98837">
        <ele>3.6</ele>
        <time>2026-08-05T13:47:21Z</time>
      </trkpt>
      <trkpt lat="43.3154" lon="-1.98838">
        <ele>3.6</ele>
        <time>2026-08-05T13:47:22Z</time>
      </trkpt>
      <trkpt lat="43.31538" lon="-1.98839">
        <ele>3.6</ele>
        <time>2026-08-05T13:47:23Z</time>
      </trkpt>
      <trkpt lat="43.31536" lon="-1.9884">
        <ele>3.8</ele>
        <time>2026-08-05T13:47:24Z</time>
      </trkpt>
      <trkpt lat="43.31534" lon="-1.98842">
        <ele>4</ele>
        <time>2026-08-05T13:47:25Z</time>
      </trkpt>
      <trkpt lat="43.31532" lon="-1.98845">
        <ele>4</ele>
        <time>2026-08-05T13:47:26Z</time>
      </trkpt>
      <trkpt lat="43.3153" lon="-1.98848">
        <ele>4</ele>
        <time>2026-08-05T13:47:27Z</time>
      </trkpt>
      <trkpt lat="43.31529" lon="-1.98852">
        <ele>3.4</ele>
        <time>2026-08-05T13:47:28Z</time>
      </trkpt>
      <trkpt lat="43.31528" lon="-1.98857">
        <ele>3.4</ele>
        <time>2026-08-05T13:47:29Z</time>
      </trkpt>
      <trkpt lat="43.31527" lon="-1.98862">
        <ele>3</ele>
        <time>2026-08-05T13:47:30Z</time>
      </trkpt>
      <trkpt lat="43.31526" lon="-1.98867">
        <ele>3</ele>
        <time>2026-08-05T13:47:31Z</time>
      </trkpt>
      <trkpt lat="43.31525" lon="-1.98871">
        <ele>3</ele>
        <time>2026-08-05T13:47:32Z</time>
      </trkpt>
      <trkpt lat="43.31524" lon="-1.98876">
        <ele>3</ele>
        <time>2026-08-05T13:47:33Z</time>
      </trkpt>
      <trkpt lat="43.31523" lon="-1.98881">
        <ele>3</ele>
        <time>2026-08-05T13:47:34Z</time>
      </trkpt>
      <trkpt lat="43.31522" lon="-1.98885">
        <ele>2.8</ele>
        <time>2026-08-05T13:47:35Z</time>
      </trkpt>
      <trkpt lat="43.31521" lon="-1.98888">
        <ele>2.8</ele>
        <time>2026-08-05T13:47:36Z</time>
      </trkpt>
      <trkpt lat="43.3152" lon="-1.98891">
        <ele>2.8</ele>
        <time>2026-08-05T13:47:37Z</time>
      </trkpt>
      <trkpt lat="43.3152" lon="-1.98894">
        <ele>3.4</ele>
        <time>2026-08-05T13:47:38Z</time>
      </trkpt>
      <trkpt lat="43.31519" lon="-1.98895">
        <ele>3.4</ele>
        <time>2026-08-05T13:47:39Z</time>
      </trkpt>
      <trkpt lat="43.31519" lon="-1.98895">
        <ele>3.4</ele>
        <time>2026-08-05T13:47:40Z</time>
      </trkpt>
      <trkpt lat="43.31519" lon="-1.98895">
        <ele>3.4</ele>
        <time>2026-08-05T13:47:41Z</time>
      </trkpt>
      <trkpt lat="43.31517" lon="-1.989">
        <ele>3</ele>
        <time>2026-08-05T13:48:05Z</time>
      </trkpt>
      <trkpt lat="43.31516" lon="-1.98903">
        <ele>3</ele>
        <time>2026-08-05T13:48:06Z</time>
      </trkpt>
      <trkpt lat="43.31515" lon="-1.98907">
        <ele>2.8</ele>
        <time>2026-08-05T13:48:07Z</time>
      </trkpt>
      <trkpt lat="43.31515" lon="-1.98911">
        <ele>2.8</ele>
        <time>2026-08-05T13:48:08Z</time>
      </trkpt>
      <trkpt lat="43.31514" lon="-1.98915">
        <ele>2.8</ele>
        <time>2026-08-05T13:48:09Z</time>
      </trkpt>
      <trkpt lat="43.31512" lon="-1.98919">
        <ele>2.8</ele>
        <time>2026-08-05T13:48:10Z</time>
      </trkpt>
      <trkpt lat="43.31511" lon="-1.98923">
        <ele>2.8</ele>
        <time>2026-08-05T13:48:11Z</time>
      </trkpt>
      <trkpt lat="43.3151" lon="-1.98927">
        <ele>2.8</ele>
        <time>2026-08-05T13:48:12Z</time>
      </trkpt>
      <trkpt lat="43.31508" lon="-1.98932">
        <ele>2.8</ele>
        <time>2026-08-05T13:48:13Z</time>
      </trkpt>
      <trkpt lat="43.31507" lon="-1.98936">
        <ele>2.8</ele>
        <time>2026-08-05T13:48:14Z</time>
      </trkpt>
      <trkpt lat="43.31506" lon="-1.9894">
        <ele>2.8</ele>
        <time>2026-08-05T13:48:15Z</time>
      </trkpt>
      <trkpt lat="43.31505" lon="-1.98945">
        <ele>3</ele>
        <time>2026-08-05T13:48:16Z</time>
      </trkpt>
      <trkpt lat="43.31504" lon="-1.9895">
        <ele>3</ele>
        <time>2026-08-05T13:48:17Z</time>
      </trkpt>
      <trkpt lat="43.31504" lon="-1.98954">
        <ele>3.2</ele>
        <time>2026-08-05T13:48:18Z</time>
      </trkpt>
      <trkpt lat="43.31503" lon="-1.98959">
        <ele>3.4</ele>
        <time>2026-08-05T13:48:19Z</time>
      </trkpt>
      <trkpt lat="43.31502" lon="-1.98964">
        <ele>3.4</ele>
        <time>2026-08-05T13:48:20Z</time>
      </trkpt>
      <trkpt lat="43.31501" lon="-1.98969">
        <ele>3.4</ele>
        <time>2026-08-05T13:48:21Z</time>
      </trkpt>
      <trkpt lat="43.31501" lon="-1.98974">
        <ele>3.2</ele>
        <time>2026-08-05T13:48:22Z</time>
      </trkpt>
      <trkpt lat="43.315" lon="-1.98978">
        <ele>3.2</ele>
        <time>2026-08-05T13:48:23Z</time>
      </trkpt>
      <trkpt lat="43.31499" lon="-1.98983">
        <ele>3.2</ele>
        <time>2026-08-05T13:48:24Z</time>
      </trkpt>
      <trkpt lat="43.31498" lon="-1.98987">
        <ele>3.2</ele>
        <time>2026-08-05T13:48:25Z</time>
      </trkpt>
      <trkpt lat="43.31497" lon="-1.98992">
        <ele>2.8</ele>
        <time>2026-08-05T13:48:26Z</time>
      </trkpt>
      <trkpt lat="43.31497" lon="-1.98997">
        <ele>2.8</ele>
        <time>2026-08-05T13:48:27Z</time>
      </trkpt>
      <trkpt lat="43.31496" lon="-1.99001">
        <ele>2.8</ele>
        <time>2026-08-05T13:48:28Z</time>
      </trkpt>
      <trkpt lat="43.31495" lon="-1.99005">
        <ele>3.4</ele>
        <time>2026-08-05T13:48:29Z</time>
      </trkpt>
      <trkpt lat="43.31494" lon="-1.9901">
        <ele>3.4</ele>
        <time>2026-08-05T13:48:30Z</time>
      </trkpt>
      <trkpt lat="43.31493" lon="-1.99014">
        <ele>3.4</ele>
        <time>2026-08-05T13:48:31Z</time>
      </trkpt>
      <trkpt lat="43.31492" lon="-1.99018">
        <ele>3.4</ele>
        <time>2026-08-05T13:48:32Z</time>
      </trkpt>
      <trkpt lat="43.31491" lon="-1.99023">
        <ele>3.2</ele>
        <time>2026-08-05T13:48:33Z</time>
      </trkpt>
      <trkpt lat="43.31491" lon="-1.99027">
        <ele>3</ele>
        <time>2026-08-05T13:48:34Z</time>
      </trkpt>
      <trkpt lat="43.3149" lon="-1.99031">
        <ele>3</ele>
        <time>2026-08-05T13:48:35Z</time>
      </trkpt>
      <trkpt lat="43.31489" lon="-1.99035">
        <ele>3</ele>
        <time>2026-08-05T13:48:36Z</time>
      </trkpt>
      <trkpt lat="43.31488" lon="-1.99039">
        <ele>3.8</ele>
        <time>2026-08-05T13:48:37Z</time>
      </trkpt>
      <trkpt lat="43.31487" lon="-1.99043">
        <ele>3.8</ele>
        <time>2026-08-05T13:48:38Z</time>
      </trkpt>
      <trkpt lat="43.31487" lon="-1.99047">
        <ele>3.8</ele>
        <time>2026-08-05T13:48:39Z</time>
      </trkpt>
      <trkpt lat="43.31486" lon="-1.99051">
        <ele>3.4</ele>
        <time>2026-08-05T13:48:40Z</time>
      </trkpt>
      <trkpt lat="43.31485" lon="-1.99055">
        <ele>3.4</ele>
        <time>2026-08-05T13:48:41Z</time>
      </trkpt>
      <trkpt lat="43.31484" lon="-1.99059">
        <ele>3.4</ele>
        <time>2026-08-05T13:48:42Z</time>
      </trkpt>
      <trkpt lat="43.31483" lon="-1.99064">
        <ele>3.8</ele>
        <time>2026-08-05T13:48:43Z</time>
      </trkpt>
      <trkpt lat="43.31482" lon="-1.99068">
        <ele>3.8</ele>
        <time>2026-08-05T13:48:44Z</time>
      </trkpt>
      <trkpt lat="43.31481" lon="-1.99072">
        <ele>4</ele>
        <time>2026-08-05T13:48:45Z</time>
      </trkpt>
      <trkpt lat="43.3148" lon="-1.99077">
        <ele>4</ele>
        <time>2026-08-05T13:48:46Z</time>
      </trkpt>
      <trkpt lat="43.3148" lon="-1.99081">
        <ele>4</ele>
        <time>2026-08-05T13:48:47Z</time>
      </trkpt>
      <trkpt lat="43.31479" lon="-1.99085">
        <ele>4</ele>
        <time>2026-08-05T13:48:48Z</time>
      </trkpt>
      <trkpt lat="43.31478" lon="-1.9909">
        <ele>4.2</ele>
        <time>2026-08-05T13:48:49Z</time>
      </trkpt>
      <trkpt lat="43.31477" lon="-1.99094">
        <ele>4.2</ele>
        <time>2026-08-05T13:48:50Z</time>
      </trkpt>
      <trkpt lat="43.31476" lon="-1.99098">
        <ele>4.2</ele>
        <time>2026-08-05T13:48:51Z</time>
      </trkpt>
      <trkpt lat="43.31476" lon="-1.99102">
        <ele>4</ele>
        <time>2026-08-05T13:48:52Z</time>
      </trkpt>
      <trkpt lat="43.31475" lon="-1.99107">
        <ele>3.8</ele>
        <time>2026-08-05T13:48:53Z</time>
      </trkpt>
      <trkpt lat="43.31474" lon="-1.99111">
        <ele>3.8</ele>
        <time>2026-08-05T13:48:54Z</time>
      </trkpt>
      <trkpt lat="43.31473" lon="-1.99116">
        <ele>3.8</ele>
        <time>2026-08-05T13:48:55Z</time>
      </trkpt>
      <trkpt lat="43.31473" lon="-1.9912">
        <ele>3.8</ele>
        <time>2026-08-05T13:48:56Z</time>
      </trkpt>
      <trkpt lat="43.31472" lon="-1.99125">
        <ele>3.8</ele>
        <time>2026-08-05T13:48:57Z</time>
      </trkpt>
      <trkpt lat="43.31471" lon="-1.9913">
        <ele>3.8</ele>
        <time>2026-08-05T13:48:58Z</time>
      </trkpt>
      <trkpt lat="43.3147" lon="-1.99134">
        <ele>4.4</ele>
        <time>2026-08-05T13:48:59Z</time>
      </trkpt>
      <trkpt lat="43.31469" lon="-1.99139">
        <ele>4.6</ele>
        <time>2026-08-05T13:49:00Z</time>
      </trkpt>
      <trkpt lat="43.31468" lon="-1.99143">
        <ele>4.6</ele>
        <time>2026-08-05T13:49:01Z</time>
      </trkpt>
      <trkpt lat="43.31467" lon="-1.99148">
        <ele>4.6</ele>
        <time>2026-08-05T13:49:02Z</time>
      </trkpt>
      <trkpt lat="43.31467" lon="-1.99152">
        <ele>4.4</ele>
        <time>2026-08-05T13:49:03Z</time>
      </trkpt>
      <trkpt lat="43.31466" lon="-1.99157">
        <ele>4.4</ele>
        <time>2026-08-05T13:49:04Z</time>
      </trkpt>
      <trkpt lat="43.31465" lon="-1.99161">
        <ele>4.4</ele>
        <time>2026-08-05T13:49:05Z</time>
      </trkpt>
      <trkpt lat="43.31464" lon="-1.99165">
        <ele>4.6</ele>
        <time>2026-08-05T13:49:06Z</time>
      </trkpt>
      <trkpt lat="43.31463" lon="-1.9917">
        <ele>4.6</ele>
        <time>2026-08-05T13:49:07Z</time>
      </trkpt>
      <trkpt lat="43.31463" lon="-1.99174">
        <ele>4.6</ele>
        <time>2026-08-05T13:49:08Z</time>
      </trkpt>
      <trkpt lat="43.31462" lon="-1.99178">
        <ele>4.6</ele>
        <time>2026-08-05T13:49:09Z</time>
      </trkpt>
      <trkpt lat="43.31462" lon="-1.99183">
        <ele>4.6</ele>
        <time>2026-08-05T13:49:10Z</time>
      </trkpt>
      <trkpt lat="43.31461" lon="-1.99187">
        <ele>5</ele>
        <time>2026-08-05T13:49:11Z</time>
      </trkpt>
      <trkpt lat="43.3146" lon="-1.99191">
        <ele>5</ele>
        <time>2026-08-05T13:49:12Z</time>
      </trkpt>
      <trkpt lat="43.3146" lon="-1.99196">
        <ele>5</ele>
        <time>2026-08-05T13:49:13Z</time>
      </trkpt>
      <trkpt lat="43.31459" lon="-1.99201">
        <ele>5</ele>
        <time>2026-08-05T13:49:14Z</time>
      </trkpt>
      <trkpt lat="43.31458" lon="-1.99205">
        <ele>4.8</ele>
        <time>2026-08-05T13:49:15Z</time>
      </trkpt>
      <trkpt lat="43.31458" lon="-1.99209">
        <ele>4.8</ele>
        <time>2026-08-05T13:49:16Z</time>
      </trkpt>
      <trkpt lat="43.31457" lon="-1.99214">
        <ele>4.8</ele>
        <time>2026-08-05T13:49:17Z</time>
      </trkpt>
      <trkpt lat="43.31457" lon="-1.99218">
        <ele>4.8</ele>
        <time>2026-08-05T13:49:18Z</time>
      </trkpt>
      <trkpt lat="43.31456" lon="-1.99223">
        <ele>4.8</ele>
        <time>2026-08-05T13:49:19Z</time>
      </trkpt>
      <trkpt lat="43.31456" lon="-1.99228">
        <ele>4.8</ele>
        <time>2026-08-05T13:49:20Z</time>
      </trkpt>
      <trkpt lat="43.31455" lon="-1.99232">
        <ele>4.8</ele>
        <time>2026-08-05T13:49:21Z</time>
      </trkpt>
      <trkpt lat="43.31455" lon="-1.99237">
        <ele>4.8</ele>
        <time>2026-08-05T13:49:22Z</time>
      </trkpt>
      <trkpt lat="43.31454" lon="-1.99242">
        <ele>5.2</ele>
        <time>2026-08-05T13:49:23Z</time>
      </trkpt>
      <trkpt lat="43.31454" lon="-1.99246">
        <ele>5.4</ele>
        <time>2026-08-05T13:49:24Z</time>
      </trkpt>
      <trkpt lat="43.31453" lon="-1.99251">
        <ele>5.4</ele>
        <time>2026-08-05T13:49:25Z</time>
      </trkpt>
      <trkpt lat="43.31452" lon="-1.99256">
        <ele>5.4</ele>
        <time>2026-08-05T13:49:26Z</time>
      </trkpt>
      <trkpt lat="43.31452" lon="-1.99261">
        <ele>5.2</ele>
        <time>2026-08-05T13:49:27Z</time>
      </trkpt>
      <trkpt lat="43.31451" lon="-1.99265">
        <ele>5.2</ele>
        <time>2026-08-05T13:49:28Z</time>
      </trkpt>
      <trkpt lat="43.31451" lon="-1.9927">
        <ele>5.2</ele>
        <time>2026-08-05T13:49:29Z</time>
      </trkpt>
      <trkpt lat="43.31451" lon="-1.99275">
        <ele>5.2</ele>
        <time>2026-08-05T13:49:30Z</time>
      </trkpt>
      <trkpt lat="43.31451" lon="-1.9928">
        <ele>5.2</ele>
        <time>2026-08-05T13:49:31Z</time>
      </trkpt>
      <trkpt lat="43.31451" lon="-1.99285">
        <ele>5</ele>
        <time>2026-08-05T13:49:32Z</time>
      </trkpt>
      <trkpt lat="43.3145" lon="-1.99289">
        <ele>5.4</ele>
        <time>2026-08-05T13:49:33Z</time>
      </trkpt>
      <trkpt lat="43.3145" lon="-1.99294">
        <ele>5.6</ele>
        <time>2026-08-05T13:49:34Z</time>
      </trkpt>
      <trkpt lat="43.3145" lon="-1.99299">
        <ele>5.6</ele>
        <time>2026-08-05T13:49:35Z</time>
      </trkpt>
      <trkpt lat="43.3145" lon="-1.99304">
        <ele>5.6</ele>
        <time>2026-08-05T13:49:36Z</time>
      </trkpt>
      <trkpt lat="43.3145" lon="-1.99309">
        <ele>5.6</ele>
        <time>2026-08-05T13:49:37Z</time>
      </trkpt>
      <trkpt lat="43.3145" lon="-1.99314">
        <ele>5.8</ele>
        <time>2026-08-05T13:49:38Z</time>
      </trkpt>
      <trkpt lat="43.3145" lon="-1.99319">
        <ele>5.8</ele>
        <time>2026-08-05T13:49:39Z</time>
      </trkpt>
      <trkpt lat="43.3145" lon="-1.99324">
        <ele>5.8</ele>
        <time>2026-08-05T13:49:40Z</time>
      </trkpt>
      <trkpt lat="43.3145" lon="-1.99329">
        <ele>5.6</ele>
        <time>2026-08-05T13:49:41Z</time>
      </trkpt>
      <trkpt lat="43.3145" lon="-1.99334">
        <ele>5.6</ele>
        <time>2026-08-05T13:49:42Z</time>
      </trkpt>
      <trkpt lat="43.3145" lon="-1.99339">
        <ele>5.6</ele>
        <time>2026-08-05T13:49:43Z</time>
      </trkpt>
      <trkpt lat="43.3145" lon="-1.99344">
        <ele>5.8</ele>
        <time>2026-08-05T13:49:44Z</time>
      </trkpt>
      <trkpt lat="43.3145" lon="-1.99349">
        <ele>5.8</ele>
        <time>2026-08-05T13:49:45Z</time>
      </trkpt>
      <trkpt lat="43.3145" lon="-1.99354">
        <ele>5.8</ele>
        <time>2026-08-05T13:49:46Z</time>
      </trkpt>
      <trkpt lat="43.3145" lon="-1.99359">
        <ele>5.8</ele>
        <time>2026-08-05T13:49:47Z</time>
      </trkpt>
      <trkpt lat="43.3145" lon="-1.99364">
        <ele>5.8</ele>
        <time>2026-08-05T13:49:48Z</time>
      </trkpt>
      <trkpt lat="43.3145" lon="-1.99369">
        <ele>5.8</ele>
        <time>2026-08-05T13:49:49Z</time>
      </trkpt>
      <trkpt lat="43.3145" lon="-1.99374">
        <ele>5.8</ele>
        <time>2026-08-05T13:49:50Z</time>
      </trkpt>
      <trkpt lat="43.3145" lon="-1.99379">
        <ele>5.8</ele>
        <time>2026-08-05T13:49:51Z</time>
      </trkpt>
      <trkpt lat="43.3145" lon="-1.99384">
        <ele>5.8</ele>
        <time>2026-08-05T13:49:52Z</time>
      </trkpt>
      <trkpt lat="43.31449" lon="-1.99389">
        <ele>5.8</ele>
        <time>2026-08-05T13:49:53Z</time>
      </trkpt>
      <trkpt lat="43.31449" lon="-1.99394">
        <ele>5.8</ele>
        <time>2026-08-05T13:49:54Z</time>
      </trkpt>
      <trkpt lat="43.31449" lon="-1.99399">
        <ele>5</ele>
        <time>2026-08-05T13:49:55Z</time>
      </trkpt>
      <trkpt lat="43.31449" lon="-1.99404">
        <ele>5</ele>
        <time>2026-08-05T13:49:56Z</time>
      </trkpt>
      <trkpt lat="43.31449" lon="-1.99409">
        <ele>5</ele>
        <time>2026-08-05T13:49:57Z</time>
      </trkpt>
      <trkpt lat="43.31449" lon="-1.99414">
        <ele>5</ele>
        <time>2026-08-05T13:49:58Z</time>
      </trkpt>
      <trkpt lat="43.31449" lon="-1.99419">
        <ele>5.6</ele>
        <time>2026-08-05T13:49:59Z</time>
      </trkpt>
      <trkpt lat="43.31449" lon="-1.99424">
        <ele>5.6</ele>
        <time>2026-08-05T13:50:00Z</time>
      </trkpt>
      <trkpt lat="43.31448" lon="-1.99429">
        <ele>5.6</ele>
        <time>2026-08-05T13:50:01Z</time>
      </trkpt>
      <trkpt lat="43.31449" lon="-1.99434">
        <ele>5.6</ele>
        <time>2026-08-05T13:50:02Z</time>
      </trkpt>
      <trkpt lat="43.31449" lon="-1.99439">
        <ele>5.6</ele>
        <time>2026-08-05T13:50:03Z</time>
      </trkpt>
      <trkpt lat="43.31449" lon="-1.99443">
        <ele>5.6</ele>
        <time>2026-08-05T13:50:04Z</time>
      </trkpt>
      <trkpt lat="43.31449" lon="-1.99448">
        <ele>5.8</ele>
        <time>2026-08-05T13:50:05Z</time>
      </trkpt>
      <trkpt lat="43.31449" lon="-1.99453">
        <ele>5.8</ele>
        <time>2026-08-05T13:50:06Z</time>
      </trkpt>
      <trkpt lat="43.31449" lon="-1.99458">
        <ele>5.8</ele>
        <time>2026-08-05T13:50:07Z</time>
      </trkpt>
      <trkpt lat="43.31449" lon="-1.99462">
        <ele>5.8</ele>
        <time>2026-08-05T13:50:08Z</time>
      </trkpt>
      <trkpt lat="43.31449" lon="-1.99467">
        <ele>5.8</ele>
        <time>2026-08-05T13:50:09Z</time>
      </trkpt>
      <trkpt lat="43.31448" lon="-1.99472">
        <ele>6</ele>
        <time>2026-08-05T13:50:10Z</time>
      </trkpt>
      <trkpt lat="43.31448" lon="-1.99477">
        <ele>6</ele>
        <time>2026-08-05T13:50:11Z</time>
      </trkpt>
      <trkpt lat="43.31448" lon="-1.99482">
        <ele>6</ele>
        <time>2026-08-05T13:50:12Z</time>
      </trkpt>
      <trkpt lat="43.31448" lon="-1.99487">
        <ele>6</ele>
        <time>2026-08-05T13:50:13Z</time>
      </trkpt>
      <trkpt lat="43.31448" lon="-1.99492">
        <ele>6.2</ele>
        <time>2026-08-05T13:50:14Z</time>
      </trkpt>
      <trkpt lat="43.31448" lon="-1.99497">
        <ele>6.2</ele>
        <time>2026-08-05T13:50:15Z</time>
      </trkpt>
      <trkpt lat="43.31448" lon="-1.99502">
        <ele>6.2</ele>
        <time>2026-08-05T13:50:16Z</time>
      </trkpt>
      <trkpt lat="43.31448" lon="-1.99507">
        <ele>6.2</ele>
        <time>2026-08-05T13:50:17Z</time>
      </trkpt>
      <trkpt lat="43.31448" lon="-1.99512">
        <ele>6.2</ele>
        <time>2026-08-05T13:50:18Z</time>
      </trkpt>
      <trkpt lat="43.31448" lon="-1.99517">
        <ele>6.2</ele>
        <time>2026-08-05T13:50:19Z</time>
      </trkpt>
      <trkpt lat="43.31448" lon="-1.99523">
        <ele>6.2</ele>
        <time>2026-08-05T13:50:20Z</time>
      </trkpt>
      <trkpt lat="43.31448" lon="-1.99528">
        <ele>6.2</ele>
        <time>2026-08-05T13:50:21Z</time>
      </trkpt>
      <trkpt lat="43.31448" lon="-1.99534">
        <ele>6.2</ele>
        <time>2026-08-05T13:50:22Z</time>
      </trkpt>
      <trkpt lat="43.31448" lon="-1.99539">
        <ele>6.2</ele>
        <time>2026-08-05T13:50:23Z</time>
      </trkpt>
      <trkpt lat="43.31448" lon="-1.99545">
        <ele>6.2</ele>
        <time>2026-08-05T13:50:24Z</time>
      </trkpt>
      <trkpt lat="43.31448" lon="-1.99551">
        <ele>6.2</ele>
        <time>2026-08-05T13:50:25Z</time>
      </trkpt>
      <trkpt lat="43.31448" lon="-1.99557">
        <ele>6.2</ele>
        <time>2026-08-05T13:50:26Z</time>
      </trkpt>
      <trkpt lat="43.31448" lon="-1.99563">
        <ele>6.2</ele>
        <time>2026-08-05T13:50:27Z</time>
      </trkpt>
      <trkpt lat="43.31449" lon="-1.99569">
        <ele>6.2</ele>
        <time>2026-08-05T13:50:28Z</time>
      </trkpt>
      <trkpt lat="43.31449" lon="-1.99575">
        <ele>6.2</ele>
        <time>2026-08-05T13:50:29Z</time>
      </trkpt>
      <trkpt lat="43.31449" lon="-1.99581">
        <ele>6.2</ele>
        <time>2026-08-05T13:50:30Z</time>
      </trkpt>
      <trkpt lat="43.3145" lon="-1.99587">
        <ele>6.2</ele>
        <time>2026-08-05T13:50:31Z</time>
      </trkpt>
      <trkpt lat="43.3145" lon="-1.99592">
        <ele>6.2</ele>
        <time>2026-08-05T13:50:32Z</time>
      </trkpt>
      <trkpt lat="43.31451" lon="-1.99598">
        <ele>6.2</ele>
        <time>2026-08-05T13:50:33Z</time>
      </trkpt>
      <trkpt lat="43.31452" lon="-1.99604">
        <ele>6.4</ele>
        <time>2026-08-05T13:50:34Z</time>
      </trkpt>
      <trkpt lat="43.31453" lon="-1.9961">
        <ele>6.6</ele>
        <time>2026-08-05T13:50:35Z</time>
      </trkpt>
      <trkpt lat="43.31454" lon="-1.99615">
        <ele>6.6</ele>
        <time>2026-08-05T13:50:36Z</time>
      </trkpt>
      <trkpt lat="43.31455" lon="-1.99621">
        <ele>6.6</ele>
        <time>2026-08-05T13:50:37Z</time>
      </trkpt>
      <trkpt lat="43.31456" lon="-1.99627">
        <ele>6.6</ele>
        <time>2026-08-05T13:50:38Z</time>
      </trkpt>
      <trkpt lat="43.31458" lon="-1.99633">
        <ele>6.4</ele>
        <time>2026-08-05T13:50:39Z</time>
      </trkpt>
      <trkpt lat="43.31459" lon="-1.99639">
        <ele>6.4</ele>
        <time>2026-08-05T13:50:40Z</time>
      </trkpt>
      <trkpt lat="43.3146" lon="-1.99645">
        <ele>6.4</ele>
        <time>2026-08-05T13:50:41Z</time>
      </trkpt>
      <trkpt lat="43.31461" lon="-1.99651">
        <ele>6.8</ele>
        <time>2026-08-05T13:50:42Z</time>
      </trkpt>
      <trkpt lat="43.31463" lon="-1.99656">
        <ele>6.8</ele>
        <time>2026-08-05T13:50:43Z</time>
      </trkpt>
      <trkpt lat="43.31464" lon="-1.99662">
        <ele>6.8</ele>
        <time>2026-08-05T13:50:44Z</time>
      </trkpt>
      <trkpt lat="43.31465" lon="-1.99668">
        <ele>6.8</ele>
        <time>2026-08-05T13:50:45Z</time>
      </trkpt>
      <trkpt lat="43.31466" lon="-1.99674">
        <ele>6.8</ele>
        <time>2026-08-05T13:50:46Z</time>
      </trkpt>
      <trkpt lat="43.31467" lon="-1.99679">
        <ele>6.8</ele>
        <time>2026-08-05T13:50:47Z</time>
      </trkpt>
      <trkpt lat="43.31468" lon="-1.99685">
        <ele>6.4</ele>
        <time>2026-08-05T13:50:48Z</time>
      </trkpt>
      <trkpt lat="43.31469" lon="-1.99691">
        <ele>6.4</ele>
        <time>2026-08-05T13:50:49Z</time>
      </trkpt>
      <trkpt lat="43.3147" lon="-1.99697">
        <ele>6.4</ele>
        <time>2026-08-05T13:50:50Z</time>
      </trkpt>
      <trkpt lat="43.31472" lon="-1.99704">
        <ele>6.4</ele>
        <time>2026-08-05T13:50:51Z</time>
      </trkpt>
      <trkpt lat="43.31473" lon="-1.9971">
        <ele>6.4</ele>
        <time>2026-08-05T13:50:52Z</time>
      </trkpt>
      <trkpt lat="43.31474" lon="-1.99717">
        <ele>6.2</ele>
        <time>2026-08-05T13:50:53Z</time>
      </trkpt>
      <trkpt lat="43.31476" lon="-1.99723">
        <ele>5.8</ele>
        <time>2026-08-05T13:50:54Z</time>
      </trkpt>
      <trkpt lat="43.31478" lon="-1.9973">
        <ele>5.8</ele>
        <time>2026-08-05T13:50:55Z</time>
      </trkpt>
      <trkpt lat="43.3148" lon="-1.99736">
        <ele>5.8</ele>
        <time>2026-08-05T13:50:56Z</time>
      </trkpt>
      <trkpt lat="43.31481" lon="-1.99742">
        <ele>5.8</ele>
        <time>2026-08-05T13:50:57Z</time>
      </trkpt>
      <trkpt lat="43.31483" lon="-1.99747">
        <ele>5.8</ele>
        <time>2026-08-05T13:50:58Z</time>
      </trkpt>
      <trkpt lat="43.31485" lon="-1.99753">
        <ele>5.6</ele>
        <time>2026-08-05T13:50:59Z</time>
      </trkpt>
      <trkpt lat="43.31487" lon="-1.99758">
        <ele>5.6</ele>
        <time>2026-08-05T13:51:00Z</time>
      </trkpt>
      <trkpt lat="43.31489" lon="-1.99763">
        <ele>5.6</ele>
        <time>2026-08-05T13:51:01Z</time>
      </trkpt>
      <trkpt lat="43.31492" lon="-1.99768">
        <ele>5.6</ele>
        <time>2026-08-05T13:51:02Z</time>
      </trkpt>
      <trkpt lat="43.31494" lon="-1.99772">
        <ele>5.6</ele>
        <time>2026-08-05T13:51:03Z</time>
      </trkpt>
      <trkpt lat="43.31496" lon="-1.99776">
        <ele>5.6</ele>
        <time>2026-08-05T13:51:04Z</time>
      </trkpt>
      <trkpt lat="43.31498" lon="-1.99782">
        <ele>5.8</ele>
        <time>2026-08-05T13:51:05Z</time>
      </trkpt>
      <trkpt lat="43.31499" lon="-1.99787">
        <ele>5.8</ele>
        <time>2026-08-05T13:51:06Z</time>
      </trkpt>
      <trkpt lat="43.31501" lon="-1.99792">
        <ele>5.8</ele>
        <time>2026-08-05T13:51:07Z</time>
      </trkpt>
      <trkpt lat="43.31503" lon="-1.99798">
        <ele>5.8</ele>
        <time>2026-08-05T13:51:08Z</time>
      </trkpt>
      <trkpt lat="43.31506" lon="-1.99803">
        <ele>5.6</ele>
        <time>2026-08-05T13:51:09Z</time>
      </trkpt>
      <trkpt lat="43.31509" lon="-1.99809">
        <ele>5</ele>
        <time>2026-08-05T13:51:10Z</time>
      </trkpt>
      <trkpt lat="43.31511" lon="-1.99815">
        <ele>4.4</ele>
        <time>2026-08-05T13:51:11Z</time>
      </trkpt>
      <trkpt lat="43.31514" lon="-1.99821">
        <ele>4.4</ele>
        <time>2026-08-05T13:51:12Z</time>
      </trkpt>
      <trkpt lat="43.31516" lon="-1.99827">
        <ele>4.4</ele>
        <time>2026-08-05T13:51:13Z</time>
      </trkpt>
      <trkpt lat="43.31518" lon="-1.99834">
        <ele>4.4</ele>
        <time>2026-08-05T13:51:14Z</time>
      </trkpt>
      <trkpt lat="43.3152" lon="-1.99841">
        <ele>4.8</ele>
        <time>2026-08-05T13:51:15Z</time>
      </trkpt>
      <trkpt lat="43.3152" lon="-1.99848">
        <ele>5</ele>
        <time>2026-08-05T13:51:16Z</time>
      </trkpt>
      <trkpt lat="43.31522" lon="-1.99855">
        <ele>6</ele>
        <time>2026-08-05T13:51:17Z</time>
      </trkpt>
      <trkpt lat="43.31522" lon="-1.99864">
        <ele>6</ele>
        <time>2026-08-05T13:51:18Z</time>
      </trkpt>
      <trkpt lat="43.31523" lon="-1.99872">
        <ele>6</ele>
        <time>2026-08-05T13:51:19Z</time>
      </trkpt>
      <trkpt lat="43.31525" lon="-1.99879">
        <ele>6</ele>
        <time>2026-08-05T13:51:20Z</time>
      </trkpt>
      <trkpt lat="43.31528" lon="-1.99884">
        <ele>4.2</ele>
        <time>2026-08-05T13:51:21Z</time>
      </trkpt>
      <trkpt lat="43.3153" lon="-1.99889">
        <ele>4.2</ele>
        <time>2026-08-05T13:51:22Z</time>
      </trkpt>
      <trkpt lat="43.31535" lon="-1.99893">
        <ele>4.2</ele>
        <time>2026-08-05T13:51:23Z</time>
      </trkpt>
      <trkpt lat="43.31539" lon="-1.99899">
        <ele>4.2</ele>
        <time>2026-08-05T13:51:24Z</time>
      </trkpt>
      <trkpt lat="43.31542" lon="-1.99905">
        <ele>3.2</ele>
        <time>2026-08-05T13:51:25Z</time>
      </trkpt>
      <trkpt lat="43.31545" lon="-1.9991">
        <ele>3.2</ele>
        <time>2026-08-05T13:51:26Z</time>
      </trkpt>
      <trkpt lat="43.31549" lon="-1.99914">
        <ele>3.2</ele>
        <time>2026-08-05T13:51:27Z</time>
      </trkpt>
      <trkpt lat="43.31552" lon="-1.99918">
        <ele>3.8</ele>
        <time>2026-08-05T13:51:28Z</time>
      </trkpt>
      <trkpt lat="43.31554" lon="-1.99921">
        <ele>4.4</ele>
        <time>2026-08-05T13:51:29Z</time>
      </trkpt>
      <trkpt lat="43.31555" lon="-1.99924">
        <ele>4.4</ele>
        <time>2026-08-05T13:51:30Z</time>
      </trkpt>
      <trkpt lat="43.31556" lon="-1.99927">
        <ele>4.4</ele>
        <time>2026-08-05T13:51:31Z</time>
      </trkpt>
      <trkpt lat="43.31557" lon="-1.99929">
        <ele>4.4</ele>
        <time>2026-08-05T13:51:32Z</time>
      </trkpt>
      <trkpt lat="43.31558" lon="-1.99931">
        <ele>4.4</ele>
        <time>2026-08-05T13:51:33Z</time>
      </trkpt>
      <trkpt lat="43.31559" lon="-1.99933">
        <ele>4.6</ele>
        <time>2026-08-05T13:51:34Z</time>
      </trkpt>
      <trkpt lat="43.3156" lon="-1.99935">
        <ele>4.8</ele>
        <time>2026-08-05T13:51:35Z</time>
      </trkpt>
      <trkpt lat="43.3156" lon="-1.99938">
        <ele>4.8</ele>
        <time>2026-08-05T13:51:36Z</time>
      </trkpt>
      <trkpt lat="43.31561" lon="-1.99941">
        <ele>4.8</ele>
        <time>2026-08-05T13:51:37Z</time>
      </trkpt>
      <trkpt lat="43.31561" lon="-1.99944">
        <ele>4.8</ele>
        <time>2026-08-05T13:51:38Z</time>
      </trkpt>
      <trkpt lat="43.31561" lon="-1.99948">
        <ele>4.8</ele>
        <time>2026-08-05T13:51:39Z</time>
      </trkpt>
      <trkpt lat="43.31562" lon="-1.99952">
        <ele>4.8</ele>
        <time>2026-08-05T13:51:40Z</time>
      </trkpt>
      <trkpt lat="43.31562" lon="-1.99956">
        <ele>4.8</ele>
        <time>2026-08-05T13:51:41Z</time>
      </trkpt>
      <trkpt lat="43.31562" lon="-1.9996">
        <ele>4.4</ele>
        <time>2026-08-05T13:51:42Z</time>
      </trkpt>
      <trkpt lat="43.31562" lon="-1.99965">
        <ele>4</ele>
        <time>2026-08-05T13:51:43Z</time>
      </trkpt>
      <trkpt lat="43.31563" lon="-1.9997">
        <ele>4</ele>
        <time>2026-08-05T13:51:44Z</time>
      </trkpt>
      <trkpt lat="43.31564" lon="-1.99976">
        <ele>4</ele>
        <time>2026-08-05T13:51:45Z</time>
      </trkpt>
      <trkpt lat="43.31565" lon="-1.99982">
        <ele>4</ele>
        <time>2026-08-05T13:51:46Z</time>
      </trkpt>
      <trkpt lat="43.31566" lon="-1.99988">
        <ele>3</ele>
        <time>2026-08-05T13:51:47Z</time>
      </trkpt>
      <trkpt lat="43.31566" lon="-1.99994">
        <ele>2.8</ele>
        <time>2026-08-05T13:51:48Z</time>
      </trkpt>
      <trkpt lat="43.31567" lon="-1.99999">
        <ele>2.8</ele>
        <time>2026-08-05T13:51:49Z</time>
      </trkpt>
      <trkpt lat="43.31568" lon="-2.00004">
        <ele>2.8</ele>
        <time>2026-08-05T13:51:50Z</time>
      </trkpt>
      <trkpt lat="43.31568" lon="-2.00008">
        <ele>2.8</ele>
        <time>2026-08-05T13:51:51Z</time>
      </trkpt>
      <trkpt lat="43.31569" lon="-2.00012">
        <ele>2.8</ele>
        <time>2026-08-05T13:51:52Z</time>
      </trkpt>
      <trkpt lat="43.3157" lon="-2.00016">
        <ele>2.4</ele>
        <time>2026-08-05T13:51:53Z</time>
      </trkpt>
      <trkpt lat="43.3157" lon="-2.0002">
        <ele>2.4</ele>
        <time>2026-08-05T13:51:54Z</time>
      </trkpt>
      <trkpt lat="43.31571" lon="-2.00024">
        <ele>2.4</ele>
        <time>2026-08-05T13:51:55Z</time>
      </trkpt>
      <trkpt lat="43.31571" lon="-2.00029">
        <ele>2.2</ele>
        <time>2026-08-05T13:51:56Z</time>
      </trkpt>
      <trkpt lat="43.3157" lon="-2.00034">
        <ele>2.2</ele>
        <time>2026-08-05T13:51:57Z</time>
      </trkpt>
      <trkpt lat="43.3157" lon="-2.0004">
        <ele>2.2</ele>
        <time>2026-08-05T13:51:58Z</time>
      </trkpt>
      <trkpt lat="43.31569" lon="-2.00045">
        <ele>2.2</ele>
        <time>2026-08-05T13:51:59Z</time>
      </trkpt>
      <trkpt lat="43.31568" lon="-2.00051">
        <ele>1.6</ele>
        <time>2026-08-05T13:52:00Z</time>
      </trkpt>
      <trkpt lat="43.31567" lon="-2.00056">
        <ele>1.4</ele>
        <time>2026-08-05T13:52:01Z</time>
      </trkpt>
      <trkpt lat="43.31566" lon="-2.00061">
        <ele>1.2</ele>
        <time>2026-08-05T13:52:02Z</time>
      </trkpt>
      <trkpt lat="43.31565" lon="-2.00066">
        <ele>1.2</ele>
        <time>2026-08-05T13:52:03Z</time>
      </trkpt>
      <trkpt lat="43.31565" lon="-2.0007">
        <ele>1.2</ele>
        <time>2026-08-05T13:52:04Z</time>
      </trkpt>
      <trkpt lat="43.31564" lon="-2.00073">
        <ele>1.2</ele>
        <time>2026-08-05T13:52:05Z</time>
      </trkpt>
      <trkpt lat="43.31563" lon="-2.00076">
        <ele>1.2</ele>
        <time>2026-08-05T13:52:06Z</time>
      </trkpt>
      <trkpt lat="43.31562" lon="-2.00079">
        <ele>0.8</ele>
        <time>2026-08-05T13:52:07Z</time>
      </trkpt>
      <trkpt lat="43.31561" lon="-2.00081">
        <ele>0.8</ele>
        <time>2026-08-05T13:52:08Z</time>
      </trkpt>
      <trkpt lat="43.3156" lon="-2.00082">
        <ele>0.8</ele>
        <time>2026-08-05T13:52:09Z</time>
      </trkpt>
      <trkpt lat="43.31559" lon="-2.00082">
        <ele>1.2</ele>
        <time>2026-08-05T13:52:10Z</time>
      </trkpt>
      <trkpt lat="43.31558" lon="-2.00081">
        <ele>1</ele>
        <time>2026-08-05T13:52:11Z</time>
      </trkpt>
      <trkpt lat="43.31558" lon="-2.00081">
        <ele>1</ele>
        <time>2026-08-05T13:52:12Z</time>
      </trkpt>
      <trkpt lat="43.31554" lon="-2.00081">
        <ele>1</ele>
        <time>2026-08-05T13:52:36Z</time>
      </trkpt>
      <trkpt lat="43.31552" lon="-2.00081">
        <ele>1</ele>
        <time>2026-08-05T13:52:37Z</time>
      </trkpt>
      <trkpt lat="43.31549" lon="-2.00082">
        <ele>1.4</ele>
        <time>2026-08-05T13:52:38Z</time>
      </trkpt>
      <trkpt lat="43.31548" lon="-2.00083">
        <ele>1.4</ele>
        <time>2026-08-05T13:52:39Z</time>
      </trkpt>
      <trkpt lat="43.31546" lon="-2.00083">
        <ele>1.4</ele>
        <time>2026-08-05T13:52:40Z</time>
      </trkpt>
      <trkpt lat="43.31544" lon="-2.00084">
        <ele>1.4</ele>
        <time>2026-08-05T13:52:41Z</time>
      </trkpt>
      <trkpt lat="43.31543" lon="-2.00084">
        <ele>1.4</ele>
        <time>2026-08-05T13:52:42Z</time>
      </trkpt>
      <trkpt lat="43.31541" lon="-2.00085">
        <ele>1.4</ele>
        <time>2026-08-05T13:52:43Z</time>
      </trkpt>
      <trkpt lat="43.3154" lon="-2.00085">
        <ele>1.4</ele>
        <time>2026-08-05T13:52:44Z</time>
      </trkpt>
      <trkpt lat="43.31538" lon="-2.00085">
        <ele>1.4</ele>
        <time>2026-08-05T13:52:45Z</time>
      </trkpt>
      <trkpt lat="43.31536" lon="-2.00084">
        <ele>1.4</ele>
        <time>2026-08-05T13:52:46Z</time>
      </trkpt>
      <trkpt lat="43.31533" lon="-2.00083">
        <ele>1.6</ele>
        <time>2026-08-05T13:52:47Z</time>
      </trkpt>
      <trkpt lat="43.31531" lon="-2.00082">
        <ele>1.6</ele>
        <time>2026-08-05T13:52:48Z</time>
      </trkpt>
      <trkpt lat="43.31529" lon="-2.00081">
        <ele>1.6</ele>
        <time>2026-08-05T13:52:49Z</time>
      </trkpt>
      <trkpt lat="43.31527" lon="-2.0008">
        <ele>1.6</ele>
        <time>2026-08-05T13:52:50Z</time>
      </trkpt>
      <trkpt lat="43.31525" lon="-2.00078">
        <ele>1.8</ele>
        <time>2026-08-05T13:52:51Z</time>
      </trkpt>
      <trkpt lat="43.31523" lon="-2.00076">
        <ele>2</ele>
        <time>2026-08-05T13:52:52Z</time>
      </trkpt>
      <trkpt lat="43.31521" lon="-2.00075">
        <ele>2</ele>
        <time>2026-08-05T13:52:53Z</time>
      </trkpt>
      <trkpt lat="43.31519" lon="-2.00073">
        <ele>2.2</ele>
        <time>2026-08-05T13:52:54Z</time>
      </trkpt>
      <trkpt lat="43.31517" lon="-2.00072">
        <ele>2.2</ele>
        <time>2026-08-05T13:52:55Z</time>
      </trkpt>
      <trkpt lat="43.31515" lon="-2.0007">
        <ele>2.2</ele>
        <time>2026-08-05T13:52:56Z</time>
      </trkpt>
      <trkpt lat="43.31512" lon="-2.00069">
        <ele>2.2</ele>
        <time>2026-08-05T13:52:57Z</time>
      </trkpt>
      <trkpt lat="43.3151" lon="-2.00067">
        <ele>2.2</ele>
        <time>2026-08-05T13:52:58Z</time>
      </trkpt>
      <trkpt lat="43.31508" lon="-2.00066">
        <ele>2.2</ele>
        <time>2026-08-05T13:52:59Z</time>
      </trkpt>
      <trkpt lat="43.31506" lon="-2.00065">
        <ele>2.6</ele>
        <time>2026-08-05T13:53:00Z</time>
      </trkpt>
      <trkpt lat="43.31504" lon="-2.00064">
        <ele>3</ele>
        <time>2026-08-05T13:53:01Z</time>
      </trkpt>
      <trkpt lat="43.31502" lon="-2.00062">
        <ele>3.2</ele>
        <time>2026-08-05T13:53:02Z</time>
      </trkpt>
      <trkpt lat="43.315" lon="-2.00061">
        <ele>3.2</ele>
        <time>2026-08-05T13:53:03Z</time>
      </trkpt>
      <trkpt lat="43.31499" lon="-2.0006">
        <ele>3.2</ele>
        <time>2026-08-05T13:53:04Z</time>
      </trkpt>
      <trkpt lat="43.31498" lon="-2.00059">
        <ele>3.2</ele>
        <time>2026-08-05T13:53:05Z</time>
      </trkpt>
      <trkpt lat="43.31497" lon="-2.00058">
        <ele>3</ele>
        <time>2026-08-05T13:53:06Z</time>
      </trkpt>
      <trkpt lat="43.31497" lon="-2.00058">
        <ele>3</ele>
        <time>2026-08-05T13:53:07Z</time>
      </trkpt>
      <trkpt lat="43.31497" lon="-2.00058">
        <ele>3.2</ele>
        <time>2026-08-05T13:53:08Z</time>
      </trkpt>
      <trkpt lat="43.31489" lon="-2.00054">
        <ele>3.2</ele>
        <time>2026-08-05T13:53:34Z</time>
      </trkpt>
      <trkpt lat="43.31487" lon="-2.00053">
        <ele>3.6</ele>
        <time>2026-08-05T13:53:35Z</time>
      </trkpt>
      <trkpt lat="43.31485" lon="-2.00054">
        <ele>3.6</ele>
        <time>2026-08-05T13:53:36Z</time>
      </trkpt>
      <trkpt lat="43.31483" lon="-2.00054">
        <ele>3.6</ele>
        <time>2026-08-05T13:53:37Z</time>
      </trkpt>
      <trkpt lat="43.31481" lon="-2.00056">
        <ele>3.6</ele>
        <time>2026-08-05T13:53:38Z</time>
      </trkpt>
      <trkpt lat="43.31479" lon="-2.00058">
        <ele>3.2</ele>
        <time>2026-08-05T13:53:39Z</time>
      </trkpt>
      <trkpt lat="43.31478" lon="-2.00061">
        <ele>3.2</ele>
        <time>2026-08-05T13:53:40Z</time>
      </trkpt>
      <trkpt lat="43.31476" lon="-2.00064">
        <ele>3.2</ele>
        <time>2026-08-05T13:53:41Z</time>
      </trkpt>
      <trkpt lat="43.31475" lon="-2.00068">
        <ele>3.2</ele>
        <time>2026-08-05T13:53:42Z</time>
      </trkpt>
      <trkpt lat="43.31473" lon="-2.00071">
        <ele>3.2</ele>
        <time>2026-08-05T13:53:43Z</time>
      </trkpt>
      <trkpt lat="43.31471" lon="-2.00075">
        <ele>2.6</ele>
        <time>2026-08-05T13:53:44Z</time>
      </trkpt>
      <trkpt lat="43.3147" lon="-2.00079">
        <ele>2.6</ele>
        <time>2026-08-05T13:53:45Z</time>
      </trkpt>
      <trkpt lat="43.31468" lon="-2.00082">
        <ele>2.4</ele>
        <time>2026-08-05T13:53:46Z</time>
      </trkpt>
      <trkpt lat="43.31466" lon="-2.00086">
        <ele>2.4</ele>
        <time>2026-08-05T13:53:47Z</time>
      </trkpt>
      <trkpt lat="43.31464" lon="-2.0009">
        <ele>2.4</ele>
        <time>2026-08-05T13:53:48Z</time>
      </trkpt>
      <trkpt lat="43.31461" lon="-2.00094">
        <ele>2.4</ele>
        <time>2026-08-05T13:53:49Z</time>
      </trkpt>
      <trkpt lat="43.3146" lon="-2.00098">
        <ele>2.4</ele>
        <time>2026-08-05T13:53:50Z</time>
      </trkpt>
      <trkpt lat="43.31458" lon="-2.00103">
        <ele>2.4</ele>
        <time>2026-08-05T13:53:51Z</time>
      </trkpt>
      <trkpt lat="43.31456" lon="-2.00107">
        <ele>2.8</ele>
        <time>2026-08-05T13:53:52Z</time>
      </trkpt>
      <trkpt lat="43.31455" lon="-2.00111">
        <ele>2.8</ele>
        <time>2026-08-05T13:53:53Z</time>
      </trkpt>
      <trkpt lat="43.31453" lon="-2.00116">
        <ele>2.8</ele>
        <time>2026-08-05T13:53:54Z</time>
      </trkpt>
      <trkpt lat="43.3145" lon="-2.0012">
        <ele>2.8</ele>
        <time>2026-08-05T13:53:55Z</time>
      </trkpt>
      <trkpt lat="43.31448" lon="-2.00125">
        <ele>2.6</ele>
        <time>2026-08-05T13:53:56Z</time>
      </trkpt>
      <trkpt lat="43.31446" lon="-2.00129">
        <ele>2.4</ele>
        <time>2026-08-05T13:53:57Z</time>
      </trkpt>
      <trkpt lat="43.31444" lon="-2.00133">
        <ele>2.4</ele>
        <time>2026-08-05T13:53:58Z</time>
      </trkpt>
      <trkpt lat="43.31442" lon="-2.00138">
        <ele>2.4</ele>
        <time>2026-08-05T13:53:59Z</time>
      </trkpt>
      <trkpt lat="43.31439" lon="-2.00143">
        <ele>2.4</ele>
        <time>2026-08-05T13:54:00Z</time>
      </trkpt>
      <trkpt lat="43.31438" lon="-2.00148">
        <ele>2.4</ele>
        <time>2026-08-05T13:54:01Z</time>
      </trkpt>
      <trkpt lat="43.31435" lon="-2.00152">
        <ele>2.4</ele>
        <time>2026-08-05T13:54:02Z</time>
      </trkpt>
      <trkpt lat="43.31434" lon="-2.00158">
        <ele>2.4</ele>
        <time>2026-08-05T13:54:03Z</time>
      </trkpt>
      <trkpt lat="43.31433" lon="-2.00163">
        <ele>2.4</ele>
        <time>2026-08-05T13:54:04Z</time>
      </trkpt>
      <trkpt lat="43.31431" lon="-2.00168">
        <ele>2</ele>
        <time>2026-08-05T13:54:05Z</time>
      </trkpt>
      <trkpt lat="43.31429" lon="-2.00173">
        <ele>2</ele>
        <time>2026-08-05T13:54:06Z</time>
      </trkpt>
      <trkpt lat="43.31426" lon="-2.00177">
        <ele>2.8</ele>
        <time>2026-08-05T13:54:07Z</time>
      </trkpt>
      <trkpt lat="43.31424" lon="-2.00182">
        <ele>2.8</ele>
        <time>2026-08-05T13:54:08Z</time>
      </trkpt>
      <trkpt lat="43.31422" lon="-2.00186">
        <ele>2.8</ele>
        <time>2026-08-05T13:54:09Z</time>
      </trkpt>
      <trkpt lat="43.31418" lon="-2.0019">
        <ele>2.4</ele>
        <time>2026-08-05T13:54:10Z</time>
      </trkpt>
      <trkpt lat="43.31414" lon="-2.00192">
        <ele>2.4</ele>
        <time>2026-08-05T13:54:11Z</time>
      </trkpt>
      <trkpt lat="43.31412" lon="-2.00196">
        <ele>2.4</ele>
        <time>2026-08-05T13:54:12Z</time>
      </trkpt>
      <trkpt lat="43.3141" lon="-2.002">
        <ele>2.4</ele>
        <time>2026-08-05T13:54:13Z</time>
      </trkpt>
      <trkpt lat="43.31409" lon="-2.00204">
        <ele>2.4</ele>
        <time>2026-08-05T13:54:14Z</time>
      </trkpt>
      <trkpt lat="43.31408" lon="-2.00208">
        <ele>2.4</ele>
        <time>2026-08-05T13:54:15Z</time>
      </trkpt>
      <trkpt lat="43.31407" lon="-2.00211">
        <ele>2.4</ele>
        <time>2026-08-05T13:54:16Z</time>
      </trkpt>
      <trkpt lat="43.31405" lon="-2.00215">
        <ele>2.4</ele>
        <time>2026-08-05T13:54:17Z</time>
      </trkpt>
      <trkpt lat="43.31403" lon="-2.00219">
        <ele>3.4</ele>
        <time>2026-08-05T13:54:18Z</time>
      </trkpt>
      <trkpt lat="43.314" lon="-2.00224">
        <ele>3.6</ele>
        <time>2026-08-05T13:54:19Z</time>
      </trkpt>
      <trkpt lat="43.31397" lon="-2.00228">
        <ele>3.6</ele>
        <time>2026-08-05T13:54:20Z</time>
      </trkpt>
      <trkpt lat="43.31394" lon="-2.00233">
        <ele>3.6</ele>
        <time>2026-08-05T13:54:21Z</time>
      </trkpt>
      <trkpt lat="43.31391" lon="-2.00237">
        <ele>3</ele>
        <time>2026-08-05T13:54:22Z</time>
      </trkpt>
      <trkpt lat="43.31388" lon="-2.0024">
        <ele>2.8</ele>
        <time>2026-08-05T13:54:23Z</time>
      </trkpt>
      <trkpt lat="43.31385" lon="-2.00244">
        <ele>2.8</ele>
        <time>2026-08-05T13:54:24Z</time>
      </trkpt>
      <trkpt lat="43.31382" lon="-2.00248">
        <ele>2.8</ele>
        <time>2026-08-05T13:54:25Z</time>
      </trkpt>
      <trkpt lat="43.3138" lon="-2.00252">
        <ele>3.2</ele>
        <time>2026-08-05T13:54:26Z</time>
      </trkpt>
      <trkpt lat="43.31378" lon="-2.00256">
        <ele>3.2</ele>
        <time>2026-08-05T13:54:27Z</time>
      </trkpt>
      <trkpt lat="43.31375" lon="-2.0026">
        <ele>3.2</ele>
        <time>2026-08-05T13:54:28Z</time>
      </trkpt>
      <trkpt lat="43.31373" lon="-2.00264">
        <ele>3.4</ele>
        <time>2026-08-05T13:54:29Z</time>
      </trkpt>
      <trkpt lat="43.31369" lon="-2.00269">
        <ele>3.4</ele>
        <time>2026-08-05T13:54:30Z</time>
      </trkpt>
      <trkpt lat="43.31366" lon="-2.00273">
        <ele>3.4</ele>
        <time>2026-08-05T13:54:31Z</time>
      </trkpt>
      <trkpt lat="43.31363" lon="-2.00278">
        <ele>3.4</ele>
        <time>2026-08-05T13:54:32Z</time>
      </trkpt>
      <trkpt lat="43.3136" lon="-2.00282">
        <ele>3.4</ele>
        <time>2026-08-05T13:54:33Z</time>
      </trkpt>
      <trkpt lat="43.31356" lon="-2.00286">
        <ele>3.4</ele>
        <time>2026-08-05T13:54:34Z</time>
      </trkpt>
      <trkpt lat="43.31352" lon="-2.0029">
        <ele>3.6</ele>
        <time>2026-08-05T13:54:35Z</time>
      </trkpt>
      <trkpt lat="43.31349" lon="-2.00293">
        <ele>3.6</ele>
        <time>2026-08-05T13:54:36Z</time>
      </trkpt>
      <trkpt lat="43.31345" lon="-2.00296">
        <ele>3.6</ele>
        <time>2026-08-05T13:54:37Z</time>
      </trkpt>
      <trkpt lat="43.31341" lon="-2.00299">
        <ele>3.4</ele>
        <time>2026-08-05T13:54:38Z</time>
      </trkpt>
      <trkpt lat="43.31339" lon="-2.00304">
        <ele>3.4</ele>
        <time>2026-08-05T13:54:39Z</time>
      </trkpt>
      <trkpt lat="43.31336" lon="-2.00309">
        <ele>3.4</ele>
        <time>2026-08-05T13:54:40Z</time>
      </trkpt>
      <trkpt lat="43.31333" lon="-2.00313">
        <ele>3.4</ele>
        <time>2026-08-05T13:54:41Z</time>
      </trkpt>
      <trkpt lat="43.3133" lon="-2.00317">
        <ele>3.4</ele>
        <time>2026-08-05T13:54:42Z</time>
      </trkpt>
      <trkpt lat="43.31327" lon="-2.00321">
        <ele>3.4</ele>
        <time>2026-08-05T13:54:43Z</time>
      </trkpt>
      <trkpt lat="43.31324" lon="-2.00326">
        <ele>3.4</ele>
        <time>2026-08-05T13:54:44Z</time>
      </trkpt>
      <trkpt lat="43.31321" lon="-2.0033">
        <ele>3.6</ele>
        <time>2026-08-05T13:54:45Z</time>
      </trkpt>
      <trkpt lat="43.31318" lon="-2.00335">
        <ele>4</ele>
        <time>2026-08-05T13:54:46Z</time>
      </trkpt>
      <trkpt lat="43.31315" lon="-2.00339">
        <ele>4</ele>
        <time>2026-08-05T13:54:47Z</time>
      </trkpt>
      <trkpt lat="43.31312" lon="-2.00344">
        <ele>4</ele>
        <time>2026-08-05T13:54:48Z</time>
      </trkpt>
      <trkpt lat="43.31309" lon="-2.00348">
        <ele>4</ele>
        <time>2026-08-05T13:54:49Z</time>
      </trkpt>
      <trkpt lat="43.31306" lon="-2.00352">
        <ele>3.8</ele>
        <time>2026-08-05T13:54:50Z</time>
      </trkpt>
      <trkpt lat="43.31303" lon="-2.00357">
        <ele>3.8</ele>
        <time>2026-08-05T13:54:51Z</time>
      </trkpt>
      <trkpt lat="43.31299" lon="-2.00361">
        <ele>4.2</ele>
        <time>2026-08-05T13:54:52Z</time>
      </trkpt>
      <trkpt lat="43.31296" lon="-2.00365">
        <ele>4.2</ele>
        <time>2026-08-05T13:54:53Z</time>
      </trkpt>
      <trkpt lat="43.31292" lon="-2.00369">
        <ele>4.2</ele>
        <time>2026-08-05T13:54:54Z</time>
      </trkpt>
      <trkpt lat="43.3129" lon="-2.00373">
        <ele>4.2</ele>
        <time>2026-08-05T13:54:55Z</time>
      </trkpt>
      <trkpt lat="43.31288" lon="-2.00377">
        <ele>4.2</ele>
        <time>2026-08-05T13:54:56Z</time>
      </trkpt>
      <trkpt lat="43.31285" lon="-2.00382">
        <ele>4.2</ele>
        <time>2026-08-05T13:54:57Z</time>
      </trkpt>
      <trkpt lat="43.31283" lon="-2.00386">
        <ele>4.2</ele>
        <time>2026-08-05T13:54:58Z</time>
      </trkpt>
      <trkpt lat="43.3128" lon="-2.0039">
        <ele>4.2</ele>
        <time>2026-08-05T13:54:59Z</time>
      </trkpt>
      <trkpt lat="43.31277" lon="-2.00395">
        <ele>4.2</ele>
        <time>2026-08-05T13:55:00Z</time>
      </trkpt>
      <trkpt lat="43.31275" lon="-2.00399">
        <ele>4.2</ele>
        <time>2026-08-05T13:55:01Z</time>
      </trkpt>
      <trkpt lat="43.31273" lon="-2.00404">
        <ele>4.2</ele>
        <time>2026-08-05T13:55:02Z</time>
      </trkpt>
      <trkpt lat="43.3127" lon="-2.00408">
        <ele>4.2</ele>
        <time>2026-08-05T13:55:03Z</time>
      </trkpt>
      <trkpt lat="43.31267" lon="-2.00412">
        <ele>4.2</ele>
        <time>2026-08-05T13:55:04Z</time>
      </trkpt>
      <trkpt lat="43.31264" lon="-2.00415">
        <ele>4.2</ele>
        <time>2026-08-05T13:55:05Z</time>
      </trkpt>
      <trkpt lat="43.31262" lon="-2.0042">
        <ele>4.2</ele>
        <time>2026-08-05T13:55:06Z</time>
      </trkpt>
      <trkpt lat="43.31259" lon="-2.00424">
        <ele>4.2</ele>
        <time>2026-08-05T13:55:07Z</time>
      </trkpt>
      <trkpt lat="43.31257" lon="-2.00429">
        <ele>5</ele>
        <time>2026-08-05T13:55:08Z</time>
      </trkpt>
      <trkpt lat="43.31255" lon="-2.00433">
        <ele>5</ele>
        <time>2026-08-05T13:55:09Z</time>
      </trkpt>
      <trkpt lat="43.31252" lon="-2.00436">
        <ele>5</ele>
        <time>2026-08-05T13:55:10Z</time>
      </trkpt>
      <trkpt lat="43.31249" lon="-2.0044">
        <ele>4.4</ele>
        <time>2026-08-05T13:55:11Z</time>
      </trkpt>
      <trkpt lat="43.31247" lon="-2.00445">
        <ele>4.4</ele>
        <time>2026-08-05T13:55:12Z</time>
      </trkpt>
      <trkpt lat="43.31246" lon="-2.0045">
        <ele>4.4</ele>
        <time>2026-08-05T13:55:13Z</time>
      </trkpt>
      <trkpt lat="43.31245" lon="-2.00455">
        <ele>5</ele>
        <time>2026-08-05T13:55:14Z</time>
      </trkpt>
      <trkpt lat="43.31242" lon="-2.00459">
        <ele>5</ele>
        <time>2026-08-05T13:55:15Z</time>
      </trkpt>
      <trkpt lat="43.31239" lon="-2.00463">
        <ele>5</ele>
        <time>2026-08-05T13:55:16Z</time>
      </trkpt>
      <trkpt lat="43.31237" lon="-2.00468">
        <ele>5</ele>
        <time>2026-08-05T13:55:17Z</time>
      </trkpt>
      <trkpt lat="43.31234" lon="-2.00471">
        <ele>5.4</ele>
        <time>2026-08-05T13:55:18Z</time>
      </trkpt>
      <trkpt lat="43.31231" lon="-2.00475">
        <ele>5.8</ele>
        <time>2026-08-05T13:55:19Z</time>
      </trkpt>
      <trkpt lat="43.31228" lon="-2.00479">
        <ele>5.8</ele>
        <time>2026-08-05T13:55:20Z</time>
      </trkpt>
      <trkpt lat="43.31225" lon="-2.00483">
        <ele>5.8</ele>
        <time>2026-08-05T13:55:21Z</time>
      </trkpt>
      <trkpt lat="43.31222" lon="-2.00487">
        <ele>5.4</ele>
        <time>2026-08-05T13:55:22Z</time>
      </trkpt>
      <trkpt lat="43.31219" lon="-2.0049">
        <ele>5.4</ele>
        <time>2026-08-05T13:55:23Z</time>
      </trkpt>
      <trkpt lat="43.31215" lon="-2.00494">
        <ele>5</ele>
        <time>2026-08-05T13:55:24Z</time>
      </trkpt>
      <trkpt lat="43.31212" lon="-2.00498">
        <ele>4.6</ele>
        <time>2026-08-05T13:55:25Z</time>
      </trkpt>
      <trkpt lat="43.31209" lon="-2.00502">
        <ele>4.4</ele>
        <time>2026-08-05T13:55:26Z</time>
      </trkpt>
      <trkpt lat="43.31206" lon="-2.00506">
        <ele>4</ele>
        <time>2026-08-05T13:55:27Z</time>
      </trkpt>
      <trkpt lat="43.31202" lon="-2.0051">
        <ele>3.8</ele>
        <time>2026-08-05T13:55:28Z</time>
      </trkpt>
      <trkpt lat="43.31199" lon="-2.00514">
        <ele>3.4</ele>
        <time>2026-08-05T13:55:29Z</time>
      </trkpt>
      <trkpt lat="43.31195" lon="-2.00518">
        <ele>3.4</ele>
        <time>2026-08-05T13:55:30Z</time>
      </trkpt>
      <trkpt lat="43.31192" lon="-2.00522">
        <ele>3</ele>
        <time>2026-08-05T13:55:31Z</time>
      </trkpt>
      <trkpt lat="43.3119" lon="-2.00527">
        <ele>3</ele>
        <time>2026-08-05T13:55:32Z</time>
      </trkpt>
      <trkpt lat="43.31187" lon="-2.00532">
        <ele>3</ele>
        <time>2026-08-05T13:55:33Z</time>
      </trkpt>
      <trkpt lat="43.31185" lon="-2.00537">
        <ele>3</ele>
        <time>2026-08-05T13:55:34Z</time>
      </trkpt>
      <trkpt lat="43.31182" lon="-2.00542">
        <ele>2.6</ele>
        <time>2026-08-05T13:55:35Z</time>
      </trkpt>
      <trkpt lat="43.3118" lon="-2.00547">
        <ele>2.4</ele>
        <time>2026-08-05T13:55:36Z</time>
      </trkpt>
      <trkpt lat="43.31177" lon="-2.00552">
        <ele>2.4</ele>
        <time>2026-08-05T13:55:37Z</time>
      </trkpt>
      <trkpt lat="43.31175" lon="-2.00557">
        <ele>2.4</ele>
        <time>2026-08-05T13:55:38Z</time>
      </trkpt>
      <trkpt lat="43.31172" lon="-2.00563">
        <ele>2.4</ele>
        <time>2026-08-05T13:55:39Z</time>
      </trkpt>
      <trkpt lat="43.31169" lon="-2.00568">
        <ele>2.4</ele>
        <time>2026-08-05T13:55:40Z</time>
      </trkpt>
      <trkpt lat="43.31167" lon="-2.00574">
        <ele>2.6</ele>
        <time>2026-08-05T13:55:41Z</time>
      </trkpt>
      <trkpt lat="43.31164" lon="-2.00579">
        <ele>2.6</ele>
        <time>2026-08-05T13:55:42Z</time>
      </trkpt>
      <trkpt lat="43.31161" lon="-2.00584">
        <ele>2.6</ele>
        <time>2026-08-05T13:55:43Z</time>
      </trkpt>
      <trkpt lat="43.31158" lon="-2.0059">
        <ele>2.6</ele>
        <time>2026-08-05T13:55:44Z</time>
      </trkpt>
      <trkpt lat="43.31155" lon="-2.00596">
        <ele>2.6</ele>
        <time>2026-08-05T13:55:45Z</time>
      </trkpt>
      <trkpt lat="43.31152" lon="-2.00602">
        <ele>2.6</ele>
        <time>2026-08-05T13:55:46Z</time>
      </trkpt>
      <trkpt lat="43.31149" lon="-2.00608">
        <ele>0.6</ele>
        <time>2026-08-05T13:55:47Z</time>
      </trkpt>
      <trkpt lat="43.31146" lon="-2.00613">
        <ele>0.6</ele>
        <time>2026-08-05T13:55:48Z</time>
      </trkpt>
      <trkpt lat="43.31143" lon="-2.00619">
        <ele>0.6</ele>
        <time>2026-08-05T13:55:49Z</time>
      </trkpt>
      <trkpt lat="43.3114" lon="-2.00624">
        <ele>0.6</ele>
        <time>2026-08-05T13:55:50Z</time>
      </trkpt>
      <trkpt lat="43.31137" lon="-2.0063">
        <ele>1.6</ele>
        <time>2026-08-05T13:55:51Z</time>
      </trkpt>
      <trkpt lat="43.31134" lon="-2.00635">
        <ele>1.6</ele>
        <time>2026-08-05T13:55:52Z</time>
      </trkpt>
      <trkpt lat="43.31131" lon="-2.00641">
        <ele>1.6</ele>
        <time>2026-08-05T13:55:53Z</time>
      </trkpt>
      <trkpt lat="43.31128" lon="-2.00646">
        <ele>1.6</ele>
        <time>2026-08-05T13:55:54Z</time>
      </trkpt>
      <trkpt lat="43.31125" lon="-2.00651">
        <ele>2</ele>
        <time>2026-08-05T13:55:55Z</time>
      </trkpt>
      <trkpt lat="43.31122" lon="-2.00656">
        <ele>2</ele>
        <time>2026-08-05T13:55:56Z</time>
      </trkpt>
      <trkpt lat="43.31119" lon="-2.00661">
        <ele>2.4</ele>
        <time>2026-08-05T13:55:57Z</time>
      </trkpt>
      <trkpt lat="43.31116" lon="-2.00666">
        <ele>2.4</ele>
        <time>2026-08-05T13:55:58Z</time>
      </trkpt>
      <trkpt lat="43.31113" lon="-2.00672">
        <ele>2.4</ele>
        <time>2026-08-05T13:55:59Z</time>
      </trkpt>
      <trkpt lat="43.31111" lon="-2.00678">
        <ele>1.4</ele>
        <time>2026-08-05T13:56:00Z</time>
      </trkpt>
      <trkpt lat="43.31108" lon="-2.00683">
        <ele>1.4</ele>
        <time>2026-08-05T13:56:01Z</time>
      </trkpt>
      <trkpt lat="43.31106" lon="-2.00689">
        <ele>1.4</ele>
        <time>2026-08-05T13:56:02Z</time>
      </trkpt>
      <trkpt lat="43.31103" lon="-2.00694">
        <ele>1.6</ele>
        <time>2026-08-05T13:56:03Z</time>
      </trkpt>
      <trkpt lat="43.311" lon="-2.00699">
        <ele>1.6</ele>
        <time>2026-08-05T13:56:04Z</time>
      </trkpt>
      <trkpt lat="43.31097" lon="-2.00704">
        <ele>1.6</ele>
        <time>2026-08-05T13:56:05Z</time>
      </trkpt>
      <trkpt lat="43.31095" lon="-2.0071">
        <ele>1.4</ele>
        <time>2026-08-05T13:56:06Z</time>
      </trkpt>
      <trkpt lat="43.31092" lon="-2.00715">
        <ele>1.8</ele>
        <time>2026-08-05T13:56:07Z</time>
      </trkpt>
      <trkpt lat="43.3109" lon="-2.00721">
        <ele>1.8</ele>
        <time>2026-08-05T13:56:08Z</time>
      </trkpt>
      <trkpt lat="43.31087" lon="-2.00726">
        <ele>1.8</ele>
        <time>2026-08-05T13:56:09Z</time>
      </trkpt>
      <trkpt lat="43.31084" lon="-2.00732">
        <ele>1.8</ele>
        <time>2026-08-05T13:56:10Z</time>
      </trkpt>
      <trkpt lat="43.31082" lon="-2.00737">
        <ele>1.8</ele>
        <time>2026-08-05T13:56:11Z</time>
      </trkpt>
      <trkpt lat="43.31079" lon="-2.00743">
        <ele>1.2</ele>
        <time>2026-08-05T13:56:12Z</time>
      </trkpt>
      <trkpt lat="43.31076" lon="-2.00748">
        <ele>1.2</ele>
        <time>2026-08-05T13:56:13Z</time>
      </trkpt>
      <trkpt lat="43.31074" lon="-2.00753">
        <ele>2.2</ele>
        <time>2026-08-05T13:56:14Z</time>
      </trkpt>
      <trkpt lat="43.31072" lon="-2.00759">
        <ele>2.2</ele>
        <time>2026-08-05T13:56:15Z</time>
      </trkpt>
      <trkpt lat="43.31069" lon="-2.00764">
        <ele>2.2</ele>
        <time>2026-08-05T13:56:16Z</time>
      </trkpt>
      <trkpt lat="43.31067" lon="-2.0077">
        <ele>1.6</ele>
        <time>2026-08-05T13:56:17Z</time>
      </trkpt>
      <trkpt lat="43.31064" lon="-2.00775">
        <ele>1.4</ele>
        <time>2026-08-05T13:56:18Z</time>
      </trkpt>
      <trkpt lat="43.31062" lon="-2.0078">
        <ele>1.4</ele>
        <time>2026-08-05T13:56:19Z</time>
      </trkpt>
      <trkpt lat="43.31059" lon="-2.00785">
        <ele>1.4</ele>
        <time>2026-08-05T13:56:20Z</time>
      </trkpt>
      <trkpt lat="43.31057" lon="-2.00791">
        <ele>1.4</ele>
        <time>2026-08-05T13:56:21Z</time>
      </trkpt>
      <trkpt lat="43.31054" lon="-2.00796">
        <ele>1.2</ele>
        <time>2026-08-05T13:56:22Z</time>
      </trkpt>
      <trkpt lat="43.31051" lon="-2.00801">
        <ele>0.8</ele>
        <time>2026-08-05T13:56:23Z</time>
      </trkpt>
      <trkpt lat="43.31048" lon="-2.00806">
        <ele>0.8</ele>
        <time>2026-08-05T13:56:24Z</time>
      </trkpt>
      <trkpt lat="43.31046" lon="-2.00812">
        <ele>0.8</ele>
        <time>2026-08-05T13:56:25Z</time>
      </trkpt>
      <trkpt lat="43.31043" lon="-2.00818">
        <ele>0.8</ele>
        <time>2026-08-05T13:56:26Z</time>
      </trkpt>
      <trkpt lat="43.31041" lon="-2.00824">
        <ele>0.8</ele>
        <time>2026-08-05T13:56:27Z</time>
      </trkpt>
      <trkpt lat="43.31038" lon="-2.00829">
        <ele>0.8</ele>
        <time>2026-08-05T13:56:28Z</time>
      </trkpt>
      <trkpt lat="43.31035" lon="-2.00835">
        <ele>0.8</ele>
        <time>2026-08-05T13:56:29Z</time>
      </trkpt>
      <trkpt lat="43.31033" lon="-2.0084">
        <ele>0.8</ele>
        <time>2026-08-05T13:56:30Z</time>
      </trkpt>
      <trkpt lat="43.3103" lon="-2.00846">
        <ele>0.8</ele>
        <time>2026-08-05T13:56:31Z</time>
      </trkpt>
      <trkpt lat="43.31027" lon="-2.00851">
        <ele>0.8</ele>
        <time>2026-08-05T13:56:32Z</time>
      </trkpt>
      <trkpt lat="43.31024" lon="-2.00856">
        <ele>0.8</ele>
        <time>2026-08-05T13:56:33Z</time>
      </trkpt>
      <trkpt lat="43.31021" lon="-2.00862">
        <ele>1.6</ele>
        <time>2026-08-05T13:56:34Z</time>
      </trkpt>
      <trkpt lat="43.31019" lon="-2.00867">
        <ele>1.6</ele>
        <time>2026-08-05T13:56:35Z</time>
      </trkpt>
      <trkpt lat="43.31016" lon="-2.00873">
        <ele>1.6</ele>
        <time>2026-08-05T13:56:36Z</time>
      </trkpt>
      <trkpt lat="43.31013" lon="-2.00878">
        <ele>0.8</ele>
        <time>2026-08-05T13:56:37Z</time>
      </trkpt>
      <trkpt lat="43.31009" lon="-2.00883">
        <ele>0.8</ele>
        <time>2026-08-05T13:56:38Z</time>
      </trkpt>
      <trkpt lat="43.31006" lon="-2.00887">
        <ele>0.8</ele>
        <time>2026-08-05T13:56:39Z</time>
      </trkpt>
      <trkpt lat="43.31002" lon="-2.00891">
        <ele>1.4</ele>
        <time>2026-08-05T13:56:40Z</time>
      </trkpt>
      <trkpt lat="43.30998" lon="-2.00894">
        <ele>1.4</ele>
        <time>2026-08-05T13:56:41Z</time>
      </trkpt>
      <trkpt lat="43.30994" lon="-2.00896">
        <ele>1.4</ele>
        <time>2026-08-05T13:56:42Z</time>
      </trkpt>
      <trkpt lat="43.30989" lon="-2.00899">
        <ele>1.4</ele>
        <time>2026-08-05T13:56:43Z</time>
      </trkpt>
      <trkpt lat="43.30985" lon="-2.009">
        <ele>1.2</ele>
        <time>2026-08-05T13:56:44Z</time>
      </trkpt>
      <trkpt lat="43.3098" lon="-2.009">
        <ele>1.2</ele>
        <time>2026-08-05T13:56:45Z</time>
      </trkpt>
      <trkpt lat="43.30976" lon="-2.009">
        <ele>1.2</ele>
        <time>2026-08-05T13:56:46Z</time>
      </trkpt>
      <trkpt lat="43.30971" lon="-2.00899">
        <ele>1.2</ele>
        <time>2026-08-05T13:56:47Z</time>
      </trkpt>
      <trkpt lat="43.30967" lon="-2.00898">
        <ele>1.2</ele>
        <time>2026-08-05T13:56:48Z</time>
      </trkpt>
      <trkpt lat="43.30963" lon="-2.00895">
        <ele>1.2</ele>
        <time>2026-08-05T13:56:49Z</time>
      </trkpt>
      <trkpt lat="43.30959" lon="-2.00893">
        <ele>1.8</ele>
        <time>2026-08-05T13:56:50Z</time>
      </trkpt>
      <trkpt lat="43.30955" lon="-2.0089">
        <ele>1.8</ele>
        <time>2026-08-05T13:56:51Z</time>
      </trkpt>
      <trkpt lat="43.30952" lon="-2.00888">
        <ele>1.8</ele>
        <time>2026-08-05T13:56:52Z</time>
      </trkpt>
      <trkpt lat="43.30948" lon="-2.00885">
        <ele>1.8</ele>
        <time>2026-08-05T13:56:53Z</time>
      </trkpt>
      <trkpt lat="43.30945" lon="-2.00883">
        <ele>1.8</ele>
        <time>2026-08-05T13:56:54Z</time>
      </trkpt>
      <trkpt lat="43.30941" lon="-2.00881">
        <ele>1.8</ele>
        <time>2026-08-05T13:56:55Z</time>
      </trkpt>
      <trkpt lat="43.30937" lon="-2.00881">
        <ele>1.8</ele>
        <time>2026-08-05T13:56:56Z</time>
      </trkpt>
      <trkpt lat="43.30934" lon="-2.00883">
        <ele>1.2</ele>
        <time>2026-08-05T13:56:57Z</time>
      </trkpt>
      <trkpt lat="43.30931" lon="-2.00886">
        <ele>1.2</ele>
        <time>2026-08-05T13:56:58Z</time>
      </trkpt>
      <trkpt lat="43.30929" lon="-2.0089">
        <ele>1.2</ele>
        <time>2026-08-05T13:56:59Z</time>
      </trkpt>
      <trkpt lat="43.30927" lon="-2.00894">
        <ele>1.2</ele>
        <time>2026-08-05T13:57:00Z</time>
      </trkpt>
      <trkpt lat="43.30925" lon="-2.00899">
        <ele>0.8</ele>
        <time>2026-08-05T13:57:01Z</time>
      </trkpt>
      <trkpt lat="43.30923" lon="-2.00903">
        <ele>0.8</ele>
        <time>2026-08-05T13:57:02Z</time>
      </trkpt>
      <trkpt lat="43.30922" lon="-2.00907">
        <ele>0.8</ele>
        <time>2026-08-05T13:57:03Z</time>
      </trkpt>
      <trkpt lat="43.3092" lon="-2.0091">
        <ele>1.2</ele>
        <time>2026-08-05T13:57:04Z</time>
      </trkpt>
      <trkpt lat="43.30918" lon="-2.00914">
        <ele>1.2</ele>
        <time>2026-08-05T13:57:05Z</time>
      </trkpt>
      <trkpt lat="43.30917" lon="-2.00917">
        <ele>1.2</ele>
        <time>2026-08-05T13:57:06Z</time>
      </trkpt>
      <trkpt lat="43.30916" lon="-2.00919">
        <ele>1.2</ele>
        <time>2026-08-05T13:57:07Z</time>
      </trkpt>
      <trkpt lat="43.30915" lon="-2.00922">
        <ele>1</ele>
        <time>2026-08-05T13:57:08Z</time>
      </trkpt>
      <trkpt lat="43.30913" lon="-2.00925">
        <ele>1</ele>
        <time>2026-08-05T13:57:09Z</time>
      </trkpt>
      <trkpt lat="43.30912" lon="-2.00927">
        <ele>1</ele>
        <time>2026-08-05T13:57:10Z</time>
      </trkpt>
      <trkpt lat="43.30911" lon="-2.0093">
        <ele>1</ele>
        <time>2026-08-05T13:57:11Z</time>
      </trkpt>
      <trkpt lat="43.3091" lon="-2.00933">
        <ele>1</ele>
        <time>2026-08-05T13:57:12Z</time>
      </trkpt>
      <trkpt lat="43.30908" lon="-2.00935">
        <ele>1</ele>
        <time>2026-08-05T13:57:13Z</time>
      </trkpt>
      <trkpt lat="43.30907" lon="-2.00938">
        <ele>1</ele>
        <time>2026-08-05T13:57:14Z</time>
      </trkpt>
      <trkpt lat="43.30907" lon="-2.0094">
        <ele>0.8</ele>
        <time>2026-08-05T13:57:15Z</time>
      </trkpt>
      <trkpt lat="43.30906" lon="-2.00942">
        <ele>0.8</ele>
        <time>2026-08-05T13:57:16Z</time>
      </trkpt>
      <trkpt lat="43.30905" lon="-2.00944">
        <ele>0.8</ele>
        <time>2026-08-05T13:57:17Z</time>
      </trkpt>
      <trkpt lat="43.30904" lon="-2.00946">
        <ele>0.8</ele>
        <time>2026-08-05T13:57:18Z</time>
      </trkpt>
      <trkpt lat="43.30903" lon="-2.00948">
        <ele>1</ele>
        <time>2026-08-05T13:57:19Z</time>
      </trkpt>
      <trkpt lat="43.30903" lon="-2.00951">
        <ele>1</ele>
        <time>2026-08-05T13:57:20Z</time>
      </trkpt>
      <trkpt lat="43.30902" lon="-2.00953">
        <ele>1</ele>
        <time>2026-08-05T13:57:21Z</time>
      </trkpt>
      <trkpt lat="43.30902" lon="-2.00954">
        <ele>1</ele>
        <time>2026-08-05T13:57:22Z</time>
      </trkpt>
      <trkpt lat="43.30902" lon="-2.00954">
        <ele>1</ele>
        <time>2026-08-05T13:57:23Z</time>
      </trkpt>
      <trkpt lat="43.30902" lon="-2.00954">
        <ele>1</ele>
        <time>2026-08-05T13:57:24Z</time>
      </trkpt>
      <trkpt lat="43.30897" lon="-2.00945">
        <ele>1</ele>
        <time>2026-08-05T13:59:05Z</time>
      </trkpt>
      <trkpt lat="43.30895" lon="-2.00944">
        <ele>1.2</ele>
        <time>2026-08-05T13:59:06Z</time>
      </trkpt>
      <trkpt lat="43.30893" lon="-2.00944">
        <ele>1.2</ele>
        <time>2026-08-05T13:59:07Z</time>
      </trkpt>
      <trkpt lat="43.30892" lon="-2.00944">
        <ele>1.2</ele>
        <time>2026-08-05T13:59:08Z</time>
      </trkpt>
      <trkpt lat="43.3089" lon="-2.00944">
        <ele>1.2</ele>
        <time>2026-08-05T13:59:09Z</time>
      </trkpt>
      <trkpt lat="43.30887" lon="-2.00944">
        <ele>1.2</ele>
        <time>2026-08-05T13:59:10Z</time>
      </trkpt>
      <trkpt lat="43.30884" lon="-2.00944">
        <ele>1.2</ele>
        <time>2026-08-05T13:59:11Z</time>
      </trkpt>
      <trkpt lat="43.30881" lon="-2.00943">
        <ele>1.2</ele>
        <time>2026-08-05T13:59:12Z</time>
      </trkpt>
      <trkpt lat="43.30878" lon="-2.00942">
        <ele>1</ele>
        <time>2026-08-05T13:59:13Z</time>
      </trkpt>
      <trkpt lat="43.30875" lon="-2.00942">
        <ele>1</ele>
        <time>2026-08-05T13:59:14Z</time>
      </trkpt>
      <trkpt lat="43.30871" lon="-2.00942">
        <ele>1</ele>
        <time>2026-08-05T13:59:15Z</time>
      </trkpt>
      <trkpt lat="43.30869" lon="-2.00943">
        <ele>1</ele>
        <time>2026-08-05T13:59:16Z</time>
      </trkpt>
      <trkpt lat="43.30867" lon="-2.00942">
        <ele>1</ele>
        <time>2026-08-05T13:59:17Z</time>
      </trkpt>
      <trkpt lat="43.30864" lon="-2.00945">
        <ele>1</ele>
        <time>2026-08-05T13:59:18Z</time>
      </trkpt>
      <trkpt lat="43.3086" lon="-2.00946">
        <ele>1.2</ele>
        <time>2026-08-05T13:59:19Z</time>
      </trkpt>
      <trkpt lat="43.30857" lon="-2.00948">
        <ele>1.2</ele>
        <time>2026-08-05T13:59:20Z</time>
      </trkpt>
      <trkpt lat="43.30853" lon="-2.00948">
        <ele>1.2</ele>
        <time>2026-08-05T13:59:21Z</time>
      </trkpt>
      <trkpt lat="43.30849" lon="-2.00946">
        <ele>1.2</ele>
        <time>2026-08-05T13:59:22Z</time>
      </trkpt>
      <trkpt lat="43.30846" lon="-2.00944">
        <ele>1</ele>
        <time>2026-08-05T13:59:23Z</time>
      </trkpt>
      <trkpt lat="43.30843" lon="-2.00942">
        <ele>1</ele>
        <time>2026-08-05T13:59:24Z</time>
      </trkpt>
      <trkpt lat="43.3084" lon="-2.00939">
        <ele>1</ele>
        <time>2026-08-05T13:59:25Z</time>
      </trkpt>
      <trkpt lat="43.30837" lon="-2.00936">
        <ele>1</ele>
        <time>2026-08-05T13:59:26Z</time>
      </trkpt>
      <trkpt lat="43.30833" lon="-2.00934">
        <ele>0.8</ele>
        <time>2026-08-05T13:59:27Z</time>
      </trkpt>
      <trkpt lat="43.3083" lon="-2.00931">
        <ele>0.8</ele>
        <time>2026-08-05T13:59:28Z</time>
      </trkpt>
      <trkpt lat="43.30826" lon="-2.00928">
        <ele>0.8</ele>
        <time>2026-08-05T13:59:29Z</time>
      </trkpt>
      <trkpt lat="43.30823" lon="-2.00925">
        <ele>1</ele>
        <time>2026-08-05T13:59:30Z</time>
      </trkpt>
      <trkpt lat="43.30819" lon="-2.00922">
        <ele>1</ele>
        <time>2026-08-05T13:59:31Z</time>
      </trkpt>
      <trkpt lat="43.30815" lon="-2.00918">
        <ele>1</ele>
        <time>2026-08-05T13:59:32Z</time>
      </trkpt>
      <trkpt lat="43.30812" lon="-2.00915">
        <ele>1</ele>
        <time>2026-08-05T13:59:33Z</time>
      </trkpt>
      <trkpt lat="43.30808" lon="-2.00912">
        <ele>1</ele>
        <time>2026-08-05T13:59:34Z</time>
      </trkpt>
      <trkpt lat="43.30805" lon="-2.00909">
        <ele>1</ele>
        <time>2026-08-05T13:59:35Z</time>
      </trkpt>
      <trkpt lat="43.30802" lon="-2.00906">
        <ele>1</ele>
        <time>2026-08-05T13:59:36Z</time>
      </trkpt>
      <trkpt lat="43.30799" lon="-2.00904">
        <ele>1.2</ele>
        <time>2026-08-05T13:59:37Z</time>
      </trkpt>
      <trkpt lat="43.30796" lon="-2.00901">
        <ele>1.2</ele>
        <time>2026-08-05T13:59:38Z</time>
      </trkpt>
      <trkpt lat="43.30792" lon="-2.00898">
        <ele>1.2</ele>
        <time>2026-08-05T13:59:39Z</time>
      </trkpt>
      <trkpt lat="43.30789" lon="-2.00895">
        <ele>1</ele>
        <time>2026-08-05T13:59:40Z</time>
      </trkpt>
      <trkpt lat="43.30785" lon="-2.00892">
        <ele>1</ele>
        <time>2026-08-05T13:59:41Z</time>
      </trkpt>
      <trkpt lat="43.30781" lon="-2.00889">
        <ele>1</ele>
        <time>2026-08-05T13:59:42Z</time>
      </trkpt>
      <trkpt lat="43.30778" lon="-2.00886">
        <ele>1</ele>
        <time>2026-08-05T13:59:43Z</time>
      </trkpt>
      <trkpt lat="43.30774" lon="-2.00882">
        <ele>1</ele>
        <time>2026-08-05T13:59:44Z</time>
      </trkpt>
      <trkpt lat="43.30771" lon="-2.00879">
        <ele>1</ele>
        <time>2026-08-05T13:59:45Z</time>
      </trkpt>
      <trkpt lat="43.30767" lon="-2.00876">
        <ele>1</ele>
        <time>2026-08-05T13:59:46Z</time>
      </trkpt>
      <trkpt lat="43.30764" lon="-2.00873">
        <ele>1</ele>
        <time>2026-08-05T13:59:47Z</time>
      </trkpt>
      <trkpt lat="43.3076" lon="-2.0087">
        <ele>0.8</ele>
        <time>2026-08-05T13:59:48Z</time>
      </trkpt>
      <trkpt lat="43.30756" lon="-2.00867">
        <ele>0.8</ele>
        <time>2026-08-05T13:59:49Z</time>
      </trkpt>
      <trkpt lat="43.30753" lon="-2.00865">
        <ele>1.2</ele>
        <time>2026-08-05T13:59:50Z</time>
      </trkpt>
      <trkpt lat="43.3075" lon="-2.00861">
        <ele>1.2</ele>
        <time>2026-08-05T13:59:51Z</time>
      </trkpt>
      <trkpt lat="43.30746" lon="-2.00858">
        <ele>1.2</ele>
        <time>2026-08-05T13:59:52Z</time>
      </trkpt>
      <trkpt lat="43.30743" lon="-2.00856">
        <ele>1.2</ele>
        <time>2026-08-05T13:59:53Z</time>
      </trkpt>
      <trkpt lat="43.30739" lon="-2.00853">
        <ele>1.2</ele>
        <time>2026-08-05T13:59:54Z</time>
      </trkpt>
      <trkpt lat="43.30735" lon="-2.00851">
        <ele>1.2</ele>
        <time>2026-08-05T13:59:55Z</time>
      </trkpt>
      <trkpt lat="43.30732" lon="-2.00847">
        <ele>1.2</ele>
        <time>2026-08-05T13:59:56Z</time>
      </trkpt>
      <trkpt lat="43.30728" lon="-2.00845">
        <ele>1</ele>
        <time>2026-08-05T13:59:57Z</time>
      </trkpt>
      <trkpt lat="43.30725" lon="-2.00842">
        <ele>1</ele>
        <time>2026-08-05T13:59:58Z</time>
      </trkpt>
      <trkpt lat="43.30722" lon="-2.00839">
        <ele>1</ele>
        <time>2026-08-05T13:59:59Z</time>
      </trkpt>
      <trkpt lat="43.30718" lon="-2.00836">
        <ele>1.6</ele>
        <time>2026-08-05T14:00:00Z</time>
      </trkpt>
      <trkpt lat="43.30714" lon="-2.00833">
        <ele>1.6</ele>
        <time>2026-08-05T14:00:01Z</time>
      </trkpt>
      <trkpt lat="43.30711" lon="-2.0083">
        <ele>1.6</ele>
        <time>2026-08-05T14:00:02Z</time>
      </trkpt>
      <trkpt lat="43.30708" lon="-2.00827">
        <ele>1</ele>
        <time>2026-08-05T14:00:03Z</time>
      </trkpt>
      <trkpt lat="43.30706" lon="-2.00824">
        <ele>1</ele>
        <time>2026-08-05T14:00:04Z</time>
      </trkpt>
      <trkpt lat="43.30703" lon="-2.00821">
        <ele>1</ele>
        <time>2026-08-05T14:00:05Z</time>
      </trkpt>
      <trkpt lat="43.307" lon="-2.00819">
        <ele>1.2</ele>
        <time>2026-08-05T14:00:06Z</time>
      </trkpt>
      <trkpt lat="43.30699" lon="-2.00815">
        <ele>1.4</ele>
        <time>2026-08-05T14:00:07Z</time>
      </trkpt>
      <trkpt lat="43.30698" lon="-2.00811">
        <ele>1.4</ele>
        <time>2026-08-05T14:00:08Z</time>
      </trkpt>
      <trkpt lat="43.30697" lon="-2.00808">
        <ele>1.6</ele>
        <time>2026-08-05T14:00:09Z</time>
      </trkpt>
      <trkpt lat="43.30696" lon="-2.00805">
        <ele>1.6</ele>
        <time>2026-08-05T14:00:10Z</time>
      </trkpt>
      <trkpt lat="43.30694" lon="-2.00802">
        <ele>1.6</ele>
        <time>2026-08-05T14:00:11Z</time>
      </trkpt>
      <trkpt lat="43.30692" lon="-2.008">
        <ele>1.6</ele>
        <time>2026-08-05T14:00:12Z</time>
      </trkpt>
      <trkpt lat="43.30689" lon="-2.00798">
        <ele>1.6</ele>
        <time>2026-08-05T14:00:13Z</time>
      </trkpt>
      <trkpt lat="43.30687" lon="-2.00797">
        <ele>1.6</ele>
        <time>2026-08-05T14:00:14Z</time>
      </trkpt>
      <trkpt lat="43.30685" lon="-2.00795">
        <ele>1.6</ele>
        <time>2026-08-05T14:00:15Z</time>
      </trkpt>
      <trkpt lat="43.30682" lon="-2.00794">
        <ele>1.6</ele>
        <time>2026-08-05T14:00:16Z</time>
      </trkpt>
      <trkpt lat="43.3068" lon="-2.00794">
        <ele>1.6</ele>
        <time>2026-08-05T14:00:17Z</time>
      </trkpt>
      <trkpt lat="43.30677" lon="-2.00795">
        <ele>1.6</ele>
        <time>2026-08-05T14:00:18Z</time>
      </trkpt>
      <trkpt lat="43.30675" lon="-2.00794">
        <ele>1.6</ele>
        <time>2026-08-05T14:00:19Z</time>
      </trkpt>
      <trkpt lat="43.30672" lon="-2.00792">
        <ele>1.6</ele>
        <time>2026-08-05T14:00:20Z</time>
      </trkpt>
      <trkpt lat="43.3067" lon="-2.0079">
        <ele>1.4</ele>
        <time>2026-08-05T14:00:21Z</time>
      </trkpt>
      <trkpt lat="43.30667" lon="-2.00788">
        <ele>1.2</ele>
        <time>2026-08-05T14:00:22Z</time>
      </trkpt>
      <trkpt lat="43.30664" lon="-2.00785">
        <ele>1.2</ele>
        <time>2026-08-05T14:00:23Z</time>
      </trkpt>
      <trkpt lat="43.30662" lon="-2.00782">
        <ele>1.2</ele>
        <time>2026-08-05T14:00:24Z</time>
      </trkpt>
      <trkpt lat="43.30659" lon="-2.00779">
        <ele>1.2</ele>
        <time>2026-08-05T14:00:25Z</time>
      </trkpt>
      <trkpt lat="43.30656" lon="-2.00777">
        <ele>1.2</ele>
        <time>2026-08-05T14:00:26Z</time>
      </trkpt>
      <trkpt lat="43.30652" lon="-2.00775">
        <ele>1.2</ele>
        <time>2026-08-05T14:00:27Z</time>
      </trkpt>
      <trkpt lat="43.30649" lon="-2.00772">
        <ele>1.2</ele>
        <time>2026-08-05T14:00:28Z</time>
      </trkpt>
      <trkpt lat="43.30646" lon="-2.00769">
        <ele>1.4</ele>
        <time>2026-08-05T14:00:29Z</time>
      </trkpt>
      <trkpt lat="43.30643" lon="-2.00766">
        <ele>1.4</ele>
        <time>2026-08-05T14:00:30Z</time>
      </trkpt>
      <trkpt lat="43.3064" lon="-2.00763">
        <ele>1.4</ele>
        <time>2026-08-05T14:00:31Z</time>
      </trkpt>
      <trkpt lat="43.30636" lon="-2.0076">
        <ele>1.6</ele>
        <time>2026-08-05T14:00:32Z</time>
      </trkpt>
      <trkpt lat="43.30633" lon="-2.00756">
        <ele>1.6</ele>
        <time>2026-08-05T14:00:33Z</time>
      </trkpt>
      <trkpt lat="43.30629" lon="-2.00753">
        <ele>1.6</ele>
        <time>2026-08-05T14:00:34Z</time>
      </trkpt>
      <trkpt lat="43.30626" lon="-2.00749">
        <ele>1.2</ele>
        <time>2026-08-05T14:00:35Z</time>
      </trkpt>
      <trkpt lat="43.30622" lon="-2.00744">
        <ele>1.2</ele>
        <time>2026-08-05T14:00:36Z</time>
      </trkpt>
      <trkpt lat="43.30619" lon="-2.0074">
        <ele>1.2</ele>
        <time>2026-08-05T14:00:37Z</time>
      </trkpt>
      <trkpt lat="43.30615" lon="-2.00737">
        <ele>1.2</ele>
        <time>2026-08-05T14:00:38Z</time>
      </trkpt>
      <trkpt lat="43.30612" lon="-2.00733">
        <ele>1.4</ele>
        <time>2026-08-05T14:00:39Z</time>
      </trkpt>
      <trkpt lat="43.30609" lon="-2.00729">
        <ele>1.6</ele>
        <time>2026-08-05T14:00:40Z</time>
      </trkpt>
      <trkpt lat="43.30605" lon="-2.00726">
        <ele>1.6</ele>
        <time>2026-08-05T14:00:41Z</time>
      </trkpt>
      <trkpt lat="43.30602" lon="-2.00723">
        <ele>1.6</ele>
        <time>2026-08-05T14:00:42Z</time>
      </trkpt>
      <trkpt lat="43.30598" lon="-2.00719">
        <ele>1.6</ele>
        <time>2026-08-05T14:00:43Z</time>
      </trkpt>
      <trkpt lat="43.30595" lon="-2.00716">
        <ele>1.4</ele>
        <time>2026-08-05T14:00:44Z</time>
      </trkpt>
      <trkpt lat="43.30591" lon="-2.00713">
        <ele>1.4</ele>
        <time>2026-08-05T14:00:45Z</time>
      </trkpt>
      <trkpt lat="43.30588" lon="-2.0071">
        <ele>1.4</ele>
        <time>2026-08-05T14:00:46Z</time>
      </trkpt>
      <trkpt lat="43.30584" lon="-2.00707">
        <ele>1.4</ele>
        <time>2026-08-05T14:00:47Z</time>
      </trkpt>
      <trkpt lat="43.3058" lon="-2.00704">
        <ele>2</ele>
        <time>2026-08-05T14:00:48Z</time>
      </trkpt>
      <trkpt lat="43.30576" lon="-2.00702">
        <ele>2</ele>
        <time>2026-08-05T14:00:49Z</time>
      </trkpt>
      <trkpt lat="43.30572" lon="-2.00699">
        <ele>2</ele>
        <time>2026-08-05T14:00:50Z</time>
      </trkpt>
      <trkpt lat="43.30568" lon="-2.00696">
        <ele>1.6</ele>
        <time>2026-08-05T14:00:51Z</time>
      </trkpt>
      <trkpt lat="43.30564" lon="-2.00692">
        <ele>1.6</ele>
        <time>2026-08-05T14:00:52Z</time>
      </trkpt>
      <trkpt lat="43.30561" lon="-2.00689">
        <ele>1.6</ele>
        <time>2026-08-05T14:00:53Z</time>
      </trkpt>
      <trkpt lat="43.30557" lon="-2.00686">
        <ele>1.6</ele>
        <time>2026-08-05T14:00:54Z</time>
      </trkpt>
      <trkpt lat="43.30554" lon="-2.00683">
        <ele>1.6</ele>
        <time>2026-08-05T14:00:55Z</time>
      </trkpt>
      <trkpt lat="43.30551" lon="-2.00679">
        <ele>1.6</ele>
        <time>2026-08-05T14:00:56Z</time>
      </trkpt>
      <trkpt lat="43.30547" lon="-2.00676">
        <ele>1.6</ele>
        <time>2026-08-05T14:00:57Z</time>
      </trkpt>
      <trkpt lat="43.30544" lon="-2.00673">
        <ele>1.6</ele>
        <time>2026-08-05T14:00:58Z</time>
      </trkpt>
      <trkpt lat="43.30541" lon="-2.00669">
        <ele>1.6</ele>
        <time>2026-08-05T14:00:59Z</time>
      </trkpt>
      <trkpt lat="43.30538" lon="-2.00665">
        <ele>1.6</ele>
        <time>2026-08-05T14:01:00Z</time>
      </trkpt>
      <trkpt lat="43.30534" lon="-2.0066">
        <ele>1</ele>
        <time>2026-08-05T14:01:01Z</time>
      </trkpt>
      <trkpt lat="43.30531" lon="-2.00656">
        <ele>1</ele>
        <time>2026-08-05T14:01:02Z</time>
      </trkpt>
      <trkpt lat="43.30527" lon="-2.00652">
        <ele>1</ele>
        <time>2026-08-05T14:01:03Z</time>
      </trkpt>
      <trkpt lat="43.30524" lon="-2.00649">
        <ele>1</ele>
        <time>2026-08-05T14:01:04Z</time>
      </trkpt>
      <trkpt lat="43.3052" lon="-2.00647">
        <ele>1</ele>
        <time>2026-08-05T14:01:05Z</time>
      </trkpt>
      <trkpt lat="43.30515" lon="-2.00644">
        <ele>1.6</ele>
        <time>2026-08-05T14:01:06Z</time>
      </trkpt>
      <trkpt lat="43.30511" lon="-2.00641">
        <ele>1.6</ele>
        <time>2026-08-05T14:01:07Z</time>
      </trkpt>
      <trkpt lat="43.30507" lon="-2.00637">
        <ele>1.6</ele>
        <time>2026-08-05T14:01:08Z</time>
      </trkpt>
      <trkpt lat="43.30503" lon="-2.00634">
        <ele>1.6</ele>
        <time>2026-08-05T14:01:09Z</time>
      </trkpt>
      <trkpt lat="43.30499" lon="-2.00631">
        <ele>1.6</ele>
        <time>2026-08-05T14:01:10Z</time>
      </trkpt>
      <trkpt lat="43.30496" lon="-2.00629">
        <ele>1.6</ele>
        <time>2026-08-05T14:01:11Z</time>
      </trkpt>
      <trkpt lat="43.30492" lon="-2.00626">
        <ele>1.6</ele>
        <time>2026-08-05T14:01:12Z</time>
      </trkpt>
      <trkpt lat="43.30489" lon="-2.00622">
        <ele>2.2</ele>
        <time>2026-08-05T14:01:13Z</time>
      </trkpt>
      <trkpt lat="43.30487" lon="-2.00619">
        <ele>2.2</ele>
        <time>2026-08-05T14:01:14Z</time>
      </trkpt>
      <trkpt lat="43.30484" lon="-2.00616">
        <ele>2.8</ele>
        <time>2026-08-05T14:01:15Z</time>
      </trkpt>
      <trkpt lat="43.30482" lon="-2.00613">
        <ele>2.8</ele>
        <time>2026-08-05T14:01:16Z</time>
      </trkpt>
      <trkpt lat="43.30481" lon="-2.0061">
        <ele>2.8</ele>
        <time>2026-08-05T14:01:17Z</time>
      </trkpt>
      <trkpt lat="43.3048" lon="-2.00606">
        <ele>2.2</ele>
        <time>2026-08-05T14:01:18Z</time>
      </trkpt>
      <trkpt lat="43.3048" lon="-2.00603">
        <ele>1.8</ele>
        <time>2026-08-05T14:01:19Z</time>
      </trkpt>
      <trkpt lat="43.30479" lon="-2.006">
        <ele>1.8</ele>
        <time>2026-08-05T14:01:20Z</time>
      </trkpt>
      <trkpt lat="43.30479" lon="-2.00597">
        <ele>1.8</ele>
        <time>2026-08-05T14:01:21Z</time>
      </trkpt>
      <trkpt lat="43.30479" lon="-2.00594">
        <ele>2</ele>
        <time>2026-08-05T14:01:22Z</time>
      </trkpt>
      <trkpt lat="43.30478" lon="-2.00592">
        <ele>2</ele>
        <time>2026-08-05T14:01:23Z</time>
      </trkpt>
      <trkpt lat="43.30478" lon="-2.0059">
        <ele>2</ele>
        <time>2026-08-05T14:01:24Z</time>
      </trkpt>
      <trkpt lat="43.30477" lon="-2.00587">
        <ele>1.6</ele>
        <time>2026-08-05T14:01:25Z</time>
      </trkpt>
      <trkpt lat="43.30476" lon="-2.00585">
        <ele>1.6</ele>
        <time>2026-08-05T14:01:26Z</time>
      </trkpt>
      <trkpt lat="43.30476" lon="-2.00583">
        <ele>1.6</ele>
        <time>2026-08-05T14:01:27Z</time>
      </trkpt>
      <trkpt lat="43.30476" lon="-2.00582">
        <ele>2</ele>
        <time>2026-08-05T14:01:28Z</time>
      </trkpt>
      <trkpt lat="43.30476" lon="-2.00581">
        <ele>2</ele>
        <time>2026-08-05T14:01:29Z</time>
      </trkpt>
      <trkpt lat="43.30475" lon="-2.00581">
        <ele>2</ele>
        <time>2026-08-05T14:01:30Z</time>
      </trkpt>
      <trkpt lat="43.30477" lon="-2.00573">
        <ele>2.2</ele>
        <time>2026-08-05T14:02:10Z</time>
      </trkpt>
      <trkpt lat="43.30477" lon="-2.0057">
        <ele>2.2</ele>
        <time>2026-08-05T14:02:11Z</time>
      </trkpt>
      <trkpt lat="43.30477" lon="-2.00568">
        <ele>2.2</ele>
        <time>2026-08-05T14:02:12Z</time>
      </trkpt>
      <trkpt lat="43.30476" lon="-2.00565">
        <ele>2.2</ele>
        <time>2026-08-05T14:02:13Z</time>
      </trkpt>
      <trkpt lat="43.30475" lon="-2.00563">
        <ele>2.2</ele>
        <time>2026-08-05T14:02:14Z</time>
      </trkpt>
      <trkpt lat="43.30473" lon="-2.00562">
        <ele>2.2</ele>
        <time>2026-08-05T14:02:15Z</time>
      </trkpt>
      <trkpt lat="43.30472" lon="-2.00562">
        <ele>2.2</ele>
        <time>2026-08-05T14:02:16Z</time>
      </trkpt>
      <trkpt lat="43.3047" lon="-2.00564">
        <ele>2</ele>
        <time>2026-08-05T14:02:17Z</time>
      </trkpt>
      <trkpt lat="43.30469" lon="-2.00567">
        <ele>1.6</ele>
        <time>2026-08-05T14:02:18Z</time>
      </trkpt>
      <trkpt lat="43.30468" lon="-2.00572">
        <ele>1.2</ele>
        <time>2026-08-05T14:02:19Z</time>
      </trkpt>
      <trkpt lat="43.30467" lon="-2.00577">
        <ele>1.2</ele>
        <time>2026-08-05T14:02:20Z</time>
      </trkpt>
      <trkpt lat="43.30467" lon="-2.00583">
        <ele>1.2</ele>
        <time>2026-08-05T14:02:21Z</time>
      </trkpt>
      <trkpt lat="43.30467" lon="-2.00589">
        <ele>1.2</ele>
        <time>2026-08-05T14:02:22Z</time>
      </trkpt>
      <trkpt lat="43.30468" lon="-2.00594">
        <ele>2</ele>
        <time>2026-08-05T14:02:23Z</time>
      </trkpt>
      <trkpt lat="43.30468" lon="-2.006">
        <ele>2</ele>
        <time>2026-08-05T14:02:24Z</time>
      </trkpt>
      <trkpt lat="43.30468" lon="-2.00606">
        <ele>2</ele>
        <time>2026-08-05T14:02:25Z</time>
      </trkpt>
      <trkpt lat="43.30468" lon="-2.00609">
        <ele>2</ele>
        <time>2026-08-05T14:02:26Z</time>
      </trkpt>
      <trkpt lat="43.30467" lon="-2.00612">
        <ele>2</ele>
        <time>2026-08-05T14:02:27Z</time>
      </trkpt>
      <trkpt lat="43.30467" lon="-2.00614">
        <ele>2</ele>
        <time>2026-08-05T14:02:28Z</time>
      </trkpt>
      <trkpt lat="43.30466" lon="-2.00614">
        <ele>2</ele>
        <time>2026-08-05T14:02:29Z</time>
      </trkpt>
      <trkpt lat="43.30462" lon="-2.00618">
        <ele>2.4</ele>
        <time>2026-08-05T14:02:58Z</time>
      </trkpt>
      <trkpt lat="43.3046" lon="-2.0062">
        <ele>2.4</ele>
        <time>2026-08-05T14:02:59Z</time>
      </trkpt>
      <trkpt lat="43.30457" lon="-2.00623">
        <ele>2.2</ele>
        <time>2026-08-05T14:03:00Z</time>
      </trkpt>
      <trkpt lat="43.30453" lon="-2.00626">
        <ele>1.8</ele>
        <time>2026-08-05T14:03:01Z</time>
      </trkpt>
      <trkpt lat="43.30449" lon="-2.00628">
        <ele>1.6</ele>
        <time>2026-08-05T14:03:02Z</time>
      </trkpt>
      <trkpt lat="43.30445" lon="-2.0063">
        <ele>1.6</ele>
        <time>2026-08-05T14:03:03Z</time>
      </trkpt>
      <trkpt lat="43.3044" lon="-2.00633">
        <ele>1.6</ele>
        <time>2026-08-05T14:03:04Z</time>
      </trkpt>
      <trkpt lat="43.30436" lon="-2.00636">
        <ele>1.6</ele>
        <time>2026-08-05T14:03:05Z</time>
      </trkpt>
      <trkpt lat="43.30432" lon="-2.00639">
        <ele>1.6</ele>
        <time>2026-08-05T14:03:06Z</time>
      </trkpt>
      <trkpt lat="43.30428" lon="-2.00644">
        <ele>1.6</ele>
        <time>2026-08-05T14:03:07Z</time>
      </trkpt>
      <trkpt lat="43.30427" lon="-2.00649">
        <ele>1.6</ele>
        <time>2026-08-05T14:03:08Z</time>
      </trkpt>
      <trkpt lat="43.30426" lon="-2.00654">
        <ele>1.6</ele>
        <time>2026-08-05T14:03:09Z</time>
      </trkpt>
      <trkpt lat="43.30426" lon="-2.00658">
        <ele>1.6</ele>
        <time>2026-08-05T14:03:10Z</time>
      </trkpt>
      <trkpt lat="43.30425" lon="-2.00662">
        <ele>0.2</ele>
        <time>2026-08-05T14:03:11Z</time>
      </trkpt>
      <trkpt lat="43.30423" lon="-2.00665">
        <ele>0.2</ele>
        <time>2026-08-05T14:03:12Z</time>
      </trkpt>
      <trkpt lat="43.30421" lon="-2.00667">
        <ele>0.2</ele>
        <time>2026-08-05T14:03:13Z</time>
      </trkpt>
      <trkpt lat="43.3042" lon="-2.0067">
        <ele>0.2</ele>
        <time>2026-08-05T14:03:14Z</time>
      </trkpt>
      <trkpt lat="43.30419" lon="-2.00673">
        <ele>3</ele>
        <time>2026-08-05T14:03:15Z</time>
      </trkpt>
      <trkpt lat="43.30417" lon="-2.00676">
        <ele>3</ele>
        <time>2026-08-05T14:03:16Z</time>
      </trkpt>
      <trkpt lat="43.30416" lon="-2.00679">
        <ele>3</ele>
        <time>2026-08-05T14:03:17Z</time>
      </trkpt>
      <trkpt lat="43.30414" lon="-2.00683">
        <ele>3</ele>
        <time>2026-08-05T14:03:18Z</time>
      </trkpt>
      <trkpt lat="43.30412" lon="-2.00687">
        <ele>3</ele>
        <time>2026-08-05T14:03:19Z</time>
      </trkpt>
      <trkpt lat="43.30409" lon="-2.00692">
        <ele>3</ele>
        <time>2026-08-05T14:03:20Z</time>
      </trkpt>
      <trkpt lat="43.30407" lon="-2.00697">
        <ele>1.4</ele>
        <time>2026-08-05T14:03:21Z</time>
      </trkpt>
      <trkpt lat="43.30405" lon="-2.00701">
        <ele>1.4</ele>
        <time>2026-08-05T14:03:22Z</time>
      </trkpt>
      <trkpt lat="43.30402" lon="-2.00706">
        <ele>1.4</ele>
        <time>2026-08-05T14:03:23Z</time>
      </trkpt>
      <trkpt lat="43.304" lon="-2.00709">
        <ele>2.6</ele>
        <time>2026-08-05T14:03:24Z</time>
      </trkpt>
      <trkpt lat="43.30398" lon="-2.00711">
        <ele>2.6</ele>
        <time>2026-08-05T14:03:25Z</time>
      </trkpt>
      <trkpt lat="43.30397" lon="-2.00711">
        <ele>2.6</ele>
        <time>2026-08-05T14:03:26Z</time>
      </trkpt>
      <trkpt lat="43.30396" lon="-2.00711">
        <ele>2.4</ele>
        <time>2026-08-05T14:03:27Z</time>
      </trkpt>
      <trkpt lat="43.30396" lon="-2.00711">
        <ele>2.4</ele>
        <time>2026-08-05T14:03:28Z</time>
      </trkpt>
      <trkpt lat="43.30396" lon="-2.00711">
        <ele>2.4</ele>
        <time>2026-08-05T14:03:29Z</time>
      </trkpt>
      <trkpt lat="43.30393" lon="-2.00709">
        <ele>2.2</ele>
        <time>2026-08-05T14:04:10Z</time>
      </trkpt>
      <trkpt lat="43.3039" lon="-2.00708">
        <ele>2.2</ele>
        <time>2026-08-05T14:04:11Z</time>
      </trkpt>
      <trkpt lat="43.30387" lon="-2.00706">
        <ele>2.2</ele>
        <time>2026-08-05T14:04:12Z</time>
      </trkpt>
      <trkpt lat="43.30384" lon="-2.00706">
        <ele>2.2</ele>
        <time>2026-08-05T14:04:13Z</time>
      </trkpt>
      <trkpt lat="43.3038" lon="-2.00707">
        <ele>1.8</ele>
        <time>2026-08-05T14:04:14Z</time>
      </trkpt>
      <trkpt lat="43.30377" lon="-2.0071">
        <ele>1.8</ele>
        <time>2026-08-05T14:04:15Z</time>
      </trkpt>
      <trkpt lat="43.30375" lon="-2.00714">
        <ele>1.8</ele>
        <time>2026-08-05T14:04:16Z</time>
      </trkpt>
      <trkpt lat="43.30372" lon="-2.00719">
        <ele>2.4</ele>
        <time>2026-08-05T14:04:17Z</time>
      </trkpt>
      <trkpt lat="43.3037" lon="-2.00724">
        <ele>2.4</ele>
        <time>2026-08-05T14:04:18Z</time>
      </trkpt>
      <trkpt lat="43.30368" lon="-2.00728">
        <ele>2.4</ele>
        <time>2026-08-05T14:04:19Z</time>
      </trkpt>
      <trkpt lat="43.30366" lon="-2.00733">
        <ele>2.4</ele>
        <time>2026-08-05T14:04:20Z</time>
      </trkpt>
      <trkpt lat="43.30363" lon="-2.00737">
        <ele>2.6</ele>
        <time>2026-08-05T14:04:21Z</time>
      </trkpt>
      <trkpt lat="43.30361" lon="-2.00742">
        <ele>2.6</ele>
        <time>2026-08-05T14:04:22Z</time>
      </trkpt>
      <trkpt lat="43.30359" lon="-2.00746">
        <ele>2.6</ele>
        <time>2026-08-05T14:04:23Z</time>
      </trkpt>
      <trkpt lat="43.30357" lon="-2.00751">
        <ele>2.6</ele>
        <time>2026-08-05T14:04:24Z</time>
      </trkpt>
      <trkpt lat="43.30354" lon="-2.00755">
        <ele>3</ele>
        <time>2026-08-05T14:04:25Z</time>
      </trkpt>
      <trkpt lat="43.30352" lon="-2.0076">
        <ele>3</ele>
        <time>2026-08-05T14:04:26Z</time>
      </trkpt>
      <trkpt lat="43.30349" lon="-2.00764">
        <ele>3</ele>
        <time>2026-08-05T14:04:27Z</time>
      </trkpt>
      <trkpt lat="43.30347" lon="-2.00769">
        <ele>2.4</ele>
        <time>2026-08-05T14:04:28Z</time>
      </trkpt>
      <trkpt lat="43.30345" lon="-2.00773">
        <ele>2.4</ele>
        <time>2026-08-05T14:04:29Z</time>
      </trkpt>
      <trkpt lat="43.30343" lon="-2.00777">
        <ele>2.4</ele>
        <time>2026-08-05T14:04:30Z</time>
      </trkpt>
      <trkpt lat="43.30341" lon="-2.00781">
        <ele>2.8</ele>
        <time>2026-08-05T14:04:31Z</time>
      </trkpt>
      <trkpt lat="43.30339" lon="-2.00785">
        <ele>3</ele>
        <time>2026-08-05T14:04:32Z</time>
      </trkpt>
      <trkpt lat="43.30337" lon="-2.00789">
        <ele>3</ele>
        <time>2026-08-05T14:04:33Z</time>
      </trkpt>
      <trkpt lat="43.30335" lon="-2.00792">
        <ele>3.4</ele>
        <time>2026-08-05T14:04:34Z</time>
      </trkpt>
      <trkpt lat="43.30333" lon="-2.00793">
        <ele>3.4</ele>
        <time>2026-08-05T14:04:35Z</time>
      </trkpt>
      <trkpt lat="43.3033" lon="-2.00794">
        <ele>3.4</ele>
        <time>2026-08-05T14:04:36Z</time>
      </trkpt>
      <trkpt lat="43.30327" lon="-2.00795">
        <ele>3.4</ele>
        <time>2026-08-05T14:04:37Z</time>
      </trkpt>
      <trkpt lat="43.30325" lon="-2.00797">
        <ele>3.4</ele>
        <time>2026-08-05T14:04:38Z</time>
      </trkpt>
      <trkpt lat="43.30322" lon="-2.00801">
        <ele>3.4</ele>
        <time>2026-08-05T14:04:39Z</time>
      </trkpt>
      <trkpt lat="43.30321" lon="-2.00804">
        <ele>3.4</ele>
        <time>2026-08-05T14:04:40Z</time>
      </trkpt>
      <trkpt lat="43.3032" lon="-2.00809">
        <ele>3.4</ele>
        <time>2026-08-05T14:04:41Z</time>
      </trkpt>
      <trkpt lat="43.3032" lon="-2.00813">
        <ele>3.4</ele>
        <time>2026-08-05T14:04:42Z</time>
      </trkpt>
      <trkpt lat="43.3032" lon="-2.00817">
        <ele>3.4</ele>
        <time>2026-08-05T14:04:43Z</time>
      </trkpt>
      <trkpt lat="43.30319" lon="-2.0082">
        <ele>3.4</ele>
        <time>2026-08-05T14:04:44Z</time>
      </trkpt>
      <trkpt lat="43.30319" lon="-2.00824">
        <ele>3.4</ele>
        <time>2026-08-05T14:04:45Z</time>
      </trkpt>
      <trkpt lat="43.30318" lon="-2.00828">
        <ele>3.2</ele>
        <time>2026-08-05T14:04:46Z</time>
      </trkpt>
      <trkpt lat="43.30318" lon="-2.00831">
        <ele>2.8</ele>
        <time>2026-08-05T14:04:47Z</time>
      </trkpt>
      <trkpt lat="43.30318" lon="-2.00835">
        <ele>2.8</ele>
        <time>2026-08-05T14:04:48Z</time>
      </trkpt>
      <trkpt lat="43.30319" lon="-2.00838">
        <ele>2.8</ele>
        <time>2026-08-05T14:04:49Z</time>
      </trkpt>
      <trkpt lat="43.3032" lon="-2.0084">
        <ele>5</ele>
        <time>2026-08-05T14:04:50Z</time>
      </trkpt>
      <trkpt lat="43.30322" lon="-2.00843">
        <ele>5</ele>
        <time>2026-08-05T14:04:51Z</time>
      </trkpt>
      <trkpt lat="43.30323" lon="-2.00847">
        <ele>5</ele>
        <time>2026-08-05T14:04:52Z</time>
      </trkpt>
      <trkpt lat="43.30324" lon="-2.00852">
        <ele>4</ele>
        <time>2026-08-05T14:04:53Z</time>
      </trkpt>
      <trkpt lat="43.30323" lon="-2.00856">
        <ele>4</ele>
        <time>2026-08-05T14:04:54Z</time>
      </trkpt>
      <trkpt lat="43.30321" lon="-2.00859">
        <ele>4</ele>
        <time>2026-08-05T14:04:55Z</time>
      </trkpt>
      <trkpt lat="43.30319" lon="-2.00862">
        <ele>4</ele>
        <time>2026-08-05T14:04:56Z</time>
      </trkpt>
      <trkpt lat="43.30317" lon="-2.00865">
        <ele>3</ele>
        <time>2026-08-05T14:04:57Z</time>
      </trkpt>
      <trkpt lat="43.30315" lon="-2.00869">
        <ele>2.8</ele>
        <time>2026-08-05T14:04:58Z</time>
      </trkpt>
      <trkpt lat="43.30312" lon="-2.00873">
        <ele>2.8</ele>
        <time>2026-08-05T14:04:59Z</time>
      </trkpt>
      <trkpt lat="43.3031" lon="-2.00876">
        <ele>2.8</ele>
        <time>2026-08-05T14:05:00Z</time>
      </trkpt>
      <trkpt lat="43.30307" lon="-2.0088">
        <ele>3.4</ele>
        <time>2026-08-05T14:05:01Z</time>
      </trkpt>
      <trkpt lat="43.30305" lon="-2.00883">
        <ele>3.4</ele>
        <time>2026-08-05T14:05:02Z</time>
      </trkpt>
      <trkpt lat="43.30302" lon="-2.00886">
        <ele>3.6</ele>
        <time>2026-08-05T14:05:03Z</time>
      </trkpt>
      <trkpt lat="43.30299" lon="-2.0089">
        <ele>3.6</ele>
        <time>2026-08-05T14:05:04Z</time>
      </trkpt>
      <trkpt lat="43.30296" lon="-2.00894">
        <ele>3.6</ele>
        <time>2026-08-05T14:05:05Z</time>
      </trkpt>
      <trkpt lat="43.30293" lon="-2.00897">
        <ele>3.6</ele>
        <time>2026-08-05T14:05:06Z</time>
      </trkpt>
      <trkpt lat="43.3029" lon="-2.00901">
        <ele>3.4</ele>
        <time>2026-08-05T14:05:07Z</time>
      </trkpt>
      <trkpt lat="43.30288" lon="-2.00905">
        <ele>3.4</ele>
        <time>2026-08-05T14:05:08Z</time>
      </trkpt>
      <trkpt lat="43.30285" lon="-2.00909">
        <ele>3.4</ele>
        <time>2026-08-05T14:05:09Z</time>
      </trkpt>
      <trkpt lat="43.30282" lon="-2.00913">
        <ele>3.4</ele>
        <time>2026-08-05T14:05:10Z</time>
      </trkpt>
      <trkpt lat="43.30279" lon="-2.00917">
        <ele>3.2</ele>
        <time>2026-08-05T14:05:11Z</time>
      </trkpt>
      <trkpt lat="43.30276" lon="-2.0092">
        <ele>3.2</ele>
        <time>2026-08-05T14:05:12Z</time>
      </trkpt>
      <trkpt lat="43.30273" lon="-2.00924">
        <ele>3.2</ele>
        <time>2026-08-05T14:05:13Z</time>
      </trkpt>
      <trkpt lat="43.3027" lon="-2.00928">
        <ele>3.6</ele>
        <time>2026-08-05T14:05:14Z</time>
      </trkpt>
      <trkpt lat="43.30266" lon="-2.00933">
        <ele>4</ele>
        <time>2026-08-05T14:05:15Z</time>
      </trkpt>
      <trkpt lat="43.30263" lon="-2.00937">
        <ele>4</ele>
        <time>2026-08-05T14:05:16Z</time>
      </trkpt>
      <trkpt lat="43.3026" lon="-2.00941">
        <ele>4</ele>
        <time>2026-08-05T14:05:17Z</time>
      </trkpt>
      <trkpt lat="43.30257" lon="-2.00945">
        <ele>3.2</ele>
        <time>2026-08-05T14:05:18Z</time>
      </trkpt>
      <trkpt lat="43.30254" lon="-2.00949">
        <ele>3.2</ele>
        <time>2026-08-05T14:05:19Z</time>
      </trkpt>
      <trkpt lat="43.30251" lon="-2.00954">
        <ele>3.2</ele>
        <time>2026-08-05T14:05:20Z</time>
      </trkpt>
      <trkpt lat="43.30248" lon="-2.00958">
        <ele>3.6</ele>
        <time>2026-08-05T14:05:21Z</time>
      </trkpt>
      <trkpt lat="43.30245" lon="-2.00962">
        <ele>3.2</ele>
        <time>2026-08-05T14:05:22Z</time>
      </trkpt>
      <trkpt lat="43.30242" lon="-2.00965">
        <ele>3.2</ele>
        <time>2026-08-05T14:05:23Z</time>
      </trkpt>
      <trkpt lat="43.30239" lon="-2.00969">
        <ele>3.2</ele>
        <time>2026-08-05T14:05:24Z</time>
      </trkpt>
      <trkpt lat="43.30236" lon="-2.00973">
        <ele>3.2</ele>
        <time>2026-08-05T14:05:25Z</time>
      </trkpt>
      <trkpt lat="43.30233" lon="-2.00977">
        <ele>3.8</ele>
        <time>2026-08-05T14:05:26Z</time>
      </trkpt>
      <trkpt lat="43.3023" lon="-2.00981">
        <ele>3.8</ele>
        <time>2026-08-05T14:05:27Z</time>
      </trkpt>
      <trkpt lat="43.30226" lon="-2.00985">
        <ele>3.8</ele>
        <time>2026-08-05T14:05:28Z</time>
      </trkpt>
      <trkpt lat="43.30223" lon="-2.0099">
        <ele>3.8</ele>
        <time>2026-08-05T14:05:29Z</time>
      </trkpt>
      <trkpt lat="43.3022" lon="-2.00995">
        <ele>4.2</ele>
        <time>2026-08-05T14:05:30Z</time>
      </trkpt>
      <trkpt lat="43.30218" lon="-2.00999">
        <ele>4.2</ele>
        <time>2026-08-05T14:05:31Z</time>
      </trkpt>
      <trkpt lat="43.30215" lon="-2.01004">
        <ele>4.2</ele>
        <time>2026-08-05T14:05:32Z</time>
      </trkpt>
      <trkpt lat="43.30213" lon="-2.01009">
        <ele>4.2</ele>
        <time>2026-08-05T14:05:33Z</time>
      </trkpt>
      <trkpt lat="43.3021" lon="-2.01014">
        <ele>4.2</ele>
        <time>2026-08-05T14:05:34Z</time>
      </trkpt>
      <trkpt lat="43.30208" lon="-2.01019">
        <ele>4.2</ele>
        <time>2026-08-05T14:05:35Z</time>
      </trkpt>
      <trkpt lat="43.30206" lon="-2.01025">
        <ele>4.2</ele>
        <time>2026-08-05T14:05:36Z</time>
      </trkpt>
      <trkpt lat="43.30204" lon="-2.0103">
        <ele>4.2</ele>
        <time>2026-08-05T14:05:37Z</time>
      </trkpt>
      <trkpt lat="43.30203" lon="-2.01036">
        <ele>4</ele>
        <time>2026-08-05T14:05:38Z</time>
      </trkpt>
      <trkpt lat="43.30201" lon="-2.01041">
        <ele>4</ele>
        <time>2026-08-05T14:05:39Z</time>
      </trkpt>
      <trkpt lat="43.302" lon="-2.01047">
        <ele>4</ele>
        <time>2026-08-05T14:05:40Z</time>
      </trkpt>
      <trkpt lat="43.30199" lon="-2.01052">
        <ele>4</ele>
        <time>2026-08-05T14:05:41Z</time>
      </trkpt>
      <trkpt lat="43.30199" lon="-2.01057">
        <ele>4</ele>
        <time>2026-08-05T14:05:42Z</time>
      </trkpt>
      <trkpt lat="43.30199" lon="-2.01062">
        <ele>4.6</ele>
        <time>2026-08-05T14:05:43Z</time>
      </trkpt>
      <trkpt lat="43.30199" lon="-2.01067">
        <ele>4.6</ele>
        <time>2026-08-05T14:05:44Z</time>
      </trkpt>
      <trkpt lat="43.30199" lon="-2.0107">
        <ele>4.6</ele>
        <time>2026-08-05T14:05:45Z</time>
      </trkpt>
      <trkpt lat="43.30199" lon="-2.01074">
        <ele>4</ele>
        <time>2026-08-05T14:05:46Z</time>
      </trkpt>
      <trkpt lat="43.302" lon="-2.01078">
        <ele>5.4</ele>
        <time>2026-08-05T14:05:47Z</time>
      </trkpt>
      <trkpt lat="43.302" lon="-2.01082">
        <ele>5.4</ele>
        <time>2026-08-05T14:05:48Z</time>
      </trkpt>
      <trkpt lat="43.30201" lon="-2.01086">
        <ele>5.4</ele>
        <time>2026-08-05T14:05:49Z</time>
      </trkpt>
      <trkpt lat="43.30201" lon="-2.01091">
        <ele>5.4</ele>
        <time>2026-08-05T14:05:50Z</time>
      </trkpt>
      <trkpt lat="43.30202" lon="-2.01095">
        <ele>5.4</ele>
        <time>2026-08-05T14:05:51Z</time>
      </trkpt>
      <trkpt lat="43.30202" lon="-2.01098">
        <ele>4.6</ele>
        <time>2026-08-05T14:05:52Z</time>
      </trkpt>
      <trkpt lat="43.30202" lon="-2.01101">
        <ele>4.6</ele>
        <time>2026-08-05T14:05:53Z</time>
      </trkpt>
      <trkpt lat="43.30202" lon="-2.01102">
        <ele>4.6</ele>
        <time>2026-08-05T14:05:54Z</time>
      </trkpt>
      <trkpt lat="43.30202" lon="-2.01102">
        <ele>4.8</ele>
        <time>2026-08-05T14:05:55Z</time>
      </trkpt>
      <trkpt lat="43.302" lon="-2.01106">
        <ele>4.8</ele>
        <time>2026-08-05T14:06:27Z</time>
      </trkpt>
      <trkpt lat="43.30199" lon="-2.01106">
        <ele>4.8</ele>
        <time>2026-08-05T14:06:28Z</time>
      </trkpt>
      <trkpt lat="43.30197" lon="-2.01105">
        <ele>5</ele>
        <time>2026-08-05T14:06:29Z</time>
      </trkpt>
      <trkpt lat="43.30195" lon="-2.01103">
        <ele>5</ele>
        <time>2026-08-05T14:06:30Z</time>
      </trkpt>
      <trkpt lat="43.30194" lon="-2.011">
        <ele>5</ele>
        <time>2026-08-05T14:06:31Z</time>
      </trkpt>
      <trkpt lat="43.30192" lon="-2.01096">
        <ele>4.6</ele>
        <time>2026-08-05T14:06:32Z</time>
      </trkpt>
      <trkpt lat="43.3019" lon="-2.01092">
        <ele>4.6</ele>
        <time>2026-08-05T14:06:33Z</time>
      </trkpt>
      <trkpt lat="43.30188" lon="-2.01088">
        <ele>4.6</ele>
        <time>2026-08-05T14:06:34Z</time>
      </trkpt>
      <trkpt lat="43.30185" lon="-2.01085">
        <ele>4.6</ele>
        <time>2026-08-05T14:06:35Z</time>
      </trkpt>
      <trkpt lat="43.30181" lon="-2.01084">
        <ele>4.6</ele>
        <time>2026-08-05T14:06:36Z</time>
      </trkpt>
      <trkpt lat="43.30178" lon="-2.01084">
        <ele>5.4</ele>
        <time>2026-08-05T14:06:37Z</time>
      </trkpt>
      <trkpt lat="43.30174" lon="-2.01085">
        <ele>5.4</ele>
        <time>2026-08-05T14:06:38Z</time>
      </trkpt>
      <trkpt lat="43.30171" lon="-2.01087">
        <ele>5.4</ele>
        <time>2026-08-05T14:06:39Z</time>
      </trkpt>
      <trkpt lat="43.30168" lon="-2.0109">
        <ele>5.4</ele>
        <time>2026-08-05T14:06:40Z</time>
      </trkpt>
      <trkpt lat="43.30166" lon="-2.01093">
        <ele>6</ele>
        <time>2026-08-05T14:06:41Z</time>
      </trkpt>
      <trkpt lat="43.30164" lon="-2.01097">
        <ele>6.2</ele>
        <time>2026-08-05T14:06:42Z</time>
      </trkpt>
      <trkpt lat="43.30162" lon="-2.01101">
        <ele>6.2</ele>
        <time>2026-08-05T14:06:43Z</time>
      </trkpt>
      <trkpt lat="43.3016" lon="-2.01105">
        <ele>6.2</ele>
        <time>2026-08-05T14:06:44Z</time>
      </trkpt>
      <trkpt lat="43.30158" lon="-2.01109">
        <ele>6.2</ele>
        <time>2026-08-05T14:06:45Z</time>
      </trkpt>
      <trkpt lat="43.30156" lon="-2.01113">
        <ele>6.2</ele>
        <time>2026-08-05T14:06:46Z</time>
      </trkpt>
      <trkpt lat="43.30155" lon="-2.01117">
        <ele>7</ele>
        <time>2026-08-05T14:06:47Z</time>
      </trkpt>
      <trkpt lat="43.30153" lon="-2.01121">
        <ele>7.2</ele>
        <time>2026-08-05T14:06:48Z</time>
      </trkpt>
      <trkpt lat="43.30151" lon="-2.01125">
        <ele>7.2</ele>
        <time>2026-08-05T14:06:49Z</time>
      </trkpt>
      <trkpt lat="43.30149" lon="-2.01129">
        <ele>7.2</ele>
        <time>2026-08-05T14:06:50Z</time>
      </trkpt>
      <trkpt lat="43.30146" lon="-2.01132">
        <ele>7.4</ele>
        <time>2026-08-05T14:06:51Z</time>
      </trkpt>
      <trkpt lat="43.30144" lon="-2.01136">
        <ele>7.4</ele>
        <time>2026-08-05T14:06:52Z</time>
      </trkpt>
      <trkpt lat="43.30142" lon="-2.01139">
        <ele>7.8</ele>
        <time>2026-08-05T14:06:53Z</time>
      </trkpt>
      <trkpt lat="43.3014" lon="-2.01142">
        <ele>8</ele>
        <time>2026-08-05T14:06:54Z</time>
      </trkpt>
      <trkpt lat="43.30138" lon="-2.01146">
        <ele>8</ele>
        <time>2026-08-05T14:06:55Z</time>
      </trkpt>
      <trkpt lat="43.30136" lon="-2.0115">
        <ele>8</ele>
        <time>2026-08-05T14:06:56Z</time>
      </trkpt>
      <trkpt lat="43.30134" lon="-2.01154">
        <ele>8</ele>
        <time>2026-08-05T14:06:57Z</time>
      </trkpt>
      <trkpt lat="43.30132" lon="-2.01159">
        <ele>8</ele>
        <time>2026-08-05T14:06:58Z</time>
      </trkpt>
      <trkpt lat="43.30131" lon="-2.01164">
        <ele>8</ele>
        <time>2026-08-05T14:06:59Z</time>
      </trkpt>
      <trkpt lat="43.30128" lon="-2.01169">
        <ele>7.2</ele>
        <time>2026-08-05T14:07:00Z</time>
      </trkpt>
      <trkpt lat="43.30126" lon="-2.01174">
        <ele>7.2</ele>
        <time>2026-08-05T14:07:01Z</time>
      </trkpt>
      <trkpt lat="43.30124" lon="-2.0118">
        <ele>7</ele>
        <time>2026-08-05T14:07:02Z</time>
      </trkpt>
      <trkpt lat="43.30121" lon="-2.01185">
        <ele>5.8</ele>
        <time>2026-08-05T14:07:03Z</time>
      </trkpt>
      <trkpt lat="43.30119" lon="-2.0119">
        <ele>5.8</ele>
        <time>2026-08-05T14:07:04Z</time>
      </trkpt>
      <trkpt lat="43.30116" lon="-2.01196">
        <ele>5.8</ele>
        <time>2026-08-05T14:07:05Z</time>
      </trkpt>
      <trkpt lat="43.30114" lon="-2.01202">
        <ele>6.4</ele>
        <time>2026-08-05T14:07:06Z</time>
      </trkpt>
      <trkpt lat="43.30112" lon="-2.01207">
        <ele>7.2</ele>
        <time>2026-08-05T14:07:07Z</time>
      </trkpt>
      <trkpt lat="43.30109" lon="-2.01213">
        <ele>7.2</ele>
        <time>2026-08-05T14:07:08Z</time>
      </trkpt>
      <trkpt lat="43.30106" lon="-2.01219">
        <ele>7.2</ele>
        <time>2026-08-05T14:07:09Z</time>
      </trkpt>
      <trkpt lat="43.30104" lon="-2.01226">
        <ele>7.2</ele>
        <time>2026-08-05T14:07:10Z</time>
      </trkpt>
      <trkpt lat="43.30101" lon="-2.01232">
        <ele>6.2</ele>
        <time>2026-08-05T14:07:11Z</time>
      </trkpt>
      <trkpt lat="43.30097" lon="-2.01237">
        <ele>5.6</ele>
        <time>2026-08-05T14:07:12Z</time>
      </trkpt>
      <trkpt lat="43.30094" lon="-2.01243">
        <ele>5.6</ele>
        <time>2026-08-05T14:07:13Z</time>
      </trkpt>
      <trkpt lat="43.3009" lon="-2.01249">
        <ele>5.6</ele>
        <time>2026-08-05T14:07:14Z</time>
      </trkpt>
      <trkpt lat="43.30087" lon="-2.01256">
        <ele>5.6</ele>
        <time>2026-08-05T14:07:15Z</time>
      </trkpt>
      <trkpt lat="43.30083" lon="-2.01262">
        <ele>5.6</ele>
        <time>2026-08-05T14:07:16Z</time>
      </trkpt>
      <trkpt lat="43.3008" lon="-2.01268">
        <ele>3.8</ele>
        <time>2026-08-05T14:07:17Z</time>
      </trkpt>
      <trkpt lat="43.30076" lon="-2.01275">
        <ele>3.8</ele>
        <time>2026-08-05T14:07:18Z</time>
      </trkpt>
      <trkpt lat="43.30073" lon="-2.01281">
        <ele>3.8</ele>
        <time>2026-08-05T14:07:19Z</time>
      </trkpt>
      <trkpt lat="43.3007" lon="-2.01289">
        <ele>3.8</ele>
        <time>2026-08-05T14:07:20Z</time>
      </trkpt>
      <trkpt lat="43.30066" lon="-2.01296">
        <ele>3.8</ele>
        <time>2026-08-05T14:07:21Z</time>
      </trkpt>
      <trkpt lat="43.30063" lon="-2.01303">
        <ele>3.8</ele>
        <time>2026-08-05T14:07:22Z</time>
      </trkpt>
      <trkpt lat="43.3006" lon="-2.01311">
        <ele>3.8</ele>
        <time>2026-08-05T14:07:23Z</time>
      </trkpt>
      <trkpt lat="43.30057" lon="-2.01318">
        <ele>3.8</ele>
        <time>2026-08-05T14:07:24Z</time>
      </trkpt>
      <trkpt lat="43.30055" lon="-2.01326">
        <ele>2.8</ele>
        <time>2026-08-05T14:07:25Z</time>
      </trkpt>
      <trkpt lat="43.30053" lon="-2.01334">
        <ele>2.8</ele>
        <time>2026-08-05T14:07:26Z</time>
      </trkpt>
      <trkpt lat="43.30051" lon="-2.01342">
        <ele>2.8</ele>
        <time>2026-08-05T14:07:27Z</time>
      </trkpt>
      <trkpt lat="43.30048" lon="-2.01349">
        <ele>3.2</ele>
        <time>2026-08-05T14:07:28Z</time>
      </trkpt>
      <trkpt lat="43.30045" lon="-2.01357">
        <ele>3.2</ele>
        <time>2026-08-05T14:07:29Z</time>
      </trkpt>
      <trkpt lat="43.30043" lon="-2.01365">
        <ele>3.2</ele>
        <time>2026-08-05T14:07:30Z</time>
      </trkpt>
      <trkpt lat="43.3004" lon="-2.01373">
        <ele>3.2</ele>
        <time>2026-08-05T14:07:31Z</time>
      </trkpt>
      <trkpt lat="43.30038" lon="-2.01381">
        <ele>2.4</ele>
        <time>2026-08-05T14:07:32Z</time>
      </trkpt>
      <trkpt lat="43.30037" lon="-2.01389">
        <ele>2.4</ele>
        <time>2026-08-05T14:07:33Z</time>
      </trkpt>
      <trkpt lat="43.30035" lon="-2.01396">
        <ele>2.4</ele>
        <time>2026-08-05T14:07:34Z</time>
      </trkpt>
      <trkpt lat="43.30034" lon="-2.01404">
        <ele>2.4</ele>
        <time>2026-08-05T14:07:35Z</time>
      </trkpt>
      <trkpt lat="43.30033" lon="-2.01411">
        <ele>2.8</ele>
        <time>2026-08-05T14:07:36Z</time>
      </trkpt>
      <trkpt lat="43.30032" lon="-2.01419">
        <ele>3</ele>
        <time>2026-08-05T14:07:37Z</time>
      </trkpt>
      <trkpt lat="43.3003" lon="-2.01426">
        <ele>3</ele>
        <time>2026-08-05T14:07:38Z</time>
      </trkpt>
      <trkpt lat="43.30029" lon="-2.01434">
        <ele>3</ele>
        <time>2026-08-05T14:07:39Z</time>
      </trkpt>
      <trkpt lat="43.30028" lon="-2.01441">
        <ele>2</ele>
        <time>2026-08-05T14:07:40Z</time>
      </trkpt>
      <trkpt lat="43.30027" lon="-2.01449">
        <ele>2</ele>
        <time>2026-08-05T14:07:41Z</time>
      </trkpt>
      <trkpt lat="43.30027" lon="-2.01457">
        <ele>2</ele>
        <time>2026-08-05T14:07:42Z</time>
      </trkpt>
      <trkpt lat="43.30027" lon="-2.01464">
        <ele>2.4</ele>
        <time>2026-08-05T14:07:43Z</time>
      </trkpt>
      <trkpt lat="43.30028" lon="-2.01471">
        <ele>2.6</ele>
        <time>2026-08-05T14:07:44Z</time>
      </trkpt>
      <trkpt lat="43.30029" lon="-2.01479">
        <ele>3</ele>
        <time>2026-08-05T14:07:45Z</time>
      </trkpt>
      <trkpt lat="43.3003" lon="-2.01486">
        <ele>3.2</ele>
        <time>2026-08-05T14:07:46Z</time>
      </trkpt>
      <trkpt lat="43.30032" lon="-2.01493">
        <ele>3.2</ele>
        <time>2026-08-05T14:07:47Z</time>
      </trkpt>
      <trkpt lat="43.30034" lon="-2.015">
        <ele>3.2</ele>
        <time>2026-08-05T14:07:48Z</time>
      </trkpt>
      <trkpt lat="43.30036" lon="-2.01507">
        <ele>2.6</ele>
        <time>2026-08-05T14:07:49Z</time>
      </trkpt>
      <trkpt lat="43.30038" lon="-2.01514">
        <ele>2.6</ele>
        <time>2026-08-05T14:07:50Z</time>
      </trkpt>
      <trkpt lat="43.3004" lon="-2.01521">
        <ele>2.6</ele>
        <time>2026-08-05T14:07:51Z</time>
      </trkpt>
      <trkpt lat="43.30041" lon="-2.01528">
        <ele>2.6</ele>
        <time>2026-08-05T14:07:52Z</time>
      </trkpt>
      <trkpt lat="43.30043" lon="-2.01535">
        <ele>3</ele>
        <time>2026-08-05T14:07:53Z</time>
      </trkpt>
      <trkpt lat="43.30044" lon="-2.01542">
        <ele>3</ele>
        <time>2026-08-05T14:07:54Z</time>
      </trkpt>
      <trkpt lat="43.30045" lon="-2.01549">
        <ele>3</ele>
        <time>2026-08-05T14:07:55Z</time>
      </trkpt>
      <trkpt lat="43.30046" lon="-2.01556">
        <ele>3</ele>
        <time>2026-08-05T14:07:56Z</time>
      </trkpt>
      <trkpt lat="43.30046" lon="-2.01564">
        <ele>3</ele>
        <time>2026-08-05T14:07:57Z</time>
      </trkpt>
      <trkpt lat="43.30046" lon="-2.01571">
        <ele>3</ele>
        <time>2026-08-05T14:07:58Z</time>
      </trkpt>
      <trkpt lat="43.30047" lon="-2.01577">
        <ele>3.2</ele>
        <time>2026-08-05T14:07:59Z</time>
      </trkpt>
      <trkpt lat="43.30047" lon="-2.01585">
        <ele>3.2</ele>
        <time>2026-08-05T14:08:00Z</time>
      </trkpt>
      <trkpt lat="43.30047" lon="-2.01591">
        <ele>3.2</ele>
        <time>2026-08-05T14:08:01Z</time>
      </trkpt>
      <trkpt lat="43.30046" lon="-2.01598">
        <ele>3</ele>
        <time>2026-08-05T14:08:02Z</time>
      </trkpt>
      <trkpt lat="43.30046" lon="-2.01605">
        <ele>3</ele>
        <time>2026-08-05T14:08:03Z</time>
      </trkpt>
      <trkpt lat="43.30046" lon="-2.01612">
        <ele>3</ele>
        <time>2026-08-05T14:08:04Z</time>
      </trkpt>
      <trkpt lat="43.30045" lon="-2.01619">
        <ele>3</ele>
        <time>2026-08-05T14:08:05Z</time>
      </trkpt>
      <trkpt lat="43.30044" lon="-2.01626">
        <ele>3.4</ele>
        <time>2026-08-05T14:08:06Z</time>
      </trkpt>
      <trkpt lat="43.30042" lon="-2.01632">
        <ele>3.4</ele>
        <time>2026-08-05T14:08:07Z</time>
      </trkpt>
      <trkpt lat="43.30041" lon="-2.01637">
        <ele>3.4</ele>
        <time>2026-08-05T14:08:08Z</time>
      </trkpt>
      <trkpt lat="43.3004" lon="-2.01643">
        <ele>3.4</ele>
        <time>2026-08-05T14:08:09Z</time>
      </trkpt>
      <trkpt lat="43.3004" lon="-2.01647">
        <ele>3.8</ele>
        <time>2026-08-05T14:08:10Z</time>
      </trkpt>
      <trkpt lat="43.30039" lon="-2.01651">
        <ele>4.8</ele>
        <time>2026-08-05T14:08:11Z</time>
      </trkpt>
      <trkpt lat="43.30038" lon="-2.01655">
        <ele>4.8</ele>
        <time>2026-08-05T14:08:12Z</time>
      </trkpt>
      <trkpt lat="43.30036" lon="-2.01659">
        <ele>5.2</ele>
        <time>2026-08-05T14:08:13Z</time>
      </trkpt>
      <trkpt lat="43.30035" lon="-2.01664">
        <ele>5.2</ele>
        <time>2026-08-05T14:08:14Z</time>
      </trkpt>
      <trkpt lat="43.30034" lon="-2.0167">
        <ele>5.2</ele>
        <time>2026-08-05T14:08:15Z</time>
      </trkpt>
      <trkpt lat="43.30033" lon="-2.01675">
        <ele>3</ele>
        <time>2026-08-05T14:08:16Z</time>
      </trkpt>
      <trkpt lat="43.30033" lon="-2.01681">
        <ele>3</ele>
        <time>2026-08-05T14:08:17Z</time>
      </trkpt>
      <trkpt lat="43.30032" lon="-2.01686">
        <ele>3</ele>
        <time>2026-08-05T14:08:18Z</time>
      </trkpt>
      <trkpt lat="43.30032" lon="-2.01692">
        <ele>3</ele>
        <time>2026-08-05T14:08:19Z</time>
      </trkpt>
      <trkpt lat="43.30032" lon="-2.01698">
        <ele>3</ele>
        <time>2026-08-05T14:08:20Z</time>
      </trkpt>
      <trkpt lat="43.30033" lon="-2.01704">
        <ele>3.4</ele>
        <time>2026-08-05T14:08:21Z</time>
      </trkpt>
      <trkpt lat="43.30034" lon="-2.0171">
        <ele>3.4</ele>
        <time>2026-08-05T14:08:22Z</time>
      </trkpt>
      <trkpt lat="43.30034" lon="-2.01716">
        <ele>3.4</ele>
        <time>2026-08-05T14:08:23Z</time>
      </trkpt>
      <trkpt lat="43.30035" lon="-2.01721">
        <ele>3.4</ele>
        <time>2026-08-05T14:08:24Z</time>
      </trkpt>
      <trkpt lat="43.30034" lon="-2.01727">
        <ele>3.4</ele>
        <time>2026-08-05T14:08:25Z</time>
      </trkpt>
      <trkpt lat="43.30034" lon="-2.01733">
        <ele>3.4</ele>
        <time>2026-08-05T14:08:26Z</time>
      </trkpt>
      <trkpt lat="43.30033" lon="-2.01739">
        <ele>3.4</ele>
        <time>2026-08-05T14:08:27Z</time>
      </trkpt>
      <trkpt lat="43.30032" lon="-2.01744">
        <ele>3.4</ele>
        <time>2026-08-05T14:08:28Z</time>
      </trkpt>
      <trkpt lat="43.30032" lon="-2.0175">
        <ele>3.4</ele>
        <time>2026-08-05T14:08:29Z</time>
      </trkpt>
      <trkpt lat="43.30031" lon="-2.01756">
        <ele>3.4</ele>
        <time>2026-08-05T14:08:30Z</time>
      </trkpt>
      <trkpt lat="43.3003" lon="-2.01761">
        <ele>2.8</ele>
        <time>2026-08-05T14:08:31Z</time>
      </trkpt>
      <trkpt lat="43.30029" lon="-2.01767">
        <ele>2.8</ele>
        <time>2026-08-05T14:08:32Z</time>
      </trkpt>
      <trkpt lat="43.30028" lon="-2.01773">
        <ele>2.8</ele>
        <time>2026-08-05T14:08:33Z</time>
      </trkpt>
      <trkpt lat="43.30026" lon="-2.01779">
        <ele>3.6</ele>
        <time>2026-08-05T14:08:34Z</time>
      </trkpt>
      <trkpt lat="43.30024" lon="-2.01783">
        <ele>3.6</ele>
        <time>2026-08-05T14:08:35Z</time>
      </trkpt>
      <trkpt lat="43.30023" lon="-2.01789">
        <ele>3.6</ele>
        <time>2026-08-05T14:08:36Z</time>
      </trkpt>
      <trkpt lat="43.30021" lon="-2.01794">
        <ele>3.6</ele>
        <time>2026-08-05T14:08:37Z</time>
      </trkpt>
      <trkpt lat="43.3002" lon="-2.018">
        <ele>3.6</ele>
        <time>2026-08-05T14:08:38Z</time>
      </trkpt>
      <trkpt lat="43.30019" lon="-2.01806">
        <ele>3.6</ele>
        <time>2026-08-05T14:08:39Z</time>
      </trkpt>
      <trkpt lat="43.30017" lon="-2.01812">
        <ele>4.4</ele>
        <time>2026-08-05T14:08:40Z</time>
      </trkpt>
      <trkpt lat="43.30015" lon="-2.01818">
        <ele>4.4</ele>
        <time>2026-08-05T14:08:41Z</time>
      </trkpt>
      <trkpt lat="43.30014" lon="-2.01824">
        <ele>4.6</ele>
        <time>2026-08-05T14:08:42Z</time>
      </trkpt>
      <trkpt lat="43.30013" lon="-2.0183">
        <ele>4.6</ele>
        <time>2026-08-05T14:08:43Z</time>
      </trkpt>
      <trkpt lat="43.30012" lon="-2.01836">
        <ele>4.6</ele>
        <time>2026-08-05T14:08:44Z</time>
      </trkpt>
      <trkpt lat="43.3001" lon="-2.01842">
        <ele>4.6</ele>
        <time>2026-08-05T14:08:45Z</time>
      </trkpt>
      <trkpt lat="43.30009" lon="-2.01847">
        <ele>4.6</ele>
        <time>2026-08-05T14:08:46Z</time>
      </trkpt>
      <trkpt lat="43.30009" lon="-2.01853">
        <ele>4.8</ele>
        <time>2026-08-05T14:08:47Z</time>
      </trkpt>
      <trkpt lat="43.3001" lon="-2.01858">
        <ele>4.8</ele>
        <time>2026-08-05T14:08:48Z</time>
      </trkpt>
      <trkpt lat="43.30011" lon="-2.01863">
        <ele>4.8</ele>
        <time>2026-08-05T14:08:49Z</time>
      </trkpt>
      <trkpt lat="43.30012" lon="-2.01867">
        <ele>4.8</ele>
        <time>2026-08-05T14:08:50Z</time>
      </trkpt>
      <trkpt lat="43.30013" lon="-2.01871">
        <ele>5.6</ele>
        <time>2026-08-05T14:08:51Z</time>
      </trkpt>
      <trkpt lat="43.30015" lon="-2.01873">
        <ele>5.6</ele>
        <time>2026-08-05T14:08:52Z</time>
      </trkpt>
      <trkpt lat="43.30017" lon="-2.01876">
        <ele>5.6</ele>
        <time>2026-08-05T14:08:53Z</time>
      </trkpt>
      <trkpt lat="43.3002" lon="-2.01879">
        <ele>5.4</ele>
        <time>2026-08-05T14:08:54Z</time>
      </trkpt>
      <trkpt lat="43.30022" lon="-2.01882">
        <ele>5</ele>
        <time>2026-08-05T14:08:55Z</time>
      </trkpt>
      <trkpt lat="43.30024" lon="-2.01885">
        <ele>5</ele>
        <time>2026-08-05T14:08:56Z</time>
      </trkpt>
      <trkpt lat="43.30027" lon="-2.01889">
        <ele>5</ele>
        <time>2026-08-05T14:08:57Z</time>
      </trkpt>
      <trkpt lat="43.30029" lon="-2.01893">
        <ele>5</ele>
        <time>2026-08-05T14:08:58Z</time>
      </trkpt>
      <trkpt lat="43.30032" lon="-2.01898">
        <ele>5</ele>
        <time>2026-08-05T14:08:59Z</time>
      </trkpt>
      <trkpt lat="43.30034" lon="-2.01903">
        <ele>5.8</ele>
        <time>2026-08-05T14:09:00Z</time>
      </trkpt>
      <trkpt lat="43.30036" lon="-2.01908">
        <ele>5.8</ele>
        <time>2026-08-05T14:09:01Z</time>
      </trkpt>
      <trkpt lat="43.30039" lon="-2.01913">
        <ele>5.8</ele>
        <time>2026-08-05T14:09:02Z</time>
      </trkpt>
      <trkpt lat="43.30041" lon="-2.01918">
        <ele>5.8</ele>
        <time>2026-08-05T14:09:03Z</time>
      </trkpt>
      <trkpt lat="43.30043" lon="-2.01923">
        <ele>6.2</ele>
        <time>2026-08-05T14:09:04Z</time>
      </trkpt>
      <trkpt lat="43.30044" lon="-2.01928">
        <ele>6.4</ele>
        <time>2026-08-05T14:09:05Z</time>
      </trkpt>
      <trkpt lat="43.30047" lon="-2.01933">
        <ele>7</ele>
        <time>2026-08-05T14:09:06Z</time>
      </trkpt>
      <trkpt lat="43.30048" lon="-2.01939">
        <ele>7.4</ele>
        <time>2026-08-05T14:09:07Z</time>
      </trkpt>
      <trkpt lat="43.30048" lon="-2.01944">
        <ele>7.4</ele>
        <time>2026-08-05T14:09:08Z</time>
      </trkpt>
      <trkpt lat="43.30049" lon="-2.0195">
        <ele>7.4</ele>
        <time>2026-08-05T14:09:09Z</time>
      </trkpt>
      <trkpt lat="43.30048" lon="-2.01955">
        <ele>7.4</ele>
        <time>2026-08-05T14:09:10Z</time>
      </trkpt>
      <trkpt lat="43.30048" lon="-2.0196">
        <ele>7.4</ele>
        <time>2026-08-05T14:09:11Z</time>
      </trkpt>
      <trkpt lat="43.30048" lon="-2.01965">
        <ele>8.2</ele>
        <time>2026-08-05T14:09:12Z</time>
      </trkpt>
      <trkpt lat="43.30049" lon="-2.0197">
        <ele>8.6</ele>
        <time>2026-08-05T14:09:13Z</time>
      </trkpt>
      <trkpt lat="43.30049" lon="-2.01975">
        <ele>8.6</ele>
        <time>2026-08-05T14:09:14Z</time>
      </trkpt>
      <trkpt lat="43.30049" lon="-2.0198">
        <ele>8.6</ele>
        <time>2026-08-05T14:09:15Z</time>
      </trkpt>
      <trkpt lat="43.30049" lon="-2.01985">
        <ele>8.6</ele>
        <time>2026-08-05T14:09:16Z</time>
      </trkpt>
      <trkpt lat="43.30048" lon="-2.01989">
        <ele>9.2</ele>
        <time>2026-08-05T14:09:17Z</time>
      </trkpt>
      <trkpt lat="43.30048" lon="-2.01994">
        <ele>9.4</ele>
        <time>2026-08-05T14:09:18Z</time>
      </trkpt>
      <trkpt lat="43.30048" lon="-2.01999">
        <ele>9.4</ele>
        <time>2026-08-05T14:09:19Z</time>
      </trkpt>
      <trkpt lat="43.30047" lon="-2.02003">
        <ele>9.4</ele>
        <time>2026-08-05T14:09:20Z</time>
      </trkpt>
      <trkpt lat="43.30046" lon="-2.02008">
        <ele>9.4</ele>
        <time>2026-08-05T14:09:21Z</time>
      </trkpt>
      <trkpt lat="43.30046" lon="-2.02013">
        <ele>10</ele>
        <time>2026-08-05T14:09:22Z</time>
      </trkpt>
      <trkpt lat="43.30045" lon="-2.02017">
        <ele>10.2</ele>
        <time>2026-08-05T14:09:23Z</time>
      </trkpt>
      <trkpt lat="43.30044" lon="-2.02022">
        <ele>10.4</ele>
        <time>2026-08-05T14:09:24Z</time>
      </trkpt>
      <trkpt lat="43.30043" lon="-2.02027">
        <ele>10.4</ele>
        <time>2026-08-05T14:09:25Z</time>
      </trkpt>
      <trkpt lat="43.30042" lon="-2.02031">
        <ele>10.6</ele>
        <time>2026-08-05T14:09:26Z</time>
      </trkpt>
      <trkpt lat="43.30041" lon="-2.02036">
        <ele>11</ele>
        <time>2026-08-05T14:09:27Z</time>
      </trkpt>
      <trkpt lat="43.3004" lon="-2.02041">
        <ele>11.4</ele>
        <time>2026-08-05T14:09:28Z</time>
      </trkpt>
      <trkpt lat="43.30039" lon="-2.02045">
        <ele>11.4</ele>
        <time>2026-08-05T14:09:29Z</time>
      </trkpt>
      <trkpt lat="43.30038" lon="-2.02049">
        <ele>11.4</ele>
        <time>2026-08-05T14:09:30Z</time>
      </trkpt>
      <trkpt lat="43.30037" lon="-2.02053">
        <ele>11.4</ele>
        <time>2026-08-05T14:09:31Z</time>
      </trkpt>
      <trkpt lat="43.30036" lon="-2.02058">
        <ele>11.4</ele>
        <time>2026-08-05T14:09:32Z</time>
      </trkpt>
      <trkpt lat="43.30035" lon="-2.02062">
        <ele>11.4</ele>
        <time>2026-08-05T14:09:33Z</time>
      </trkpt>
      <trkpt lat="43.30034" lon="-2.02067">
        <ele>12</ele>
        <time>2026-08-05T14:09:34Z</time>
      </trkpt>
      <trkpt lat="43.30033" lon="-2.02071">
        <ele>12.2</ele>
        <time>2026-08-05T14:09:35Z</time>
      </trkpt>
      <trkpt lat="43.30032" lon="-2.02076">
        <ele>12.2</ele>
        <time>2026-08-05T14:09:36Z</time>
      </trkpt>
      <trkpt lat="43.3003" lon="-2.0208">
        <ele>12.6</ele>
        <time>2026-08-05T14:09:37Z</time>
      </trkpt>
      <trkpt lat="43.30029" lon="-2.02084">
        <ele>12.6</ele>
        <time>2026-08-05T14:09:38Z</time>
      </trkpt>
      <trkpt lat="43.30028" lon="-2.02088">
        <ele>12.6</ele>
        <time>2026-08-05T14:09:39Z</time>
      </trkpt>
      <trkpt lat="43.30027" lon="-2.02092">
        <ele>12.6</ele>
        <time>2026-08-05T14:09:40Z</time>
      </trkpt>
      <trkpt lat="43.30026" lon="-2.02097">
        <ele>13.4</ele>
        <time>2026-08-05T14:09:41Z</time>
      </trkpt>
      <trkpt lat="43.30025" lon="-2.02101">
        <ele>14</ele>
        <time>2026-08-05T14:09:42Z</time>
      </trkpt>
      <trkpt lat="43.30024" lon="-2.02105">
        <ele>14</ele>
        <time>2026-08-05T14:09:43Z</time>
      </trkpt>
      <trkpt lat="43.30023" lon="-2.02109">
        <ele>14</ele>
        <time>2026-08-05T14:09:44Z</time>
      </trkpt>
      <trkpt lat="43.30022" lon="-2.02113">
        <ele>13.4</ele>
        <time>2026-08-05T14:09:45Z</time>
      </trkpt>
      <trkpt lat="43.30021" lon="-2.02118">
        <ele>13.4</ele>
        <time>2026-08-05T14:09:46Z</time>
      </trkpt>
      <trkpt lat="43.30019" lon="-2.02122">
        <ele>13.4</ele>
        <time>2026-08-05T14:09:47Z</time>
      </trkpt>
      <trkpt lat="43.30017" lon="-2.02125">
        <ele>13.4</ele>
        <time>2026-08-05T14:09:48Z</time>
      </trkpt>
      <trkpt lat="43.30015" lon="-2.02128">
        <ele>14</ele>
        <time>2026-08-05T14:09:49Z</time>
      </trkpt>
      <trkpt lat="43.30012" lon="-2.02128">
        <ele>14</ele>
        <time>2026-08-05T14:09:50Z</time>
      </trkpt>
      <trkpt lat="43.30009" lon="-2.02128">
        <ele>14</ele>
        <time>2026-08-05T14:09:51Z</time>
      </trkpt>
      <trkpt lat="43.30006" lon="-2.02126">
        <ele>14</ele>
        <time>2026-08-05T14:09:52Z</time>
      </trkpt>
      <trkpt lat="43.30003" lon="-2.02125">
        <ele>14</ele>
        <time>2026-08-05T14:09:53Z</time>
      </trkpt>
      <trkpt lat="43.3" lon="-2.02124">
        <ele>14</ele>
        <time>2026-08-05T14:09:54Z</time>
      </trkpt>
      <trkpt lat="43.29997" lon="-2.02123">
        <ele>14</ele>
        <time>2026-08-05T14:09:55Z</time>
      </trkpt>
      <trkpt lat="43.29994" lon="-2.02122">
        <ele>14.2</ele>
        <time>2026-08-05T14:09:56Z</time>
      </trkpt>
      <trkpt lat="43.29991" lon="-2.02122">
        <ele>14.2</ele>
        <time>2026-08-05T14:09:57Z</time>
      </trkpt>
      <trkpt lat="43.29988" lon="-2.02121">
        <ele>14.2</ele>
        <time>2026-08-05T14:09:58Z</time>
      </trkpt>
      <trkpt lat="43.29985" lon="-2.02121">
        <ele>14.2</ele>
        <time>2026-08-05T14:09:59Z</time>
      </trkpt>
      <trkpt lat="43.29982" lon="-2.0212">
        <ele>13.8</ele>
        <time>2026-08-05T14:10:00Z</time>
      </trkpt>
      <trkpt lat="43.29978" lon="-2.0212">
        <ele>13.8</ele>
        <time>2026-08-05T14:10:01Z</time>
      </trkpt>
      <trkpt lat="43.29975" lon="-2.02119">
        <ele>14.2</ele>
        <time>2026-08-05T14:10:02Z</time>
      </trkpt>
      <trkpt lat="43.29972" lon="-2.02118">
        <ele>14.2</ele>
        <time>2026-08-05T14:10:03Z</time>
      </trkpt>
      <trkpt lat="43.29969" lon="-2.02117">
        <ele>14.2</ele>
        <time>2026-08-05T14:10:04Z</time>
      </trkpt>
      <trkpt lat="43.29966" lon="-2.02116">
        <ele>13.6</ele>
        <time>2026-08-05T14:10:05Z</time>
      </trkpt>
      <trkpt lat="43.29963" lon="-2.02115">
        <ele>13.6</ele>
        <time>2026-08-05T14:10:06Z</time>
      </trkpt>
      <trkpt lat="43.2996" lon="-2.02114">
        <ele>13.6</ele>
        <time>2026-08-05T14:10:07Z</time>
      </trkpt>
      <trkpt lat="43.29957" lon="-2.02113">
        <ele>13.6</ele>
        <time>2026-08-05T14:10:08Z</time>
      </trkpt>
      <trkpt lat="43.29953" lon="-2.02112">
        <ele>14.6</ele>
        <time>2026-08-05T14:10:09Z</time>
      </trkpt>
      <trkpt lat="43.2995" lon="-2.02111">
        <ele>14.6</ele>
        <time>2026-08-05T14:10:10Z</time>
      </trkpt>
      <trkpt lat="43.29947" lon="-2.0211">
        <ele>14.6</ele>
        <time>2026-08-05T14:10:11Z</time>
      </trkpt>
      <trkpt lat="43.29943" lon="-2.02108">
        <ele>14.6</ele>
        <time>2026-08-05T14:10:12Z</time>
      </trkpt>
      <trkpt lat="43.2994" lon="-2.02107">
        <ele>14.6</ele>
        <time>2026-08-05T14:10:13Z</time>
      </trkpt>
      <trkpt lat="43.29936" lon="-2.02105">
        <ele>14.6</ele>
        <time>2026-08-05T14:10:14Z</time>
      </trkpt>
      <trkpt lat="43.29933" lon="-2.02103">
        <ele>14.6</ele>
        <time>2026-08-05T14:10:15Z</time>
      </trkpt>
      <trkpt lat="43.29929" lon="-2.02102">
        <ele>14.6</ele>
        <time>2026-08-05T14:10:16Z</time>
      </trkpt>
      <trkpt lat="43.29926" lon="-2.021">
        <ele>14.6</ele>
        <time>2026-08-05T14:10:17Z</time>
      </trkpt>
      <trkpt lat="43.29923" lon="-2.02099">
        <ele>14.6</ele>
        <time>2026-08-05T14:10:18Z</time>
      </trkpt>
      <trkpt lat="43.29919" lon="-2.02098">
        <ele>14.4</ele>
        <time>2026-08-05T14:10:19Z</time>
      </trkpt>
      <trkpt lat="43.29916" lon="-2.02098">
        <ele>14.8</ele>
        <time>2026-08-05T14:10:20Z</time>
      </trkpt>
      <trkpt lat="43.29913" lon="-2.02098">
        <ele>14.8</ele>
        <time>2026-08-05T14:10:21Z</time>
      </trkpt>
      <trkpt lat="43.2991" lon="-2.02098">
        <ele>14.8</ele>
        <time>2026-08-05T14:10:22Z</time>
      </trkpt>
      <trkpt lat="43.29908" lon="-2.02098">
        <ele>14.8</ele>
        <time>2026-08-05T14:10:23Z</time>
      </trkpt>
      <trkpt lat="43.29905" lon="-2.02098">
        <ele>14.6</ele>
        <time>2026-08-05T14:10:24Z</time>
      </trkpt>
      <trkpt lat="43.29902" lon="-2.02097">
        <ele>14.6</ele>
        <time>2026-08-05T14:10:25Z</time>
      </trkpt>
      <trkpt lat="43.29899" lon="-2.02097">
        <ele>14.6</ele>
        <time>2026-08-05T14:10:26Z</time>
      </trkpt>
      <trkpt lat="43.29894" lon="-2.02097">
        <ele>15.4</ele>
        <time>2026-08-05T14:10:27Z</time>
      </trkpt>
      <trkpt lat="43.2989" lon="-2.02096">
        <ele>15.4</ele>
        <time>2026-08-05T14:10:28Z</time>
      </trkpt>
      <trkpt lat="43.29886" lon="-2.02095">
        <ele>15.4</ele>
        <time>2026-08-05T14:10:29Z</time>
      </trkpt>
      <trkpt lat="43.29881" lon="-2.02094">
        <ele>15.6</ele>
        <time>2026-08-05T14:10:30Z</time>
      </trkpt>
      <trkpt lat="43.29878" lon="-2.02093">
        <ele>15.6</ele>
        <time>2026-08-05T14:10:31Z</time>
      </trkpt>
      <trkpt lat="43.29875" lon="-2.02092">
        <ele>15.6</ele>
        <time>2026-08-05T14:10:32Z</time>
      </trkpt>
      <trkpt lat="43.29873" lon="-2.02091">
        <ele>15.2</ele>
        <time>2026-08-05T14:10:33Z</time>
      </trkpt>
      <trkpt lat="43.2987" lon="-2.0209">
        <ele>15.2</ele>
        <time>2026-08-05T14:10:34Z</time>
      </trkpt>
      <trkpt lat="43.29868" lon="-2.02088">
        <ele>15.2</ele>
        <time>2026-08-05T14:10:35Z</time>
      </trkpt>
      <trkpt lat="43.29864" lon="-2.02086">
        <ele>17.6</ele>
        <time>2026-08-05T14:10:36Z</time>
      </trkpt>
      <trkpt lat="43.29861" lon="-2.02084">
        <ele>17.6</ele>
        <time>2026-08-05T14:10:37Z</time>
      </trkpt>
      <trkpt lat="43.29857" lon="-2.02083">
        <ele>17.6</ele>
        <time>2026-08-05T14:10:38Z</time>
      </trkpt>
      <trkpt lat="43.29854" lon="-2.02081">
        <ele>16.6</ele>
        <time>2026-08-05T14:10:39Z</time>
      </trkpt>
      <trkpt lat="43.29851" lon="-2.0208">
        <ele>16.2</ele>
        <time>2026-08-05T14:10:40Z</time>
      </trkpt>
      <trkpt lat="43.29848" lon="-2.02078">
        <ele>15.2</ele>
        <time>2026-08-05T14:10:41Z</time>
      </trkpt>
      <trkpt lat="43.29844" lon="-2.02076">
        <ele>15.2</ele>
        <time>2026-08-05T14:10:42Z</time>
      </trkpt>
      <trkpt lat="43.29841" lon="-2.02074">
        <ele>15.2</ele>
        <time>2026-08-05T14:10:43Z</time>
      </trkpt>
      <trkpt lat="43.29838" lon="-2.0207">
        <ele>16.2</ele>
        <time>2026-08-05T14:10:44Z</time>
      </trkpt>
      <trkpt lat="43.29835" lon="-2.02067">
        <ele>17</ele>
        <time>2026-08-05T14:10:45Z</time>
      </trkpt>
      <trkpt lat="43.29832" lon="-2.02064">
        <ele>17.2</ele>
        <time>2026-08-05T14:10:46Z</time>
      </trkpt>
      <trkpt lat="43.29829" lon="-2.02062">
        <ele>17.2</ele>
        <time>2026-08-05T14:10:47Z</time>
      </trkpt>
      <trkpt lat="43.29826" lon="-2.0206">
        <ele>17.2</ele>
        <time>2026-08-05T14:10:48Z</time>
      </trkpt>
      <trkpt lat="43.29823" lon="-2.02057">
        <ele>17.2</ele>
        <time>2026-08-05T14:10:49Z</time>
      </trkpt>
      <trkpt lat="43.29821" lon="-2.02055">
        <ele>17.2</ele>
        <time>2026-08-05T14:10:50Z</time>
      </trkpt>
      <trkpt lat="43.29818" lon="-2.02053">
        <ele>17.2</ele>
        <time>2026-08-05T14:10:51Z</time>
      </trkpt>
      <trkpt lat="43.29816" lon="-2.02051">
        <ele>18.2</ele>
        <time>2026-08-05T14:10:52Z</time>
      </trkpt>
      <trkpt lat="43.29813" lon="-2.02049">
        <ele>18.2</ele>
        <time>2026-08-05T14:10:53Z</time>
      </trkpt>
      <trkpt lat="43.29809" lon="-2.02048">
        <ele>18.2</ele>
        <time>2026-08-05T14:10:54Z</time>
      </trkpt>
      <trkpt lat="43.29806" lon="-2.02046">
        <ele>17.6</ele>
        <time>2026-08-05T14:10:55Z</time>
      </trkpt>
      <trkpt lat="43.29802" lon="-2.02045">
        <ele>17.4</ele>
        <time>2026-08-05T14:10:56Z</time>
      </trkpt>
      <trkpt lat="43.29799" lon="-2.02043">
        <ele>17.4</ele>
        <time>2026-08-05T14:10:57Z</time>
      </trkpt>
      <trkpt lat="43.29796" lon="-2.02042">
        <ele>17.4</ele>
        <time>2026-08-05T14:10:58Z</time>
      </trkpt>
      <trkpt lat="43.29793" lon="-2.02042">
        <ele>17.4</ele>
        <time>2026-08-05T14:10:59Z</time>
      </trkpt>
      <trkpt lat="43.29789" lon="-2.0204">
        <ele>17.2</ele>
        <time>2026-08-05T14:11:00Z</time>
      </trkpt>
      <trkpt lat="43.29785" lon="-2.0204">
        <ele>17.6</ele>
        <time>2026-08-05T14:11:01Z</time>
      </trkpt>
      <trkpt lat="43.29782" lon="-2.02039">
        <ele>17.6</ele>
        <time>2026-08-05T14:11:02Z</time>
      </trkpt>
      <trkpt lat="43.29778" lon="-2.02038">
        <ele>17.6</ele>
        <time>2026-08-05T14:11:03Z</time>
      </trkpt>
      <trkpt lat="43.29773" lon="-2.02037">
        <ele>17.6</ele>
        <time>2026-08-05T14:11:04Z</time>
      </trkpt>
      <trkpt lat="43.29769" lon="-2.02037">
        <ele>17</ele>
        <time>2026-08-05T14:11:05Z</time>
      </trkpt>
      <trkpt lat="43.29765" lon="-2.02037">
        <ele>17</ele>
        <time>2026-08-05T14:11:06Z</time>
      </trkpt>
      <trkpt lat="43.2976" lon="-2.02037">
        <ele>17</ele>
        <time>2026-08-05T14:11:07Z</time>
      </trkpt>
      <trkpt lat="43.29756" lon="-2.02037">
        <ele>17</ele>
        <time>2026-08-05T14:11:08Z</time>
      </trkpt>
      <trkpt lat="43.29752" lon="-2.02038">
        <ele>17.6</ele>
        <time>2026-08-05T14:11:09Z</time>
      </trkpt>
      <trkpt lat="43.29749" lon="-2.02038">
        <ele>17.6</ele>
        <time>2026-08-05T14:11:10Z</time>
      </trkpt>
      <trkpt lat="43.29746" lon="-2.02038">
        <ele>17.6</ele>
        <time>2026-08-05T14:11:11Z</time>
      </trkpt>
      <trkpt lat="43.29743" lon="-2.02037">
        <ele>17.6</ele>
        <time>2026-08-05T14:11:12Z</time>
      </trkpt>
      <trkpt lat="43.29739" lon="-2.02037">
        <ele>17.6</ele>
        <time>2026-08-05T14:11:13Z</time>
      </trkpt>
      <trkpt lat="43.29735" lon="-2.02038">
        <ele>17.6</ele>
        <time>2026-08-05T14:11:14Z</time>
      </trkpt>
      <trkpt lat="43.29733" lon="-2.02038">
        <ele>18.6</ele>
        <time>2026-08-05T14:11:15Z</time>
      </trkpt>
      <trkpt lat="43.29729" lon="-2.02036">
        <ele>18.6</ele>
        <time>2026-08-05T14:11:16Z</time>
      </trkpt>
      <trkpt lat="43.29726" lon="-2.02036">
        <ele>18.8</ele>
        <time>2026-08-05T14:11:17Z</time>
      </trkpt>
      <trkpt lat="43.29724" lon="-2.02036">
        <ele>18.8</ele>
        <time>2026-08-05T14:11:18Z</time>
      </trkpt>
      <trkpt lat="43.29721" lon="-2.02037">
        <ele>19.6</ele>
        <time>2026-08-05T14:11:19Z</time>
      </trkpt>
      <trkpt lat="43.29718" lon="-2.02038">
        <ele>20.2</ele>
        <time>2026-08-05T14:11:20Z</time>
      </trkpt>
      <trkpt lat="43.29716" lon="-2.0204">
        <ele>20.6</ele>
        <time>2026-08-05T14:11:21Z</time>
      </trkpt>
      <trkpt lat="43.29712" lon="-2.02042">
        <ele>20.6</ele>
        <time>2026-08-05T14:11:22Z</time>
      </trkpt>
      <trkpt lat="43.29708" lon="-2.02045">
        <ele>20.6</ele>
        <time>2026-08-05T14:11:23Z</time>
      </trkpt>
      <trkpt lat="43.29706" lon="-2.02048">
        <ele>20.6</ele>
        <time>2026-08-05T14:11:24Z</time>
      </trkpt>
      <trkpt lat="43.29704" lon="-2.02051">
        <ele>20.4</ele>
        <time>2026-08-05T14:11:25Z</time>
      </trkpt>
      <trkpt lat="43.29702" lon="-2.02053">
        <ele>20.2</ele>
        <time>2026-08-05T14:11:26Z</time>
      </trkpt>
      <trkpt lat="43.297" lon="-2.02056">
        <ele>20.2</ele>
        <time>2026-08-05T14:11:27Z</time>
      </trkpt>
      <trkpt lat="43.29699" lon="-2.02059">
        <ele>20.2</ele>
        <time>2026-08-05T14:11:28Z</time>
      </trkpt>
      <trkpt lat="43.29698" lon="-2.02061">
        <ele>21</ele>
        <time>2026-08-05T14:11:29Z</time>
      </trkpt>
      <trkpt lat="43.29698" lon="-2.02065">
        <ele>21.4</ele>
        <time>2026-08-05T14:11:30Z</time>
      </trkpt>
      <trkpt lat="43.29698" lon="-2.02068">
        <ele>21.4</ele>
        <time>2026-08-05T14:11:31Z</time>
      </trkpt>
      <trkpt lat="43.29697" lon="-2.02072">
        <ele>21.4</ele>
        <time>2026-08-05T14:11:32Z</time>
      </trkpt>
      <trkpt lat="43.29696" lon="-2.02076">
        <ele>20.4</ele>
        <time>2026-08-05T14:11:33Z</time>
      </trkpt>
      <trkpt lat="43.29695" lon="-2.0208">
        <ele>19.8</ele>
        <time>2026-08-05T14:11:34Z</time>
      </trkpt>
      <trkpt lat="43.29693" lon="-2.02084">
        <ele>19</ele>
        <time>2026-08-05T14:11:35Z</time>
      </trkpt>
      <trkpt lat="43.29691" lon="-2.02089">
        <ele>19</ele>
        <time>2026-08-05T14:11:36Z</time>
      </trkpt>
      <trkpt lat="43.29689" lon="-2.02094">
        <ele>19</ele>
        <time>2026-08-05T14:11:37Z</time>
      </trkpt>
      <trkpt lat="43.29686" lon="-2.02099">
        <ele>19</ele>
        <time>2026-08-05T14:11:38Z</time>
      </trkpt>
      <trkpt lat="43.29682" lon="-2.02103">
        <ele>19</ele>
        <time>2026-08-05T14:11:39Z</time>
      </trkpt>
      <trkpt lat="43.29678" lon="-2.02106">
        <ele>18.8</ele>
        <time>2026-08-05T14:11:40Z</time>
      </trkpt>
      <trkpt lat="43.29674" lon="-2.02109">
        <ele>18.6</ele>
        <time>2026-08-05T14:11:41Z</time>
      </trkpt>
      <trkpt lat="43.2967" lon="-2.02111">
        <ele>18.6</ele>
        <time>2026-08-05T14:11:42Z</time>
      </trkpt>
      <trkpt lat="43.29666" lon="-2.02112">
        <ele>18.6</ele>
        <time>2026-08-05T14:11:43Z</time>
      </trkpt>
      <trkpt lat="43.29661" lon="-2.02113">
        <ele>20</ele>
        <time>2026-08-05T14:11:44Z</time>
      </trkpt>
      <trkpt lat="43.29657" lon="-2.02113">
        <ele>20</ele>
        <time>2026-08-05T14:11:45Z</time>
      </trkpt>
      <trkpt lat="43.29653" lon="-2.02112">
        <ele>20</ele>
        <time>2026-08-05T14:11:46Z</time>
      </trkpt>
      <trkpt lat="43.2965" lon="-2.02111">
        <ele>20</ele>
        <time>2026-08-05T14:11:47Z</time>
      </trkpt>
      <trkpt lat="43.29647" lon="-2.02109">
        <ele>20</ele>
        <time>2026-08-05T14:11:48Z</time>
      </trkpt>
      <trkpt lat="43.29645" lon="-2.02108">
        <ele>22</ele>
        <time>2026-08-05T14:11:49Z</time>
      </trkpt>
      <trkpt lat="43.29642" lon="-2.02106">
        <ele>22</ele>
        <time>2026-08-05T14:11:50Z</time>
      </trkpt>
      <trkpt lat="43.29639" lon="-2.02105">
        <ele>22</ele>
        <time>2026-08-05T14:11:51Z</time>
      </trkpt>
      <trkpt lat="43.29636" lon="-2.02103">
        <ele>22</ele>
        <time>2026-08-05T14:11:52Z</time>
      </trkpt>
      <trkpt lat="43.29633" lon="-2.02101">
        <ele>22</ele>
        <time>2026-08-05T14:11:53Z</time>
      </trkpt>
      <trkpt lat="43.2963" lon="-2.021">
        <ele>22.8</ele>
        <time>2026-08-05T14:11:54Z</time>
      </trkpt>
      <trkpt lat="43.29628" lon="-2.02099">
        <ele>23</ele>
        <time>2026-08-05T14:11:55Z</time>
      </trkpt>
      <trkpt lat="43.29625" lon="-2.02098">
        <ele>23.2</ele>
        <time>2026-08-05T14:11:56Z</time>
      </trkpt>
      <trkpt lat="43.29623" lon="-2.02098">
        <ele>23.8</ele>
        <time>2026-08-05T14:11:57Z</time>
      </trkpt>
      <trkpt lat="43.29621" lon="-2.02097">
        <ele>23.8</ele>
        <time>2026-08-05T14:11:58Z</time>
      </trkpt>
      <trkpt lat="43.29617" lon="-2.02097">
        <ele>23.8</ele>
        <time>2026-08-05T14:11:59Z</time>
      </trkpt>
      <trkpt lat="43.29614" lon="-2.02096">
        <ele>23.8</ele>
        <time>2026-08-05T14:12:00Z</time>
      </trkpt>
      <trkpt lat="43.29611" lon="-2.02095">
        <ele>25</ele>
        <time>2026-08-05T14:12:01Z</time>
      </trkpt>
      <trkpt lat="43.29608" lon="-2.02094">
        <ele>25.4</ele>
        <time>2026-08-05T14:12:02Z</time>
      </trkpt>
      <trkpt lat="43.29605" lon="-2.02094">
        <ele>25.4</ele>
        <time>2026-08-05T14:12:03Z</time>
      </trkpt>
      <trkpt lat="43.29602" lon="-2.02094">
        <ele>25.4</ele>
        <time>2026-08-05T14:12:04Z</time>
      </trkpt>
      <trkpt lat="43.296" lon="-2.02095">
        <ele>25.4</ele>
        <time>2026-08-05T14:12:05Z</time>
      </trkpt>
      <trkpt lat="43.29597" lon="-2.02095">
        <ele>26.6</ele>
        <time>2026-08-05T14:12:06Z</time>
      </trkpt>
      <trkpt lat="43.29594" lon="-2.02095">
        <ele>26.6</ele>
        <time>2026-08-05T14:12:07Z</time>
      </trkpt>
      <trkpt lat="43.29591" lon="-2.02096">
        <ele>26.6</ele>
        <time>2026-08-05T14:12:08Z</time>
      </trkpt>
      <trkpt lat="43.29589" lon="-2.02097">
        <ele>26.6</ele>
        <time>2026-08-05T14:12:09Z</time>
      </trkpt>
      <trkpt lat="43.29586" lon="-2.02099">
        <ele>26</ele>
        <time>2026-08-05T14:12:10Z</time>
      </trkpt>
      <trkpt lat="43.29583" lon="-2.02101">
        <ele>26</ele>
        <time>2026-08-05T14:12:11Z</time>
      </trkpt>
      <trkpt lat="43.2958" lon="-2.02104">
        <ele>26</ele>
        <time>2026-08-05T14:12:12Z</time>
      </trkpt>
      <trkpt lat="43.29577" lon="-2.02106">
        <ele>26</ele>
        <time>2026-08-05T14:12:13Z</time>
      </trkpt>
      <trkpt lat="43.29574" lon="-2.02109">
        <ele>26</ele>
        <time>2026-08-05T14:12:14Z</time>
      </trkpt>
      <trkpt lat="43.29571" lon="-2.02112">
        <ele>26</ele>
        <time>2026-08-05T14:12:15Z</time>
      </trkpt>
      <trkpt lat="43.29568" lon="-2.02115">
        <ele>26</ele>
        <time>2026-08-05T14:12:16Z</time>
      </trkpt>
      <trkpt lat="43.29565" lon="-2.02118">
        <ele>26</ele>
        <time>2026-08-05T14:12:17Z</time>
      </trkpt>
      <trkpt lat="43.29563" lon="-2.02121">
        <ele>26</ele>
        <time>2026-08-05T14:12:18Z</time>
      </trkpt>
      <trkpt lat="43.29562" lon="-2.02124">
        <ele>26</ele>
        <time>2026-08-05T14:12:19Z</time>
      </trkpt>
      <trkpt lat="43.29559" lon="-2.02126">
        <ele>26</ele>
        <time>2026-08-05T14:12:20Z</time>
      </trkpt>
      <trkpt lat="43.29556" lon="-2.02128">
        <ele>26</ele>
        <time>2026-08-05T14:12:21Z</time>
      </trkpt>
      <trkpt lat="43.29554" lon="-2.02131">
        <ele>26</ele>
        <time>2026-08-05T14:12:22Z</time>
      </trkpt>
      <trkpt lat="43.29551" lon="-2.02133">
        <ele>26</ele>
        <time>2026-08-05T14:12:23Z</time>
      </trkpt>
      <trkpt lat="43.29549" lon="-2.02138">
        <ele>26</ele>
        <time>2026-08-05T14:12:24Z</time>
      </trkpt>
      <trkpt lat="43.29548" lon="-2.02145">
        <ele>26</ele>
        <time>2026-08-05T14:12:25Z</time>
      </trkpt>
      <trkpt lat="43.29547" lon="-2.02151">
        <ele>25.2</ele>
        <time>2026-08-05T14:12:26Z</time>
      </trkpt>
      <trkpt lat="43.29548" lon="-2.02158">
        <ele>25.2</ele>
        <time>2026-08-05T14:12:27Z</time>
      </trkpt>
      <trkpt lat="43.29549" lon="-2.02165">
        <ele>25.2</ele>
        <time>2026-08-05T14:12:28Z</time>
      </trkpt>
      <trkpt lat="43.29549" lon="-2.02171">
        <ele>25.2</ele>
        <time>2026-08-05T14:12:29Z</time>
      </trkpt>
      <trkpt lat="43.2955" lon="-2.02178">
        <ele>25.2</ele>
        <time>2026-08-05T14:12:30Z</time>
      </trkpt>
      <trkpt lat="43.29551" lon="-2.02186">
        <ele>25</ele>
        <time>2026-08-05T14:12:31Z</time>
      </trkpt>
      <trkpt lat="43.29552" lon="-2.02193">
        <ele>24</ele>
        <time>2026-08-05T14:12:32Z</time>
      </trkpt>
      <trkpt lat="43.29553" lon="-2.022">
        <ele>24</ele>
        <time>2026-08-05T14:12:33Z</time>
      </trkpt>
      <trkpt lat="43.29553" lon="-2.02207">
        <ele>24</ele>
        <time>2026-08-05T14:12:34Z</time>
      </trkpt>
      <trkpt lat="43.29554" lon="-2.02214">
        <ele>24</ele>
        <time>2026-08-05T14:12:35Z</time>
      </trkpt>
      <trkpt lat="43.29554" lon="-2.02221">
        <ele>24</ele>
        <time>2026-08-05T14:12:36Z</time>
      </trkpt>
      <trkpt lat="43.29554" lon="-2.02227">
        <ele>24</ele>
        <time>2026-08-05T14:12:37Z</time>
      </trkpt>
      <trkpt lat="43.29554" lon="-2.02234">
        <ele>24</ele>
        <time>2026-08-05T14:12:38Z</time>
      </trkpt>
      <trkpt lat="43.29553" lon="-2.02241">
        <ele>24</ele>
        <time>2026-08-05T14:12:39Z</time>
      </trkpt>
      <trkpt lat="43.29552" lon="-2.02248">
        <ele>24</ele>
        <time>2026-08-05T14:12:40Z</time>
      </trkpt>
      <trkpt lat="43.29551" lon="-2.02254">
        <ele>24</ele>
        <time>2026-08-05T14:12:41Z</time>
      </trkpt>
      <trkpt lat="43.29548" lon="-2.02261">
        <ele>24</ele>
        <time>2026-08-05T14:12:42Z</time>
      </trkpt>
      <trkpt lat="43.29545" lon="-2.02268">
        <ele>24</ele>
        <time>2026-08-05T14:12:43Z</time>
      </trkpt>
      <trkpt lat="43.29542" lon="-2.02273">
        <ele>24</ele>
        <time>2026-08-05T14:12:44Z</time>
      </trkpt>
      <trkpt lat="43.2954" lon="-2.02279">
        <ele>24</ele>
        <time>2026-08-05T14:12:45Z</time>
      </trkpt>
      <trkpt lat="43.29537" lon="-2.02285">
        <ele>24</ele>
        <time>2026-08-05T14:12:46Z</time>
      </trkpt>
      <trkpt lat="43.29534" lon="-2.0229">
        <ele>23.2</ele>
        <time>2026-08-05T14:12:47Z</time>
      </trkpt>
      <trkpt lat="43.2953" lon="-2.02294">
        <ele>23.2</ele>
        <time>2026-08-05T14:12:48Z</time>
      </trkpt>
      <trkpt lat="43.29527" lon="-2.02298">
        <ele>23.2</ele>
        <time>2026-08-05T14:12:49Z</time>
      </trkpt>
      <trkpt lat="43.29524" lon="-2.02302">
        <ele>24.2</ele>
        <time>2026-08-05T14:12:50Z</time>
      </trkpt>
      <trkpt lat="43.29521" lon="-2.02306">
        <ele>24.2</ele>
        <time>2026-08-05T14:12:51Z</time>
      </trkpt>
      <trkpt lat="43.29517" lon="-2.0231">
        <ele>24.2</ele>
        <time>2026-08-05T14:12:52Z</time>
      </trkpt>
      <trkpt lat="43.29514" lon="-2.02315">
        <ele>24.2</ele>
        <time>2026-08-05T14:12:53Z</time>
      </trkpt>
      <trkpt lat="43.29511" lon="-2.02319">
        <ele>24</ele>
        <time>2026-08-05T14:12:54Z</time>
      </trkpt>
      <trkpt lat="43.29508" lon="-2.02323">
        <ele>24.4</ele>
        <time>2026-08-05T14:12:55Z</time>
      </trkpt>
      <trkpt lat="43.29506" lon="-2.02328">
        <ele>24.4</ele>
        <time>2026-08-05T14:12:56Z</time>
      </trkpt>
      <trkpt lat="43.29503" lon="-2.02332">
        <ele>24.4</ele>
        <time>2026-08-05T14:12:57Z</time>
      </trkpt>
      <trkpt lat="43.295" lon="-2.02337">
        <ele>24.2</ele>
        <time>2026-08-05T14:12:58Z</time>
      </trkpt>
      <trkpt lat="43.29498" lon="-2.02342">
        <ele>24.2</ele>
        <time>2026-08-05T14:12:59Z</time>
      </trkpt>
      <trkpt lat="43.29497" lon="-2.02348">
        <ele>24.2</ele>
        <time>2026-08-05T14:13:00Z</time>
      </trkpt>
      <trkpt lat="43.29497" lon="-2.02353">
        <ele>24.8</ele>
        <time>2026-08-05T14:13:01Z</time>
      </trkpt>
      <trkpt lat="43.29497" lon="-2.0236">
        <ele>24.8</ele>
        <time>2026-08-05T14:13:02Z</time>
      </trkpt>
      <trkpt lat="43.29497" lon="-2.02366">
        <ele>24.8</ele>
        <time>2026-08-05T14:13:03Z</time>
      </trkpt>
      <trkpt lat="43.29497" lon="-2.02372">
        <ele>24.8</ele>
        <time>2026-08-05T14:13:04Z</time>
      </trkpt>
      <trkpt lat="43.29498" lon="-2.02378">
        <ele>24.8</ele>
        <time>2026-08-05T14:13:05Z</time>
      </trkpt>
      <trkpt lat="43.29498" lon="-2.02384">
        <ele>24.8</ele>
        <time>2026-08-05T14:13:06Z</time>
      </trkpt>
      <trkpt lat="43.29498" lon="-2.0239">
        <ele>24.8</ele>
        <time>2026-08-05T14:13:07Z</time>
      </trkpt>
      <trkpt lat="43.29499" lon="-2.02396">
        <ele>24.8</ele>
        <time>2026-08-05T14:13:08Z</time>
      </trkpt>
      <trkpt lat="43.295" lon="-2.02402">
        <ele>24.8</ele>
        <time>2026-08-05T14:13:09Z</time>
      </trkpt>
      <trkpt lat="43.29501" lon="-2.02408">
        <ele>24.8</ele>
        <time>2026-08-05T14:13:10Z</time>
      </trkpt>
      <trkpt lat="43.29502" lon="-2.02413">
        <ele>24.8</ele>
        <time>2026-08-05T14:13:11Z</time>
      </trkpt>
      <trkpt lat="43.29503" lon="-2.02418">
        <ele>25.4</ele>
        <time>2026-08-05T14:13:12Z</time>
      </trkpt>
      <trkpt lat="43.29504" lon="-2.02424">
        <ele>25.4</ele>
        <time>2026-08-05T14:13:13Z</time>
      </trkpt>
      <trkpt lat="43.29505" lon="-2.02429">
        <ele>25.4</ele>
        <time>2026-08-05T14:13:14Z</time>
      </trkpt>
      <trkpt lat="43.29507" lon="-2.02435">
        <ele>25.4</ele>
        <time>2026-08-05T14:13:15Z</time>
      </trkpt>
      <trkpt lat="43.29508" lon="-2.0244">
        <ele>25.4</ele>
        <time>2026-08-05T14:13:16Z</time>
      </trkpt>
      <trkpt lat="43.2951" lon="-2.02446">
        <ele>25.4</ele>
        <time>2026-08-05T14:13:17Z</time>
      </trkpt>
      <trkpt lat="43.29512" lon="-2.02452">
        <ele>25.4</ele>
        <time>2026-08-05T14:13:18Z</time>
      </trkpt>
      <trkpt lat="43.29514" lon="-2.02458">
        <ele>25.4</ele>
        <time>2026-08-05T14:13:19Z</time>
      </trkpt>
      <trkpt lat="43.29515" lon="-2.02464">
        <ele>25.4</ele>
        <time>2026-08-05T14:13:20Z</time>
      </trkpt>
      <trkpt lat="43.29517" lon="-2.02469">
        <ele>25.4</ele>
        <time>2026-08-05T14:13:21Z</time>
      </trkpt>
      <trkpt lat="43.29517" lon="-2.02476">
        <ele>25.4</ele>
        <time>2026-08-05T14:13:22Z</time>
      </trkpt>
      <trkpt lat="43.29518" lon="-2.02482">
        <ele>25.4</ele>
        <time>2026-08-05T14:13:23Z</time>
      </trkpt>
      <trkpt lat="43.29519" lon="-2.02488">
        <ele>25.4</ele>
        <time>2026-08-05T14:13:24Z</time>
      </trkpt>
      <trkpt lat="43.29518" lon="-2.02494">
        <ele>25.4</ele>
        <time>2026-08-05T14:13:25Z</time>
      </trkpt>
      <trkpt lat="43.29519" lon="-2.025">
        <ele>25.6</ele>
        <time>2026-08-05T14:13:26Z</time>
      </trkpt>
      <trkpt lat="43.2952" lon="-2.02506">
        <ele>25.6</ele>
        <time>2026-08-05T14:13:27Z</time>
      </trkpt>
      <trkpt lat="43.2952" lon="-2.02512">
        <ele>25.6</ele>
        <time>2026-08-05T14:13:28Z</time>
      </trkpt>
      <trkpt lat="43.29521" lon="-2.02518">
        <ele>25.6</ele>
        <time>2026-08-05T14:13:29Z</time>
      </trkpt>
      <trkpt lat="43.29522" lon="-2.02523">
        <ele>25.6</ele>
        <time>2026-08-05T14:13:30Z</time>
      </trkpt>
      <trkpt lat="43.29522" lon="-2.02529">
        <ele>25.6</ele>
        <time>2026-08-05T14:13:31Z</time>
      </trkpt>
      <trkpt lat="43.29522" lon="-2.02534">
        <ele>25.6</ele>
        <time>2026-08-05T14:13:32Z</time>
      </trkpt>
      <trkpt lat="43.29522" lon="-2.0254">
        <ele>25.8</ele>
        <time>2026-08-05T14:13:33Z</time>
      </trkpt>
      <trkpt lat="43.29521" lon="-2.02544">
        <ele>26</ele>
        <time>2026-08-05T14:13:34Z</time>
      </trkpt>
      <trkpt lat="43.29521" lon="-2.02549">
        <ele>26.2</ele>
        <time>2026-08-05T14:13:35Z</time>
      </trkpt>
      <trkpt lat="43.29521" lon="-2.02554">
        <ele>26.2</ele>
        <time>2026-08-05T14:13:36Z</time>
      </trkpt>
      <trkpt lat="43.29521" lon="-2.02559">
        <ele>26.2</ele>
        <time>2026-08-05T14:13:37Z</time>
      </trkpt>
      <trkpt lat="43.2952" lon="-2.02564">
        <ele>26.2</ele>
        <time>2026-08-05T14:13:38Z</time>
      </trkpt>
      <trkpt lat="43.29519" lon="-2.0257">
        <ele>26.6</ele>
        <time>2026-08-05T14:13:39Z</time>
      </trkpt>
      <trkpt lat="43.29519" lon="-2.02576">
        <ele>26.6</ele>
        <time>2026-08-05T14:13:40Z</time>
      </trkpt>
      <trkpt lat="43.29519" lon="-2.02582">
        <ele>26.6</ele>
        <time>2026-08-05T14:13:41Z</time>
      </trkpt>
      <trkpt lat="43.29518" lon="-2.02588">
        <ele>26.6</ele>
        <time>2026-08-05T14:13:42Z</time>
      </trkpt>
      <trkpt lat="43.29518" lon="-2.02593">
        <ele>25.6</ele>
        <time>2026-08-05T14:13:43Z</time>
      </trkpt>
      <trkpt lat="43.29517" lon="-2.02599">
        <ele>25.6</ele>
        <time>2026-08-05T14:13:44Z</time>
      </trkpt>
      <trkpt lat="43.29516" lon="-2.02605">
        <ele>25.6</ele>
        <time>2026-08-05T14:13:45Z</time>
      </trkpt>
      <trkpt lat="43.29516" lon="-2.02611">
        <ele>26</ele>
        <time>2026-08-05T14:13:46Z</time>
      </trkpt>
      <trkpt lat="43.29516" lon="-2.02617">
        <ele>26</ele>
        <time>2026-08-05T14:13:47Z</time>
      </trkpt>
      <trkpt lat="43.29515" lon="-2.02624">
        <ele>26</ele>
        <time>2026-08-05T14:13:48Z</time>
      </trkpt>
      <trkpt lat="43.29514" lon="-2.0263">
        <ele>26</ele>
        <time>2026-08-05T14:13:49Z</time>
      </trkpt>
      <trkpt lat="43.29512" lon="-2.02636">
        <ele>26.4</ele>
        <time>2026-08-05T14:13:50Z</time>
      </trkpt>
      <trkpt lat="43.2951" lon="-2.02642">
        <ele>26.6</ele>
        <time>2026-08-05T14:13:51Z</time>
      </trkpt>
      <trkpt lat="43.29508" lon="-2.02648">
        <ele>26.8</ele>
        <time>2026-08-05T14:13:52Z</time>
      </trkpt>
      <trkpt lat="43.29506" lon="-2.02654">
        <ele>26.8</ele>
        <time>2026-08-05T14:13:53Z</time>
      </trkpt>
      <trkpt lat="43.29503" lon="-2.02659">
        <ele>26.8</ele>
        <time>2026-08-05T14:13:54Z</time>
      </trkpt>
      <trkpt lat="43.29501" lon="-2.02665">
        <ele>26.8</ele>
        <time>2026-08-05T14:13:55Z</time>
      </trkpt>
      <trkpt lat="43.29498" lon="-2.0267">
        <ele>26.8</ele>
        <time>2026-08-05T14:13:56Z</time>
      </trkpt>
      <trkpt lat="43.29496" lon="-2.02674">
        <ele>26.8</ele>
        <time>2026-08-05T14:13:57Z</time>
      </trkpt>
      <trkpt lat="43.29494" lon="-2.02679">
        <ele>26.8</ele>
        <time>2026-08-05T14:13:58Z</time>
      </trkpt>
      <trkpt lat="43.29492" lon="-2.02683">
        <ele>26.8</ele>
        <time>2026-08-05T14:13:59Z</time>
      </trkpt>
      <trkpt lat="43.29489" lon="-2.02687">
        <ele>26.8</ele>
        <time>2026-08-05T14:14:00Z</time>
      </trkpt>
      <trkpt lat="43.29487" lon="-2.02691">
        <ele>28.4</ele>
        <time>2026-08-05T14:14:01Z</time>
      </trkpt>
      <trkpt lat="43.29485" lon="-2.02696">
        <ele>28.4</ele>
        <time>2026-08-05T14:14:02Z</time>
      </trkpt>
      <trkpt lat="43.29484" lon="-2.02702">
        <ele>28.4</ele>
        <time>2026-08-05T14:14:03Z</time>
      </trkpt>
      <trkpt lat="43.29483" lon="-2.02707">
        <ele>28.4</ele>
        <time>2026-08-05T14:14:04Z</time>
      </trkpt>
      <trkpt lat="43.29482" lon="-2.02713">
        <ele>28.4</ele>
        <time>2026-08-05T14:14:05Z</time>
      </trkpt>
      <trkpt lat="43.29481" lon="-2.02719">
        <ele>28.4</ele>
        <time>2026-08-05T14:14:06Z</time>
      </trkpt>
      <trkpt lat="43.29482" lon="-2.02724">
        <ele>28.4</ele>
        <time>2026-08-05T14:14:07Z</time>
      </trkpt>
      <trkpt lat="43.29483" lon="-2.0273">
        <ele>28.4</ele>
        <time>2026-08-05T14:14:08Z</time>
      </trkpt>
      <trkpt lat="43.29484" lon="-2.02735">
        <ele>28.4</ele>
        <time>2026-08-05T14:14:09Z</time>
      </trkpt>
      <trkpt lat="43.29485" lon="-2.0274">
        <ele>28.6</ele>
        <time>2026-08-05T14:14:10Z</time>
      </trkpt>
      <trkpt lat="43.29485" lon="-2.02745">
        <ele>29</ele>
        <time>2026-08-05T14:14:11Z</time>
      </trkpt>
      <trkpt lat="43.29486" lon="-2.0275">
        <ele>29</ele>
        <time>2026-08-05T14:14:12Z</time>
      </trkpt>
      <trkpt lat="43.29488" lon="-2.02754">
        <ele>29</ele>
        <time>2026-08-05T14:14:13Z</time>
      </trkpt>
      <trkpt lat="43.29488" lon="-2.0276">
        <ele>29</ele>
        <time>2026-08-05T14:14:14Z</time>
      </trkpt>
      <trkpt lat="43.29488" lon="-2.02766">
        <ele>29</ele>
        <time>2026-08-05T14:14:15Z</time>
      </trkpt>
      <trkpt lat="43.29487" lon="-2.02772">
        <ele>28.6</ele>
        <time>2026-08-05T14:14:16Z</time>
      </trkpt>
      <trkpt lat="43.29486" lon="-2.02779">
        <ele>28.6</ele>
        <time>2026-08-05T14:14:17Z</time>
      </trkpt>
      <trkpt lat="43.29486" lon="-2.02785">
        <ele>28.6</ele>
        <time>2026-08-05T14:14:18Z</time>
      </trkpt>
      <trkpt lat="43.29486" lon="-2.02791">
        <ele>29.6</ele>
        <time>2026-08-05T14:14:19Z</time>
      </trkpt>
      <trkpt lat="43.29485" lon="-2.02796">
        <ele>29.8</ele>
        <time>2026-08-05T14:14:20Z</time>
      </trkpt>
      <trkpt lat="43.29485" lon="-2.02801">
        <ele>29.8</ele>
        <time>2026-08-05T14:14:21Z</time>
      </trkpt>
      <trkpt lat="43.29485" lon="-2.02807">
        <ele>29.8</ele>
        <time>2026-08-05T14:14:22Z</time>
      </trkpt>
      <trkpt lat="43.29485" lon="-2.02812">
        <ele>29.4</ele>
        <time>2026-08-05T14:14:23Z</time>
      </trkpt>
      <trkpt lat="43.29485" lon="-2.02818">
        <ele>29</ele>
        <time>2026-08-05T14:14:24Z</time>
      </trkpt>
      <trkpt lat="43.29486" lon="-2.02824">
        <ele>29</ele>
        <time>2026-08-05T14:14:25Z</time>
      </trkpt>
      <trkpt lat="43.29487" lon="-2.0283">
        <ele>28.8</ele>
        <time>2026-08-05T14:14:26Z</time>
      </trkpt>
      <trkpt lat="43.29487" lon="-2.02836">
        <ele>28.8</ele>
        <time>2026-08-05T14:14:27Z</time>
      </trkpt>
      <trkpt lat="43.29487" lon="-2.02842">
        <ele>28.8</ele>
        <time>2026-08-05T14:14:28Z</time>
      </trkpt>
      <trkpt lat="43.29487" lon="-2.02848">
        <ele>28.8</ele>
        <time>2026-08-05T14:14:29Z</time>
      </trkpt>
      <trkpt lat="43.29486" lon="-2.02854">
        <ele>28.8</ele>
        <time>2026-08-05T14:14:30Z</time>
      </trkpt>
      <trkpt lat="43.29485" lon="-2.02859">
        <ele>29.6</ele>
        <time>2026-08-05T14:14:31Z</time>
      </trkpt>
      <trkpt lat="43.29484" lon="-2.02863">
        <ele>29.6</ele>
        <time>2026-08-05T14:14:32Z</time>
      </trkpt>
      <trkpt lat="43.29482" lon="-2.02867">
        <ele>29.6</ele>
        <time>2026-08-05T14:14:33Z</time>
      </trkpt>
      <trkpt lat="43.2948" lon="-2.0287">
        <ele>29.6</ele>
        <time>2026-08-05T14:14:34Z</time>
      </trkpt>
      <trkpt lat="43.29478" lon="-2.02873">
        <ele>30.6</ele>
        <time>2026-08-05T14:14:35Z</time>
      </trkpt>
      <trkpt lat="43.29476" lon="-2.02876">
        <ele>30.6</ele>
        <time>2026-08-05T14:14:36Z</time>
      </trkpt>
      <trkpt lat="43.29474" lon="-2.02878">
        <ele>31.2</ele>
        <time>2026-08-05T14:14:37Z</time>
      </trkpt>
      <trkpt lat="43.29472" lon="-2.0288">
        <ele>31.4</ele>
        <time>2026-08-05T14:14:38Z</time>
      </trkpt>
      <trkpt lat="43.2947" lon="-2.02882">
        <ele>31.4</ele>
        <time>2026-08-05T14:14:39Z</time>
      </trkpt>
      <trkpt lat="43.29469" lon="-2.02884">
        <ele>31.4</ele>
        <time>2026-08-05T14:14:40Z</time>
      </trkpt>
      <trkpt lat="43.29468" lon="-2.02885">
        <ele>31.4</ele>
        <time>2026-08-05T14:14:41Z</time>
      </trkpt>
      <trkpt lat="43.29468" lon="-2.02886">
        <ele>32.6</ele>
        <time>2026-08-05T14:14:42Z</time>
      </trkpt>
      <trkpt lat="43.29466" lon="-2.02888">
        <ele>32.6</ele>
        <time>2026-08-05T14:14:43Z</time>
      </trkpt>
      <trkpt lat="43.29465" lon="-2.0289">
        <ele>33.2</ele>
        <time>2026-08-05T14:14:44Z</time>
      </trkpt>
      <trkpt lat="43.29463" lon="-2.02892">
        <ele>33.4</ele>
        <time>2026-08-05T14:14:45Z</time>
      </trkpt>
      <trkpt lat="43.29461" lon="-2.02894">
        <ele>33.4</ele>
        <time>2026-08-05T14:14:46Z</time>
      </trkpt>
      <trkpt lat="43.29459" lon="-2.02896">
        <ele>33.8</ele>
        <time>2026-08-05T14:14:47Z</time>
      </trkpt>
      <trkpt lat="43.29457" lon="-2.02898">
        <ele>34.2</ele>
        <time>2026-08-05T14:14:48Z</time>
      </trkpt>
      <trkpt lat="43.29456" lon="-2.02901">
        <ele>34.8</ele>
        <time>2026-08-05T14:14:49Z</time>
      </trkpt>
      <trkpt lat="43.29454" lon="-2.02904">
        <ele>34.8</ele>
        <time>2026-08-05T14:14:50Z</time>
      </trkpt>
      <trkpt lat="43.29453" lon="-2.02907">
        <ele>35</ele>
        <time>2026-08-05T14:14:51Z</time>
      </trkpt>
      <trkpt lat="43.29451" lon="-2.0291">
        <ele>35.2</ele>
        <time>2026-08-05T14:14:52Z</time>
      </trkpt>
      <trkpt lat="43.2945" lon="-2.02913">
        <ele>35.4</ele>
        <time>2026-08-05T14:14:53Z</time>
      </trkpt>
      <trkpt lat="43.29449" lon="-2.02915">
        <ele>35.4</ele>
        <time>2026-08-05T14:14:54Z</time>
      </trkpt>
      <trkpt lat="43.29448" lon="-2.02918">
        <ele>35.4</ele>
        <time>2026-08-05T14:14:55Z</time>
      </trkpt>
      <trkpt lat="43.29447" lon="-2.02921">
        <ele>35.4</ele>
        <time>2026-08-05T14:14:56Z</time>
      </trkpt>
      <trkpt lat="43.29446" lon="-2.02923">
        <ele>36.2</ele>
        <time>2026-08-05T14:14:57Z</time>
      </trkpt>
      <trkpt lat="43.29445" lon="-2.02925">
        <ele>36.4</ele>
        <time>2026-08-05T14:14:58Z</time>
      </trkpt>
      <trkpt lat="43.29444" lon="-2.02928">
        <ele>36.8</ele>
        <time>2026-08-05T14:14:59Z</time>
      </trkpt>
      <trkpt lat="43.29443" lon="-2.0293">
        <ele>36.8</ele>
        <time>2026-08-05T14:15:00Z</time>
      </trkpt>
      <trkpt lat="43.29442" lon="-2.02932">
        <ele>37.4</ele>
        <time>2026-08-05T14:15:01Z</time>
      </trkpt>
      <trkpt lat="43.29441" lon="-2.02935">
        <ele>37.6</ele>
        <time>2026-08-05T14:15:02Z</time>
      </trkpt>
      <trkpt lat="43.2944" lon="-2.02937">
        <ele>37.8</ele>
        <time>2026-08-05T14:15:03Z</time>
      </trkpt>
      <trkpt lat="43.29439" lon="-2.0294">
        <ele>38</ele>
        <time>2026-08-05T14:15:04Z</time>
      </trkpt>
      <trkpt lat="43.29438" lon="-2.02943">
        <ele>38</ele>
        <time>2026-08-05T14:15:05Z</time>
      </trkpt>
      <trkpt lat="43.29437" lon="-2.02946">
        <ele>38.8</ele>
        <time>2026-08-05T14:15:06Z</time>
      </trkpt>
      <trkpt lat="43.29436" lon="-2.02948">
        <ele>38.8</ele>
        <time>2026-08-05T14:15:07Z</time>
      </trkpt>
      <trkpt lat="43.29434" lon="-2.0295">
        <ele>38.8</ele>
        <time>2026-08-05T14:15:08Z</time>
      </trkpt>
      <trkpt lat="43.29433" lon="-2.02953">
        <ele>39.2</ele>
        <time>2026-08-05T14:15:09Z</time>
      </trkpt>
      <trkpt lat="43.29431" lon="-2.02956">
        <ele>39.2</ele>
        <time>2026-08-05T14:15:10Z</time>
      </trkpt>
      <trkpt lat="43.2943" lon="-2.02958">
        <ele>39.6</ele>
        <time>2026-08-05T14:15:11Z</time>
      </trkpt>
      <trkpt lat="43.29429" lon="-2.02961">
        <ele>39.8</ele>
        <time>2026-08-05T14:15:12Z</time>
      </trkpt>
      <trkpt lat="43.29427" lon="-2.02963">
        <ele>40.2</ele>
        <time>2026-08-05T14:15:13Z</time>
      </trkpt>
      <trkpt lat="43.29426" lon="-2.02965">
        <ele>40.4</ele>
        <time>2026-08-05T14:15:14Z</time>
      </trkpt>
      <trkpt lat="43.29425" lon="-2.02968">
        <ele>40.6</ele>
        <time>2026-08-05T14:15:15Z</time>
      </trkpt>
      <trkpt lat="43.29424" lon="-2.0297">
        <ele>40.8</ele>
        <time>2026-08-05T14:15:16Z</time>
      </trkpt>
      <trkpt lat="43.29423" lon="-2.02973">
        <ele>41</ele>
        <time>2026-08-05T14:15:17Z</time>
      </trkpt>
      <trkpt lat="43.29422" lon="-2.02976">
        <ele>41.4</ele>
        <time>2026-08-05T14:15:18Z</time>
      </trkpt>
      <trkpt lat="43.29421" lon="-2.02978">
        <ele>41.4</ele>
        <time>2026-08-05T14:15:19Z</time>
      </trkpt>
      <trkpt lat="43.29421" lon="-2.02981">
        <ele>41.8</ele>
        <time>2026-08-05T14:15:20Z</time>
      </trkpt>
      <trkpt lat="43.2942" lon="-2.02984">
        <ele>42</ele>
        <time>2026-08-05T14:15:21Z</time>
      </trkpt>
      <trkpt lat="43.29419" lon="-2.02986">
        <ele>42.2</ele>
        <time>2026-08-05T14:15:22Z</time>
      </trkpt>
      <trkpt lat="43.29418" lon="-2.02989">
        <ele>42.4</ele>
        <time>2026-08-05T14:15:23Z</time>
      </trkpt>
      <trkpt lat="43.29417" lon="-2.02992">
        <ele>42.6</ele>
        <time>2026-08-05T14:15:24Z</time>
      </trkpt>
      <trkpt lat="43.29417" lon="-2.02995">
        <ele>43</ele>
        <time>2026-08-05T14:15:25Z</time>
      </trkpt>
      <trkpt lat="43.29416" lon="-2.02997">
        <ele>43</ele>
        <time>2026-08-05T14:15:26Z</time>
      </trkpt>
      <trkpt lat="43.29415" lon="-2.03">
        <ele>43</ele>
        <time>2026-08-05T14:15:27Z</time>
      </trkpt>
      <trkpt lat="43.29415" lon="-2.03003">
        <ele>43.6</ele>
        <time>2026-08-05T14:15:28Z</time>
      </trkpt>
      <trkpt lat="43.29415" lon="-2.03006">
        <ele>43.8</ele>
        <time>2026-08-05T14:15:29Z</time>
      </trkpt>
      <trkpt lat="43.29415" lon="-2.03008">
        <ele>44.2</ele>
        <time>2026-08-05T14:15:30Z</time>
      </trkpt>
      <trkpt lat="43.29415" lon="-2.03011">
        <ele>44.4</ele>
        <time>2026-08-05T14:15:31Z</time>
      </trkpt>
      <trkpt lat="43.29415" lon="-2.03014">
        <ele>44.4</ele>
        <time>2026-08-05T14:15:32Z</time>
      </trkpt>
      <trkpt lat="43.29415" lon="-2.03017">
        <ele>44.4</ele>
        <time>2026-08-05T14:15:33Z</time>
      </trkpt>
      <trkpt lat="43.29415" lon="-2.0302">
        <ele>44.4</ele>
        <time>2026-08-05T14:15:34Z</time>
      </trkpt>
      <trkpt lat="43.29416" lon="-2.03023">
        <ele>44.4</ele>
        <time>2026-08-05T14:15:35Z</time>
      </trkpt>
      <trkpt lat="43.29416" lon="-2.03026">
        <ele>45.4</ele>
        <time>2026-08-05T14:15:36Z</time>
      </trkpt>
      <trkpt lat="43.29417" lon="-2.03029">
        <ele>45.6</ele>
        <time>2026-08-05T14:15:37Z</time>
      </trkpt>
      <trkpt lat="43.29417" lon="-2.03031">
        <ele>46</ele>
        <time>2026-08-05T14:15:38Z</time>
      </trkpt>
      <trkpt lat="43.29418" lon="-2.03034">
        <ele>46.6</ele>
        <time>2026-08-05T14:15:39Z</time>
      </trkpt>
      <trkpt lat="43.29419" lon="-2.03037">
        <ele>46.6</ele>
        <time>2026-08-05T14:15:40Z</time>
      </trkpt>
      <trkpt lat="43.2942" lon="-2.0304">
        <ele>47</ele>
        <time>2026-08-05T14:15:41Z</time>
      </trkpt>
      <trkpt lat="43.29421" lon="-2.03042">
        <ele>47.4</ele>
        <time>2026-08-05T14:15:42Z</time>
      </trkpt>
      <trkpt lat="43.29422" lon="-2.03045">
        <ele>47.6</ele>
        <time>2026-08-05T14:15:43Z</time>
      </trkpt>
      <trkpt lat="43.29423" lon="-2.03047">
        <ele>48.2</ele>
        <time>2026-08-05T14:15:44Z</time>
      </trkpt>
      <trkpt lat="43.29423" lon="-2.03049">
        <ele>48.2</ele>
        <time>2026-08-05T14:15:45Z</time>
      </trkpt>
      <trkpt lat="43.29424" lon="-2.0305">
        <ele>48.6</ele>
        <time>2026-08-05T14:15:46Z</time>
      </trkpt>
      <trkpt lat="43.29424" lon="-2.03052">
        <ele>48.6</ele>
        <time>2026-08-05T14:15:47Z</time>
      </trkpt>
      <trkpt lat="43.29424" lon="-2.03053">
        <ele>48.6</ele>
        <time>2026-08-05T14:15:48Z</time>
      </trkpt>
      <trkpt lat="43.29424" lon="-2.03054">
        <ele>48.6</ele>
        <time>2026-08-05T14:15:49Z</time>
      </trkpt>
      <trkpt lat="43.29424" lon="-2.03054">
        <ele>48.6</ele>
        <time>2026-08-05T14:15:50Z</time>
      </trkpt>
      <trkpt lat="43.29422" lon="-2.03063">
        <ele>47.6</ele>
        <time>2026-08-05T14:16:23Z</time>
      </trkpt>
      <trkpt lat="43.29423" lon="-2.03068">
        <ele>46.4</ele>
        <time>2026-08-05T14:16:24Z</time>
      </trkpt>
      <trkpt lat="43.29423" lon="-2.03075">
        <ele>45.8</ele>
        <time>2026-08-05T14:16:25Z</time>
      </trkpt>
      <trkpt lat="43.29424" lon="-2.03082">
        <ele>44.2</ele>
        <time>2026-08-05T14:16:26Z</time>
      </trkpt>
      <trkpt lat="43.29424" lon="-2.0309">
        <ele>44.2</ele>
        <time>2026-08-05T14:16:27Z</time>
      </trkpt>
      <trkpt lat="43.29425" lon="-2.031">
        <ele>44.2</ele>
        <time>2026-08-05T14:16:28Z</time>
      </trkpt>
      <trkpt lat="43.29426" lon="-2.0311">
        <ele>44.2</ele>
        <time>2026-08-05T14:16:29Z</time>
      </trkpt>
      <trkpt lat="43.29428" lon="-2.03121">
        <ele>41.4</ele>
        <time>2026-08-05T14:16:30Z</time>
      </trkpt>
      <trkpt lat="43.2943" lon="-2.03132">
        <ele>40.6</ele>
        <time>2026-08-05T14:16:31Z</time>
      </trkpt>
      <trkpt lat="43.29432" lon="-2.03144">
        <ele>40.6</ele>
        <time>2026-08-05T14:16:32Z</time>
      </trkpt>
      <trkpt lat="43.29434" lon="-2.03155">
        <ele>40.6</ele>
        <time>2026-08-05T14:16:33Z</time>
      </trkpt>
      <trkpt lat="43.29435" lon="-2.03166">
        <ele>40.6</ele>
        <time>2026-08-05T14:16:34Z</time>
      </trkpt>
      <trkpt lat="43.29437" lon="-2.03177">
        <ele>42</ele>
        <time>2026-08-05T14:16:35Z</time>
      </trkpt>
      <trkpt lat="43.29437" lon="-2.03187">
        <ele>42</ele>
        <time>2026-08-05T14:16:36Z</time>
      </trkpt>
      <trkpt lat="43.29437" lon="-2.03197">
        <ele>42</ele>
        <time>2026-08-05T14:16:37Z</time>
      </trkpt>
      <trkpt lat="43.29436" lon="-2.03206">
        <ele>42</ele>
        <time>2026-08-05T14:16:38Z</time>
      </trkpt>
      <trkpt lat="43.29436" lon="-2.03216">
        <ele>42</ele>
        <time>2026-08-05T14:16:39Z</time>
      </trkpt>
      <trkpt lat="43.29435" lon="-2.03227">
        <ele>42</ele>
        <time>2026-08-05T14:16:40Z</time>
      </trkpt>
      <trkpt lat="43.29433" lon="-2.03237">
        <ele>42</ele>
        <time>2026-08-05T14:16:41Z</time>
      </trkpt>
      <trkpt lat="43.2943" lon="-2.03246">
        <ele>42</ele>
        <time>2026-08-05T14:16:42Z</time>
      </trkpt>
      <trkpt lat="43.29428" lon="-2.03256">
        <ele>42</ele>
        <time>2026-08-05T14:16:43Z</time>
      </trkpt>
      <trkpt lat="43.29425" lon="-2.03266">
        <ele>42</ele>
        <time>2026-08-05T14:16:44Z</time>
      </trkpt>
      <trkpt lat="43.29424" lon="-2.03274">
        <ele>43</ele>
        <time>2026-08-05T14:16:45Z</time>
      </trkpt>
      <trkpt lat="43.29423" lon="-2.03282">
        <ele>43</ele>
        <time>2026-08-05T14:16:46Z</time>
      </trkpt>
      <trkpt lat="43.29423" lon="-2.03288">
        <ele>43</ele>
        <time>2026-08-05T14:16:47Z</time>
      </trkpt>
      <trkpt lat="43.29422" lon="-2.03293">
        <ele>43</ele>
        <time>2026-08-05T14:16:48Z</time>
      </trkpt>
      <trkpt lat="43.29423" lon="-2.03297">
        <ele>45.8</ele>
        <time>2026-08-05T14:16:49Z</time>
      </trkpt>
      <trkpt lat="43.29424" lon="-2.03301">
        <ele>45.8</ele>
        <time>2026-08-05T14:16:50Z</time>
      </trkpt>
      <trkpt lat="43.29423" lon="-2.03305">
        <ele>45.8</ele>
        <time>2026-08-05T14:16:51Z</time>
      </trkpt>
      <trkpt lat="43.29425" lon="-2.0331">
        <ele>45.8</ele>
        <time>2026-08-05T14:16:52Z</time>
      </trkpt>
      <trkpt lat="43.29427" lon="-2.03315">
        <ele>45.8</ele>
        <time>2026-08-05T14:16:53Z</time>
      </trkpt>
      <trkpt lat="43.29429" lon="-2.03321">
        <ele>45.2</ele>
        <time>2026-08-05T14:16:54Z</time>
      </trkpt>
      <trkpt lat="43.29431" lon="-2.03327">
        <ele>44.8</ele>
        <time>2026-08-05T14:16:55Z</time>
      </trkpt>
      <trkpt lat="43.29434" lon="-2.03334">
        <ele>44</ele>
        <time>2026-08-05T14:16:56Z</time>
      </trkpt>
      <trkpt lat="43.29438" lon="-2.0334">
        <ele>43.4</ele>
        <time>2026-08-05T14:16:57Z</time>
      </trkpt>
      <trkpt lat="43.29442" lon="-2.03347">
        <ele>43</ele>
        <time>2026-08-05T14:16:58Z</time>
      </trkpt>
      <trkpt lat="43.29446" lon="-2.03354">
        <ele>41.4</ele>
        <time>2026-08-05T14:16:59Z</time>
      </trkpt>
      <trkpt lat="43.29449" lon="-2.03363">
        <ele>41.4</ele>
        <time>2026-08-05T14:17:00Z</time>
      </trkpt>
      <trkpt lat="43.29451" lon="-2.03372">
        <ele>41.4</ele>
        <time>2026-08-05T14:17:01Z</time>
      </trkpt>
      <trkpt lat="43.29453" lon="-2.0338">
        <ele>42.4</ele>
        <time>2026-08-05T14:17:02Z</time>
      </trkpt>
      <trkpt lat="43.29455" lon="-2.03388">
        <ele>43.4</ele>
        <time>2026-08-05T14:17:03Z</time>
      </trkpt>
      <trkpt lat="43.29456" lon="-2.03395">
        <ele>43.8</ele>
        <time>2026-08-05T14:17:04Z</time>
      </trkpt>
      <trkpt lat="43.29458" lon="-2.03402">
        <ele>44.6</ele>
        <time>2026-08-05T14:17:05Z</time>
      </trkpt>
      <trkpt lat="43.2946" lon="-2.03409">
        <ele>44.6</ele>
        <time>2026-08-05T14:17:06Z</time>
      </trkpt>
      <trkpt lat="43.29463" lon="-2.03415">
        <ele>44.6</ele>
        <time>2026-08-05T14:17:07Z</time>
      </trkpt>
      <trkpt lat="43.29466" lon="-2.0342">
        <ele>44.4</ele>
        <time>2026-08-05T14:17:08Z</time>
      </trkpt>
      <trkpt lat="43.29469" lon="-2.03425">
        <ele>44.4</ele>
        <time>2026-08-05T14:17:09Z</time>
      </trkpt>
      <trkpt lat="43.29472" lon="-2.0343">
        <ele>45</ele>
        <time>2026-08-05T14:17:10Z</time>
      </trkpt>
      <trkpt lat="43.29475" lon="-2.03434">
        <ele>45</ele>
        <time>2026-08-05T14:17:11Z</time>
      </trkpt>
      <trkpt lat="43.29479" lon="-2.03437">
        <ele>45</ele>
        <time>2026-08-05T14:17:12Z</time>
      </trkpt>
      <trkpt lat="43.29483" lon="-2.03441">
        <ele>44</ele>
        <time>2026-08-05T14:17:13Z</time>
      </trkpt>
      <trkpt lat="43.29488" lon="-2.03445">
        <ele>44</ele>
        <time>2026-08-05T14:17:14Z</time>
      </trkpt>
      <trkpt lat="43.29492" lon="-2.0345">
        <ele>44</ele>
        <time>2026-08-05T14:17:15Z</time>
      </trkpt>
      <trkpt lat="43.29497" lon="-2.03457">
        <ele>44</ele>
        <time>2026-08-05T14:17:16Z</time>
      </trkpt>
      <trkpt lat="43.29502" lon="-2.03463">
        <ele>43.4</ele>
        <time>2026-08-05T14:17:17Z</time>
      </trkpt>
      <trkpt lat="43.29506" lon="-2.03469">
        <ele>43.4</ele>
        <time>2026-08-05T14:17:18Z</time>
      </trkpt>
      <trkpt lat="43.29511" lon="-2.03475">
        <ele>43.4</ele>
        <time>2026-08-05T14:17:19Z</time>
      </trkpt>
      <trkpt lat="43.29516" lon="-2.03481">
        <ele>43.4</ele>
        <time>2026-08-05T14:17:20Z</time>
      </trkpt>
      <trkpt lat="43.29522" lon="-2.03486">
        <ele>43.4</ele>
        <time>2026-08-05T14:17:21Z</time>
      </trkpt>
      <trkpt lat="43.29527" lon="-2.03491">
        <ele>43.4</ele>
        <time>2026-08-05T14:17:22Z</time>
      </trkpt>
      <trkpt lat="43.29532" lon="-2.03497">
        <ele>43.4</ele>
        <time>2026-08-05T14:17:23Z</time>
      </trkpt>
      <trkpt lat="43.29538" lon="-2.03503">
        <ele>43.4</ele>
        <time>2026-08-05T14:17:24Z</time>
      </trkpt>
      <trkpt lat="43.29542" lon="-2.0351">
        <ele>43.2</ele>
        <time>2026-08-05T14:17:25Z</time>
      </trkpt>
      <trkpt lat="43.29547" lon="-2.03517">
        <ele>42.2</ele>
        <time>2026-08-05T14:17:26Z</time>
      </trkpt>
      <trkpt lat="43.29551" lon="-2.03525">
        <ele>41.2</ele>
        <time>2026-08-05T14:17:27Z</time>
      </trkpt>
      <trkpt lat="43.29555" lon="-2.03533">
        <ele>40.2</ele>
        <time>2026-08-05T14:17:28Z</time>
      </trkpt>
      <trkpt lat="43.2956" lon="-2.03542">
        <ele>39.2</ele>
        <time>2026-08-05T14:17:29Z</time>
      </trkpt>
      <trkpt lat="43.29565" lon="-2.0355">
        <ele>38.2</ele>
        <time>2026-08-05T14:17:30Z</time>
      </trkpt>
      <trkpt lat="43.29569" lon="-2.03558">
        <ele>37.2</ele>
        <time>2026-08-05T14:17:31Z</time>
      </trkpt>
      <trkpt lat="43.29574" lon="-2.03567">
        <ele>37.2</ele>
        <time>2026-08-05T14:17:32Z</time>
      </trkpt>
      <trkpt lat="43.29578" lon="-2.03575">
        <ele>37.2</ele>
        <time>2026-08-05T14:17:33Z</time>
      </trkpt>
      <trkpt lat="43.29583" lon="-2.03583">
        <ele>37.2</ele>
        <time>2026-08-05T14:17:34Z</time>
      </trkpt>
      <trkpt lat="43.29587" lon="-2.0359">
        <ele>37.2</ele>
        <time>2026-08-05T14:17:35Z</time>
      </trkpt>
      <trkpt lat="43.29591" lon="-2.03598">
        <ele>37.2</ele>
        <time>2026-08-05T14:17:36Z</time>
      </trkpt>
      <trkpt lat="43.29595" lon="-2.03606">
        <ele>37.2</ele>
        <time>2026-08-05T14:17:37Z</time>
      </trkpt>
      <trkpt lat="43.29599" lon="-2.03614">
        <ele>37.4</ele>
        <time>2026-08-05T14:17:38Z</time>
      </trkpt>
      <trkpt lat="43.29602" lon="-2.03621">
        <ele>37.4</ele>
        <time>2026-08-05T14:17:39Z</time>
      </trkpt>
      <trkpt lat="43.29605" lon="-2.03628">
        <ele>36.8</ele>
        <time>2026-08-05T14:17:40Z</time>
      </trkpt>
      <trkpt lat="43.29608" lon="-2.03635">
        <ele>36.6</ele>
        <time>2026-08-05T14:17:41Z</time>
      </trkpt>
      <trkpt lat="43.29612" lon="-2.03643">
        <ele>36.6</ele>
        <time>2026-08-05T14:17:42Z</time>
      </trkpt>
      <trkpt lat="43.29615" lon="-2.03651">
        <ele>36.6</ele>
        <time>2026-08-05T14:17:43Z</time>
      </trkpt>
      <trkpt lat="43.29617" lon="-2.03658">
        <ele>36.6</ele>
        <time>2026-08-05T14:17:44Z</time>
      </trkpt>
      <trkpt lat="43.29619" lon="-2.03664">
        <ele>36.6</ele>
        <time>2026-08-05T14:17:45Z</time>
      </trkpt>
      <trkpt lat="43.29619" lon="-2.03669">
        <ele>38.2</ele>
        <time>2026-08-05T14:17:46Z</time>
      </trkpt>
      <trkpt lat="43.2962" lon="-2.03673">
        <ele>38.2</ele>
        <time>2026-08-05T14:17:47Z</time>
      </trkpt>
      <trkpt lat="43.29622" lon="-2.03677">
        <ele>38.8</ele>
        <time>2026-08-05T14:17:48Z</time>
      </trkpt>
      <trkpt lat="43.29623" lon="-2.03679">
        <ele>38.8</ele>
        <time>2026-08-05T14:17:49Z</time>
      </trkpt>
      <trkpt lat="43.29623" lon="-2.0368">
        <ele>38.8</ele>
        <time>2026-08-05T14:17:50Z</time>
      </trkpt>
      <trkpt lat="43.29624" lon="-2.03682">
        <ele>38.6</ele>
        <time>2026-08-05T14:17:51Z</time>
      </trkpt>
      <trkpt lat="43.29624" lon="-2.03683">
        <ele>38.6</ele>
        <time>2026-08-05T14:17:52Z</time>
      </trkpt>
      <trkpt lat="43.29625" lon="-2.03685">
        <ele>38.6</ele>
        <time>2026-08-05T14:17:53Z</time>
      </trkpt>
      <trkpt lat="43.29625" lon="-2.03686">
        <ele>38.8</ele>
        <time>2026-08-05T14:17:54Z</time>
      </trkpt>
      <trkpt lat="43.29625" lon="-2.03688">
        <ele>38.8</ele>
        <time>2026-08-05T14:17:55Z</time>
      </trkpt>
      <trkpt lat="43.29625" lon="-2.0369">
        <ele>38.8</ele>
        <time>2026-08-05T14:17:56Z</time>
      </trkpt>
      <trkpt lat="43.29626" lon="-2.03692">
        <ele>38.8</ele>
        <time>2026-08-05T14:17:57Z</time>
      </trkpt>
      <trkpt lat="43.29627" lon="-2.03696">
        <ele>38.8</ele>
        <time>2026-08-05T14:17:58Z</time>
      </trkpt>
      <trkpt lat="43.29627" lon="-2.03698">
        <ele>38.8</ele>
        <time>2026-08-05T14:17:59Z</time>
      </trkpt>
      <trkpt lat="43.29628" lon="-2.037">
        <ele>38.8</ele>
        <time>2026-08-05T14:18:00Z</time>
      </trkpt>
      <trkpt lat="43.29629" lon="-2.03702">
        <ele>39</ele>
        <time>2026-08-05T14:18:01Z</time>
      </trkpt>
      <trkpt lat="43.29629" lon="-2.03703">
        <ele>39</ele>
        <time>2026-08-05T14:18:02Z</time>
      </trkpt>
      <trkpt lat="43.29629" lon="-2.03705">
        <ele>39</ele>
        <time>2026-08-05T14:18:03Z</time>
      </trkpt>
      <trkpt lat="43.2963" lon="-2.03707">
        <ele>39</ele>
        <time>2026-08-05T14:18:04Z</time>
      </trkpt>
      <trkpt lat="43.29632" lon="-2.03709">
        <ele>39</ele>
        <time>2026-08-05T14:18:05Z</time>
      </trkpt>
      <trkpt lat="43.29634" lon="-2.03711">
        <ele>39</ele>
        <time>2026-08-05T14:18:06Z</time>
      </trkpt>
      <trkpt lat="43.29636" lon="-2.03713">
        <ele>39.4</ele>
        <time>2026-08-05T14:18:07Z</time>
      </trkpt>
      <trkpt lat="43.29638" lon="-2.03715">
        <ele>39.4</ele>
        <time>2026-08-05T14:18:08Z</time>
      </trkpt>
      <trkpt lat="43.2964" lon="-2.03715">
        <ele>39.8</ele>
        <time>2026-08-05T14:18:09Z</time>
      </trkpt>
      <trkpt lat="43.29641" lon="-2.03716">
        <ele>39.8</ele>
        <time>2026-08-05T14:18:10Z</time>
      </trkpt>
      <trkpt lat="43.29642" lon="-2.03717">
        <ele>39.8</ele>
        <time>2026-08-05T14:18:11Z</time>
      </trkpt>
      <trkpt lat="43.29642" lon="-2.03717">
        <ele>39.8</ele>
        <time>2026-08-05T14:18:12Z</time>
      </trkpt>
      <trkpt lat="43.29646" lon="-2.0372">
        <ele>40.4</ele>
        <time>2026-08-05T14:18:16Z</time>
      </trkpt>
      <trkpt lat="43.29648" lon="-2.03721">
        <ele>40.4</ele>
        <time>2026-08-05T14:18:17Z</time>
      </trkpt>
      <trkpt lat="43.29648" lon="-2.03721">
        <ele>40.4</ele>
        <time>2026-08-05T14:18:18Z</time>
      </trkpt>
      <trkpt lat="43.29648" lon="-2.03721">
        <ele>40.4</ele>
        <time>2026-08-05T14:18:19Z</time>
      </trkpt>
      <trkpt lat="43.29653" lon="-2.03732">
        <ele>42</ele>
        <time>2026-08-05T14:18:31Z</time>
      </trkpt>
      <trkpt lat="43.29654" lon="-2.03733">
        <ele>42.2</ele>
        <time>2026-08-05T14:18:32Z</time>
      </trkpt>
      <trkpt lat="43.29655" lon="-2.03734">
        <ele>42.6</ele>
        <time>2026-08-05T14:18:33Z</time>
      </trkpt>
      <trkpt lat="43.29657" lon="-2.03734">
        <ele>42.8</ele>
        <time>2026-08-05T14:18:34Z</time>
      </trkpt>
      <trkpt lat="43.29658" lon="-2.03735">
        <ele>43</ele>
        <time>2026-08-05T14:18:35Z</time>
      </trkpt>
      <trkpt lat="43.2966" lon="-2.03736">
        <ele>43.4</ele>
        <time>2026-08-05T14:18:36Z</time>
      </trkpt>
      <trkpt lat="43.29661" lon="-2.03736">
        <ele>43.4</ele>
        <time>2026-08-05T14:18:37Z</time>
      </trkpt>
      <trkpt lat="43.29662" lon="-2.03737">
        <ele>43.4</ele>
        <time>2026-08-05T14:18:38Z</time>
      </trkpt>
      <trkpt lat="43.29664" lon="-2.03737">
        <ele>43.4</ele>
        <time>2026-08-05T14:18:39Z</time>
      </trkpt>
      <trkpt lat="43.29665" lon="-2.03738">
        <ele>43.4</ele>
        <time>2026-08-05T14:18:40Z</time>
      </trkpt>
      <trkpt lat="43.29666" lon="-2.03738">
        <ele>43.8</ele>
        <time>2026-08-05T14:18:41Z</time>
      </trkpt>
      <trkpt lat="43.29667" lon="-2.03739">
        <ele>44</ele>
        <time>2026-08-05T14:18:42Z</time>
      </trkpt>
      <trkpt lat="43.29669" lon="-2.03739">
        <ele>44.2</ele>
        <time>2026-08-05T14:18:43Z</time>
      </trkpt>
      <trkpt lat="43.2967" lon="-2.0374">
        <ele>44.2</ele>
        <time>2026-08-05T14:18:44Z</time>
      </trkpt>
      <trkpt lat="43.29671" lon="-2.0374">
        <ele>44.4</ele>
        <time>2026-08-05T14:18:45Z</time>
      </trkpt>
      <trkpt lat="43.29672" lon="-2.03741">
        <ele>44.4</ele>
        <time>2026-08-05T14:18:46Z</time>
      </trkpt>
      <trkpt lat="43.29673" lon="-2.03742">
        <ele>44.8</ele>
        <time>2026-08-05T14:18:47Z</time>
      </trkpt>
      <trkpt lat="43.29673" lon="-2.03743">
        <ele>44.8</ele>
        <time>2026-08-05T14:18:48Z</time>
      </trkpt>
      <trkpt lat="43.29674" lon="-2.03743">
        <ele>44.8</ele>
        <time>2026-08-05T14:18:49Z</time>
      </trkpt>
      <trkpt lat="43.29675" lon="-2.03744">
        <ele>45.2</ele>
        <time>2026-08-05T14:18:50Z</time>
      </trkpt>
      <trkpt lat="43.29679" lon="-2.03745">
        <ele>45.8</ele>
        <time>2026-08-05T14:18:54Z</time>
      </trkpt>
      <trkpt lat="43.2968" lon="-2.03746">
        <ele>45.8</ele>
        <time>2026-08-05T14:18:55Z</time>
      </trkpt>
      <trkpt lat="43.2968" lon="-2.03746">
        <ele>46</ele>
        <time>2026-08-05T14:18:56Z</time>
      </trkpt>
    </trkseg>
  </trk>
</gpx>